<?xml version="1.0" encoding="UTF-8"?><gpx version="1.1" creator="Exported from Strava via extension e-ivanov.ru"  xsi:schemaLocation="http://www.topografix.com/GPX/1/1 http://www.topografix.com/GPX/1/1/gpx.xsd http://www.garmin.com/xmlschemas/GpxExtensions/v3 http://www.garmin.com/xmlschemas/GpxExtensionsv3.xsd http://www.garmin.com/xmlschemas/TrackPointExtension/v1 http://www.garmin.com/xmlschemas/TrackPointExtensionv1.xsd"  xmlns="http://www.topografix.com/GPX/1/1"  xmlns:gpxtpx="http://www.garmin.com/xmlschemas/TrackPointExtension/v1"  xmlns:gpxx="http://www.garmin.com/xmlschemas/GpxExtensions/v3" xmlns:xsi="http://www.w3.org/2001/XMLSchema-instance"><metadata><link href="http://e-ivanov.ru/projects/strava-export-gpx/"><text>Strava gpx export</text></link><time>2022-04-17T11:11:52.255Z</time></metadata><trk><name>RR/22 - 07 Achel | Fietsrit | Strava</name><trkseg><trkpt lon="5.742066" lat="51.144939"><ele>26.6</ele><time>2022-04-17T06:30:00.000Z</time></trkpt><trkpt lon="5.742047" lat="51.144935"><ele>26.6</ele><time>2022-04-17T06:30:01.000Z</time></trkpt><trkpt lon="5.742018" lat="51.144929"><ele>26.6</ele><time>2022-04-17T06:30:02.000Z</time></trkpt><trkpt lon="5.741989" lat="51.144921"><ele>26.6</ele><time>2022-04-17T06:30:03.000Z</time></trkpt><trkpt lon="5.741957" lat="51.144906"><ele>26.6</ele><time>2022-04-17T06:30:04.000Z</time></trkpt><trkpt lon="5.741925" lat="51.144883"><ele>26.6</ele><time>2022-04-17T06:30:05.000Z</time></trkpt><trkpt lon="5.7419" lat="51.144858"><ele>26.6</ele><time>2022-04-17T06:30:06.000Z</time></trkpt><trkpt lon="5.741882" lat="51.144825"><ele>26.4</ele><time>2022-04-17T06:30:07.000Z</time></trkpt><trkpt lon="5.741872" lat="51.144782"><ele>26.4</ele><time>2022-04-17T06:30:08.000Z</time></trkpt><trkpt lon="5.74187" lat="51.144739"><ele>26.4</ele><time>2022-04-17T06:30:09.000Z</time></trkpt><trkpt lon="5.74187" lat="51.144695"><ele>26.2</ele><time>2022-04-17T06:30:10.000Z</time></trkpt><trkpt lon="5.741872" lat="51.144652"><ele>26.2</ele><time>2022-04-17T06:30:11.000Z</time></trkpt><trkpt lon="5.741872" lat="51.144606"><ele>26.2</ele><time>2022-04-17T06:30:12.000Z</time></trkpt><trkpt lon="5.741872" lat="51.14456"><ele>26.2</ele><time>2022-04-17T06:30:13.000Z</time></trkpt><trkpt lon="5.741875" lat="51.144515"><ele>26.2</ele><time>2022-04-17T06:30:14.000Z</time></trkpt><trkpt lon="5.74188" lat="51.14447"><ele>26</ele><time>2022-04-17T06:30:15.000Z</time></trkpt><trkpt lon="5.741885" lat="51.144427"><ele>26</ele><time>2022-04-17T06:30:16.000Z</time></trkpt><trkpt lon="5.741891" lat="51.144381"><ele>26</ele><time>2022-04-17T06:30:17.000Z</time></trkpt><trkpt lon="5.741893" lat="51.144335"><ele>26</ele><time>2022-04-17T06:30:18.000Z</time></trkpt><trkpt lon="5.741891" lat="51.14429"><ele>26.2</ele><time>2022-04-17T06:30:19.000Z</time></trkpt><trkpt lon="5.74189" lat="51.144249"><ele>26.2</ele><time>2022-04-17T06:30:20.000Z</time></trkpt><trkpt lon="5.74189" lat="51.144205"><ele>26.2</ele><time>2022-04-17T06:30:21.000Z</time></trkpt><trkpt lon="5.741891" lat="51.144161"><ele>26.2</ele><time>2022-04-17T06:30:22.000Z</time></trkpt><trkpt lon="5.741893" lat="51.144117"><ele>26.2</ele><time>2022-04-17T06:30:23.000Z</time></trkpt><trkpt lon="5.741896" lat="51.144072"><ele>26.2</ele><time>2022-04-17T06:30:24.000Z</time></trkpt><trkpt lon="5.741893" lat="51.144027"><ele>26.2</ele><time>2022-04-17T06:30:25.000Z</time></trkpt><trkpt lon="5.741884" lat="51.143983"><ele>26.4</ele><time>2022-04-17T06:30:26.000Z</time></trkpt><trkpt lon="5.741876" lat="51.143933"><ele>26.4</ele><time>2022-04-17T06:30:27.000Z</time></trkpt><trkpt lon="5.741873" lat="51.143883"><ele>26.4</ele><time>2022-04-17T06:30:28.000Z</time></trkpt><trkpt lon="5.741874" lat="51.143829"><ele>26.4</ele><time>2022-04-17T06:30:29.000Z</time></trkpt><trkpt lon="5.741875" lat="51.143775"><ele>26.4</ele><time>2022-04-17T06:30:30.000Z</time></trkpt><trkpt lon="5.741873" lat="51.143717"><ele>26.4</ele><time>2022-04-17T06:30:31.000Z</time></trkpt><trkpt lon="5.741872" lat="51.143662"><ele>26.4</ele><time>2022-04-17T06:30:32.000Z</time></trkpt><trkpt lon="5.741869" lat="51.143606"><ele>26.4</ele><time>2022-04-17T06:30:33.000Z</time></trkpt><trkpt lon="5.741866" lat="51.143545"><ele>26.4</ele><time>2022-04-17T06:30:34.000Z</time></trkpt><trkpt lon="5.741862" lat="51.143488"><ele>26.4</ele><time>2022-04-17T06:30:35.000Z</time></trkpt><trkpt lon="5.741856" lat="51.14343"><ele>26.4</ele><time>2022-04-17T06:30:36.000Z</time></trkpt><trkpt lon="5.741849" lat="51.14337"><ele>26.4</ele><time>2022-04-17T06:30:37.000Z</time></trkpt><trkpt lon="5.74184" lat="51.143313"><ele>26.4</ele><time>2022-04-17T06:30:38.000Z</time></trkpt><trkpt lon="5.74183" lat="51.143256"><ele>26.2</ele><time>2022-04-17T06:30:39.000Z</time></trkpt><trkpt lon="5.74182" lat="51.143198"><ele>26.2</ele><time>2022-04-17T06:30:40.000Z</time></trkpt><trkpt lon="5.741809" lat="51.143137"><ele>26.2</ele><time>2022-04-17T06:30:41.000Z</time></trkpt><trkpt lon="5.741796" lat="51.143077"><ele>26.4</ele><time>2022-04-17T06:30:42.000Z</time></trkpt><trkpt lon="5.74178" lat="51.143015"><ele>26.4</ele><time>2022-04-17T06:30:43.000Z</time></trkpt><trkpt lon="5.741764" lat="51.142954"><ele>26.4</ele><time>2022-04-17T06:30:44.000Z</time></trkpt><trkpt lon="5.741748" lat="51.142893"><ele>26.2</ele><time>2022-04-17T06:30:45.000Z</time></trkpt><trkpt lon="5.741729" lat="51.142835"><ele>26.2</ele><time>2022-04-17T06:30:46.000Z</time></trkpt><trkpt lon="5.741709" lat="51.142775"><ele>26.2</ele><time>2022-04-17T06:30:47.000Z</time></trkpt><trkpt lon="5.741689" lat="51.142717"><ele>26</ele><time>2022-04-17T06:30:48.000Z</time></trkpt><trkpt lon="5.741669" lat="51.142657"><ele>26</ele><time>2022-04-17T06:30:49.000Z</time></trkpt><trkpt lon="5.741646" lat="51.142598"><ele>26</ele><time>2022-04-17T06:30:50.000Z</time></trkpt><trkpt lon="5.741621" lat="51.142537"><ele>26</ele><time>2022-04-17T06:30:51.000Z</time></trkpt><trkpt lon="5.741595" lat="51.142477"><ele>26</ele><time>2022-04-17T06:30:52.000Z</time></trkpt><trkpt lon="5.741567" lat="51.142416"><ele>26</ele><time>2022-04-17T06:30:53.000Z</time></trkpt><trkpt lon="5.741538" lat="51.142358"><ele>26</ele><time>2022-04-17T06:30:54.000Z</time></trkpt><trkpt lon="5.741508" lat="51.142298"><ele>26</ele><time>2022-04-17T06:30:55.000Z</time></trkpt><trkpt lon="5.741476" lat="51.142236"><ele>25.8</ele><time>2022-04-17T06:30:56.000Z</time></trkpt><trkpt lon="5.741443" lat="51.142175"><ele>25.8</ele><time>2022-04-17T06:30:57.000Z</time></trkpt><trkpt lon="5.741409" lat="51.142114"><ele>25.8</ele><time>2022-04-17T06:30:58.000Z</time></trkpt><trkpt lon="5.741375" lat="51.142055"><ele>25.8</ele><time>2022-04-17T06:30:59.000Z</time></trkpt><trkpt lon="5.741339" lat="51.141995"><ele>25.8</ele><time>2022-04-17T06:31:00.000Z</time></trkpt><trkpt lon="5.741303" lat="51.141934"><ele>25.8</ele><time>2022-04-17T06:31:01.000Z</time></trkpt><trkpt lon="5.741268" lat="51.141873"><ele>25.8</ele><time>2022-04-17T06:31:02.000Z</time></trkpt><trkpt lon="5.741231" lat="51.14181"><ele>25.8</ele><time>2022-04-17T06:31:03.000Z</time></trkpt><trkpt lon="5.741193" lat="51.141751"><ele>25.8</ele><time>2022-04-17T06:31:04.000Z</time></trkpt><trkpt lon="5.741152" lat="51.141691"><ele>25.6</ele><time>2022-04-17T06:31:05.000Z</time></trkpt><trkpt lon="5.741112" lat="51.14163"><ele>25.6</ele><time>2022-04-17T06:31:06.000Z</time></trkpt><trkpt lon="5.741072" lat="51.141565"><ele>25.6</ele><time>2022-04-17T06:31:07.000Z</time></trkpt><trkpt lon="5.741035" lat="51.141504"><ele>25.6</ele><time>2022-04-17T06:31:08.000Z</time></trkpt><trkpt lon="5.740996" lat="51.141439"><ele>25.6</ele><time>2022-04-17T06:31:09.000Z</time></trkpt><trkpt lon="5.74096" lat="51.141378"><ele>25.4</ele><time>2022-04-17T06:31:10.000Z</time></trkpt><trkpt lon="5.740923" lat="51.141317"><ele>25.4</ele><time>2022-04-17T06:31:11.000Z</time></trkpt><trkpt lon="5.740884" lat="51.141256"><ele>25.6</ele><time>2022-04-17T06:31:12.000Z</time></trkpt><trkpt lon="5.740846" lat="51.141195"><ele>25.6</ele><time>2022-04-17T06:31:13.000Z</time></trkpt><trkpt lon="5.740807" lat="51.141133"><ele>25.6</ele><time>2022-04-17T06:31:14.000Z</time></trkpt><trkpt lon="5.740768" lat="51.141072"><ele>25.6</ele><time>2022-04-17T06:31:15.000Z</time></trkpt><trkpt lon="5.740731" lat="51.141011"><ele>25.6</ele><time>2022-04-17T06:31:16.000Z</time></trkpt><trkpt lon="5.740694" lat="51.14095"><ele>25.6</ele><time>2022-04-17T06:31:17.000Z</time></trkpt><trkpt lon="5.740658" lat="51.140891"><ele>25.8</ele><time>2022-04-17T06:31:18.000Z</time></trkpt><trkpt lon="5.740619" lat="51.140832"><ele>25.8</ele><time>2022-04-17T06:31:19.000Z</time></trkpt><trkpt lon="5.740583" lat="51.140772"><ele>25.8</ele><time>2022-04-17T06:31:20.000Z</time></trkpt><trkpt lon="5.740546" lat="51.140713"><ele>25.8</ele><time>2022-04-17T06:31:21.000Z</time></trkpt><trkpt lon="5.74051" lat="51.140649"><ele>26</ele><time>2022-04-17T06:31:22.000Z</time></trkpt><trkpt lon="5.740474" lat="51.140588"><ele>26</ele><time>2022-04-17T06:31:23.000Z</time></trkpt><trkpt lon="5.740437" lat="51.140528"><ele>26</ele><time>2022-04-17T06:31:24.000Z</time></trkpt><trkpt lon="5.740401" lat="51.14047"><ele>26</ele><time>2022-04-17T06:31:25.000Z</time></trkpt><trkpt lon="5.740365" lat="51.140409"><ele>26</ele><time>2022-04-17T06:31:26.000Z</time></trkpt><trkpt lon="5.74033" lat="51.140348"><ele>26</ele><time>2022-04-17T06:31:27.000Z</time></trkpt><trkpt lon="5.740293" lat="51.140286"><ele>26</ele><time>2022-04-17T06:31:28.000Z</time></trkpt><trkpt lon="5.740255" lat="51.140227"><ele>26</ele><time>2022-04-17T06:31:29.000Z</time></trkpt><trkpt lon="5.740218" lat="51.140169"><ele>26</ele><time>2022-04-17T06:31:30.000Z</time></trkpt><trkpt lon="5.740181" lat="51.140108"><ele>26</ele><time>2022-04-17T06:31:31.000Z</time></trkpt><trkpt lon="5.740144" lat="51.140046"><ele>26</ele><time>2022-04-17T06:31:32.000Z</time></trkpt><trkpt lon="5.740107" lat="51.139986"><ele>26</ele><time>2022-04-17T06:31:33.000Z</time></trkpt><trkpt lon="5.740071" lat="51.139928"><ele>26</ele><time>2022-04-17T06:31:34.000Z</time></trkpt><trkpt lon="5.740035" lat="51.139867"><ele>26.2</ele><time>2022-04-17T06:31:35.000Z</time></trkpt><trkpt lon="5.739997" lat="51.139807"><ele>26.2</ele><time>2022-04-17T06:31:36.000Z</time></trkpt><trkpt lon="5.739961" lat="51.139751"><ele>26.2</ele><time>2022-04-17T06:31:37.000Z</time></trkpt><trkpt lon="5.739926" lat="51.139694"><ele>26.2</ele><time>2022-04-17T06:31:38.000Z</time></trkpt><trkpt lon="5.739893" lat="51.139633"><ele>26.4</ele><time>2022-04-17T06:31:39.000Z</time></trkpt><trkpt lon="5.739856" lat="51.139571"><ele>26.2</ele><time>2022-04-17T06:31:40.000Z</time></trkpt><trkpt lon="5.73982" lat="51.139512"><ele>26.2</ele><time>2022-04-17T06:31:41.000Z</time></trkpt><trkpt lon="5.739785" lat="51.139452"><ele>26.4</ele><time>2022-04-17T06:31:42.000Z</time></trkpt><trkpt lon="5.739748" lat="51.139396"><ele>26.4</ele><time>2022-04-17T06:31:43.000Z</time></trkpt><trkpt lon="5.739713" lat="51.139337"><ele>26.4</ele><time>2022-04-17T06:31:44.000Z</time></trkpt><trkpt lon="5.739678" lat="51.139278"><ele>26.4</ele><time>2022-04-17T06:31:45.000Z</time></trkpt><trkpt lon="5.739641" lat="51.139219"><ele>26.6</ele><time>2022-04-17T06:31:46.000Z</time></trkpt><trkpt lon="5.739606" lat="51.139158"><ele>26.6</ele><time>2022-04-17T06:31:47.000Z</time></trkpt><trkpt lon="5.739569" lat="51.1391"><ele>26.6</ele><time>2022-04-17T06:31:48.000Z</time></trkpt><trkpt lon="5.739533" lat="51.13904"><ele>26.6</ele><time>2022-04-17T06:31:49.000Z</time></trkpt><trkpt lon="5.739497" lat="51.138983"><ele>26.8</ele><time>2022-04-17T06:31:50.000Z</time></trkpt><trkpt lon="5.739462" lat="51.138922"><ele>26.8</ele><time>2022-04-17T06:31:51.000Z</time></trkpt><trkpt lon="5.739427" lat="51.138861"><ele>26.6</ele><time>2022-04-17T06:31:52.000Z</time></trkpt><trkpt lon="5.739391" lat="51.138799"><ele>26.6</ele><time>2022-04-17T06:31:53.000Z</time></trkpt><trkpt lon="5.739354" lat="51.138738"><ele>26.6</ele><time>2022-04-17T06:31:54.000Z</time></trkpt><trkpt lon="5.739317" lat="51.138678"><ele>26.6</ele><time>2022-04-17T06:31:55.000Z</time></trkpt><trkpt lon="5.739279" lat="51.138619"><ele>26.6</ele><time>2022-04-17T06:31:56.000Z</time></trkpt><trkpt lon="5.739242" lat="51.13856"><ele>26.6</ele><time>2022-04-17T06:31:57.000Z</time></trkpt><trkpt lon="5.739205" lat="51.138502"><ele>26.6</ele><time>2022-04-17T06:31:58.000Z</time></trkpt><trkpt lon="5.739169" lat="51.13844"><ele>26.6</ele><time>2022-04-17T06:31:59.000Z</time></trkpt><trkpt lon="5.739132" lat="51.138379"><ele>26.6</ele><time>2022-04-17T06:32:00.000Z</time></trkpt><trkpt lon="5.739096" lat="51.138319"><ele>26.8</ele><time>2022-04-17T06:32:01.000Z</time></trkpt><trkpt lon="5.73906" lat="51.13826"><ele>26.8</ele><time>2022-04-17T06:32:02.000Z</time></trkpt><trkpt lon="5.739021" lat="51.138201"><ele>26.6</ele><time>2022-04-17T06:32:03.000Z</time></trkpt><trkpt lon="5.738985" lat="51.13814"><ele>26.6</ele><time>2022-04-17T06:32:04.000Z</time></trkpt><trkpt lon="5.73895" lat="51.138082"><ele>26.6</ele><time>2022-04-17T06:32:05.000Z</time></trkpt><trkpt lon="5.738916" lat="51.138023"><ele>26.6</ele><time>2022-04-17T06:32:06.000Z</time></trkpt><trkpt lon="5.73888" lat="51.137965"><ele>26.6</ele><time>2022-04-17T06:32:07.000Z</time></trkpt><trkpt lon="5.738845" lat="51.137908"><ele>26.4</ele><time>2022-04-17T06:32:08.000Z</time></trkpt><trkpt lon="5.738809" lat="51.137852"><ele>26.4</ele><time>2022-04-17T06:32:09.000Z</time></trkpt><trkpt lon="5.738765" lat="51.137798"><ele>26.4</ele><time>2022-04-17T06:32:10.000Z</time></trkpt><trkpt lon="5.738713" lat="51.137746"><ele>26.2</ele><time>2022-04-17T06:32:11.000Z</time></trkpt><trkpt lon="5.73865" lat="51.137697"><ele>26.2</ele><time>2022-04-17T06:32:12.000Z</time></trkpt><trkpt lon="5.738578" lat="51.137648"><ele>26.2</ele><time>2022-04-17T06:32:13.000Z</time></trkpt><trkpt lon="5.738505" lat="51.137602"><ele>26.4</ele><time>2022-04-17T06:32:14.000Z</time></trkpt><trkpt lon="5.738429" lat="51.137555"><ele>26.4</ele><time>2022-04-17T06:32:15.000Z</time></trkpt><trkpt lon="5.738355" lat="51.137506"><ele>26.4</ele><time>2022-04-17T06:32:16.000Z</time></trkpt><trkpt lon="5.738281" lat="51.13746"><ele>26.4</ele><time>2022-04-17T06:32:17.000Z</time></trkpt><trkpt lon="5.738206" lat="51.137414"><ele>26.4</ele><time>2022-04-17T06:32:18.000Z</time></trkpt><trkpt lon="5.738131" lat="51.137364"><ele>26.4</ele><time>2022-04-17T06:32:19.000Z</time></trkpt><trkpt lon="5.738058" lat="51.137314"><ele>26.4</ele><time>2022-04-17T06:32:20.000Z</time></trkpt><trkpt lon="5.737986" lat="51.137266"><ele>26.4</ele><time>2022-04-17T06:32:21.000Z</time></trkpt><trkpt lon="5.737912" lat="51.13722"><ele>26.4</ele><time>2022-04-17T06:32:22.000Z</time></trkpt><trkpt lon="5.737834" lat="51.137174"><ele>26.6</ele><time>2022-04-17T06:32:23.000Z</time></trkpt><trkpt lon="5.737759" lat="51.13713"><ele>26.6</ele><time>2022-04-17T06:32:24.000Z</time></trkpt><trkpt lon="5.737683" lat="51.137086"><ele>26.6</ele><time>2022-04-17T06:32:25.000Z</time></trkpt><trkpt lon="5.73761" lat="51.137037"><ele>26.8</ele><time>2022-04-17T06:32:26.000Z</time></trkpt><trkpt lon="5.737535" lat="51.136992"><ele>26.8</ele><time>2022-04-17T06:32:27.000Z</time></trkpt><trkpt lon="5.73746" lat="51.136946"><ele>26.8</ele><time>2022-04-17T06:32:28.000Z</time></trkpt><trkpt lon="5.737387" lat="51.136899"><ele>26.8</ele><time>2022-04-17T06:32:29.000Z</time></trkpt><trkpt lon="5.737313" lat="51.136852"><ele>26.8</ele><time>2022-04-17T06:32:30.000Z</time></trkpt><trkpt lon="5.737236" lat="51.136808"><ele>26.8</ele><time>2022-04-17T06:32:31.000Z</time></trkpt><trkpt lon="5.737162" lat="51.136762"><ele>26.8</ele><time>2022-04-17T06:32:32.000Z</time></trkpt><trkpt lon="5.737089" lat="51.136717"><ele>26.8</ele><time>2022-04-17T06:32:33.000Z</time></trkpt><trkpt lon="5.737018" lat="51.136671"><ele>26.8</ele><time>2022-04-17T06:32:34.000Z</time></trkpt><trkpt lon="5.736948" lat="51.136625"><ele>26.8</ele><time>2022-04-17T06:32:35.000Z</time></trkpt><trkpt lon="5.73688" lat="51.136579"><ele>26.8</ele><time>2022-04-17T06:32:36.000Z</time></trkpt><trkpt lon="5.736817" lat="51.136534"><ele>26.8</ele><time>2022-04-17T06:32:37.000Z</time></trkpt><trkpt lon="5.736757" lat="51.136487"><ele>26.8</ele><time>2022-04-17T06:32:38.000Z</time></trkpt><trkpt lon="5.736703" lat="51.136439"><ele>26.8</ele><time>2022-04-17T06:32:39.000Z</time></trkpt><trkpt lon="5.736657" lat="51.136395"><ele>26.8</ele><time>2022-04-17T06:32:40.000Z</time></trkpt><trkpt lon="5.736619" lat="51.136347"><ele>26.8</ele><time>2022-04-17T06:32:41.000Z</time></trkpt><trkpt lon="5.736583" lat="51.136301"><ele>26.8</ele><time>2022-04-17T06:32:42.000Z</time></trkpt><trkpt lon="5.736539" lat="51.136259"><ele>26.8</ele><time>2022-04-17T06:32:43.000Z</time></trkpt><trkpt lon="5.736479" lat="51.136228"><ele>26.8</ele><time>2022-04-17T06:32:44.000Z</time></trkpt><trkpt lon="5.736405" lat="51.13621"><ele>26.8</ele><time>2022-04-17T06:32:45.000Z</time></trkpt><trkpt lon="5.736326" lat="51.136214"><ele>26.6</ele><time>2022-04-17T06:32:46.000Z</time></trkpt><trkpt lon="5.736246" lat="51.136242"><ele>26.6</ele><time>2022-04-17T06:32:47.000Z</time></trkpt><trkpt lon="5.736172" lat="51.136282"><ele>26.6</ele><time>2022-04-17T06:32:48.000Z</time></trkpt><trkpt lon="5.736102" lat="51.136325"><ele>26.6</ele><time>2022-04-17T06:32:49.000Z</time></trkpt><trkpt lon="5.736032" lat="51.136361"><ele>26.6</ele><time>2022-04-17T06:32:50.000Z</time></trkpt><trkpt lon="5.735957" lat="51.136389"><ele>26.6</ele><time>2022-04-17T06:32:51.000Z</time></trkpt><trkpt lon="5.735875" lat="51.136403"><ele>26.6</ele><time>2022-04-17T06:32:52.000Z</time></trkpt><trkpt lon="5.735794" lat="51.136399"><ele>26.8</ele><time>2022-04-17T06:32:53.000Z</time></trkpt><trkpt lon="5.73572" lat="51.136371"><ele>26.8</ele><time>2022-04-17T06:32:54.000Z</time></trkpt><trkpt lon="5.735651" lat="51.136327"><ele>26.8</ele><time>2022-04-17T06:32:55.000Z</time></trkpt><trkpt lon="5.735577" lat="51.136277"><ele>26.8</ele><time>2022-04-17T06:32:56.000Z</time></trkpt><trkpt lon="5.735501" lat="51.136228"><ele>26.8</ele><time>2022-04-17T06:32:57.000Z</time></trkpt><trkpt lon="5.735427" lat="51.136182"><ele>26.8</ele><time>2022-04-17T06:32:58.000Z</time></trkpt><trkpt lon="5.735352" lat="51.136133"><ele>26.8</ele><time>2022-04-17T06:32:59.000Z</time></trkpt><trkpt lon="5.735279" lat="51.136086"><ele>26.8</ele><time>2022-04-17T06:33:00.000Z</time></trkpt><trkpt lon="5.735206" lat="51.136039"><ele>26.8</ele><time>2022-04-17T06:33:01.000Z</time></trkpt><trkpt lon="5.735131" lat="51.135996"><ele>26.8</ele><time>2022-04-17T06:33:02.000Z</time></trkpt><trkpt lon="5.735056" lat="51.135951"><ele>26.8</ele><time>2022-04-17T06:33:03.000Z</time></trkpt><trkpt lon="5.73498" lat="51.135908"><ele>26.8</ele><time>2022-04-17T06:33:04.000Z</time></trkpt><trkpt lon="5.734903" lat="51.135862"><ele>26.8</ele><time>2022-04-17T06:33:05.000Z</time></trkpt><trkpt lon="5.734831" lat="51.135818"><ele>26.6</ele><time>2022-04-17T06:33:06.000Z</time></trkpt><trkpt lon="5.73476" lat="51.135775"><ele>26.6</ele><time>2022-04-17T06:33:07.000Z</time></trkpt><trkpt lon="5.734688" lat="51.135731"><ele>26.8</ele><time>2022-04-17T06:33:08.000Z</time></trkpt><trkpt lon="5.734616" lat="51.135687"><ele>26.8</ele><time>2022-04-17T06:33:09.000Z</time></trkpt><trkpt lon="5.734542" lat="51.135643"><ele>26.8</ele><time>2022-04-17T06:33:10.000Z</time></trkpt><trkpt lon="5.734467" lat="51.1356"><ele>26.8</ele><time>2022-04-17T06:33:11.000Z</time></trkpt><trkpt lon="5.734394" lat="51.135559"><ele>26.8</ele><time>2022-04-17T06:33:12.000Z</time></trkpt><trkpt lon="5.734316" lat="51.13552"><ele>27</ele><time>2022-04-17T06:33:13.000Z</time></trkpt><trkpt lon="5.734233" lat="51.135479"><ele>26.8</ele><time>2022-04-17T06:33:14.000Z</time></trkpt><trkpt lon="5.73415" lat="51.135441"><ele>26.8</ele><time>2022-04-17T06:33:15.000Z</time></trkpt><trkpt lon="5.734065" lat="51.135403"><ele>26.8</ele><time>2022-04-17T06:33:16.000Z</time></trkpt><trkpt lon="5.733978" lat="51.135366"><ele>26.8</ele><time>2022-04-17T06:33:17.000Z</time></trkpt><trkpt lon="5.733893" lat="51.135332"><ele>26.8</ele><time>2022-04-17T06:33:18.000Z</time></trkpt><trkpt lon="5.733812" lat="51.135296"><ele>26.8</ele><time>2022-04-17T06:33:19.000Z</time></trkpt><trkpt lon="5.733731" lat="51.135259"><ele>26.8</ele><time>2022-04-17T06:33:20.000Z</time></trkpt><trkpt lon="5.733647" lat="51.135223"><ele>27</ele><time>2022-04-17T06:33:21.000Z</time></trkpt><trkpt lon="5.733561" lat="51.135186"><ele>27</ele><time>2022-04-17T06:33:22.000Z</time></trkpt><trkpt lon="5.733477" lat="51.135151"><ele>26.8</ele><time>2022-04-17T06:33:23.000Z</time></trkpt><trkpt lon="5.733393" lat="51.135113"><ele>26.8</ele><time>2022-04-17T06:33:24.000Z</time></trkpt><trkpt lon="5.733309" lat="51.135075"><ele>26.8</ele><time>2022-04-17T06:33:25.000Z</time></trkpt><trkpt lon="5.733222" lat="51.135038"><ele>26.8</ele><time>2022-04-17T06:33:26.000Z</time></trkpt><trkpt lon="5.733137" lat="51.135004"><ele>26.8</ele><time>2022-04-17T06:33:27.000Z</time></trkpt><trkpt lon="5.733054" lat="51.134968"><ele>26.8</ele><time>2022-04-17T06:33:28.000Z</time></trkpt><trkpt lon="5.732971" lat="51.134931"><ele>26.8</ele><time>2022-04-17T06:33:29.000Z</time></trkpt><trkpt lon="5.732887" lat="51.134898"><ele>26.8</ele><time>2022-04-17T06:33:30.000Z</time></trkpt><trkpt lon="5.732799" lat="51.134868"><ele>26.8</ele><time>2022-04-17T06:33:31.000Z</time></trkpt><trkpt lon="5.732707" lat="51.134838"><ele>26.8</ele><time>2022-04-17T06:33:32.000Z</time></trkpt><trkpt lon="5.732609" lat="51.134812"><ele>26.8</ele><time>2022-04-17T06:33:33.000Z</time></trkpt><trkpt lon="5.732509" lat="51.134789"><ele>26.8</ele><time>2022-04-17T06:33:34.000Z</time></trkpt><trkpt lon="5.732406" lat="51.134767"><ele>26.8</ele><time>2022-04-17T06:33:35.000Z</time></trkpt><trkpt lon="5.732303" lat="51.134749"><ele>26.8</ele><time>2022-04-17T06:33:36.000Z</time></trkpt><trkpt lon="5.732203" lat="51.134731"><ele>26.8</ele><time>2022-04-17T06:33:37.000Z</time></trkpt><trkpt lon="5.732098" lat="51.134715"><ele>26.8</ele><time>2022-04-17T06:33:38.000Z</time></trkpt><trkpt lon="5.731995" lat="51.134702"><ele>26.8</ele><time>2022-04-17T06:33:39.000Z</time></trkpt><trkpt lon="5.731893" lat="51.134696"><ele>26.8</ele><time>2022-04-17T06:33:40.000Z</time></trkpt><trkpt lon="5.731789" lat="51.134691"><ele>26.8</ele><time>2022-04-17T06:33:41.000Z</time></trkpt><trkpt lon="5.731684" lat="51.134686"><ele>26.8</ele><time>2022-04-17T06:33:42.000Z</time></trkpt><trkpt lon="5.731577" lat="51.134687"><ele>26.8</ele><time>2022-04-17T06:33:43.000Z</time></trkpt><trkpt lon="5.731473" lat="51.13469"><ele>26.8</ele><time>2022-04-17T06:33:44.000Z</time></trkpt><trkpt lon="5.731369" lat="51.134693"><ele>26.8</ele><time>2022-04-17T06:33:45.000Z</time></trkpt><trkpt lon="5.731265" lat="51.134694"><ele>26.8</ele><time>2022-04-17T06:33:46.000Z</time></trkpt><trkpt lon="5.731159" lat="51.134698"><ele>26.8</ele><time>2022-04-17T06:33:47.000Z</time></trkpt><trkpt lon="5.731054" lat="51.134702"><ele>26.8</ele><time>2022-04-17T06:33:48.000Z</time></trkpt><trkpt lon="5.730949" lat="51.134706"><ele>26.8</ele><time>2022-04-17T06:33:49.000Z</time></trkpt><trkpt lon="5.730842" lat="51.134708"><ele>26.8</ele><time>2022-04-17T06:33:50.000Z</time></trkpt><trkpt lon="5.730735" lat="51.13471"><ele>26.8</ele><time>2022-04-17T06:33:51.000Z</time></trkpt><trkpt lon="5.73063" lat="51.134713"><ele>26.8</ele><time>2022-04-17T06:33:52.000Z</time></trkpt><trkpt lon="5.730527" lat="51.134717"><ele>27</ele><time>2022-04-17T06:33:53.000Z</time></trkpt><trkpt lon="5.73042" lat="51.134721"><ele>27</ele><time>2022-04-17T06:33:54.000Z</time></trkpt><trkpt lon="5.730312" lat="51.134724"><ele>27</ele><time>2022-04-17T06:33:55.000Z</time></trkpt><trkpt lon="5.730208" lat="51.134725"><ele>27</ele><time>2022-04-17T06:33:56.000Z</time></trkpt><trkpt lon="5.730103" lat="51.134729"><ele>27</ele><time>2022-04-17T06:33:57.000Z</time></trkpt><trkpt lon="5.729998" lat="51.134731"><ele>27</ele><time>2022-04-17T06:33:58.000Z</time></trkpt><trkpt lon="5.729895" lat="51.134732"><ele>27</ele><time>2022-04-17T06:33:59.000Z</time></trkpt><trkpt lon="5.729791" lat="51.134736"><ele>27</ele><time>2022-04-17T06:34:00.000Z</time></trkpt><trkpt lon="5.729686" lat="51.134739"><ele>27</ele><time>2022-04-17T06:34:01.000Z</time></trkpt><trkpt lon="5.729582" lat="51.13474"><ele>27.2</ele><time>2022-04-17T06:34:02.000Z</time></trkpt><trkpt lon="5.729479" lat="51.134744"><ele>27</ele><time>2022-04-17T06:34:03.000Z</time></trkpt><trkpt lon="5.729369" lat="51.134747"><ele>27.2</ele><time>2022-04-17T06:34:04.000Z</time></trkpt><trkpt lon="5.729264" lat="51.134748"><ele>27.2</ele><time>2022-04-17T06:34:05.000Z</time></trkpt><trkpt lon="5.729158" lat="51.134751"><ele>27.2</ele><time>2022-04-17T06:34:06.000Z</time></trkpt><trkpt lon="5.729051" lat="51.134754"><ele>27.2</ele><time>2022-04-17T06:34:07.000Z</time></trkpt><trkpt lon="5.728943" lat="51.134755"><ele>27.2</ele><time>2022-04-17T06:34:08.000Z</time></trkpt><trkpt lon="5.728838" lat="51.134759"><ele>27.2</ele><time>2022-04-17T06:34:09.000Z</time></trkpt><trkpt lon="5.728731" lat="51.134762"><ele>27.2</ele><time>2022-04-17T06:34:10.000Z</time></trkpt><trkpt lon="5.728625" lat="51.134763"><ele>27.2</ele><time>2022-04-17T06:34:11.000Z</time></trkpt><trkpt lon="5.728518" lat="51.134767"><ele>27.2</ele><time>2022-04-17T06:34:12.000Z</time></trkpt><trkpt lon="5.728413" lat="51.134769"><ele>27.2</ele><time>2022-04-17T06:34:13.000Z</time></trkpt><trkpt lon="5.72831" lat="51.13477"><ele>27.2</ele><time>2022-04-17T06:34:14.000Z</time></trkpt><trkpt lon="5.7282" lat="51.134773"><ele>27</ele><time>2022-04-17T06:34:15.000Z</time></trkpt><trkpt lon="5.728092" lat="51.134774"><ele>27</ele><time>2022-04-17T06:34:16.000Z</time></trkpt><trkpt lon="5.727986" lat="51.134778"><ele>27</ele><time>2022-04-17T06:34:17.000Z</time></trkpt><trkpt lon="5.727879" lat="51.134782"><ele>27</ele><time>2022-04-17T06:34:18.000Z</time></trkpt><trkpt lon="5.727772" lat="51.134785"><ele>27</ele><time>2022-04-17T06:34:19.000Z</time></trkpt><trkpt lon="5.727665" lat="51.134786"><ele>27</ele><time>2022-04-17T06:34:20.000Z</time></trkpt><trkpt lon="5.727557" lat="51.134789"><ele>27</ele><time>2022-04-17T06:34:21.000Z</time></trkpt><trkpt lon="5.727451" lat="51.13479"><ele>27</ele><time>2022-04-17T06:34:22.000Z</time></trkpt><trkpt lon="5.727345" lat="51.134793"><ele>26.8</ele><time>2022-04-17T06:34:23.000Z</time></trkpt><trkpt lon="5.72724" lat="51.134797"><ele>26.8</ele><time>2022-04-17T06:34:24.000Z</time></trkpt><trkpt lon="5.727134" lat="51.134801"><ele>26.8</ele><time>2022-04-17T06:34:25.000Z</time></trkpt><trkpt lon="5.72703" lat="51.134805"><ele>26.8</ele><time>2022-04-17T06:34:26.000Z</time></trkpt><trkpt lon="5.726926" lat="51.134808"><ele>27</ele><time>2022-04-17T06:34:27.000Z</time></trkpt><trkpt lon="5.726822" lat="51.134809"><ele>27</ele><time>2022-04-17T06:34:28.000Z</time></trkpt><trkpt lon="5.726714" lat="51.134812"><ele>27</ele><time>2022-04-17T06:34:29.000Z</time></trkpt><trkpt lon="5.72661" lat="51.134815"><ele>27</ele><time>2022-04-17T06:34:30.000Z</time></trkpt><trkpt lon="5.726505" lat="51.134816"><ele>27</ele><time>2022-04-17T06:34:31.000Z</time></trkpt><trkpt lon="5.726399" lat="51.13482"><ele>26.8</ele><time>2022-04-17T06:34:32.000Z</time></trkpt><trkpt lon="5.726291" lat="51.134824"><ele>26.8</ele><time>2022-04-17T06:34:33.000Z</time></trkpt><trkpt lon="5.726184" lat="51.134828"><ele>26.8</ele><time>2022-04-17T06:34:34.000Z</time></trkpt><trkpt lon="5.726076" lat="51.134832"><ele>26.8</ele><time>2022-04-17T06:34:35.000Z</time></trkpt><trkpt lon="5.72597" lat="51.134834"><ele>26.8</ele><time>2022-04-17T06:34:36.000Z</time></trkpt><trkpt lon="5.725864" lat="51.134835"><ele>27</ele><time>2022-04-17T06:34:37.000Z</time></trkpt><trkpt lon="5.72576" lat="51.134839"><ele>27</ele><time>2022-04-17T06:34:38.000Z</time></trkpt><trkpt lon="5.725655" lat="51.134843"><ele>27</ele><time>2022-04-17T06:34:39.000Z</time></trkpt><trkpt lon="5.725551" lat="51.134847"><ele>27</ele><time>2022-04-17T06:34:40.000Z</time></trkpt><trkpt lon="5.725447" lat="51.134851"><ele>27.2</ele><time>2022-04-17T06:34:41.000Z</time></trkpt><trkpt lon="5.725346" lat="51.134853"><ele>27.2</ele><time>2022-04-17T06:34:42.000Z</time></trkpt><trkpt lon="5.725243" lat="51.134854"><ele>27.2</ele><time>2022-04-17T06:34:43.000Z</time></trkpt><trkpt lon="5.725143" lat="51.134858"><ele>27.2</ele><time>2022-04-17T06:34:44.000Z</time></trkpt><trkpt lon="5.72504" lat="51.134862"><ele>27.2</ele><time>2022-04-17T06:34:45.000Z</time></trkpt><trkpt lon="5.724933" lat="51.134865"><ele>27.2</ele><time>2022-04-17T06:34:46.000Z</time></trkpt><trkpt lon="5.724825" lat="51.134866"><ele>27.4</ele><time>2022-04-17T06:34:47.000Z</time></trkpt><trkpt lon="5.724715" lat="51.134869"><ele>27.4</ele><time>2022-04-17T06:34:48.000Z</time></trkpt><trkpt lon="5.724604" lat="51.13487"><ele>27.4</ele><time>2022-04-17T06:34:49.000Z</time></trkpt><trkpt lon="5.724492" lat="51.134874"><ele>27.2</ele><time>2022-04-17T06:34:50.000Z</time></trkpt><trkpt lon="5.724381" lat="51.134876"><ele>27.2</ele><time>2022-04-17T06:34:51.000Z</time></trkpt><trkpt lon="5.724272" lat="51.134877"><ele>27.2</ele><time>2022-04-17T06:34:52.000Z</time></trkpt><trkpt lon="5.724165" lat="51.134881"><ele>27</ele><time>2022-04-17T06:34:53.000Z</time></trkpt><trkpt lon="5.724061" lat="51.134885"><ele>27</ele><time>2022-04-17T06:34:54.000Z</time></trkpt><trkpt lon="5.723953" lat="51.134889"><ele>27</ele><time>2022-04-17T06:34:55.000Z</time></trkpt><trkpt lon="5.723848" lat="51.134892"><ele>27</ele><time>2022-04-17T06:34:56.000Z</time></trkpt><trkpt lon="5.723743" lat="51.134893"><ele>27</ele><time>2022-04-17T06:34:57.000Z</time></trkpt><trkpt lon="5.723637" lat="51.134896"><ele>27.2</ele><time>2022-04-17T06:34:58.000Z</time></trkpt><trkpt lon="5.723534" lat="51.1349"><ele>27.2</ele><time>2022-04-17T06:34:59.000Z</time></trkpt><trkpt lon="5.723429" lat="51.134904"><ele>27.2</ele><time>2022-04-17T06:35:00.000Z</time></trkpt><trkpt lon="5.723322" lat="51.134907"><ele>27.2</ele><time>2022-04-17T06:35:01.000Z</time></trkpt><trkpt lon="5.723215" lat="51.134908"><ele>27.2</ele><time>2022-04-17T06:35:02.000Z</time></trkpt><trkpt lon="5.723106" lat="51.134912"><ele>27.2</ele><time>2022-04-17T06:35:03.000Z</time></trkpt><trkpt lon="5.722997" lat="51.134917"><ele>27.2</ele><time>2022-04-17T06:35:04.000Z</time></trkpt><trkpt lon="5.72289" lat="51.134924"><ele>27.2</ele><time>2022-04-17T06:35:05.000Z</time></trkpt><trkpt lon="5.722783" lat="51.134932"><ele>27.2</ele><time>2022-04-17T06:35:06.000Z</time></trkpt><trkpt lon="5.722676" lat="51.134939"><ele>27.2</ele><time>2022-04-17T06:35:07.000Z</time></trkpt><trkpt lon="5.722568" lat="51.134948"><ele>27</ele><time>2022-04-17T06:35:08.000Z</time></trkpt><trkpt lon="5.722462" lat="51.13496"><ele>27.2</ele><time>2022-04-17T06:35:09.000Z</time></trkpt><trkpt lon="5.722356" lat="51.13497"><ele>27.2</ele><time>2022-04-17T06:35:10.000Z</time></trkpt><trkpt lon="5.722248" lat="51.134979"><ele>27.2</ele><time>2022-04-17T06:35:11.000Z</time></trkpt><trkpt lon="5.722141" lat="51.13499"><ele>27.2</ele><time>2022-04-17T06:35:12.000Z</time></trkpt><trkpt lon="5.722033" lat="51.135001"><ele>27.2</ele><time>2022-04-17T06:35:13.000Z</time></trkpt><trkpt lon="5.721926" lat="51.135009"><ele>27.2</ele><time>2022-04-17T06:35:14.000Z</time></trkpt><trkpt lon="5.721819" lat="51.135021"><ele>27</ele><time>2022-04-17T06:35:15.000Z</time></trkpt><trkpt lon="5.721712" lat="51.135032"><ele>27</ele><time>2022-04-17T06:35:16.000Z</time></trkpt><trkpt lon="5.721607" lat="51.135043"><ele>27</ele><time>2022-04-17T06:35:17.000Z</time></trkpt><trkpt lon="5.721497" lat="51.135055"><ele>27</ele><time>2022-04-17T06:35:18.000Z</time></trkpt><trkpt lon="5.721391" lat="51.135065"><ele>27</ele><time>2022-04-17T06:35:19.000Z</time></trkpt><trkpt lon="5.721284" lat="51.135074"><ele>27</ele><time>2022-04-17T06:35:20.000Z</time></trkpt><trkpt lon="5.721176" lat="51.135084"><ele>27</ele><time>2022-04-17T06:35:21.000Z</time></trkpt><trkpt lon="5.721069" lat="51.135093"><ele>27</ele><time>2022-04-17T06:35:22.000Z</time></trkpt><trkpt lon="5.720963" lat="51.135105"><ele>27</ele><time>2022-04-17T06:35:23.000Z</time></trkpt><trkpt lon="5.720855" lat="51.135115"><ele>27</ele><time>2022-04-17T06:35:24.000Z</time></trkpt><trkpt lon="5.72075" lat="51.135124"><ele>27</ele><time>2022-04-17T06:35:25.000Z</time></trkpt><trkpt lon="5.720646" lat="51.135134"><ele>27</ele><time>2022-04-17T06:35:26.000Z</time></trkpt><trkpt lon="5.720536" lat="51.135141"><ele>27</ele><time>2022-04-17T06:35:27.000Z</time></trkpt><trkpt lon="5.720427" lat="51.135146"><ele>27</ele><time>2022-04-17T06:35:28.000Z</time></trkpt><trkpt lon="5.72032" lat="51.135153"><ele>27.2</ele><time>2022-04-17T06:35:29.000Z</time></trkpt><trkpt lon="5.720212" lat="51.135159"><ele>27.2</ele><time>2022-04-17T06:35:30.000Z</time></trkpt><trkpt lon="5.720105" lat="51.13516"><ele>27.2</ele><time>2022-04-17T06:35:31.000Z</time></trkpt><trkpt lon="5.719994" lat="51.135162"><ele>27.2</ele><time>2022-04-17T06:35:32.000Z</time></trkpt><trkpt lon="5.719885" lat="51.135163"><ele>27.2</ele><time>2022-04-17T06:35:33.000Z</time></trkpt><trkpt lon="5.719773" lat="51.135166"><ele>27.2</ele><time>2022-04-17T06:35:34.000Z</time></trkpt><trkpt lon="5.719663" lat="51.135166"><ele>27</ele><time>2022-04-17T06:35:35.000Z</time></trkpt><trkpt lon="5.719552" lat="51.135166"><ele>27</ele><time>2022-04-17T06:35:36.000Z</time></trkpt><trkpt lon="5.719442" lat="51.135165"><ele>27</ele><time>2022-04-17T06:35:37.000Z</time></trkpt><trkpt lon="5.719332" lat="51.135162"><ele>27</ele><time>2022-04-17T06:35:38.000Z</time></trkpt><trkpt lon="5.719221" lat="51.135161"><ele>27</ele><time>2022-04-17T06:35:39.000Z</time></trkpt><trkpt lon="5.719112" lat="51.135159"><ele>27</ele><time>2022-04-17T06:35:40.000Z</time></trkpt><trkpt lon="5.719002" lat="51.13516"><ele>27</ele><time>2022-04-17T06:35:41.000Z</time></trkpt><trkpt lon="5.718893" lat="51.135162"><ele>27</ele><time>2022-04-17T06:35:42.000Z</time></trkpt><trkpt lon="5.718785" lat="51.135165"><ele>27</ele><time>2022-04-17T06:35:43.000Z</time></trkpt><trkpt lon="5.718678" lat="51.135172"><ele>27</ele><time>2022-04-17T06:35:44.000Z</time></trkpt><trkpt lon="5.718573" lat="51.13518"><ele>27</ele><time>2022-04-17T06:35:45.000Z</time></trkpt><trkpt lon="5.718469" lat="51.135188"><ele>27</ele><time>2022-04-17T06:35:46.000Z</time></trkpt><trkpt lon="5.718362" lat="51.135199"><ele>27.2</ele><time>2022-04-17T06:35:47.000Z</time></trkpt><trkpt lon="5.718259" lat="51.135207"><ele>27.2</ele><time>2022-04-17T06:35:48.000Z</time></trkpt><trkpt lon="5.718154" lat="51.135219"><ele>27.2</ele><time>2022-04-17T06:35:49.000Z</time></trkpt><trkpt lon="5.718052" lat="51.135229"><ele>27.2</ele><time>2022-04-17T06:35:50.000Z</time></trkpt><trkpt lon="5.717948" lat="51.135238"><ele>27.4</ele><time>2022-04-17T06:35:51.000Z</time></trkpt><trkpt lon="5.717844" lat="51.135249"><ele>27.4</ele><time>2022-04-17T06:35:52.000Z</time></trkpt><trkpt lon="5.717736" lat="51.13526"><ele>27.4</ele><time>2022-04-17T06:35:53.000Z</time></trkpt><trkpt lon="5.717628" lat="51.135269"><ele>27.4</ele><time>2022-04-17T06:35:54.000Z</time></trkpt><trkpt lon="5.71752" lat="51.13528"><ele>27.4</ele><time>2022-04-17T06:35:55.000Z</time></trkpt><trkpt lon="5.717413" lat="51.135293"><ele>27.4</ele><time>2022-04-17T06:35:56.000Z</time></trkpt><trkpt lon="5.717305" lat="51.135307"><ele>27.4</ele><time>2022-04-17T06:35:57.000Z</time></trkpt><trkpt lon="5.717199" lat="51.135319"><ele>27.4</ele><time>2022-04-17T06:35:58.000Z</time></trkpt><trkpt lon="5.717093" lat="51.135335"><ele>27.4</ele><time>2022-04-17T06:35:59.000Z</time></trkpt><trkpt lon="5.716981" lat="51.135355"><ele>27.4</ele><time>2022-04-17T06:36:00.000Z</time></trkpt><trkpt lon="5.716874" lat="51.135374"><ele>27.4</ele><time>2022-04-17T06:36:01.000Z</time></trkpt><trkpt lon="5.716766" lat="51.135394"><ele>27.2</ele><time>2022-04-17T06:36:02.000Z</time></trkpt><trkpt lon="5.716659" lat="51.135418"><ele>27.2</ele><time>2022-04-17T06:36:03.000Z</time></trkpt><trkpt lon="5.716554" lat="51.135444"><ele>27.2</ele><time>2022-04-17T06:36:04.000Z</time></trkpt><trkpt lon="5.716449" lat="51.135468"><ele>27.2</ele><time>2022-04-17T06:36:05.000Z</time></trkpt><trkpt lon="5.716346" lat="51.135494"><ele>27.2</ele><time>2022-04-17T06:36:06.000Z</time></trkpt><trkpt lon="5.716241" lat="51.135521"><ele>27.2</ele><time>2022-04-17T06:36:07.000Z</time></trkpt><trkpt lon="5.716135" lat="51.135548"><ele>27.2</ele><time>2022-04-17T06:36:08.000Z</time></trkpt><trkpt lon="5.71603" lat="51.135575"><ele>27.2</ele><time>2022-04-17T06:36:09.000Z</time></trkpt><trkpt lon="5.715926" lat="51.135605"><ele>27.2</ele><time>2022-04-17T06:36:10.000Z</time></trkpt><trkpt lon="5.71582" lat="51.135631"><ele>27.2</ele><time>2022-04-17T06:36:11.000Z</time></trkpt><trkpt lon="5.715715" lat="51.135658"><ele>27.2</ele><time>2022-04-17T06:36:12.000Z</time></trkpt><trkpt lon="5.715608" lat="51.135685"><ele>27.2</ele><time>2022-04-17T06:36:13.000Z</time></trkpt><trkpt lon="5.715503" lat="51.135713"><ele>27</ele><time>2022-04-17T06:36:14.000Z</time></trkpt><trkpt lon="5.7154" lat="51.135742"><ele>27</ele><time>2022-04-17T06:36:15.000Z</time></trkpt><trkpt lon="5.715297" lat="51.135769"><ele>27.2</ele><time>2022-04-17T06:36:16.000Z</time></trkpt><trkpt lon="5.715192" lat="51.135796"><ele>27</ele><time>2022-04-17T06:36:17.000Z</time></trkpt><trkpt lon="5.715088" lat="51.135822"><ele>27</ele><time>2022-04-17T06:36:18.000Z</time></trkpt><trkpt lon="5.714982" lat="51.13585"><ele>27</ele><time>2022-04-17T06:36:19.000Z</time></trkpt><trkpt lon="5.714878" lat="51.135879"><ele>27</ele><time>2022-04-17T06:36:20.000Z</time></trkpt><trkpt lon="5.714773" lat="51.135904"><ele>27</ele><time>2022-04-17T06:36:21.000Z</time></trkpt><trkpt lon="5.714672" lat="51.135933"><ele>27</ele><time>2022-04-17T06:36:22.000Z</time></trkpt><trkpt lon="5.71457" lat="51.13596"><ele>27</ele><time>2022-04-17T06:36:23.000Z</time></trkpt><trkpt lon="5.714467" lat="51.135986"><ele>27</ele><time>2022-04-17T06:36:24.000Z</time></trkpt><trkpt lon="5.714363" lat="51.136013"><ele>26.8</ele><time>2022-04-17T06:36:25.000Z</time></trkpt><trkpt lon="5.714259" lat="51.136039"><ele>26.8</ele><time>2022-04-17T06:36:26.000Z</time></trkpt><trkpt lon="5.714153" lat="51.136063"><ele>26.6</ele><time>2022-04-17T06:36:27.000Z</time></trkpt><trkpt lon="5.714048" lat="51.13609"><ele>26.6</ele><time>2022-04-17T06:36:28.000Z</time></trkpt><trkpt lon="5.713944" lat="51.136116"><ele>26.6</ele><time>2022-04-17T06:36:29.000Z</time></trkpt><trkpt lon="5.713842" lat="51.136143"><ele>26.6</ele><time>2022-04-17T06:36:30.000Z</time></trkpt><trkpt lon="5.71374" lat="51.13617"><ele>26.6</ele><time>2022-04-17T06:36:31.000Z</time></trkpt><trkpt lon="5.71364" lat="51.136196"><ele>26.6</ele><time>2022-04-17T06:36:32.000Z</time></trkpt><trkpt lon="5.713539" lat="51.136224"><ele>26.6</ele><time>2022-04-17T06:36:33.000Z</time></trkpt><trkpt lon="5.713439" lat="51.136252"><ele>26.6</ele><time>2022-04-17T06:36:34.000Z</time></trkpt><trkpt lon="5.713339" lat="51.136275"><ele>26.6</ele><time>2022-04-17T06:36:35.000Z</time></trkpt><trkpt lon="5.713248" lat="51.136299"><ele>26.6</ele><time>2022-04-17T06:36:36.000Z</time></trkpt><trkpt lon="5.713162" lat="51.136325"><ele>26.6</ele><time>2022-04-17T06:36:37.000Z</time></trkpt><trkpt lon="5.713072" lat="51.136353"><ele>26.6</ele><time>2022-04-17T06:36:38.000Z</time></trkpt><trkpt lon="5.712977" lat="51.136378"><ele>26.6</ele><time>2022-04-17T06:36:39.000Z</time></trkpt><trkpt lon="5.712878" lat="51.136402"><ele>26.8</ele><time>2022-04-17T06:36:40.000Z</time></trkpt><trkpt lon="5.712777" lat="51.136428"><ele>26.6</ele><time>2022-04-17T06:36:41.000Z</time></trkpt><trkpt lon="5.712675" lat="51.136452"><ele>26.8</ele><time>2022-04-17T06:36:42.000Z</time></trkpt><trkpt lon="5.712574" lat="51.136478"><ele>26.8</ele><time>2022-04-17T06:36:43.000Z</time></trkpt><trkpt lon="5.712471" lat="51.136504"><ele>26.8</ele><time>2022-04-17T06:36:44.000Z</time></trkpt><trkpt lon="5.712366" lat="51.136528"><ele>27</ele><time>2022-04-17T06:36:45.000Z</time></trkpt><trkpt lon="5.712262" lat="51.136555"><ele>27</ele><time>2022-04-17T06:36:46.000Z</time></trkpt><trkpt lon="5.712159" lat="51.136582"><ele>27</ele><time>2022-04-17T06:36:47.000Z</time></trkpt><trkpt lon="5.712054" lat="51.136608"><ele>27</ele><time>2022-04-17T06:36:48.000Z</time></trkpt><trkpt lon="5.711952" lat="51.136635"><ele>27.2</ele><time>2022-04-17T06:36:49.000Z</time></trkpt><trkpt lon="5.711848" lat="51.136662"><ele>27.2</ele><time>2022-04-17T06:36:50.000Z</time></trkpt><trkpt lon="5.711743" lat="51.136688"><ele>27.2</ele><time>2022-04-17T06:36:51.000Z</time></trkpt><trkpt lon="5.711637" lat="51.136714"><ele>27.2</ele><time>2022-04-17T06:36:52.000Z</time></trkpt><trkpt lon="5.711532" lat="51.136738"><ele>27.2</ele><time>2022-04-17T06:36:53.000Z</time></trkpt><trkpt lon="5.711426" lat="51.136765"><ele>27.2</ele><time>2022-04-17T06:36:54.000Z</time></trkpt><trkpt lon="5.711321" lat="51.136793"><ele>27.2</ele><time>2022-04-17T06:36:55.000Z</time></trkpt><trkpt lon="5.711216" lat="51.136822"><ele>27.2</ele><time>2022-04-17T06:36:56.000Z</time></trkpt><trkpt lon="5.71111" lat="51.136849"><ele>27</ele><time>2022-04-17T06:36:57.000Z</time></trkpt><trkpt lon="5.711006" lat="51.136875"><ele>27</ele><time>2022-04-17T06:36:58.000Z</time></trkpt><trkpt lon="5.710905" lat="51.136901"><ele>27</ele><time>2022-04-17T06:36:59.000Z</time></trkpt><trkpt lon="5.710805" lat="51.136924"><ele>26.8</ele><time>2022-04-17T06:37:00.000Z</time></trkpt><trkpt lon="5.7107" lat="51.136948"><ele>26.8</ele><time>2022-04-17T06:37:01.000Z</time></trkpt><trkpt lon="5.710596" lat="51.136974"><ele>26.8</ele><time>2022-04-17T06:37:02.000Z</time></trkpt><trkpt lon="5.710495" lat="51.137001"><ele>26.6</ele><time>2022-04-17T06:37:03.000Z</time></trkpt><trkpt lon="5.710402" lat="51.137028"><ele>26.6</ele><time>2022-04-17T06:37:04.000Z</time></trkpt><trkpt lon="5.710302" lat="51.137055"><ele>26.6</ele><time>2022-04-17T06:37:05.000Z</time></trkpt><trkpt lon="5.710203" lat="51.137082"><ele>26.6</ele><time>2022-04-17T06:37:06.000Z</time></trkpt><trkpt lon="5.7101" lat="51.137109"><ele>26.4</ele><time>2022-04-17T06:37:07.000Z</time></trkpt><trkpt lon="5.709996" lat="51.137137"><ele>26.4</ele><time>2022-04-17T06:37:08.000Z</time></trkpt><trkpt lon="5.709893" lat="51.137162"><ele>26.2</ele><time>2022-04-17T06:37:09.000Z</time></trkpt><trkpt lon="5.70979" lat="51.137188"><ele>26.2</ele><time>2022-04-17T06:37:10.000Z</time></trkpt><trkpt lon="5.709687" lat="51.137215"><ele>26.2</ele><time>2022-04-17T06:37:11.000Z</time></trkpt><trkpt lon="5.709582" lat="51.137242"><ele>26.4</ele><time>2022-04-17T06:37:12.000Z</time></trkpt><trkpt lon="5.709477" lat="51.137268"><ele>26.4</ele><time>2022-04-17T06:37:13.000Z</time></trkpt><trkpt lon="5.70937" lat="51.137295"><ele>26.4</ele><time>2022-04-17T06:37:14.000Z</time></trkpt><trkpt lon="5.709264" lat="51.137322"><ele>26.6</ele><time>2022-04-17T06:37:15.000Z</time></trkpt><trkpt lon="5.709158" lat="51.137348"><ele>26.6</ele><time>2022-04-17T06:37:16.000Z</time></trkpt><trkpt lon="5.709053" lat="51.137376"><ele>26.6</ele><time>2022-04-17T06:37:17.000Z</time></trkpt><trkpt lon="5.708952" lat="51.137405"><ele>26.6</ele><time>2022-04-17T06:37:18.000Z</time></trkpt><trkpt lon="5.708852" lat="51.137432"><ele>26.6</ele><time>2022-04-17T06:37:19.000Z</time></trkpt><trkpt lon="5.708752" lat="51.137461"><ele>26.6</ele><time>2022-04-17T06:37:20.000Z</time></trkpt><trkpt lon="5.708654" lat="51.137494"><ele>26.6</ele><time>2022-04-17T06:37:21.000Z</time></trkpt><trkpt lon="5.708559" lat="51.137525"><ele>26.6</ele><time>2022-04-17T06:37:22.000Z</time></trkpt><trkpt lon="5.70846" lat="51.137556"><ele>26.6</ele><time>2022-04-17T06:37:23.000Z</time></trkpt><trkpt lon="5.708361" lat="51.137587"><ele>26.6</ele><time>2022-04-17T06:37:24.000Z</time></trkpt><trkpt lon="5.708262" lat="51.13762"><ele>26.6</ele><time>2022-04-17T06:37:25.000Z</time></trkpt><trkpt lon="5.708164" lat="51.137651"><ele>26.6</ele><time>2022-04-17T06:37:26.000Z</time></trkpt><trkpt lon="5.708065" lat="51.137682"><ele>26.8</ele><time>2022-04-17T06:37:27.000Z</time></trkpt><trkpt lon="5.707969" lat="51.137715"><ele>26.6</ele><time>2022-04-17T06:37:28.000Z</time></trkpt><trkpt lon="5.707872" lat="51.137743"><ele>26.6</ele><time>2022-04-17T06:37:29.000Z</time></trkpt><trkpt lon="5.707776" lat="51.137776"><ele>26.6</ele><time>2022-04-17T06:37:30.000Z</time></trkpt><trkpt lon="5.707683" lat="51.137808"><ele>26.6</ele><time>2022-04-17T06:37:31.000Z</time></trkpt><trkpt lon="5.707588" lat="51.137841"><ele>26.6</ele><time>2022-04-17T06:37:32.000Z</time></trkpt><trkpt lon="5.707494" lat="51.137871"><ele>26.6</ele><time>2022-04-17T06:37:33.000Z</time></trkpt><trkpt lon="5.707403" lat="51.137899"><ele>26.8</ele><time>2022-04-17T06:37:34.000Z</time></trkpt><trkpt lon="5.707318" lat="51.13793"><ele>26.8</ele><time>2022-04-17T06:37:35.000Z</time></trkpt><trkpt lon="5.707237" lat="51.137961"><ele>26.8</ele><time>2022-04-17T06:37:36.000Z</time></trkpt><trkpt lon="5.707163" lat="51.137998"><ele>26.8</ele><time>2022-04-17T06:37:37.000Z</time></trkpt><trkpt lon="5.707106" lat="51.138042"><ele>26.8</ele><time>2022-04-17T06:37:38.000Z</time></trkpt><trkpt lon="5.707069" lat="51.138091"><ele>26.8</ele><time>2022-04-17T06:37:39.000Z</time></trkpt><trkpt lon="5.707046" lat="51.138142"><ele>26.6</ele><time>2022-04-17T06:37:40.000Z</time></trkpt><trkpt lon="5.707034" lat="51.138197"><ele>26.6</ele><time>2022-04-17T06:37:41.000Z</time></trkpt><trkpt lon="5.707033" lat="51.138252"><ele>26.6</ele><time>2022-04-17T06:37:42.000Z</time></trkpt><trkpt lon="5.707035" lat="51.138304"><ele>26.6</ele><time>2022-04-17T06:37:43.000Z</time></trkpt><trkpt lon="5.70703" lat="51.138358"><ele>26.6</ele><time>2022-04-17T06:37:44.000Z</time></trkpt><trkpt lon="5.707013" lat="51.138408"><ele>26.6</ele><time>2022-04-17T06:37:45.000Z</time></trkpt><trkpt lon="5.706977" lat="51.138455"><ele>26.6</ele><time>2022-04-17T06:37:46.000Z</time></trkpt><trkpt lon="5.706916" lat="51.13849"><ele>26.6</ele><time>2022-04-17T06:37:47.000Z</time></trkpt><trkpt lon="5.706829" lat="51.138506"><ele>26.6</ele><time>2022-04-17T06:37:48.000Z</time></trkpt><trkpt lon="5.706732" lat="51.138513"><ele>26.8</ele><time>2022-04-17T06:37:49.000Z</time></trkpt><trkpt lon="5.706631" lat="51.138517"><ele>26.8</ele><time>2022-04-17T06:37:50.000Z</time></trkpt><trkpt lon="5.706523" lat="51.13852"><ele>26.6</ele><time>2022-04-17T06:37:51.000Z</time></trkpt><trkpt lon="5.706407" lat="51.138523"><ele>26.6</ele><time>2022-04-17T06:37:52.000Z</time></trkpt><trkpt lon="5.706289" lat="51.138523"><ele>26.4</ele><time>2022-04-17T06:37:53.000Z</time></trkpt><trkpt lon="5.706174" lat="51.138523"><ele>26.4</ele><time>2022-04-17T06:37:54.000Z</time></trkpt><trkpt lon="5.70606" lat="51.138522"><ele>26.4</ele><time>2022-04-17T06:37:55.000Z</time></trkpt><trkpt lon="5.705948" lat="51.13852"><ele>26.4</ele><time>2022-04-17T06:37:56.000Z</time></trkpt><trkpt lon="5.705836" lat="51.138523"><ele>26.4</ele><time>2022-04-17T06:37:57.000Z</time></trkpt><trkpt lon="5.705729" lat="51.138523"><ele>26.4</ele><time>2022-04-17T06:37:58.000Z</time></trkpt><trkpt lon="5.705625" lat="51.138522"><ele>26.4</ele><time>2022-04-17T06:37:59.000Z</time></trkpt><trkpt lon="5.705517" lat="51.138518"><ele>26.4</ele><time>2022-04-17T06:38:00.000Z</time></trkpt><trkpt lon="5.705412" lat="51.138512"><ele>26.6</ele><time>2022-04-17T06:38:01.000Z</time></trkpt><trkpt lon="5.705309" lat="51.138502"><ele>26.6</ele><time>2022-04-17T06:38:02.000Z</time></trkpt><trkpt lon="5.705202" lat="51.138492"><ele>26.6</ele><time>2022-04-17T06:38:03.000Z</time></trkpt><trkpt lon="5.705096" lat="51.138478"><ele>26.8</ele><time>2022-04-17T06:38:04.000Z</time></trkpt><trkpt lon="5.704992" lat="51.138466"><ele>26.6</ele><time>2022-04-17T06:38:05.000Z</time></trkpt><trkpt lon="5.704885" lat="51.138454"><ele>26.6</ele><time>2022-04-17T06:38:06.000Z</time></trkpt><trkpt lon="5.704778" lat="51.138439"><ele>26.6</ele><time>2022-04-17T06:38:07.000Z</time></trkpt><trkpt lon="5.70467" lat="51.138423"><ele>26.8</ele><time>2022-04-17T06:38:08.000Z</time></trkpt><trkpt lon="5.704564" lat="51.138409"><ele>26.8</ele><time>2022-04-17T06:38:09.000Z</time></trkpt><trkpt lon="5.704462" lat="51.138397"><ele>26.8</ele><time>2022-04-17T06:38:10.000Z</time></trkpt><trkpt lon="5.704361" lat="51.138382"><ele>27</ele><time>2022-04-17T06:38:11.000Z</time></trkpt><trkpt lon="5.704259" lat="51.138371"><ele>27</ele><time>2022-04-17T06:38:12.000Z</time></trkpt><trkpt lon="5.704153" lat="51.13836"><ele>27</ele><time>2022-04-17T06:38:13.000Z</time></trkpt><trkpt lon="5.704043" lat="51.138348"><ele>27</ele><time>2022-04-17T06:38:14.000Z</time></trkpt><trkpt lon="5.703931" lat="51.138338"><ele>27</ele><time>2022-04-17T06:38:15.000Z</time></trkpt><trkpt lon="5.703826" lat="51.138329"><ele>27</ele><time>2022-04-17T06:38:16.000Z</time></trkpt><trkpt lon="5.703722" lat="51.138318"><ele>27</ele><time>2022-04-17T06:38:17.000Z</time></trkpt><trkpt lon="5.703618" lat="51.138305"><ele>27</ele><time>2022-04-17T06:38:18.000Z</time></trkpt><trkpt lon="5.703509" lat="51.13829"><ele>27</ele><time>2022-04-17T06:38:19.000Z</time></trkpt><trkpt lon="5.703402" lat="51.138275"><ele>27</ele><time>2022-04-17T06:38:20.000Z</time></trkpt><trkpt lon="5.703292" lat="51.138259"><ele>27</ele><time>2022-04-17T06:38:21.000Z</time></trkpt><trkpt lon="5.70318" lat="51.138243"><ele>27</ele><time>2022-04-17T06:38:22.000Z</time></trkpt><trkpt lon="5.703064" lat="51.138225"><ele>27</ele><time>2022-04-17T06:38:23.000Z</time></trkpt><trkpt lon="5.70295" lat="51.13821"><ele>27</ele><time>2022-04-17T06:38:24.000Z</time></trkpt><trkpt lon="5.702838" lat="51.138194"><ele>27</ele><time>2022-04-17T06:38:25.000Z</time></trkpt><trkpt lon="5.702724" lat="51.138175"><ele>27</ele><time>2022-04-17T06:38:26.000Z</time></trkpt><trkpt lon="5.702612" lat="51.13816"><ele>27</ele><time>2022-04-17T06:38:27.000Z</time></trkpt><trkpt lon="5.702498" lat="51.138144"><ele>27</ele><time>2022-04-17T06:38:28.000Z</time></trkpt><trkpt lon="5.702388" lat="51.138126"><ele>27</ele><time>2022-04-17T06:38:29.000Z</time></trkpt><trkpt lon="5.702277" lat="51.13811"><ele>27</ele><time>2022-04-17T06:38:30.000Z</time></trkpt><trkpt lon="5.702172" lat="51.138095"><ele>27</ele><time>2022-04-17T06:38:31.000Z</time></trkpt><trkpt lon="5.702066" lat="51.138079"><ele>27</ele><time>2022-04-17T06:38:32.000Z</time></trkpt><trkpt lon="5.701962" lat="51.138061"><ele>27.2</ele><time>2022-04-17T06:38:33.000Z</time></trkpt><trkpt lon="5.701856" lat="51.138046"><ele>27.2</ele><time>2022-04-17T06:38:34.000Z</time></trkpt><trkpt lon="5.701749" lat="51.138031"><ele>27.4</ele><time>2022-04-17T06:38:35.000Z</time></trkpt><trkpt lon="5.701643" lat="51.138018"><ele>27.4</ele><time>2022-04-17T06:38:36.000Z</time></trkpt><trkpt lon="5.701533" lat="51.138001"><ele>27.4</ele><time>2022-04-17T06:38:37.000Z</time></trkpt><trkpt lon="5.701423" lat="51.137988"><ele>27.4</ele><time>2022-04-17T06:38:38.000Z</time></trkpt><trkpt lon="5.701317" lat="51.137974"><ele>27.4</ele><time>2022-04-17T06:38:39.000Z</time></trkpt><trkpt lon="5.701208" lat="51.137963"><ele>27.6</ele><time>2022-04-17T06:38:40.000Z</time></trkpt><trkpt lon="5.701099" lat="51.137951"><ele>27.4</ele><time>2022-04-17T06:38:41.000Z</time></trkpt><trkpt lon="5.700992" lat="51.13794"><ele>27.4</ele><time>2022-04-17T06:38:42.000Z</time></trkpt><trkpt lon="5.700886" lat="51.137928"><ele>27.4</ele><time>2022-04-17T06:38:43.000Z</time></trkpt><trkpt lon="5.700775" lat="51.137912"><ele>27.4</ele><time>2022-04-17T06:38:44.000Z</time></trkpt><trkpt lon="5.700661" lat="51.137897"><ele>27.4</ele><time>2022-04-17T06:38:45.000Z</time></trkpt><trkpt lon="5.700553" lat="51.137882"><ele>27.4</ele><time>2022-04-17T06:38:46.000Z</time></trkpt><trkpt lon="5.700443" lat="51.137867"><ele>27.6</ele><time>2022-04-17T06:38:47.000Z</time></trkpt><trkpt lon="5.700332" lat="51.137854"><ele>27.6</ele><time>2022-04-17T06:38:48.000Z</time></trkpt><trkpt lon="5.70022" lat="51.137836"><ele>27.6</ele><time>2022-04-17T06:38:49.000Z</time></trkpt><trkpt lon="5.700113" lat="51.137822"><ele>27.6</ele><time>2022-04-17T06:38:50.000Z</time></trkpt><trkpt lon="5.700009" lat="51.137809"><ele>27.6</ele><time>2022-04-17T06:38:51.000Z</time></trkpt><trkpt lon="5.699902" lat="51.137794"><ele>27.6</ele><time>2022-04-17T06:38:52.000Z</time></trkpt><trkpt lon="5.699794" lat="51.137779"><ele>27.6</ele><time>2022-04-17T06:38:53.000Z</time></trkpt><trkpt lon="5.699684" lat="51.137764"><ele>27.6</ele><time>2022-04-17T06:38:54.000Z</time></trkpt><trkpt lon="5.699574" lat="51.137748"><ele>27.6</ele><time>2022-04-17T06:38:55.000Z</time></trkpt><trkpt lon="5.699467" lat="51.137733"><ele>27.6</ele><time>2022-04-17T06:38:56.000Z</time></trkpt><trkpt lon="5.699359" lat="51.137718"><ele>27.6</ele><time>2022-04-17T06:38:57.000Z</time></trkpt><trkpt lon="5.699253" lat="51.137702"><ele>27.6</ele><time>2022-04-17T06:38:58.000Z</time></trkpt><trkpt lon="5.699143" lat="51.137687"><ele>27.6</ele><time>2022-04-17T06:38:59.000Z</time></trkpt><trkpt lon="5.699033" lat="51.137672"><ele>27.6</ele><time>2022-04-17T06:39:00.000Z</time></trkpt><trkpt lon="5.69892" lat="51.137657"><ele>27.8</ele><time>2022-04-17T06:39:01.000Z</time></trkpt><trkpt lon="5.698807" lat="51.137641"><ele>27.8</ele><time>2022-04-17T06:39:02.000Z</time></trkpt><trkpt lon="5.698691" lat="51.137626"><ele>27.8</ele><time>2022-04-17T06:39:03.000Z</time></trkpt><trkpt lon="5.698578" lat="51.137611"><ele>27.8</ele><time>2022-04-17T06:39:04.000Z</time></trkpt><trkpt lon="5.698468" lat="51.137597"><ele>27.8</ele><time>2022-04-17T06:39:05.000Z</time></trkpt><trkpt lon="5.698359" lat="51.137584"><ele>27.8</ele><time>2022-04-17T06:39:06.000Z</time></trkpt><trkpt lon="5.69825" lat="51.137569"><ele>27.8</ele><time>2022-04-17T06:39:07.000Z</time></trkpt><trkpt lon="5.698139" lat="51.137554"><ele>27.8</ele><time>2022-04-17T06:39:08.000Z</time></trkpt><trkpt lon="5.698032" lat="51.137538"><ele>27.8</ele><time>2022-04-17T06:39:09.000Z</time></trkpt><trkpt lon="5.697922" lat="51.137523"><ele>27.8</ele><time>2022-04-17T06:39:10.000Z</time></trkpt><trkpt lon="5.69781" lat="51.137508"><ele>27.8</ele><time>2022-04-17T06:39:11.000Z</time></trkpt><trkpt lon="5.6977" lat="51.137493"><ele>28</ele><time>2022-04-17T06:39:12.000Z</time></trkpt><trkpt lon="5.697591" lat="51.137477"><ele>28</ele><time>2022-04-17T06:39:13.000Z</time></trkpt><trkpt lon="5.69748" lat="51.137462"><ele>28</ele><time>2022-04-17T06:39:14.000Z</time></trkpt><trkpt lon="5.697373" lat="51.137447"><ele>28</ele><time>2022-04-17T06:39:15.000Z</time></trkpt><trkpt lon="5.697263" lat="51.137432"><ele>28</ele><time>2022-04-17T06:39:16.000Z</time></trkpt><trkpt lon="5.69715" lat="51.137417"><ele>28</ele><time>2022-04-17T06:39:17.000Z</time></trkpt><trkpt lon="5.697039" lat="51.137405"><ele>28</ele><time>2022-04-17T06:39:18.000Z</time></trkpt><trkpt lon="5.696927" lat="51.13739"><ele>28</ele><time>2022-04-17T06:39:19.000Z</time></trkpt><trkpt lon="5.696818" lat="51.137374"><ele>28</ele><time>2022-04-17T06:39:20.000Z</time></trkpt><trkpt lon="5.696708" lat="51.137359"><ele>28</ele><time>2022-04-17T06:39:21.000Z</time></trkpt><trkpt lon="5.6966" lat="51.137343"><ele>28</ele><time>2022-04-17T06:39:22.000Z</time></trkpt><trkpt lon="5.696495" lat="51.137325"><ele>28</ele><time>2022-04-17T06:39:23.000Z</time></trkpt><trkpt lon="5.696388" lat="51.13731"><ele>28.2</ele><time>2022-04-17T06:39:24.000Z</time></trkpt><trkpt lon="5.696282" lat="51.137294"><ele>28.2</ele><time>2022-04-17T06:39:25.000Z</time></trkpt><trkpt lon="5.696179" lat="51.137278"><ele>28.2</ele><time>2022-04-17T06:39:26.000Z</time></trkpt><trkpt lon="5.696073" lat="51.13726"><ele>28</ele><time>2022-04-17T06:39:27.000Z</time></trkpt><trkpt lon="5.695966" lat="51.137245"><ele>28.2</ele><time>2022-04-17T06:39:28.000Z</time></trkpt><trkpt lon="5.695857" lat="51.137229"><ele>28.2</ele><time>2022-04-17T06:39:29.000Z</time></trkpt><trkpt lon="5.69575" lat="51.137214"><ele>28.2</ele><time>2022-04-17T06:39:30.000Z</time></trkpt><trkpt lon="5.695643" lat="51.1372"><ele>28.2</ele><time>2022-04-17T06:39:31.000Z</time></trkpt><trkpt lon="5.695533" lat="51.137186"><ele>28.2</ele><time>2022-04-17T06:39:32.000Z</time></trkpt><trkpt lon="5.695421" lat="51.13717"><ele>28.2</ele><time>2022-04-17T06:39:33.000Z</time></trkpt><trkpt lon="5.695314" lat="51.137158"><ele>28.2</ele><time>2022-04-17T06:39:34.000Z</time></trkpt><trkpt lon="5.695197" lat="51.137143"><ele>28.2</ele><time>2022-04-17T06:39:35.000Z</time></trkpt><trkpt lon="5.69509" lat="51.137131"><ele>28.2</ele><time>2022-04-17T06:39:36.000Z</time></trkpt><trkpt lon="5.694984" lat="51.13712"><ele>28.2</ele><time>2022-04-17T06:39:37.000Z</time></trkpt><trkpt lon="5.694881" lat="51.13711"><ele>28.2</ele><time>2022-04-17T06:39:38.000Z</time></trkpt><trkpt lon="5.694774" lat="51.137102"><ele>28</ele><time>2022-04-17T06:39:39.000Z</time></trkpt><trkpt lon="5.694662" lat="51.137093"><ele>28.2</ele><time>2022-04-17T06:39:40.000Z</time></trkpt><trkpt lon="5.694551" lat="51.137084"><ele>28.2</ele><time>2022-04-17T06:39:41.000Z</time></trkpt><trkpt lon="5.694438" lat="51.137079"><ele>28.2</ele><time>2022-04-17T06:39:42.000Z</time></trkpt><trkpt lon="5.694325" lat="51.137073"><ele>28.2</ele><time>2022-04-17T06:39:43.000Z</time></trkpt><trkpt lon="5.694212" lat="51.137068"><ele>28.4</ele><time>2022-04-17T06:39:44.000Z</time></trkpt><trkpt lon="5.694098" lat="51.137062"><ele>28.4</ele><time>2022-04-17T06:39:45.000Z</time></trkpt><trkpt lon="5.693988" lat="51.137061"><ele>28.4</ele><time>2022-04-17T06:39:46.000Z</time></trkpt><trkpt lon="5.693877" lat="51.137058"><ele>28.4</ele><time>2022-04-17T06:39:47.000Z</time></trkpt><trkpt lon="5.693763" lat="51.137058"><ele>28.6</ele><time>2022-04-17T06:39:48.000Z</time></trkpt><trkpt lon="5.69365" lat="51.137058"><ele>28.6</ele><time>2022-04-17T06:39:49.000Z</time></trkpt><trkpt lon="5.693537" lat="51.137058"><ele>28.6</ele><time>2022-04-17T06:39:50.000Z</time></trkpt><trkpt lon="5.693422" lat="51.137061"><ele>28.6</ele><time>2022-04-17T06:39:51.000Z</time></trkpt><trkpt lon="5.693308" lat="51.137066"><ele>28.4</ele><time>2022-04-17T06:39:52.000Z</time></trkpt><trkpt lon="5.693194" lat="51.137067"><ele>28.2</ele><time>2022-04-17T06:39:53.000Z</time></trkpt><trkpt lon="5.69308" lat="51.137071"><ele>28</ele><time>2022-04-17T06:39:54.000Z</time></trkpt><trkpt lon="5.692965" lat="51.137075"><ele>28</ele><time>2022-04-17T06:39:55.000Z</time></trkpt><trkpt lon="5.692852" lat="51.137078"><ele>27.8</ele><time>2022-04-17T06:39:56.000Z</time></trkpt><trkpt lon="5.692741" lat="51.137081"><ele>28</ele><time>2022-04-17T06:39:57.000Z</time></trkpt><trkpt lon="5.69263" lat="51.137081"><ele>28</ele><time>2022-04-17T06:39:58.000Z</time></trkpt><trkpt lon="5.692521" lat="51.137081"><ele>27.8</ele><time>2022-04-17T06:39:59.000Z</time></trkpt><trkpt lon="5.692409" lat="51.137079"><ele>27.8</ele><time>2022-04-17T06:40:00.000Z</time></trkpt><trkpt lon="5.692296" lat="51.137074"><ele>27.8</ele><time>2022-04-17T06:40:01.000Z</time></trkpt><trkpt lon="5.692181" lat="51.137074"><ele>28</ele><time>2022-04-17T06:40:02.000Z</time></trkpt><trkpt lon="5.692067" lat="51.137074"><ele>28</ele><time>2022-04-17T06:40:03.000Z</time></trkpt><trkpt lon="5.691955" lat="51.137071"><ele>28</ele><time>2022-04-17T06:40:04.000Z</time></trkpt><trkpt lon="5.691842" lat="51.137065"><ele>28.2</ele><time>2022-04-17T06:40:05.000Z</time></trkpt><trkpt lon="5.691734" lat="51.137061"><ele>28.2</ele><time>2022-04-17T06:40:06.000Z</time></trkpt><trkpt lon="5.691626" lat="51.137056"><ele>28.2</ele><time>2022-04-17T06:40:07.000Z</time></trkpt><trkpt lon="5.691514" lat="51.13705"><ele>28.2</ele><time>2022-04-17T06:40:08.000Z</time></trkpt><trkpt lon="5.691407" lat="51.137045"><ele>28.2</ele><time>2022-04-17T06:40:09.000Z</time></trkpt><trkpt lon="5.6913" lat="51.137037"><ele>28.2</ele><time>2022-04-17T06:40:10.000Z</time></trkpt><trkpt lon="5.691187" lat="51.137029"><ele>28.2</ele><time>2022-04-17T06:40:11.000Z</time></trkpt><trkpt lon="5.691076" lat="51.137022"><ele>28.2</ele><time>2022-04-17T06:40:12.000Z</time></trkpt><trkpt lon="5.690964" lat="51.137014"><ele>28.4</ele><time>2022-04-17T06:40:13.000Z</time></trkpt><trkpt lon="5.690849" lat="51.137007"><ele>28.4</ele><time>2022-04-17T06:40:14.000Z</time></trkpt><trkpt lon="5.690732" lat="51.136999"><ele>28.4</ele><time>2022-04-17T06:40:15.000Z</time></trkpt><trkpt lon="5.690619" lat="51.13699"><ele>28.4</ele><time>2022-04-17T06:40:16.000Z</time></trkpt><trkpt lon="5.690511" lat="51.136978"><ele>28.4</ele><time>2022-04-17T06:40:17.000Z</time></trkpt><trkpt lon="5.690409" lat="51.13696"><ele>28.4</ele><time>2022-04-17T06:40:18.000Z</time></trkpt><trkpt lon="5.690309" lat="51.136937"><ele>28.4</ele><time>2022-04-17T06:40:19.000Z</time></trkpt><trkpt lon="5.69021" lat="51.136908"><ele>28.4</ele><time>2022-04-17T06:40:20.000Z</time></trkpt><trkpt lon="5.690116" lat="51.136876"><ele>28.6</ele><time>2022-04-17T06:40:21.000Z</time></trkpt><trkpt lon="5.690025" lat="51.136837"><ele>28.6</ele><time>2022-04-17T06:40:22.000Z</time></trkpt><trkpt lon="5.689929" lat="51.136796"><ele>28.6</ele><time>2022-04-17T06:40:23.000Z</time></trkpt><trkpt lon="5.689833" lat="51.136757"><ele>28.6</ele><time>2022-04-17T06:40:24.000Z</time></trkpt><trkpt lon="5.689739" lat="51.136719"><ele>28.6</ele><time>2022-04-17T06:40:25.000Z</time></trkpt><trkpt lon="5.689645" lat="51.136681"><ele>28.6</ele><time>2022-04-17T06:40:26.000Z</time></trkpt><trkpt lon="5.689553" lat="51.136642"><ele>28.6</ele><time>2022-04-17T06:40:27.000Z</time></trkpt><trkpt lon="5.68946" lat="51.136601"><ele>28.6</ele><time>2022-04-17T06:40:28.000Z</time></trkpt><trkpt lon="5.689364" lat="51.136563"><ele>28.8</ele><time>2022-04-17T06:40:29.000Z</time></trkpt><trkpt lon="5.689271" lat="51.136524"><ele>28.8</ele><time>2022-04-17T06:40:30.000Z</time></trkpt><trkpt lon="5.68918" lat="51.136486"><ele>28.8</ele><time>2022-04-17T06:40:31.000Z</time></trkpt><trkpt lon="5.689089" lat="51.136448"><ele>28.8</ele><time>2022-04-17T06:40:32.000Z</time></trkpt><trkpt lon="5.688997" lat="51.13641"><ele>28.8</ele><time>2022-04-17T06:40:33.000Z</time></trkpt><trkpt lon="5.688903" lat="51.136371"><ele>29</ele><time>2022-04-17T06:40:34.000Z</time></trkpt><trkpt lon="5.688806" lat="51.136328"><ele>29</ele><time>2022-04-17T06:40:35.000Z</time></trkpt><trkpt lon="5.688712" lat="51.136288"><ele>29</ele><time>2022-04-17T06:40:36.000Z</time></trkpt><trkpt lon="5.688621" lat="51.13625"><ele>29</ele><time>2022-04-17T06:40:37.000Z</time></trkpt><trkpt lon="5.688533" lat="51.136212"><ele>29</ele><time>2022-04-17T06:40:38.000Z</time></trkpt><trkpt lon="5.688441" lat="51.136173"><ele>29</ele><time>2022-04-17T06:40:39.000Z</time></trkpt><trkpt lon="5.688347" lat="51.136135"><ele>29</ele><time>2022-04-17T06:40:40.000Z</time></trkpt><trkpt lon="5.688253" lat="51.136095"><ele>29</ele><time>2022-04-17T06:40:41.000Z</time></trkpt><trkpt lon="5.688154" lat="51.136055"><ele>29</ele><time>2022-04-17T06:40:42.000Z</time></trkpt><trkpt lon="5.68806" lat="51.136018"><ele>29</ele><time>2022-04-17T06:40:43.000Z</time></trkpt><trkpt lon="5.687965" lat="51.135978"><ele>29</ele><time>2022-04-17T06:40:44.000Z</time></trkpt><trkpt lon="5.687873" lat="51.135937"><ele>29.2</ele><time>2022-04-17T06:40:45.000Z</time></trkpt><trkpt lon="5.68778" lat="51.1359"><ele>29.2</ele><time>2022-04-17T06:40:46.000Z</time></trkpt><trkpt lon="5.68769" lat="51.135861"><ele>29.2</ele><time>2022-04-17T06:40:47.000Z</time></trkpt><trkpt lon="5.687596" lat="51.135819"><ele>29.2</ele><time>2022-04-17T06:40:48.000Z</time></trkpt><trkpt lon="5.687506" lat="51.13578"><ele>29.2</ele><time>2022-04-17T06:40:49.000Z</time></trkpt><trkpt lon="5.687419" lat="51.135738"><ele>29.2</ele><time>2022-04-17T06:40:50.000Z</time></trkpt><trkpt lon="5.687329" lat="51.135692"><ele>29</ele><time>2022-04-17T06:40:51.000Z</time></trkpt><trkpt lon="5.687245" lat="51.13565"><ele>29</ele><time>2022-04-17T06:40:52.000Z</time></trkpt><trkpt lon="5.687164" lat="51.135607"><ele>29</ele><time>2022-04-17T06:40:53.000Z</time></trkpt><trkpt lon="5.68708" lat="51.135561"><ele>29</ele><time>2022-04-17T06:40:54.000Z</time></trkpt><trkpt lon="5.686994" lat="51.135515"><ele>29</ele><time>2022-04-17T06:40:55.000Z</time></trkpt><trkpt lon="5.686908" lat="51.135469"><ele>29</ele><time>2022-04-17T06:40:56.000Z</time></trkpt><trkpt lon="5.686819" lat="51.13542"><ele>29.2</ele><time>2022-04-17T06:40:57.000Z</time></trkpt><trkpt lon="5.686734" lat="51.135374"><ele>29.2</ele><time>2022-04-17T06:40:58.000Z</time></trkpt><trkpt lon="5.68665" lat="51.135328"><ele>29.2</ele><time>2022-04-17T06:40:59.000Z</time></trkpt><trkpt lon="5.686565" lat="51.135283"><ele>29.2</ele><time>2022-04-17T06:41:00.000Z</time></trkpt><trkpt lon="5.686479" lat="51.135237"><ele>29.4</ele><time>2022-04-17T06:41:01.000Z</time></trkpt><trkpt lon="5.686392" lat="51.135192"><ele>29.4</ele><time>2022-04-17T06:41:02.000Z</time></trkpt><trkpt lon="5.686308" lat="51.135149"><ele>29.4</ele><time>2022-04-17T06:41:03.000Z</time></trkpt><trkpt lon="5.686223" lat="51.135103"><ele>29.6</ele><time>2022-04-17T06:41:04.000Z</time></trkpt><trkpt lon="5.686136" lat="51.135057"><ele>29.6</ele><time>2022-04-17T06:41:05.000Z</time></trkpt><trkpt lon="5.68605" lat="51.135012"><ele>29.6</ele><time>2022-04-17T06:41:06.000Z</time></trkpt><trkpt lon="5.685964" lat="51.134967"><ele>29.6</ele><time>2022-04-17T06:41:07.000Z</time></trkpt><trkpt lon="5.685875" lat="51.134921"><ele>29.6</ele><time>2022-04-17T06:41:08.000Z</time></trkpt><trkpt lon="5.685785" lat="51.134874"><ele>29.6</ele><time>2022-04-17T06:41:09.000Z</time></trkpt><trkpt lon="5.685696" lat="51.134828"><ele>29.6</ele><time>2022-04-17T06:41:10.000Z</time></trkpt><trkpt lon="5.68561" lat="51.134783"><ele>29.6</ele><time>2022-04-17T06:41:11.000Z</time></trkpt><trkpt lon="5.685524" lat="51.134737"><ele>29.6</ele><time>2022-04-17T06:41:12.000Z</time></trkpt><trkpt lon="5.685437" lat="51.134691"><ele>29.6</ele><time>2022-04-17T06:41:13.000Z</time></trkpt><trkpt lon="5.685351" lat="51.134646"><ele>29.4</ele><time>2022-04-17T06:41:14.000Z</time></trkpt><trkpt lon="5.685264" lat="51.1346"><ele>29.4</ele><time>2022-04-17T06:41:15.000Z</time></trkpt><trkpt lon="5.685177" lat="51.134554"><ele>29.6</ele><time>2022-04-17T06:41:16.000Z</time></trkpt><trkpt lon="5.68509" lat="51.134507"><ele>29.6</ele><time>2022-04-17T06:41:17.000Z</time></trkpt><trkpt lon="5.685002" lat="51.134458"><ele>29.6</ele><time>2022-04-17T06:41:18.000Z</time></trkpt><trkpt lon="5.684915" lat="51.134413"><ele>29.6</ele><time>2022-04-17T06:41:19.000Z</time></trkpt><trkpt lon="5.68483" lat="51.134367"><ele>29.6</ele><time>2022-04-17T06:41:20.000Z</time></trkpt><trkpt lon="5.684742" lat="51.13432"><ele>29.6</ele><time>2022-04-17T06:41:21.000Z</time></trkpt><trkpt lon="5.684656" lat="51.134272"><ele>29.4</ele><time>2022-04-17T06:41:22.000Z</time></trkpt><trkpt lon="5.684568" lat="51.134227"><ele>29.4</ele><time>2022-04-17T06:41:23.000Z</time></trkpt><trkpt lon="5.68448" lat="51.13418"><ele>29.6</ele><time>2022-04-17T06:41:24.000Z</time></trkpt><trkpt lon="5.684397" lat="51.134135"><ele>29.6</ele><time>2022-04-17T06:41:25.000Z</time></trkpt><trkpt lon="5.684314" lat="51.134089"><ele>29.6</ele><time>2022-04-17T06:41:26.000Z</time></trkpt><trkpt lon="5.684231" lat="51.134043"><ele>29.6</ele><time>2022-04-17T06:41:27.000Z</time></trkpt><trkpt lon="5.684144" lat="51.133994"><ele>29.6</ele><time>2022-04-17T06:41:28.000Z</time></trkpt><trkpt lon="5.684059" lat="51.13395"><ele>29.6</ele><time>2022-04-17T06:41:29.000Z</time></trkpt><trkpt lon="5.683975" lat="51.133902"><ele>29.6</ele><time>2022-04-17T06:41:30.000Z</time></trkpt><trkpt lon="5.683889" lat="51.133856"><ele>29.6</ele><time>2022-04-17T06:41:31.000Z</time></trkpt><trkpt lon="5.683802" lat="51.133809"><ele>29.4</ele><time>2022-04-17T06:41:32.000Z</time></trkpt><trkpt lon="5.683716" lat="51.133761"><ele>29.4</ele><time>2022-04-17T06:41:33.000Z</time></trkpt><trkpt lon="5.68363" lat="51.133714"><ele>29.4</ele><time>2022-04-17T06:41:34.000Z</time></trkpt><trkpt lon="5.683543" lat="51.133665"><ele>29.4</ele><time>2022-04-17T06:41:35.000Z</time></trkpt><trkpt lon="5.683456" lat="51.133619"><ele>29.4</ele><time>2022-04-17T06:41:36.000Z</time></trkpt><trkpt lon="5.683369" lat="51.133575"><ele>29.4</ele><time>2022-04-17T06:41:37.000Z</time></trkpt><trkpt lon="5.683278" lat="51.133534"><ele>29.4</ele><time>2022-04-17T06:41:38.000Z</time></trkpt><trkpt lon="5.683183" lat="51.133498"><ele>29.4</ele><time>2022-04-17T06:41:39.000Z</time></trkpt><trkpt lon="5.683083" lat="51.133468"><ele>29.6</ele><time>2022-04-17T06:41:40.000Z</time></trkpt><trkpt lon="5.682979" lat="51.133443"><ele>29.6</ele><time>2022-04-17T06:41:41.000Z</time></trkpt><trkpt lon="5.682875" lat="51.13342"><ele>29.6</ele><time>2022-04-17T06:41:42.000Z</time></trkpt><trkpt lon="5.682769" lat="51.133397"><ele>29.6</ele><time>2022-04-17T06:41:43.000Z</time></trkpt><trkpt lon="5.682665" lat="51.133375"><ele>29.8</ele><time>2022-04-17T06:41:44.000Z</time></trkpt><trkpt lon="5.68256" lat="51.133355"><ele>29.8</ele><time>2022-04-17T06:41:45.000Z</time></trkpt><trkpt lon="5.682456" lat="51.133333"><ele>29.8</ele><time>2022-04-17T06:41:46.000Z</time></trkpt><trkpt lon="5.682353" lat="51.13331"><ele>30</ele><time>2022-04-17T06:41:47.000Z</time></trkpt><trkpt lon="5.682243" lat="51.133286"><ele>30</ele><time>2022-04-17T06:41:48.000Z</time></trkpt><trkpt lon="5.682139" lat="51.133265"><ele>30</ele><time>2022-04-17T06:41:49.000Z</time></trkpt><trkpt lon="5.682036" lat="51.133245"><ele>30</ele><time>2022-04-17T06:41:50.000Z</time></trkpt><trkpt lon="5.681929" lat="51.133222"><ele>30</ele><time>2022-04-17T06:41:51.000Z</time></trkpt><trkpt lon="5.681822" lat="51.1332"><ele>30</ele><time>2022-04-17T06:41:52.000Z</time></trkpt><trkpt lon="5.681716" lat="51.13318"><ele>29.8</ele><time>2022-04-17T06:41:53.000Z</time></trkpt><trkpt lon="5.68161" lat="51.133157"><ele>29.8</ele><time>2022-04-17T06:41:54.000Z</time></trkpt><trkpt lon="5.681504" lat="51.133135"><ele>29.8</ele><time>2022-04-17T06:41:55.000Z</time></trkpt><trkpt lon="5.681399" lat="51.133115"><ele>29.8</ele><time>2022-04-17T06:41:56.000Z</time></trkpt><trkpt lon="5.681293" lat="51.133092"><ele>29.8</ele><time>2022-04-17T06:41:57.000Z</time></trkpt><trkpt lon="5.681188" lat="51.13307"><ele>30</ele><time>2022-04-17T06:41:58.000Z</time></trkpt><trkpt lon="5.681083" lat="51.133051"><ele>30.2</ele><time>2022-04-17T06:41:59.000Z</time></trkpt><trkpt lon="5.680976" lat="51.133032"><ele>30.2</ele><time>2022-04-17T06:42:00.000Z</time></trkpt><trkpt lon="5.680869" lat="51.133012"><ele>30.2</ele><time>2022-04-17T06:42:01.000Z</time></trkpt><trkpt lon="5.680762" lat="51.132989"><ele>30.2</ele><time>2022-04-17T06:42:02.000Z</time></trkpt><trkpt lon="5.680655" lat="51.132966"><ele>30.2</ele><time>2022-04-17T06:42:03.000Z</time></trkpt><trkpt lon="5.680546" lat="51.132944"><ele>30.2</ele><time>2022-04-17T06:42:04.000Z</time></trkpt><trkpt lon="5.680436" lat="51.132925"><ele>30.4</ele><time>2022-04-17T06:42:05.000Z</time></trkpt><trkpt lon="5.680328" lat="51.132904"><ele>30.2</ele><time>2022-04-17T06:42:06.000Z</time></trkpt><trkpt lon="5.68022" lat="51.132879"><ele>30.2</ele><time>2022-04-17T06:42:07.000Z</time></trkpt><trkpt lon="5.680112" lat="51.132859"><ele>30.2</ele><time>2022-04-17T06:42:08.000Z</time></trkpt><trkpt lon="5.680004" lat="51.132836"><ele>30.2</ele><time>2022-04-17T06:42:09.000Z</time></trkpt><trkpt lon="5.679894" lat="51.132813"><ele>30.2</ele><time>2022-04-17T06:42:10.000Z</time></trkpt><trkpt lon="5.679786" lat="51.13279"><ele>30.4</ele><time>2022-04-17T06:42:11.000Z</time></trkpt><trkpt lon="5.679677" lat="51.132768"><ele>30.4</ele><time>2022-04-17T06:42:12.000Z</time></trkpt><trkpt lon="5.679568" lat="51.132744"><ele>30.4</ele><time>2022-04-17T06:42:13.000Z</time></trkpt><trkpt lon="5.679458" lat="51.132718"><ele>30.4</ele><time>2022-04-17T06:42:14.000Z</time></trkpt><trkpt lon="5.67935" lat="51.132696"><ele>30.4</ele><time>2022-04-17T06:42:15.000Z</time></trkpt><trkpt lon="5.679241" lat="51.132676"><ele>30.4</ele><time>2022-04-17T06:42:16.000Z</time></trkpt><trkpt lon="5.679133" lat="51.132652"><ele>30.4</ele><time>2022-04-17T06:42:17.000Z</time></trkpt><trkpt lon="5.679025" lat="51.132626"><ele>30.4</ele><time>2022-04-17T06:42:18.000Z</time></trkpt><trkpt lon="5.678921" lat="51.132603"><ele>30.4</ele><time>2022-04-17T06:42:19.000Z</time></trkpt><trkpt lon="5.678817" lat="51.132576"><ele>30.6</ele><time>2022-04-17T06:42:20.000Z</time></trkpt><trkpt lon="5.678711" lat="51.132549"><ele>30.6</ele><time>2022-04-17T06:42:21.000Z</time></trkpt><trkpt lon="5.678605" lat="51.132523"><ele>30.6</ele><time>2022-04-17T06:42:22.000Z</time></trkpt><trkpt lon="5.678497" lat="51.132496"><ele>30.6</ele><time>2022-04-17T06:42:23.000Z</time></trkpt><trkpt lon="5.678389" lat="51.132469"><ele>30.6</ele><time>2022-04-17T06:42:24.000Z</time></trkpt><trkpt lon="5.678282" lat="51.132441"><ele>30.6</ele><time>2022-04-17T06:42:25.000Z</time></trkpt><trkpt lon="5.678175" lat="51.132411"><ele>30.6</ele><time>2022-04-17T06:42:26.000Z</time></trkpt><trkpt lon="5.67807" lat="51.132381"><ele>30.6</ele><time>2022-04-17T06:42:27.000Z</time></trkpt><trkpt lon="5.677966" lat="51.132354"><ele>30.6</ele><time>2022-04-17T06:42:28.000Z</time></trkpt><trkpt lon="5.677867" lat="51.132325"><ele>30.6</ele><time>2022-04-17T06:42:29.000Z</time></trkpt><trkpt lon="5.677769" lat="51.132297"><ele>30.6</ele><time>2022-04-17T06:42:30.000Z</time></trkpt><trkpt lon="5.677685" lat="51.132271"><ele>30.6</ele><time>2022-04-17T06:42:31.000Z</time></trkpt><trkpt lon="5.677609" lat="51.132247"><ele>30.6</ele><time>2022-04-17T06:42:32.000Z</time></trkpt><trkpt lon="5.67754" lat="51.132234"><ele>30.6</ele><time>2022-04-17T06:42:33.000Z</time></trkpt><trkpt lon="5.677474" lat="51.132234"><ele>30.6</ele><time>2022-04-17T06:42:34.000Z</time></trkpt><trkpt lon="5.677415" lat="51.132259"><ele>30.6</ele><time>2022-04-17T06:42:35.000Z</time></trkpt><trkpt lon="5.677364" lat="51.1323"><ele>30.6</ele><time>2022-04-17T06:42:36.000Z</time></trkpt><trkpt lon="5.677316" lat="51.132351"><ele>30.4</ele><time>2022-04-17T06:42:37.000Z</time></trkpt><trkpt lon="5.677269" lat="51.132404"><ele>30.4</ele><time>2022-04-17T06:42:38.000Z</time></trkpt><trkpt lon="5.677221" lat="51.132457"><ele>30.4</ele><time>2022-04-17T06:42:39.000Z</time></trkpt><trkpt lon="5.67717" lat="51.132513"><ele>30.2</ele><time>2022-04-17T06:42:40.000Z</time></trkpt><trkpt lon="5.677117" lat="51.13257"><ele>30.2</ele><time>2022-04-17T06:42:41.000Z</time></trkpt><trkpt lon="5.677062" lat="51.132628"><ele>30.2</ele><time>2022-04-17T06:42:42.000Z</time></trkpt><trkpt lon="5.677008" lat="51.132688"><ele>30.2</ele><time>2022-04-17T06:42:43.000Z</time></trkpt><trkpt lon="5.676954" lat="51.132746"><ele>30</ele><time>2022-04-17T06:42:44.000Z</time></trkpt><trkpt lon="5.676897" lat="51.132808"><ele>30</ele><time>2022-04-17T06:42:45.000Z</time></trkpt><trkpt lon="5.676842" lat="51.132868"><ele>30.2</ele><time>2022-04-17T06:42:46.000Z</time></trkpt><trkpt lon="5.676785" lat="51.132929"><ele>30.2</ele><time>2022-04-17T06:42:47.000Z</time></trkpt><trkpt lon="5.676729" lat="51.132987"><ele>30.2</ele><time>2022-04-17T06:42:48.000Z</time></trkpt><trkpt lon="5.676673" lat="51.133047"><ele>30.2</ele><time>2022-04-17T06:42:49.000Z</time></trkpt><trkpt lon="5.676613" lat="51.133107"><ele>30.2</ele><time>2022-04-17T06:42:50.000Z</time></trkpt><trkpt lon="5.676553" lat="51.133166"><ele>30.2</ele><time>2022-04-17T06:42:51.000Z</time></trkpt><trkpt lon="5.67649" lat="51.133226"><ele>30.2</ele><time>2022-04-17T06:42:52.000Z</time></trkpt><trkpt lon="5.676422" lat="51.133282"><ele>30.2</ele><time>2022-04-17T06:42:53.000Z</time></trkpt><trkpt lon="5.676349" lat="51.133335"><ele>30.2</ele><time>2022-04-17T06:42:54.000Z</time></trkpt><trkpt lon="5.676273" lat="51.133389"><ele>30.2</ele><time>2022-04-17T06:42:55.000Z</time></trkpt><trkpt lon="5.676196" lat="51.133442"><ele>30.2</ele><time>2022-04-17T06:42:56.000Z</time></trkpt><trkpt lon="5.676118" lat="51.133495"><ele>30.2</ele><time>2022-04-17T06:42:57.000Z</time></trkpt><trkpt lon="5.676038" lat="51.133548"><ele>30.4</ele><time>2022-04-17T06:42:58.000Z</time></trkpt><trkpt lon="5.675955" lat="51.133602"><ele>30.4</ele><time>2022-04-17T06:42:59.000Z</time></trkpt><trkpt lon="5.675874" lat="51.133656"><ele>30.4</ele><time>2022-04-17T06:43:00.000Z</time></trkpt><trkpt lon="5.675796" lat="51.133708"><ele>30.6</ele><time>2022-04-17T06:43:01.000Z</time></trkpt><trkpt lon="5.675718" lat="51.133759"><ele>30.6</ele><time>2022-04-17T06:43:02.000Z</time></trkpt><trkpt lon="5.675639" lat="51.133812"><ele>30.8</ele><time>2022-04-17T06:43:03.000Z</time></trkpt><trkpt lon="5.675558" lat="51.133866"><ele>30.8</ele><time>2022-04-17T06:43:04.000Z</time></trkpt><trkpt lon="5.675478" lat="51.133919"><ele>30.8</ele><time>2022-04-17T06:43:05.000Z</time></trkpt><trkpt lon="5.675398" lat="51.133973"><ele>30.8</ele><time>2022-04-17T06:43:06.000Z</time></trkpt><trkpt lon="5.675318" lat="51.134027"><ele>30.8</ele><time>2022-04-17T06:43:07.000Z</time></trkpt><trkpt lon="5.675238" lat="51.134083"><ele>30.8</ele><time>2022-04-17T06:43:08.000Z</time></trkpt><trkpt lon="5.675158" lat="51.134136"><ele>30.8</ele><time>2022-04-17T06:43:09.000Z</time></trkpt><trkpt lon="5.675077" lat="51.13419"><ele>31</ele><time>2022-04-17T06:43:10.000Z</time></trkpt><trkpt lon="5.674997" lat="51.134243"><ele>31</ele><time>2022-04-17T06:43:11.000Z</time></trkpt><trkpt lon="5.674917" lat="51.134297"><ele>31</ele><time>2022-04-17T06:43:12.000Z</time></trkpt><trkpt lon="5.674838" lat="51.13435"><ele>31.2</ele><time>2022-04-17T06:43:13.000Z</time></trkpt><trkpt lon="5.674759" lat="51.134403"><ele>31.2</ele><time>2022-04-17T06:43:14.000Z</time></trkpt><trkpt lon="5.67468" lat="51.134457"><ele>31.2</ele><time>2022-04-17T06:43:15.000Z</time></trkpt><trkpt lon="5.674599" lat="51.134509"><ele>31.2</ele><time>2022-04-17T06:43:16.000Z</time></trkpt><trkpt lon="5.674518" lat="51.134561"><ele>31.2</ele><time>2022-04-17T06:43:17.000Z</time></trkpt><trkpt lon="5.674438" lat="51.134616"><ele>31.2</ele><time>2022-04-17T06:43:18.000Z</time></trkpt><trkpt lon="5.67436" lat="51.134666"><ele>31.2</ele><time>2022-04-17T06:43:19.000Z</time></trkpt><trkpt lon="5.674283" lat="51.13472"><ele>31.2</ele><time>2022-04-17T06:43:20.000Z</time></trkpt><trkpt lon="5.674206" lat="51.134773"><ele>31.2</ele><time>2022-04-17T06:43:21.000Z</time></trkpt><trkpt lon="5.67413" lat="51.134826"><ele>31.2</ele><time>2022-04-17T06:43:22.000Z</time></trkpt><trkpt lon="5.674051" lat="51.13488"><ele>31.2</ele><time>2022-04-17T06:43:23.000Z</time></trkpt><trkpt lon="5.673974" lat="51.134934"><ele>31.2</ele><time>2022-04-17T06:43:24.000Z</time></trkpt><trkpt lon="5.673895" lat="51.134986"><ele>31.2</ele><time>2022-04-17T06:43:25.000Z</time></trkpt><trkpt lon="5.673814" lat="51.135035"><ele>31.2</ele><time>2022-04-17T06:43:26.000Z</time></trkpt><trkpt lon="5.673732" lat="51.135081"><ele>31.2</ele><time>2022-04-17T06:43:27.000Z</time></trkpt><trkpt lon="5.673649" lat="51.135126"><ele>31.2</ele><time>2022-04-17T06:43:28.000Z</time></trkpt><trkpt lon="5.673567" lat="51.135172"><ele>31.2</ele><time>2022-04-17T06:43:29.000Z</time></trkpt><trkpt lon="5.673482" lat="51.135216"><ele>31.2</ele><time>2022-04-17T06:43:30.000Z</time></trkpt><trkpt lon="5.673397" lat="51.135257"><ele>31.4</ele><time>2022-04-17T06:43:31.000Z</time></trkpt><trkpt lon="5.673309" lat="51.1353"><ele>31.2</ele><time>2022-04-17T06:43:32.000Z</time></trkpt><trkpt lon="5.673222" lat="51.135342"><ele>31.2</ele><time>2022-04-17T06:43:33.000Z</time></trkpt><trkpt lon="5.673134" lat="51.135385"><ele>31.4</ele><time>2022-04-17T06:43:34.000Z</time></trkpt><trkpt lon="5.673046" lat="51.135426"><ele>31.4</ele><time>2022-04-17T06:43:35.000Z</time></trkpt><trkpt lon="5.67296" lat="51.135465"><ele>31.4</ele><time>2022-04-17T06:43:36.000Z</time></trkpt><trkpt lon="5.672876" lat="51.135505"><ele>31.4</ele><time>2022-04-17T06:43:37.000Z</time></trkpt><trkpt lon="5.672793" lat="51.135544"><ele>31.4</ele><time>2022-04-17T06:43:38.000Z</time></trkpt><trkpt lon="5.672711" lat="51.135582"><ele>31.2</ele><time>2022-04-17T06:43:39.000Z</time></trkpt><trkpt lon="5.67263" lat="51.13562"><ele>31.2</ele><time>2022-04-17T06:43:40.000Z</time></trkpt><trkpt lon="5.67255" lat="51.135657"><ele>31.2</ele><time>2022-04-17T06:43:41.000Z</time></trkpt><trkpt lon="5.672476" lat="51.135691"><ele>31.2</ele><time>2022-04-17T06:43:42.000Z</time></trkpt><trkpt lon="5.672406" lat="51.135724"><ele>31.2</ele><time>2022-04-17T06:43:43.000Z</time></trkpt><trkpt lon="5.672341" lat="51.135753"><ele>31.2</ele><time>2022-04-17T06:43:44.000Z</time></trkpt><trkpt lon="5.672281" lat="51.135771"><ele>31.2</ele><time>2022-04-17T06:43:45.000Z</time></trkpt><trkpt lon="5.672217" lat="51.135774"><ele>31.2</ele><time>2022-04-17T06:43:46.000Z</time></trkpt><trkpt lon="5.672149" lat="51.135761"><ele>31.2</ele><time>2022-04-17T06:43:47.000Z</time></trkpt><trkpt lon="5.672086" lat="51.13573"><ele>31.2</ele><time>2022-04-17T06:43:48.000Z</time></trkpt><trkpt lon="5.672027" lat="51.135687"><ele>31</ele><time>2022-04-17T06:43:49.000Z</time></trkpt><trkpt lon="5.671964" lat="51.135641"><ele>31</ele><time>2022-04-17T06:43:50.000Z</time></trkpt><trkpt lon="5.671898" lat="51.135595"><ele>31</ele><time>2022-04-17T06:43:51.000Z</time></trkpt><trkpt lon="5.671836" lat="51.135549"><ele>31</ele><time>2022-04-17T06:43:52.000Z</time></trkpt><trkpt lon="5.671772" lat="51.1355"><ele>30.8</ele><time>2022-04-17T06:43:53.000Z</time></trkpt><trkpt lon="5.671704" lat="51.13545"><ele>30.8</ele><time>2022-04-17T06:43:54.000Z</time></trkpt><trkpt lon="5.671637" lat="51.135404"><ele>30.8</ele><time>2022-04-17T06:43:55.000Z</time></trkpt><trkpt lon="5.671567" lat="51.135355"><ele>31</ele><time>2022-04-17T06:43:56.000Z</time></trkpt><trkpt lon="5.671493" lat="51.13531"><ele>31</ele><time>2022-04-17T06:43:57.000Z</time></trkpt><trkpt lon="5.671415" lat="51.135269"><ele>31</ele><time>2022-04-17T06:43:58.000Z</time></trkpt><trkpt lon="5.671333" lat="51.135226"><ele>31.2</ele><time>2022-04-17T06:43:59.000Z</time></trkpt><trkpt lon="5.671249" lat="51.135187"><ele>31.2</ele><time>2022-04-17T06:44:00.000Z</time></trkpt><trkpt lon="5.671165" lat="51.135152"><ele>31.2</ele><time>2022-04-17T06:44:01.000Z</time></trkpt><trkpt lon="5.671073" lat="51.135114"><ele>31.4</ele><time>2022-04-17T06:44:02.000Z</time></trkpt><trkpt lon="5.670977" lat="51.135081"><ele>31.4</ele><time>2022-04-17T06:44:03.000Z</time></trkpt><trkpt lon="5.670882" lat="51.135052"><ele>31.4</ele><time>2022-04-17T06:44:04.000Z</time></trkpt><trkpt lon="5.670785" lat="51.135027"><ele>31.4</ele><time>2022-04-17T06:44:05.000Z</time></trkpt><trkpt lon="5.670679" lat="51.135002"><ele>31.4</ele><time>2022-04-17T06:44:06.000Z</time></trkpt><trkpt lon="5.670576" lat="51.134976"><ele>31.4</ele><time>2022-04-17T06:44:07.000Z</time></trkpt><trkpt lon="5.670473" lat="51.134951"><ele>31.4</ele><time>2022-04-17T06:44:08.000Z</time></trkpt><trkpt lon="5.670371" lat="51.134922"><ele>31.4</ele><time>2022-04-17T06:44:09.000Z</time></trkpt><trkpt lon="5.670271" lat="51.134894"><ele>31.4</ele><time>2022-04-17T06:44:10.000Z</time></trkpt><trkpt lon="5.670172" lat="51.134865"><ele>31.4</ele><time>2022-04-17T06:44:11.000Z</time></trkpt><trkpt lon="5.670073" lat="51.134838"><ele>31.6</ele><time>2022-04-17T06:44:12.000Z</time></trkpt><trkpt lon="5.669972" lat="51.134807"><ele>31.6</ele><time>2022-04-17T06:44:13.000Z</time></trkpt><trkpt lon="5.669874" lat="51.134775"><ele>31.6</ele><time>2022-04-17T06:44:14.000Z</time></trkpt><trkpt lon="5.669776" lat="51.13474"><ele>31.8</ele><time>2022-04-17T06:44:15.000Z</time></trkpt><trkpt lon="5.669682" lat="51.134705"><ele>31.8</ele><time>2022-04-17T06:44:16.000Z</time></trkpt><trkpt lon="5.669589" lat="51.134666"><ele>31.8</ele><time>2022-04-17T06:44:17.000Z</time></trkpt><trkpt lon="5.669502" lat="51.134624"><ele>31.8</ele><time>2022-04-17T06:44:18.000Z</time></trkpt><trkpt lon="5.669418" lat="51.134581"><ele>31.8</ele><time>2022-04-17T06:44:19.000Z</time></trkpt><trkpt lon="5.669336" lat="51.134534"><ele>32</ele><time>2022-04-17T06:44:20.000Z</time></trkpt><trkpt lon="5.669256" lat="51.134483"><ele>32</ele><time>2022-04-17T06:44:21.000Z</time></trkpt><trkpt lon="5.669179" lat="51.134431"><ele>32</ele><time>2022-04-17T06:44:22.000Z</time></trkpt><trkpt lon="5.669103" lat="51.134377"><ele>32</ele><time>2022-04-17T06:44:23.000Z</time></trkpt><trkpt lon="5.66903" lat="51.134323"><ele>32</ele><time>2022-04-17T06:44:24.000Z</time></trkpt><trkpt lon="5.668956" lat="51.13427"><ele>32</ele><time>2022-04-17T06:44:25.000Z</time></trkpt><trkpt lon="5.668883" lat="51.134217"><ele>32</ele><time>2022-04-17T06:44:26.000Z</time></trkpt><trkpt lon="5.668811" lat="51.134164"><ele>32</ele><time>2022-04-17T06:44:27.000Z</time></trkpt><trkpt lon="5.66874" lat="51.13411"><ele>32</ele><time>2022-04-17T06:44:28.000Z</time></trkpt><trkpt lon="5.668667" lat="51.134056"><ele>32</ele><time>2022-04-17T06:44:29.000Z</time></trkpt><trkpt lon="5.668594" lat="51.134002"><ele>32</ele><time>2022-04-17T06:44:30.000Z</time></trkpt><trkpt lon="5.668522" lat="51.133949"><ele>32</ele><time>2022-04-17T06:44:31.000Z</time></trkpt><trkpt lon="5.66845" lat="51.133896"><ele>32.2</ele><time>2022-04-17T06:44:32.000Z</time></trkpt><trkpt lon="5.668378" lat="51.133843"><ele>32.2</ele><time>2022-04-17T06:44:33.000Z</time></trkpt><trkpt lon="5.668305" lat="51.133788"><ele>32.2</ele><time>2022-04-17T06:44:34.000Z</time></trkpt><trkpt lon="5.668233" lat="51.133735"><ele>32.4</ele><time>2022-04-17T06:44:35.000Z</time></trkpt><trkpt lon="5.668163" lat="51.133681"><ele>32.4</ele><time>2022-04-17T06:44:36.000Z</time></trkpt><trkpt lon="5.668096" lat="51.133628"><ele>32.4</ele><time>2022-04-17T06:44:37.000Z</time></trkpt><trkpt lon="5.668029" lat="51.133575"><ele>32.4</ele><time>2022-04-17T06:44:38.000Z</time></trkpt><trkpt lon="5.667961" lat="51.133522"><ele>32.4</ele><time>2022-04-17T06:44:39.000Z</time></trkpt><trkpt lon="5.667893" lat="51.13347"><ele>32.4</ele><time>2022-04-17T06:44:40.000Z</time></trkpt><trkpt lon="5.667822" lat="51.133415"><ele>32.6</ele><time>2022-04-17T06:44:41.000Z</time></trkpt><trkpt lon="5.667753" lat="51.133362"><ele>32.6</ele><time>2022-04-17T06:44:42.000Z</time></trkpt><trkpt lon="5.667684" lat="51.133308"><ele>32.6</ele><time>2022-04-17T06:44:43.000Z</time></trkpt><trkpt lon="5.667613" lat="51.133256"><ele>32.6</ele><time>2022-04-17T06:44:44.000Z</time></trkpt><trkpt lon="5.667539" lat="51.133205"><ele>32.6</ele><time>2022-04-17T06:44:45.000Z</time></trkpt><trkpt lon="5.667468" lat="51.133152"><ele>32.6</ele><time>2022-04-17T06:44:46.000Z</time></trkpt><trkpt lon="5.667397" lat="51.1331"><ele>32.4</ele><time>2022-04-17T06:44:47.000Z</time></trkpt><trkpt lon="5.667328" lat="51.133045"><ele>32.4</ele><time>2022-04-17T06:44:48.000Z</time></trkpt><trkpt lon="5.667264" lat="51.132989"><ele>32.2</ele><time>2022-04-17T06:44:49.000Z</time></trkpt><trkpt lon="5.667201" lat="51.132935"><ele>32.4</ele><time>2022-04-17T06:44:50.000Z</time></trkpt><trkpt lon="5.667141" lat="51.132878"><ele>32.4</ele><time>2022-04-17T06:44:51.000Z</time></trkpt><trkpt lon="5.667082" lat="51.132819"><ele>32.4</ele><time>2022-04-17T06:44:52.000Z</time></trkpt><trkpt lon="5.667026" lat="51.132761"><ele>32.4</ele><time>2022-04-17T06:44:53.000Z</time></trkpt><trkpt lon="5.666968" lat="51.132704"><ele>32.4</ele><time>2022-04-17T06:44:54.000Z</time></trkpt><trkpt lon="5.666912" lat="51.132647"><ele>32.6</ele><time>2022-04-17T06:44:55.000Z</time></trkpt><trkpt lon="5.666855" lat="51.132589"><ele>32.6</ele><time>2022-04-17T06:44:56.000Z</time></trkpt><trkpt lon="5.666798" lat="51.132528"><ele>32.6</ele><time>2022-04-17T06:44:57.000Z</time></trkpt><trkpt lon="5.666742" lat="51.132468"><ele>32.6</ele><time>2022-04-17T06:44:58.000Z</time></trkpt><trkpt lon="5.666685" lat="51.13241"><ele>32.8</ele><time>2022-04-17T06:44:59.000Z</time></trkpt><trkpt lon="5.666629" lat="51.132352"><ele>32.8</ele><time>2022-04-17T06:45:00.000Z</time></trkpt><trkpt lon="5.666574" lat="51.132292"><ele>32.8</ele><time>2022-04-17T06:45:01.000Z</time></trkpt><trkpt lon="5.666517" lat="51.132234"><ele>33</ele><time>2022-04-17T06:45:02.000Z</time></trkpt><trkpt lon="5.666461" lat="51.132175"><ele>33</ele><time>2022-04-17T06:45:03.000Z</time></trkpt><trkpt lon="5.666407" lat="51.132117"><ele>33</ele><time>2022-04-17T06:45:04.000Z</time></trkpt><trkpt lon="5.66635" lat="51.132055"><ele>33</ele><time>2022-04-17T06:45:05.000Z</time></trkpt><trkpt lon="5.666292" lat="51.131997"><ele>33</ele><time>2022-04-17T06:45:06.000Z</time></trkpt><trkpt lon="5.666234" lat="51.131938"><ele>33</ele><time>2022-04-17T06:45:07.000Z</time></trkpt><trkpt lon="5.666178" lat="51.131879"><ele>32.8</ele><time>2022-04-17T06:45:08.000Z</time></trkpt><trkpt lon="5.666121" lat="51.131818"><ele>32.8</ele><time>2022-04-17T06:45:09.000Z</time></trkpt><trkpt lon="5.666063" lat="51.131757"><ele>32.8</ele><time>2022-04-17T06:45:10.000Z</time></trkpt><trkpt lon="5.666007" lat="51.131697"><ele>32.8</ele><time>2022-04-17T06:45:11.000Z</time></trkpt><trkpt lon="5.66595" lat="51.131636"><ele>32.8</ele><time>2022-04-17T06:45:12.000Z</time></trkpt><trkpt lon="5.665893" lat="51.131577"><ele>32.8</ele><time>2022-04-17T06:45:13.000Z</time></trkpt><trkpt lon="5.665835" lat="51.131517"><ele>32.8</ele><time>2022-04-17T06:45:14.000Z</time></trkpt><trkpt lon="5.665778" lat="51.131456"><ele>33</ele><time>2022-04-17T06:45:15.000Z</time></trkpt><trkpt lon="5.665722" lat="51.131395"><ele>33</ele><time>2022-04-17T06:45:16.000Z</time></trkpt><trkpt lon="5.665666" lat="51.131334"><ele>33</ele><time>2022-04-17T06:45:17.000Z</time></trkpt><trkpt lon="5.66561" lat="51.131274"><ele>33.2</ele><time>2022-04-17T06:45:18.000Z</time></trkpt><trkpt lon="5.665556" lat="51.131215"><ele>33.2</ele><time>2022-04-17T06:45:19.000Z</time></trkpt><trkpt lon="5.665502" lat="51.131156"><ele>33</ele><time>2022-04-17T06:45:20.000Z</time></trkpt><trkpt lon="5.665446" lat="51.131098"><ele>33</ele><time>2022-04-17T06:45:21.000Z</time></trkpt><trkpt lon="5.665389" lat="51.131038"><ele>32.8</ele><time>2022-04-17T06:45:22.000Z</time></trkpt><trkpt lon="5.665333" lat="51.13098"><ele>32.6</ele><time>2022-04-17T06:45:23.000Z</time></trkpt><trkpt lon="5.665277" lat="51.130922"><ele>32.6</ele><time>2022-04-17T06:45:24.000Z</time></trkpt><trkpt lon="5.665222" lat="51.130862"><ele>32.6</ele><time>2022-04-17T06:45:25.000Z</time></trkpt><trkpt lon="5.665167" lat="51.130803"><ele>33</ele><time>2022-04-17T06:45:26.000Z</time></trkpt><trkpt lon="5.665113" lat="51.130744"><ele>33.2</ele><time>2022-04-17T06:45:27.000Z</time></trkpt><trkpt lon="5.66506" lat="51.130687"><ele>33</ele><time>2022-04-17T06:45:28.000Z</time></trkpt><trkpt lon="5.665005" lat="51.130629"><ele>33.2</ele><time>2022-04-17T06:45:29.000Z</time></trkpt><trkpt lon="5.664949" lat="51.130571"><ele>33.2</ele><time>2022-04-17T06:45:30.000Z</time></trkpt><trkpt lon="5.664892" lat="51.13051"><ele>33.4</ele><time>2022-04-17T06:45:31.000Z</time></trkpt><trkpt lon="5.664835" lat="51.130451"><ele>33.2</ele><time>2022-04-17T06:45:32.000Z</time></trkpt><trkpt lon="5.664778" lat="51.130392"><ele>33.4</ele><time>2022-04-17T06:45:33.000Z</time></trkpt><trkpt lon="5.664721" lat="51.13033"><ele>33.4</ele><time>2022-04-17T06:45:34.000Z</time></trkpt><trkpt lon="5.664664" lat="51.13027"><ele>33.4</ele><time>2022-04-17T06:45:35.000Z</time></trkpt><trkpt lon="5.664607" lat="51.130213"><ele>33.4</ele><time>2022-04-17T06:45:36.000Z</time></trkpt><trkpt lon="5.664548" lat="51.130152"><ele>33.4</ele><time>2022-04-17T06:45:37.000Z</time></trkpt><trkpt lon="5.664493" lat="51.130094"><ele>33.4</ele><time>2022-04-17T06:45:38.000Z</time></trkpt><trkpt lon="5.664438" lat="51.130035"><ele>33.6</ele><time>2022-04-17T06:45:39.000Z</time></trkpt><trkpt lon="5.664381" lat="51.129976"><ele>33.4</ele><time>2022-04-17T06:45:40.000Z</time></trkpt><trkpt lon="5.664323" lat="51.129916"><ele>33.6</ele><time>2022-04-17T06:45:41.000Z</time></trkpt><trkpt lon="5.664266" lat="51.129858"><ele>33.4</ele><time>2022-04-17T06:45:42.000Z</time></trkpt><trkpt lon="5.664211" lat="51.129797"><ele>33.4</ele><time>2022-04-17T06:45:43.000Z</time></trkpt><trkpt lon="5.664156" lat="51.12974"><ele>33.4</ele><time>2022-04-17T06:45:44.000Z</time></trkpt><trkpt lon="5.664099" lat="51.12968"><ele>33.4</ele><time>2022-04-17T06:45:45.000Z</time></trkpt><trkpt lon="5.664045" lat="51.129622"><ele>33.4</ele><time>2022-04-17T06:45:46.000Z</time></trkpt><trkpt lon="5.663991" lat="51.129565"><ele>33.2</ele><time>2022-04-17T06:45:47.000Z</time></trkpt><trkpt lon="5.663934" lat="51.129507"><ele>33.2</ele><time>2022-04-17T06:45:48.000Z</time></trkpt><trkpt lon="5.663878" lat="51.129447"><ele>33.2</ele><time>2022-04-17T06:45:49.000Z</time></trkpt><trkpt lon="5.663824" lat="51.12939"><ele>33.4</ele><time>2022-04-17T06:45:50.000Z</time></trkpt><trkpt lon="5.663773" lat="51.129334"><ele>33.4</ele><time>2022-04-17T06:45:51.000Z</time></trkpt><trkpt lon="5.663715" lat="51.129274"><ele>33.4</ele><time>2022-04-17T06:45:52.000Z</time></trkpt><trkpt lon="5.663661" lat="51.129214"><ele>33.4</ele><time>2022-04-17T06:45:53.000Z</time></trkpt><trkpt lon="5.663606" lat="51.129157"><ele>33.4</ele><time>2022-04-17T06:45:54.000Z</time></trkpt><trkpt lon="5.663549" lat="51.129101"><ele>33.4</ele><time>2022-04-17T06:45:55.000Z</time></trkpt><trkpt lon="5.663487" lat="51.129047"><ele>33.6</ele><time>2022-04-17T06:45:56.000Z</time></trkpt><trkpt lon="5.663419" lat="51.128996"><ele>33.6</ele><time>2022-04-17T06:45:57.000Z</time></trkpt><trkpt lon="5.663341" lat="51.128952"><ele>33.6</ele><time>2022-04-17T06:45:58.000Z</time></trkpt><trkpt lon="5.663256" lat="51.12891"><ele>33.6</ele><time>2022-04-17T06:45:59.000Z</time></trkpt><trkpt lon="5.663169" lat="51.128876"><ele>33.8</ele><time>2022-04-17T06:46:00.000Z</time></trkpt><trkpt lon="5.663076" lat="51.12885"><ele>33.8</ele><time>2022-04-17T06:46:01.000Z</time></trkpt><trkpt lon="5.662978" lat="51.128829"><ele>33.8</ele><time>2022-04-17T06:46:02.000Z</time></trkpt><trkpt lon="5.662877" lat="51.128812"><ele>33.8</ele><time>2022-04-17T06:46:03.000Z</time></trkpt><trkpt lon="5.662775" lat="51.128799"><ele>33.6</ele><time>2022-04-17T06:46:04.000Z</time></trkpt><trkpt lon="5.662662" lat="51.128779"><ele>33.6</ele><time>2022-04-17T06:46:05.000Z</time></trkpt><trkpt lon="5.662556" lat="51.128761"><ele>33.8</ele><time>2022-04-17T06:46:06.000Z</time></trkpt><trkpt lon="5.662448" lat="51.128746"><ele>33.8</ele><time>2022-04-17T06:46:07.000Z</time></trkpt><trkpt lon="5.66234" lat="51.12873"><ele>33.8</ele><time>2022-04-17T06:46:08.000Z</time></trkpt><trkpt lon="5.662232" lat="51.128714"><ele>33.8</ele><time>2022-04-17T06:46:09.000Z</time></trkpt><trkpt lon="5.662124" lat="51.128696"><ele>33.8</ele><time>2022-04-17T06:46:10.000Z</time></trkpt><trkpt lon="5.662017" lat="51.128681"><ele>33.8</ele><time>2022-04-17T06:46:11.000Z</time></trkpt><trkpt lon="5.661907" lat="51.128664"><ele>33.8</ele><time>2022-04-17T06:46:12.000Z</time></trkpt><trkpt lon="5.661796" lat="51.128646"><ele>34</ele><time>2022-04-17T06:46:13.000Z</time></trkpt><trkpt lon="5.661689" lat="51.12863"><ele>34</ele><time>2022-04-17T06:46:14.000Z</time></trkpt><trkpt lon="5.661583" lat="51.128612"><ele>34</ele><time>2022-04-17T06:46:15.000Z</time></trkpt><trkpt lon="5.661474" lat="51.128595"><ele>33.8</ele><time>2022-04-17T06:46:16.000Z</time></trkpt><trkpt lon="5.661367" lat="51.128578"><ele>34</ele><time>2022-04-17T06:46:17.000Z</time></trkpt><trkpt lon="5.661256" lat="51.128562"><ele>34</ele><time>2022-04-17T06:46:18.000Z</time></trkpt><trkpt lon="5.661147" lat="51.128546"><ele>34</ele><time>2022-04-17T06:46:19.000Z</time></trkpt><trkpt lon="5.661038" lat="51.128527"><ele>34</ele><time>2022-04-17T06:46:20.000Z</time></trkpt><trkpt lon="5.660926" lat="51.128508"><ele>34</ele><time>2022-04-17T06:46:21.000Z</time></trkpt><trkpt lon="5.660817" lat="51.128489"><ele>34.2</ele><time>2022-04-17T06:46:22.000Z</time></trkpt><trkpt lon="5.660708" lat="51.128467"><ele>34.2</ele><time>2022-04-17T06:46:23.000Z</time></trkpt><trkpt lon="5.660603" lat="51.128441"><ele>34</ele><time>2022-04-17T06:46:24.000Z</time></trkpt><trkpt lon="5.660501" lat="51.128414"><ele>34.2</ele><time>2022-04-17T06:46:25.000Z</time></trkpt><trkpt lon="5.6604" lat="51.128388"><ele>34.2</ele><time>2022-04-17T06:46:26.000Z</time></trkpt><trkpt lon="5.660298" lat="51.12836"><ele>34.2</ele><time>2022-04-17T06:46:27.000Z</time></trkpt><trkpt lon="5.660195" lat="51.128329"><ele>34</ele><time>2022-04-17T06:46:28.000Z</time></trkpt><trkpt lon="5.660094" lat="51.128298"><ele>34</ele><time>2022-04-17T06:46:29.000Z</time></trkpt><trkpt lon="5.659993" lat="51.128263"><ele>34</ele><time>2022-04-17T06:46:30.000Z</time></trkpt><trkpt lon="5.659891" lat="51.128228"><ele>34</ele><time>2022-04-17T06:46:31.000Z</time></trkpt><trkpt lon="5.659793" lat="51.128191"><ele>34.2</ele><time>2022-04-17T06:46:32.000Z</time></trkpt><trkpt lon="5.659689" lat="51.128151"><ele>34.2</ele><time>2022-04-17T06:46:33.000Z</time></trkpt><trkpt lon="5.659593" lat="51.128112"><ele>34.2</ele><time>2022-04-17T06:46:34.000Z</time></trkpt><trkpt lon="5.6595" lat="51.12807"><ele>34.2</ele><time>2022-04-17T06:46:35.000Z</time></trkpt><trkpt lon="5.659408" lat="51.128029"><ele>34</ele><time>2022-04-17T06:46:36.000Z</time></trkpt><trkpt lon="5.659316" lat="51.127986"><ele>34</ele><time>2022-04-17T06:46:37.000Z</time></trkpt><trkpt lon="5.659228" lat="51.127945"><ele>34</ele><time>2022-04-17T06:46:38.000Z</time></trkpt><trkpt lon="5.659138" lat="51.127903"><ele>34</ele><time>2022-04-17T06:46:39.000Z</time></trkpt><trkpt lon="5.659048" lat="51.127861"><ele>33.8</ele><time>2022-04-17T06:46:40.000Z</time></trkpt><trkpt lon="5.658958" lat="51.127819"><ele>33.8</ele><time>2022-04-17T06:46:41.000Z</time></trkpt><trkpt lon="5.65887" lat="51.127782"><ele>34</ele><time>2022-04-17T06:46:42.000Z</time></trkpt><trkpt lon="5.658784" lat="51.127744"><ele>34</ele><time>2022-04-17T06:46:43.000Z</time></trkpt><trkpt lon="5.658697" lat="51.127705"><ele>34.2</ele><time>2022-04-17T06:46:44.000Z</time></trkpt><trkpt lon="5.658615" lat="51.127665"><ele>34.2</ele><time>2022-04-17T06:46:45.000Z</time></trkpt><trkpt lon="5.658536" lat="51.127626"><ele>34.2</ele><time>2022-04-17T06:46:46.000Z</time></trkpt><trkpt lon="5.658462" lat="51.127592"><ele>34.2</ele><time>2022-04-17T06:46:47.000Z</time></trkpt><trkpt lon="5.658386" lat="51.127562"><ele>34.4</ele><time>2022-04-17T06:46:48.000Z</time></trkpt><trkpt lon="5.658304" lat="51.127548"><ele>34.4</ele><time>2022-04-17T06:46:49.000Z</time></trkpt><trkpt lon="5.658223" lat="51.127556"><ele>34.6</ele><time>2022-04-17T06:46:50.000Z</time></trkpt><trkpt lon="5.658148" lat="51.127584"><ele>34.6</ele><time>2022-04-17T06:46:51.000Z</time></trkpt><trkpt lon="5.658071" lat="51.127621"><ele>34.8</ele><time>2022-04-17T06:46:52.000Z</time></trkpt><trkpt lon="5.657991" lat="51.127662"><ele>34.8</ele><time>2022-04-17T06:46:53.000Z</time></trkpt><trkpt lon="5.657905" lat="51.1277"><ele>34.6</ele><time>2022-04-17T06:46:54.000Z</time></trkpt><trkpt lon="5.657815" lat="51.127739"><ele>34.6</ele><time>2022-04-17T06:46:55.000Z</time></trkpt><trkpt lon="5.657725" lat="51.127777"><ele>34.8</ele><time>2022-04-17T06:46:56.000Z</time></trkpt><trkpt lon="5.657632" lat="51.127816"><ele>34.8</ele><time>2022-04-17T06:46:57.000Z</time></trkpt><trkpt lon="5.657542" lat="51.127857"><ele>34.8</ele><time>2022-04-17T06:46:58.000Z</time></trkpt><trkpt lon="5.657453" lat="51.127895"><ele>34.8</ele><time>2022-04-17T06:46:59.000Z</time></trkpt><trkpt lon="5.657364" lat="51.127935"><ele>34.8</ele><time>2022-04-17T06:47:00.000Z</time></trkpt><trkpt lon="5.657281" lat="51.127981"><ele>34.8</ele><time>2022-04-17T06:47:01.000Z</time></trkpt><trkpt lon="5.657208" lat="51.128029"><ele>34.8</ele><time>2022-04-17T06:47:02.000Z</time></trkpt><trkpt lon="5.657143" lat="51.128081"><ele>34.8</ele><time>2022-04-17T06:47:03.000Z</time></trkpt><trkpt lon="5.657079" lat="51.128136"><ele>34.8</ele><time>2022-04-17T06:47:04.000Z</time></trkpt><trkpt lon="5.657017" lat="51.128191"><ele>35</ele><time>2022-04-17T06:47:05.000Z</time></trkpt><trkpt lon="5.656955" lat="51.128248"><ele>35.2</ele><time>2022-04-17T06:47:06.000Z</time></trkpt><trkpt lon="5.656894" lat="51.128304"><ele>35.4</ele><time>2022-04-17T06:47:07.000Z</time></trkpt><trkpt lon="5.656832" lat="51.12836"><ele>35.4</ele><time>2022-04-17T06:47:08.000Z</time></trkpt><trkpt lon="5.65677" lat="51.12842"><ele>35.6</ele><time>2022-04-17T06:47:09.000Z</time></trkpt><trkpt lon="5.656709" lat="51.128475"><ele>35.6</ele><time>2022-04-17T06:47:10.000Z</time></trkpt><trkpt lon="5.656647" lat="51.128529"><ele>35.8</ele><time>2022-04-17T06:47:11.000Z</time></trkpt><trkpt lon="5.656582" lat="51.128588"><ele>35.8</ele><time>2022-04-17T06:47:12.000Z</time></trkpt><trkpt lon="5.656519" lat="51.128647"><ele>36</ele><time>2022-04-17T06:47:13.000Z</time></trkpt><trkpt lon="5.656455" lat="51.128701"><ele>36</ele><time>2022-04-17T06:47:14.000Z</time></trkpt><trkpt lon="5.656392" lat="51.128759"><ele>36</ele><time>2022-04-17T06:47:15.000Z</time></trkpt><trkpt lon="5.656329" lat="51.128816"><ele>36</ele><time>2022-04-17T06:47:16.000Z</time></trkpt><trkpt lon="5.656267" lat="51.128874"><ele>36</ele><time>2022-04-17T06:47:17.000Z</time></trkpt><trkpt lon="5.656206" lat="51.12893"><ele>36.2</ele><time>2022-04-17T06:47:18.000Z</time></trkpt><trkpt lon="5.656145" lat="51.128984"><ele>36.2</ele><time>2022-04-17T06:47:19.000Z</time></trkpt><trkpt lon="5.656084" lat="51.129041"><ele>36.2</ele><time>2022-04-17T06:47:20.000Z</time></trkpt><trkpt lon="5.656022" lat="51.129098"><ele>36.2</ele><time>2022-04-17T06:47:21.000Z</time></trkpt><trkpt lon="5.65596" lat="51.129156"><ele>36.4</ele><time>2022-04-17T06:47:22.000Z</time></trkpt><trkpt lon="5.655898" lat="51.129214"><ele>36.4</ele><time>2022-04-17T06:47:23.000Z</time></trkpt><trkpt lon="5.655834" lat="51.129273"><ele>36.4</ele><time>2022-04-17T06:47:24.000Z</time></trkpt><trkpt lon="5.655772" lat="51.129328"><ele>36.4</ele><time>2022-04-17T06:47:25.000Z</time></trkpt><trkpt lon="5.655712" lat="51.129387"><ele>36.4</ele><time>2022-04-17T06:47:26.000Z</time></trkpt><trkpt lon="5.65565" lat="51.129445"><ele>36.2</ele><time>2022-04-17T06:47:27.000Z</time></trkpt><trkpt lon="5.655588" lat="51.129501"><ele>36.2</ele><time>2022-04-17T06:47:28.000Z</time></trkpt><trkpt lon="5.655526" lat="51.129559"><ele>36.2</ele><time>2022-04-17T06:47:29.000Z</time></trkpt><trkpt lon="5.655463" lat="51.129621"><ele>36.2</ele><time>2022-04-17T06:47:30.000Z</time></trkpt><trkpt lon="5.655403" lat="51.129678"><ele>36.2</ele><time>2022-04-17T06:47:31.000Z</time></trkpt><trkpt lon="5.655341" lat="51.129739"><ele>36.2</ele><time>2022-04-17T06:47:32.000Z</time></trkpt><trkpt lon="5.655278" lat="51.129796"><ele>36.2</ele><time>2022-04-17T06:47:33.000Z</time></trkpt><trkpt lon="5.655216" lat="51.129854"><ele>36.2</ele><time>2022-04-17T06:47:34.000Z</time></trkpt><trkpt lon="5.655153" lat="51.129915"><ele>36.2</ele><time>2022-04-17T06:47:35.000Z</time></trkpt><trkpt lon="5.65509" lat="51.129972"><ele>36.4</ele><time>2022-04-17T06:47:36.000Z</time></trkpt><trkpt lon="5.655027" lat="51.130029"><ele>36.4</ele><time>2022-04-17T06:47:37.000Z</time></trkpt><trkpt lon="5.654966" lat="51.130086"><ele>36.4</ele><time>2022-04-17T06:47:38.000Z</time></trkpt><trkpt lon="5.654905" lat="51.130143"><ele>36.4</ele><time>2022-04-17T06:47:39.000Z</time></trkpt><trkpt lon="5.654844" lat="51.130205"><ele>36.4</ele><time>2022-04-17T06:47:40.000Z</time></trkpt><trkpt lon="5.654784" lat="51.130262"><ele>36.4</ele><time>2022-04-17T06:47:41.000Z</time></trkpt><trkpt lon="5.654723" lat="51.130319"><ele>36.4</ele><time>2022-04-17T06:47:42.000Z</time></trkpt><trkpt lon="5.65466" lat="51.130375"><ele>36.4</ele><time>2022-04-17T06:47:43.000Z</time></trkpt><trkpt lon="5.654598" lat="51.130429"><ele>36.4</ele><time>2022-04-17T06:47:44.000Z</time></trkpt><trkpt lon="5.654536" lat="51.130483"><ele>36.4</ele><time>2022-04-17T06:47:45.000Z</time></trkpt><trkpt lon="5.654475" lat="51.130539"><ele>36.4</ele><time>2022-04-17T06:47:46.000Z</time></trkpt><trkpt lon="5.65441" lat="51.130597"><ele>36.4</ele><time>2022-04-17T06:47:47.000Z</time></trkpt><trkpt lon="5.654347" lat="51.130654"><ele>36.4</ele><time>2022-04-17T06:47:48.000Z</time></trkpt><trkpt lon="5.654282" lat="51.130713"><ele>36.4</ele><time>2022-04-17T06:47:49.000Z</time></trkpt><trkpt lon="5.654219" lat="51.130772"><ele>36.4</ele><time>2022-04-17T06:47:50.000Z</time></trkpt><trkpt lon="5.654156" lat="51.13083"><ele>36.4</ele><time>2022-04-17T06:47:51.000Z</time></trkpt><trkpt lon="5.654092" lat="51.130888"><ele>36.4</ele><time>2022-04-17T06:47:52.000Z</time></trkpt><trkpt lon="5.654029" lat="51.130948"><ele>36.4</ele><time>2022-04-17T06:47:53.000Z</time></trkpt><trkpt lon="5.653964" lat="51.131006"><ele>36.4</ele><time>2022-04-17T06:47:54.000Z</time></trkpt><trkpt lon="5.653899" lat="51.131063"><ele>36.2</ele><time>2022-04-17T06:47:55.000Z</time></trkpt><trkpt lon="5.653835" lat="51.13112"><ele>36.2</ele><time>2022-04-17T06:47:56.000Z</time></trkpt><trkpt lon="5.653772" lat="51.131178"><ele>36</ele><time>2022-04-17T06:47:57.000Z</time></trkpt><trkpt lon="5.653709" lat="51.131237"><ele>36</ele><time>2022-04-17T06:47:58.000Z</time></trkpt><trkpt lon="5.653645" lat="51.131295"><ele>35.8</ele><time>2022-04-17T06:47:59.000Z</time></trkpt><trkpt lon="5.653578" lat="51.131354"><ele>35.8</ele><time>2022-04-17T06:48:00.000Z</time></trkpt><trkpt lon="5.653513" lat="51.131415"><ele>35.8</ele><time>2022-04-17T06:48:01.000Z</time></trkpt><trkpt lon="5.653448" lat="51.131474"><ele>35.6</ele><time>2022-04-17T06:48:02.000Z</time></trkpt><trkpt lon="5.653384" lat="51.131533"><ele>35.6</ele><time>2022-04-17T06:48:03.000Z</time></trkpt><trkpt lon="5.653321" lat="51.131594"><ele>35.6</ele><time>2022-04-17T06:48:04.000Z</time></trkpt><trkpt lon="5.653256" lat="51.131656"><ele>35.6</ele><time>2022-04-17T06:48:05.000Z</time></trkpt><trkpt lon="5.653193" lat="51.131716"><ele>35.6</ele><time>2022-04-17T06:48:06.000Z</time></trkpt><trkpt lon="5.65313" lat="51.131776"><ele>35.8</ele><time>2022-04-17T06:48:07.000Z</time></trkpt><trkpt lon="5.653066" lat="51.131834"><ele>35.8</ele><time>2022-04-17T06:48:08.000Z</time></trkpt><trkpt lon="5.653004" lat="51.131895"><ele>36</ele><time>2022-04-17T06:48:09.000Z</time></trkpt><trkpt lon="5.652941" lat="51.131955"><ele>36</ele><time>2022-04-17T06:48:10.000Z</time></trkpt><trkpt lon="5.652877" lat="51.132014"><ele>36</ele><time>2022-04-17T06:48:11.000Z</time></trkpt><trkpt lon="5.652814" lat="51.132074"><ele>36</ele><time>2022-04-17T06:48:12.000Z</time></trkpt><trkpt lon="5.652751" lat="51.132134"><ele>36</ele><time>2022-04-17T06:48:13.000Z</time></trkpt><trkpt lon="5.652687" lat="51.132192"><ele>36</ele><time>2022-04-17T06:48:14.000Z</time></trkpt><trkpt lon="5.652623" lat="51.132249"><ele>36</ele><time>2022-04-17T06:48:15.000Z</time></trkpt><trkpt lon="5.652561" lat="51.132307"><ele>36</ele><time>2022-04-17T06:48:16.000Z</time></trkpt><trkpt lon="5.652499" lat="51.132368"><ele>36</ele><time>2022-04-17T06:48:17.000Z</time></trkpt><trkpt lon="5.652437" lat="51.132425"><ele>36</ele><time>2022-04-17T06:48:18.000Z</time></trkpt><trkpt lon="5.652377" lat="51.132486"><ele>36</ele><time>2022-04-17T06:48:19.000Z</time></trkpt><trkpt lon="5.652316" lat="51.132547"><ele>35.8</ele><time>2022-04-17T06:48:20.000Z</time></trkpt><trkpt lon="5.65225" lat="51.132612"><ele>35.8</ele><time>2022-04-17T06:48:21.000Z</time></trkpt><trkpt lon="5.652185" lat="51.132674"><ele>35.8</ele><time>2022-04-17T06:48:22.000Z</time></trkpt><trkpt lon="5.652119" lat="51.132734"><ele>35.8</ele><time>2022-04-17T06:48:23.000Z</time></trkpt><trkpt lon="5.652051" lat="51.132796"><ele>35.8</ele><time>2022-04-17T06:48:24.000Z</time></trkpt><trkpt lon="5.651983" lat="51.132857"><ele>35.8</ele><time>2022-04-17T06:48:25.000Z</time></trkpt><trkpt lon="5.651917" lat="51.132919"><ele>35.6</ele><time>2022-04-17T06:48:26.000Z</time></trkpt><trkpt lon="5.651853" lat="51.13298"><ele>35.4</ele><time>2022-04-17T06:48:27.000Z</time></trkpt><trkpt lon="5.651787" lat="51.133039"><ele>35.2</ele><time>2022-04-17T06:48:28.000Z</time></trkpt><trkpt lon="5.651723" lat="51.1331"><ele>35</ele><time>2022-04-17T06:48:29.000Z</time></trkpt><trkpt lon="5.651657" lat="51.133158"><ele>34.8</ele><time>2022-04-17T06:48:30.000Z</time></trkpt><trkpt lon="5.651593" lat="51.133218"><ele>34.8</ele><time>2022-04-17T06:48:31.000Z</time></trkpt><trkpt lon="5.651525" lat="51.133279"><ele>35</ele><time>2022-04-17T06:48:32.000Z</time></trkpt><trkpt lon="5.651457" lat="51.133337"><ele>35</ele><time>2022-04-17T06:48:33.000Z</time></trkpt><trkpt lon="5.651391" lat="51.133395"><ele>35.2</ele><time>2022-04-17T06:48:34.000Z</time></trkpt><trkpt lon="5.651327" lat="51.133456"><ele>35.2</ele><time>2022-04-17T06:48:35.000Z</time></trkpt><trkpt lon="5.651263" lat="51.133516"><ele>35.2</ele><time>2022-04-17T06:48:36.000Z</time></trkpt><trkpt lon="5.651198" lat="51.133577"><ele>35.4</ele><time>2022-04-17T06:48:37.000Z</time></trkpt><trkpt lon="5.651132" lat="51.133635"><ele>35.4</ele><time>2022-04-17T06:48:38.000Z</time></trkpt><trkpt lon="5.651067" lat="51.133696"><ele>35.4</ele><time>2022-04-17T06:48:39.000Z</time></trkpt><trkpt lon="5.650998" lat="51.133761"><ele>35.4</ele><time>2022-04-17T06:48:40.000Z</time></trkpt><trkpt lon="5.650931" lat="51.133822"><ele>35.4</ele><time>2022-04-17T06:48:41.000Z</time></trkpt><trkpt lon="5.650866" lat="51.133884"><ele>35.2</ele><time>2022-04-17T06:48:42.000Z</time></trkpt><trkpt lon="5.6508" lat="51.133948"><ele>35.2</ele><time>2022-04-17T06:48:43.000Z</time></trkpt><trkpt lon="5.650736" lat="51.134008"><ele>35.2</ele><time>2022-04-17T06:48:44.000Z</time></trkpt><trkpt lon="5.650673" lat="51.13407"><ele>35</ele><time>2022-04-17T06:48:45.000Z</time></trkpt><trkpt lon="5.650609" lat="51.134134"><ele>35</ele><time>2022-04-17T06:48:46.000Z</time></trkpt><trkpt lon="5.650546" lat="51.134198"><ele>34.8</ele><time>2022-04-17T06:48:47.000Z</time></trkpt><trkpt lon="5.650487" lat="51.134265"><ele>34.8</ele><time>2022-04-17T06:48:48.000Z</time></trkpt><trkpt lon="5.650429" lat="51.13433"><ele>34.6</ele><time>2022-04-17T06:48:49.000Z</time></trkpt><trkpt lon="5.650371" lat="51.134396"><ele>34.6</ele><time>2022-04-17T06:48:50.000Z</time></trkpt><trkpt lon="5.650315" lat="51.134463"><ele>34.4</ele><time>2022-04-17T06:48:51.000Z</time></trkpt><trkpt lon="5.65026" lat="51.13453"><ele>34.2</ele><time>2022-04-17T06:48:52.000Z</time></trkpt><trkpt lon="5.650205" lat="51.1346"><ele>34.2</ele><time>2022-04-17T06:48:53.000Z</time></trkpt><trkpt lon="5.650147" lat="51.134671"><ele>34</ele><time>2022-04-17T06:48:54.000Z</time></trkpt><trkpt lon="5.650095" lat="51.134739"><ele>34</ele><time>2022-04-17T06:48:55.000Z</time></trkpt><trkpt lon="5.650043" lat="51.134808"><ele>33.8</ele><time>2022-04-17T06:48:56.000Z</time></trkpt><trkpt lon="5.649991" lat="51.134881"><ele>33.8</ele><time>2022-04-17T06:48:57.000Z</time></trkpt><trkpt lon="5.64994" lat="51.134949"><ele>33.6</ele><time>2022-04-17T06:48:58.000Z</time></trkpt><trkpt lon="5.649889" lat="51.135017"><ele>33.6</ele><time>2022-04-17T06:48:59.000Z</time></trkpt><trkpt lon="5.649838" lat="51.135087"><ele>33.6</ele><time>2022-04-17T06:49:00.000Z</time></trkpt><trkpt lon="5.649787" lat="51.135156"><ele>33.6</ele><time>2022-04-17T06:49:01.000Z</time></trkpt><trkpt lon="5.649736" lat="51.135224"><ele>33.6</ele><time>2022-04-17T06:49:02.000Z</time></trkpt><trkpt lon="5.649685" lat="51.135293"><ele>33.4</ele><time>2022-04-17T06:49:03.000Z</time></trkpt><trkpt lon="5.649633" lat="51.135361"><ele>33.2</ele><time>2022-04-17T06:49:04.000Z</time></trkpt><trkpt lon="5.64958" lat="51.13543"><ele>33.2</ele><time>2022-04-17T06:49:05.000Z</time></trkpt><trkpt lon="5.649529" lat="51.135497"><ele>33.2</ele><time>2022-04-17T06:49:06.000Z</time></trkpt><trkpt lon="5.649478" lat="51.135562"><ele>33.2</ele><time>2022-04-17T06:49:07.000Z</time></trkpt><trkpt lon="5.649428" lat="51.135628"><ele>33</ele><time>2022-04-17T06:49:08.000Z</time></trkpt><trkpt lon="5.649377" lat="51.135697"><ele>33</ele><time>2022-04-17T06:49:09.000Z</time></trkpt><trkpt lon="5.649328" lat="51.135767"><ele>32.8</ele><time>2022-04-17T06:49:10.000Z</time></trkpt><trkpt lon="5.649284" lat="51.135838"><ele>32.8</ele><time>2022-04-17T06:49:11.000Z</time></trkpt><trkpt lon="5.649248" lat="51.135907"><ele>32.8</ele><time>2022-04-17T06:49:12.000Z</time></trkpt><trkpt lon="5.649225" lat="51.135976"><ele>32.8</ele><time>2022-04-17T06:49:13.000Z</time></trkpt><trkpt lon="5.649209" lat="51.136049"><ele>32.6</ele><time>2022-04-17T06:49:14.000Z</time></trkpt><trkpt lon="5.649194" lat="51.136127"><ele>32.6</ele><time>2022-04-17T06:49:15.000Z</time></trkpt><trkpt lon="5.649174" lat="51.136202"><ele>32.4</ele><time>2022-04-17T06:49:16.000Z</time></trkpt><trkpt lon="5.649148" lat="51.136274"><ele>32.4</ele><time>2022-04-17T06:49:17.000Z</time></trkpt><trkpt lon="5.649117" lat="51.136346"><ele>32.4</ele><time>2022-04-17T06:49:18.000Z</time></trkpt><trkpt lon="5.649077" lat="51.136423"><ele>32.6</ele><time>2022-04-17T06:49:19.000Z</time></trkpt><trkpt lon="5.649036" lat="51.136495"><ele>32.4</ele><time>2022-04-17T06:49:20.000Z</time></trkpt><trkpt lon="5.648992" lat="51.136568"><ele>32.6</ele><time>2022-04-17T06:49:21.000Z</time></trkpt><trkpt lon="5.648943" lat="51.136642"><ele>32.8</ele><time>2022-04-17T06:49:22.000Z</time></trkpt><trkpt lon="5.648888" lat="51.136706"><ele>32.8</ele><time>2022-04-17T06:49:23.000Z</time></trkpt><trkpt lon="5.648826" lat="51.136771"><ele>32.8</ele><time>2022-04-17T06:49:24.000Z</time></trkpt><trkpt lon="5.648761" lat="51.136832"><ele>32.8</ele><time>2022-04-17T06:49:25.000Z</time></trkpt><trkpt lon="5.648693" lat="51.136893"><ele>33</ele><time>2022-04-17T06:49:26.000Z</time></trkpt><trkpt lon="5.648625" lat="51.136954"><ele>33.2</ele><time>2022-04-17T06:49:27.000Z</time></trkpt><trkpt lon="5.64856" lat="51.137015"><ele>33.4</ele><time>2022-04-17T06:49:28.000Z</time></trkpt><trkpt lon="5.648496" lat="51.137076"><ele>33.4</ele><time>2022-04-17T06:49:29.000Z</time></trkpt><trkpt lon="5.648431" lat="51.13714"><ele>33.4</ele><time>2022-04-17T06:49:30.000Z</time></trkpt><trkpt lon="5.648367" lat="51.137202"><ele>33.4</ele><time>2022-04-17T06:49:31.000Z</time></trkpt><trkpt lon="5.648301" lat="51.137262"><ele>33.4</ele><time>2022-04-17T06:49:32.000Z</time></trkpt><trkpt lon="5.648236" lat="51.137319"><ele>33.6</ele><time>2022-04-17T06:49:33.000Z</time></trkpt><trkpt lon="5.648172" lat="51.137379"><ele>33.6</ele><time>2022-04-17T06:49:34.000Z</time></trkpt><trkpt lon="5.648104" lat="51.137441"><ele>33.6</ele><time>2022-04-17T06:49:35.000Z</time></trkpt><trkpt lon="5.648039" lat="51.1375"><ele>33.4</ele><time>2022-04-17T06:49:36.000Z</time></trkpt><trkpt lon="5.647975" lat="51.13756"><ele>33.4</ele><time>2022-04-17T06:49:37.000Z</time></trkpt><trkpt lon="5.647911" lat="51.137616"><ele>33.6</ele><time>2022-04-17T06:49:38.000Z</time></trkpt><trkpt lon="5.647846" lat="51.137672"><ele>33.6</ele><time>2022-04-17T06:49:39.000Z</time></trkpt><trkpt lon="5.647777" lat="51.13773"><ele>33.8</ele><time>2022-04-17T06:49:40.000Z</time></trkpt><trkpt lon="5.647704" lat="51.137788"><ele>33.8</ele><time>2022-04-17T06:49:41.000Z</time></trkpt><trkpt lon="5.647629" lat="51.137845"><ele>33.8</ele><time>2022-04-17T06:49:42.000Z</time></trkpt><trkpt lon="5.647554" lat="51.137901"><ele>33.8</ele><time>2022-04-17T06:49:43.000Z</time></trkpt><trkpt lon="5.647477" lat="51.137956"><ele>33.8</ele><time>2022-04-17T06:49:44.000Z</time></trkpt><trkpt lon="5.647397" lat="51.138012"><ele>33.8</ele><time>2022-04-17T06:49:45.000Z</time></trkpt><trkpt lon="5.647314" lat="51.138066"><ele>33.8</ele><time>2022-04-17T06:49:46.000Z</time></trkpt><trkpt lon="5.64723" lat="51.138118"><ele>33.8</ele><time>2022-04-17T06:49:47.000Z</time></trkpt><trkpt lon="5.647145" lat="51.138165"><ele>33.8</ele><time>2022-04-17T06:49:48.000Z</time></trkpt><trkpt lon="5.647063" lat="51.138209"><ele>33.8</ele><time>2022-04-17T06:49:49.000Z</time></trkpt><trkpt lon="5.646966" lat="51.138262"><ele>33.8</ele><time>2022-04-17T06:49:50.000Z</time></trkpt><trkpt lon="5.646874" lat="51.138307"><ele>33.8</ele><time>2022-04-17T06:49:51.000Z</time></trkpt><trkpt lon="5.64678" lat="51.138351"><ele>33.8</ele><time>2022-04-17T06:49:52.000Z</time></trkpt><trkpt lon="5.646686" lat="51.138393"><ele>33.8</ele><time>2022-04-17T06:49:53.000Z</time></trkpt><trkpt lon="5.646585" lat="51.138435"><ele>33.8</ele><time>2022-04-17T06:49:54.000Z</time></trkpt><trkpt lon="5.646482" lat="51.138472"><ele>34</ele><time>2022-04-17T06:49:55.000Z</time></trkpt><trkpt lon="5.646381" lat="51.138505"><ele>34</ele><time>2022-04-17T06:49:56.000Z</time></trkpt><trkpt lon="5.64628" lat="51.138537"><ele>34</ele><time>2022-04-17T06:49:57.000Z</time></trkpt><trkpt lon="5.646179" lat="51.138569"><ele>34</ele><time>2022-04-17T06:49:58.000Z</time></trkpt><trkpt lon="5.646076" lat="51.138593"><ele>34</ele><time>2022-04-17T06:49:59.000Z</time></trkpt><trkpt lon="5.64597" lat="51.138609"><ele>34</ele><time>2022-04-17T06:50:00.000Z</time></trkpt><trkpt lon="5.645867" lat="51.138616"><ele>34</ele><time>2022-04-17T06:50:01.000Z</time></trkpt><trkpt lon="5.645761" lat="51.138618"><ele>34.2</ele><time>2022-04-17T06:50:02.000Z</time></trkpt><trkpt lon="5.645653" lat="51.138618"><ele>34.2</ele><time>2022-04-17T06:50:03.000Z</time></trkpt><trkpt lon="5.645545" lat="51.138618"><ele>34.2</ele><time>2022-04-17T06:50:04.000Z</time></trkpt><trkpt lon="5.645436" lat="51.138622"><ele>34.2</ele><time>2022-04-17T06:50:05.000Z</time></trkpt><trkpt lon="5.645326" lat="51.138633"><ele>34.4</ele><time>2022-04-17T06:50:06.000Z</time></trkpt><trkpt lon="5.645218" lat="51.138646"><ele>34.4</ele><time>2022-04-17T06:50:07.000Z</time></trkpt><trkpt lon="5.645119" lat="51.138662"><ele>34.4</ele><time>2022-04-17T06:50:08.000Z</time></trkpt><trkpt lon="5.645036" lat="51.138683"><ele>34.4</ele><time>2022-04-17T06:50:09.000Z</time></trkpt><trkpt lon="5.64496" lat="51.138719"><ele>34.4</ele><time>2022-04-17T06:50:10.000Z</time></trkpt><trkpt lon="5.644896" lat="51.138768"><ele>34.4</ele><time>2022-04-17T06:50:11.000Z</time></trkpt><trkpt lon="5.644838" lat="51.138828"><ele>34.4</ele><time>2022-04-17T06:50:12.000Z</time></trkpt><trkpt lon="5.644783" lat="51.138892"><ele>34.4</ele><time>2022-04-17T06:50:13.000Z</time></trkpt><trkpt lon="5.644732" lat="51.138955"><ele>34.2</ele><time>2022-04-17T06:50:14.000Z</time></trkpt><trkpt lon="5.644681" lat="51.139022"><ele>34.2</ele><time>2022-04-17T06:50:15.000Z</time></trkpt><trkpt lon="5.644633" lat="51.13909"><ele>34.2</ele><time>2022-04-17T06:50:16.000Z</time></trkpt><trkpt lon="5.644585" lat="51.139155"><ele>34.2</ele><time>2022-04-17T06:50:17.000Z</time></trkpt><trkpt lon="5.644539" lat="51.139217"><ele>34.2</ele><time>2022-04-17T06:50:18.000Z</time></trkpt><trkpt lon="5.644494" lat="51.139281"><ele>34.2</ele><time>2022-04-17T06:50:19.000Z</time></trkpt><trkpt lon="5.644446" lat="51.139345"><ele>34.2</ele><time>2022-04-17T06:50:20.000Z</time></trkpt><trkpt lon="5.644397" lat="51.139406"><ele>34.2</ele><time>2022-04-17T06:50:21.000Z</time></trkpt><trkpt lon="5.64435" lat="51.139462"><ele>34.2</ele><time>2022-04-17T06:50:22.000Z</time></trkpt><trkpt lon="5.644305" lat="51.139512"><ele>34.2</ele><time>2022-04-17T06:50:23.000Z</time></trkpt><trkpt lon="5.644254" lat="51.139554"><ele>34.2</ele><time>2022-04-17T06:50:24.000Z</time></trkpt><trkpt lon="5.644184" lat="51.139577"><ele>34.2</ele><time>2022-04-17T06:50:25.000Z</time></trkpt><trkpt lon="5.644109" lat="51.139576"><ele>34.2</ele><time>2022-04-17T06:50:26.000Z</time></trkpt><trkpt lon="5.644037" lat="51.139555"><ele>34.2</ele><time>2022-04-17T06:50:27.000Z</time></trkpt><trkpt lon="5.643959" lat="51.139519"><ele>34</ele><time>2022-04-17T06:50:28.000Z</time></trkpt><trkpt lon="5.643871" lat="51.139478"><ele>34</ele><time>2022-04-17T06:50:29.000Z</time></trkpt><trkpt lon="5.643767" lat="51.139441"><ele>34</ele><time>2022-04-17T06:50:30.000Z</time></trkpt><trkpt lon="5.643655" lat="51.139415"><ele>34</ele><time>2022-04-17T06:50:31.000Z</time></trkpt><trkpt lon="5.64354" lat="51.139401"><ele>34</ele><time>2022-04-17T06:50:32.000Z</time></trkpt><trkpt lon="5.643425" lat="51.139391"><ele>34</ele><time>2022-04-17T06:50:33.000Z</time></trkpt><trkpt lon="5.643309" lat="51.139384"><ele>34.2</ele><time>2022-04-17T06:50:34.000Z</time></trkpt><trkpt lon="5.643192" lat="51.13938"><ele>34.2</ele><time>2022-04-17T06:50:35.000Z</time></trkpt><trkpt lon="5.643076" lat="51.139378"><ele>34.2</ele><time>2022-04-17T06:50:36.000Z</time></trkpt><trkpt lon="5.642959" lat="51.139378"><ele>34.2</ele><time>2022-04-17T06:50:37.000Z</time></trkpt><trkpt lon="5.642843" lat="51.139378"><ele>34.2</ele><time>2022-04-17T06:50:38.000Z</time></trkpt><trkpt lon="5.642727" lat="51.139378"><ele>34.2</ele><time>2022-04-17T06:50:39.000Z</time></trkpt><trkpt lon="5.642609" lat="51.139378"><ele>34.2</ele><time>2022-04-17T06:50:40.000Z</time></trkpt><trkpt lon="5.642494" lat="51.139377"><ele>34.4</ele><time>2022-04-17T06:50:41.000Z</time></trkpt><trkpt lon="5.642384" lat="51.139374"><ele>34.4</ele><time>2022-04-17T06:50:42.000Z</time></trkpt><trkpt lon="5.642275" lat="51.139374"><ele>34.4</ele><time>2022-04-17T06:50:43.000Z</time></trkpt><trkpt lon="5.642168" lat="51.139373"><ele>34.4</ele><time>2022-04-17T06:50:44.000Z</time></trkpt><trkpt lon="5.642065" lat="51.13937"><ele>34.4</ele><time>2022-04-17T06:50:45.000Z</time></trkpt><trkpt lon="5.641969" lat="51.139373"><ele>34.4</ele><time>2022-04-17T06:50:46.000Z</time></trkpt><trkpt lon="5.641888" lat="51.13939"><ele>34.4</ele><time>2022-04-17T06:50:47.000Z</time></trkpt><trkpt lon="5.641834" lat="51.139426"><ele>34.2</ele><time>2022-04-17T06:50:48.000Z</time></trkpt><trkpt lon="5.641804" lat="51.139482"><ele>34.2</ele><time>2022-04-17T06:50:49.000Z</time></trkpt><trkpt lon="5.641789" lat="51.13955"><ele>34</ele><time>2022-04-17T06:50:50.000Z</time></trkpt><trkpt lon="5.641779" lat="51.139621"><ele>33.8</ele><time>2022-04-17T06:50:51.000Z</time></trkpt><trkpt lon="5.641771" lat="51.139696"><ele>33.6</ele><time>2022-04-17T06:50:52.000Z</time></trkpt><trkpt lon="5.641764" lat="51.139773"><ele>33.6</ele><time>2022-04-17T06:50:53.000Z</time></trkpt><trkpt lon="5.641756" lat="51.13985"><ele>33.4</ele><time>2022-04-17T06:50:54.000Z</time></trkpt><trkpt lon="5.641748" lat="51.139924"><ele>33.4</ele><time>2022-04-17T06:50:55.000Z</time></trkpt><trkpt lon="5.64174" lat="51.139999"><ele>33.2</ele><time>2022-04-17T06:50:56.000Z</time></trkpt><trkpt lon="5.641735" lat="51.140074"><ele>33.2</ele><time>2022-04-17T06:50:57.000Z</time></trkpt><trkpt lon="5.641728" lat="51.140146"><ele>33.2</ele><time>2022-04-17T06:50:58.000Z</time></trkpt><trkpt lon="5.641718" lat="51.140218"><ele>33</ele><time>2022-04-17T06:50:59.000Z</time></trkpt><trkpt lon="5.641706" lat="51.140295"><ele>33.2</ele><time>2022-04-17T06:51:00.000Z</time></trkpt><trkpt lon="5.641695" lat="51.140368"><ele>33</ele><time>2022-04-17T06:51:01.000Z</time></trkpt><trkpt lon="5.64168" lat="51.140444"><ele>33.2</ele><time>2022-04-17T06:51:02.000Z</time></trkpt><trkpt lon="5.641663" lat="51.140516"><ele>33.2</ele><time>2022-04-17T06:51:03.000Z</time></trkpt><trkpt lon="5.641645" lat="51.140588"><ele>33.4</ele><time>2022-04-17T06:51:04.000Z</time></trkpt><trkpt lon="5.641624" lat="51.140662"><ele>33.4</ele><time>2022-04-17T06:51:05.000Z</time></trkpt><trkpt lon="5.641602" lat="51.140735"><ele>33.4</ele><time>2022-04-17T06:51:06.000Z</time></trkpt><trkpt lon="5.641582" lat="51.140806"><ele>33.2</ele><time>2022-04-17T06:51:07.000Z</time></trkpt><trkpt lon="5.641563" lat="51.140877"><ele>33.2</ele><time>2022-04-17T06:51:08.000Z</time></trkpt><trkpt lon="5.641543" lat="51.140949"><ele>33.2</ele><time>2022-04-17T06:51:09.000Z</time></trkpt><trkpt lon="5.641524" lat="51.141023"><ele>33.4</ele><time>2022-04-17T06:51:10.000Z</time></trkpt><trkpt lon="5.641503" lat="51.141093"><ele>33.4</ele><time>2022-04-17T06:51:11.000Z</time></trkpt><trkpt lon="5.641483" lat="51.141163"><ele>33.4</ele><time>2022-04-17T06:51:12.000Z</time></trkpt><trkpt lon="5.641463" lat="51.141235"><ele>33.4</ele><time>2022-04-17T06:51:13.000Z</time></trkpt><trkpt lon="5.641442" lat="51.141306"><ele>33.6</ele><time>2022-04-17T06:51:14.000Z</time></trkpt><trkpt lon="5.641421" lat="51.141377"><ele>33.6</ele><time>2022-04-17T06:51:15.000Z</time></trkpt><trkpt lon="5.6414" lat="51.141451"><ele>33.6</ele><time>2022-04-17T06:51:16.000Z</time></trkpt><trkpt lon="5.641381" lat="51.141523"><ele>33.6</ele><time>2022-04-17T06:51:17.000Z</time></trkpt><trkpt lon="5.64136" lat="51.141596"><ele>33.8</ele><time>2022-04-17T06:51:18.000Z</time></trkpt><trkpt lon="5.64134" lat="51.141667"><ele>33.8</ele><time>2022-04-17T06:51:19.000Z</time></trkpt><trkpt lon="5.641318" lat="51.141741"><ele>33.8</ele><time>2022-04-17T06:51:20.000Z</time></trkpt><trkpt lon="5.641294" lat="51.141812"><ele>33.8</ele><time>2022-04-17T06:51:21.000Z</time></trkpt><trkpt lon="5.641265" lat="51.14188"><ele>34</ele><time>2022-04-17T06:51:22.000Z</time></trkpt><trkpt lon="5.641234" lat="51.141949"><ele>34</ele><time>2022-04-17T06:51:23.000Z</time></trkpt><trkpt lon="5.641197" lat="51.142018"><ele>34</ele><time>2022-04-17T06:51:24.000Z</time></trkpt><trkpt lon="5.641156" lat="51.142084"><ele>34</ele><time>2022-04-17T06:51:25.000Z</time></trkpt><trkpt lon="5.641111" lat="51.142149"><ele>34.2</ele><time>2022-04-17T06:51:26.000Z</time></trkpt><trkpt lon="5.641062" lat="51.142214"><ele>34.2</ele><time>2022-04-17T06:51:27.000Z</time></trkpt><trkpt lon="5.64101" lat="51.142274"><ele>34.2</ele><time>2022-04-17T06:51:28.000Z</time></trkpt><trkpt lon="5.640955" lat="51.142329"><ele>34.4</ele><time>2022-04-17T06:51:29.000Z</time></trkpt><trkpt lon="5.640899" lat="51.142383"><ele>34.4</ele><time>2022-04-17T06:51:30.000Z</time></trkpt><trkpt lon="5.640844" lat="51.142436"><ele>34.4</ele><time>2022-04-17T06:51:31.000Z</time></trkpt><trkpt lon="5.64079" lat="51.142489"><ele>34.4</ele><time>2022-04-17T06:51:32.000Z</time></trkpt><trkpt lon="5.64074" lat="51.142538"><ele>34.4</ele><time>2022-04-17T06:51:33.000Z</time></trkpt><trkpt lon="5.64069" lat="51.142586"><ele>34.4</ele><time>2022-04-17T06:51:34.000Z</time></trkpt><trkpt lon="5.64064" lat="51.142632"><ele>34.4</ele><time>2022-04-17T06:51:35.000Z</time></trkpt><trkpt lon="5.640594" lat="51.142674"><ele>34.4</ele><time>2022-04-17T06:51:36.000Z</time></trkpt><trkpt lon="5.640553" lat="51.142717"><ele>34.4</ele><time>2022-04-17T06:51:37.000Z</time></trkpt><trkpt lon="5.640515" lat="51.142761"><ele>34.4</ele><time>2022-04-17T06:51:38.000Z</time></trkpt><trkpt lon="5.640475" lat="51.142807"><ele>34.4</ele><time>2022-04-17T06:51:39.000Z</time></trkpt><trkpt lon="5.640428" lat="51.142858"><ele>34.4</ele><time>2022-04-17T06:51:40.000Z</time></trkpt><trkpt lon="5.640378" lat="51.14291"><ele>34.4</ele><time>2022-04-17T06:51:41.000Z</time></trkpt><trkpt lon="5.640328" lat="51.142964"><ele>34.4</ele><time>2022-04-17T06:51:42.000Z</time></trkpt><trkpt lon="5.640273" lat="51.143022"><ele>34.4</ele><time>2022-04-17T06:51:43.000Z</time></trkpt><trkpt lon="5.640213" lat="51.143083"><ele>34.4</ele><time>2022-04-17T06:51:44.000Z</time></trkpt><trkpt lon="5.64015" lat="51.143144"><ele>34.6</ele><time>2022-04-17T06:51:45.000Z</time></trkpt><trkpt lon="5.640089" lat="51.143205"><ele>34.6</ele><time>2022-04-17T06:51:46.000Z</time></trkpt><trkpt lon="5.640028" lat="51.143266"><ele>34.6</ele><time>2022-04-17T06:51:47.000Z</time></trkpt><trkpt lon="5.639969" lat="51.143323"><ele>34.6</ele><time>2022-04-17T06:51:48.000Z</time></trkpt><trkpt lon="5.639911" lat="51.143383"><ele>34.8</ele><time>2022-04-17T06:51:49.000Z</time></trkpt><trkpt lon="5.639849" lat="51.143445"><ele>34.6</ele><time>2022-04-17T06:51:50.000Z</time></trkpt><trkpt lon="5.639788" lat="51.143506"><ele>34.6</ele><time>2022-04-17T06:51:51.000Z</time></trkpt><trkpt lon="5.639727" lat="51.143564"><ele>34.6</ele><time>2022-04-17T06:51:52.000Z</time></trkpt><trkpt lon="5.639666" lat="51.143626"><ele>34.6</ele><time>2022-04-17T06:51:53.000Z</time></trkpt><trkpt lon="5.639603" lat="51.143689"><ele>34.6</ele><time>2022-04-17T06:51:54.000Z</time></trkpt><trkpt lon="5.639539" lat="51.143751"><ele>34.6</ele><time>2022-04-17T06:51:55.000Z</time></trkpt><trkpt lon="5.639474" lat="51.143813"><ele>34.6</ele><time>2022-04-17T06:51:56.000Z</time></trkpt><trkpt lon="5.639409" lat="51.143876"><ele>34.4</ele><time>2022-04-17T06:51:57.000Z</time></trkpt><trkpt lon="5.639346" lat="51.143936"><ele>34.2</ele><time>2022-04-17T06:51:58.000Z</time></trkpt><trkpt lon="5.639282" lat="51.143998"><ele>34.2</ele><time>2022-04-17T06:51:59.000Z</time></trkpt><trkpt lon="5.639216" lat="51.144063"><ele>34.2</ele><time>2022-04-17T06:52:00.000Z</time></trkpt><trkpt lon="5.639152" lat="51.144125"><ele>34</ele><time>2022-04-17T06:52:01.000Z</time></trkpt><trkpt lon="5.639088" lat="51.144186"><ele>33.8</ele><time>2022-04-17T06:52:02.000Z</time></trkpt><trkpt lon="5.639024" lat="51.144247"><ele>33.8</ele><time>2022-04-17T06:52:03.000Z</time></trkpt><trkpt lon="5.638957" lat="51.144312"><ele>33.6</ele><time>2022-04-17T06:52:04.000Z</time></trkpt><trkpt lon="5.638892" lat="51.144376"><ele>33.6</ele><time>2022-04-17T06:52:05.000Z</time></trkpt><trkpt lon="5.638828" lat="51.144436"><ele>33.4</ele><time>2022-04-17T06:52:06.000Z</time></trkpt><trkpt lon="5.638763" lat="51.144499"><ele>33.4</ele><time>2022-04-17T06:52:07.000Z</time></trkpt><trkpt lon="5.638699" lat="51.144564"><ele>33.4</ele><time>2022-04-17T06:52:08.000Z</time></trkpt><trkpt lon="5.638635" lat="51.144628"><ele>33.2</ele><time>2022-04-17T06:52:09.000Z</time></trkpt><trkpt lon="5.63857" lat="51.144693"><ele>33.2</ele><time>2022-04-17T06:52:10.000Z</time></trkpt><trkpt lon="5.638503" lat="51.144757"><ele>33.2</ele><time>2022-04-17T06:52:11.000Z</time></trkpt><trkpt lon="5.638438" lat="51.144818"><ele>33.2</ele><time>2022-04-17T06:52:12.000Z</time></trkpt><trkpt lon="5.638371" lat="51.144881"><ele>33</ele><time>2022-04-17T06:52:13.000Z</time></trkpt><trkpt lon="5.638306" lat="51.144945"><ele>33</ele><time>2022-04-17T06:52:14.000Z</time></trkpt><trkpt lon="5.638244" lat="51.145009"><ele>32.8</ele><time>2022-04-17T06:52:15.000Z</time></trkpt><trkpt lon="5.638185" lat="51.14507"><ele>32.6</ele><time>2022-04-17T06:52:16.000Z</time></trkpt><trkpt lon="5.638128" lat="51.145134"><ele>32.6</ele><time>2022-04-17T06:52:17.000Z</time></trkpt><trkpt lon="5.638077" lat="51.145196"><ele>32.6</ele><time>2022-04-17T06:52:18.000Z</time></trkpt><trkpt lon="5.638028" lat="51.145256"><ele>32.6</ele><time>2022-04-17T06:52:19.000Z</time></trkpt><trkpt lon="5.637974" lat="51.145318"><ele>32.8</ele><time>2022-04-17T06:52:20.000Z</time></trkpt><trkpt lon="5.63792" lat="51.145379"><ele>32.8</ele><time>2022-04-17T06:52:21.000Z</time></trkpt><trkpt lon="5.637869" lat="51.145441"><ele>32.8</ele><time>2022-04-17T06:52:22.000Z</time></trkpt><trkpt lon="5.637818" lat="51.145506"><ele>32.8</ele><time>2022-04-17T06:52:23.000Z</time></trkpt><trkpt lon="5.637764" lat="51.145572"><ele>32.8</ele><time>2022-04-17T06:52:24.000Z</time></trkpt><trkpt lon="5.637705" lat="51.145634"><ele>32.8</ele><time>2022-04-17T06:52:25.000Z</time></trkpt><trkpt lon="5.637639" lat="51.145696"><ele>32.8</ele><time>2022-04-17T06:52:26.000Z</time></trkpt><trkpt lon="5.637571" lat="51.145759"><ele>32.8</ele><time>2022-04-17T06:52:27.000Z</time></trkpt><trkpt lon="5.6375" lat="51.145821"><ele>33</ele><time>2022-04-17T06:52:28.000Z</time></trkpt><trkpt lon="5.637433" lat="51.145883"><ele>33</ele><time>2022-04-17T06:52:29.000Z</time></trkpt><trkpt lon="5.637356" lat="51.14595"><ele>33</ele><time>2022-04-17T06:52:30.000Z</time></trkpt><trkpt lon="5.637284" lat="51.146008"><ele>33</ele><time>2022-04-17T06:52:31.000Z</time></trkpt><trkpt lon="5.637208" lat="51.146067"><ele>33.2</ele><time>2022-04-17T06:52:32.000Z</time></trkpt><trkpt lon="5.637128" lat="51.146119"><ele>33.2</ele><time>2022-04-17T06:52:33.000Z</time></trkpt><trkpt lon="5.637042" lat="51.146169"><ele>33.2</ele><time>2022-04-17T06:52:34.000Z</time></trkpt><trkpt lon="5.636939" lat="51.146216"><ele>33.2</ele><time>2022-04-17T06:52:35.000Z</time></trkpt><trkpt lon="5.636839" lat="51.146254"><ele>33.2</ele><time>2022-04-17T06:52:36.000Z</time></trkpt><trkpt lon="5.636733" lat="51.146286"><ele>33.2</ele><time>2022-04-17T06:52:37.000Z</time></trkpt><trkpt lon="5.636624" lat="51.146308"><ele>33.2</ele><time>2022-04-17T06:52:38.000Z</time></trkpt><trkpt lon="5.636512" lat="51.146318"><ele>33.2</ele><time>2022-04-17T06:52:39.000Z</time></trkpt><trkpt lon="5.636394" lat="51.146324"><ele>33.2</ele><time>2022-04-17T06:52:40.000Z</time></trkpt><trkpt lon="5.636276" lat="51.146329"><ele>33.2</ele><time>2022-04-17T06:52:41.000Z</time></trkpt><trkpt lon="5.636158" lat="51.14633"><ele>33.4</ele><time>2022-04-17T06:52:42.000Z</time></trkpt><trkpt lon="5.636039" lat="51.146333"><ele>33.4</ele><time>2022-04-17T06:52:43.000Z</time></trkpt><trkpt lon="5.63592" lat="51.146337"><ele>33.6</ele><time>2022-04-17T06:52:44.000Z</time></trkpt><trkpt lon="5.635802" lat="51.146339"><ele>33.6</ele><time>2022-04-17T06:52:45.000Z</time></trkpt><trkpt lon="5.635687" lat="51.146339"><ele>33.8</ele><time>2022-04-17T06:52:46.000Z</time></trkpt><trkpt lon="5.635571" lat="51.146339"><ele>33.8</ele><time>2022-04-17T06:52:47.000Z</time></trkpt><trkpt lon="5.635455" lat="51.146339"><ele>33.8</ele><time>2022-04-17T06:52:48.000Z</time></trkpt><trkpt lon="5.63534" lat="51.146339"><ele>33.8</ele><time>2022-04-17T06:52:49.000Z</time></trkpt><trkpt lon="5.635224" lat="51.146339"><ele>34</ele><time>2022-04-17T06:52:50.000Z</time></trkpt><trkpt lon="5.63511" lat="51.146339"><ele>34</ele><time>2022-04-17T06:52:51.000Z</time></trkpt><trkpt lon="5.634996" lat="51.146339"><ele>34</ele><time>2022-04-17T06:52:52.000Z</time></trkpt><trkpt lon="5.634879" lat="51.14634"><ele>34</ele><time>2022-04-17T06:52:53.000Z</time></trkpt><trkpt lon="5.634765" lat="51.146346"><ele>34.2</ele><time>2022-04-17T06:52:54.000Z</time></trkpt><trkpt lon="5.634651" lat="51.146359"><ele>34.2</ele><time>2022-04-17T06:52:55.000Z</time></trkpt><trkpt lon="5.63454" lat="51.146377"><ele>34.2</ele><time>2022-04-17T06:52:56.000Z</time></trkpt><trkpt lon="5.634431" lat="51.146401"><ele>34.2</ele><time>2022-04-17T06:52:57.000Z</time></trkpt><trkpt lon="5.634323" lat="51.146434"><ele>34.2</ele><time>2022-04-17T06:52:58.000Z</time></trkpt><trkpt lon="5.634216" lat="51.146473"><ele>34</ele><time>2022-04-17T06:52:59.000Z</time></trkpt><trkpt lon="5.634111" lat="51.14651"><ele>34</ele><time>2022-04-17T06:53:00.000Z</time></trkpt><trkpt lon="5.634008" lat="51.146544"><ele>34.2</ele><time>2022-04-17T06:53:01.000Z</time></trkpt><trkpt lon="5.633907" lat="51.146579"><ele>34.2</ele><time>2022-04-17T06:53:02.000Z</time></trkpt><trkpt lon="5.633804" lat="51.146617"><ele>34.4</ele><time>2022-04-17T06:53:03.000Z</time></trkpt><trkpt lon="5.633701" lat="51.146654"><ele>34.2</ele><time>2022-04-17T06:53:04.000Z</time></trkpt><trkpt lon="5.633595" lat="51.146689"><ele>34.2</ele><time>2022-04-17T06:53:05.000Z</time></trkpt><trkpt lon="5.633491" lat="51.146725"><ele>34.2</ele><time>2022-04-17T06:53:06.000Z</time></trkpt><trkpt lon="5.633389" lat="51.146762"><ele>34.2</ele><time>2022-04-17T06:53:07.000Z</time></trkpt><trkpt lon="5.633289" lat="51.146796"><ele>34.4</ele><time>2022-04-17T06:53:08.000Z</time></trkpt><trkpt lon="5.633188" lat="51.146831"><ele>34.4</ele><time>2022-04-17T06:53:09.000Z</time></trkpt><trkpt lon="5.633087" lat="51.146867"><ele>34.4</ele><time>2022-04-17T06:53:10.000Z</time></trkpt><trkpt lon="5.63298" lat="51.146902"><ele>34.4</ele><time>2022-04-17T06:53:11.000Z</time></trkpt><trkpt lon="5.632876" lat="51.146937"><ele>34.4</ele><time>2022-04-17T06:53:12.000Z</time></trkpt><trkpt lon="5.632771" lat="51.146971"><ele>34.2</ele><time>2022-04-17T06:53:13.000Z</time></trkpt><trkpt lon="5.632667" lat="51.147005"><ele>34.2</ele><time>2022-04-17T06:53:14.000Z</time></trkpt><trkpt lon="5.632564" lat="51.14704"><ele>34.4</ele><time>2022-04-17T06:53:15.000Z</time></trkpt><trkpt lon="5.632459" lat="51.147073"><ele>34.4</ele><time>2022-04-17T06:53:16.000Z</time></trkpt><trkpt lon="5.632354" lat="51.147104"><ele>34.6</ele><time>2022-04-17T06:53:17.000Z</time></trkpt><trkpt lon="5.632248" lat="51.147133"><ele>34.6</ele><time>2022-04-17T06:53:18.000Z</time></trkpt><trkpt lon="5.632141" lat="51.147159"><ele>34.6</ele><time>2022-04-17T06:53:19.000Z</time></trkpt><trkpt lon="5.632032" lat="51.147186"><ele>34.8</ele><time>2022-04-17T06:53:20.000Z</time></trkpt><trkpt lon="5.631925" lat="51.147213"><ele>34.8</ele><time>2022-04-17T06:53:21.000Z</time></trkpt><trkpt lon="5.631819" lat="51.14724"><ele>34.8</ele><time>2022-04-17T06:53:22.000Z</time></trkpt><trkpt lon="5.63171" lat="51.147268"><ele>34.8</ele><time>2022-04-17T06:53:23.000Z</time></trkpt><trkpt lon="5.631602" lat="51.147297"><ele>34.8</ele><time>2022-04-17T06:53:24.000Z</time></trkpt><trkpt lon="5.631492" lat="51.147323"><ele>34.8</ele><time>2022-04-17T06:53:25.000Z</time></trkpt><trkpt lon="5.631384" lat="51.147346"><ele>34.6</ele><time>2022-04-17T06:53:26.000Z</time></trkpt><trkpt lon="5.631277" lat="51.147373"><ele>34.6</ele><time>2022-04-17T06:53:27.000Z</time></trkpt><trkpt lon="5.631177" lat="51.147401"><ele>34.6</ele><time>2022-04-17T06:53:28.000Z</time></trkpt><trkpt lon="5.631086" lat="51.147432"><ele>34.6</ele><time>2022-04-17T06:53:29.000Z</time></trkpt><trkpt lon="5.631009" lat="51.147472"><ele>34.6</ele><time>2022-04-17T06:53:30.000Z</time></trkpt><trkpt lon="5.63095" lat="51.147527"><ele>34.6</ele><time>2022-04-17T06:53:31.000Z</time></trkpt><trkpt lon="5.630908" lat="51.14759"><ele>34.6</ele><time>2022-04-17T06:53:32.000Z</time></trkpt><trkpt lon="5.630882" lat="51.147659"><ele>34.4</ele><time>2022-04-17T06:53:33.000Z</time></trkpt><trkpt lon="5.630859" lat="51.147734"><ele>34.4</ele><time>2022-04-17T06:53:34.000Z</time></trkpt><trkpt lon="5.630837" lat="51.147808"><ele>34.4</ele><time>2022-04-17T06:53:35.000Z</time></trkpt><trkpt lon="5.630816" lat="51.147884"><ele>34.4</ele><time>2022-04-17T06:53:36.000Z</time></trkpt><trkpt lon="5.630798" lat="51.147958"><ele>34.4</ele><time>2022-04-17T06:53:37.000Z</time></trkpt><trkpt lon="5.630778" lat="51.148032"><ele>34.4</ele><time>2022-04-17T06:53:38.000Z</time></trkpt><trkpt lon="5.630758" lat="51.148106"><ele>34.4</ele><time>2022-04-17T06:53:39.000Z</time></trkpt><trkpt lon="5.630738" lat="51.148176"><ele>34.4</ele><time>2022-04-17T06:53:40.000Z</time></trkpt><trkpt lon="5.630719" lat="51.148249"><ele>34.4</ele><time>2022-04-17T06:53:41.000Z</time></trkpt><trkpt lon="5.630698" lat="51.14832"><ele>34.4</ele><time>2022-04-17T06:53:42.000Z</time></trkpt><trkpt lon="5.630679" lat="51.148391"><ele>34.4</ele><time>2022-04-17T06:53:43.000Z</time></trkpt><trkpt lon="5.63066" lat="51.148466"><ele>34.4</ele><time>2022-04-17T06:53:44.000Z</time></trkpt><trkpt lon="5.630641" lat="51.148538"><ele>34.4</ele><time>2022-04-17T06:53:45.000Z</time></trkpt><trkpt lon="5.630621" lat="51.148609"><ele>34.4</ele><time>2022-04-17T06:53:46.000Z</time></trkpt><trkpt lon="5.630601" lat="51.148678"><ele>34.4</ele><time>2022-04-17T06:53:47.000Z</time></trkpt><trkpt lon="5.630579" lat="51.148748"><ele>34.4</ele><time>2022-04-17T06:53:48.000Z</time></trkpt><trkpt lon="5.630557" lat="51.148818"><ele>34.4</ele><time>2022-04-17T06:53:49.000Z</time></trkpt><trkpt lon="5.630534" lat="51.148887"><ele>34.2</ele><time>2022-04-17T06:53:50.000Z</time></trkpt><trkpt lon="5.630513" lat="51.14896"><ele>34.2</ele><time>2022-04-17T06:53:51.000Z</time></trkpt><trkpt lon="5.630493" lat="51.149033"><ele>34</ele><time>2022-04-17T06:53:52.000Z</time></trkpt><trkpt lon="5.630476" lat="51.149104"><ele>34</ele><time>2022-04-17T06:53:53.000Z</time></trkpt><trkpt lon="5.63046" lat="51.149178"><ele>34</ele><time>2022-04-17T06:53:54.000Z</time></trkpt><trkpt lon="5.630441" lat="51.149248"><ele>34</ele><time>2022-04-17T06:53:55.000Z</time></trkpt><trkpt lon="5.630421" lat="51.149322"><ele>34</ele><time>2022-04-17T06:53:56.000Z</time></trkpt><trkpt lon="5.630401" lat="51.149393"><ele>34.2</ele><time>2022-04-17T06:53:57.000Z</time></trkpt><trkpt lon="5.630383" lat="51.149465"><ele>34</ele><time>2022-04-17T06:53:58.000Z</time></trkpt><trkpt lon="5.630365" lat="51.149538"><ele>34</ele><time>2022-04-17T06:53:59.000Z</time></trkpt><trkpt lon="5.630345" lat="51.149611"><ele>34.2</ele><time>2022-04-17T06:54:00.000Z</time></trkpt><trkpt lon="5.630325" lat="51.149683"><ele>34</ele><time>2022-04-17T06:54:01.000Z</time></trkpt><trkpt lon="5.630306" lat="51.149754"><ele>34</ele><time>2022-04-17T06:54:02.000Z</time></trkpt><trkpt lon="5.630289" lat="51.149823"><ele>34</ele><time>2022-04-17T06:54:03.000Z</time></trkpt><trkpt lon="5.630272" lat="51.149891"><ele>34.2</ele><time>2022-04-17T06:54:04.000Z</time></trkpt><trkpt lon="5.630254" lat="51.149957"><ele>34.4</ele><time>2022-04-17T06:54:05.000Z</time></trkpt><trkpt lon="5.630232" lat="51.150024"><ele>34.4</ele><time>2022-04-17T06:54:06.000Z</time></trkpt><trkpt lon="5.63021" lat="51.150093"><ele>34.4</ele><time>2022-04-17T06:54:07.000Z</time></trkpt><trkpt lon="5.630186" lat="51.150163"><ele>34.4</ele><time>2022-04-17T06:54:08.000Z</time></trkpt><trkpt lon="5.630162" lat="51.150236"><ele>34.2</ele><time>2022-04-17T06:54:09.000Z</time></trkpt><trkpt lon="5.63014" lat="51.150309"><ele>34</ele><time>2022-04-17T06:54:10.000Z</time></trkpt><trkpt lon="5.630119" lat="51.150382"><ele>33.8</ele><time>2022-04-17T06:54:11.000Z</time></trkpt><trkpt lon="5.630098" lat="51.150457"><ele>34</ele><time>2022-04-17T06:54:12.000Z</time></trkpt><trkpt lon="5.630076" lat="51.150529"><ele>34</ele><time>2022-04-17T06:54:13.000Z</time></trkpt><trkpt lon="5.630056" lat="51.150603"><ele>34</ele><time>2022-04-17T06:54:14.000Z</time></trkpt><trkpt lon="5.630037" lat="51.150675"><ele>34</ele><time>2022-04-17T06:54:15.000Z</time></trkpt><trkpt lon="5.630015" lat="51.150747"><ele>34</ele><time>2022-04-17T06:54:16.000Z</time></trkpt><trkpt lon="5.629994" lat="51.15082"><ele>33.8</ele><time>2022-04-17T06:54:17.000Z</time></trkpt><trkpt lon="5.629972" lat="51.150892"><ele>33.8</ele><time>2022-04-17T06:54:18.000Z</time></trkpt><trkpt lon="5.629952" lat="51.150964"><ele>33.8</ele><time>2022-04-17T06:54:19.000Z</time></trkpt><trkpt lon="5.629932" lat="51.151035"><ele>33.8</ele><time>2022-04-17T06:54:20.000Z</time></trkpt><trkpt lon="5.629912" lat="51.151107"><ele>33.8</ele><time>2022-04-17T06:54:21.000Z</time></trkpt><trkpt lon="5.629891" lat="51.151181"><ele>34</ele><time>2022-04-17T06:54:22.000Z</time></trkpt><trkpt lon="5.62987" lat="51.151254"><ele>33.8</ele><time>2022-04-17T06:54:23.000Z</time></trkpt><trkpt lon="5.62985" lat="51.151327"><ele>33.6</ele><time>2022-04-17T06:54:24.000Z</time></trkpt><trkpt lon="5.629831" lat="51.1514"><ele>33.6</ele><time>2022-04-17T06:54:25.000Z</time></trkpt><trkpt lon="5.62981" lat="51.151472"><ele>33.6</ele><time>2022-04-17T06:54:26.000Z</time></trkpt><trkpt lon="5.629789" lat="51.151545"><ele>33.6</ele><time>2022-04-17T06:54:27.000Z</time></trkpt><trkpt lon="5.629768" lat="51.15162"><ele>33.6</ele><time>2022-04-17T06:54:28.000Z</time></trkpt><trkpt lon="5.629748" lat="51.151692"><ele>33.6</ele><time>2022-04-17T06:54:29.000Z</time></trkpt><trkpt lon="5.629728" lat="51.151762"><ele>33.6</ele><time>2022-04-17T06:54:30.000Z</time></trkpt><trkpt lon="5.629707" lat="51.151833"><ele>33.6</ele><time>2022-04-17T06:54:31.000Z</time></trkpt><trkpt lon="5.629683" lat="51.151901"><ele>33.4</ele><time>2022-04-17T06:54:32.000Z</time></trkpt><trkpt lon="5.629655" lat="51.151971"><ele>33.4</ele><time>2022-04-17T06:54:33.000Z</time></trkpt><trkpt lon="5.629618" lat="51.152042"><ele>33.4</ele><time>2022-04-17T06:54:34.000Z</time></trkpt><trkpt lon="5.629568" lat="51.152107"><ele>33.4</ele><time>2022-04-17T06:54:35.000Z</time></trkpt><trkpt lon="5.629507" lat="51.152171"><ele>33.4</ele><time>2022-04-17T06:54:36.000Z</time></trkpt><trkpt lon="5.629437" lat="51.152231"><ele>33.4</ele><time>2022-04-17T06:54:37.000Z</time></trkpt><trkpt lon="5.62936" lat="51.152288"><ele>33.4</ele><time>2022-04-17T06:54:38.000Z</time></trkpt><trkpt lon="5.629281" lat="51.152345"><ele>33.2</ele><time>2022-04-17T06:54:39.000Z</time></trkpt><trkpt lon="5.629202" lat="51.152403"><ele>33.2</ele><time>2022-04-17T06:54:40.000Z</time></trkpt><trkpt lon="5.629124" lat="51.152463"><ele>33.2</ele><time>2022-04-17T06:54:41.000Z</time></trkpt><trkpt lon="5.629049" lat="51.152519"><ele>33.2</ele><time>2022-04-17T06:54:42.000Z</time></trkpt><trkpt lon="5.628972" lat="51.152577"><ele>33</ele><time>2022-04-17T06:54:43.000Z</time></trkpt><trkpt lon="5.628895" lat="51.152633"><ele>33</ele><time>2022-04-17T06:54:44.000Z</time></trkpt><trkpt lon="5.628815" lat="51.152687"><ele>33.2</ele><time>2022-04-17T06:54:45.000Z</time></trkpt><trkpt lon="5.628738" lat="51.152741"><ele>33.2</ele><time>2022-04-17T06:54:46.000Z</time></trkpt><trkpt lon="5.628661" lat="51.152799"><ele>33.2</ele><time>2022-04-17T06:54:47.000Z</time></trkpt><trkpt lon="5.628585" lat="51.152856"><ele>33.2</ele><time>2022-04-17T06:54:48.000Z</time></trkpt><trkpt lon="5.62851" lat="51.152911"><ele>33.2</ele><time>2022-04-17T06:54:49.000Z</time></trkpt><trkpt lon="5.628432" lat="51.152966"><ele>33</ele><time>2022-04-17T06:54:50.000Z</time></trkpt><trkpt lon="5.628353" lat="51.153024"><ele>33</ele><time>2022-04-17T06:54:51.000Z</time></trkpt><trkpt lon="5.628276" lat="51.15308"><ele>33</ele><time>2022-04-17T06:54:52.000Z</time></trkpt><trkpt lon="5.628199" lat="51.153133"><ele>32.8</ele><time>2022-04-17T06:54:53.000Z</time></trkpt><trkpt lon="5.628118" lat="51.153192"><ele>33</ele><time>2022-04-17T06:54:54.000Z</time></trkpt><trkpt lon="5.62804" lat="51.153249"><ele>33</ele><time>2022-04-17T06:54:55.000Z</time></trkpt><trkpt lon="5.627964" lat="51.153305"><ele>33.2</ele><time>2022-04-17T06:54:56.000Z</time></trkpt><trkpt lon="5.627889" lat="51.153358"><ele>33.2</ele><time>2022-04-17T06:54:57.000Z</time></trkpt><trkpt lon="5.627812" lat="51.153412"><ele>33.2</ele><time>2022-04-17T06:54:58.000Z</time></trkpt><trkpt lon="5.627736" lat="51.153466"><ele>33.2</ele><time>2022-04-17T06:54:59.000Z</time></trkpt><trkpt lon="5.627661" lat="51.153519"><ele>33.4</ele><time>2022-04-17T06:55:00.000Z</time></trkpt><trkpt lon="5.627587" lat="51.153572"><ele>33.4</ele><time>2022-04-17T06:55:01.000Z</time></trkpt><trkpt lon="5.627517" lat="51.153626"><ele>33.4</ele><time>2022-04-17T06:55:02.000Z</time></trkpt><trkpt lon="5.627446" lat="51.153679"><ele>33.4</ele><time>2022-04-17T06:55:03.000Z</time></trkpt><trkpt lon="5.627375" lat="51.153733"><ele>33.4</ele><time>2022-04-17T06:55:04.000Z</time></trkpt><trkpt lon="5.627303" lat="51.153791"><ele>33.4</ele><time>2022-04-17T06:55:05.000Z</time></trkpt><trkpt lon="5.627236" lat="51.153847"><ele>33.4</ele><time>2022-04-17T06:55:06.000Z</time></trkpt><trkpt lon="5.627168" lat="51.1539"><ele>33.4</ele><time>2022-04-17T06:55:07.000Z</time></trkpt><trkpt lon="5.627097" lat="51.153959"><ele>33.6</ele><time>2022-04-17T06:55:08.000Z</time></trkpt><trkpt lon="5.627026" lat="51.154016"><ele>33.6</ele><time>2022-04-17T06:55:09.000Z</time></trkpt><trkpt lon="5.626956" lat="51.154073"><ele>33.8</ele><time>2022-04-17T06:55:10.000Z</time></trkpt><trkpt lon="5.62689" lat="51.154131"><ele>33.8</ele><time>2022-04-17T06:55:11.000Z</time></trkpt><trkpt lon="5.626822" lat="51.154192"><ele>33.8</ele><time>2022-04-17T06:55:12.000Z</time></trkpt><trkpt lon="5.626758" lat="51.15425"><ele>33.8</ele><time>2022-04-17T06:55:13.000Z</time></trkpt><trkpt lon="5.626694" lat="51.15431"><ele>33.8</ele><time>2022-04-17T06:55:14.000Z</time></trkpt><trkpt lon="5.626633" lat="51.154372"><ele>33.8</ele><time>2022-04-17T06:55:15.000Z</time></trkpt><trkpt lon="5.626574" lat="51.154433"><ele>34</ele><time>2022-04-17T06:55:16.000Z</time></trkpt><trkpt lon="5.626518" lat="51.154497"><ele>34</ele><time>2022-04-17T06:55:17.000Z</time></trkpt><trkpt lon="5.626459" lat="51.154563"><ele>33.8</ele><time>2022-04-17T06:55:18.000Z</time></trkpt><trkpt lon="5.626399" lat="51.154627"><ele>33.8</ele><time>2022-04-17T06:55:19.000Z</time></trkpt><trkpt lon="5.626338" lat="51.154687"><ele>33.8</ele><time>2022-04-17T06:55:20.000Z</time></trkpt><trkpt lon="5.626272" lat="51.154749"><ele>33.8</ele><time>2022-04-17T06:55:21.000Z</time></trkpt><trkpt lon="5.626201" lat="51.154809"><ele>33.8</ele><time>2022-04-17T06:55:22.000Z</time></trkpt><trkpt lon="5.626122" lat="51.154865"><ele>33.8</ele><time>2022-04-17T06:55:23.000Z</time></trkpt><trkpt lon="5.626038" lat="51.154916"><ele>33.8</ele><time>2022-04-17T06:55:24.000Z</time></trkpt><trkpt lon="5.625948" lat="51.154961"><ele>33.8</ele><time>2022-04-17T06:55:25.000Z</time></trkpt><trkpt lon="5.625855" lat="51.155005"><ele>33.8</ele><time>2022-04-17T06:55:26.000Z</time></trkpt><trkpt lon="5.625755" lat="51.155049"><ele>33.8</ele><time>2022-04-17T06:55:27.000Z</time></trkpt><trkpt lon="5.625657" lat="51.155091"><ele>33.8</ele><time>2022-04-17T06:55:28.000Z</time></trkpt><trkpt lon="5.625559" lat="51.155133"><ele>33.8</ele><time>2022-04-17T06:55:29.000Z</time></trkpt><trkpt lon="5.62546" lat="51.155175"><ele>34</ele><time>2022-04-17T06:55:30.000Z</time></trkpt><trkpt lon="5.625362" lat="51.155217"><ele>33.8</ele><time>2022-04-17T06:55:31.000Z</time></trkpt><trkpt lon="5.625261" lat="51.155259"><ele>33.8</ele><time>2022-04-17T06:55:32.000Z</time></trkpt><trkpt lon="5.625162" lat="51.1553"><ele>33.8</ele><time>2022-04-17T06:55:33.000Z</time></trkpt><trkpt lon="5.625067" lat="51.155339"><ele>33.8</ele><time>2022-04-17T06:55:34.000Z</time></trkpt><trkpt lon="5.624982" lat="51.155383"><ele>33.8</ele><time>2022-04-17T06:55:35.000Z</time></trkpt><trkpt lon="5.624912" lat="51.155434"><ele>33.8</ele><time>2022-04-17T06:55:36.000Z</time></trkpt><trkpt lon="5.624858" lat="51.155494"><ele>33.8</ele><time>2022-04-17T06:55:37.000Z</time></trkpt><trkpt lon="5.624823" lat="51.155562"><ele>33.6</ele><time>2022-04-17T06:55:38.000Z</time></trkpt><trkpt lon="5.624804" lat="51.155636"><ele>33.6</ele><time>2022-04-17T06:55:39.000Z</time></trkpt><trkpt lon="5.624789" lat="51.155716"><ele>33.4</ele><time>2022-04-17T06:55:40.000Z</time></trkpt><trkpt lon="5.624774" lat="51.155795"><ele>33.4</ele><time>2022-04-17T06:55:41.000Z</time></trkpt><trkpt lon="5.624762" lat="51.155871"><ele>33.2</ele><time>2022-04-17T06:55:42.000Z</time></trkpt><trkpt lon="5.624752" lat="51.155948"><ele>33.2</ele><time>2022-04-17T06:55:43.000Z</time></trkpt><trkpt lon="5.624742" lat="51.156023"><ele>33</ele><time>2022-04-17T06:55:44.000Z</time></trkpt><trkpt lon="5.624731" lat="51.156096"><ele>33</ele><time>2022-04-17T06:55:45.000Z</time></trkpt><trkpt lon="5.624721" lat="51.156168"><ele>33</ele><time>2022-04-17T06:55:46.000Z</time></trkpt><trkpt lon="5.62471" lat="51.156244"><ele>33</ele><time>2022-04-17T06:55:47.000Z</time></trkpt><trkpt lon="5.624695" lat="51.156318"><ele>33</ele><time>2022-04-17T06:55:48.000Z</time></trkpt><trkpt lon="5.624679" lat="51.156394"><ele>32.8</ele><time>2022-04-17T06:55:49.000Z</time></trkpt><trkpt lon="5.624661" lat="51.156469"><ele>32.8</ele><time>2022-04-17T06:55:50.000Z</time></trkpt><trkpt lon="5.624637" lat="51.156541"><ele>32.8</ele><time>2022-04-17T06:55:51.000Z</time></trkpt><trkpt lon="5.624605" lat="51.156614"><ele>32.8</ele><time>2022-04-17T06:55:52.000Z</time></trkpt><trkpt lon="5.624569" lat="51.156686"><ele>32.8</ele><time>2022-04-17T06:55:53.000Z</time></trkpt><trkpt lon="5.624528" lat="51.156759"><ele>32.8</ele><time>2022-04-17T06:55:54.000Z</time></trkpt><trkpt lon="5.624483" lat="51.156831"><ele>32.8</ele><time>2022-04-17T06:55:55.000Z</time></trkpt><trkpt lon="5.624437" lat="51.156903"><ele>32.8</ele><time>2022-04-17T06:55:56.000Z</time></trkpt><trkpt lon="5.62439" lat="51.156971"><ele>32.8</ele><time>2022-04-17T06:55:57.000Z</time></trkpt><trkpt lon="5.624342" lat="51.157041"><ele>32.8</ele><time>2022-04-17T06:55:58.000Z</time></trkpt><trkpt lon="5.624297" lat="51.157109"><ele>32.8</ele><time>2022-04-17T06:55:59.000Z</time></trkpt><trkpt lon="5.624253" lat="51.157178"><ele>32.8</ele><time>2022-04-17T06:56:00.000Z</time></trkpt><trkpt lon="5.624214" lat="51.157248"><ele>32.8</ele><time>2022-04-17T06:56:01.000Z</time></trkpt><trkpt lon="5.62418" lat="51.15732"><ele>32.8</ele><time>2022-04-17T06:56:02.000Z</time></trkpt><trkpt lon="5.624151" lat="51.15739"><ele>32.8</ele><time>2022-04-17T06:56:03.000Z</time></trkpt><trkpt lon="5.624124" lat="51.15746"><ele>32.8</ele><time>2022-04-17T06:56:04.000Z</time></trkpt><trkpt lon="5.624098" lat="51.157533"><ele>32.8</ele><time>2022-04-17T06:56:05.000Z</time></trkpt><trkpt lon="5.624075" lat="51.157605"><ele>32.8</ele><time>2022-04-17T06:56:06.000Z</time></trkpt><trkpt lon="5.624051" lat="51.157673"><ele>32.8</ele><time>2022-04-17T06:56:07.000Z</time></trkpt><trkpt lon="5.624025" lat="51.157743"><ele>32.8</ele><time>2022-04-17T06:56:08.000Z</time></trkpt><trkpt lon="5.623999" lat="51.157814"><ele>33</ele><time>2022-04-17T06:56:09.000Z</time></trkpt><trkpt lon="5.623972" lat="51.157885"><ele>32.8</ele><time>2022-04-17T06:56:10.000Z</time></trkpt><trkpt lon="5.623945" lat="51.157959"><ele>32.8</ele><time>2022-04-17T06:56:11.000Z</time></trkpt><trkpt lon="5.62392" lat="51.158034"><ele>33</ele><time>2022-04-17T06:56:12.000Z</time></trkpt><trkpt lon="5.623895" lat="51.158109"><ele>33</ele><time>2022-04-17T06:56:13.000Z</time></trkpt><trkpt lon="5.623869" lat="51.158187"><ele>33</ele><time>2022-04-17T06:56:14.000Z</time></trkpt><trkpt lon="5.623845" lat="51.158261"><ele>33</ele><time>2022-04-17T06:56:15.000Z</time></trkpt><trkpt lon="5.62382" lat="51.15833"><ele>32.8</ele><time>2022-04-17T06:56:16.000Z</time></trkpt><trkpt lon="5.623797" lat="51.158402"><ele>32.8</ele><time>2022-04-17T06:56:17.000Z</time></trkpt><trkpt lon="5.623776" lat="51.158471"><ele>32.6</ele><time>2022-04-17T06:56:18.000Z</time></trkpt><trkpt lon="5.623753" lat="51.158544"><ele>32.6</ele><time>2022-04-17T06:56:19.000Z</time></trkpt><trkpt lon="5.623728" lat="51.158618"><ele>32.6</ele><time>2022-04-17T06:56:20.000Z</time></trkpt><trkpt lon="5.623703" lat="51.158693"><ele>32.6</ele><time>2022-04-17T06:56:21.000Z</time></trkpt><trkpt lon="5.623675" lat="51.158766"><ele>32.6</ele><time>2022-04-17T06:56:22.000Z</time></trkpt><trkpt lon="5.623648" lat="51.158838"><ele>32.6</ele><time>2022-04-17T06:56:23.000Z</time></trkpt><trkpt lon="5.623623" lat="51.158911"><ele>32.6</ele><time>2022-04-17T06:56:24.000Z</time></trkpt><trkpt lon="5.623598" lat="51.158986"><ele>33</ele><time>2022-04-17T06:56:25.000Z</time></trkpt><trkpt lon="5.623573" lat="51.159059"><ele>33.2</ele><time>2022-04-17T06:56:26.000Z</time></trkpt><trkpt lon="5.623548" lat="51.159131"><ele>33.2</ele><time>2022-04-17T06:56:27.000Z</time></trkpt><trkpt lon="5.623521" lat="51.159203"><ele>33.2</ele><time>2022-04-17T06:56:28.000Z</time></trkpt><trkpt lon="5.623494" lat="51.159276"><ele>33</ele><time>2022-04-17T06:56:29.000Z</time></trkpt><trkpt lon="5.623467" lat="51.159346"><ele>32.8</ele><time>2022-04-17T06:56:30.000Z</time></trkpt><trkpt lon="5.623441" lat="51.159418"><ele>32.8</ele><time>2022-04-17T06:56:31.000Z</time></trkpt><trkpt lon="5.623417" lat="51.159491"><ele>32.8</ele><time>2022-04-17T06:56:32.000Z</time></trkpt><trkpt lon="5.623397" lat="51.159564"><ele>32.8</ele><time>2022-04-17T06:56:33.000Z</time></trkpt><trkpt lon="5.623375" lat="51.159639"><ele>32.8</ele><time>2022-04-17T06:56:34.000Z</time></trkpt><trkpt lon="5.623353" lat="51.159713"><ele>32.6</ele><time>2022-04-17T06:56:35.000Z</time></trkpt><trkpt lon="5.623327" lat="51.159786"><ele>32.6</ele><time>2022-04-17T06:56:36.000Z</time></trkpt><trkpt lon="5.623297" lat="51.15986"><ele>32.6</ele><time>2022-04-17T06:56:37.000Z</time></trkpt><trkpt lon="5.623266" lat="51.159927"><ele>32.6</ele><time>2022-04-17T06:56:38.000Z</time></trkpt><trkpt lon="5.623232" lat="51.159994"><ele>32.6</ele><time>2022-04-17T06:56:39.000Z</time></trkpt><trkpt lon="5.623191" lat="51.160065"><ele>32.8</ele><time>2022-04-17T06:56:40.000Z</time></trkpt><trkpt lon="5.623149" lat="51.160134"><ele>32.8</ele><time>2022-04-17T06:56:41.000Z</time></trkpt><trkpt lon="5.623102" lat="51.160201"><ele>32.8</ele><time>2022-04-17T06:56:42.000Z</time></trkpt><trkpt lon="5.623052" lat="51.160268"><ele>32.8</ele><time>2022-04-17T06:56:43.000Z</time></trkpt><trkpt lon="5.623002" lat="51.160337"><ele>33</ele><time>2022-04-17T06:56:44.000Z</time></trkpt><trkpt lon="5.62295" lat="51.160404"><ele>33</ele><time>2022-04-17T06:56:45.000Z</time></trkpt><trkpt lon="5.622899" lat="51.160468"><ele>33</ele><time>2022-04-17T06:56:46.000Z</time></trkpt><trkpt lon="5.622845" lat="51.160536"><ele>33</ele><time>2022-04-17T06:56:47.000Z</time></trkpt><trkpt lon="5.622791" lat="51.160604"><ele>33.2</ele><time>2022-04-17T06:56:48.000Z</time></trkpt><trkpt lon="5.622738" lat="51.160671"><ele>33.2</ele><time>2022-04-17T06:56:49.000Z</time></trkpt><trkpt lon="5.622685" lat="51.160736"><ele>33.2</ele><time>2022-04-17T06:56:50.000Z</time></trkpt><trkpt lon="5.622632" lat="51.160802"><ele>33</ele><time>2022-04-17T06:56:51.000Z</time></trkpt><trkpt lon="5.622572" lat="51.160868"><ele>33</ele><time>2022-04-17T06:56:52.000Z</time></trkpt><trkpt lon="5.622506" lat="51.160928"><ele>33</ele><time>2022-04-17T06:56:53.000Z</time></trkpt><trkpt lon="5.622432" lat="51.160984"><ele>33</ele><time>2022-04-17T06:56:54.000Z</time></trkpt><trkpt lon="5.62235" lat="51.161036"><ele>33</ele><time>2022-04-17T06:56:55.000Z</time></trkpt><trkpt lon="5.622262" lat="51.161086"><ele>33</ele><time>2022-04-17T06:56:56.000Z</time></trkpt><trkpt lon="5.622169" lat="51.161134"><ele>33</ele><time>2022-04-17T06:56:57.000Z</time></trkpt><trkpt lon="5.62207" lat="51.161173"><ele>33.2</ele><time>2022-04-17T06:56:58.000Z</time></trkpt><trkpt lon="5.621967" lat="51.161207"><ele>33.4</ele><time>2022-04-17T06:56:59.000Z</time></trkpt><trkpt lon="5.62186" lat="51.161238"><ele>33.4</ele><time>2022-04-17T06:57:00.000Z</time></trkpt><trkpt lon="5.621751" lat="51.161273"><ele>33.4</ele><time>2022-04-17T06:57:01.000Z</time></trkpt><trkpt lon="5.621642" lat="51.161307"><ele>33.4</ele><time>2022-04-17T06:57:02.000Z</time></trkpt><trkpt lon="5.621536" lat="51.16134"><ele>33.4</ele><time>2022-04-17T06:57:03.000Z</time></trkpt><trkpt lon="5.621431" lat="51.161372"><ele>33.2</ele><time>2022-04-17T06:57:04.000Z</time></trkpt><trkpt lon="5.621324" lat="51.161406"><ele>33.2</ele><time>2022-04-17T06:57:05.000Z</time></trkpt><trkpt lon="5.621218" lat="51.16144"><ele>33.2</ele><time>2022-04-17T06:57:06.000Z</time></trkpt><trkpt lon="5.621113" lat="51.161474"><ele>33.2</ele><time>2022-04-17T06:57:07.000Z</time></trkpt><trkpt lon="5.621008" lat="51.161505"><ele>33.2</ele><time>2022-04-17T06:57:08.000Z</time></trkpt><trkpt lon="5.620903" lat="51.161538"><ele>33.2</ele><time>2022-04-17T06:57:09.000Z</time></trkpt><trkpt lon="5.620798" lat="51.16157"><ele>33.2</ele><time>2022-04-17T06:57:10.000Z</time></trkpt><trkpt lon="5.620695" lat="51.161604"><ele>33.4</ele><time>2022-04-17T06:57:11.000Z</time></trkpt><trkpt lon="5.620592" lat="51.161638"><ele>33.4</ele><time>2022-04-17T06:57:12.000Z</time></trkpt><trkpt lon="5.620486" lat="51.161672"><ele>33.4</ele><time>2022-04-17T06:57:13.000Z</time></trkpt><trkpt lon="5.620382" lat="51.161702"><ele>33.4</ele><time>2022-04-17T06:57:14.000Z</time></trkpt><trkpt lon="5.620278" lat="51.161734"><ele>33.6</ele><time>2022-04-17T06:57:15.000Z</time></trkpt><trkpt lon="5.620175" lat="51.161768"><ele>33.8</ele><time>2022-04-17T06:57:16.000Z</time></trkpt><trkpt lon="5.62007" lat="51.161801"><ele>34</ele><time>2022-04-17T06:57:17.000Z</time></trkpt><trkpt lon="5.619962" lat="51.161833"><ele>34</ele><time>2022-04-17T06:57:18.000Z</time></trkpt><trkpt lon="5.619857" lat="51.161867"><ele>34</ele><time>2022-04-17T06:57:19.000Z</time></trkpt><trkpt lon="5.619752" lat="51.161902"><ele>33.8</ele><time>2022-04-17T06:57:20.000Z</time></trkpt><trkpt lon="5.61965" lat="51.161937"><ele>34</ele><time>2022-04-17T06:57:21.000Z</time></trkpt><trkpt lon="5.619547" lat="51.161974"><ele>34</ele><time>2022-04-17T06:57:22.000Z</time></trkpt><trkpt lon="5.619444" lat="51.16201"><ele>33.8</ele><time>2022-04-17T06:57:23.000Z</time></trkpt><trkpt lon="5.619341" lat="51.162048"><ele>33.8</ele><time>2022-04-17T06:57:24.000Z</time></trkpt><trkpt lon="5.619242" lat="51.162087"><ele>33.8</ele><time>2022-04-17T06:57:25.000Z</time></trkpt><trkpt lon="5.619141" lat="51.162128"><ele>33.8</ele><time>2022-04-17T06:57:26.000Z</time></trkpt><trkpt lon="5.619044" lat="51.162167"><ele>33.8</ele><time>2022-04-17T06:57:27.000Z</time></trkpt><trkpt lon="5.618947" lat="51.162209"><ele>33.8</ele><time>2022-04-17T06:57:28.000Z</time></trkpt><trkpt lon="5.618851" lat="51.16225"><ele>33.8</ele><time>2022-04-17T06:57:29.000Z</time></trkpt><trkpt lon="5.618753" lat="51.162288"><ele>33.8</ele><time>2022-04-17T06:57:30.000Z</time></trkpt><trkpt lon="5.618656" lat="51.162327"><ele>34</ele><time>2022-04-17T06:57:31.000Z</time></trkpt><trkpt lon="5.61856" lat="51.162366"><ele>34</ele><time>2022-04-17T06:57:32.000Z</time></trkpt><trkpt lon="5.618468" lat="51.162406"><ele>34</ele><time>2022-04-17T06:57:33.000Z</time></trkpt><trkpt lon="5.618376" lat="51.162442"><ele>34</ele><time>2022-04-17T06:57:34.000Z</time></trkpt><trkpt lon="5.618274" lat="51.162484"><ele>34.2</ele><time>2022-04-17T06:57:35.000Z</time></trkpt><trkpt lon="5.618178" lat="51.162526"><ele>34.4</ele><time>2022-04-17T06:57:36.000Z</time></trkpt><trkpt lon="5.618082" lat="51.162568"><ele>34.4</ele><time>2022-04-17T06:57:37.000Z</time></trkpt><trkpt lon="5.617985" lat="51.162608"><ele>34.4</ele><time>2022-04-17T06:57:38.000Z</time></trkpt><trkpt lon="5.617884" lat="51.162648"><ele>34.2</ele><time>2022-04-17T06:57:39.000Z</time></trkpt><trkpt lon="5.617786" lat="51.16269"><ele>34.2</ele><time>2022-04-17T06:57:40.000Z</time></trkpt><trkpt lon="5.61769" lat="51.162732"><ele>34.2</ele><time>2022-04-17T06:57:41.000Z</time></trkpt><trkpt lon="5.617593" lat="51.162774"><ele>34.2</ele><time>2022-04-17T06:57:42.000Z</time></trkpt><trkpt lon="5.617497" lat="51.162817"><ele>34.2</ele><time>2022-04-17T06:57:43.000Z</time></trkpt><trkpt lon="5.617402" lat="51.162861"><ele>34.2</ele><time>2022-04-17T06:57:44.000Z</time></trkpt><trkpt lon="5.617309" lat="51.162905"><ele>34.2</ele><time>2022-04-17T06:57:45.000Z</time></trkpt><trkpt lon="5.617217" lat="51.162951"><ele>34.2</ele><time>2022-04-17T06:57:46.000Z</time></trkpt><trkpt lon="5.617126" lat="51.163"><ele>34.2</ele><time>2022-04-17T06:57:47.000Z</time></trkpt><trkpt lon="5.617035" lat="51.163046"><ele>34</ele><time>2022-04-17T06:57:48.000Z</time></trkpt><trkpt lon="5.616944" lat="51.163091"><ele>34</ele><time>2022-04-17T06:57:49.000Z</time></trkpt><trkpt lon="5.616854" lat="51.163138"><ele>34</ele><time>2022-04-17T06:57:50.000Z</time></trkpt><trkpt lon="5.616766" lat="51.163184"><ele>34</ele><time>2022-04-17T06:57:51.000Z</time></trkpt><trkpt lon="5.616676" lat="51.163232"><ele>34</ele><time>2022-04-17T06:57:52.000Z</time></trkpt><trkpt lon="5.616585" lat="51.163279"><ele>34</ele><time>2022-04-17T06:57:53.000Z</time></trkpt><trkpt lon="5.616496" lat="51.163324"><ele>33.8</ele><time>2022-04-17T06:57:54.000Z</time></trkpt><trkpt lon="5.616407" lat="51.163371"><ele>33.8</ele><time>2022-04-17T06:57:55.000Z</time></trkpt><trkpt lon="5.616316" lat="51.16342"><ele>33.8</ele><time>2022-04-17T06:57:56.000Z</time></trkpt><trkpt lon="5.616229" lat="51.163466"><ele>33.8</ele><time>2022-04-17T06:57:57.000Z</time></trkpt><trkpt lon="5.616142" lat="51.163516"><ele>33.8</ele><time>2022-04-17T06:57:58.000Z</time></trkpt><trkpt lon="5.616057" lat="51.163567"><ele>33.8</ele><time>2022-04-17T06:57:59.000Z</time></trkpt><trkpt lon="5.615979" lat="51.16362"><ele>34</ele><time>2022-04-17T06:58:00.000Z</time></trkpt><trkpt lon="5.615905" lat="51.163674"><ele>34</ele><time>2022-04-17T06:58:01.000Z</time></trkpt><trkpt lon="5.61584" lat="51.163733"><ele>34</ele><time>2022-04-17T06:58:02.000Z</time></trkpt><trkpt lon="5.615786" lat="51.163794"><ele>34</ele><time>2022-04-17T06:58:03.000Z</time></trkpt><trkpt lon="5.615742" lat="51.163858"><ele>34</ele><time>2022-04-17T06:58:04.000Z</time></trkpt><trkpt lon="5.615703" lat="51.163925"><ele>34</ele><time>2022-04-17T06:58:05.000Z</time></trkpt><trkpt lon="5.61567" lat="51.16399"><ele>34.2</ele><time>2022-04-17T06:58:06.000Z</time></trkpt><trkpt lon="5.615635" lat="51.164054"><ele>34.2</ele><time>2022-04-17T06:58:07.000Z</time></trkpt><trkpt lon="5.615602" lat="51.164115"><ele>34.2</ele><time>2022-04-17T06:58:08.000Z</time></trkpt><trkpt lon="5.615571" lat="51.164175"><ele>34.4</ele><time>2022-04-17T06:58:09.000Z</time></trkpt><trkpt lon="5.615542" lat="51.164229"><ele>34.6</ele><time>2022-04-17T06:58:10.000Z</time></trkpt><trkpt lon="5.615513" lat="51.164278"><ele>34.6</ele><time>2022-04-17T06:58:11.000Z</time></trkpt><trkpt lon="5.615479" lat="51.164323"><ele>34.8</ele><time>2022-04-17T06:58:12.000Z</time></trkpt><trkpt lon="5.615433" lat="51.16436"><ele>34.8</ele><time>2022-04-17T06:58:13.000Z</time></trkpt><trkpt lon="5.615372" lat="51.164383"><ele>35</ele><time>2022-04-17T06:58:14.000Z</time></trkpt><trkpt lon="5.615296" lat="51.164392"><ele>35</ele><time>2022-04-17T06:58:15.000Z</time></trkpt><trkpt lon="5.615207" lat="51.164382"><ele>35</ele><time>2022-04-17T06:58:16.000Z</time></trkpt><trkpt lon="5.615116" lat="51.164365"><ele>35.2</ele><time>2022-04-17T06:58:17.000Z</time></trkpt><trkpt lon="5.615021" lat="51.164343"><ele>35.2</ele><time>2022-04-17T06:58:18.000Z</time></trkpt><trkpt lon="5.614923" lat="51.164323"><ele>35.2</ele><time>2022-04-17T06:58:19.000Z</time></trkpt><trkpt lon="5.614822" lat="51.164302"><ele>35.2</ele><time>2022-04-17T06:58:20.000Z</time></trkpt><trkpt lon="5.614721" lat="51.164285"><ele>35</ele><time>2022-04-17T06:58:21.000Z</time></trkpt><trkpt lon="5.614615" lat="51.164263"><ele>35</ele><time>2022-04-17T06:58:22.000Z</time></trkpt><trkpt lon="5.61451" lat="51.164243"><ele>35.2</ele><time>2022-04-17T06:58:23.000Z</time></trkpt><trkpt lon="5.614406" lat="51.164219"><ele>35.2</ele><time>2022-04-17T06:58:24.000Z</time></trkpt><trkpt lon="5.614305" lat="51.164192"><ele>35.4</ele><time>2022-04-17T06:58:25.000Z</time></trkpt><trkpt lon="5.614201" lat="51.164167"><ele>35.4</ele><time>2022-04-17T06:58:26.000Z</time></trkpt><trkpt lon="5.614096" lat="51.164142"><ele>35.6</ele><time>2022-04-17T06:58:27.000Z</time></trkpt><trkpt lon="5.613993" lat="51.164116"><ele>35.8</ele><time>2022-04-17T06:58:28.000Z</time></trkpt><trkpt lon="5.613892" lat="51.164089"><ele>36</ele><time>2022-04-17T06:58:29.000Z</time></trkpt><trkpt lon="5.61379" lat="51.164063"><ele>36.2</ele><time>2022-04-17T06:58:30.000Z</time></trkpt><trkpt lon="5.613689" lat="51.164039"><ele>36.4</ele><time>2022-04-17T06:58:31.000Z</time></trkpt><trkpt lon="5.613591" lat="51.164009"><ele>36.4</ele><time>2022-04-17T06:58:32.000Z</time></trkpt><trkpt lon="5.613496" lat="51.163982"><ele>36.8</ele><time>2022-04-17T06:58:33.000Z</time></trkpt><trkpt lon="5.613398" lat="51.163953"><ele>37</ele><time>2022-04-17T06:58:34.000Z</time></trkpt><trkpt lon="5.6133" lat="51.163925"><ele>37.2</ele><time>2022-04-17T06:58:35.000Z</time></trkpt><trkpt lon="5.613203" lat="51.163898"><ele>37.4</ele><time>2022-04-17T06:58:36.000Z</time></trkpt><trkpt lon="5.613105" lat="51.163872"><ele>37.6</ele><time>2022-04-17T06:58:37.000Z</time></trkpt><trkpt lon="5.61301" lat="51.163845"><ele>37.8</ele><time>2022-04-17T06:58:38.000Z</time></trkpt><trkpt lon="5.612913" lat="51.163818"><ele>38</ele><time>2022-04-17T06:58:39.000Z</time></trkpt><trkpt lon="5.612817" lat="51.163792"><ele>38.2</ele><time>2022-04-17T06:58:40.000Z</time></trkpt><trkpt lon="5.61272" lat="51.163764"><ele>38.4</ele><time>2022-04-17T06:58:41.000Z</time></trkpt><trkpt lon="5.61262" lat="51.163734"><ele>38.6</ele><time>2022-04-17T06:58:42.000Z</time></trkpt><trkpt lon="5.612521" lat="51.163708"><ele>38.8</ele><time>2022-04-17T06:58:43.000Z</time></trkpt><trkpt lon="5.612421" lat="51.16368"><ele>39</ele><time>2022-04-17T06:58:44.000Z</time></trkpt><trkpt lon="5.612322" lat="51.163651"><ele>39.2</ele><time>2022-04-17T06:58:45.000Z</time></trkpt><trkpt lon="5.612225" lat="51.163625"><ele>39.4</ele><time>2022-04-17T06:58:46.000Z</time></trkpt><trkpt lon="5.612127" lat="51.163601"><ele>39.6</ele><time>2022-04-17T06:58:47.000Z</time></trkpt><trkpt lon="5.612031" lat="51.163573"><ele>40</ele><time>2022-04-17T06:58:48.000Z</time></trkpt><trkpt lon="5.611936" lat="51.163544"><ele>40.2</ele><time>2022-04-17T06:58:49.000Z</time></trkpt><trkpt lon="5.611843" lat="51.163518"><ele>40.6</ele><time>2022-04-17T06:58:50.000Z</time></trkpt><trkpt lon="5.61175" lat="51.163494"><ele>40.8</ele><time>2022-04-17T06:58:51.000Z</time></trkpt><trkpt lon="5.611657" lat="51.163467"><ele>41</ele><time>2022-04-17T06:58:52.000Z</time></trkpt><trkpt lon="5.611563" lat="51.163441"><ele>41.2</ele><time>2022-04-17T06:58:53.000Z</time></trkpt><trkpt lon="5.611468" lat="51.163414"><ele>41.4</ele><time>2022-04-17T06:58:54.000Z</time></trkpt><trkpt lon="5.611377" lat="51.16339"><ele>41.6</ele><time>2022-04-17T06:58:55.000Z</time></trkpt><trkpt lon="5.611283" lat="51.163369"><ele>42</ele><time>2022-04-17T06:58:56.000Z</time></trkpt><trkpt lon="5.611191" lat="51.163347"><ele>42.2</ele><time>2022-04-17T06:58:57.000Z</time></trkpt><trkpt lon="5.611098" lat="51.163325"><ele>42.6</ele><time>2022-04-17T06:58:58.000Z</time></trkpt><trkpt lon="5.611005" lat="51.163305"><ele>42.8</ele><time>2022-04-17T06:58:59.000Z</time></trkpt><trkpt lon="5.610916" lat="51.163288"><ele>43</ele><time>2022-04-17T06:59:00.000Z</time></trkpt><trkpt lon="5.610824" lat="51.163272"><ele>43.4</ele><time>2022-04-17T06:59:01.000Z</time></trkpt><trkpt lon="5.61073" lat="51.163256"><ele>43.6</ele><time>2022-04-17T06:59:02.000Z</time></trkpt><trkpt lon="5.610641" lat="51.163238"><ele>43.8</ele><time>2022-04-17T06:59:03.000Z</time></trkpt><trkpt lon="5.610555" lat="51.163224"><ele>44.2</ele><time>2022-04-17T06:59:04.000Z</time></trkpt><trkpt lon="5.61046" lat="51.163207"><ele>44.4</ele><time>2022-04-17T06:59:05.000Z</time></trkpt><trkpt lon="5.610366" lat="51.163191"><ele>44.6</ele><time>2022-04-17T06:59:06.000Z</time></trkpt><trkpt lon="5.610272" lat="51.163173"><ele>44.8</ele><time>2022-04-17T06:59:07.000Z</time></trkpt><trkpt lon="5.610178" lat="51.163158"><ele>45</ele><time>2022-04-17T06:59:08.000Z</time></trkpt><trkpt lon="5.610084" lat="51.163143"><ele>45</ele><time>2022-04-17T06:59:09.000Z</time></trkpt><trkpt lon="5.609989" lat="51.163126"><ele>45.2</ele><time>2022-04-17T06:59:10.000Z</time></trkpt><trkpt lon="5.609893" lat="51.163108"><ele>45.4</ele><time>2022-04-17T06:59:11.000Z</time></trkpt><trkpt lon="5.609798" lat="51.163092"><ele>45.8</ele><time>2022-04-17T06:59:12.000Z</time></trkpt><trkpt lon="5.609703" lat="51.163074"><ele>46</ele><time>2022-04-17T06:59:13.000Z</time></trkpt><trkpt lon="5.60961" lat="51.163058"><ele>46</ele><time>2022-04-17T06:59:14.000Z</time></trkpt><trkpt lon="5.609517" lat="51.16304"><ele>46.2</ele><time>2022-04-17T06:59:15.000Z</time></trkpt><trkpt lon="5.609424" lat="51.163024"><ele>46.2</ele><time>2022-04-17T06:59:16.000Z</time></trkpt><trkpt lon="5.60933" lat="51.163008"><ele>46.2</ele><time>2022-04-17T06:59:17.000Z</time></trkpt><trkpt lon="5.609237" lat="51.16299"><ele>46.2</ele><time>2022-04-17T06:59:18.000Z</time></trkpt><trkpt lon="5.609142" lat="51.162974"><ele>46.2</ele><time>2022-04-17T06:59:19.000Z</time></trkpt><trkpt lon="5.609041" lat="51.162955"><ele>46</ele><time>2022-04-17T06:59:20.000Z</time></trkpt><trkpt lon="5.608938" lat="51.162935"><ele>45.8</ele><time>2022-04-17T06:59:21.000Z</time></trkpt><trkpt lon="5.608836" lat="51.162914"><ele>45.6</ele><time>2022-04-17T06:59:22.000Z</time></trkpt><trkpt lon="5.608734" lat="51.162886"><ele>45.6</ele><time>2022-04-17T06:59:23.000Z</time></trkpt><trkpt lon="5.608639" lat="51.162854"><ele>45.4</ele><time>2022-04-17T06:59:24.000Z</time></trkpt><trkpt lon="5.60855" lat="51.162815"><ele>45</ele><time>2022-04-17T06:59:25.000Z</time></trkpt><trkpt lon="5.608466" lat="51.162771"><ele>44.8</ele><time>2022-04-17T06:59:26.000Z</time></trkpt><trkpt lon="5.608392" lat="51.162721"><ele>44.6</ele><time>2022-04-17T06:59:27.000Z</time></trkpt><trkpt lon="5.608329" lat="51.162667"><ele>44.4</ele><time>2022-04-17T06:59:28.000Z</time></trkpt><trkpt lon="5.608269" lat="51.16261"><ele>44</ele><time>2022-04-17T06:59:29.000Z</time></trkpt><trkpt lon="5.608216" lat="51.162551"><ele>43.8</ele><time>2022-04-17T06:59:30.000Z</time></trkpt><trkpt lon="5.608172" lat="51.162492"><ele>43.6</ele><time>2022-04-17T06:59:31.000Z</time></trkpt><trkpt lon="5.608141" lat="51.162425"><ele>43.2</ele><time>2022-04-17T06:59:32.000Z</time></trkpt><trkpt lon="5.608124" lat="51.162357"><ele>42.8</ele><time>2022-04-17T06:59:33.000Z</time></trkpt><trkpt lon="5.608116" lat="51.162286"><ele>42.8</ele><time>2022-04-17T06:59:34.000Z</time></trkpt><trkpt lon="5.608112" lat="51.162215"><ele>42.4</ele><time>2022-04-17T06:59:35.000Z</time></trkpt><trkpt lon="5.608108" lat="51.162146"><ele>42.4</ele><time>2022-04-17T06:59:36.000Z</time></trkpt><trkpt lon="5.608098" lat="51.162075"><ele>42.2</ele><time>2022-04-17T06:59:37.000Z</time></trkpt><trkpt lon="5.60808" lat="51.162003"><ele>41.8</ele><time>2022-04-17T06:59:38.000Z</time></trkpt><trkpt lon="5.608052" lat="51.161932"><ele>41.6</ele><time>2022-04-17T06:59:39.000Z</time></trkpt><trkpt lon="5.608015" lat="51.161862"><ele>41.4</ele><time>2022-04-17T06:59:40.000Z</time></trkpt><trkpt lon="5.607971" lat="51.161797"><ele>41.4</ele><time>2022-04-17T06:59:41.000Z</time></trkpt><trkpt lon="5.607919" lat="51.161732"><ele>41.4</ele><time>2022-04-17T06:59:42.000Z</time></trkpt><trkpt lon="5.607863" lat="51.161666"><ele>41.2</ele><time>2022-04-17T06:59:43.000Z</time></trkpt><trkpt lon="5.607805" lat="51.161596"><ele>41</ele><time>2022-04-17T06:59:44.000Z</time></trkpt><trkpt lon="5.607746" lat="51.161525"><ele>40.6</ele><time>2022-04-17T06:59:45.000Z</time></trkpt><trkpt lon="5.607686" lat="51.161455"><ele>40.4</ele><time>2022-04-17T06:59:46.000Z</time></trkpt><trkpt lon="5.607625" lat="51.161384"><ele>40.2</ele><time>2022-04-17T06:59:47.000Z</time></trkpt><trkpt lon="5.607565" lat="51.161314"><ele>40</ele><time>2022-04-17T06:59:48.000Z</time></trkpt><trkpt lon="5.607504" lat="51.161242"><ele>39.8</ele><time>2022-04-17T06:59:49.000Z</time></trkpt><trkpt lon="5.607441" lat="51.16117"><ele>39.6</ele><time>2022-04-17T06:59:50.000Z</time></trkpt><trkpt lon="5.607379" lat="51.161097"><ele>39.4</ele><time>2022-04-17T06:59:51.000Z</time></trkpt><trkpt lon="5.60732" lat="51.161026"><ele>39.4</ele><time>2022-04-17T06:59:52.000Z</time></trkpt><trkpt lon="5.607259" lat="51.160957"><ele>39.2</ele><time>2022-04-17T06:59:53.000Z</time></trkpt><trkpt lon="5.6072" lat="51.160884"><ele>38.8</ele><time>2022-04-17T06:59:54.000Z</time></trkpt><trkpt lon="5.60714" lat="51.160812"><ele>38.8</ele><time>2022-04-17T06:59:55.000Z</time></trkpt><trkpt lon="5.607079" lat="51.160743"><ele>38.6</ele><time>2022-04-17T06:59:56.000Z</time></trkpt><trkpt lon="5.607018" lat="51.160674"><ele>38.4</ele><time>2022-04-17T06:59:57.000Z</time></trkpt><trkpt lon="5.606956" lat="51.160606"><ele>38.4</ele><time>2022-04-17T06:59:58.000Z</time></trkpt><trkpt lon="5.606893" lat="51.160536"><ele>38.2</ele><time>2022-04-17T06:59:59.000Z</time></trkpt><trkpt lon="5.606832" lat="51.160463"><ele>38</ele><time>2022-04-17T07:00:00.000Z</time></trkpt><trkpt lon="5.606769" lat="51.160391"><ele>37.8</ele><time>2022-04-17T07:00:01.000Z</time></trkpt><trkpt lon="5.606703" lat="51.160319"><ele>37.6</ele><time>2022-04-17T07:00:02.000Z</time></trkpt><trkpt lon="5.606636" lat="51.160249"><ele>37.6</ele><time>2022-04-17T07:00:03.000Z</time></trkpt><trkpt lon="5.606563" lat="51.160183"><ele>37.4</ele><time>2022-04-17T07:00:04.000Z</time></trkpt><trkpt lon="5.606483" lat="51.160116"><ele>37.2</ele><time>2022-04-17T07:00:05.000Z</time></trkpt><trkpt lon="5.606406" lat="51.160055"><ele>37.2</ele><time>2022-04-17T07:00:06.000Z</time></trkpt><trkpt lon="5.606328" lat="51.159994"><ele>37</ele><time>2022-04-17T07:00:07.000Z</time></trkpt><trkpt lon="5.606252" lat="51.159933"><ele>37</ele><time>2022-04-17T07:00:08.000Z</time></trkpt><trkpt lon="5.606179" lat="51.159875"><ele>36.8</ele><time>2022-04-17T07:00:09.000Z</time></trkpt><trkpt lon="5.606107" lat="51.159816"><ele>36.8</ele><time>2022-04-17T07:00:10.000Z</time></trkpt><trkpt lon="5.606034" lat="51.159758"><ele>36.8</ele><time>2022-04-17T07:00:11.000Z</time></trkpt><trkpt lon="5.605962" lat="51.159698"><ele>37</ele><time>2022-04-17T07:00:12.000Z</time></trkpt><trkpt lon="5.605894" lat="51.159639"><ele>37</ele><time>2022-04-17T07:00:13.000Z</time></trkpt><trkpt lon="5.605827" lat="51.159579"><ele>37</ele><time>2022-04-17T07:00:14.000Z</time></trkpt><trkpt lon="5.605766" lat="51.159522"><ele>37.2</ele><time>2022-04-17T07:00:15.000Z</time></trkpt><trkpt lon="5.605709" lat="51.159458"><ele>37.4</ele><time>2022-04-17T07:00:16.000Z</time></trkpt><trkpt lon="5.605661" lat="51.159395"><ele>37.4</ele><time>2022-04-17T07:00:17.000Z</time></trkpt><trkpt lon="5.605619" lat="51.159333"><ele>37.6</ele><time>2022-04-17T07:00:18.000Z</time></trkpt><trkpt lon="5.605583" lat="51.15927"><ele>37.4</ele><time>2022-04-17T07:00:19.000Z</time></trkpt><trkpt lon="5.605549" lat="51.159203"><ele>37.4</ele><time>2022-04-17T07:00:20.000Z</time></trkpt><trkpt lon="5.605514" lat="51.159138"><ele>37.2</ele><time>2022-04-17T07:00:21.000Z</time></trkpt><trkpt lon="5.605481" lat="51.159068"><ele>37.2</ele><time>2022-04-17T07:00:22.000Z</time></trkpt><trkpt lon="5.605447" lat="51.159001"><ele>37.2</ele><time>2022-04-17T07:00:23.000Z</time></trkpt><trkpt lon="5.605411" lat="51.158935"><ele>37.2</ele><time>2022-04-17T07:00:24.000Z</time></trkpt><trkpt lon="5.605377" lat="51.158866"><ele>37.2</ele><time>2022-04-17T07:00:25.000Z</time></trkpt><trkpt lon="5.605345" lat="51.158799"><ele>37.4</ele><time>2022-04-17T07:00:26.000Z</time></trkpt><trkpt lon="5.605315" lat="51.158733"><ele>37.4</ele><time>2022-04-17T07:00:27.000Z</time></trkpt><trkpt lon="5.605284" lat="51.158664"><ele>37.4</ele><time>2022-04-17T07:00:28.000Z</time></trkpt><trkpt lon="5.605252" lat="51.158596"><ele>37.2</ele><time>2022-04-17T07:00:29.000Z</time></trkpt><trkpt lon="5.605221" lat="51.158531"><ele>37.4</ele><time>2022-04-17T07:00:30.000Z</time></trkpt><trkpt lon="5.605191" lat="51.158463"><ele>37.4</ele><time>2022-04-17T07:00:31.000Z</time></trkpt><trkpt lon="5.605159" lat="51.158394"><ele>37.6</ele><time>2022-04-17T07:00:32.000Z</time></trkpt><trkpt lon="5.605128" lat="51.15833"><ele>37.8</ele><time>2022-04-17T07:00:33.000Z</time></trkpt><trkpt lon="5.605098" lat="51.158265"><ele>38</ele><time>2022-04-17T07:00:34.000Z</time></trkpt><trkpt lon="5.605062" lat="51.158194"><ele>37.8</ele><time>2022-04-17T07:00:35.000Z</time></trkpt><trkpt lon="5.605029" lat="51.158126"><ele>38</ele><time>2022-04-17T07:00:36.000Z</time></trkpt><trkpt lon="5.605" lat="51.158059"><ele>38</ele><time>2022-04-17T07:00:37.000Z</time></trkpt><trkpt lon="5.604971" lat="51.157992"><ele>38.2</ele><time>2022-04-17T07:00:38.000Z</time></trkpt><trkpt lon="5.60494" lat="51.157924"><ele>38.2</ele><time>2022-04-17T07:00:39.000Z</time></trkpt><trkpt lon="5.604912" lat="51.157856"><ele>38.2</ele><time>2022-04-17T07:00:40.000Z</time></trkpt><trkpt lon="5.604885" lat="51.157791"><ele>38</ele><time>2022-04-17T07:00:41.000Z</time></trkpt><trkpt lon="5.604854" lat="51.157726"><ele>38</ele><time>2022-04-17T07:00:42.000Z</time></trkpt><trkpt lon="5.604821" lat="51.157658"><ele>38</ele><time>2022-04-17T07:00:43.000Z</time></trkpt><trkpt lon="5.604789" lat="51.157592"><ele>38</ele><time>2022-04-17T07:00:44.000Z</time></trkpt><trkpt lon="5.604756" lat="51.157524"><ele>38</ele><time>2022-04-17T07:00:45.000Z</time></trkpt><trkpt lon="5.604724" lat="51.157456"><ele>38</ele><time>2022-04-17T07:00:46.000Z</time></trkpt><trkpt lon="5.60469" lat="51.157391"><ele>38</ele><time>2022-04-17T07:00:47.000Z</time></trkpt><trkpt lon="5.604654" lat="51.157325"><ele>38.2</ele><time>2022-04-17T07:00:48.000Z</time></trkpt><trkpt lon="5.604618" lat="51.157257"><ele>38.2</ele><time>2022-04-17T07:00:49.000Z</time></trkpt><trkpt lon="5.604581" lat="51.157191"><ele>38.2</ele><time>2022-04-17T07:00:50.000Z</time></trkpt><trkpt lon="5.604545" lat="51.157124"><ele>38.2</ele><time>2022-04-17T07:00:51.000Z</time></trkpt><trkpt lon="5.604507" lat="51.15706"><ele>38.4</ele><time>2022-04-17T07:00:52.000Z</time></trkpt><trkpt lon="5.604465" lat="51.156994"><ele>38.2</ele><time>2022-04-17T07:00:53.000Z</time></trkpt><trkpt lon="5.604425" lat="51.156929"><ele>38.2</ele><time>2022-04-17T07:00:54.000Z</time></trkpt><trkpt lon="5.604386" lat="51.156864"><ele>38</ele><time>2022-04-17T07:00:55.000Z</time></trkpt><trkpt lon="5.604343" lat="51.1568"><ele>38.2</ele><time>2022-04-17T07:00:56.000Z</time></trkpt><trkpt lon="5.604301" lat="51.156737"><ele>38.2</ele><time>2022-04-17T07:00:57.000Z</time></trkpt><trkpt lon="5.604257" lat="51.156675"><ele>38.4</ele><time>2022-04-17T07:00:58.000Z</time></trkpt><trkpt lon="5.60421" lat="51.156612"><ele>38.4</ele><time>2022-04-17T07:00:59.000Z</time></trkpt><trkpt lon="5.604164" lat="51.156549"><ele>38.4</ele><time>2022-04-17T07:01:00.000Z</time></trkpt><trkpt lon="5.604117" lat="51.156489"><ele>38.2</ele><time>2022-04-17T07:01:01.000Z</time></trkpt><trkpt lon="5.604071" lat="51.156431"><ele>38.2</ele><time>2022-04-17T07:01:02.000Z</time></trkpt><trkpt lon="5.604026" lat="51.156373"><ele>38.2</ele><time>2022-04-17T07:01:03.000Z</time></trkpt><trkpt lon="5.60398" lat="51.156317"><ele>38</ele><time>2022-04-17T07:01:04.000Z</time></trkpt><trkpt lon="5.603914" lat="51.156245"><ele>38</ele><time>2022-04-17T07:01:05.000Z</time></trkpt><trkpt lon="5.603853" lat="51.156191"><ele>38</ele><time>2022-04-17T07:01:06.000Z</time></trkpt><trkpt lon="5.603791" lat="51.156134"><ele>38</ele><time>2022-04-17T07:01:07.000Z</time></trkpt><trkpt lon="5.603728" lat="51.156078"><ele>38</ele><time>2022-04-17T07:01:08.000Z</time></trkpt><trkpt lon="5.603662" lat="51.156025"><ele>38</ele><time>2022-04-17T07:01:09.000Z</time></trkpt><trkpt lon="5.603593" lat="51.155973"><ele>37.8</ele><time>2022-04-17T07:01:10.000Z</time></trkpt><trkpt lon="5.603518" lat="51.155924"><ele>37.8</ele><time>2022-04-17T07:01:11.000Z</time></trkpt><trkpt lon="5.603447" lat="51.155877"><ele>37.8</ele><time>2022-04-17T07:01:12.000Z</time></trkpt><trkpt lon="5.603377" lat="51.155828"><ele>37.8</ele><time>2022-04-17T07:01:13.000Z</time></trkpt><trkpt lon="5.603299" lat="51.155778"><ele>38</ele><time>2022-04-17T07:01:14.000Z</time></trkpt><trkpt lon="5.603219" lat="51.15573"><ele>38</ele><time>2022-04-17T07:01:15.000Z</time></trkpt><trkpt lon="5.603138" lat="51.155684"><ele>38</ele><time>2022-04-17T07:01:16.000Z</time></trkpt><trkpt lon="5.603055" lat="51.155634"><ele>37.8</ele><time>2022-04-17T07:01:17.000Z</time></trkpt><trkpt lon="5.602979" lat="51.155585"><ele>37.6</ele><time>2022-04-17T07:01:18.000Z</time></trkpt><trkpt lon="5.602913" lat="51.155529"><ele>37.8</ele><time>2022-04-17T07:01:19.000Z</time></trkpt><trkpt lon="5.602852" lat="51.155475"><ele>37.8</ele><time>2022-04-17T07:01:20.000Z</time></trkpt><trkpt lon="5.6028" lat="51.155421"><ele>37.8</ele><time>2022-04-17T07:01:21.000Z</time></trkpt><trkpt lon="5.602756" lat="51.155365"><ele>37.8</ele><time>2022-04-17T07:01:22.000Z</time></trkpt><trkpt lon="5.602714" lat="51.155315"><ele>37.8</ele><time>2022-04-17T07:01:23.000Z</time></trkpt><trkpt lon="5.602658" lat="51.155276"><ele>37.8</ele><time>2022-04-17T07:01:24.000Z</time></trkpt><trkpt lon="5.602585" lat="51.155252"><ele>38</ele><time>2022-04-17T07:01:25.000Z</time></trkpt><trkpt lon="5.602501" lat="51.155248"><ele>38</ele><time>2022-04-17T07:01:26.000Z</time></trkpt><trkpt lon="5.602406" lat="51.155254"><ele>38.2</ele><time>2022-04-17T07:01:27.000Z</time></trkpt><trkpt lon="5.602312" lat="51.155266"><ele>38.2</ele><time>2022-04-17T07:01:28.000Z</time></trkpt><trkpt lon="5.602214" lat="51.155277"><ele>38.2</ele><time>2022-04-17T07:01:29.000Z</time></trkpt><trkpt lon="5.602115" lat="51.155275"><ele>38.2</ele><time>2022-04-17T07:01:30.000Z</time></trkpt><trkpt lon="5.602019" lat="51.155263"><ele>38.4</ele><time>2022-04-17T07:01:31.000Z</time></trkpt><trkpt lon="5.601922" lat="51.155239"><ele>38.4</ele><time>2022-04-17T07:01:32.000Z</time></trkpt><trkpt lon="5.601825" lat="51.155216"><ele>38.4</ele><time>2022-04-17T07:01:33.000Z</time></trkpt><trkpt lon="5.601725" lat="51.155199"><ele>38.4</ele><time>2022-04-17T07:01:34.000Z</time></trkpt><trkpt lon="5.601622" lat="51.15518"><ele>38.4</ele><time>2022-04-17T07:01:35.000Z</time></trkpt><trkpt lon="5.601521" lat="51.155161"><ele>38.4</ele><time>2022-04-17T07:01:36.000Z</time></trkpt><trkpt lon="5.601419" lat="51.155142"><ele>38.6</ele><time>2022-04-17T07:01:37.000Z</time></trkpt><trkpt lon="5.601312" lat="51.155122"><ele>38.6</ele><time>2022-04-17T07:01:38.000Z</time></trkpt><trkpt lon="5.601205" lat="51.155099"><ele>38.6</ele><time>2022-04-17T07:01:39.000Z</time></trkpt><trkpt lon="5.601099" lat="51.155077"><ele>38.8</ele><time>2022-04-17T07:01:40.000Z</time></trkpt><trkpt lon="5.600991" lat="51.155058"><ele>38.8</ele><time>2022-04-17T07:01:41.000Z</time></trkpt><trkpt lon="5.600884" lat="51.155038"><ele>38.8</ele><time>2022-04-17T07:01:42.000Z</time></trkpt><trkpt lon="5.60078" lat="51.155017"><ele>38.8</ele><time>2022-04-17T07:01:43.000Z</time></trkpt><trkpt lon="5.600672" lat="51.154996"><ele>38.8</ele><time>2022-04-17T07:01:44.000Z</time></trkpt><trkpt lon="5.600567" lat="51.154973"><ele>38.8</ele><time>2022-04-17T07:01:45.000Z</time></trkpt><trkpt lon="5.600463" lat="51.154951"><ele>39</ele><time>2022-04-17T07:01:46.000Z</time></trkpt><trkpt lon="5.600359" lat="51.154931"><ele>39</ele><time>2022-04-17T07:01:47.000Z</time></trkpt><trkpt lon="5.600253" lat="51.154907"><ele>38.8</ele><time>2022-04-17T07:01:48.000Z</time></trkpt><trkpt lon="5.600148" lat="51.154881"><ele>38.8</ele><time>2022-04-17T07:01:49.000Z</time></trkpt><trkpt lon="5.600043" lat="51.154859"><ele>38.8</ele><time>2022-04-17T07:01:50.000Z</time></trkpt><trkpt lon="5.599941" lat="51.154835"><ele>38.8</ele><time>2022-04-17T07:01:51.000Z</time></trkpt><trkpt lon="5.599837" lat="51.154809"><ele>38.8</ele><time>2022-04-17T07:01:52.000Z</time></trkpt><trkpt lon="5.599731" lat="51.154786"><ele>38.8</ele><time>2022-04-17T07:01:53.000Z</time></trkpt><trkpt lon="5.599626" lat="51.154762"><ele>38.8</ele><time>2022-04-17T07:01:54.000Z</time></trkpt><trkpt lon="5.599522" lat="51.154737"><ele>38.8</ele><time>2022-04-17T07:01:55.000Z</time></trkpt><trkpt lon="5.599417" lat="51.154713"><ele>38.8</ele><time>2022-04-17T07:01:56.000Z</time></trkpt><trkpt lon="5.599312" lat="51.154687"><ele>38.8</ele><time>2022-04-17T07:01:57.000Z</time></trkpt><trkpt lon="5.599206" lat="51.154663"><ele>39</ele><time>2022-04-17T07:01:58.000Z</time></trkpt><trkpt lon="5.5991" lat="51.154637"><ele>39</ele><time>2022-04-17T07:01:59.000Z</time></trkpt><trkpt lon="5.598994" lat="51.154614"><ele>39</ele><time>2022-04-17T07:02:00.000Z</time></trkpt><trkpt lon="5.598889" lat="51.154592"><ele>39</ele><time>2022-04-17T07:02:01.000Z</time></trkpt><trkpt lon="5.598782" lat="51.154569"><ele>39</ele><time>2022-04-17T07:02:02.000Z</time></trkpt><trkpt lon="5.598677" lat="51.154547"><ele>39</ele><time>2022-04-17T07:02:03.000Z</time></trkpt><trkpt lon="5.598576" lat="51.154529"><ele>38.8</ele><time>2022-04-17T07:02:04.000Z</time></trkpt><trkpt lon="5.598459" lat="51.154509"><ele>38.8</ele><time>2022-04-17T07:02:05.000Z</time></trkpt><trkpt lon="5.598353" lat="51.15449"><ele>38.8</ele><time>2022-04-17T07:02:06.000Z</time></trkpt><trkpt lon="5.598246" lat="51.154471"><ele>38.8</ele><time>2022-04-17T07:02:07.000Z</time></trkpt><trkpt lon="5.598137" lat="51.154454"><ele>38.8</ele><time>2022-04-17T07:02:08.000Z</time></trkpt><trkpt lon="5.598029" lat="51.154441"><ele>38.8</ele><time>2022-04-17T07:02:09.000Z</time></trkpt><trkpt lon="5.597923" lat="51.154426"><ele>39</ele><time>2022-04-17T07:02:10.000Z</time></trkpt><trkpt lon="5.597815" lat="51.154411"><ele>39</ele><time>2022-04-17T07:02:11.000Z</time></trkpt><trkpt lon="5.597705" lat="51.154395"><ele>39.2</ele><time>2022-04-17T07:02:12.000Z</time></trkpt><trkpt lon="5.597598" lat="51.15438"><ele>39</ele><time>2022-04-17T07:02:13.000Z</time></trkpt><trkpt lon="5.597489" lat="51.154365"><ele>39.2</ele><time>2022-04-17T07:02:14.000Z</time></trkpt><trkpt lon="5.59738" lat="51.15435"><ele>39.4</ele><time>2022-04-17T07:02:15.000Z</time></trkpt><trkpt lon="5.597273" lat="51.154334"><ele>39.4</ele><time>2022-04-17T07:02:16.000Z</time></trkpt><trkpt lon="5.597167" lat="51.154319"><ele>39.4</ele><time>2022-04-17T07:02:17.000Z</time></trkpt><trkpt lon="5.59706" lat="51.154305"><ele>39.4</ele><time>2022-04-17T07:02:18.000Z</time></trkpt><trkpt lon="5.596954" lat="51.154293"><ele>39.4</ele><time>2022-04-17T07:02:19.000Z</time></trkpt><trkpt lon="5.596848" lat="51.154276"><ele>39.4</ele><time>2022-04-17T07:02:20.000Z</time></trkpt><trkpt lon="5.596742" lat="51.154257"><ele>39.6</ele><time>2022-04-17T07:02:21.000Z</time></trkpt><trkpt lon="5.596637" lat="51.154239"><ele>39.6</ele><time>2022-04-17T07:02:22.000Z</time></trkpt><trkpt lon="5.59653" lat="51.154225"><ele>39.4</ele><time>2022-04-17T07:02:23.000Z</time></trkpt><trkpt lon="5.596428" lat="51.154212"><ele>39.4</ele><time>2022-04-17T07:02:24.000Z</time></trkpt><trkpt lon="5.596329" lat="51.154197"><ele>39.4</ele><time>2022-04-17T07:02:25.000Z</time></trkpt><trkpt lon="5.59623" lat="51.154182"><ele>39.4</ele><time>2022-04-17T07:02:26.000Z</time></trkpt><trkpt lon="5.59613" lat="51.154167"><ele>39.4</ele><time>2022-04-17T07:02:27.000Z</time></trkpt><trkpt lon="5.596036" lat="51.154151"><ele>39.4</ele><time>2022-04-17T07:02:28.000Z</time></trkpt><trkpt lon="5.595943" lat="51.154131"><ele>39.6</ele><time>2022-04-17T07:02:29.000Z</time></trkpt><trkpt lon="5.595855" lat="51.15411"><ele>39.6</ele><time>2022-04-17T07:02:30.000Z</time></trkpt><trkpt lon="5.595771" lat="51.154083"><ele>39.8</ele><time>2022-04-17T07:02:31.000Z</time></trkpt><trkpt lon="5.59569" lat="51.154059"><ele>39.8</ele><time>2022-04-17T07:02:32.000Z</time></trkpt><trkpt lon="5.595615" lat="51.154043"><ele>39.8</ele><time>2022-04-17T07:02:33.000Z</time></trkpt><trkpt lon="5.595552" lat="51.154037"><ele>40</ele><time>2022-04-17T07:02:34.000Z</time></trkpt><trkpt lon="5.595509" lat="51.154033"><ele>40</ele><time>2022-04-17T07:02:35.000Z</time></trkpt><trkpt lon="5.595457" lat="51.154026"><ele>40.4</ele><time>2022-04-17T07:02:46.000Z</time></trkpt><trkpt lon="5.59542" lat="51.154025"><ele>40.4</ele><time>2022-04-17T07:02:47.000Z</time></trkpt><trkpt lon="5.595381" lat="51.154021"><ele>40.4</ele><time>2022-04-17T07:02:48.000Z</time></trkpt><trkpt lon="5.595331" lat="51.154016"><ele>40.4</ele><time>2022-04-17T07:02:49.000Z</time></trkpt><trkpt lon="5.595269" lat="51.15401"><ele>40.4</ele><time>2022-04-17T07:02:50.000Z</time></trkpt><trkpt lon="5.595198" lat="51.154004"><ele>40.4</ele><time>2022-04-17T07:02:51.000Z</time></trkpt><trkpt lon="5.595117" lat="51.153992"><ele>40.4</ele><time>2022-04-17T07:02:52.000Z</time></trkpt><trkpt lon="5.595028" lat="51.153982"><ele>40.4</ele><time>2022-04-17T07:02:53.000Z</time></trkpt><trkpt lon="5.594936" lat="51.153973"><ele>40.4</ele><time>2022-04-17T07:02:54.000Z</time></trkpt><trkpt lon="5.59484" lat="51.153962"><ele>40.4</ele><time>2022-04-17T07:02:55.000Z</time></trkpt><trkpt lon="5.594742" lat="51.153951"><ele>40.4</ele><time>2022-04-17T07:02:56.000Z</time></trkpt><trkpt lon="5.594643" lat="51.153945"><ele>40.4</ele><time>2022-04-17T07:02:57.000Z</time></trkpt><trkpt lon="5.594542" lat="51.153941"><ele>40.4</ele><time>2022-04-17T07:02:58.000Z</time></trkpt><trkpt lon="5.59444" lat="51.153938"><ele>40.4</ele><time>2022-04-17T07:02:59.000Z</time></trkpt><trkpt lon="5.594337" lat="51.153937"><ele>40.4</ele><time>2022-04-17T07:03:00.000Z</time></trkpt><trkpt lon="5.594232" lat="51.153934"><ele>40.4</ele><time>2022-04-17T07:03:01.000Z</time></trkpt><trkpt lon="5.594123" lat="51.153934"><ele>40.4</ele><time>2022-04-17T07:03:02.000Z</time></trkpt><trkpt lon="5.594014" lat="51.153933"><ele>40.2</ele><time>2022-04-17T07:03:03.000Z</time></trkpt><trkpt lon="5.593904" lat="51.153931"><ele>40.2</ele><time>2022-04-17T07:03:04.000Z</time></trkpt><trkpt lon="5.593794" lat="51.153931"><ele>40.2</ele><time>2022-04-17T07:03:05.000Z</time></trkpt><trkpt lon="5.593682" lat="51.153932"><ele>40.4</ele><time>2022-04-17T07:03:06.000Z</time></trkpt><trkpt lon="5.593573" lat="51.153934"><ele>40.4</ele><time>2022-04-17T07:03:07.000Z</time></trkpt><trkpt lon="5.593466" lat="51.153934"><ele>40.4</ele><time>2022-04-17T07:03:08.000Z</time></trkpt><trkpt lon="5.593354" lat="51.153935"><ele>40.4</ele><time>2022-04-17T07:03:09.000Z</time></trkpt><trkpt lon="5.593235" lat="51.153938"><ele>40.4</ele><time>2022-04-17T07:03:10.000Z</time></trkpt><trkpt lon="5.593122" lat="51.153939"><ele>40.4</ele><time>2022-04-17T07:03:11.000Z</time></trkpt><trkpt lon="5.593009" lat="51.153944"><ele>40.4</ele><time>2022-04-17T07:03:12.000Z</time></trkpt><trkpt lon="5.592897" lat="51.153953"><ele>40.4</ele><time>2022-04-17T07:03:13.000Z</time></trkpt><trkpt lon="5.592783" lat="51.153965"><ele>40.4</ele><time>2022-04-17T07:03:14.000Z</time></trkpt><trkpt lon="5.592672" lat="51.153981"><ele>40.6</ele><time>2022-04-17T07:03:15.000Z</time></trkpt><trkpt lon="5.592563" lat="51.153998"><ele>40.6</ele><time>2022-04-17T07:03:16.000Z</time></trkpt><trkpt lon="5.592452" lat="51.15402"><ele>40.6</ele><time>2022-04-17T07:03:17.000Z</time></trkpt><trkpt lon="5.592343" lat="51.15404"><ele>40.6</ele><time>2022-04-17T07:03:18.000Z</time></trkpt><trkpt lon="5.592236" lat="51.154064"><ele>40.6</ele><time>2022-04-17T07:03:19.000Z</time></trkpt><trkpt lon="5.592129" lat="51.15409"><ele>40.6</ele><time>2022-04-17T07:03:20.000Z</time></trkpt><trkpt lon="5.592023" lat="51.154114"><ele>40.6</ele><time>2022-04-17T07:03:21.000Z</time></trkpt><trkpt lon="5.591916" lat="51.154139"><ele>40.6</ele><time>2022-04-17T07:03:22.000Z</time></trkpt><trkpt lon="5.59181" lat="51.154162"><ele>40.4</ele><time>2022-04-17T07:03:23.000Z</time></trkpt><trkpt lon="5.591704" lat="51.154186"><ele>40.6</ele><time>2022-04-17T07:03:24.000Z</time></trkpt><trkpt lon="5.591598" lat="51.154212"><ele>40.6</ele><time>2022-04-17T07:03:25.000Z</time></trkpt><trkpt lon="5.591493" lat="51.154232"><ele>40.6</ele><time>2022-04-17T07:03:26.000Z</time></trkpt><trkpt lon="5.591381" lat="51.154247"><ele>40.6</ele><time>2022-04-17T07:03:27.000Z</time></trkpt><trkpt lon="5.591271" lat="51.154255"><ele>40.8</ele><time>2022-04-17T07:03:28.000Z</time></trkpt><trkpt lon="5.591159" lat="51.154252"><ele>41</ele><time>2022-04-17T07:03:29.000Z</time></trkpt><trkpt lon="5.591049" lat="51.154236"><ele>41.2</ele><time>2022-04-17T07:03:30.000Z</time></trkpt><trkpt lon="5.590944" lat="51.15421"><ele>41.2</ele><time>2022-04-17T07:03:31.000Z</time></trkpt><trkpt lon="5.590841" lat="51.154181"><ele>41.4</ele><time>2022-04-17T07:03:32.000Z</time></trkpt><trkpt lon="5.590737" lat="51.154148"><ele>41.4</ele><time>2022-04-17T07:03:33.000Z</time></trkpt><trkpt lon="5.590639" lat="51.154118"><ele>41.4</ele><time>2022-04-17T07:03:34.000Z</time></trkpt><trkpt lon="5.590534" lat="51.154081"><ele>41.6</ele><time>2022-04-17T07:03:35.000Z</time></trkpt><trkpt lon="5.590436" lat="51.154048"><ele>41.4</ele><time>2022-04-17T07:03:36.000Z</time></trkpt><trkpt lon="5.590334" lat="51.154017"><ele>41.4</ele><time>2022-04-17T07:03:37.000Z</time></trkpt><trkpt lon="5.59023" lat="51.153988"><ele>41.4</ele><time>2022-04-17T07:03:38.000Z</time></trkpt><trkpt lon="5.590125" lat="51.153962"><ele>41.4</ele><time>2022-04-17T07:03:39.000Z</time></trkpt><trkpt lon="5.590016" lat="51.153942"><ele>41.4</ele><time>2022-04-17T07:03:40.000Z</time></trkpt><trkpt lon="5.589903" lat="51.153928"><ele>41.4</ele><time>2022-04-17T07:03:41.000Z</time></trkpt><trkpt lon="5.58979" lat="51.153922"><ele>41.4</ele><time>2022-04-17T07:03:42.000Z</time></trkpt><trkpt lon="5.589676" lat="51.153921"><ele>41.2</ele><time>2022-04-17T07:03:43.000Z</time></trkpt><trkpt lon="5.589557" lat="51.15393"><ele>41.2</ele><time>2022-04-17T07:03:44.000Z</time></trkpt><trkpt lon="5.58944" lat="51.153942"><ele>41</ele><time>2022-04-17T07:03:45.000Z</time></trkpt><trkpt lon="5.589325" lat="51.153955"><ele>40.8</ele><time>2022-04-17T07:03:46.000Z</time></trkpt><trkpt lon="5.589212" lat="51.153975"><ele>40.6</ele><time>2022-04-17T07:03:47.000Z</time></trkpt><trkpt lon="5.5891" lat="51.154"><ele>40.4</ele><time>2022-04-17T07:03:48.000Z</time></trkpt><trkpt lon="5.58899" lat="51.154026"><ele>40.4</ele><time>2022-04-17T07:03:49.000Z</time></trkpt><trkpt lon="5.58888" lat="51.154053"><ele>40.2</ele><time>2022-04-17T07:03:50.000Z</time></trkpt><trkpt lon="5.58877" lat="51.15408"><ele>40.2</ele><time>2022-04-17T07:03:51.000Z</time></trkpt><trkpt lon="5.58866" lat="51.154106"><ele>40</ele><time>2022-04-17T07:03:52.000Z</time></trkpt><trkpt lon="5.588549" lat="51.154133"><ele>40</ele><time>2022-04-17T07:03:53.000Z</time></trkpt><trkpt lon="5.588438" lat="51.15416"><ele>40.2</ele><time>2022-04-17T07:03:54.000Z</time></trkpt><trkpt lon="5.588332" lat="51.154186"><ele>40.4</ele><time>2022-04-17T07:03:55.000Z</time></trkpt><trkpt lon="5.588225" lat="51.154212"><ele>40.4</ele><time>2022-04-17T07:03:56.000Z</time></trkpt><trkpt lon="5.588121" lat="51.154236"><ele>40.6</ele><time>2022-04-17T07:03:57.000Z</time></trkpt><trkpt lon="5.588024" lat="51.154263"><ele>40.6</ele><time>2022-04-17T07:03:58.000Z</time></trkpt><trkpt lon="5.58793" lat="51.154294"><ele>40.6</ele><time>2022-04-17T07:03:59.000Z</time></trkpt><trkpt lon="5.587837" lat="51.154326"><ele>40.6</ele><time>2022-04-17T07:04:00.000Z</time></trkpt><trkpt lon="5.587746" lat="51.154362"><ele>40.8</ele><time>2022-04-17T07:04:01.000Z</time></trkpt><trkpt lon="5.587661" lat="51.154406"><ele>40.6</ele><time>2022-04-17T07:04:02.000Z</time></trkpt><trkpt lon="5.587584" lat="51.154455"><ele>40.6</ele><time>2022-04-17T07:04:03.000Z</time></trkpt><trkpt lon="5.58751" lat="51.154505"><ele>40.8</ele><time>2022-04-17T07:04:04.000Z</time></trkpt><trkpt lon="5.587419" lat="51.154563"><ele>40.8</ele><time>2022-04-17T07:04:05.000Z</time></trkpt><trkpt lon="5.587334" lat="51.154612"><ele>40.8</ele><time>2022-04-17T07:04:06.000Z</time></trkpt><trkpt lon="5.587243" lat="51.154656"><ele>40.8</ele><time>2022-04-17T07:04:07.000Z</time></trkpt><trkpt lon="5.587145" lat="51.154697"><ele>40.8</ele><time>2022-04-17T07:04:08.000Z</time></trkpt><trkpt lon="5.587047" lat="51.154735"><ele>40.8</ele><time>2022-04-17T07:04:09.000Z</time></trkpt><trkpt lon="5.586948" lat="51.154772"><ele>40.8</ele><time>2022-04-17T07:04:10.000Z</time></trkpt><trkpt lon="5.586849" lat="51.154807"><ele>40.8</ele><time>2022-04-17T07:04:11.000Z</time></trkpt><trkpt lon="5.586748" lat="51.154839"><ele>40.6</ele><time>2022-04-17T07:04:12.000Z</time></trkpt><trkpt lon="5.58664" lat="51.154864"><ele>40.4</ele><time>2022-04-17T07:04:13.000Z</time></trkpt><trkpt lon="5.586528" lat="51.154886"><ele>40.4</ele><time>2022-04-17T07:04:14.000Z</time></trkpt><trkpt lon="5.586413" lat="51.154902"><ele>40.4</ele><time>2022-04-17T07:04:15.000Z</time></trkpt><trkpt lon="5.586298" lat="51.154908"><ele>40.6</ele><time>2022-04-17T07:04:16.000Z</time></trkpt><trkpt lon="5.586183" lat="51.15491"><ele>40.6</ele><time>2022-04-17T07:04:17.000Z</time></trkpt><trkpt lon="5.586068" lat="51.154902"><ele>40.6</ele><time>2022-04-17T07:04:18.000Z</time></trkpt><trkpt lon="5.58596" lat="51.154882"><ele>40.8</ele><time>2022-04-17T07:04:19.000Z</time></trkpt><trkpt lon="5.585852" lat="51.154858"><ele>40.8</ele><time>2022-04-17T07:04:20.000Z</time></trkpt><trkpt lon="5.585749" lat="51.154831"><ele>41</ele><time>2022-04-17T07:04:21.000Z</time></trkpt><trkpt lon="5.585648" lat="51.154805"><ele>41</ele><time>2022-04-17T07:04:22.000Z</time></trkpt><trkpt lon="5.585549" lat="51.154783"><ele>41</ele><time>2022-04-17T07:04:23.000Z</time></trkpt><trkpt lon="5.585456" lat="51.154769"><ele>41</ele><time>2022-04-17T07:04:24.000Z</time></trkpt><trkpt lon="5.585372" lat="51.154769"><ele>41</ele><time>2022-04-17T07:04:25.000Z</time></trkpt><trkpt lon="5.585292" lat="51.154785"><ele>41</ele><time>2022-04-17T07:04:26.000Z</time></trkpt><trkpt lon="5.585218" lat="51.154816"><ele>41</ele><time>2022-04-17T07:04:27.000Z</time></trkpt><trkpt lon="5.585157" lat="51.154863"><ele>41</ele><time>2022-04-17T07:04:28.000Z</time></trkpt><trkpt lon="5.5851" lat="51.15492"><ele>41</ele><time>2022-04-17T07:04:29.000Z</time></trkpt><trkpt lon="5.585043" lat="51.154979"><ele>40.8</ele><time>2022-04-17T07:04:30.000Z</time></trkpt><trkpt lon="5.584987" lat="51.15504"><ele>40.8</ele><time>2022-04-17T07:04:31.000Z</time></trkpt><trkpt lon="5.584932" lat="51.155103"><ele>40.8</ele><time>2022-04-17T07:04:32.000Z</time></trkpt><trkpt lon="5.584873" lat="51.155161"><ele>40.8</ele><time>2022-04-17T07:04:33.000Z</time></trkpt><trkpt lon="5.584812" lat="51.155223"><ele>40.6</ele><time>2022-04-17T07:04:34.000Z</time></trkpt><trkpt lon="5.584752" lat="51.155284"><ele>40.6</ele><time>2022-04-17T07:04:35.000Z</time></trkpt><trkpt lon="5.58469" lat="51.155344"><ele>40.6</ele><time>2022-04-17T07:04:36.000Z</time></trkpt><trkpt lon="5.584631" lat="51.155401"><ele>40.6</ele><time>2022-04-17T07:04:37.000Z</time></trkpt><trkpt lon="5.584575" lat="51.155457"><ele>40.6</ele><time>2022-04-17T07:04:38.000Z</time></trkpt><trkpt lon="5.58452" lat="51.155515"><ele>40.6</ele><time>2022-04-17T07:04:39.000Z</time></trkpt><trkpt lon="5.584466" lat="51.155571"><ele>40.6</ele><time>2022-04-17T07:04:40.000Z</time></trkpt><trkpt lon="5.584413" lat="51.155625"><ele>40.6</ele><time>2022-04-17T07:04:41.000Z</time></trkpt><trkpt lon="5.584363" lat="51.155675"><ele>40.8</ele><time>2022-04-17T07:04:42.000Z</time></trkpt><trkpt lon="5.584311" lat="51.155719"><ele>40.8</ele><time>2022-04-17T07:04:43.000Z</time></trkpt><trkpt lon="5.584251" lat="51.155751"><ele>41</ele><time>2022-04-17T07:04:44.000Z</time></trkpt><trkpt lon="5.58418" lat="51.155758"><ele>41.2</ele><time>2022-04-17T07:04:45.000Z</time></trkpt><trkpt lon="5.584106" lat="51.155743"><ele>41.4</ele><time>2022-04-17T07:04:46.000Z</time></trkpt><trkpt lon="5.584035" lat="51.155713"><ele>41.6</ele><time>2022-04-17T07:04:47.000Z</time></trkpt><trkpt lon="5.583959" lat="51.155673"><ele>41.6</ele><time>2022-04-17T07:04:48.000Z</time></trkpt><trkpt lon="5.583882" lat="51.155632"><ele>41.8</ele><time>2022-04-17T07:04:49.000Z</time></trkpt><trkpt lon="5.5838" lat="51.155589"><ele>42</ele><time>2022-04-17T07:04:50.000Z</time></trkpt><trkpt lon="5.583718" lat="51.155548"><ele>42</ele><time>2022-04-17T07:04:51.000Z</time></trkpt><trkpt lon="5.583636" lat="51.155506"><ele>42.2</ele><time>2022-04-17T07:04:52.000Z</time></trkpt><trkpt lon="5.583554" lat="51.155465"><ele>42.2</ele><time>2022-04-17T07:04:53.000Z</time></trkpt><trkpt lon="5.583471" lat="51.155425"><ele>42.4</ele><time>2022-04-17T07:04:54.000Z</time></trkpt><trkpt lon="5.583388" lat="51.155384"><ele>42.4</ele><time>2022-04-17T07:04:55.000Z</time></trkpt><trkpt lon="5.583304" lat="51.155342"><ele>42.4</ele><time>2022-04-17T07:04:56.000Z</time></trkpt><trkpt lon="5.583219" lat="51.1553"><ele>42.4</ele><time>2022-04-17T07:04:57.000Z</time></trkpt><trkpt lon="5.58313" lat="51.155258"><ele>42.6</ele><time>2022-04-17T07:04:58.000Z</time></trkpt><trkpt lon="5.583041" lat="51.155215"><ele>42.6</ele><time>2022-04-17T07:04:59.000Z</time></trkpt><trkpt lon="5.582954" lat="51.15517"><ele>42.6</ele><time>2022-04-17T07:05:00.000Z</time></trkpt><trkpt lon="5.582865" lat="51.155127"><ele>42.6</ele><time>2022-04-17T07:05:01.000Z</time></trkpt><trkpt lon="5.582776" lat="51.155082"><ele>42.6</ele><time>2022-04-17T07:05:02.000Z</time></trkpt><trkpt lon="5.582688" lat="51.15504"><ele>42.8</ele><time>2022-04-17T07:05:03.000Z</time></trkpt><trkpt lon="5.5826" lat="51.154997"><ele>42.8</ele><time>2022-04-17T07:05:04.000Z</time></trkpt><trkpt lon="5.582512" lat="51.154954"><ele>42.8</ele><time>2022-04-17T07:05:05.000Z</time></trkpt><trkpt lon="5.58242" lat="51.154911"><ele>42.8</ele><time>2022-04-17T07:05:06.000Z</time></trkpt><trkpt lon="5.58233" lat="51.154871"><ele>43</ele><time>2022-04-17T07:05:07.000Z</time></trkpt><trkpt lon="5.58224" lat="51.154826"><ele>43</ele><time>2022-04-17T07:05:08.000Z</time></trkpt><trkpt lon="5.582149" lat="51.154784"><ele>43</ele><time>2022-04-17T07:05:09.000Z</time></trkpt><trkpt lon="5.58206" lat="51.15474"><ele>43</ele><time>2022-04-17T07:05:10.000Z</time></trkpt><trkpt lon="5.581969" lat="51.154697"><ele>43</ele><time>2022-04-17T07:05:11.000Z</time></trkpt><trkpt lon="5.581877" lat="51.154655"><ele>43</ele><time>2022-04-17T07:05:12.000Z</time></trkpt><trkpt lon="5.581786" lat="51.154613"><ele>43.2</ele><time>2022-04-17T07:05:13.000Z</time></trkpt><trkpt lon="5.581694" lat="51.154571"><ele>43.2</ele><time>2022-04-17T07:05:14.000Z</time></trkpt><trkpt lon="5.581605" lat="51.154528"><ele>43.2</ele><time>2022-04-17T07:05:15.000Z</time></trkpt><trkpt lon="5.581516" lat="51.154482"><ele>43.4</ele><time>2022-04-17T07:05:16.000Z</time></trkpt><trkpt lon="5.581424" lat="51.154437"><ele>43.4</ele><time>2022-04-17T07:05:17.000Z</time></trkpt><trkpt lon="5.581334" lat="51.154395"><ele>43.6</ele><time>2022-04-17T07:05:18.000Z</time></trkpt><trkpt lon="5.581242" lat="51.15435"><ele>43.6</ele><time>2022-04-17T07:05:19.000Z</time></trkpt><trkpt lon="5.581151" lat="51.154306"><ele>43.8</ele><time>2022-04-17T07:05:20.000Z</time></trkpt><trkpt lon="5.581063" lat="51.154262"><ele>43.8</ele><time>2022-04-17T07:05:21.000Z</time></trkpt><trkpt lon="5.580974" lat="51.154219"><ele>43.8</ele><time>2022-04-17T07:05:22.000Z</time></trkpt><trkpt lon="5.580884" lat="51.154173"><ele>44</ele><time>2022-04-17T07:05:23.000Z</time></trkpt><trkpt lon="5.580795" lat="51.154127"><ele>44</ele><time>2022-04-17T07:05:24.000Z</time></trkpt><trkpt lon="5.580709" lat="51.154082"><ele>44</ele><time>2022-04-17T07:05:25.000Z</time></trkpt><trkpt lon="5.580621" lat="51.154037"><ele>44</ele><time>2022-04-17T07:05:26.000Z</time></trkpt><trkpt lon="5.580528" lat="51.15399"><ele>44.2</ele><time>2022-04-17T07:05:27.000Z</time></trkpt><trkpt lon="5.580439" lat="51.153945"><ele>44.2</ele><time>2022-04-17T07:05:28.000Z</time></trkpt><trkpt lon="5.58035" lat="51.1539"><ele>44.2</ele><time>2022-04-17T07:05:29.000Z</time></trkpt><trkpt lon="5.580255" lat="51.153852"><ele>44.2</ele><time>2022-04-17T07:05:30.000Z</time></trkpt><trkpt lon="5.580164" lat="51.153808"><ele>44.2</ele><time>2022-04-17T07:05:31.000Z</time></trkpt><trkpt lon="5.580069" lat="51.153766"><ele>44.4</ele><time>2022-04-17T07:05:32.000Z</time></trkpt><trkpt lon="5.579976" lat="51.153724"><ele>44.4</ele><time>2022-04-17T07:05:33.000Z</time></trkpt><trkpt lon="5.579884" lat="51.153682"><ele>44.4</ele><time>2022-04-17T07:05:34.000Z</time></trkpt><trkpt lon="5.579791" lat="51.15364"><ele>44.4</ele><time>2022-04-17T07:05:35.000Z</time></trkpt><trkpt lon="5.579696" lat="51.153598"><ele>44.4</ele><time>2022-04-17T07:05:36.000Z</time></trkpt><trkpt lon="5.579604" lat="51.153556"><ele>44.2</ele><time>2022-04-17T07:05:37.000Z</time></trkpt><trkpt lon="5.579514" lat="51.153515"><ele>44.4</ele><time>2022-04-17T07:05:38.000Z</time></trkpt><trkpt lon="5.579424" lat="51.153473"><ele>44.2</ele><time>2022-04-17T07:05:39.000Z</time></trkpt><trkpt lon="5.579335" lat="51.153434"><ele>44.2</ele><time>2022-04-17T07:05:40.000Z</time></trkpt><trkpt lon="5.579249" lat="51.153393"><ele>44.2</ele><time>2022-04-17T07:05:41.000Z</time></trkpt><trkpt lon="5.579168" lat="51.153357"><ele>44.2</ele><time>2022-04-17T07:05:42.000Z</time></trkpt><trkpt lon="5.579093" lat="51.153322"><ele>44.2</ele><time>2022-04-17T07:05:43.000Z</time></trkpt><trkpt lon="5.57902" lat="51.153285"><ele>44.2</ele><time>2022-04-17T07:05:44.000Z</time></trkpt><trkpt lon="5.57895" lat="51.153256"><ele>44</ele><time>2022-04-17T07:05:45.000Z</time></trkpt><trkpt lon="5.578882" lat="51.153237"><ele>44</ele><time>2022-04-17T07:05:46.000Z</time></trkpt><trkpt lon="5.578813" lat="51.153231"><ele>44</ele><time>2022-04-17T07:05:47.000Z</time></trkpt><trkpt lon="5.578747" lat="51.153243"><ele>43.8</ele><time>2022-04-17T07:05:48.000Z</time></trkpt><trkpt lon="5.578683" lat="51.153271"><ele>43.6</ele><time>2022-04-17T07:05:49.000Z</time></trkpt><trkpt lon="5.578625" lat="51.153316"><ele>43.4</ele><time>2022-04-17T07:05:50.000Z</time></trkpt><trkpt lon="5.578571" lat="51.153371"><ele>43.4</ele><time>2022-04-17T07:05:51.000Z</time></trkpt><trkpt lon="5.578516" lat="51.153431"><ele>43.2</ele><time>2022-04-17T07:05:52.000Z</time></trkpt><trkpt lon="5.578463" lat="51.153495"><ele>43</ele><time>2022-04-17T07:05:53.000Z</time></trkpt><trkpt lon="5.578409" lat="51.15356"><ele>43</ele><time>2022-04-17T07:05:54.000Z</time></trkpt><trkpt lon="5.578355" lat="51.153623"><ele>42.8</ele><time>2022-04-17T07:05:55.000Z</time></trkpt><trkpt lon="5.5783" lat="51.153683"><ele>42.8</ele><time>2022-04-17T07:05:56.000Z</time></trkpt><trkpt lon="5.578247" lat="51.15374"><ele>42.6</ele><time>2022-04-17T07:05:57.000Z</time></trkpt><trkpt lon="5.578192" lat="51.153791"><ele>42.6</ele><time>2022-04-17T07:05:58.000Z</time></trkpt><trkpt lon="5.578135" lat="51.153835"><ele>42.8</ele><time>2022-04-17T07:05:59.000Z</time></trkpt><trkpt lon="5.578066" lat="51.153865"><ele>42.8</ele><time>2022-04-17T07:06:00.000Z</time></trkpt><trkpt lon="5.577982" lat="51.15387"><ele>42.8</ele><time>2022-04-17T07:06:01.000Z</time></trkpt><trkpt lon="5.577894" lat="51.153853"><ele>42.8</ele><time>2022-04-17T07:06:02.000Z</time></trkpt><trkpt lon="5.577814" lat="51.153823"><ele>42.8</ele><time>2022-04-17T07:06:03.000Z</time></trkpt><trkpt lon="5.577745" lat="51.153793"><ele>42.8</ele><time>2022-04-17T07:06:04.000Z</time></trkpt><trkpt lon="5.577645" lat="51.153739"><ele>42.8</ele><time>2022-04-17T07:06:05.000Z</time></trkpt><trkpt lon="5.57755" lat="51.153687"><ele>42.6</ele><time>2022-04-17T07:06:06.000Z</time></trkpt><trkpt lon="5.57747" lat="51.153638"><ele>42.6</ele><time>2022-04-17T07:06:07.000Z</time></trkpt><trkpt lon="5.577394" lat="51.15359"><ele>42.6</ele><time>2022-04-17T07:06:08.000Z</time></trkpt><trkpt lon="5.577314" lat="51.153542"><ele>42.6</ele><time>2022-04-17T07:06:09.000Z</time></trkpt><trkpt lon="5.577233" lat="51.153496"><ele>42.6</ele><time>2022-04-17T07:06:10.000Z</time></trkpt><trkpt lon="5.577155" lat="51.153461"><ele>42.6</ele><time>2022-04-17T07:06:11.000Z</time></trkpt><trkpt lon="5.57707" lat="51.153431"><ele>42.6</ele><time>2022-04-17T07:06:12.000Z</time></trkpt><trkpt lon="5.576978" lat="51.153407"><ele>42.6</ele><time>2022-04-17T07:06:13.000Z</time></trkpt><trkpt lon="5.576878" lat="51.153393"><ele>42.8</ele><time>2022-04-17T07:06:14.000Z</time></trkpt><trkpt lon="5.576773" lat="51.153381"><ele>42.8</ele><time>2022-04-17T07:06:15.000Z</time></trkpt><trkpt lon="5.576664" lat="51.153368"><ele>42.8</ele><time>2022-04-17T07:06:16.000Z</time></trkpt><trkpt lon="5.576557" lat="51.153358"><ele>43</ele><time>2022-04-17T07:06:17.000Z</time></trkpt><trkpt lon="5.576441" lat="51.153344"><ele>43</ele><time>2022-04-17T07:06:18.000Z</time></trkpt><trkpt lon="5.576327" lat="51.153331"><ele>43.2</ele><time>2022-04-17T07:06:19.000Z</time></trkpt><trkpt lon="5.576214" lat="51.153318"><ele>43.2</ele><time>2022-04-17T07:06:20.000Z</time></trkpt><trkpt lon="5.576104" lat="51.153309"><ele>43.2</ele><time>2022-04-17T07:06:21.000Z</time></trkpt><trkpt lon="5.575993" lat="51.153298"><ele>43.2</ele><time>2022-04-17T07:06:22.000Z</time></trkpt><trkpt lon="5.57588" lat="51.153288"><ele>43.2</ele><time>2022-04-17T07:06:23.000Z</time></trkpt><trkpt lon="5.575766" lat="51.153281"><ele>43.2</ele><time>2022-04-17T07:06:24.000Z</time></trkpt><trkpt lon="5.57565" lat="51.153275"><ele>43.2</ele><time>2022-04-17T07:06:25.000Z</time></trkpt><trkpt lon="5.575541" lat="51.153264"><ele>43.2</ele><time>2022-04-17T07:06:26.000Z</time></trkpt><trkpt lon="5.575428" lat="51.153253"><ele>43.2</ele><time>2022-04-17T07:06:27.000Z</time></trkpt><trkpt lon="5.575312" lat="51.153245"><ele>43.2</ele><time>2022-04-17T07:06:28.000Z</time></trkpt><trkpt lon="5.575197" lat="51.153233"><ele>43.2</ele><time>2022-04-17T07:06:29.000Z</time></trkpt><trkpt lon="5.575087" lat="51.153222"><ele>43.2</ele><time>2022-04-17T07:06:30.000Z</time></trkpt><trkpt lon="5.57499" lat="51.153209"><ele>43.2</ele><time>2022-04-17T07:06:31.000Z</time></trkpt><trkpt lon="5.574899" lat="51.153195"><ele>43.2</ele><time>2022-04-17T07:06:32.000Z</time></trkpt><trkpt lon="5.574817" lat="51.153182"><ele>43.2</ele><time>2022-04-17T07:06:33.000Z</time></trkpt><trkpt lon="5.574752" lat="51.153164"><ele>43.2</ele><time>2022-04-17T07:06:34.000Z</time></trkpt><trkpt lon="5.574673" lat="51.153137"><ele>43.4</ele><time>2022-04-17T07:06:35.000Z</time></trkpt><trkpt lon="5.574598" lat="51.153113"><ele>43.4</ele><time>2022-04-17T07:06:36.000Z</time></trkpt><trkpt lon="5.574533" lat="51.153096"><ele>43.6</ele><time>2022-04-17T07:06:37.000Z</time></trkpt><trkpt lon="5.574461" lat="51.153088"><ele>43.6</ele><time>2022-04-17T07:06:38.000Z</time></trkpt><trkpt lon="5.574383" lat="51.15309"><ele>43.6</ele><time>2022-04-17T07:06:39.000Z</time></trkpt><trkpt lon="5.574296" lat="51.153099"><ele>43.6</ele><time>2022-04-17T07:06:40.000Z</time></trkpt><trkpt lon="5.574192" lat="51.15311"><ele>43.6</ele><time>2022-04-17T07:06:41.000Z</time></trkpt><trkpt lon="5.57408" lat="51.153121"><ele>43.6</ele><time>2022-04-17T07:06:42.000Z</time></trkpt><trkpt lon="5.573967" lat="51.153131"><ele>43.6</ele><time>2022-04-17T07:06:43.000Z</time></trkpt><trkpt lon="5.573849" lat="51.153133"><ele>43.6</ele><time>2022-04-17T07:06:44.000Z</time></trkpt><trkpt lon="5.573733" lat="51.153132"><ele>43.6</ele><time>2022-04-17T07:06:45.000Z</time></trkpt><trkpt lon="5.573616" lat="51.153128"><ele>43.6</ele><time>2022-04-17T07:06:46.000Z</time></trkpt><trkpt lon="5.573495" lat="51.153124"><ele>43.6</ele><time>2022-04-17T07:06:47.000Z</time></trkpt><trkpt lon="5.573372" lat="51.153116"><ele>43.6</ele><time>2022-04-17T07:06:48.000Z</time></trkpt><trkpt lon="5.57325" lat="51.153109"><ele>43.4</ele><time>2022-04-17T07:06:49.000Z</time></trkpt><trkpt lon="5.573128" lat="51.153104"><ele>43.4</ele><time>2022-04-17T07:06:50.000Z</time></trkpt><trkpt lon="5.573007" lat="51.153097"><ele>43.4</ele><time>2022-04-17T07:06:51.000Z</time></trkpt><trkpt lon="5.572886" lat="51.15309"><ele>43.4</ele><time>2022-04-17T07:06:52.000Z</time></trkpt><trkpt lon="5.572765" lat="51.153086"><ele>43.4</ele><time>2022-04-17T07:06:53.000Z</time></trkpt><trkpt lon="5.572646" lat="51.153079"><ele>43.4</ele><time>2022-04-17T07:06:54.000Z</time></trkpt><trkpt lon="5.572523" lat="51.153074"><ele>43.4</ele><time>2022-04-17T07:06:55.000Z</time></trkpt><trkpt lon="5.572406" lat="51.153067"><ele>43.4</ele><time>2022-04-17T07:06:56.000Z</time></trkpt><trkpt lon="5.572286" lat="51.153063"><ele>43.4</ele><time>2022-04-17T07:06:57.000Z</time></trkpt><trkpt lon="5.572166" lat="51.153056"><ele>43.4</ele><time>2022-04-17T07:06:58.000Z</time></trkpt><trkpt lon="5.572043" lat="51.153051"><ele>43.2</ele><time>2022-04-17T07:06:59.000Z</time></trkpt><trkpt lon="5.571922" lat="51.153045"><ele>43.2</ele><time>2022-04-17T07:07:00.000Z</time></trkpt><trkpt lon="5.571803" lat="51.15304"><ele>43.2</ele><time>2022-04-17T07:07:01.000Z</time></trkpt><trkpt lon="5.571684" lat="51.153032"><ele>43.2</ele><time>2022-04-17T07:07:02.000Z</time></trkpt><trkpt lon="5.571571" lat="51.153026"><ele>43.2</ele><time>2022-04-17T07:07:03.000Z</time></trkpt><trkpt lon="5.571466" lat="51.153022"><ele>43.2</ele><time>2022-04-17T07:07:04.000Z</time></trkpt><trkpt lon="5.571336" lat="51.153014"><ele>43.2</ele><time>2022-04-17T07:07:05.000Z</time></trkpt><trkpt lon="5.571213" lat="51.153009"><ele>43.2</ele><time>2022-04-17T07:07:06.000Z</time></trkpt><trkpt lon="5.571095" lat="51.153003"><ele>43.2</ele><time>2022-04-17T07:07:07.000Z</time></trkpt><trkpt lon="5.570977" lat="51.152998"><ele>43.4</ele><time>2022-04-17T07:07:08.000Z</time></trkpt><trkpt lon="5.57086" lat="51.152991"><ele>43.4</ele><time>2022-04-17T07:07:09.000Z</time></trkpt><trkpt lon="5.570746" lat="51.152986"><ele>43.4</ele><time>2022-04-17T07:07:10.000Z</time></trkpt><trkpt lon="5.570634" lat="51.15298"><ele>43.4</ele><time>2022-04-17T07:07:11.000Z</time></trkpt><trkpt lon="5.570521" lat="51.152975"><ele>43.4</ele><time>2022-04-17T07:07:12.000Z</time></trkpt><trkpt lon="5.57041" lat="51.152967"><ele>43.4</ele><time>2022-04-17T07:07:13.000Z</time></trkpt><trkpt lon="5.570296" lat="51.152961"><ele>43.4</ele><time>2022-04-17T07:07:14.000Z</time></trkpt><trkpt lon="5.570184" lat="51.152957"><ele>43.4</ele><time>2022-04-17T07:07:15.000Z</time></trkpt><trkpt lon="5.570073" lat="51.152952"><ele>43.6</ele><time>2022-04-17T07:07:16.000Z</time></trkpt><trkpt lon="5.569959" lat="51.152945"><ele>43.6</ele><time>2022-04-17T07:07:17.000Z</time></trkpt><trkpt lon="5.569843" lat="51.15294"><ele>43.6</ele><time>2022-04-17T07:07:18.000Z</time></trkpt><trkpt lon="5.569733" lat="51.152934"><ele>43.6</ele><time>2022-04-17T07:07:19.000Z</time></trkpt><trkpt lon="5.569619" lat="51.152929"><ele>43.6</ele><time>2022-04-17T07:07:20.000Z</time></trkpt><trkpt lon="5.569505" lat="51.152923"><ele>43.8</ele><time>2022-04-17T07:07:21.000Z</time></trkpt><trkpt lon="5.569389" lat="51.152919"><ele>43.8</ele><time>2022-04-17T07:07:22.000Z</time></trkpt><trkpt lon="5.569277" lat="51.152914"><ele>43.8</ele><time>2022-04-17T07:07:23.000Z</time></trkpt><trkpt lon="5.569164" lat="51.152907"><ele>43.8</ele><time>2022-04-17T07:07:24.000Z</time></trkpt><trkpt lon="5.569052" lat="51.152902"><ele>43.8</ele><time>2022-04-17T07:07:25.000Z</time></trkpt><trkpt lon="5.568938" lat="51.152896"><ele>44</ele><time>2022-04-17T07:07:26.000Z</time></trkpt><trkpt lon="5.568825" lat="51.152893"><ele>44</ele><time>2022-04-17T07:07:27.000Z</time></trkpt><trkpt lon="5.568714" lat="51.152893"><ele>44</ele><time>2022-04-17T07:07:28.000Z</time></trkpt><trkpt lon="5.568602" lat="51.152892"><ele>44</ele><time>2022-04-17T07:07:29.000Z</time></trkpt><trkpt lon="5.56849" lat="51.152889"><ele>43.8</ele><time>2022-04-17T07:07:30.000Z</time></trkpt><trkpt lon="5.568378" lat="51.152888"><ele>44</ele><time>2022-04-17T07:07:31.000Z</time></trkpt><trkpt lon="5.568264" lat="51.152885"><ele>44</ele><time>2022-04-17T07:07:32.000Z</time></trkpt><trkpt lon="5.568157" lat="51.152885"><ele>44</ele><time>2022-04-17T07:07:33.000Z</time></trkpt><trkpt lon="5.568057" lat="51.152885"><ele>44</ele><time>2022-04-17T07:07:34.000Z</time></trkpt><trkpt lon="5.567924" lat="51.152887"><ele>44</ele><time>2022-04-17T07:07:35.000Z</time></trkpt><trkpt lon="5.567809" lat="51.152888"><ele>44</ele><time>2022-04-17T07:07:36.000Z</time></trkpt><trkpt lon="5.567696" lat="51.152885"><ele>44.2</ele><time>2022-04-17T07:07:37.000Z</time></trkpt><trkpt lon="5.567581" lat="51.152885"><ele>44.2</ele><time>2022-04-17T07:07:38.000Z</time></trkpt><trkpt lon="5.567466" lat="51.152885"><ele>44.2</ele><time>2022-04-17T07:07:39.000Z</time></trkpt><trkpt lon="5.567349" lat="51.152885"><ele>44.2</ele><time>2022-04-17T07:07:40.000Z</time></trkpt><trkpt lon="5.567233" lat="51.152884"><ele>44.4</ele><time>2022-04-17T07:07:41.000Z</time></trkpt><trkpt lon="5.567118" lat="51.152882"><ele>44.4</ele><time>2022-04-17T07:07:42.000Z</time></trkpt><trkpt lon="5.567005" lat="51.152881"><ele>44.4</ele><time>2022-04-17T07:07:43.000Z</time></trkpt><trkpt lon="5.566893" lat="51.152876"><ele>44.4</ele><time>2022-04-17T07:07:44.000Z</time></trkpt><trkpt lon="5.566778" lat="51.152868"><ele>44.6</ele><time>2022-04-17T07:07:45.000Z</time></trkpt><trkpt lon="5.566664" lat="51.15286"><ele>44.6</ele><time>2022-04-17T07:07:46.000Z</time></trkpt><trkpt lon="5.566552" lat="51.152852"><ele>44.6</ele><time>2022-04-17T07:07:47.000Z</time></trkpt><trkpt lon="5.566442" lat="51.152839"><ele>44.6</ele><time>2022-04-17T07:07:48.000Z</time></trkpt><trkpt lon="5.566332" lat="51.152823"><ele>44.6</ele><time>2022-04-17T07:07:49.000Z</time></trkpt><trkpt lon="5.566224" lat="51.152804"><ele>44.8</ele><time>2022-04-17T07:07:50.000Z</time></trkpt><trkpt lon="5.56612" lat="51.152786"><ele>44.8</ele><time>2022-04-17T07:07:51.000Z</time></trkpt><trkpt lon="5.566016" lat="51.152769"><ele>44.8</ele><time>2022-04-17T07:07:52.000Z</time></trkpt><trkpt lon="5.56591" lat="51.152751"><ele>44.8</ele><time>2022-04-17T07:07:53.000Z</time></trkpt><trkpt lon="5.5658" lat="51.152736"><ele>44.8</ele><time>2022-04-17T07:07:54.000Z</time></trkpt><trkpt lon="5.565688" lat="51.15272"><ele>44.8</ele><time>2022-04-17T07:07:55.000Z</time></trkpt><trkpt lon="5.565578" lat="51.152702"><ele>44.8</ele><time>2022-04-17T07:07:56.000Z</time></trkpt><trkpt lon="5.565469" lat="51.152686"><ele>44.8</ele><time>2022-04-17T07:07:57.000Z</time></trkpt><trkpt lon="5.565357" lat="51.152668"><ele>44.8</ele><time>2022-04-17T07:07:58.000Z</time></trkpt><trkpt lon="5.565246" lat="51.152651"><ele>44.8</ele><time>2022-04-17T07:07:59.000Z</time></trkpt><trkpt lon="5.565136" lat="51.152633"><ele>45</ele><time>2022-04-17T07:08:00.000Z</time></trkpt><trkpt lon="5.565026" lat="51.152617"><ele>45</ele><time>2022-04-17T07:08:01.000Z</time></trkpt><trkpt lon="5.564916" lat="51.152598"><ele>45</ele><time>2022-04-17T07:08:02.000Z</time></trkpt><trkpt lon="5.564807" lat="51.152579"><ele>45</ele><time>2022-04-17T07:08:03.000Z</time></trkpt><trkpt lon="5.564699" lat="51.152561"><ele>45</ele><time>2022-04-17T07:08:04.000Z</time></trkpt><trkpt lon="5.56459" lat="51.152544"><ele>45.2</ele><time>2022-04-17T07:08:05.000Z</time></trkpt><trkpt lon="5.564481" lat="51.152526"><ele>45.2</ele><time>2022-04-17T07:08:06.000Z</time></trkpt><trkpt lon="5.564375" lat="51.152511"><ele>45.2</ele><time>2022-04-17T07:08:07.000Z</time></trkpt><trkpt lon="5.564268" lat="51.152495"><ele>45.2</ele><time>2022-04-17T07:08:08.000Z</time></trkpt><trkpt lon="5.564165" lat="51.152477"><ele>45.2</ele><time>2022-04-17T07:08:09.000Z</time></trkpt><trkpt lon="5.564062" lat="51.152462"><ele>45.2</ele><time>2022-04-17T07:08:10.000Z</time></trkpt><trkpt lon="5.563958" lat="51.152445"><ele>45.2</ele><time>2022-04-17T07:08:11.000Z</time></trkpt><trkpt lon="5.563854" lat="51.152427"><ele>45.4</ele><time>2022-04-17T07:08:12.000Z</time></trkpt><trkpt lon="5.563754" lat="51.152411"><ele>45.4</ele><time>2022-04-17T07:08:13.000Z</time></trkpt><trkpt lon="5.563655" lat="51.152393"><ele>45.4</ele><time>2022-04-17T07:08:14.000Z</time></trkpt><trkpt lon="5.563557" lat="51.152376"><ele>45.4</ele><time>2022-04-17T07:08:15.000Z</time></trkpt><trkpt lon="5.563459" lat="51.152359"><ele>45.4</ele><time>2022-04-17T07:08:16.000Z</time></trkpt><trkpt lon="5.563363" lat="51.152343"><ele>45.4</ele><time>2022-04-17T07:08:17.000Z</time></trkpt><trkpt lon="5.563263" lat="51.152327"><ele>45.4</ele><time>2022-04-17T07:08:18.000Z</time></trkpt><trkpt lon="5.563167" lat="51.15231"><ele>45.4</ele><time>2022-04-17T07:08:19.000Z</time></trkpt><trkpt lon="5.563071" lat="51.152297"><ele>45.4</ele><time>2022-04-17T07:08:20.000Z</time></trkpt><trkpt lon="5.56298" lat="51.152283"><ele>45.4</ele><time>2022-04-17T07:08:21.000Z</time></trkpt><trkpt lon="5.562897" lat="51.152271"><ele>45.4</ele><time>2022-04-17T07:08:22.000Z</time></trkpt><trkpt lon="5.562821" lat="51.152256"><ele>45.4</ele><time>2022-04-17T07:08:23.000Z</time></trkpt><trkpt lon="5.562749" lat="51.152245"><ele>45.4</ele><time>2022-04-17T07:08:24.000Z</time></trkpt><trkpt lon="5.562681" lat="51.152237"><ele>45.4</ele><time>2022-04-17T07:08:25.000Z</time></trkpt><trkpt lon="5.562621" lat="51.152241"><ele>45.2</ele><time>2022-04-17T07:08:26.000Z</time></trkpt><trkpt lon="5.562569" lat="51.152262"><ele>45.2</ele><time>2022-04-17T07:08:27.000Z</time></trkpt><trkpt lon="5.56253" lat="51.1523"><ele>45.2</ele><time>2022-04-17T07:08:28.000Z</time></trkpt><trkpt lon="5.562498" lat="51.152355"><ele>45</ele><time>2022-04-17T07:08:29.000Z</time></trkpt><trkpt lon="5.562468" lat="51.152421"><ele>45</ele><time>2022-04-17T07:08:30.000Z</time></trkpt><trkpt lon="5.562433" lat="51.152489"><ele>44.8</ele><time>2022-04-17T07:08:31.000Z</time></trkpt><trkpt lon="5.562398" lat="51.152559"><ele>44.8</ele><time>2022-04-17T07:08:32.000Z</time></trkpt><trkpt lon="5.562363" lat="51.15263"><ele>44.8</ele><time>2022-04-17T07:08:33.000Z</time></trkpt><trkpt lon="5.562329" lat="51.152699"><ele>44.8</ele><time>2022-04-17T07:08:34.000Z</time></trkpt><trkpt lon="5.562294" lat="51.152768"><ele>44.8</ele><time>2022-04-17T07:08:35.000Z</time></trkpt><trkpt lon="5.56226" lat="51.152836"><ele>44.8</ele><time>2022-04-17T07:08:36.000Z</time></trkpt><trkpt lon="5.562225" lat="51.152901"><ele>44.8</ele><time>2022-04-17T07:08:37.000Z</time></trkpt><trkpt lon="5.56219" lat="51.152966"><ele>44.8</ele><time>2022-04-17T07:08:38.000Z</time></trkpt><trkpt lon="5.562153" lat="51.153034"><ele>44.8</ele><time>2022-04-17T07:08:39.000Z</time></trkpt><trkpt lon="5.562116" lat="51.1531"><ele>44.8</ele><time>2022-04-17T07:08:40.000Z</time></trkpt><trkpt lon="5.562077" lat="51.153168"><ele>44.6</ele><time>2022-04-17T07:08:41.000Z</time></trkpt><trkpt lon="5.562038" lat="51.153238"><ele>44.6</ele><time>2022-04-17T07:08:42.000Z</time></trkpt><trkpt lon="5.562002" lat="51.153309"><ele>44.6</ele><time>2022-04-17T07:08:43.000Z</time></trkpt><trkpt lon="5.561967" lat="51.153379"><ele>44.4</ele><time>2022-04-17T07:08:44.000Z</time></trkpt><trkpt lon="5.561936" lat="51.153449"><ele>44.4</ele><time>2022-04-17T07:08:45.000Z</time></trkpt><trkpt lon="5.561902" lat="51.153523"><ele>44.2</ele><time>2022-04-17T07:08:46.000Z</time></trkpt><trkpt lon="5.561869" lat="51.153591"><ele>44.2</ele><time>2022-04-17T07:08:47.000Z</time></trkpt><trkpt lon="5.561837" lat="51.153655"><ele>44.2</ele><time>2022-04-17T07:08:48.000Z</time></trkpt><trkpt lon="5.561803" lat="51.15372"><ele>44.2</ele><time>2022-04-17T07:08:49.000Z</time></trkpt><trkpt lon="5.561771" lat="51.153789"><ele>44.2</ele><time>2022-04-17T07:08:50.000Z</time></trkpt><trkpt lon="5.561743" lat="51.153854"><ele>44.2</ele><time>2022-04-17T07:08:51.000Z</time></trkpt><trkpt lon="5.561718" lat="51.153923"><ele>44.2</ele><time>2022-04-17T07:08:52.000Z</time></trkpt><trkpt lon="5.561698" lat="51.153992"><ele>44.2</ele><time>2022-04-17T07:08:53.000Z</time></trkpt><trkpt lon="5.56168" lat="51.154059"><ele>44.2</ele><time>2022-04-17T07:08:54.000Z</time></trkpt><trkpt lon="5.561662" lat="51.154124"><ele>44.4</ele><time>2022-04-17T07:08:55.000Z</time></trkpt><trkpt lon="5.561645" lat="51.154189"><ele>44.4</ele><time>2022-04-17T07:08:56.000Z</time></trkpt><trkpt lon="5.561628" lat="51.15425"><ele>44.4</ele><time>2022-04-17T07:08:57.000Z</time></trkpt><trkpt lon="5.561613" lat="51.154309"><ele>44.4</ele><time>2022-04-17T07:08:58.000Z</time></trkpt><trkpt lon="5.5616" lat="51.154367"><ele>44.4</ele><time>2022-04-17T07:08:59.000Z</time></trkpt><trkpt lon="5.561589" lat="51.154423"><ele>44.2</ele><time>2022-04-17T07:09:00.000Z</time></trkpt><trkpt lon="5.561562" lat="51.154474"><ele>44.2</ele><time>2022-04-17T07:09:01.000Z</time></trkpt><trkpt lon="5.561518" lat="51.154518"><ele>44.2</ele><time>2022-04-17T07:09:02.000Z</time></trkpt><trkpt lon="5.561458" lat="51.154562"><ele>44.2</ele><time>2022-04-17T07:09:03.000Z</time></trkpt><trkpt lon="5.561396" lat="51.154608"><ele>44.4</ele><time>2022-04-17T07:09:04.000Z</time></trkpt><trkpt lon="5.561337" lat="51.154657"><ele>44.6</ele><time>2022-04-17T07:09:05.000Z</time></trkpt><trkpt lon="5.561276" lat="51.15471"><ele>44.8</ele><time>2022-04-17T07:09:06.000Z</time></trkpt><trkpt lon="5.561215" lat="51.154767"><ele>45.2</ele><time>2022-04-17T07:09:07.000Z</time></trkpt><trkpt lon="5.56115" lat="51.154823"><ele>45.4</ele><time>2022-04-17T07:09:08.000Z</time></trkpt><trkpt lon="5.561085" lat="51.154877"><ele>45.8</ele><time>2022-04-17T07:09:09.000Z</time></trkpt><trkpt lon="5.561018" lat="51.15493"><ele>46</ele><time>2022-04-17T07:09:10.000Z</time></trkpt><trkpt lon="5.560951" lat="51.154981"><ele>46.2</ele><time>2022-04-17T07:09:11.000Z</time></trkpt><trkpt lon="5.560882" lat="51.155032"><ele>46.4</ele><time>2022-04-17T07:09:12.000Z</time></trkpt><trkpt lon="5.560816" lat="51.155081"><ele>46.6</ele><time>2022-04-17T07:09:13.000Z</time></trkpt><trkpt lon="5.560747" lat="51.155131"><ele>46.6</ele><time>2022-04-17T07:09:14.000Z</time></trkpt><trkpt lon="5.560677" lat="51.155181"><ele>46.8</ele><time>2022-04-17T07:09:15.000Z</time></trkpt><trkpt lon="5.560609" lat="51.155231"><ele>46.8</ele><time>2022-04-17T07:09:16.000Z</time></trkpt><trkpt lon="5.560537" lat="51.155284"><ele>46.8</ele><time>2022-04-17T07:09:17.000Z</time></trkpt><trkpt lon="5.560462" lat="51.155332"><ele>47</ele><time>2022-04-17T07:09:18.000Z</time></trkpt><trkpt lon="5.560386" lat="51.155379"><ele>47.2</ele><time>2022-04-17T07:09:19.000Z</time></trkpt><trkpt lon="5.560314" lat="51.155428"><ele>47.2</ele><time>2022-04-17T07:09:20.000Z</time></trkpt><trkpt lon="5.560241" lat="51.155474"><ele>47.4</ele><time>2022-04-17T07:09:21.000Z</time></trkpt><trkpt lon="5.560169" lat="51.155523"><ele>47.4</ele><time>2022-04-17T07:09:22.000Z</time></trkpt><trkpt lon="5.560091" lat="51.155574"><ele>47.4</ele><time>2022-04-17T07:09:23.000Z</time></trkpt><trkpt lon="5.560015" lat="51.155623"><ele>47.6</ele><time>2022-04-17T07:09:24.000Z</time></trkpt><trkpt lon="5.559939" lat="51.155672"><ele>47.6</ele><time>2022-04-17T07:09:25.000Z</time></trkpt><trkpt lon="5.559861" lat="51.155723"><ele>47.6</ele><time>2022-04-17T07:09:26.000Z</time></trkpt><trkpt lon="5.559786" lat="51.155772"><ele>47.6</ele><time>2022-04-17T07:09:27.000Z</time></trkpt><trkpt lon="5.55971" lat="51.155822"><ele>47.6</ele><time>2022-04-17T07:09:28.000Z</time></trkpt><trkpt lon="5.559633" lat="51.155874"><ele>47.6</ele><time>2022-04-17T07:09:29.000Z</time></trkpt><trkpt lon="5.559556" lat="51.155922"><ele>47.8</ele><time>2022-04-17T07:09:30.000Z</time></trkpt><trkpt lon="5.55948" lat="51.155974"><ele>47.8</ele><time>2022-04-17T07:09:31.000Z</time></trkpt><trkpt lon="5.559405" lat="51.156024"><ele>47.8</ele><time>2022-04-17T07:09:32.000Z</time></trkpt><trkpt lon="5.55933" lat="51.156073"><ele>47.8</ele><time>2022-04-17T07:09:33.000Z</time></trkpt><trkpt lon="5.559255" lat="51.156119"><ele>47.8</ele><time>2022-04-17T07:09:34.000Z</time></trkpt><trkpt lon="5.559181" lat="51.156168"><ele>47.8</ele><time>2022-04-17T07:09:35.000Z</time></trkpt><trkpt lon="5.559105" lat="51.156216"><ele>48</ele><time>2022-04-17T07:09:36.000Z</time></trkpt><trkpt lon="5.55903" lat="51.156268"><ele>47.8</ele><time>2022-04-17T07:09:37.000Z</time></trkpt><trkpt lon="5.558958" lat="51.156316"><ele>47.8</ele><time>2022-04-17T07:09:38.000Z</time></trkpt><trkpt lon="5.558882" lat="51.15637"><ele>48</ele><time>2022-04-17T07:09:39.000Z</time></trkpt><trkpt lon="5.55881" lat="51.156425"><ele>48</ele><time>2022-04-17T07:09:40.000Z</time></trkpt><trkpt lon="5.55874" lat="51.156476"><ele>48</ele><time>2022-04-17T07:09:41.000Z</time></trkpt><trkpt lon="5.558672" lat="51.156532"><ele>48</ele><time>2022-04-17T07:09:42.000Z</time></trkpt><trkpt lon="5.558607" lat="51.156587"><ele>48</ele><time>2022-04-17T07:09:43.000Z</time></trkpt><trkpt lon="5.558542" lat="51.156644"><ele>48</ele><time>2022-04-17T07:09:44.000Z</time></trkpt><trkpt lon="5.558484" lat="51.156701"><ele>47.8</ele><time>2022-04-17T07:09:45.000Z</time></trkpt><trkpt lon="5.558431" lat="51.156758"><ele>47.8</ele><time>2022-04-17T07:09:46.000Z</time></trkpt><trkpt lon="5.558376" lat="51.15682"><ele>47.8</ele><time>2022-04-17T07:09:47.000Z</time></trkpt><trkpt lon="5.558323" lat="51.156878"><ele>48</ele><time>2022-04-17T07:09:48.000Z</time></trkpt><trkpt lon="5.558271" lat="51.156938"><ele>48</ele><time>2022-04-17T07:09:49.000Z</time></trkpt><trkpt lon="5.558218" lat="51.157"><ele>48</ele><time>2022-04-17T07:09:50.000Z</time></trkpt><trkpt lon="5.558168" lat="51.157061"><ele>48</ele><time>2022-04-17T07:09:51.000Z</time></trkpt><trkpt lon="5.558116" lat="51.157122"><ele>48</ele><time>2022-04-17T07:09:52.000Z</time></trkpt><trkpt lon="5.558063" lat="51.157183"><ele>48</ele><time>2022-04-17T07:09:53.000Z</time></trkpt><trkpt lon="5.558012" lat="51.157244"><ele>48</ele><time>2022-04-17T07:09:54.000Z</time></trkpt><trkpt lon="5.557963" lat="51.157306"><ele>48</ele><time>2022-04-17T07:09:55.000Z</time></trkpt><trkpt lon="5.557915" lat="51.15737"><ele>48</ele><time>2022-04-17T07:09:56.000Z</time></trkpt><trkpt lon="5.557872" lat="51.157432"><ele>47.8</ele><time>2022-04-17T07:09:57.000Z</time></trkpt><trkpt lon="5.557833" lat="51.157496"><ele>47.8</ele><time>2022-04-17T07:09:58.000Z</time></trkpt><trkpt lon="5.557796" lat="51.157563"><ele>47.8</ele><time>2022-04-17T07:09:59.000Z</time></trkpt><trkpt lon="5.557763" lat="51.157631"><ele>47.8</ele><time>2022-04-17T07:10:00.000Z</time></trkpt><trkpt lon="5.557732" lat="51.157695"><ele>47.8</ele><time>2022-04-17T07:10:01.000Z</time></trkpt><trkpt lon="5.557699" lat="51.157761"><ele>47.8</ele><time>2022-04-17T07:10:02.000Z</time></trkpt><trkpt lon="5.557665" lat="51.15783"><ele>47.8</ele><time>2022-04-17T07:10:03.000Z</time></trkpt><trkpt lon="5.55763" lat="51.157898"><ele>47.6</ele><time>2022-04-17T07:10:04.000Z</time></trkpt><trkpt lon="5.557597" lat="51.157964"><ele>47.6</ele><time>2022-04-17T07:10:05.000Z</time></trkpt><trkpt lon="5.557566" lat="51.158033"><ele>47.6</ele><time>2022-04-17T07:10:06.000Z</time></trkpt><trkpt lon="5.557534" lat="51.1581"><ele>47.6</ele><time>2022-04-17T07:10:07.000Z</time></trkpt><trkpt lon="5.557503" lat="51.158165"><ele>47.6</ele><time>2022-04-17T07:10:08.000Z</time></trkpt><trkpt lon="5.557471" lat="51.158228"><ele>47.6</ele><time>2022-04-17T07:10:09.000Z</time></trkpt><trkpt lon="5.557436" lat="51.158289"><ele>47.6</ele><time>2022-04-17T07:10:10.000Z</time></trkpt><trkpt lon="5.557398" lat="51.158348"><ele>47.6</ele><time>2022-04-17T07:10:11.000Z</time></trkpt><trkpt lon="5.557357" lat="51.158401"><ele>47.6</ele><time>2022-04-17T07:10:12.000Z</time></trkpt><trkpt lon="5.557309" lat="51.158453"><ele>47.6</ele><time>2022-04-17T07:10:13.000Z</time></trkpt><trkpt lon="5.557255" lat="51.158502"><ele>47.6</ele><time>2022-04-17T07:10:14.000Z</time></trkpt><trkpt lon="5.557203" lat="51.158549"><ele>47.4</ele><time>2022-04-17T07:10:15.000Z</time></trkpt><trkpt lon="5.557171" lat="51.158597"><ele>47.4</ele><time>2022-04-17T07:10:16.000Z</time></trkpt><trkpt lon="5.557173" lat="51.158642"><ele>47.4</ele><time>2022-04-17T07:10:17.000Z</time></trkpt><trkpt lon="5.557212" lat="51.158684"><ele>47.2</ele><time>2022-04-17T07:10:18.000Z</time></trkpt><trkpt lon="5.55728" lat="51.158726"><ele>47.2</ele><time>2022-04-17T07:10:19.000Z</time></trkpt><trkpt lon="5.557364" lat="51.158768"><ele>47.2</ele><time>2022-04-17T07:10:20.000Z</time></trkpt><trkpt lon="5.557455" lat="51.15881"><ele>47.2</ele><time>2022-04-17T07:10:21.000Z</time></trkpt><trkpt lon="5.557549" lat="51.158853"><ele>47.4</ele><time>2022-04-17T07:10:22.000Z</time></trkpt><trkpt lon="5.557642" lat="51.158897"><ele>47.2</ele><time>2022-04-17T07:10:23.000Z</time></trkpt><trkpt lon="5.557736" lat="51.15894"><ele>47.2</ele><time>2022-04-17T07:10:24.000Z</time></trkpt><trkpt lon="5.557829" lat="51.158982"><ele>46.8</ele><time>2022-04-17T07:10:25.000Z</time></trkpt><trkpt lon="5.557924" lat="51.159024"><ele>46.6</ele><time>2022-04-17T07:10:26.000Z</time></trkpt><trkpt lon="5.55802" lat="51.159064"><ele>46.2</ele><time>2022-04-17T07:10:27.000Z</time></trkpt><trkpt lon="5.558118" lat="51.159104"><ele>45.8</ele><time>2022-04-17T07:10:28.000Z</time></trkpt><trkpt lon="5.558217" lat="51.159145"><ele>45.6</ele><time>2022-04-17T07:10:29.000Z</time></trkpt><trkpt lon="5.558315" lat="51.159184"><ele>45.4</ele><time>2022-04-17T07:10:30.000Z</time></trkpt><trkpt lon="5.558416" lat="51.159225"><ele>45.2</ele><time>2022-04-17T07:10:31.000Z</time></trkpt><trkpt lon="5.558518" lat="51.159263"><ele>45</ele><time>2022-04-17T07:10:32.000Z</time></trkpt><trkpt lon="5.558619" lat="51.159299"><ele>44.8</ele><time>2022-04-17T07:10:33.000Z</time></trkpt><trkpt lon="5.558724" lat="51.159334"><ele>44.8</ele><time>2022-04-17T07:10:34.000Z</time></trkpt><trkpt lon="5.558826" lat="51.159369"><ele>45</ele><time>2022-04-17T07:10:35.000Z</time></trkpt><trkpt lon="5.558926" lat="51.159403"><ele>45</ele><time>2022-04-17T07:10:36.000Z</time></trkpt><trkpt lon="5.559028" lat="51.159438"><ele>44.8</ele><time>2022-04-17T07:10:37.000Z</time></trkpt><trkpt lon="5.559132" lat="51.159472"><ele>44.8</ele><time>2022-04-17T07:10:38.000Z</time></trkpt><trkpt lon="5.559234" lat="51.159506"><ele>44.6</ele><time>2022-04-17T07:10:39.000Z</time></trkpt><trkpt lon="5.559336" lat="51.15954"><ele>44.6</ele><time>2022-04-17T07:10:40.000Z</time></trkpt><trkpt lon="5.559437" lat="51.159574"><ele>44.8</ele><time>2022-04-17T07:10:41.000Z</time></trkpt><trkpt lon="5.559537" lat="51.159609"><ele>44.8</ele><time>2022-04-17T07:10:42.000Z</time></trkpt><trkpt lon="5.55964" lat="51.159643"><ele>44.8</ele><time>2022-04-17T07:10:43.000Z</time></trkpt><trkpt lon="5.559744" lat="51.159678"><ele>44.6</ele><time>2022-04-17T07:10:44.000Z</time></trkpt><trkpt lon="5.559848" lat="51.159712"><ele>44.4</ele><time>2022-04-17T07:10:45.000Z</time></trkpt><trkpt lon="5.559951" lat="51.159746"><ele>44.2</ele><time>2022-04-17T07:10:46.000Z</time></trkpt><trkpt lon="5.560055" lat="51.159781"><ele>44.2</ele><time>2022-04-17T07:10:47.000Z</time></trkpt><trkpt lon="5.560157" lat="51.159815"><ele>44.2</ele><time>2022-04-17T07:10:48.000Z</time></trkpt><trkpt lon="5.560259" lat="51.159848"><ele>44.2</ele><time>2022-04-17T07:10:49.000Z</time></trkpt><trkpt lon="5.560361" lat="51.159879"><ele>44.2</ele><time>2022-04-17T07:10:50.000Z</time></trkpt><trkpt lon="5.560464" lat="51.159909"><ele>44.2</ele><time>2022-04-17T07:10:51.000Z</time></trkpt><trkpt lon="5.560569" lat="51.159939"><ele>44.2</ele><time>2022-04-17T07:10:52.000Z</time></trkpt><trkpt lon="5.560673" lat="51.159965"><ele>44.2</ele><time>2022-04-17T07:10:53.000Z</time></trkpt><trkpt lon="5.56078" lat="51.159993"><ele>44.2</ele><time>2022-04-17T07:10:54.000Z</time></trkpt><trkpt lon="5.560886" lat="51.160023"><ele>44.2</ele><time>2022-04-17T07:10:55.000Z</time></trkpt><trkpt lon="5.56099" lat="51.160051"><ele>44</ele><time>2022-04-17T07:10:56.000Z</time></trkpt><trkpt lon="5.561091" lat="51.160082"><ele>44</ele><time>2022-04-17T07:10:57.000Z</time></trkpt><trkpt lon="5.561186" lat="51.160119"><ele>44</ele><time>2022-04-17T07:10:58.000Z</time></trkpt><trkpt lon="5.561271" lat="51.160166"><ele>43.8</ele><time>2022-04-17T07:10:59.000Z</time></trkpt><trkpt lon="5.561352" lat="51.160223"><ele>43.8</ele><time>2022-04-17T07:11:00.000Z</time></trkpt><trkpt lon="5.561422" lat="51.160284"><ele>43.6</ele><time>2022-04-17T07:11:01.000Z</time></trkpt><trkpt lon="5.561487" lat="51.160341"><ele>43.6</ele><time>2022-04-17T07:11:02.000Z</time></trkpt><trkpt lon="5.561551" lat="51.160397"><ele>43.4</ele><time>2022-04-17T07:11:03.000Z</time></trkpt><trkpt lon="5.561613" lat="51.160455"><ele>43.4</ele><time>2022-04-17T07:11:04.000Z</time></trkpt><trkpt lon="5.561676" lat="51.160512"><ele>43.2</ele><time>2022-04-17T07:11:05.000Z</time></trkpt><trkpt lon="5.56174" lat="51.16057"><ele>43.2</ele><time>2022-04-17T07:11:06.000Z</time></trkpt><trkpt lon="5.561801" lat="51.160626"><ele>43.4</ele><time>2022-04-17T07:11:07.000Z</time></trkpt><trkpt lon="5.561861" lat="51.160679"><ele>43.4</ele><time>2022-04-17T07:11:08.000Z</time></trkpt><trkpt lon="5.561922" lat="51.160732"><ele>43.6</ele><time>2022-04-17T07:11:09.000Z</time></trkpt><trkpt lon="5.561983" lat="51.160782"><ele>43.6</ele><time>2022-04-17T07:11:10.000Z</time></trkpt><trkpt lon="5.562043" lat="51.160833"><ele>43.8</ele><time>2022-04-17T07:11:11.000Z</time></trkpt><trkpt lon="5.562102" lat="51.160879"><ele>43.8</ele><time>2022-04-17T07:11:12.000Z</time></trkpt><trkpt lon="5.562157" lat="51.160925"><ele>44</ele><time>2022-04-17T07:11:13.000Z</time></trkpt><trkpt lon="5.562208" lat="51.160968"><ele>44</ele><time>2022-04-17T07:11:14.000Z</time></trkpt><trkpt lon="5.562253" lat="51.161007"><ele>44</ele><time>2022-04-17T07:11:15.000Z</time></trkpt><trkpt lon="5.562281" lat="51.161051"><ele>44.2</ele><time>2022-04-17T07:11:16.000Z</time></trkpt><trkpt lon="5.562282" lat="51.161096"><ele>44.2</ele><time>2022-04-17T07:11:17.000Z</time></trkpt><trkpt lon="5.562259" lat="51.161141"><ele>44.2</ele><time>2022-04-17T07:11:18.000Z</time></trkpt><trkpt lon="5.562215" lat="51.161184"><ele>44.2</ele><time>2022-04-17T07:11:19.000Z</time></trkpt><trkpt lon="5.562161" lat="51.161231"><ele>44.2</ele><time>2022-04-17T07:11:20.000Z</time></trkpt><trkpt lon="5.562103" lat="51.161281"><ele>44.2</ele><time>2022-04-17T07:11:21.000Z</time></trkpt><trkpt lon="5.562045" lat="51.16133"><ele>44.2</ele><time>2022-04-17T07:11:22.000Z</time></trkpt><trkpt lon="5.561985" lat="51.161381"><ele>44</ele><time>2022-04-17T07:11:23.000Z</time></trkpt><trkpt lon="5.561921" lat="51.161436"><ele>44</ele><time>2022-04-17T07:11:24.000Z</time></trkpt><trkpt lon="5.561856" lat="51.161492"><ele>44</ele><time>2022-04-17T07:11:25.000Z</time></trkpt><trkpt lon="5.561793" lat="51.161546"><ele>44</ele><time>2022-04-17T07:11:26.000Z</time></trkpt><trkpt lon="5.56173" lat="51.161601"><ele>44</ele><time>2022-04-17T07:11:27.000Z</time></trkpt><trkpt lon="5.561667" lat="51.161657"><ele>43.8</ele><time>2022-04-17T07:11:28.000Z</time></trkpt><trkpt lon="5.561602" lat="51.161718"><ele>43.8</ele><time>2022-04-17T07:11:29.000Z</time></trkpt><trkpt lon="5.561539" lat="51.161776"><ele>44</ele><time>2022-04-17T07:11:30.000Z</time></trkpt><trkpt lon="5.561475" lat="51.161836"><ele>44</ele><time>2022-04-17T07:11:31.000Z</time></trkpt><trkpt lon="5.56141" lat="51.161893"><ele>44</ele><time>2022-04-17T07:11:32.000Z</time></trkpt><trkpt lon="5.561344" lat="51.16195"><ele>44</ele><time>2022-04-17T07:11:33.000Z</time></trkpt><trkpt lon="5.561277" lat="51.162007"><ele>44</ele><time>2022-04-17T07:11:34.000Z</time></trkpt><trkpt lon="5.561209" lat="51.162064"><ele>43.8</ele><time>2022-04-17T07:11:35.000Z</time></trkpt><trkpt lon="5.561144" lat="51.162119"><ele>43.8</ele><time>2022-04-17T07:11:36.000Z</time></trkpt><trkpt lon="5.561082" lat="51.162176"><ele>43.8</ele><time>2022-04-17T07:11:37.000Z</time></trkpt><trkpt lon="5.561021" lat="51.162233"><ele>44</ele><time>2022-04-17T07:11:38.000Z</time></trkpt><trkpt lon="5.560958" lat="51.162289"><ele>44</ele><time>2022-04-17T07:11:39.000Z</time></trkpt><trkpt lon="5.560895" lat="51.162342"><ele>44</ele><time>2022-04-17T07:11:40.000Z</time></trkpt><trkpt lon="5.560831" lat="51.162396"><ele>44.2</ele><time>2022-04-17T07:11:41.000Z</time></trkpt><trkpt lon="5.560764" lat="51.162455"><ele>44.2</ele><time>2022-04-17T07:11:42.000Z</time></trkpt><trkpt lon="5.560698" lat="51.162514"><ele>44</ele><time>2022-04-17T07:11:43.000Z</time></trkpt><trkpt lon="5.560633" lat="51.16257"><ele>44</ele><time>2022-04-17T07:11:44.000Z</time></trkpt><trkpt lon="5.560569" lat="51.162629"><ele>44.2</ele><time>2022-04-17T07:11:45.000Z</time></trkpt><trkpt lon="5.560504" lat="51.162685"><ele>44.2</ele><time>2022-04-17T07:11:46.000Z</time></trkpt><trkpt lon="5.560446" lat="51.162737"><ele>44.2</ele><time>2022-04-17T07:11:47.000Z</time></trkpt><trkpt lon="5.560395" lat="51.162791"><ele>44</ele><time>2022-04-17T07:11:48.000Z</time></trkpt><trkpt lon="5.560352" lat="51.162839"><ele>44</ele><time>2022-04-17T07:11:49.000Z</time></trkpt><trkpt lon="5.560307" lat="51.16288"><ele>44</ele><time>2022-04-17T07:11:50.000Z</time></trkpt><trkpt lon="5.560253" lat="51.162918"><ele>44</ele><time>2022-04-17T07:11:51.000Z</time></trkpt><trkpt lon="5.56019" lat="51.162958"><ele>44.2</ele><time>2022-04-17T07:11:52.000Z</time></trkpt><trkpt lon="5.560122" lat="51.163002"><ele>44.2</ele><time>2022-04-17T07:11:53.000Z</time></trkpt><trkpt lon="5.56005" lat="51.163043"><ele>44.2</ele><time>2022-04-17T07:11:54.000Z</time></trkpt><trkpt lon="5.559975" lat="51.163082"><ele>44.4</ele><time>2022-04-17T07:11:55.000Z</time></trkpt><trkpt lon="5.559902" lat="51.163119"><ele>44.4</ele><time>2022-04-17T07:11:56.000Z</time></trkpt><trkpt lon="5.559827" lat="51.163159"><ele>44.4</ele><time>2022-04-17T07:11:57.000Z</time></trkpt><trkpt lon="5.559745" lat="51.163204"><ele>44.4</ele><time>2022-04-17T07:11:58.000Z</time></trkpt><trkpt lon="5.55966" lat="51.163258"><ele>44.4</ele><time>2022-04-17T07:11:59.000Z</time></trkpt><trkpt lon="5.559582" lat="51.163312"><ele>44.4</ele><time>2022-04-17T07:12:00.000Z</time></trkpt><trkpt lon="5.559505" lat="51.163368"><ele>44.4</ele><time>2022-04-17T07:12:01.000Z</time></trkpt><trkpt lon="5.559436" lat="51.163421"><ele>44.4</ele><time>2022-04-17T07:12:02.000Z</time></trkpt><trkpt lon="5.559373" lat="51.16347"><ele>44.4</ele><time>2022-04-17T07:12:03.000Z</time></trkpt><trkpt lon="5.559311" lat="51.16352"><ele>44.4</ele><time>2022-04-17T07:12:04.000Z</time></trkpt><trkpt lon="5.559245" lat="51.163571"><ele>44.6</ele><time>2022-04-17T07:12:05.000Z</time></trkpt><trkpt lon="5.559177" lat="51.163625"><ele>44.6</ele><time>2022-04-17T07:12:06.000Z</time></trkpt><trkpt lon="5.559107" lat="51.163678"><ele>44.6</ele><time>2022-04-17T07:12:07.000Z</time></trkpt><trkpt lon="5.559031" lat="51.163733"><ele>44.8</ele><time>2022-04-17T07:12:08.000Z</time></trkpt><trkpt lon="5.558923" lat="51.163799"><ele>45</ele><time>2022-04-17T07:12:09.000Z</time></trkpt><trkpt lon="5.55875" lat="51.163906"><ele>45</ele><time>2022-04-17T07:12:10.000Z</time></trkpt><trkpt lon="5.558578" lat="51.164012"><ele>45</ele><time>2022-04-17T07:12:11.000Z</time></trkpt><trkpt lon="5.558423" lat="51.164098"><ele>45</ele><time>2022-04-17T07:12:12.000Z</time></trkpt><trkpt lon="5.558336" lat="51.164107"><ele>45</ele><time>2022-04-17T07:12:13.000Z</time></trkpt><trkpt lon="5.558265" lat="51.164119"><ele>45</ele><time>2022-04-17T07:12:14.000Z</time></trkpt><trkpt lon="5.558187" lat="51.164138"><ele>45</ele><time>2022-04-17T07:12:15.000Z</time></trkpt><trkpt lon="5.558087" lat="51.164174"><ele>45</ele><time>2022-04-17T07:12:16.000Z</time></trkpt><trkpt lon="5.557988" lat="51.164202"><ele>45</ele><time>2022-04-17T07:12:17.000Z</time></trkpt><trkpt lon="5.557911" lat="51.164227"><ele>44.8</ele><time>2022-04-17T07:12:18.000Z</time></trkpt><trkpt lon="5.55783" lat="51.164272"><ele>44.8</ele><time>2022-04-17T07:12:19.000Z</time></trkpt><trkpt lon="5.557748" lat="51.164321"><ele>44.8</ele><time>2022-04-17T07:12:20.000Z</time></trkpt><trkpt lon="5.557667" lat="51.164374"><ele>44.8</ele><time>2022-04-17T07:12:21.000Z</time></trkpt><trkpt lon="5.557586" lat="51.164434"><ele>44.8</ele><time>2022-04-17T07:12:22.000Z</time></trkpt><trkpt lon="5.557511" lat="51.16449"><ele>44.8</ele><time>2022-04-17T07:12:23.000Z</time></trkpt><trkpt lon="5.557438" lat="51.164544"><ele>44.8</ele><time>2022-04-17T07:12:24.000Z</time></trkpt><trkpt lon="5.557368" lat="51.164598"><ele>44.8</ele><time>2022-04-17T07:12:25.000Z</time></trkpt><trkpt lon="5.557294" lat="51.164653"><ele>45</ele><time>2022-04-17T07:12:26.000Z</time></trkpt><trkpt lon="5.557225" lat="51.164703"><ele>45.2</ele><time>2022-04-17T07:12:27.000Z</time></trkpt><trkpt lon="5.557152" lat="51.164754"><ele>45.2</ele><time>2022-04-17T07:12:28.000Z</time></trkpt><trkpt lon="5.557079" lat="51.164807"><ele>45.4</ele><time>2022-04-17T07:12:29.000Z</time></trkpt><trkpt lon="5.557009" lat="51.164859"><ele>45.4</ele><time>2022-04-17T07:12:30.000Z</time></trkpt><trkpt lon="5.556937" lat="51.16491"><ele>45.4</ele><time>2022-04-17T07:12:31.000Z</time></trkpt><trkpt lon="5.556865" lat="51.164962"><ele>45.4</ele><time>2022-04-17T07:12:32.000Z</time></trkpt><trkpt lon="5.556797" lat="51.165016"><ele>45.2</ele><time>2022-04-17T07:12:33.000Z</time></trkpt><trkpt lon="5.556728" lat="51.165077"><ele>45.2</ele><time>2022-04-17T07:12:34.000Z</time></trkpt><trkpt lon="5.55666" lat="51.165142"><ele>45.2</ele><time>2022-04-17T07:12:35.000Z</time></trkpt><trkpt lon="5.556592" lat="51.165208"><ele>45.2</ele><time>2022-04-17T07:12:36.000Z</time></trkpt><trkpt lon="5.556526" lat="51.165276"><ele>45.4</ele><time>2022-04-17T07:12:37.000Z</time></trkpt><trkpt lon="5.556463" lat="51.165343"><ele>45.4</ele><time>2022-04-17T07:12:38.000Z</time></trkpt><trkpt lon="5.556398" lat="51.165414"><ele>45.2</ele><time>2022-04-17T07:12:39.000Z</time></trkpt><trkpt lon="5.556336" lat="51.165483"><ele>45.2</ele><time>2022-04-17T07:12:40.000Z</time></trkpt><trkpt lon="5.556277" lat="51.165556"><ele>45.2</ele><time>2022-04-17T07:12:41.000Z</time></trkpt><trkpt lon="5.556221" lat="51.165627"><ele>45.2</ele><time>2022-04-17T07:12:42.000Z</time></trkpt><trkpt lon="5.556166" lat="51.165697"><ele>45.2</ele><time>2022-04-17T07:12:43.000Z</time></trkpt><trkpt lon="5.556113" lat="51.16577"><ele>45.2</ele><time>2022-04-17T07:12:44.000Z</time></trkpt><trkpt lon="5.55606" lat="51.165843"><ele>45</ele><time>2022-04-17T07:12:45.000Z</time></trkpt><trkpt lon="5.556008" lat="51.165914"><ele>45</ele><time>2022-04-17T07:12:46.000Z</time></trkpt><trkpt lon="5.555956" lat="51.165984"><ele>44.8</ele><time>2022-04-17T07:12:47.000Z</time></trkpt><trkpt lon="5.555904" lat="51.166055"><ele>44.8</ele><time>2022-04-17T07:12:48.000Z</time></trkpt><trkpt lon="5.555851" lat="51.166123"><ele>44.8</ele><time>2022-04-17T07:12:49.000Z</time></trkpt><trkpt lon="5.555799" lat="51.166189"><ele>44.6</ele><time>2022-04-17T07:12:50.000Z</time></trkpt><trkpt lon="5.555746" lat="51.166258"><ele>44.6</ele><time>2022-04-17T07:12:51.000Z</time></trkpt><trkpt lon="5.555693" lat="51.16633"><ele>44.6</ele><time>2022-04-17T07:12:52.000Z</time></trkpt><trkpt lon="5.555641" lat="51.166398"><ele>44.4</ele><time>2022-04-17T07:12:53.000Z</time></trkpt><trkpt lon="5.555589" lat="51.166466"><ele>44.4</ele><time>2022-04-17T07:12:54.000Z</time></trkpt><trkpt lon="5.555538" lat="51.166531"><ele>44.2</ele><time>2022-04-17T07:12:55.000Z</time></trkpt><trkpt lon="5.555483" lat="51.166599"><ele>44.2</ele><time>2022-04-17T07:12:56.000Z</time></trkpt><trkpt lon="5.555419" lat="51.166664"><ele>44</ele><time>2022-04-17T07:12:57.000Z</time></trkpt><trkpt lon="5.555342" lat="51.166726"><ele>43.8</ele><time>2022-04-17T07:12:58.000Z</time></trkpt><trkpt lon="5.555257" lat="51.166778"><ele>43.8</ele><time>2022-04-17T07:12:59.000Z</time></trkpt><trkpt lon="5.555162" lat="51.166826"><ele>43.8</ele><time>2022-04-17T07:13:00.000Z</time></trkpt><trkpt lon="5.555061" lat="51.166871"><ele>43.6</ele><time>2022-04-17T07:13:01.000Z</time></trkpt><trkpt lon="5.55496" lat="51.166914"><ele>43.6</ele><time>2022-04-17T07:13:02.000Z</time></trkpt><trkpt lon="5.554859" lat="51.166958"><ele>43.6</ele><time>2022-04-17T07:13:03.000Z</time></trkpt><trkpt lon="5.554754" lat="51.167001"><ele>43.6</ele><time>2022-04-17T07:13:04.000Z</time></trkpt><trkpt lon="5.554654" lat="51.167043"><ele>43.6</ele><time>2022-04-17T07:13:05.000Z</time></trkpt><trkpt lon="5.554552" lat="51.167084"><ele>43.6</ele><time>2022-04-17T07:13:06.000Z</time></trkpt><trkpt lon="5.554454" lat="51.167123"><ele>43.6</ele><time>2022-04-17T07:13:07.000Z</time></trkpt><trkpt lon="5.554354" lat="51.167165"><ele>43.6</ele><time>2022-04-17T07:13:08.000Z</time></trkpt><trkpt lon="5.554254" lat="51.167206"><ele>43.6</ele><time>2022-04-17T07:13:09.000Z</time></trkpt><trkpt lon="5.554156" lat="51.167245"><ele>43.6</ele><time>2022-04-17T07:13:10.000Z</time></trkpt><trkpt lon="5.554062" lat="51.167287"><ele>43.6</ele><time>2022-04-17T07:13:11.000Z</time></trkpt><trkpt lon="5.55397" lat="51.167329"><ele>43.6</ele><time>2022-04-17T07:13:12.000Z</time></trkpt><trkpt lon="5.553879" lat="51.167373"><ele>43.8</ele><time>2022-04-17T07:13:13.000Z</time></trkpt><trkpt lon="5.553791" lat="51.167422"><ele>43.8</ele><time>2022-04-17T07:13:14.000Z</time></trkpt><trkpt lon="5.553704" lat="51.167473"><ele>43.8</ele><time>2022-04-17T07:13:15.000Z</time></trkpt><trkpt lon="5.553622" lat="51.167526"><ele>43.8</ele><time>2022-04-17T07:13:16.000Z</time></trkpt><trkpt lon="5.553543" lat="51.167581"><ele>43.8</ele><time>2022-04-17T07:13:17.000Z</time></trkpt><trkpt lon="5.553468" lat="51.167636"><ele>44</ele><time>2022-04-17T07:13:18.000Z</time></trkpt><trkpt lon="5.553389" lat="51.167697"><ele>44</ele><time>2022-04-17T07:13:19.000Z</time></trkpt><trkpt lon="5.553319" lat="51.167758"><ele>44</ele><time>2022-04-17T07:13:20.000Z</time></trkpt><trkpt lon="5.553251" lat="51.167818"><ele>44</ele><time>2022-04-17T07:13:21.000Z</time></trkpt><trkpt lon="5.553187" lat="51.167881"><ele>44</ele><time>2022-04-17T07:13:22.000Z</time></trkpt><trkpt lon="5.553124" lat="51.167945"><ele>44.2</ele><time>2022-04-17T07:13:23.000Z</time></trkpt><trkpt lon="5.553062" lat="51.16801"><ele>44.2</ele><time>2022-04-17T07:13:24.000Z</time></trkpt><trkpt lon="5.553" lat="51.168072"><ele>44.2</ele><time>2022-04-17T07:13:25.000Z</time></trkpt><trkpt lon="5.552939" lat="51.168135"><ele>44.2</ele><time>2022-04-17T07:13:26.000Z</time></trkpt><trkpt lon="5.55288" lat="51.168197"><ele>44</ele><time>2022-04-17T07:13:27.000Z</time></trkpt><trkpt lon="5.552819" lat="51.168261"><ele>44</ele><time>2022-04-17T07:13:28.000Z</time></trkpt><trkpt lon="5.552758" lat="51.168324"><ele>44</ele><time>2022-04-17T07:13:29.000Z</time></trkpt><trkpt lon="5.552697" lat="51.168387"><ele>44</ele><time>2022-04-17T07:13:30.000Z</time></trkpt><trkpt lon="5.552635" lat="51.168449"><ele>44</ele><time>2022-04-17T07:13:31.000Z</time></trkpt><trkpt lon="5.552572" lat="51.168512"><ele>44</ele><time>2022-04-17T07:13:32.000Z</time></trkpt><trkpt lon="5.552512" lat="51.168572"><ele>44</ele><time>2022-04-17T07:13:33.000Z</time></trkpt><trkpt lon="5.552448" lat="51.168639"><ele>44</ele><time>2022-04-17T07:13:34.000Z</time></trkpt><trkpt lon="5.552386" lat="51.168702"><ele>44.2</ele><time>2022-04-17T07:13:35.000Z</time></trkpt><trkpt lon="5.552326" lat="51.168766"><ele>44.2</ele><time>2022-04-17T07:13:36.000Z</time></trkpt><trkpt lon="5.552271" lat="51.168829"><ele>44.2</ele><time>2022-04-17T07:13:37.000Z</time></trkpt><trkpt lon="5.552213" lat="51.168891"><ele>44.2</ele><time>2022-04-17T07:13:38.000Z</time></trkpt><trkpt lon="5.552153" lat="51.168958"><ele>44.2</ele><time>2022-04-17T07:13:39.000Z</time></trkpt><trkpt lon="5.552097" lat="51.169026"><ele>44</ele><time>2022-04-17T07:13:40.000Z</time></trkpt><trkpt lon="5.55204" lat="51.169093"><ele>44.2</ele><time>2022-04-17T07:13:41.000Z</time></trkpt><trkpt lon="5.55198" lat="51.16916"><ele>44</ele><time>2022-04-17T07:13:42.000Z</time></trkpt><trkpt lon="5.551921" lat="51.169227"><ele>44</ele><time>2022-04-17T07:13:43.000Z</time></trkpt><trkpt lon="5.551861" lat="51.169292"><ele>43.8</ele><time>2022-04-17T07:13:44.000Z</time></trkpt><trkpt lon="5.551799" lat="51.169358"><ele>43.8</ele><time>2022-04-17T07:13:45.000Z</time></trkpt><trkpt lon="5.551739" lat="51.169426"><ele>43.6</ele><time>2022-04-17T07:13:46.000Z</time></trkpt><trkpt lon="5.551674" lat="51.16949"><ele>43.6</ele><time>2022-04-17T07:13:47.000Z</time></trkpt><trkpt lon="5.551606" lat="51.169556"><ele>43.4</ele><time>2022-04-17T07:13:48.000Z</time></trkpt><trkpt lon="5.551539" lat="51.169625"><ele>43.2</ele><time>2022-04-17T07:13:49.000Z</time></trkpt><trkpt lon="5.551472" lat="51.169693"><ele>43.2</ele><time>2022-04-17T07:13:50.000Z</time></trkpt><trkpt lon="5.551405" lat="51.169757"><ele>43.2</ele><time>2022-04-17T07:13:51.000Z</time></trkpt><trkpt lon="5.551339" lat="51.169817"><ele>43.2</ele><time>2022-04-17T07:13:52.000Z</time></trkpt><trkpt lon="5.551274" lat="51.169873"><ele>43.2</ele><time>2022-04-17T07:13:53.000Z</time></trkpt><trkpt lon="5.551212" lat="51.16993"><ele>43.2</ele><time>2022-04-17T07:13:54.000Z</time></trkpt><trkpt lon="5.551152" lat="51.169981"><ele>43.2</ele><time>2022-04-17T07:13:55.000Z</time></trkpt><trkpt lon="5.551089" lat="51.170023"><ele>43.2</ele><time>2022-04-17T07:13:56.000Z</time></trkpt><trkpt lon="5.551021" lat="51.170054"><ele>43.4</ele><time>2022-04-17T07:13:57.000Z</time></trkpt><trkpt lon="5.550941" lat="51.170073"><ele>43.4</ele><time>2022-04-17T07:13:58.000Z</time></trkpt><trkpt lon="5.550854" lat="51.170079"><ele>43.6</ele><time>2022-04-17T07:13:59.000Z</time></trkpt><trkpt lon="5.550761" lat="51.170085"><ele>43.6</ele><time>2022-04-17T07:14:00.000Z</time></trkpt><trkpt lon="5.550667" lat="51.170101"><ele>43.6</ele><time>2022-04-17T07:14:01.000Z</time></trkpt><trkpt lon="5.550581" lat="51.170131"><ele>43.6</ele><time>2022-04-17T07:14:02.000Z</time></trkpt><trkpt lon="5.550516" lat="51.170171"><ele>43.6</ele><time>2022-04-17T07:14:03.000Z</time></trkpt><trkpt lon="5.550461" lat="51.170224"><ele>43.6</ele><time>2022-04-17T07:14:04.000Z</time></trkpt><trkpt lon="5.550409" lat="51.17028"><ele>43.4</ele><time>2022-04-17T07:14:05.000Z</time></trkpt><trkpt lon="5.550346" lat="51.170333"><ele>43.4</ele><time>2022-04-17T07:14:06.000Z</time></trkpt><trkpt lon="5.550271" lat="51.17038"><ele>43.4</ele><time>2022-04-17T07:14:07.000Z</time></trkpt><trkpt lon="5.550186" lat="51.170421"><ele>43.4</ele><time>2022-04-17T07:14:08.000Z</time></trkpt><trkpt lon="5.550093" lat="51.170459"><ele>43.6</ele><time>2022-04-17T07:14:09.000Z</time></trkpt><trkpt lon="5.549996" lat="51.170494"><ele>43.6</ele><time>2022-04-17T07:14:10.000Z</time></trkpt><trkpt lon="5.549898" lat="51.170532"><ele>43.6</ele><time>2022-04-17T07:14:11.000Z</time></trkpt><trkpt lon="5.5498" lat="51.170569"><ele>43.6</ele><time>2022-04-17T07:14:12.000Z</time></trkpt><trkpt lon="5.549703" lat="51.170603"><ele>43.8</ele><time>2022-04-17T07:14:13.000Z</time></trkpt><trkpt lon="5.549603" lat="51.17064"><ele>43.8</ele><time>2022-04-17T07:14:14.000Z</time></trkpt><trkpt lon="5.549497" lat="51.170676"><ele>43.8</ele><time>2022-04-17T07:14:15.000Z</time></trkpt><trkpt lon="5.549396" lat="51.17071"><ele>44</ele><time>2022-04-17T07:14:16.000Z</time></trkpt><trkpt lon="5.549296" lat="51.170745"><ele>44</ele><time>2022-04-17T07:14:17.000Z</time></trkpt><trkpt lon="5.549195" lat="51.170783"><ele>44</ele><time>2022-04-17T07:14:18.000Z</time></trkpt><trkpt lon="5.549096" lat="51.170818"><ele>44.2</ele><time>2022-04-17T07:14:19.000Z</time></trkpt><trkpt lon="5.548995" lat="51.170855"><ele>44</ele><time>2022-04-17T07:14:20.000Z</time></trkpt><trkpt lon="5.548894" lat="51.170889"><ele>44</ele><time>2022-04-17T07:14:21.000Z</time></trkpt><trkpt lon="5.548792" lat="51.170925"><ele>44</ele><time>2022-04-17T07:14:22.000Z</time></trkpt><trkpt lon="5.54869" lat="51.170962"><ele>44</ele><time>2022-04-17T07:14:23.000Z</time></trkpt><trkpt lon="5.548586" lat="51.170997"><ele>44</ele><time>2022-04-17T07:14:24.000Z</time></trkpt><trkpt lon="5.548484" lat="51.171034"><ele>44.2</ele><time>2022-04-17T07:14:25.000Z</time></trkpt><trkpt lon="5.548379" lat="51.17107"><ele>44.2</ele><time>2022-04-17T07:14:26.000Z</time></trkpt><trkpt lon="5.548274" lat="51.171108"><ele>44</ele><time>2022-04-17T07:14:27.000Z</time></trkpt><trkpt lon="5.548173" lat="51.171145"><ele>44.2</ele><time>2022-04-17T07:14:28.000Z</time></trkpt><trkpt lon="5.548071" lat="51.171178"><ele>44</ele><time>2022-04-17T07:14:29.000Z</time></trkpt><trkpt lon="5.547964" lat="51.171215"><ele>44</ele><time>2022-04-17T07:14:30.000Z</time></trkpt><trkpt lon="5.54786" lat="51.171253"><ele>43.8</ele><time>2022-04-17T07:14:31.000Z</time></trkpt><trkpt lon="5.547757" lat="51.17129"><ele>43.8</ele><time>2022-04-17T07:14:32.000Z</time></trkpt><trkpt lon="5.547657" lat="51.171324"><ele>43.8</ele><time>2022-04-17T07:14:33.000Z</time></trkpt><trkpt lon="5.547557" lat="51.171358"><ele>43.8</ele><time>2022-04-17T07:14:34.000Z</time></trkpt><trkpt lon="5.547456" lat="51.171394"><ele>44</ele><time>2022-04-17T07:14:35.000Z</time></trkpt><trkpt lon="5.547355" lat="51.171432"><ele>44</ele><time>2022-04-17T07:14:36.000Z</time></trkpt><trkpt lon="5.547255" lat="51.171465"><ele>43.8</ele><time>2022-04-17T07:14:37.000Z</time></trkpt><trkpt lon="5.547155" lat="51.1715"><ele>44</ele><time>2022-04-17T07:14:38.000Z</time></trkpt><trkpt lon="5.547053" lat="51.171534"><ele>44</ele><time>2022-04-17T07:14:39.000Z</time></trkpt><trkpt lon="5.546952" lat="51.17157"><ele>44</ele><time>2022-04-17T07:14:40.000Z</time></trkpt><trkpt lon="5.546852" lat="51.171607"><ele>44</ele><time>2022-04-17T07:14:41.000Z</time></trkpt><trkpt lon="5.546754" lat="51.17164"><ele>44.2</ele><time>2022-04-17T07:14:42.000Z</time></trkpt><trkpt lon="5.546652" lat="51.171675"><ele>44.2</ele><time>2022-04-17T07:14:43.000Z</time></trkpt><trkpt lon="5.546548" lat="51.17171"><ele>44.4</ele><time>2022-04-17T07:14:44.000Z</time></trkpt><trkpt lon="5.546445" lat="51.171744"><ele>44.4</ele><time>2022-04-17T07:14:45.000Z</time></trkpt><trkpt lon="5.546344" lat="51.171778"><ele>44.4</ele><time>2022-04-17T07:14:46.000Z</time></trkpt><trkpt lon="5.546243" lat="51.171812"><ele>44.6</ele><time>2022-04-17T07:14:47.000Z</time></trkpt><trkpt lon="5.546143" lat="51.171847"><ele>44.6</ele><time>2022-04-17T07:14:48.000Z</time></trkpt><trkpt lon="5.546042" lat="51.171881"><ele>44.6</ele><time>2022-04-17T07:14:49.000Z</time></trkpt><trkpt lon="5.545943" lat="51.171915"><ele>44.6</ele><time>2022-04-17T07:14:50.000Z</time></trkpt><trkpt lon="5.545843" lat="51.171951"><ele>44.8</ele><time>2022-04-17T07:14:51.000Z</time></trkpt><trkpt lon="5.545743" lat="51.171988"><ele>44.8</ele><time>2022-04-17T07:14:52.000Z</time></trkpt><trkpt lon="5.545644" lat="51.172022"><ele>44.8</ele><time>2022-04-17T07:14:53.000Z</time></trkpt><trkpt lon="5.54554" lat="51.172058"><ele>44.6</ele><time>2022-04-17T07:14:54.000Z</time></trkpt><trkpt lon="5.545438" lat="51.172095"><ele>44.6</ele><time>2022-04-17T07:14:55.000Z</time></trkpt><trkpt lon="5.545338" lat="51.172129"><ele>44.6</ele><time>2022-04-17T07:14:56.000Z</time></trkpt><trkpt lon="5.545241" lat="51.172164"><ele>44.4</ele><time>2022-04-17T07:14:57.000Z</time></trkpt><trkpt lon="5.545143" lat="51.172201"><ele>44.4</ele><time>2022-04-17T07:14:58.000Z</time></trkpt><trkpt lon="5.545045" lat="51.172235"><ele>44.4</ele><time>2022-04-17T07:14:59.000Z</time></trkpt><trkpt lon="5.544948" lat="51.172268"><ele>44.4</ele><time>2022-04-17T07:15:00.000Z</time></trkpt><trkpt lon="5.544851" lat="51.172303"><ele>44.4</ele><time>2022-04-17T07:15:01.000Z</time></trkpt><trkpt lon="5.544751" lat="51.172334"><ele>44.4</ele><time>2022-04-17T07:15:02.000Z</time></trkpt><trkpt lon="5.544649" lat="51.172365"><ele>44.4</ele><time>2022-04-17T07:15:03.000Z</time></trkpt><trkpt lon="5.544543" lat="51.1724"><ele>44.4</ele><time>2022-04-17T07:15:04.000Z</time></trkpt><trkpt lon="5.544439" lat="51.172435"><ele>44.4</ele><time>2022-04-17T07:15:05.000Z</time></trkpt><trkpt lon="5.54434" lat="51.17247"><ele>44.6</ele><time>2022-04-17T07:15:06.000Z</time></trkpt><trkpt lon="5.544243" lat="51.172507"><ele>44.6</ele><time>2022-04-17T07:15:07.000Z</time></trkpt><trkpt lon="5.544149" lat="51.172541"><ele>44.6</ele><time>2022-04-17T07:15:08.000Z</time></trkpt><trkpt lon="5.544053" lat="51.172574"><ele>44.6</ele><time>2022-04-17T07:15:09.000Z</time></trkpt><trkpt lon="5.543953" lat="51.172606"><ele>44.6</ele><time>2022-04-17T07:15:10.000Z</time></trkpt><trkpt lon="5.543855" lat="51.172641"><ele>44.6</ele><time>2022-04-17T07:15:11.000Z</time></trkpt><trkpt lon="5.543756" lat="51.172677"><ele>44.6</ele><time>2022-04-17T07:15:12.000Z</time></trkpt><trkpt lon="5.543657" lat="51.172708"><ele>44.6</ele><time>2022-04-17T07:15:13.000Z</time></trkpt><trkpt lon="5.543557" lat="51.172744"><ele>44.6</ele><time>2022-04-17T07:15:14.000Z</time></trkpt><trkpt lon="5.543457" lat="51.17278"><ele>44.6</ele><time>2022-04-17T07:15:15.000Z</time></trkpt><trkpt lon="5.543356" lat="51.172812"><ele>44.6</ele><time>2022-04-17T07:15:16.000Z</time></trkpt><trkpt lon="5.543258" lat="51.17285"><ele>44.6</ele><time>2022-04-17T07:15:17.000Z</time></trkpt><trkpt lon="5.543161" lat="51.172884"><ele>44.6</ele><time>2022-04-17T07:15:18.000Z</time></trkpt><trkpt lon="5.543066" lat="51.17292"><ele>44.6</ele><time>2022-04-17T07:15:19.000Z</time></trkpt><trkpt lon="5.542966" lat="51.172957"><ele>44.6</ele><time>2022-04-17T07:15:20.000Z</time></trkpt><trkpt lon="5.542863" lat="51.172991"><ele>44.6</ele><time>2022-04-17T07:15:21.000Z</time></trkpt><trkpt lon="5.542758" lat="51.173027"><ele>44.6</ele><time>2022-04-17T07:15:22.000Z</time></trkpt><trkpt lon="5.542658" lat="51.173064"><ele>44.6</ele><time>2022-04-17T07:15:23.000Z</time></trkpt><trkpt lon="5.542554" lat="51.173103"><ele>44.6</ele><time>2022-04-17T07:15:24.000Z</time></trkpt><trkpt lon="5.542453" lat="51.173143"><ele>44.4</ele><time>2022-04-17T07:15:25.000Z</time></trkpt><trkpt lon="5.542355" lat="51.173187"><ele>44.4</ele><time>2022-04-17T07:15:26.000Z</time></trkpt><trkpt lon="5.542255" lat="51.173225"><ele>44.2</ele><time>2022-04-17T07:15:27.000Z</time></trkpt><trkpt lon="5.542155" lat="51.173262"><ele>44.2</ele><time>2022-04-17T07:15:28.000Z</time></trkpt><trkpt lon="5.542052" lat="51.173297"><ele>44.2</ele><time>2022-04-17T07:15:29.000Z</time></trkpt><trkpt lon="5.541949" lat="51.173332"><ele>44.2</ele><time>2022-04-17T07:15:30.000Z</time></trkpt><trkpt lon="5.541846" lat="51.173369"><ele>44.2</ele><time>2022-04-17T07:15:31.000Z</time></trkpt><trkpt lon="5.54174" lat="51.173404"><ele>44.2</ele><time>2022-04-17T07:15:32.000Z</time></trkpt><trkpt lon="5.541634" lat="51.173442"><ele>44.2</ele><time>2022-04-17T07:15:33.000Z</time></trkpt><trkpt lon="5.541527" lat="51.17348"><ele>44.2</ele><time>2022-04-17T07:15:34.000Z</time></trkpt><trkpt lon="5.541419" lat="51.173514"><ele>44.2</ele><time>2022-04-17T07:15:35.000Z</time></trkpt><trkpt lon="5.54131" lat="51.173548"><ele>44.2</ele><time>2022-04-17T07:15:36.000Z</time></trkpt><trkpt lon="5.541203" lat="51.173582"><ele>44.2</ele><time>2022-04-17T07:15:37.000Z</time></trkpt><trkpt lon="5.541097" lat="51.173615"><ele>44</ele><time>2022-04-17T07:15:38.000Z</time></trkpt><trkpt lon="5.540991" lat="51.173647"><ele>44</ele><time>2022-04-17T07:15:39.000Z</time></trkpt><trkpt lon="5.540887" lat="51.173682"><ele>44</ele><time>2022-04-17T07:15:40.000Z</time></trkpt><trkpt lon="5.540783" lat="51.173716"><ele>44</ele><time>2022-04-17T07:15:41.000Z</time></trkpt><trkpt lon="5.540679" lat="51.173752"><ele>44</ele><time>2022-04-17T07:15:42.000Z</time></trkpt><trkpt lon="5.540576" lat="51.173788"><ele>44</ele><time>2022-04-17T07:15:43.000Z</time></trkpt><trkpt lon="5.540472" lat="51.173823"><ele>44</ele><time>2022-04-17T07:15:44.000Z</time></trkpt><trkpt lon="5.540368" lat="51.173856"><ele>44</ele><time>2022-04-17T07:15:45.000Z</time></trkpt><trkpt lon="5.540264" lat="51.173886"><ele>44</ele><time>2022-04-17T07:15:46.000Z</time></trkpt><trkpt lon="5.54016" lat="51.173918"><ele>44</ele><time>2022-04-17T07:15:47.000Z</time></trkpt><trkpt lon="5.540057" lat="51.173953"><ele>44</ele><time>2022-04-17T07:15:48.000Z</time></trkpt><trkpt lon="5.539956" lat="51.173986"><ele>44</ele><time>2022-04-17T07:15:49.000Z</time></trkpt><trkpt lon="5.539857" lat="51.174019"><ele>44</ele><time>2022-04-17T07:15:50.000Z</time></trkpt><trkpt lon="5.539761" lat="51.174056"><ele>44</ele><time>2022-04-17T07:15:51.000Z</time></trkpt><trkpt lon="5.539671" lat="51.174092"><ele>44</ele><time>2022-04-17T07:15:52.000Z</time></trkpt><trkpt lon="5.539583" lat="51.174133"><ele>44</ele><time>2022-04-17T07:15:53.000Z</time></trkpt><trkpt lon="5.539494" lat="51.174175"><ele>44</ele><time>2022-04-17T07:15:54.000Z</time></trkpt><trkpt lon="5.5394" lat="51.174218"><ele>44</ele><time>2022-04-17T07:15:55.000Z</time></trkpt><trkpt lon="5.539304" lat="51.174259"><ele>44</ele><time>2022-04-17T07:15:56.000Z</time></trkpt><trkpt lon="5.539202" lat="51.174297"><ele>43.8</ele><time>2022-04-17T07:15:57.000Z</time></trkpt><trkpt lon="5.539098" lat="51.174335"><ele>43.8</ele><time>2022-04-17T07:15:58.000Z</time></trkpt><trkpt lon="5.538992" lat="51.174373"><ele>43.6</ele><time>2022-04-17T07:15:59.000Z</time></trkpt><trkpt lon="5.53889" lat="51.174413"><ele>43.6</ele><time>2022-04-17T07:16:00.000Z</time></trkpt><trkpt lon="5.538789" lat="51.174452"><ele>43.6</ele><time>2022-04-17T07:16:01.000Z</time></trkpt><trkpt lon="5.538689" lat="51.174487"><ele>43.6</ele><time>2022-04-17T07:16:02.000Z</time></trkpt><trkpt lon="5.538585" lat="51.174526"><ele>43.6</ele><time>2022-04-17T07:16:03.000Z</time></trkpt><trkpt lon="5.538478" lat="51.174568"><ele>43.6</ele><time>2022-04-17T07:16:04.000Z</time></trkpt><trkpt lon="5.538371" lat="51.174606"><ele>43.4</ele><time>2022-04-17T07:16:05.000Z</time></trkpt><trkpt lon="5.538263" lat="51.174646"><ele>43.4</ele><time>2022-04-17T07:16:06.000Z</time></trkpt><trkpt lon="5.538161" lat="51.174687"><ele>43.4</ele><time>2022-04-17T07:16:07.000Z</time></trkpt><trkpt lon="5.538061" lat="51.174728"><ele>43.4</ele><time>2022-04-17T07:16:08.000Z</time></trkpt><trkpt lon="5.537959" lat="51.17477"><ele>43.2</ele><time>2022-04-17T07:16:09.000Z</time></trkpt><trkpt lon="5.537857" lat="51.174809"><ele>43.2</ele><time>2022-04-17T07:16:10.000Z</time></trkpt><trkpt lon="5.537758" lat="51.174851"><ele>43.2</ele><time>2022-04-17T07:16:11.000Z</time></trkpt><trkpt lon="5.537663" lat="51.174893"><ele>43.2</ele><time>2022-04-17T07:16:12.000Z</time></trkpt><trkpt lon="5.537571" lat="51.174936"><ele>43</ele><time>2022-04-17T07:16:13.000Z</time></trkpt><trkpt lon="5.53748" lat="51.174982"><ele>43</ele><time>2022-04-17T07:16:14.000Z</time></trkpt><trkpt lon="5.537389" lat="51.175029"><ele>43</ele><time>2022-04-17T07:16:15.000Z</time></trkpt><trkpt lon="5.5373" lat="51.175078"><ele>43</ele><time>2022-04-17T07:16:16.000Z</time></trkpt><trkpt lon="5.537215" lat="51.175128"><ele>42.8</ele><time>2022-04-17T07:16:17.000Z</time></trkpt><trkpt lon="5.537132" lat="51.175181"><ele>42.8</ele><time>2022-04-17T07:16:18.000Z</time></trkpt><trkpt lon="5.537048" lat="51.175232"><ele>42.8</ele><time>2022-04-17T07:16:19.000Z</time></trkpt><trkpt lon="5.536965" lat="51.175285"><ele>42.8</ele><time>2022-04-17T07:16:20.000Z</time></trkpt><trkpt lon="5.536885" lat="51.175338"><ele>42.8</ele><time>2022-04-17T07:16:21.000Z</time></trkpt><trkpt lon="5.536807" lat="51.175394"><ele>42.6</ele><time>2022-04-17T07:16:22.000Z</time></trkpt><trkpt lon="5.53673" lat="51.175454"><ele>42.6</ele><time>2022-04-17T07:16:23.000Z</time></trkpt><trkpt lon="5.536652" lat="51.175512"><ele>42.6</ele><time>2022-04-17T07:16:24.000Z</time></trkpt><trkpt lon="5.536573" lat="51.17557"><ele>42.6</ele><time>2022-04-17T07:16:25.000Z</time></trkpt><trkpt lon="5.536489" lat="51.17563"><ele>42.6</ele><time>2022-04-17T07:16:26.000Z</time></trkpt><trkpt lon="5.53641" lat="51.175689"><ele>42.6</ele><time>2022-04-17T07:16:27.000Z</time></trkpt><trkpt lon="5.536333" lat="51.175748"><ele>42.8</ele><time>2022-04-17T07:16:28.000Z</time></trkpt><trkpt lon="5.536255" lat="51.175807"><ele>42.8</ele><time>2022-04-17T07:16:29.000Z</time></trkpt><trkpt lon="5.536175" lat="51.175867"><ele>42.8</ele><time>2022-04-17T07:16:30.000Z</time></trkpt><trkpt lon="5.536095" lat="51.175925"><ele>42.8</ele><time>2022-04-17T07:16:31.000Z</time></trkpt><trkpt lon="5.536016" lat="51.175984"><ele>42.8</ele><time>2022-04-17T07:16:32.000Z</time></trkpt><trkpt lon="5.535938" lat="51.176038"><ele>42.8</ele><time>2022-04-17T07:16:33.000Z</time></trkpt><trkpt lon="5.535857" lat="51.176096"><ele>42.8</ele><time>2022-04-17T07:16:34.000Z</time></trkpt><trkpt lon="5.535775" lat="51.176155"><ele>42.8</ele><time>2022-04-17T07:16:35.000Z</time></trkpt><trkpt lon="5.535696" lat="51.176211"><ele>42.8</ele><time>2022-04-17T07:16:36.000Z</time></trkpt><trkpt lon="5.535615" lat="51.176271"><ele>42.8</ele><time>2022-04-17T07:16:37.000Z</time></trkpt><trkpt lon="5.535534" lat="51.176329"><ele>42.8</ele><time>2022-04-17T07:16:38.000Z</time></trkpt><trkpt lon="5.535453" lat="51.176389"><ele>42.6</ele><time>2022-04-17T07:16:39.000Z</time></trkpt><trkpt lon="5.535373" lat="51.176446"><ele>42.6</ele><time>2022-04-17T07:16:40.000Z</time></trkpt><trkpt lon="5.535291" lat="51.176504"><ele>42.6</ele><time>2022-04-17T07:16:41.000Z</time></trkpt><trkpt lon="5.535213" lat="51.176564"><ele>42.8</ele><time>2022-04-17T07:16:42.000Z</time></trkpt><trkpt lon="5.535131" lat="51.17662"><ele>42.8</ele><time>2022-04-17T07:16:43.000Z</time></trkpt><trkpt lon="5.535041" lat="51.176674"><ele>42.8</ele><time>2022-04-17T07:16:44.000Z</time></trkpt><trkpt lon="5.534945" lat="51.176725"><ele>43</ele><time>2022-04-17T07:16:45.000Z</time></trkpt><trkpt lon="5.534848" lat="51.17677"><ele>43</ele><time>2022-04-17T07:16:46.000Z</time></trkpt><trkpt lon="5.534749" lat="51.176812"><ele>43</ele><time>2022-04-17T07:16:47.000Z</time></trkpt><trkpt lon="5.53465" lat="51.176853"><ele>43.2</ele><time>2022-04-17T07:16:48.000Z</time></trkpt><trkpt lon="5.534551" lat="51.176891"><ele>43.4</ele><time>2022-04-17T07:16:49.000Z</time></trkpt><trkpt lon="5.534451" lat="51.176933"><ele>43.4</ele><time>2022-04-17T07:16:50.000Z</time></trkpt><trkpt lon="5.534352" lat="51.176971"><ele>43.6</ele><time>2022-04-17T07:16:51.000Z</time></trkpt><trkpt lon="5.534252" lat="51.17701"><ele>43.8</ele><time>2022-04-17T07:16:52.000Z</time></trkpt><trkpt lon="5.534156" lat="51.177053"><ele>43.8</ele><time>2022-04-17T07:16:53.000Z</time></trkpt><trkpt lon="5.534063" lat="51.177101"><ele>43.8</ele><time>2022-04-17T07:16:54.000Z</time></trkpt><trkpt lon="5.533973" lat="51.17715"><ele>43.8</ele><time>2022-04-17T07:16:55.000Z</time></trkpt><trkpt lon="5.533886" lat="51.1772"><ele>43.8</ele><time>2022-04-17T07:16:56.000Z</time></trkpt><trkpt lon="5.533801" lat="51.177254"><ele>43.8</ele><time>2022-04-17T07:16:57.000Z</time></trkpt><trkpt lon="5.533715" lat="51.177306"><ele>43.8</ele><time>2022-04-17T07:16:58.000Z</time></trkpt><trkpt lon="5.53363" lat="51.177357"><ele>44</ele><time>2022-04-17T07:16:59.000Z</time></trkpt><trkpt lon="5.533544" lat="51.177411"><ele>44</ele><time>2022-04-17T07:17:00.000Z</time></trkpt><trkpt lon="5.533457" lat="51.177462"><ele>43.8</ele><time>2022-04-17T07:17:01.000Z</time></trkpt><trkpt lon="5.533367" lat="51.177511"><ele>43.8</ele><time>2022-04-17T07:17:02.000Z</time></trkpt><trkpt lon="5.533271" lat="51.17756"><ele>43.6</ele><time>2022-04-17T07:17:03.000Z</time></trkpt><trkpt lon="5.533171" lat="51.177608"><ele>43.4</ele><time>2022-04-17T07:17:04.000Z</time></trkpt><trkpt lon="5.533073" lat="51.177657"><ele>43.4</ele><time>2022-04-17T07:17:05.000Z</time></trkpt><trkpt lon="5.532976" lat="51.177705"><ele>43.2</ele><time>2022-04-17T07:17:06.000Z</time></trkpt><trkpt lon="5.532878" lat="51.177752"><ele>43.2</ele><time>2022-04-17T07:17:07.000Z</time></trkpt><trkpt lon="5.532779" lat="51.177802"><ele>43.4</ele><time>2022-04-17T07:17:08.000Z</time></trkpt><trkpt lon="5.532683" lat="51.177852"><ele>43.6</ele><time>2022-04-17T07:17:09.000Z</time></trkpt><trkpt lon="5.532589" lat="51.177901"><ele>43.8</ele><time>2022-04-17T07:17:10.000Z</time></trkpt><trkpt lon="5.532495" lat="51.177951"><ele>44</ele><time>2022-04-17T07:17:11.000Z</time></trkpt><trkpt lon="5.532404" lat="51.178"><ele>43.8</ele><time>2022-04-17T07:17:12.000Z</time></trkpt><trkpt lon="5.532314" lat="51.17805"><ele>43.6</ele><time>2022-04-17T07:17:13.000Z</time></trkpt><trkpt lon="5.532225" lat="51.178101"><ele>43.6</ele><time>2022-04-17T07:17:14.000Z</time></trkpt><trkpt lon="5.532139" lat="51.178154"><ele>43.4</ele><time>2022-04-17T07:17:15.000Z</time></trkpt><trkpt lon="5.532054" lat="51.178206"><ele>43.4</ele><time>2022-04-17T07:17:16.000Z</time></trkpt><trkpt lon="5.53197" lat="51.178257"><ele>43.4</ele><time>2022-04-17T07:17:17.000Z</time></trkpt><trkpt lon="5.531887" lat="51.178309"><ele>43.4</ele><time>2022-04-17T07:17:18.000Z</time></trkpt><trkpt lon="5.531806" lat="51.178357"><ele>43.4</ele><time>2022-04-17T07:17:19.000Z</time></trkpt><trkpt lon="5.531723" lat="51.178405"><ele>43.4</ele><time>2022-04-17T07:17:20.000Z</time></trkpt><trkpt lon="5.531643" lat="51.178455"><ele>43.4</ele><time>2022-04-17T07:17:21.000Z</time></trkpt><trkpt lon="5.53156" lat="51.178503"><ele>43.4</ele><time>2022-04-17T07:17:22.000Z</time></trkpt><trkpt lon="5.531473" lat="51.178549"><ele>43.4</ele><time>2022-04-17T07:17:23.000Z</time></trkpt><trkpt lon="5.531382" lat="51.178594"><ele>43.4</ele><time>2022-04-17T07:17:24.000Z</time></trkpt><trkpt lon="5.531287" lat="51.178639"><ele>43.4</ele><time>2022-04-17T07:17:25.000Z</time></trkpt><trkpt lon="5.531191" lat="51.178682"><ele>43.4</ele><time>2022-04-17T07:17:26.000Z</time></trkpt><trkpt lon="5.531093" lat="51.178726"><ele>43.4</ele><time>2022-04-17T07:17:27.000Z</time></trkpt><trkpt lon="5.530994" lat="51.17877"><ele>43.4</ele><time>2022-04-17T07:17:28.000Z</time></trkpt><trkpt lon="5.530899" lat="51.178815"><ele>43.4</ele><time>2022-04-17T07:17:29.000Z</time></trkpt><trkpt lon="5.530805" lat="51.178862"><ele>43.4</ele><time>2022-04-17T07:17:30.000Z</time></trkpt><trkpt lon="5.530712" lat="51.178912"><ele>43.2</ele><time>2022-04-17T07:17:31.000Z</time></trkpt><trkpt lon="5.530623" lat="51.178961"><ele>43.2</ele><time>2022-04-17T07:17:32.000Z</time></trkpt><trkpt lon="5.530535" lat="51.179011"><ele>43.2</ele><time>2022-04-17T07:17:33.000Z</time></trkpt><trkpt lon="5.530447" lat="51.179061"><ele>43.2</ele><time>2022-04-17T07:17:34.000Z</time></trkpt><trkpt lon="5.530358" lat="51.179112"><ele>43.2</ele><time>2022-04-17T07:17:35.000Z</time></trkpt><trkpt lon="5.530271" lat="51.179164"><ele>43.2</ele><time>2022-04-17T07:17:36.000Z</time></trkpt><trkpt lon="5.530188" lat="51.179214"><ele>43.2</ele><time>2022-04-17T07:17:37.000Z</time></trkpt><trkpt lon="5.530107" lat="51.179263"><ele>43.2</ele><time>2022-04-17T07:17:38.000Z</time></trkpt><trkpt lon="5.530021" lat="51.179317"><ele>43.2</ele><time>2022-04-17T07:17:39.000Z</time></trkpt><trkpt lon="5.529936" lat="51.179369"><ele>43.2</ele><time>2022-04-17T07:17:40.000Z</time></trkpt><trkpt lon="5.529849" lat="51.179419"><ele>43.2</ele><time>2022-04-17T07:17:41.000Z</time></trkpt><trkpt lon="5.529761" lat="51.17947"><ele>43.2</ele><time>2022-04-17T07:17:42.000Z</time></trkpt><trkpt lon="5.529671" lat="51.179522"><ele>43.2</ele><time>2022-04-17T07:17:43.000Z</time></trkpt><trkpt lon="5.529578" lat="51.179571"><ele>43</ele><time>2022-04-17T07:17:44.000Z</time></trkpt><trkpt lon="5.529482" lat="51.179618"><ele>43</ele><time>2022-04-17T07:17:45.000Z</time></trkpt><trkpt lon="5.529386" lat="51.179666"><ele>43</ele><time>2022-04-17T07:17:46.000Z</time></trkpt><trkpt lon="5.529287" lat="51.179711"><ele>43</ele><time>2022-04-17T07:17:47.000Z</time></trkpt><trkpt lon="5.529186" lat="51.179753"><ele>43</ele><time>2022-04-17T07:17:48.000Z</time></trkpt><trkpt lon="5.529083" lat="51.179794"><ele>43</ele><time>2022-04-17T07:17:49.000Z</time></trkpt><trkpt lon="5.52898" lat="51.179836"><ele>43</ele><time>2022-04-17T07:17:50.000Z</time></trkpt><trkpt lon="5.528875" lat="51.179879"><ele>43</ele><time>2022-04-17T07:17:51.000Z</time></trkpt><trkpt lon="5.528776" lat="51.179922"><ele>43.2</ele><time>2022-04-17T07:17:52.000Z</time></trkpt><trkpt lon="5.528682" lat="51.179967"><ele>43.2</ele><time>2022-04-17T07:17:53.000Z</time></trkpt><trkpt lon="5.528595" lat="51.180015"><ele>43.2</ele><time>2022-04-17T07:17:54.000Z</time></trkpt><trkpt lon="5.528515" lat="51.180071"><ele>43.2</ele><time>2022-04-17T07:17:55.000Z</time></trkpt><trkpt lon="5.528439" lat="51.180129"><ele>43.2</ele><time>2022-04-17T07:17:56.000Z</time></trkpt><trkpt lon="5.528364" lat="51.180185"><ele>43.2</ele><time>2022-04-17T07:17:57.000Z</time></trkpt><trkpt lon="5.52829" lat="51.180243"><ele>43.2</ele><time>2022-04-17T07:17:58.000Z</time></trkpt><trkpt lon="5.528216" lat="51.180303"><ele>43.2</ele><time>2022-04-17T07:17:59.000Z</time></trkpt><trkpt lon="5.528147" lat="51.18036"><ele>43.4</ele><time>2022-04-17T07:18:00.000Z</time></trkpt><trkpt lon="5.528079" lat="51.180417"><ele>43.4</ele><time>2022-04-17T07:18:01.000Z</time></trkpt><trkpt lon="5.528013" lat="51.18048"><ele>43.6</ele><time>2022-04-17T07:18:02.000Z</time></trkpt><trkpt lon="5.527951" lat="51.180544"><ele>43.6</ele><time>2022-04-17T07:18:03.000Z</time></trkpt><trkpt lon="5.527892" lat="51.18061"><ele>43.6</ele><time>2022-04-17T07:18:04.000Z</time></trkpt><trkpt lon="5.527834" lat="51.180673"><ele>43.6</ele><time>2022-04-17T07:18:05.000Z</time></trkpt><trkpt lon="5.527775" lat="51.180737"><ele>43.6</ele><time>2022-04-17T07:18:06.000Z</time></trkpt><trkpt lon="5.527719" lat="51.1808"><ele>43.4</ele><time>2022-04-17T07:18:07.000Z</time></trkpt><trkpt lon="5.527662" lat="51.180862"><ele>43.4</ele><time>2022-04-17T07:18:08.000Z</time></trkpt><trkpt lon="5.527605" lat="51.180927"><ele>43.4</ele><time>2022-04-17T07:18:09.000Z</time></trkpt><trkpt lon="5.527548" lat="51.180992"><ele>43.4</ele><time>2022-04-17T07:18:10.000Z</time></trkpt><trkpt lon="5.527493" lat="51.181058"><ele>43.4</ele><time>2022-04-17T07:18:11.000Z</time></trkpt><trkpt lon="5.52744" lat="51.181125"><ele>43.4</ele><time>2022-04-17T07:18:12.000Z</time></trkpt><trkpt lon="5.527385" lat="51.18119"><ele>43.4</ele><time>2022-04-17T07:18:13.000Z</time></trkpt><trkpt lon="5.527331" lat="51.181256"><ele>43.4</ele><time>2022-04-17T07:18:14.000Z</time></trkpt><trkpt lon="5.52728" lat="51.181324"><ele>43.4</ele><time>2022-04-17T07:18:15.000Z</time></trkpt><trkpt lon="5.527229" lat="51.181389"><ele>43.4</ele><time>2022-04-17T07:18:16.000Z</time></trkpt><trkpt lon="5.527179" lat="51.181454"><ele>43.4</ele><time>2022-04-17T07:18:17.000Z</time></trkpt><trkpt lon="5.527129" lat="51.181517"><ele>43.4</ele><time>2022-04-17T07:18:18.000Z</time></trkpt><trkpt lon="5.52708" lat="51.181579"><ele>43.4</ele><time>2022-04-17T07:18:19.000Z</time></trkpt><trkpt lon="5.527032" lat="51.181643"><ele>43.4</ele><time>2022-04-17T07:18:20.000Z</time></trkpt><trkpt lon="5.526982" lat="51.181708"><ele>43.6</ele><time>2022-04-17T07:18:21.000Z</time></trkpt><trkpt lon="5.526933" lat="51.18177"><ele>43.6</ele><time>2022-04-17T07:18:22.000Z</time></trkpt><trkpt lon="5.526885" lat="51.181833"><ele>43.6</ele><time>2022-04-17T07:18:23.000Z</time></trkpt><trkpt lon="5.526838" lat="51.181895"><ele>43.6</ele><time>2022-04-17T07:18:24.000Z</time></trkpt><trkpt lon="5.526792" lat="51.181956"><ele>43.6</ele><time>2022-04-17T07:18:25.000Z</time></trkpt><trkpt lon="5.526748" lat="51.182016"><ele>43.8</ele><time>2022-04-17T07:18:26.000Z</time></trkpt><trkpt lon="5.526706" lat="51.182074"><ele>44</ele><time>2022-04-17T07:18:27.000Z</time></trkpt><trkpt lon="5.526665" lat="51.182134"><ele>44.2</ele><time>2022-04-17T07:18:28.000Z</time></trkpt><trkpt lon="5.526624" lat="51.182189"><ele>44.2</ele><time>2022-04-17T07:18:29.000Z</time></trkpt><trkpt lon="5.526587" lat="51.182237"><ele>44.4</ele><time>2022-04-17T07:18:30.000Z</time></trkpt><trkpt lon="5.526545" lat="51.182279"><ele>44.4</ele><time>2022-04-17T07:18:31.000Z</time></trkpt><trkpt lon="5.526485" lat="51.182308"><ele>44.4</ele><time>2022-04-17T07:18:32.000Z</time></trkpt><trkpt lon="5.526409" lat="51.18232"><ele>44.4</ele><time>2022-04-17T07:18:33.000Z</time></trkpt><trkpt lon="5.526319" lat="51.182315"><ele>44.4</ele><time>2022-04-17T07:18:34.000Z</time></trkpt><trkpt lon="5.526227" lat="51.182294"><ele>44.4</ele><time>2022-04-17T07:18:35.000Z</time></trkpt><trkpt lon="5.526129" lat="51.182266"><ele>44.4</ele><time>2022-04-17T07:18:36.000Z</time></trkpt><trkpt lon="5.526033" lat="51.18224"><ele>44.6</ele><time>2022-04-17T07:18:37.000Z</time></trkpt><trkpt lon="5.525935" lat="51.182217"><ele>44.6</ele><time>2022-04-17T07:18:38.000Z</time></trkpt><trkpt lon="5.525835" lat="51.18219"><ele>44.4</ele><time>2022-04-17T07:18:39.000Z</time></trkpt><trkpt lon="5.525734" lat="51.182163"><ele>44.4</ele><time>2022-04-17T07:18:40.000Z</time></trkpt><trkpt lon="5.525634" lat="51.182136"><ele>44.6</ele><time>2022-04-17T07:18:41.000Z</time></trkpt><trkpt lon="5.525535" lat="51.182111"><ele>44.6</ele><time>2022-04-17T07:18:42.000Z</time></trkpt><trkpt lon="5.525435" lat="51.182086"><ele>44.6</ele><time>2022-04-17T07:18:43.000Z</time></trkpt><trkpt lon="5.525337" lat="51.182055"><ele>44.8</ele><time>2022-04-17T07:18:44.000Z</time></trkpt><trkpt lon="5.525237" lat="51.182026"><ele>44.8</ele><time>2022-04-17T07:18:45.000Z</time></trkpt><trkpt lon="5.525138" lat="51.181999"><ele>44.8</ele><time>2022-04-17T07:18:46.000Z</time></trkpt><trkpt lon="5.525042" lat="51.181968"><ele>44.8</ele><time>2022-04-17T07:18:47.000Z</time></trkpt><trkpt lon="5.524944" lat="51.181937"><ele>45</ele><time>2022-04-17T07:18:48.000Z</time></trkpt><trkpt lon="5.524846" lat="51.181906"><ele>45</ele><time>2022-04-17T07:18:49.000Z</time></trkpt><trkpt lon="5.524748" lat="51.181871"><ele>45</ele><time>2022-04-17T07:18:50.000Z</time></trkpt><trkpt lon="5.524649" lat="51.181838"><ele>45</ele><time>2022-04-17T07:18:51.000Z</time></trkpt><trkpt lon="5.524554" lat="51.181806"><ele>45</ele><time>2022-04-17T07:18:52.000Z</time></trkpt><trkpt lon="5.524461" lat="51.181771"><ele>45</ele><time>2022-04-17T07:18:53.000Z</time></trkpt><trkpt lon="5.524366" lat="51.181735"><ele>45</ele><time>2022-04-17T07:18:54.000Z</time></trkpt><trkpt lon="5.524269" lat="51.181704"><ele>45</ele><time>2022-04-17T07:18:55.000Z</time></trkpt><trkpt lon="5.524171" lat="51.181673"><ele>45.2</ele><time>2022-04-17T07:18:56.000Z</time></trkpt><trkpt lon="5.524072" lat="51.18164"><ele>45.2</ele><time>2022-04-17T07:18:57.000Z</time></trkpt><trkpt lon="5.523976" lat="51.181608"><ele>45.2</ele><time>2022-04-17T07:18:58.000Z</time></trkpt><trkpt lon="5.52388" lat="51.181573"><ele>45.2</ele><time>2022-04-17T07:18:59.000Z</time></trkpt><trkpt lon="5.523784" lat="51.181535"><ele>45.2</ele><time>2022-04-17T07:19:00.000Z</time></trkpt><trkpt lon="5.523689" lat="51.181501"><ele>45</ele><time>2022-04-17T07:19:01.000Z</time></trkpt><trkpt lon="5.523597" lat="51.181466"><ele>45.2</ele><time>2022-04-17T07:19:02.000Z</time></trkpt><trkpt lon="5.523504" lat="51.181429"><ele>45.2</ele><time>2022-04-17T07:19:03.000Z</time></trkpt><trkpt lon="5.523407" lat="51.181394"><ele>45.2</ele><time>2022-04-17T07:19:04.000Z</time></trkpt><trkpt lon="5.523312" lat="51.18136"><ele>45.4</ele><time>2022-04-17T07:19:05.000Z</time></trkpt><trkpt lon="5.523217" lat="51.181327"><ele>45.4</ele><time>2022-04-17T07:19:06.000Z</time></trkpt><trkpt lon="5.52312" lat="51.181296"><ele>45.6</ele><time>2022-04-17T07:19:07.000Z</time></trkpt><trkpt lon="5.523021" lat="51.181265"><ele>45.6</ele><time>2022-04-17T07:19:08.000Z</time></trkpt><trkpt lon="5.522925" lat="51.181232"><ele>45.6</ele><time>2022-04-17T07:19:09.000Z</time></trkpt><trkpt lon="5.522828" lat="51.181201"><ele>45.8</ele><time>2022-04-17T07:19:10.000Z</time></trkpt><trkpt lon="5.522731" lat="51.181171"><ele>45.8</ele><time>2022-04-17T07:19:11.000Z</time></trkpt><trkpt lon="5.522631" lat="51.181147"><ele>46</ele><time>2022-04-17T07:19:12.000Z</time></trkpt><trkpt lon="5.522532" lat="51.18113"><ele>46</ele><time>2022-04-17T07:19:13.000Z</time></trkpt><trkpt lon="5.522438" lat="51.181117"><ele>46.2</ele><time>2022-04-17T07:19:14.000Z</time></trkpt><trkpt lon="5.522349" lat="51.181104"><ele>46.2</ele><time>2022-04-17T07:19:15.000Z</time></trkpt><trkpt lon="5.52226" lat="51.181097"><ele>46.4</ele><time>2022-04-17T07:19:16.000Z</time></trkpt><trkpt lon="5.522174" lat="51.181088"><ele>46.6</ele><time>2022-04-17T07:19:17.000Z</time></trkpt><trkpt lon="5.522087" lat="51.181078"><ele>46.8</ele><time>2022-04-17T07:19:18.000Z</time></trkpt><trkpt lon="5.521996" lat="51.181069"><ele>46.8</ele><time>2022-04-17T07:19:19.000Z</time></trkpt><trkpt lon="5.521902" lat="51.181056"><ele>47</ele><time>2022-04-17T07:19:20.000Z</time></trkpt><trkpt lon="5.521803" lat="51.181042"><ele>47</ele><time>2022-04-17T07:19:21.000Z</time></trkpt><trkpt lon="5.521703" lat="51.18103"><ele>47.2</ele><time>2022-04-17T07:19:22.000Z</time></trkpt><trkpt lon="5.521606" lat="51.181014"><ele>47.4</ele><time>2022-04-17T07:19:23.000Z</time></trkpt><trkpt lon="5.52151" lat="51.180993"><ele>47.4</ele><time>2022-04-17T07:19:24.000Z</time></trkpt><trkpt lon="5.521415" lat="51.180972"><ele>47.6</ele><time>2022-04-17T07:19:25.000Z</time></trkpt><trkpt lon="5.521321" lat="51.180951"><ele>47.8</ele><time>2022-04-17T07:19:26.000Z</time></trkpt><trkpt lon="5.52123" lat="51.180927"><ele>47.8</ele><time>2022-04-17T07:19:27.000Z</time></trkpt><trkpt lon="5.521142" lat="51.180901"><ele>48</ele><time>2022-04-17T07:19:28.000Z</time></trkpt><trkpt lon="5.521054" lat="51.180873"><ele>48</ele><time>2022-04-17T07:19:29.000Z</time></trkpt><trkpt lon="5.520967" lat="51.180841"><ele>48.2</ele><time>2022-04-17T07:19:30.000Z</time></trkpt><trkpt lon="5.52088" lat="51.180807"><ele>48.2</ele><time>2022-04-17T07:19:31.000Z</time></trkpt><trkpt lon="5.520792" lat="51.180771"><ele>48.4</ele><time>2022-04-17T07:19:32.000Z</time></trkpt><trkpt lon="5.520706" lat="51.180733"><ele>48.4</ele><time>2022-04-17T07:19:33.000Z</time></trkpt><trkpt lon="5.520624" lat="51.180693"><ele>48.4</ele><time>2022-04-17T07:19:34.000Z</time></trkpt><trkpt lon="5.520544" lat="51.180649"><ele>48.4</ele><time>2022-04-17T07:19:35.000Z</time></trkpt><trkpt lon="5.520468" lat="51.180602"><ele>48.4</ele><time>2022-04-17T07:19:36.000Z</time></trkpt><trkpt lon="5.520407" lat="51.180547"><ele>48.4</ele><time>2022-04-17T07:19:37.000Z</time></trkpt><trkpt lon="5.520361" lat="51.180486"><ele>48.4</ele><time>2022-04-17T07:19:38.000Z</time></trkpt><trkpt lon="5.520325" lat="51.18042"><ele>48.6</ele><time>2022-04-17T07:19:39.000Z</time></trkpt><trkpt lon="5.5203" lat="51.180355"><ele>48.6</ele><time>2022-04-17T07:19:40.000Z</time></trkpt><trkpt lon="5.520282" lat="51.180287"><ele>48.6</ele><time>2022-04-17T07:19:41.000Z</time></trkpt><trkpt lon="5.520273" lat="51.18022"><ele>48.6</ele><time>2022-04-17T07:19:42.000Z</time></trkpt><trkpt lon="5.520277" lat="51.180152"><ele>48.4</ele><time>2022-04-17T07:19:43.000Z</time></trkpt><trkpt lon="5.520298" lat="51.180084"><ele>48.6</ele><time>2022-04-17T07:19:44.000Z</time></trkpt><trkpt lon="5.520329" lat="51.180016"><ele>48.6</ele><time>2022-04-17T07:19:45.000Z</time></trkpt><trkpt lon="5.520369" lat="51.179952"><ele>48.6</ele><time>2022-04-17T07:19:46.000Z</time></trkpt><trkpt lon="5.520413" lat="51.179886"><ele>48.6</ele><time>2022-04-17T07:19:47.000Z</time></trkpt><trkpt lon="5.520455" lat="51.179822"><ele>48.4</ele><time>2022-04-17T07:19:48.000Z</time></trkpt><trkpt lon="5.520496" lat="51.179761"><ele>48.4</ele><time>2022-04-17T07:19:49.000Z</time></trkpt><trkpt lon="5.520537" lat="51.179696"><ele>48.4</ele><time>2022-04-17T07:19:50.000Z</time></trkpt><trkpt lon="5.520579" lat="51.179635"><ele>48.6</ele><time>2022-04-17T07:19:51.000Z</time></trkpt><trkpt lon="5.52062" lat="51.179575"><ele>48.4</ele><time>2022-04-17T07:19:52.000Z</time></trkpt><trkpt lon="5.520662" lat="51.179515"><ele>48.4</ele><time>2022-04-17T07:19:53.000Z</time></trkpt><trkpt lon="5.520701" lat="51.179453"><ele>48.6</ele><time>2022-04-17T07:19:54.000Z</time></trkpt><trkpt lon="5.520741" lat="51.179394"><ele>48.6</ele><time>2022-04-17T07:19:55.000Z</time></trkpt><trkpt lon="5.520778" lat="51.17934"><ele>48.6</ele><time>2022-04-17T07:19:56.000Z</time></trkpt><trkpt lon="5.520814" lat="51.179286"><ele>48.6</ele><time>2022-04-17T07:19:57.000Z</time></trkpt><trkpt lon="5.520851" lat="51.179229"><ele>48.4</ele><time>2022-04-17T07:19:58.000Z</time></trkpt><trkpt lon="5.520891" lat="51.179171"><ele>48.6</ele><time>2022-04-17T07:19:59.000Z</time></trkpt><trkpt lon="5.520935" lat="51.179114"><ele>48.6</ele><time>2022-04-17T07:20:00.000Z</time></trkpt><trkpt lon="5.520984" lat="51.179058"><ele>48.6</ele><time>2022-04-17T07:20:01.000Z</time></trkpt><trkpt lon="5.52104" lat="51.179006"><ele>48.6</ele><time>2022-04-17T07:20:02.000Z</time></trkpt><trkpt lon="5.5211" lat="51.178959"><ele>48.8</ele><time>2022-04-17T07:20:03.000Z</time></trkpt><trkpt lon="5.521164" lat="51.178913"><ele>48.8</ele><time>2022-04-17T07:20:04.000Z</time></trkpt><trkpt lon="5.521231" lat="51.17887"><ele>48.8</ele><time>2022-04-17T07:20:05.000Z</time></trkpt><trkpt lon="5.521298" lat="51.178828"><ele>49</ele><time>2022-04-17T07:20:06.000Z</time></trkpt><trkpt lon="5.521363" lat="51.178787"><ele>49</ele><time>2022-04-17T07:20:07.000Z</time></trkpt><trkpt lon="5.521425" lat="51.178745"><ele>49</ele><time>2022-04-17T07:20:08.000Z</time></trkpt><trkpt lon="5.521472" lat="51.178701"><ele>49</ele><time>2022-04-17T07:20:09.000Z</time></trkpt><trkpt lon="5.521493" lat="51.178654"><ele>49</ele><time>2022-04-17T07:20:10.000Z</time></trkpt><trkpt lon="5.521482" lat="51.178612"><ele>49</ele><time>2022-04-17T07:20:11.000Z</time></trkpt><trkpt lon="5.521441" lat="51.178569"><ele>49</ele><time>2022-04-17T07:20:12.000Z</time></trkpt><trkpt lon="5.521382" lat="51.178526"><ele>49</ele><time>2022-04-17T07:20:13.000Z</time></trkpt><trkpt lon="5.52131" lat="51.178476"><ele>48.8</ele><time>2022-04-17T07:20:14.000Z</time></trkpt><trkpt lon="5.521238" lat="51.178426"><ele>48.8</ele><time>2022-04-17T07:20:15.000Z</time></trkpt><trkpt lon="5.521165" lat="51.178377"><ele>48.8</ele><time>2022-04-17T07:20:16.000Z</time></trkpt><trkpt lon="5.52109" lat="51.178326"><ele>48.8</ele><time>2022-04-17T07:20:17.000Z</time></trkpt><trkpt lon="5.521017" lat="51.178274"><ele>48.6</ele><time>2022-04-17T07:20:18.000Z</time></trkpt><trkpt lon="5.520946" lat="51.178223"><ele>48.8</ele><time>2022-04-17T07:20:19.000Z</time></trkpt><trkpt lon="5.520873" lat="51.178171"><ele>48.8</ele><time>2022-04-17T07:20:20.000Z</time></trkpt><trkpt lon="5.5208" lat="51.178122"><ele>48.6</ele><time>2022-04-17T07:20:21.000Z</time></trkpt><trkpt lon="5.520727" lat="51.178072"><ele>48.6</ele><time>2022-04-17T07:20:22.000Z</time></trkpt><trkpt lon="5.520653" lat="51.178022"><ele>48.4</ele><time>2022-04-17T07:20:23.000Z</time></trkpt><trkpt lon="5.520579" lat="51.177971"><ele>48.4</ele><time>2022-04-17T07:20:24.000Z</time></trkpt><trkpt lon="5.520507" lat="51.177919"><ele>48.6</ele><time>2022-04-17T07:20:25.000Z</time></trkpt><trkpt lon="5.520436" lat="51.177868"><ele>48.8</ele><time>2022-04-17T07:20:26.000Z</time></trkpt><trkpt lon="5.520367" lat="51.177816"><ele>48.8</ele><time>2022-04-17T07:20:27.000Z</time></trkpt><trkpt lon="5.520297" lat="51.177767"><ele>48.6</ele><time>2022-04-17T07:20:28.000Z</time></trkpt><trkpt lon="5.520224" lat="51.177717"><ele>48.8</ele><time>2022-04-17T07:20:29.000Z</time></trkpt><trkpt lon="5.520153" lat="51.177667"><ele>48.8</ele><time>2022-04-17T07:20:30.000Z</time></trkpt><trkpt lon="5.520081" lat="51.177617"><ele>48.8</ele><time>2022-04-17T07:20:31.000Z</time></trkpt><trkpt lon="5.520012" lat="51.177568"><ele>49</ele><time>2022-04-17T07:20:32.000Z</time></trkpt><trkpt lon="5.519941" lat="51.177516"><ele>49</ele><time>2022-04-17T07:20:33.000Z</time></trkpt><trkpt lon="5.519868" lat="51.177469"><ele>49</ele><time>2022-04-17T07:20:34.000Z</time></trkpt><trkpt lon="5.519796" lat="51.177421"><ele>49</ele><time>2022-04-17T07:20:35.000Z</time></trkpt><trkpt lon="5.519725" lat="51.177369"><ele>49.2</ele><time>2022-04-17T07:20:36.000Z</time></trkpt><trkpt lon="5.519655" lat="51.177321"><ele>49.2</ele><time>2022-04-17T07:20:37.000Z</time></trkpt><trkpt lon="5.519583" lat="51.177276"><ele>49.4</ele><time>2022-04-17T07:20:38.000Z</time></trkpt><trkpt lon="5.51951" lat="51.177236"><ele>49.4</ele><time>2022-04-17T07:20:39.000Z</time></trkpt><trkpt lon="5.51943" lat="51.177207"><ele>49.4</ele><time>2022-04-17T07:20:40.000Z</time></trkpt><trkpt lon="5.519337" lat="51.177191"><ele>49.4</ele><time>2022-04-17T07:20:41.000Z</time></trkpt><trkpt lon="5.519243" lat="51.177185"><ele>49.4</ele><time>2022-04-17T07:20:42.000Z</time></trkpt><trkpt lon="5.519139" lat="51.177187"><ele>49.4</ele><time>2022-04-17T07:20:43.000Z</time></trkpt><trkpt lon="5.519029" lat="51.177195"><ele>49.4</ele><time>2022-04-17T07:20:44.000Z</time></trkpt><trkpt lon="5.518913" lat="51.177202"><ele>49.2</ele><time>2022-04-17T07:20:45.000Z</time></trkpt><trkpt lon="5.518802" lat="51.177209"><ele>49.2</ele><time>2022-04-17T07:20:46.000Z</time></trkpt><trkpt lon="5.51869" lat="51.177215"><ele>49.4</ele><time>2022-04-17T07:20:47.000Z</time></trkpt><trkpt lon="5.51858" lat="51.177225"><ele>49.4</ele><time>2022-04-17T07:20:48.000Z</time></trkpt><trkpt lon="5.51847" lat="51.177233"><ele>49.4</ele><time>2022-04-17T07:20:49.000Z</time></trkpt><trkpt lon="5.518357" lat="51.177242"><ele>49.4</ele><time>2022-04-17T07:20:50.000Z</time></trkpt><trkpt lon="5.518239" lat="51.177252"><ele>49.4</ele><time>2022-04-17T07:20:51.000Z</time></trkpt><trkpt lon="5.518126" lat="51.17726"><ele>49.4</ele><time>2022-04-17T07:20:52.000Z</time></trkpt><trkpt lon="5.51801" lat="51.177268"><ele>49.4</ele><time>2022-04-17T07:20:53.000Z</time></trkpt><trkpt lon="5.517895" lat="51.177279"><ele>49.2</ele><time>2022-04-17T07:20:54.000Z</time></trkpt><trkpt lon="5.517782" lat="51.177286"><ele>49.2</ele><time>2022-04-17T07:20:55.000Z</time></trkpt><trkpt lon="5.517667" lat="51.177295"><ele>49</ele><time>2022-04-17T07:20:56.000Z</time></trkpt><trkpt lon="5.517553" lat="51.177307"><ele>49</ele><time>2022-04-17T07:20:57.000Z</time></trkpt><trkpt lon="5.51744" lat="51.177317"><ele>49</ele><time>2022-04-17T07:20:58.000Z</time></trkpt><trkpt lon="5.517326" lat="51.177325"><ele>49</ele><time>2022-04-17T07:20:59.000Z</time></trkpt><trkpt lon="5.517212" lat="51.177333"><ele>49.2</ele><time>2022-04-17T07:21:00.000Z</time></trkpt><trkpt lon="5.517098" lat="51.177344"><ele>49.2</ele><time>2022-04-17T07:21:01.000Z</time></trkpt><trkpt lon="5.516988" lat="51.177351"><ele>49.2</ele><time>2022-04-17T07:21:02.000Z</time></trkpt><trkpt lon="5.516879" lat="51.17736"><ele>49.2</ele><time>2022-04-17T07:21:03.000Z</time></trkpt><trkpt lon="5.516768" lat="51.17737"><ele>49.2</ele><time>2022-04-17T07:21:04.000Z</time></trkpt><trkpt lon="5.516652" lat="51.177378"><ele>49.2</ele><time>2022-04-17T07:21:05.000Z</time></trkpt><trkpt lon="5.516539" lat="51.177387"><ele>49.2</ele><time>2022-04-17T07:21:06.000Z</time></trkpt><trkpt lon="5.51643" lat="51.177397"><ele>49.2</ele><time>2022-04-17T07:21:07.000Z</time></trkpt><trkpt lon="5.516318" lat="51.177405"><ele>49.2</ele><time>2022-04-17T07:21:08.000Z</time></trkpt><trkpt lon="5.516207" lat="51.177412"><ele>49.2</ele><time>2022-04-17T07:21:09.000Z</time></trkpt><trkpt lon="5.516097" lat="51.17742"><ele>49.2</ele><time>2022-04-17T07:21:10.000Z</time></trkpt><trkpt lon="5.515988" lat="51.177428"><ele>49.2</ele><time>2022-04-17T07:21:11.000Z</time></trkpt><trkpt lon="5.515882" lat="51.177439"><ele>49</ele><time>2022-04-17T07:21:12.000Z</time></trkpt><trkpt lon="5.515781" lat="51.177446"><ele>49</ele><time>2022-04-17T07:21:13.000Z</time></trkpt><trkpt lon="5.515681" lat="51.177454"><ele>49</ele><time>2022-04-17T07:21:14.000Z</time></trkpt><trkpt lon="5.515593" lat="51.177463"><ele>49.2</ele><time>2022-04-17T07:21:15.000Z</time></trkpt><trkpt lon="5.515523" lat="51.177475"><ele>49.2</ele><time>2022-04-17T07:21:16.000Z</time></trkpt><trkpt lon="5.515476" lat="51.17749"><ele>49.4</ele><time>2022-04-17T07:21:17.000Z</time></trkpt><trkpt lon="5.515454" lat="51.177506"><ele>49.6</ele><time>2022-04-17T07:21:18.000Z</time></trkpt><trkpt lon="5.515458" lat="51.177526"><ele>49.6</ele><time>2022-04-17T07:21:19.000Z</time></trkpt><trkpt lon="5.515476" lat="51.177563"><ele>49.4</ele><time>2022-04-17T07:21:20.000Z</time></trkpt><trkpt lon="5.515499" lat="51.177609"><ele>49.4</ele><time>2022-04-17T07:21:21.000Z</time></trkpt><trkpt lon="5.515525" lat="51.177667"><ele>49.2</ele><time>2022-04-17T07:21:22.000Z</time></trkpt><trkpt lon="5.515553" lat="51.177729"><ele>49</ele><time>2022-04-17T07:21:23.000Z</time></trkpt><trkpt lon="5.515582" lat="51.177795"><ele>49</ele><time>2022-04-17T07:21:24.000Z</time></trkpt><trkpt lon="5.515608" lat="51.177864"><ele>49</ele><time>2022-04-17T07:21:25.000Z</time></trkpt><trkpt lon="5.515633" lat="51.177933"><ele>49</ele><time>2022-04-17T07:21:26.000Z</time></trkpt><trkpt lon="5.515656" lat="51.178001"><ele>48.8</ele><time>2022-04-17T07:21:27.000Z</time></trkpt><trkpt lon="5.515677" lat="51.178074"><ele>48.8</ele><time>2022-04-17T07:21:28.000Z</time></trkpt><trkpt lon="5.515697" lat="51.178142"><ele>48.8</ele><time>2022-04-17T07:21:29.000Z</time></trkpt><trkpt lon="5.515716" lat="51.178213"><ele>48.8</ele><time>2022-04-17T07:21:30.000Z</time></trkpt><trkpt lon="5.515734" lat="51.178284"><ele>48.8</ele><time>2022-04-17T07:21:31.000Z</time></trkpt><trkpt lon="5.515749" lat="51.178352"><ele>48.8</ele><time>2022-04-17T07:21:32.000Z</time></trkpt><trkpt lon="5.515763" lat="51.178423"><ele>48.6</ele><time>2022-04-17T07:21:33.000Z</time></trkpt><trkpt lon="5.515778" lat="51.178496"><ele>48.6</ele><time>2022-04-17T07:21:34.000Z</time></trkpt><trkpt lon="5.515794" lat="51.178568"><ele>48.6</ele><time>2022-04-17T07:21:35.000Z</time></trkpt><trkpt lon="5.51581" lat="51.178639"><ele>48.6</ele><time>2022-04-17T07:21:36.000Z</time></trkpt><trkpt lon="5.515826" lat="51.178707"><ele>48.6</ele><time>2022-04-17T07:21:37.000Z</time></trkpt><trkpt lon="5.515841" lat="51.178776"><ele>48.6</ele><time>2022-04-17T07:21:38.000Z</time></trkpt><trkpt lon="5.515857" lat="51.178849"><ele>48.8</ele><time>2022-04-17T07:21:39.000Z</time></trkpt><trkpt lon="5.515873" lat="51.17892"><ele>48.8</ele><time>2022-04-17T07:21:40.000Z</time></trkpt><trkpt lon="5.515888" lat="51.178987"><ele>49</ele><time>2022-04-17T07:21:41.000Z</time></trkpt><trkpt lon="5.515905" lat="51.179059"><ele>49</ele><time>2022-04-17T07:21:42.000Z</time></trkpt><trkpt lon="5.515921" lat="51.179129"><ele>49</ele><time>2022-04-17T07:21:43.000Z</time></trkpt><trkpt lon="5.515939" lat="51.179199"><ele>49</ele><time>2022-04-17T07:21:44.000Z</time></trkpt><trkpt lon="5.515957" lat="51.179268"><ele>49</ele><time>2022-04-17T07:21:45.000Z</time></trkpt><trkpt lon="5.515974" lat="51.17934"><ele>49</ele><time>2022-04-17T07:21:46.000Z</time></trkpt><trkpt lon="5.51599" lat="51.179408"><ele>49</ele><time>2022-04-17T07:21:47.000Z</time></trkpt><trkpt lon="5.516008" lat="51.179474"><ele>49</ele><time>2022-04-17T07:21:48.000Z</time></trkpt><trkpt lon="5.516024" lat="51.179542"><ele>49</ele><time>2022-04-17T07:21:49.000Z</time></trkpt><trkpt lon="5.516042" lat="51.179612"><ele>49</ele><time>2022-04-17T07:21:50.000Z</time></trkpt><trkpt lon="5.51606" lat="51.179681"><ele>49</ele><time>2022-04-17T07:21:51.000Z</time></trkpt><trkpt lon="5.516076" lat="51.179751"><ele>49</ele><time>2022-04-17T07:21:52.000Z</time></trkpt><trkpt lon="5.51609" lat="51.179819"><ele>49</ele><time>2022-04-17T07:21:53.000Z</time></trkpt><trkpt lon="5.516104" lat="51.179891"><ele>48.8</ele><time>2022-04-17T07:21:54.000Z</time></trkpt><trkpt lon="5.516121" lat="51.179962"><ele>48.8</ele><time>2022-04-17T07:21:55.000Z</time></trkpt><trkpt lon="5.516137" lat="51.180031"><ele>48.8</ele><time>2022-04-17T07:21:56.000Z</time></trkpt><trkpt lon="5.516152" lat="51.180104"><ele>48.8</ele><time>2022-04-17T07:21:57.000Z</time></trkpt><trkpt lon="5.516163" lat="51.180175"><ele>48.8</ele><time>2022-04-17T07:21:58.000Z</time></trkpt><trkpt lon="5.516174" lat="51.180243"><ele>48.8</ele><time>2022-04-17T07:21:59.000Z</time></trkpt><trkpt lon="5.516186" lat="51.180312"><ele>48.8</ele><time>2022-04-17T07:22:00.000Z</time></trkpt><trkpt lon="5.516195" lat="51.18038"><ele>49</ele><time>2022-04-17T07:22:01.000Z</time></trkpt><trkpt lon="5.516208" lat="51.180446"><ele>49</ele><time>2022-04-17T07:22:02.000Z</time></trkpt><trkpt lon="5.516222" lat="51.180509"><ele>49.2</ele><time>2022-04-17T07:22:03.000Z</time></trkpt><trkpt lon="5.516235" lat="51.180575"><ele>49.2</ele><time>2022-04-17T07:22:04.000Z</time></trkpt><trkpt lon="5.516248" lat="51.180638"><ele>49</ele><time>2022-04-17T07:22:05.000Z</time></trkpt><trkpt lon="5.516262" lat="51.1807"><ele>49</ele><time>2022-04-17T07:22:06.000Z</time></trkpt><trkpt lon="5.516276" lat="51.180757"><ele>49</ele><time>2022-04-17T07:22:07.000Z</time></trkpt><trkpt lon="5.516293" lat="51.180819"><ele>49</ele><time>2022-04-17T07:22:08.000Z</time></trkpt><trkpt lon="5.516313" lat="51.180883"><ele>49.2</ele><time>2022-04-17T07:22:09.000Z</time></trkpt><trkpt lon="5.516331" lat="51.180944"><ele>49</ele><time>2022-04-17T07:22:10.000Z</time></trkpt><trkpt lon="5.516347" lat="51.181008"><ele>49</ele><time>2022-04-17T07:22:11.000Z</time></trkpt><trkpt lon="5.516366" lat="51.18108"><ele>49</ele><time>2022-04-17T07:22:12.000Z</time></trkpt><trkpt lon="5.516385" lat="51.181151"><ele>49</ele><time>2022-04-17T07:22:13.000Z</time></trkpt><trkpt lon="5.516403" lat="51.181222"><ele>49.2</ele><time>2022-04-17T07:22:14.000Z</time></trkpt><trkpt lon="5.516422" lat="51.181298"><ele>49.2</ele><time>2022-04-17T07:22:15.000Z</time></trkpt><trkpt lon="5.516441" lat="51.181373"><ele>49.2</ele><time>2022-04-17T07:22:16.000Z</time></trkpt><trkpt lon="5.516459" lat="51.181446"><ele>49</ele><time>2022-04-17T07:22:17.000Z</time></trkpt><trkpt lon="5.516476" lat="51.181519"><ele>49</ele><time>2022-04-17T07:22:18.000Z</time></trkpt><trkpt lon="5.516493" lat="51.181589"><ele>49.2</ele><time>2022-04-17T07:22:19.000Z</time></trkpt><trkpt lon="5.516505" lat="51.181652"><ele>49.2</ele><time>2022-04-17T07:22:20.000Z</time></trkpt><trkpt lon="5.516509" lat="51.181709"><ele>49.4</ele><time>2022-04-17T07:22:21.000Z</time></trkpt><trkpt lon="5.516498" lat="51.181759"><ele>49.4</ele><time>2022-04-17T07:22:22.000Z</time></trkpt><trkpt lon="5.516463" lat="51.181804"><ele>49.4</ele><time>2022-04-17T07:22:23.000Z</time></trkpt><trkpt lon="5.516401" lat="51.181841"><ele>49.6</ele><time>2022-04-17T07:22:24.000Z</time></trkpt><trkpt lon="5.516325" lat="51.181861"><ele>49.8</ele><time>2022-04-17T07:22:25.000Z</time></trkpt><trkpt lon="5.516243" lat="51.181874"><ele>50</ele><time>2022-04-17T07:22:26.000Z</time></trkpt><trkpt lon="5.516156" lat="51.181887"><ele>50.2</ele><time>2022-04-17T07:22:27.000Z</time></trkpt><trkpt lon="5.516068" lat="51.181893"><ele>50.4</ele><time>2022-04-17T07:22:28.000Z</time></trkpt><trkpt lon="5.515976" lat="51.181895"><ele>50.4</ele><time>2022-04-17T07:22:29.000Z</time></trkpt><trkpt lon="5.515885" lat="51.181889"><ele>50.6</ele><time>2022-04-17T07:22:30.000Z</time></trkpt><trkpt lon="5.515794" lat="51.181875"><ele>50.6</ele><time>2022-04-17T07:22:31.000Z</time></trkpt><trkpt lon="5.515701" lat="51.181849"><ele>50.8</ele><time>2022-04-17T07:22:32.000Z</time></trkpt><trkpt lon="5.515611" lat="51.181816"><ele>50.8</ele><time>2022-04-17T07:22:33.000Z</time></trkpt><trkpt lon="5.515527" lat="51.181785"><ele>50.8</ele><time>2022-04-17T07:22:34.000Z</time></trkpt><trkpt lon="5.51545" lat="51.181754"><ele>50.8</ele><time>2022-04-17T07:22:35.000Z</time></trkpt><trkpt lon="5.515377" lat="51.181722"><ele>51</ele><time>2022-04-17T07:22:36.000Z</time></trkpt><trkpt lon="5.51531" lat="51.181689"><ele>51</ele><time>2022-04-17T07:22:37.000Z</time></trkpt><trkpt lon="5.515239" lat="51.181655"><ele>51</ele><time>2022-04-17T07:22:38.000Z</time></trkpt><trkpt lon="5.515172" lat="51.181625"><ele>51</ele><time>2022-04-17T07:22:39.000Z</time></trkpt><trkpt lon="5.51511" lat="51.181594"><ele>51</ele><time>2022-04-17T07:22:40.000Z</time></trkpt><trkpt lon="5.515051" lat="51.181569"><ele>51</ele><time>2022-04-17T07:22:41.000Z</time></trkpt><trkpt lon="5.514995" lat="51.18156"><ele>51.2</ele><time>2022-04-17T07:22:42.000Z</time></trkpt><trkpt lon="5.514935" lat="51.18156"><ele>51</ele><time>2022-04-17T07:22:43.000Z</time></trkpt><trkpt lon="5.514886" lat="51.181572"><ele>51</ele><time>2022-04-17T07:22:44.000Z</time></trkpt><trkpt lon="5.514837" lat="51.18159"><ele>51</ele><time>2022-04-17T07:22:45.000Z</time></trkpt><trkpt lon="5.514791" lat="51.181618"><ele>51</ele><time>2022-04-17T07:22:46.000Z</time></trkpt><trkpt lon="5.514756" lat="51.181649"><ele>51</ele><time>2022-04-17T07:22:47.000Z</time></trkpt><trkpt lon="5.514711" lat="51.181684"><ele>51</ele><time>2022-04-17T07:22:48.000Z</time></trkpt><trkpt lon="5.514656" lat="51.181717"><ele>51</ele><time>2022-04-17T07:22:49.000Z</time></trkpt><trkpt lon="5.514595" lat="51.181743"><ele>51</ele><time>2022-04-17T07:22:50.000Z</time></trkpt><trkpt lon="5.514532" lat="51.181752"><ele>51</ele><time>2022-04-17T07:22:51.000Z</time></trkpt><trkpt lon="5.514467" lat="51.181751"><ele>51</ele><time>2022-04-17T07:22:52.000Z</time></trkpt><trkpt lon="5.514396" lat="51.181734"><ele>51</ele><time>2022-04-17T07:22:53.000Z</time></trkpt><trkpt lon="5.514309" lat="51.18171"><ele>51</ele><time>2022-04-17T07:22:54.000Z</time></trkpt><trkpt lon="5.514216" lat="51.181683"><ele>51</ele><time>2022-04-17T07:22:55.000Z</time></trkpt><trkpt lon="5.514123" lat="51.181657"><ele>51</ele><time>2022-04-17T07:22:56.000Z</time></trkpt><trkpt lon="5.514029" lat="51.18163"><ele>51.2</ele><time>2022-04-17T07:22:57.000Z</time></trkpt><trkpt lon="5.513935" lat="51.181604"><ele>51.2</ele><time>2022-04-17T07:22:58.000Z</time></trkpt><trkpt lon="5.51384" lat="51.181576"><ele>51.4</ele><time>2022-04-17T07:22:59.000Z</time></trkpt><trkpt lon="5.513747" lat="51.181549"><ele>51.4</ele><time>2022-04-17T07:23:00.000Z</time></trkpt><trkpt lon="5.513651" lat="51.181522"><ele>51.4</ele><time>2022-04-17T07:23:01.000Z</time></trkpt><trkpt lon="5.513563" lat="51.181492"><ele>51.4</ele><time>2022-04-17T07:23:02.000Z</time></trkpt><trkpt lon="5.513469" lat="51.181461"><ele>51.4</ele><time>2022-04-17T07:23:03.000Z</time></trkpt><trkpt lon="5.513379" lat="51.181431"><ele>51.4</ele><time>2022-04-17T07:23:04.000Z</time></trkpt><trkpt lon="5.513291" lat="51.181404"><ele>51.2</ele><time>2022-04-17T07:23:05.000Z</time></trkpt><trkpt lon="5.513198" lat="51.181377"><ele>51.2</ele><time>2022-04-17T07:23:06.000Z</time></trkpt><trkpt lon="5.513103" lat="51.18135"><ele>51.2</ele><time>2022-04-17T07:23:07.000Z</time></trkpt><trkpt lon="5.512998" lat="51.181321"><ele>51</ele><time>2022-04-17T07:23:08.000Z</time></trkpt><trkpt lon="5.512887" lat="51.181294"><ele>50.8</ele><time>2022-04-17T07:23:09.000Z</time></trkpt><trkpt lon="5.512775" lat="51.181268"><ele>50.8</ele><time>2022-04-17T07:23:10.000Z</time></trkpt><trkpt lon="5.512651" lat="51.181244"><ele>50.6</ele><time>2022-04-17T07:23:11.000Z</time></trkpt><trkpt lon="5.512522" lat="51.181219"><ele>50.6</ele><time>2022-04-17T07:23:12.000Z</time></trkpt><trkpt lon="5.512405" lat="51.181198"><ele>50.6</ele><time>2022-04-17T07:23:13.000Z</time></trkpt><trkpt lon="5.512283" lat="51.181181"><ele>50.4</ele><time>2022-04-17T07:23:14.000Z</time></trkpt><trkpt lon="5.512151" lat="51.181161"><ele>50.4</ele><time>2022-04-17T07:23:15.000Z</time></trkpt><trkpt lon="5.512044" lat="51.181149"><ele>50.2</ele><time>2022-04-17T07:23:16.000Z</time></trkpt><trkpt lon="5.511933" lat="51.181133"><ele>50.2</ele><time>2022-04-17T07:23:17.000Z</time></trkpt><trkpt lon="5.511831" lat="51.181117"><ele>50.2</ele><time>2022-04-17T07:23:18.000Z</time></trkpt><trkpt lon="5.511729" lat="51.181098"><ele>50</ele><time>2022-04-17T07:23:19.000Z</time></trkpt><trkpt lon="5.511623" lat="51.181081"><ele>49.8</ele><time>2022-04-17T07:23:20.000Z</time></trkpt><trkpt lon="5.511527" lat="51.181067"><ele>49.8</ele><time>2022-04-17T07:23:21.000Z</time></trkpt><trkpt lon="5.511428" lat="51.181048"><ele>49.8</ele><time>2022-04-17T07:23:22.000Z</time></trkpt><trkpt lon="5.511333" lat="51.18103"><ele>49.8</ele><time>2022-04-17T07:23:23.000Z</time></trkpt><trkpt lon="5.511229" lat="51.181009"><ele>49.8</ele><time>2022-04-17T07:23:24.000Z</time></trkpt><trkpt lon="5.511111" lat="51.180987"><ele>49.8</ele><time>2022-04-17T07:23:25.000Z</time></trkpt><trkpt lon="5.510998" lat="51.180964"><ele>49.8</ele><time>2022-04-17T07:23:26.000Z</time></trkpt><trkpt lon="5.510881" lat="51.180945"><ele>49.8</ele><time>2022-04-17T07:23:27.000Z</time></trkpt><trkpt lon="5.510749" lat="51.180925"><ele>49.8</ele><time>2022-04-17T07:23:28.000Z</time></trkpt><trkpt lon="5.510626" lat="51.180902"><ele>49.6</ele><time>2022-04-17T07:23:29.000Z</time></trkpt><trkpt lon="5.510502" lat="51.180879"><ele>49.6</ele><time>2022-04-17T07:23:30.000Z</time></trkpt><trkpt lon="5.510384" lat="51.180855"><ele>49.6</ele><time>2022-04-17T07:23:31.000Z</time></trkpt><trkpt lon="5.51027" lat="51.18083"><ele>49.4</ele><time>2022-04-17T07:23:32.000Z</time></trkpt><trkpt lon="5.510162" lat="51.180807"><ele>49.4</ele><time>2022-04-17T07:23:33.000Z</time></trkpt><trkpt lon="5.510055" lat="51.180784"><ele>49.4</ele><time>2022-04-17T07:23:34.000Z</time></trkpt><trkpt lon="5.509948" lat="51.180761"><ele>49.4</ele><time>2022-04-17T07:23:35.000Z</time></trkpt><trkpt lon="5.509844" lat="51.180737"><ele>49.6</ele><time>2022-04-17T07:23:36.000Z</time></trkpt><trkpt lon="5.509736" lat="51.180711"><ele>49.6</ele><time>2022-04-17T07:23:37.000Z</time></trkpt><trkpt lon="5.509631" lat="51.180686"><ele>49.6</ele><time>2022-04-17T07:23:38.000Z</time></trkpt><trkpt lon="5.509529" lat="51.180665"><ele>49.6</ele><time>2022-04-17T07:23:39.000Z</time></trkpt><trkpt lon="5.509428" lat="51.180639"><ele>49.8</ele><time>2022-04-17T07:23:40.000Z</time></trkpt><trkpt lon="5.509325" lat="51.180615"><ele>49.8</ele><time>2022-04-17T07:23:41.000Z</time></trkpt><trkpt lon="5.509223" lat="51.18059"><ele>49.6</ele><time>2022-04-17T07:23:42.000Z</time></trkpt><trkpt lon="5.509126" lat="51.180568"><ele>49.6</ele><time>2022-04-17T07:23:43.000Z</time></trkpt><trkpt lon="5.509029" lat="51.180548"><ele>49.6</ele><time>2022-04-17T07:23:44.000Z</time></trkpt><trkpt lon="5.508938" lat="51.180526"><ele>49.6</ele><time>2022-04-17T07:23:45.000Z</time></trkpt><trkpt lon="5.508845" lat="51.180506"><ele>49.6</ele><time>2022-04-17T07:23:46.000Z</time></trkpt><trkpt lon="5.508747" lat="51.180485"><ele>49.4</ele><time>2022-04-17T07:23:47.000Z</time></trkpt><trkpt lon="5.508655" lat="51.18047"><ele>49.4</ele><time>2022-04-17T07:23:48.000Z</time></trkpt><trkpt lon="5.508566" lat="51.180463"><ele>49.4</ele><time>2022-04-17T07:23:49.000Z</time></trkpt><trkpt lon="5.508481" lat="51.18047"><ele>49.2</ele><time>2022-04-17T07:23:50.000Z</time></trkpt><trkpt lon="5.508403" lat="51.180492"><ele>49.2</ele><time>2022-04-17T07:23:51.000Z</time></trkpt><trkpt lon="5.50834" lat="51.180527"><ele>49.2</ele><time>2022-04-17T07:23:52.000Z</time></trkpt><trkpt lon="5.50829" lat="51.180576"><ele>49.2</ele><time>2022-04-17T07:23:53.000Z</time></trkpt><trkpt lon="5.508239" lat="51.180639"><ele>49.2</ele><time>2022-04-17T07:23:54.000Z</time></trkpt><trkpt lon="5.50819" lat="51.180704"><ele>49.2</ele><time>2022-04-17T07:23:55.000Z</time></trkpt><trkpt lon="5.508139" lat="51.180769"><ele>49.2</ele><time>2022-04-17T07:23:56.000Z</time></trkpt><trkpt lon="5.508088" lat="51.180837"><ele>49.2</ele><time>2022-04-17T07:23:57.000Z</time></trkpt><trkpt lon="5.508037" lat="51.180902"><ele>49.2</ele><time>2022-04-17T07:23:58.000Z</time></trkpt><trkpt lon="5.507987" lat="51.18097"><ele>49</ele><time>2022-04-17T07:23:59.000Z</time></trkpt><trkpt lon="5.50794" lat="51.181032"><ele>49.2</ele><time>2022-04-17T07:24:00.000Z</time></trkpt><trkpt lon="5.507896" lat="51.181095"><ele>49.2</ele><time>2022-04-17T07:24:01.000Z</time></trkpt><trkpt lon="5.50785" lat="51.181156"><ele>49.2</ele><time>2022-04-17T07:24:02.000Z</time></trkpt><trkpt lon="5.507802" lat="51.181216"><ele>49.2</ele><time>2022-04-17T07:24:03.000Z</time></trkpt><trkpt lon="5.507752" lat="51.181279"><ele>49.2</ele><time>2022-04-17T07:24:04.000Z</time></trkpt><trkpt lon="5.507703" lat="51.181341"><ele>49</ele><time>2022-04-17T07:24:05.000Z</time></trkpt><trkpt lon="5.507656" lat="51.181401"><ele>49</ele><time>2022-04-17T07:24:06.000Z</time></trkpt><trkpt lon="5.507611" lat="51.181458"><ele>49</ele><time>2022-04-17T07:24:07.000Z</time></trkpt><trkpt lon="5.507567" lat="51.181518"><ele>49</ele><time>2022-04-17T07:24:08.000Z</time></trkpt><trkpt lon="5.507521" lat="51.18158"><ele>48.8</ele><time>2022-04-17T07:24:09.000Z</time></trkpt><trkpt lon="5.50748" lat="51.181641"><ele>48.8</ele><time>2022-04-17T07:24:10.000Z</time></trkpt><trkpt lon="5.507437" lat="51.181701"><ele>48.8</ele><time>2022-04-17T07:24:11.000Z</time></trkpt><trkpt lon="5.507395" lat="51.181757"><ele>48.6</ele><time>2022-04-17T07:24:12.000Z</time></trkpt><trkpt lon="5.507354" lat="51.181814"><ele>48.6</ele><time>2022-04-17T07:24:13.000Z</time></trkpt><trkpt lon="5.507312" lat="51.181871"><ele>48.6</ele><time>2022-04-17T07:24:14.000Z</time></trkpt><trkpt lon="5.507272" lat="51.181928"><ele>48.6</ele><time>2022-04-17T07:24:15.000Z</time></trkpt><trkpt lon="5.507235" lat="51.181989"><ele>48.6</ele><time>2022-04-17T07:24:16.000Z</time></trkpt><trkpt lon="5.507196" lat="51.182054"><ele>48.6</ele><time>2022-04-17T07:24:17.000Z</time></trkpt><trkpt lon="5.507153" lat="51.182124"><ele>48.8</ele><time>2022-04-17T07:24:18.000Z</time></trkpt><trkpt lon="5.507108" lat="51.182192"><ele>48.8</ele><time>2022-04-17T07:24:19.000Z</time></trkpt><trkpt lon="5.507061" lat="51.182261"><ele>48.8</ele><time>2022-04-17T07:24:20.000Z</time></trkpt><trkpt lon="5.507013" lat="51.182329"><ele>48.8</ele><time>2022-04-17T07:24:21.000Z</time></trkpt><trkpt lon="5.506965" lat="51.182397"><ele>48.6</ele><time>2022-04-17T07:24:22.000Z</time></trkpt><trkpt lon="5.506919" lat="51.182462"><ele>48.6</ele><time>2022-04-17T07:24:23.000Z</time></trkpt><trkpt lon="5.506871" lat="51.182532"><ele>48.6</ele><time>2022-04-17T07:24:24.000Z</time></trkpt><trkpt lon="5.506824" lat="51.182601"><ele>48.6</ele><time>2022-04-17T07:24:25.000Z</time></trkpt><trkpt lon="5.506777" lat="51.182668"><ele>48.6</ele><time>2022-04-17T07:24:26.000Z</time></trkpt><trkpt lon="5.506729" lat="51.182736"><ele>48.6</ele><time>2022-04-17T07:24:27.000Z</time></trkpt><trkpt lon="5.506684" lat="51.182801"><ele>48.6</ele><time>2022-04-17T07:24:28.000Z</time></trkpt><trkpt lon="5.506638" lat="51.182867"><ele>48.6</ele><time>2022-04-17T07:24:29.000Z</time></trkpt><trkpt lon="5.506592" lat="51.182932"><ele>48.6</ele><time>2022-04-17T07:24:30.000Z</time></trkpt><trkpt lon="5.506548" lat="51.182992"><ele>48.6</ele><time>2022-04-17T07:24:31.000Z</time></trkpt><trkpt lon="5.506502" lat="51.183055"><ele>48.4</ele><time>2022-04-17T07:24:32.000Z</time></trkpt><trkpt lon="5.506457" lat="51.183117"><ele>48.4</ele><time>2022-04-17T07:24:33.000Z</time></trkpt><trkpt lon="5.506412" lat="51.183182"><ele>48.4</ele><time>2022-04-17T07:24:34.000Z</time></trkpt><trkpt lon="5.506365" lat="51.183245"><ele>48.4</ele><time>2022-04-17T07:24:35.000Z</time></trkpt><trkpt lon="5.506318" lat="51.183317"><ele>48.4</ele><time>2022-04-17T07:24:36.000Z</time></trkpt><trkpt lon="5.506273" lat="51.183384"><ele>48.4</ele><time>2022-04-17T07:24:37.000Z</time></trkpt><trkpt lon="5.506228" lat="51.183448"><ele>48.4</ele><time>2022-04-17T07:24:38.000Z</time></trkpt><trkpt lon="5.506186" lat="51.183511"><ele>48.4</ele><time>2022-04-17T07:24:39.000Z</time></trkpt><trkpt lon="5.506137" lat="51.183581"><ele>48.2</ele><time>2022-04-17T07:24:40.000Z</time></trkpt><trkpt lon="5.506089" lat="51.183651"><ele>48</ele><time>2022-04-17T07:24:41.000Z</time></trkpt><trkpt lon="5.506045" lat="51.183715"><ele>47.8</ele><time>2022-04-17T07:24:42.000Z</time></trkpt><trkpt lon="5.506001" lat="51.183778"><ele>47.4</ele><time>2022-04-17T07:24:43.000Z</time></trkpt><trkpt lon="5.505959" lat="51.183846"><ele>47.2</ele><time>2022-04-17T07:24:44.000Z</time></trkpt><trkpt lon="5.505922" lat="51.183915"><ele>47</ele><time>2022-04-17T07:24:45.000Z</time></trkpt><trkpt lon="5.505898" lat="51.183983"><ele>46.8</ele><time>2022-04-17T07:24:46.000Z</time></trkpt><trkpt lon="5.505879" lat="51.184052"><ele>46.8</ele><time>2022-04-17T07:24:47.000Z</time></trkpt><trkpt lon="5.505868" lat="51.184121"><ele>47</ele><time>2022-04-17T07:24:48.000Z</time></trkpt><trkpt lon="5.505859" lat="51.18419"><ele>47</ele><time>2022-04-17T07:24:49.000Z</time></trkpt><trkpt lon="5.505847" lat="51.184263"><ele>47</ele><time>2022-04-17T07:24:50.000Z</time></trkpt><trkpt lon="5.505837" lat="51.184338"><ele>47.2</ele><time>2022-04-17T07:24:51.000Z</time></trkpt><trkpt lon="5.505828" lat="51.184407"><ele>47.2</ele><time>2022-04-17T07:24:52.000Z</time></trkpt><trkpt lon="5.505819" lat="51.184485"><ele>47</ele><time>2022-04-17T07:24:53.000Z</time></trkpt><trkpt lon="5.50581" lat="51.18456"><ele>46.8</ele><time>2022-04-17T07:24:54.000Z</time></trkpt><trkpt lon="5.5058" lat="51.184631"><ele>46.8</ele><time>2022-04-17T07:24:55.000Z</time></trkpt><trkpt lon="5.50579" lat="51.184704"><ele>46.8</ele><time>2022-04-17T07:24:56.000Z</time></trkpt><trkpt lon="5.505779" lat="51.184775"><ele>46.6</ele><time>2022-04-17T07:24:57.000Z</time></trkpt><trkpt lon="5.50577" lat="51.184849"><ele>46.6</ele><time>2022-04-17T07:24:58.000Z</time></trkpt><trkpt lon="5.505763" lat="51.18492"><ele>46.6</ele><time>2022-04-17T07:24:59.000Z</time></trkpt><trkpt lon="5.505753" lat="51.184995"><ele>46.6</ele><time>2022-04-17T07:25:00.000Z</time></trkpt><trkpt lon="5.505743" lat="51.185064"><ele>46.6</ele><time>2022-04-17T07:25:01.000Z</time></trkpt><trkpt lon="5.505734" lat="51.185135"><ele>46.6</ele><time>2022-04-17T07:25:02.000Z</time></trkpt><trkpt lon="5.505724" lat="51.185203"><ele>46.6</ele><time>2022-04-17T07:25:03.000Z</time></trkpt><trkpt lon="5.505712" lat="51.185274"><ele>46.6</ele><time>2022-04-17T07:25:04.000Z</time></trkpt><trkpt lon="5.505702" lat="51.185347"><ele>46.6</ele><time>2022-04-17T07:25:05.000Z</time></trkpt><trkpt lon="5.50569" lat="51.185419"><ele>46.6</ele><time>2022-04-17T07:25:06.000Z</time></trkpt><trkpt lon="5.505681" lat="51.185491"><ele>46.6</ele><time>2022-04-17T07:25:07.000Z</time></trkpt><trkpt lon="5.50567" lat="51.185564"><ele>46.6</ele><time>2022-04-17T07:25:08.000Z</time></trkpt><trkpt lon="5.505658" lat="51.185637"><ele>46.6</ele><time>2022-04-17T07:25:09.000Z</time></trkpt><trkpt lon="5.505647" lat="51.185708"><ele>46.6</ele><time>2022-04-17T07:25:10.000Z</time></trkpt><trkpt lon="5.505637" lat="51.185778"><ele>46.6</ele><time>2022-04-17T07:25:11.000Z</time></trkpt><trkpt lon="5.505627" lat="51.185848"><ele>46.6</ele><time>2022-04-17T07:25:12.000Z</time></trkpt><trkpt lon="5.505615" lat="51.185918"><ele>46.8</ele><time>2022-04-17T07:25:13.000Z</time></trkpt><trkpt lon="5.505601" lat="51.186002"><ele>46.8</ele><time>2022-04-17T07:25:14.000Z</time></trkpt><trkpt lon="5.505587" lat="51.18608"><ele>46.8</ele><time>2022-04-17T07:25:15.000Z</time></trkpt><trkpt lon="5.505575" lat="51.186155"><ele>46.8</ele><time>2022-04-17T07:25:16.000Z</time></trkpt><trkpt lon="5.505561" lat="51.186229"><ele>46.8</ele><time>2022-04-17T07:25:17.000Z</time></trkpt><trkpt lon="5.505548" lat="51.186304"><ele>46.6</ele><time>2022-04-17T07:25:18.000Z</time></trkpt><trkpt lon="5.505535" lat="51.186376"><ele>46.6</ele><time>2022-04-17T07:25:19.000Z</time></trkpt><trkpt lon="5.505523" lat="51.186449"><ele>46.8</ele><time>2022-04-17T07:25:20.000Z</time></trkpt><trkpt lon="5.505512" lat="51.18652"><ele>46.8</ele><time>2022-04-17T07:25:21.000Z</time></trkpt><trkpt lon="5.5055" lat="51.18659"><ele>46.8</ele><time>2022-04-17T07:25:22.000Z</time></trkpt><trkpt lon="5.50549" lat="51.18666"><ele>46.8</ele><time>2022-04-17T07:25:23.000Z</time></trkpt><trkpt lon="5.505479" lat="51.186727"><ele>47</ele><time>2022-04-17T07:25:24.000Z</time></trkpt><trkpt lon="5.505468" lat="51.186795"><ele>47</ele><time>2022-04-17T07:25:25.000Z</time></trkpt><trkpt lon="5.505456" lat="51.186861"><ele>47.2</ele><time>2022-04-17T07:25:26.000Z</time></trkpt><trkpt lon="5.505441" lat="51.186925"><ele>47.2</ele><time>2022-04-17T07:25:27.000Z</time></trkpt><trkpt lon="5.505427" lat="51.186991"><ele>47.4</ele><time>2022-04-17T07:25:28.000Z</time></trkpt><trkpt lon="5.505408" lat="51.187054"><ele>47.2</ele><time>2022-04-17T07:25:29.000Z</time></trkpt><trkpt lon="5.505383" lat="51.187117"><ele>47.2</ele><time>2022-04-17T07:25:30.000Z</time></trkpt><trkpt lon="5.505355" lat="51.187178"><ele>47.2</ele><time>2022-04-17T07:25:31.000Z</time></trkpt><trkpt lon="5.505325" lat="51.187237"><ele>47.2</ele><time>2022-04-17T07:25:32.000Z</time></trkpt><trkpt lon="5.505294" lat="51.187294"><ele>47.2</ele><time>2022-04-17T07:25:33.000Z</time></trkpt><trkpt lon="5.505263" lat="51.187364"><ele>47.2</ele><time>2022-04-17T07:25:34.000Z</time></trkpt><trkpt lon="5.505234" lat="51.18743"><ele>47.2</ele><time>2022-04-17T07:25:35.000Z</time></trkpt><trkpt lon="5.505207" lat="51.18749"><ele>47.2</ele><time>2022-04-17T07:25:36.000Z</time></trkpt><trkpt lon="5.50518" lat="51.187547"><ele>47.2</ele><time>2022-04-17T07:25:37.000Z</time></trkpt><trkpt lon="5.505152" lat="51.187604"><ele>47.2</ele><time>2022-04-17T07:25:38.000Z</time></trkpt><trkpt lon="5.505127" lat="51.187661"><ele>47.2</ele><time>2022-04-17T07:25:39.000Z</time></trkpt><trkpt lon="5.505106" lat="51.187717"><ele>47.2</ele><time>2022-04-17T07:25:40.000Z</time></trkpt><trkpt lon="5.505084" lat="51.187771"><ele>47.2</ele><time>2022-04-17T07:25:41.000Z</time></trkpt><trkpt lon="5.505059" lat="51.187827"><ele>47.2</ele><time>2022-04-17T07:25:42.000Z</time></trkpt><trkpt lon="5.50503" lat="51.187887"><ele>47</ele><time>2022-04-17T07:25:43.000Z</time></trkpt><trkpt lon="5.505" lat="51.18795"><ele>47</ele><time>2022-04-17T07:25:44.000Z</time></trkpt><trkpt lon="5.504972" lat="51.188017"><ele>47</ele><time>2022-04-17T07:25:45.000Z</time></trkpt><trkpt lon="5.504944" lat="51.188079"><ele>47</ele><time>2022-04-17T07:25:46.000Z</time></trkpt><trkpt lon="5.504919" lat="51.18814"><ele>47</ele><time>2022-04-17T07:25:47.000Z</time></trkpt><trkpt lon="5.504893" lat="51.1882"><ele>47</ele><time>2022-04-17T07:25:48.000Z</time></trkpt><trkpt lon="5.50487" lat="51.188257"><ele>47</ele><time>2022-04-17T07:25:49.000Z</time></trkpt><trkpt lon="5.504849" lat="51.188317"><ele>47</ele><time>2022-04-17T07:25:50.000Z</time></trkpt><trkpt lon="5.504832" lat="51.188373"><ele>46.8</ele><time>2022-04-17T07:25:51.000Z</time></trkpt><trkpt lon="5.504816" lat="51.188424"><ele>46.8</ele><time>2022-04-17T07:25:52.000Z</time></trkpt><trkpt lon="5.504794" lat="51.18848"><ele>46.8</ele><time>2022-04-17T07:25:53.000Z</time></trkpt><trkpt lon="5.50476" lat="51.188532"><ele>46.8</ele><time>2022-04-17T07:25:54.000Z</time></trkpt><trkpt lon="5.504706" lat="51.188576"><ele>46.8</ele><time>2022-04-17T07:25:55.000Z</time></trkpt><trkpt lon="5.50463" lat="51.188598"><ele>46.8</ele><time>2022-04-17T07:25:56.000Z</time></trkpt><trkpt lon="5.504543" lat="51.188605"><ele>46.8</ele><time>2022-04-17T07:25:57.000Z</time></trkpt><trkpt lon="5.504449" lat="51.1886"><ele>46.8</ele><time>2022-04-17T07:25:58.000Z</time></trkpt><trkpt lon="5.504348" lat="51.18859"><ele>46.6</ele><time>2022-04-17T07:25:59.000Z</time></trkpt><trkpt lon="5.504244" lat="51.188576"><ele>46.6</ele><time>2022-04-17T07:26:00.000Z</time></trkpt><trkpt lon="5.504135" lat="51.188565"><ele>46.6</ele><time>2022-04-17T07:26:01.000Z</time></trkpt><trkpt lon="5.504021" lat="51.188552"><ele>46.6</ele><time>2022-04-17T07:26:02.000Z</time></trkpt><trkpt lon="5.503915" lat="51.188536"><ele>46.6</ele><time>2022-04-17T07:26:03.000Z</time></trkpt><trkpt lon="5.503812" lat="51.188516"><ele>46.6</ele><time>2022-04-17T07:26:04.000Z</time></trkpt><trkpt lon="5.503716" lat="51.188492"><ele>46.6</ele><time>2022-04-17T07:26:05.000Z</time></trkpt><trkpt lon="5.503617" lat="51.188466"><ele>46.6</ele><time>2022-04-17T07:26:06.000Z</time></trkpt><trkpt lon="5.503517" lat="51.188445"><ele>46.6</ele><time>2022-04-17T07:26:07.000Z</time></trkpt><trkpt lon="5.503415" lat="51.18843"><ele>46.6</ele><time>2022-04-17T07:26:08.000Z</time></trkpt><trkpt lon="5.503305" lat="51.188416"><ele>46.4</ele><time>2022-04-17T07:26:09.000Z</time></trkpt><trkpt lon="5.503199" lat="51.188403"><ele>46.4</ele><time>2022-04-17T07:26:10.000Z</time></trkpt><trkpt lon="5.503095" lat="51.188386"><ele>46.2</ele><time>2022-04-17T07:26:11.000Z</time></trkpt><trkpt lon="5.502991" lat="51.188363"><ele>46</ele><time>2022-04-17T07:26:12.000Z</time></trkpt><trkpt lon="5.502883" lat="51.18834"><ele>46</ele><time>2022-04-17T07:26:13.000Z</time></trkpt><trkpt lon="5.50278" lat="51.188318"><ele>46</ele><time>2022-04-17T07:26:14.000Z</time></trkpt><trkpt lon="5.502679" lat="51.188299"><ele>46</ele><time>2022-04-17T07:26:15.000Z</time></trkpt><trkpt lon="5.502578" lat="51.188284"><ele>45.8</ele><time>2022-04-17T07:26:16.000Z</time></trkpt><trkpt lon="5.502476" lat="51.188281"><ele>45.8</ele><time>2022-04-17T07:26:17.000Z</time></trkpt><trkpt lon="5.502384" lat="51.188299"><ele>45.8</ele><time>2022-04-17T07:26:18.000Z</time></trkpt><trkpt lon="5.502305" lat="51.188332"><ele>45.6</ele><time>2022-04-17T07:26:19.000Z</time></trkpt><trkpt lon="5.502237" lat="51.188378"><ele>45.6</ele><time>2022-04-17T07:26:20.000Z</time></trkpt><trkpt lon="5.502178" lat="51.188436"><ele>45.6</ele><time>2022-04-17T07:26:21.000Z</time></trkpt><trkpt lon="5.502125" lat="51.188495"><ele>45.6</ele><time>2022-04-17T07:26:22.000Z</time></trkpt><trkpt lon="5.502069" lat="51.188562"><ele>45.6</ele><time>2022-04-17T07:26:23.000Z</time></trkpt><trkpt lon="5.502011" lat="51.188629"><ele>45.6</ele><time>2022-04-17T07:26:24.000Z</time></trkpt><trkpt lon="5.501957" lat="51.188693"><ele>45.6</ele><time>2022-04-17T07:26:25.000Z</time></trkpt><trkpt lon="5.501902" lat="51.188756"><ele>45.6</ele><time>2022-04-17T07:26:26.000Z</time></trkpt><trkpt lon="5.501849" lat="51.188814"><ele>45.4</ele><time>2022-04-17T07:26:27.000Z</time></trkpt><trkpt lon="5.501796" lat="51.188874"><ele>45.4</ele><time>2022-04-17T07:26:28.000Z</time></trkpt><trkpt lon="5.501739" lat="51.188931"><ele>45.4</ele><time>2022-04-17T07:26:29.000Z</time></trkpt><trkpt lon="5.501682" lat="51.18899"><ele>45.2</ele><time>2022-04-17T07:26:30.000Z</time></trkpt><trkpt lon="5.501628" lat="51.189051"><ele>45.2</ele><time>2022-04-17T07:26:31.000Z</time></trkpt><trkpt lon="5.501575" lat="51.189112"><ele>45.2</ele><time>2022-04-17T07:26:32.000Z</time></trkpt><trkpt lon="5.501525" lat="51.189171"><ele>45.4</ele><time>2022-04-17T07:26:33.000Z</time></trkpt><trkpt lon="5.501474" lat="51.189233"><ele>45.4</ele><time>2022-04-17T07:26:34.000Z</time></trkpt><trkpt lon="5.501419" lat="51.189299"><ele>45.4</ele><time>2022-04-17T07:26:35.000Z</time></trkpt><trkpt lon="5.501365" lat="51.189361"><ele>45.4</ele><time>2022-04-17T07:26:36.000Z</time></trkpt><trkpt lon="5.501311" lat="51.189421"><ele>45.4</ele><time>2022-04-17T07:26:37.000Z</time></trkpt><trkpt lon="5.501259" lat="51.189479"><ele>45.4</ele><time>2022-04-17T07:26:38.000Z</time></trkpt><trkpt lon="5.501206" lat="51.189538"><ele>45.4</ele><time>2022-04-17T07:26:39.000Z</time></trkpt><trkpt lon="5.501153" lat="51.189597"><ele>45.4</ele><time>2022-04-17T07:26:40.000Z</time></trkpt><trkpt lon="5.501101" lat="51.189657"><ele>45.4</ele><time>2022-04-17T07:26:41.000Z</time></trkpt><trkpt lon="5.501046" lat="51.189714"><ele>45.4</ele><time>2022-04-17T07:26:42.000Z</time></trkpt><trkpt lon="5.500992" lat="51.189774"><ele>45.2</ele><time>2022-04-17T07:26:43.000Z</time></trkpt><trkpt lon="5.500937" lat="51.189833"><ele>45.4</ele><time>2022-04-17T07:26:44.000Z</time></trkpt><trkpt lon="5.500884" lat="51.189893"><ele>45.2</ele><time>2022-04-17T07:26:45.000Z</time></trkpt><trkpt lon="5.500828" lat="51.189954"><ele>45.2</ele><time>2022-04-17T07:26:46.000Z</time></trkpt><trkpt lon="5.500776" lat="51.190011"><ele>45.2</ele><time>2022-04-17T07:26:47.000Z</time></trkpt><trkpt lon="5.500726" lat="51.190068"><ele>45.2</ele><time>2022-04-17T07:26:48.000Z</time></trkpt><trkpt lon="5.500681" lat="51.19012"><ele>45.4</ele><time>2022-04-17T07:26:49.000Z</time></trkpt><trkpt lon="5.500635" lat="51.190172"><ele>45.4</ele><time>2022-04-17T07:26:50.000Z</time></trkpt><trkpt lon="5.500587" lat="51.190226"><ele>45.4</ele><time>2022-04-17T07:26:51.000Z</time></trkpt><trkpt lon="5.500543" lat="51.190275"><ele>45.4</ele><time>2022-04-17T07:26:52.000Z</time></trkpt><trkpt lon="5.500502" lat="51.19032"><ele>45.4</ele><time>2022-04-17T07:26:53.000Z</time></trkpt><trkpt lon="5.500465" lat="51.190361"><ele>45.2</ele><time>2022-04-17T07:26:54.000Z</time></trkpt><trkpt lon="5.500433" lat="51.190398"><ele>45.2</ele><time>2022-04-17T07:26:55.000Z</time></trkpt><trkpt lon="5.500404" lat="51.190431"><ele>45.2</ele><time>2022-04-17T07:26:56.000Z</time></trkpt><trkpt lon="5.50038" lat="51.190461"><ele>45.2</ele><time>2022-04-17T07:26:57.000Z</time></trkpt><trkpt lon="5.500353" lat="51.190491"><ele>45.2</ele><time>2022-04-17T07:26:58.000Z</time></trkpt><trkpt lon="5.500312" lat="51.190516"><ele>45.2</ele><time>2022-04-17T07:26:59.000Z</time></trkpt><trkpt lon="5.500252" lat="51.190536"><ele>45.2</ele><time>2022-04-17T07:27:00.000Z</time></trkpt><trkpt lon="5.500179" lat="51.190545"><ele>45.4</ele><time>2022-04-17T07:27:01.000Z</time></trkpt><trkpt lon="5.500102" lat="51.190549"><ele>45.4</ele><time>2022-04-17T07:27:02.000Z</time></trkpt><trkpt lon="5.500022" lat="51.190555"><ele>45.4</ele><time>2022-04-17T07:27:03.000Z</time></trkpt><trkpt lon="5.499942" lat="51.19057"><ele>45.4</ele><time>2022-04-17T07:27:04.000Z</time></trkpt><trkpt lon="5.499871" lat="51.19059"><ele>45.4</ele><time>2022-04-17T07:27:05.000Z</time></trkpt><trkpt lon="5.499795" lat="51.190601"><ele>45.2</ele><time>2022-04-17T07:27:06.000Z</time></trkpt><trkpt lon="5.499707" lat="51.190598"><ele>45</ele><time>2022-04-17T07:27:07.000Z</time></trkpt><trkpt lon="5.499608" lat="51.190588"><ele>44.8</ele><time>2022-04-17T07:27:08.000Z</time></trkpt><trkpt lon="5.499498" lat="51.190579"><ele>44.8</ele><time>2022-04-17T07:27:09.000Z</time></trkpt><trkpt lon="5.49938" lat="51.190568"><ele>44.6</ele><time>2022-04-17T07:27:10.000Z</time></trkpt><trkpt lon="5.499258" lat="51.190555"><ele>44.6</ele><time>2022-04-17T07:27:11.000Z</time></trkpt><trkpt lon="5.499136" lat="51.19054"><ele>44.6</ele><time>2022-04-17T07:27:12.000Z</time></trkpt><trkpt lon="5.499009" lat="51.190524"><ele>44.4</ele><time>2022-04-17T07:27:13.000Z</time></trkpt><trkpt lon="5.498887" lat="51.190506"><ele>44.4</ele><time>2022-04-17T07:27:14.000Z</time></trkpt><trkpt lon="5.498764" lat="51.190489"><ele>44.4</ele><time>2022-04-17T07:27:15.000Z</time></trkpt><trkpt lon="5.498649" lat="51.19047"><ele>44.4</ele><time>2022-04-17T07:27:16.000Z</time></trkpt><trkpt lon="5.498537" lat="51.19045"><ele>44.4</ele><time>2022-04-17T07:27:17.000Z</time></trkpt><trkpt lon="5.498426" lat="51.190426"><ele>44.4</ele><time>2022-04-17T07:27:18.000Z</time></trkpt><trkpt lon="5.498314" lat="51.190401"><ele>44.4</ele><time>2022-04-17T07:27:19.000Z</time></trkpt><trkpt lon="5.498202" lat="51.190382"><ele>44.2</ele><time>2022-04-17T07:27:20.000Z</time></trkpt><trkpt lon="5.498091" lat="51.190363"><ele>44.2</ele><time>2022-04-17T07:27:21.000Z</time></trkpt><trkpt lon="5.49798" lat="51.190344"><ele>44</ele><time>2022-04-17T07:27:22.000Z</time></trkpt><trkpt lon="5.49787" lat="51.190325"><ele>44</ele><time>2022-04-17T07:27:23.000Z</time></trkpt><trkpt lon="5.497764" lat="51.190306"><ele>44</ele><time>2022-04-17T07:27:24.000Z</time></trkpt><trkpt lon="5.497658" lat="51.190287"><ele>44</ele><time>2022-04-17T07:27:25.000Z</time></trkpt><trkpt lon="5.497553" lat="51.190269"><ele>44</ele><time>2022-04-17T07:27:26.000Z</time></trkpt><trkpt lon="5.497448" lat="51.190253"><ele>44</ele><time>2022-04-17T07:27:27.000Z</time></trkpt><trkpt lon="5.49734" lat="51.190233"><ele>44</ele><time>2022-04-17T07:27:28.000Z</time></trkpt><trkpt lon="5.497234" lat="51.190215"><ele>44</ele><time>2022-04-17T07:27:29.000Z</time></trkpt><trkpt lon="5.497129" lat="51.190198"><ele>44</ele><time>2022-04-17T07:27:30.000Z</time></trkpt><trkpt lon="5.497024" lat="51.190177"><ele>44</ele><time>2022-04-17T07:27:31.000Z</time></trkpt><trkpt lon="5.496919" lat="51.190161"><ele>44</ele><time>2022-04-17T07:27:32.000Z</time></trkpt><trkpt lon="5.496814" lat="51.19014"><ele>44.2</ele><time>2022-04-17T07:27:33.000Z</time></trkpt><trkpt lon="5.496706" lat="51.190122"><ele>44.2</ele><time>2022-04-17T07:27:34.000Z</time></trkpt><trkpt lon="5.496603" lat="51.1901"><ele>44.2</ele><time>2022-04-17T07:27:35.000Z</time></trkpt><trkpt lon="5.496499" lat="51.190081"><ele>44.2</ele><time>2022-04-17T07:27:36.000Z</time></trkpt><trkpt lon="5.496401" lat="51.190062"><ele>44.4</ele><time>2022-04-17T07:27:37.000Z</time></trkpt><trkpt lon="5.496306" lat="51.190044"><ele>44.4</ele><time>2022-04-17T07:27:38.000Z</time></trkpt><trkpt lon="5.496215" lat="51.190028"><ele>44.4</ele><time>2022-04-17T07:27:39.000Z</time></trkpt><trkpt lon="5.496127" lat="51.190014"><ele>44.6</ele><time>2022-04-17T07:27:40.000Z</time></trkpt><trkpt lon="5.496041" lat="51.190001"><ele>44.6</ele><time>2022-04-17T07:27:41.000Z</time></trkpt><trkpt lon="5.495956" lat="51.189985"><ele>44.8</ele><time>2022-04-17T07:27:42.000Z</time></trkpt><trkpt lon="5.495871" lat="51.18998"><ele>44.8</ele><time>2022-04-17T07:27:43.000Z</time></trkpt><trkpt lon="5.495787" lat="51.189984"><ele>44.8</ele><time>2022-04-17T07:27:44.000Z</time></trkpt><trkpt lon="5.495697" lat="51.190003"><ele>44.8</ele><time>2022-04-17T07:27:45.000Z</time></trkpt><trkpt lon="5.4956" lat="51.190034"><ele>44.8</ele><time>2022-04-17T07:27:46.000Z</time></trkpt><trkpt lon="5.495499" lat="51.190063"><ele>44.6</ele><time>2022-04-17T07:27:47.000Z</time></trkpt><trkpt lon="5.495395" lat="51.190091"><ele>44.6</ele><time>2022-04-17T07:27:48.000Z</time></trkpt><trkpt lon="5.495292" lat="51.190122"><ele>44.6</ele><time>2022-04-17T07:27:49.000Z</time></trkpt><trkpt lon="5.495185" lat="51.190152"><ele>44.4</ele><time>2022-04-17T07:27:50.000Z</time></trkpt><trkpt lon="5.495078" lat="51.190183"><ele>44.4</ele><time>2022-04-17T07:27:51.000Z</time></trkpt><trkpt lon="5.494972" lat="51.190215"><ele>44.4</ele><time>2022-04-17T07:27:52.000Z</time></trkpt><trkpt lon="5.494863" lat="51.190248"><ele>44.4</ele><time>2022-04-17T07:27:53.000Z</time></trkpt><trkpt lon="5.494752" lat="51.190279"><ele>44.4</ele><time>2022-04-17T07:27:54.000Z</time></trkpt><trkpt lon="5.494645" lat="51.190313"><ele>44.4</ele><time>2022-04-17T07:27:55.000Z</time></trkpt><trkpt lon="5.494538" lat="51.190346"><ele>44.6</ele><time>2022-04-17T07:27:56.000Z</time></trkpt><trkpt lon="5.494427" lat="51.190377"><ele>44.6</ele><time>2022-04-17T07:27:57.000Z</time></trkpt><trkpt lon="5.494322" lat="51.190409"><ele>44.6</ele><time>2022-04-17T07:27:58.000Z</time></trkpt><trkpt lon="5.494212" lat="51.190442"><ele>44.6</ele><time>2022-04-17T07:27:59.000Z</time></trkpt><trkpt lon="5.494105" lat="51.190473"><ele>44.6</ele><time>2022-04-17T07:28:00.000Z</time></trkpt><trkpt lon="5.493997" lat="51.190505"><ele>44.6</ele><time>2022-04-17T07:28:01.000Z</time></trkpt><trkpt lon="5.493887" lat="51.190538"><ele>44.6</ele><time>2022-04-17T07:28:02.000Z</time></trkpt><trkpt lon="5.493777" lat="51.190569"><ele>44.6</ele><time>2022-04-17T07:28:03.000Z</time></trkpt><trkpt lon="5.493666" lat="51.190603"><ele>44.6</ele><time>2022-04-17T07:28:04.000Z</time></trkpt><trkpt lon="5.493557" lat="51.190634"><ele>44.6</ele><time>2022-04-17T07:28:05.000Z</time></trkpt><trkpt lon="5.493448" lat="51.190668"><ele>44.6</ele><time>2022-04-17T07:28:06.000Z</time></trkpt><trkpt lon="5.493339" lat="51.190699"><ele>44.6</ele><time>2022-04-17T07:28:07.000Z</time></trkpt><trkpt lon="5.49323" lat="51.190732"><ele>44.6</ele><time>2022-04-17T07:28:08.000Z</time></trkpt><trkpt lon="5.493123" lat="51.190764"><ele>44.6</ele><time>2022-04-17T07:28:09.000Z</time></trkpt><trkpt lon="5.493016" lat="51.190797"><ele>44.6</ele><time>2022-04-17T07:28:10.000Z</time></trkpt><trkpt lon="5.492907" lat="51.190832"><ele>44.6</ele><time>2022-04-17T07:28:11.000Z</time></trkpt><trkpt lon="5.492802" lat="51.190862"><ele>44.6</ele><time>2022-04-17T07:28:12.000Z</time></trkpt><trkpt lon="5.492699" lat="51.190892"><ele>44.4</ele><time>2022-04-17T07:28:13.000Z</time></trkpt><trkpt lon="5.492591" lat="51.190923"><ele>44.4</ele><time>2022-04-17T07:28:14.000Z</time></trkpt><trkpt lon="5.492486" lat="51.190953"><ele>44.4</ele><time>2022-04-17T07:28:15.000Z</time></trkpt><trkpt lon="5.492381" lat="51.190985"><ele>44.4</ele><time>2022-04-17T07:28:16.000Z</time></trkpt><trkpt lon="5.492275" lat="51.191018"><ele>44.4</ele><time>2022-04-17T07:28:17.000Z</time></trkpt><trkpt lon="5.492171" lat="51.19105"><ele>44.4</ele><time>2022-04-17T07:28:18.000Z</time></trkpt><trkpt lon="5.492067" lat="51.191083"><ele>44.4</ele><time>2022-04-17T07:28:19.000Z</time></trkpt><trkpt lon="5.491965" lat="51.191115"><ele>44.4</ele><time>2022-04-17T07:28:20.000Z</time></trkpt><trkpt lon="5.49186" lat="51.191148"><ele>44.6</ele><time>2022-04-17T07:28:21.000Z</time></trkpt><trkpt lon="5.491757" lat="51.191178"><ele>44.6</ele><time>2022-04-17T07:28:22.000Z</time></trkpt><trkpt lon="5.491652" lat="51.19121"><ele>44.6</ele><time>2022-04-17T07:28:23.000Z</time></trkpt><trkpt lon="5.491549" lat="51.191243"><ele>44.6</ele><time>2022-04-17T07:28:24.000Z</time></trkpt><trkpt lon="5.491443" lat="51.191275"><ele>44.6</ele><time>2022-04-17T07:28:25.000Z</time></trkpt><trkpt lon="5.491347" lat="51.191311"><ele>44.6</ele><time>2022-04-17T07:28:26.000Z</time></trkpt><trkpt lon="5.491251" lat="51.191352"><ele>44.6</ele><time>2022-04-17T07:28:27.000Z</time></trkpt><trkpt lon="5.491152" lat="51.19139"><ele>44.8</ele><time>2022-04-17T07:28:28.000Z</time></trkpt><trkpt lon="5.491048" lat="51.191424"><ele>44.8</ele><time>2022-04-17T07:28:29.000Z</time></trkpt><trkpt lon="5.490945" lat="51.191457"><ele>44.8</ele><time>2022-04-17T07:28:30.000Z</time></trkpt><trkpt lon="5.490843" lat="51.19149"><ele>44.8</ele><time>2022-04-17T07:28:31.000Z</time></trkpt><trkpt lon="5.490738" lat="51.191526"><ele>44.8</ele><time>2022-04-17T07:28:32.000Z</time></trkpt><trkpt lon="5.490634" lat="51.191557"><ele>45</ele><time>2022-04-17T07:28:33.000Z</time></trkpt><trkpt lon="5.490529" lat="51.19159"><ele>45</ele><time>2022-04-17T07:28:34.000Z</time></trkpt><trkpt lon="5.490424" lat="51.191618"><ele>45</ele><time>2022-04-17T07:28:35.000Z</time></trkpt><trkpt lon="5.490321" lat="51.191649"><ele>45.2</ele><time>2022-04-17T07:28:36.000Z</time></trkpt><trkpt lon="5.490219" lat="51.191681"><ele>45.2</ele><time>2022-04-17T07:28:37.000Z</time></trkpt><trkpt lon="5.49012" lat="51.191708"><ele>45.2</ele><time>2022-04-17T07:28:38.000Z</time></trkpt><trkpt lon="5.490023" lat="51.191737"><ele>45.2</ele><time>2022-04-17T07:28:39.000Z</time></trkpt><trkpt lon="5.489929" lat="51.19177"><ele>45.2</ele><time>2022-04-17T07:28:40.000Z</time></trkpt><trkpt lon="5.489834" lat="51.191802"><ele>45.2</ele><time>2022-04-17T07:28:41.000Z</time></trkpt><trkpt lon="5.489734" lat="51.191835"><ele>45.2</ele><time>2022-04-17T07:28:42.000Z</time></trkpt><trkpt lon="5.489635" lat="51.191864"><ele>45.2</ele><time>2022-04-17T07:28:43.000Z</time></trkpt><trkpt lon="5.489531" lat="51.191894"><ele>45.2</ele><time>2022-04-17T07:28:44.000Z</time></trkpt><trkpt lon="5.489429" lat="51.191923"><ele>45.2</ele><time>2022-04-17T07:28:45.000Z</time></trkpt><trkpt lon="5.489327" lat="51.191953"><ele>45</ele><time>2022-04-17T07:28:46.000Z</time></trkpt><trkpt lon="5.489228" lat="51.191983"><ele>45</ele><time>2022-04-17T07:28:47.000Z</time></trkpt><trkpt lon="5.48913" lat="51.192015"><ele>45</ele><time>2022-04-17T07:28:48.000Z</time></trkpt><trkpt lon="5.489029" lat="51.192049"><ele>45</ele><time>2022-04-17T07:28:49.000Z</time></trkpt><trkpt lon="5.488926" lat="51.192083"><ele>45</ele><time>2022-04-17T07:28:50.000Z</time></trkpt><trkpt lon="5.488822" lat="51.192113"><ele>45</ele><time>2022-04-17T07:28:51.000Z</time></trkpt><trkpt lon="5.488719" lat="51.192144"><ele>45</ele><time>2022-04-17T07:28:52.000Z</time></trkpt><trkpt lon="5.488616" lat="51.192174"><ele>45</ele><time>2022-04-17T07:28:53.000Z</time></trkpt><trkpt lon="5.488515" lat="51.192206"><ele>45</ele><time>2022-04-17T07:28:54.000Z</time></trkpt><trkpt lon="5.488415" lat="51.192238"><ele>45</ele><time>2022-04-17T07:28:55.000Z</time></trkpt><trkpt lon="5.488313" lat="51.192264"><ele>44.8</ele><time>2022-04-17T07:28:56.000Z</time></trkpt><trkpt lon="5.488205" lat="51.19229"><ele>45</ele><time>2022-04-17T07:28:57.000Z</time></trkpt><trkpt lon="5.488096" lat="51.192314"><ele>44.8</ele><time>2022-04-17T07:28:58.000Z</time></trkpt><trkpt lon="5.487989" lat="51.192341"><ele>44.8</ele><time>2022-04-17T07:28:59.000Z</time></trkpt><trkpt lon="5.487884" lat="51.192369"><ele>44.8</ele><time>2022-04-17T07:29:00.000Z</time></trkpt><trkpt lon="5.487786" lat="51.192399"><ele>44.8</ele><time>2022-04-17T07:29:01.000Z</time></trkpt><trkpt lon="5.487684" lat="51.19243"><ele>44.8</ele><time>2022-04-17T07:29:02.000Z</time></trkpt><trkpt lon="5.487579" lat="51.192459"><ele>44.6</ele><time>2022-04-17T07:29:03.000Z</time></trkpt><trkpt lon="5.487472" lat="51.192487"><ele>44.4</ele><time>2022-04-17T07:29:04.000Z</time></trkpt><trkpt lon="5.487369" lat="51.192518"><ele>44.2</ele><time>2022-04-17T07:29:05.000Z</time></trkpt><trkpt lon="5.487267" lat="51.192548"><ele>44.2</ele><time>2022-04-17T07:29:06.000Z</time></trkpt><trkpt lon="5.487161" lat="51.192578"><ele>44.2</ele><time>2022-04-17T07:29:07.000Z</time></trkpt><trkpt lon="5.487057" lat="51.192604"><ele>44.2</ele><time>2022-04-17T07:29:08.000Z</time></trkpt><trkpt lon="5.486952" lat="51.192631"><ele>44.2</ele><time>2022-04-17T07:29:09.000Z</time></trkpt><trkpt lon="5.486846" lat="51.192658"><ele>44</ele><time>2022-04-17T07:29:10.000Z</time></trkpt><trkpt lon="5.486741" lat="51.192684"><ele>44</ele><time>2022-04-17T07:29:11.000Z</time></trkpt><trkpt lon="5.486638" lat="51.192711"><ele>43.8</ele><time>2022-04-17T07:29:12.000Z</time></trkpt><trkpt lon="5.486535" lat="51.192738"><ele>43.8</ele><time>2022-04-17T07:29:13.000Z</time></trkpt><trkpt lon="5.486432" lat="51.192769"><ele>43.8</ele><time>2022-04-17T07:29:14.000Z</time></trkpt><trkpt lon="5.486327" lat="51.1928"><ele>43.6</ele><time>2022-04-17T07:29:15.000Z</time></trkpt><trkpt lon="5.486217" lat="51.192829"><ele>43.4</ele><time>2022-04-17T07:29:16.000Z</time></trkpt><trkpt lon="5.486114" lat="51.192856"><ele>43.4</ele><time>2022-04-17T07:29:17.000Z</time></trkpt><trkpt lon="5.486014" lat="51.192883"><ele>43.2</ele><time>2022-04-17T07:29:18.000Z</time></trkpt><trkpt lon="5.48591" lat="51.19291"><ele>43.2</ele><time>2022-04-17T07:29:19.000Z</time></trkpt><trkpt lon="5.485805" lat="51.192942"><ele>43.2</ele><time>2022-04-17T07:29:20.000Z</time></trkpt><trkpt lon="5.485701" lat="51.192977"><ele>43</ele><time>2022-04-17T07:29:21.000Z</time></trkpt><trkpt lon="5.485602" lat="51.193011"><ele>43.2</ele><time>2022-04-17T07:29:22.000Z</time></trkpt><trkpt lon="5.485497" lat="51.193044"><ele>43</ele><time>2022-04-17T07:29:23.000Z</time></trkpt><trkpt lon="5.485392" lat="51.193078"><ele>43</ele><time>2022-04-17T07:29:24.000Z</time></trkpt><trkpt lon="5.48529" lat="51.193111"><ele>42.8</ele><time>2022-04-17T07:29:25.000Z</time></trkpt><trkpt lon="5.485184" lat="51.193148"><ele>42.8</ele><time>2022-04-17T07:29:26.000Z</time></trkpt><trkpt lon="5.485078" lat="51.193181"><ele>42.8</ele><time>2022-04-17T07:29:27.000Z</time></trkpt><trkpt lon="5.484975" lat="51.193212"><ele>42.8</ele><time>2022-04-17T07:29:28.000Z</time></trkpt><trkpt lon="5.484871" lat="51.193242"><ele>43</ele><time>2022-04-17T07:29:29.000Z</time></trkpt><trkpt lon="5.484762" lat="51.193274"><ele>43</ele><time>2022-04-17T07:29:30.000Z</time></trkpt><trkpt lon="5.484656" lat="51.193308"><ele>43</ele><time>2022-04-17T07:29:31.000Z</time></trkpt><trkpt lon="5.484551" lat="51.193342"><ele>43</ele><time>2022-04-17T07:29:32.000Z</time></trkpt><trkpt lon="5.484445" lat="51.193373"><ele>43.2</ele><time>2022-04-17T07:29:33.000Z</time></trkpt><trkpt lon="5.484335" lat="51.193407"><ele>43.2</ele><time>2022-04-17T07:29:34.000Z</time></trkpt><trkpt lon="5.484228" lat="51.193441"><ele>43.4</ele><time>2022-04-17T07:29:35.000Z</time></trkpt><trkpt lon="5.484118" lat="51.193473"><ele>43.4</ele><time>2022-04-17T07:29:36.000Z</time></trkpt><trkpt lon="5.484011" lat="51.193508"><ele>43.4</ele><time>2022-04-17T07:29:37.000Z</time></trkpt><trkpt lon="5.483907" lat="51.193544"><ele>43.4</ele><time>2022-04-17T07:29:38.000Z</time></trkpt><trkpt lon="5.483802" lat="51.193575"><ele>43.4</ele><time>2022-04-17T07:29:39.000Z</time></trkpt><trkpt lon="5.483696" lat="51.19361"><ele>43.4</ele><time>2022-04-17T07:29:40.000Z</time></trkpt><trkpt lon="5.483595" lat="51.193644"><ele>43.2</ele><time>2022-04-17T07:29:41.000Z</time></trkpt><trkpt lon="5.483494" lat="51.193677"><ele>43.2</ele><time>2022-04-17T07:29:42.000Z</time></trkpt><trkpt lon="5.483392" lat="51.193709"><ele>43.4</ele><time>2022-04-17T07:29:43.000Z</time></trkpt><trkpt lon="5.483291" lat="51.19374"><ele>43.4</ele><time>2022-04-17T07:29:44.000Z</time></trkpt><trkpt lon="5.483193" lat="51.193765"><ele>43.4</ele><time>2022-04-17T07:29:45.000Z</time></trkpt><trkpt lon="5.483096" lat="51.193795"><ele>43.4</ele><time>2022-04-17T07:29:46.000Z</time></trkpt><trkpt lon="5.482994" lat="51.193827"><ele>43.4</ele><time>2022-04-17T07:29:47.000Z</time></trkpt><trkpt lon="5.48289" lat="51.19386"><ele>43.6</ele><time>2022-04-17T07:29:48.000Z</time></trkpt><trkpt lon="5.482784" lat="51.193893"><ele>43.6</ele><time>2022-04-17T07:29:49.000Z</time></trkpt><trkpt lon="5.482682" lat="51.193929"><ele>43.6</ele><time>2022-04-17T07:29:50.000Z</time></trkpt><trkpt lon="5.482579" lat="51.193959"><ele>43.6</ele><time>2022-04-17T07:29:51.000Z</time></trkpt><trkpt lon="5.482479" lat="51.19399"><ele>43.8</ele><time>2022-04-17T07:29:52.000Z</time></trkpt><trkpt lon="5.482378" lat="51.194021"><ele>43.8</ele><time>2022-04-17T07:29:53.000Z</time></trkpt><trkpt lon="5.482282" lat="51.194051"><ele>43.8</ele><time>2022-04-17T07:29:54.000Z</time></trkpt><trkpt lon="5.482188" lat="51.194083"><ele>44</ele><time>2022-04-17T07:29:55.000Z</time></trkpt><trkpt lon="5.482097" lat="51.194116"><ele>44</ele><time>2022-04-17T07:29:56.000Z</time></trkpt><trkpt lon="5.482006" lat="51.194147"><ele>44</ele><time>2022-04-17T07:29:57.000Z</time></trkpt><trkpt lon="5.481917" lat="51.194181"><ele>44</ele><time>2022-04-17T07:29:58.000Z</time></trkpt><trkpt lon="5.481821" lat="51.194215"><ele>44</ele><time>2022-04-17T07:29:59.000Z</time></trkpt><trkpt lon="5.481726" lat="51.194245"><ele>44.2</ele><time>2022-04-17T07:30:00.000Z</time></trkpt><trkpt lon="5.481634" lat="51.194272"><ele>44.2</ele><time>2022-04-17T07:30:01.000Z</time></trkpt><trkpt lon="5.481542" lat="51.194303"><ele>44.4</ele><time>2022-04-17T07:30:02.000Z</time></trkpt><trkpt lon="5.481456" lat="51.194333"><ele>44.4</ele><time>2022-04-17T07:30:03.000Z</time></trkpt><trkpt lon="5.481374" lat="51.194363"><ele>44.4</ele><time>2022-04-17T07:30:04.000Z</time></trkpt><trkpt lon="5.48129" lat="51.19439"><ele>44.4</ele><time>2022-04-17T07:30:05.000Z</time></trkpt><trkpt lon="5.481202" lat="51.194416"><ele>44.6</ele><time>2022-04-17T07:30:06.000Z</time></trkpt><trkpt lon="5.481103" lat="51.194443"><ele>44.6</ele><time>2022-04-17T07:30:07.000Z</time></trkpt><trkpt lon="5.481" lat="51.19447"><ele>44.4</ele><time>2022-04-17T07:30:08.000Z</time></trkpt><trkpt lon="5.480894" lat="51.194501"><ele>44.4</ele><time>2022-04-17T07:30:09.000Z</time></trkpt><trkpt lon="5.480793" lat="51.194531"><ele>44.4</ele><time>2022-04-17T07:30:10.000Z</time></trkpt><trkpt lon="5.480698" lat="51.194556"><ele>44.4</ele><time>2022-04-17T07:30:11.000Z</time></trkpt><trkpt lon="5.480604" lat="51.19458"><ele>44.4</ele><time>2022-04-17T07:30:12.000Z</time></trkpt><trkpt lon="5.480499" lat="51.194606"><ele>44.4</ele><time>2022-04-17T07:30:13.000Z</time></trkpt><trkpt lon="5.480391" lat="51.194634"><ele>44.6</ele><time>2022-04-17T07:30:14.000Z</time></trkpt><trkpt lon="5.48029" lat="51.194664"><ele>44.6</ele><time>2022-04-17T07:30:15.000Z</time></trkpt><trkpt lon="5.4802" lat="51.194691"><ele>44.6</ele><time>2022-04-17T07:30:16.000Z</time></trkpt><trkpt lon="5.48011" lat="51.194719"><ele>44.6</ele><time>2022-04-17T07:30:17.000Z</time></trkpt><trkpt lon="5.480018" lat="51.194749"><ele>44.6</ele><time>2022-04-17T07:30:18.000Z</time></trkpt><trkpt lon="5.479927" lat="51.19478"><ele>44.6</ele><time>2022-04-17T07:30:19.000Z</time></trkpt><trkpt lon="5.479838" lat="51.19481"><ele>44.6</ele><time>2022-04-17T07:30:20.000Z</time></trkpt><trkpt lon="5.479741" lat="51.19484"><ele>44.6</ele><time>2022-04-17T07:30:21.000Z</time></trkpt><trkpt lon="5.47964" lat="51.194868"><ele>44.8</ele><time>2022-04-17T07:30:22.000Z</time></trkpt><trkpt lon="5.479542" lat="51.1949"><ele>44.6</ele><time>2022-04-17T07:30:23.000Z</time></trkpt><trkpt lon="5.479441" lat="51.194926"><ele>44.6</ele><time>2022-04-17T07:30:24.000Z</time></trkpt><trkpt lon="5.479335" lat="51.194951"><ele>44.8</ele><time>2022-04-17T07:30:25.000Z</time></trkpt><trkpt lon="5.479234" lat="51.194982"><ele>44.8</ele><time>2022-04-17T07:30:26.000Z</time></trkpt><trkpt lon="5.47913" lat="51.195011"><ele>44.8</ele><time>2022-04-17T07:30:27.000Z</time></trkpt><trkpt lon="5.479022" lat="51.195037"><ele>45</ele><time>2022-04-17T07:30:28.000Z</time></trkpt><trkpt lon="5.478927" lat="51.195062"><ele>45</ele><time>2022-04-17T07:30:29.000Z</time></trkpt><trkpt lon="5.478833" lat="51.195092"><ele>45</ele><time>2022-04-17T07:30:30.000Z</time></trkpt><trkpt lon="5.478734" lat="51.195119"><ele>45</ele><time>2022-04-17T07:30:31.000Z</time></trkpt><trkpt lon="5.478634" lat="51.195151"><ele>45.2</ele><time>2022-04-17T07:30:32.000Z</time></trkpt><trkpt lon="5.478527" lat="51.195186"><ele>45.2</ele><time>2022-04-17T07:30:33.000Z</time></trkpt><trkpt lon="5.478417" lat="51.195222"><ele>45.4</ele><time>2022-04-17T07:30:34.000Z</time></trkpt><trkpt lon="5.478309" lat="51.195254"><ele>45.4</ele><time>2022-04-17T07:30:35.000Z</time></trkpt><trkpt lon="5.478211" lat="51.195286"><ele>45.6</ele><time>2022-04-17T07:30:36.000Z</time></trkpt><trkpt lon="5.478111" lat="51.195313"><ele>45.4</ele><time>2022-04-17T07:30:37.000Z</time></trkpt><trkpt lon="5.478002" lat="51.19534"><ele>45.4</ele><time>2022-04-17T07:30:38.000Z</time></trkpt><trkpt lon="5.477883" lat="51.195372"><ele>45.4</ele><time>2022-04-17T07:30:39.000Z</time></trkpt><trkpt lon="5.47777" lat="51.195407"><ele>45.4</ele><time>2022-04-17T07:30:40.000Z</time></trkpt><trkpt lon="5.477667" lat="51.195445"><ele>45.6</ele><time>2022-04-17T07:30:41.000Z</time></trkpt><trkpt lon="5.477575" lat="51.195481"><ele>45.6</ele><time>2022-04-17T07:30:42.000Z</time></trkpt><trkpt lon="5.477482" lat="51.195512"><ele>45.8</ele><time>2022-04-17T07:30:43.000Z</time></trkpt><trkpt lon="5.477384" lat="51.195544"><ele>45.8</ele><time>2022-04-17T07:30:44.000Z</time></trkpt><trkpt lon="5.477288" lat="51.195577"><ele>45.8</ele><time>2022-04-17T07:30:45.000Z</time></trkpt><trkpt lon="5.477187" lat="51.195608"><ele>45.8</ele><time>2022-04-17T07:30:46.000Z</time></trkpt><trkpt lon="5.477083" lat="51.195637"><ele>45.6</ele><time>2022-04-17T07:30:47.000Z</time></trkpt><trkpt lon="5.47698" lat="51.195665"><ele>45.6</ele><time>2022-04-17T07:30:48.000Z</time></trkpt><trkpt lon="5.476871" lat="51.195695"><ele>45.6</ele><time>2022-04-17T07:30:49.000Z</time></trkpt><trkpt lon="5.476762" lat="51.195727"><ele>45.6</ele><time>2022-04-17T07:30:50.000Z</time></trkpt><trkpt lon="5.476655" lat="51.19576"><ele>45.6</ele><time>2022-04-17T07:30:51.000Z</time></trkpt><trkpt lon="5.47655" lat="51.195789"><ele>45.4</ele><time>2022-04-17T07:30:52.000Z</time></trkpt><trkpt lon="5.476443" lat="51.195817"><ele>45.4</ele><time>2022-04-17T07:30:53.000Z</time></trkpt><trkpt lon="5.476336" lat="51.195848"><ele>45.4</ele><time>2022-04-17T07:30:54.000Z</time></trkpt><trkpt lon="5.476239" lat="51.195878"><ele>45.4</ele><time>2022-04-17T07:30:55.000Z</time></trkpt><trkpt lon="5.476141" lat="51.195909"><ele>45.4</ele><time>2022-04-17T07:30:56.000Z</time></trkpt><trkpt lon="5.476037" lat="51.195939"><ele>45.4</ele><time>2022-04-17T07:30:57.000Z</time></trkpt><trkpt lon="5.475937" lat="51.195969"><ele>45.4</ele><time>2022-04-17T07:30:58.000Z</time></trkpt><trkpt lon="5.47584" lat="51.195996"><ele>45.4</ele><time>2022-04-17T07:30:59.000Z</time></trkpt><trkpt lon="5.475744" lat="51.196026"><ele>45.4</ele><time>2022-04-17T07:31:00.000Z</time></trkpt><trkpt lon="5.475645" lat="51.196052"><ele>45.2</ele><time>2022-04-17T07:31:01.000Z</time></trkpt><trkpt lon="5.475531" lat="51.196081"><ele>45.2</ele><time>2022-04-17T07:31:02.000Z</time></trkpt><trkpt lon="5.475413" lat="51.196116"><ele>45.2</ele><time>2022-04-17T07:31:03.000Z</time></trkpt><trkpt lon="5.4753" lat="51.196152"><ele>45.2</ele><time>2022-04-17T07:31:04.000Z</time></trkpt><trkpt lon="5.475193" lat="51.196187"><ele>45</ele><time>2022-04-17T07:31:05.000Z</time></trkpt><trkpt lon="5.475089" lat="51.196219"><ele>45</ele><time>2022-04-17T07:31:06.000Z</time></trkpt><trkpt lon="5.474986" lat="51.196252"><ele>45</ele><time>2022-04-17T07:31:07.000Z</time></trkpt><trkpt lon="5.474887" lat="51.196281"><ele>45</ele><time>2022-04-17T07:31:08.000Z</time></trkpt><trkpt lon="5.474782" lat="51.196311"><ele>45</ele><time>2022-04-17T07:31:09.000Z</time></trkpt><trkpt lon="5.474666" lat="51.19635"><ele>44.8</ele><time>2022-04-17T07:31:10.000Z</time></trkpt><trkpt lon="5.474547" lat="51.196384"><ele>44.6</ele><time>2022-04-17T07:31:11.000Z</time></trkpt><trkpt lon="5.47442" lat="51.196412"><ele>44.4</ele><time>2022-04-17T07:31:12.000Z</time></trkpt><trkpt lon="5.47429" lat="51.196444"><ele>44.4</ele><time>2022-04-17T07:31:13.000Z</time></trkpt><trkpt lon="5.47416" lat="51.196479"><ele>44.2</ele><time>2022-04-17T07:31:14.000Z</time></trkpt><trkpt lon="5.474032" lat="51.196519"><ele>44</ele><time>2022-04-17T07:31:15.000Z</time></trkpt><trkpt lon="5.473907" lat="51.196559"><ele>44</ele><time>2022-04-17T07:31:16.000Z</time></trkpt><trkpt lon="5.473783" lat="51.196599"><ele>44</ele><time>2022-04-17T07:31:17.000Z</time></trkpt><trkpt lon="5.473661" lat="51.19664"><ele>44.2</ele><time>2022-04-17T07:31:18.000Z</time></trkpt><trkpt lon="5.473547" lat="51.196677"><ele>44.2</ele><time>2022-04-17T07:31:19.000Z</time></trkpt><trkpt lon="5.473435" lat="51.196711"><ele>44.2</ele><time>2022-04-17T07:31:20.000Z</time></trkpt><trkpt lon="5.473324" lat="51.196745"><ele>44.2</ele><time>2022-04-17T07:31:21.000Z</time></trkpt><trkpt lon="5.473215" lat="51.196779"><ele>44.2</ele><time>2022-04-17T07:31:22.000Z</time></trkpt><trkpt lon="5.473105" lat="51.19681"><ele>44.2</ele><time>2022-04-17T07:31:23.000Z</time></trkpt><trkpt lon="5.472993" lat="51.196845"><ele>44.2</ele><time>2022-04-17T07:31:24.000Z</time></trkpt><trkpt lon="5.472883" lat="51.19688"><ele>44.2</ele><time>2022-04-17T07:31:25.000Z</time></trkpt><trkpt lon="5.472775" lat="51.196918"><ele>44.2</ele><time>2022-04-17T07:31:26.000Z</time></trkpt><trkpt lon="5.472667" lat="51.196954"><ele>44.4</ele><time>2022-04-17T07:31:27.000Z</time></trkpt><trkpt lon="5.472559" lat="51.196986"><ele>44.4</ele><time>2022-04-17T07:31:28.000Z</time></trkpt><trkpt lon="5.47245" lat="51.19702"><ele>44.4</ele><time>2022-04-17T07:31:29.000Z</time></trkpt><trkpt lon="5.472345" lat="51.197055"><ele>44.4</ele><time>2022-04-17T07:31:30.000Z</time></trkpt><trkpt lon="5.472243" lat="51.197095"><ele>44.6</ele><time>2022-04-17T07:31:31.000Z</time></trkpt><trkpt lon="5.472146" lat="51.197137"><ele>44.6</ele><time>2022-04-17T07:31:32.000Z</time></trkpt><trkpt lon="5.472052" lat="51.197177"><ele>44.6</ele><time>2022-04-17T07:31:33.000Z</time></trkpt><trkpt lon="5.471954" lat="51.197213"><ele>44.8</ele><time>2022-04-17T07:31:34.000Z</time></trkpt><trkpt lon="5.471852" lat="51.197243"><ele>44.8</ele><time>2022-04-17T07:31:35.000Z</time></trkpt><trkpt lon="5.471742" lat="51.197273"><ele>45</ele><time>2022-04-17T07:31:36.000Z</time></trkpt><trkpt lon="5.471637" lat="51.197301"><ele>45</ele><time>2022-04-17T07:31:37.000Z</time></trkpt><trkpt lon="5.471531" lat="51.197331"><ele>45</ele><time>2022-04-17T07:31:38.000Z</time></trkpt><trkpt lon="5.47143" lat="51.197362"><ele>45</ele><time>2022-04-17T07:31:39.000Z</time></trkpt><trkpt lon="5.471334" lat="51.197392"><ele>45.2</ele><time>2022-04-17T07:31:40.000Z</time></trkpt><trkpt lon="5.471237" lat="51.197423"><ele>45.2</ele><time>2022-04-17T07:31:41.000Z</time></trkpt><trkpt lon="5.471137" lat="51.197453"><ele>45.4</ele><time>2022-04-17T07:31:42.000Z</time></trkpt><trkpt lon="5.47103" lat="51.197485"><ele>45.4</ele><time>2022-04-17T07:31:43.000Z</time></trkpt><trkpt lon="5.470921" lat="51.197517"><ele>45.4</ele><time>2022-04-17T07:31:44.000Z</time></trkpt><trkpt lon="5.470815" lat="51.197545"><ele>45.4</ele><time>2022-04-17T07:31:45.000Z</time></trkpt><trkpt lon="5.470716" lat="51.197577"><ele>45.4</ele><time>2022-04-17T07:31:46.000Z</time></trkpt><trkpt lon="5.470617" lat="51.19761"><ele>45.4</ele><time>2022-04-17T07:31:47.000Z</time></trkpt><trkpt lon="5.470514" lat="51.19764"><ele>45.4</ele><time>2022-04-17T07:31:48.000Z</time></trkpt><trkpt lon="5.470412" lat="51.197666"><ele>45.4</ele><time>2022-04-17T07:31:49.000Z</time></trkpt><trkpt lon="5.470312" lat="51.197695"><ele>45.4</ele><time>2022-04-17T07:31:50.000Z</time></trkpt><trkpt lon="5.470213" lat="51.197729"><ele>45.6</ele><time>2022-04-17T07:31:51.000Z</time></trkpt><trkpt lon="5.470107" lat="51.197764"><ele>45.8</ele><time>2022-04-17T07:31:52.000Z</time></trkpt><trkpt lon="5.470005" lat="51.197797"><ele>46</ele><time>2022-04-17T07:31:53.000Z</time></trkpt><trkpt lon="5.4699" lat="51.197827"><ele>46</ele><time>2022-04-17T07:31:54.000Z</time></trkpt><trkpt lon="5.469795" lat="51.197852"><ele>46</ele><time>2022-04-17T07:31:55.000Z</time></trkpt><trkpt lon="5.469683" lat="51.197878"><ele>46</ele><time>2022-04-17T07:31:56.000Z</time></trkpt><trkpt lon="5.469568" lat="51.197911"><ele>46.2</ele><time>2022-04-17T07:31:57.000Z</time></trkpt><trkpt lon="5.469455" lat="51.197945"><ele>46.2</ele><time>2022-04-17T07:31:58.000Z</time></trkpt><trkpt lon="5.469344" lat="51.197985"><ele>46.2</ele><time>2022-04-17T07:31:59.000Z</time></trkpt><trkpt lon="5.469235" lat="51.198019"><ele>46</ele><time>2022-04-17T07:32:00.000Z</time></trkpt><trkpt lon="5.469129" lat="51.198054"><ele>46</ele><time>2022-04-17T07:32:01.000Z</time></trkpt><trkpt lon="5.469022" lat="51.198087"><ele>46</ele><time>2022-04-17T07:32:02.000Z</time></trkpt><trkpt lon="5.468911" lat="51.198116"><ele>46</ele><time>2022-04-17T07:32:03.000Z</time></trkpt><trkpt lon="5.468799" lat="51.198143"><ele>46</ele><time>2022-04-17T07:32:04.000Z</time></trkpt><trkpt lon="5.468682" lat="51.198169"><ele>46</ele><time>2022-04-17T07:32:05.000Z</time></trkpt><trkpt lon="5.468559" lat="51.198193"><ele>46</ele><time>2022-04-17T07:32:06.000Z</time></trkpt><trkpt lon="5.468433" lat="51.198219"><ele>45.8</ele><time>2022-04-17T07:32:07.000Z</time></trkpt><trkpt lon="5.468308" lat="51.198246"><ele>45.6</ele><time>2022-04-17T07:32:08.000Z</time></trkpt><trkpt lon="5.468186" lat="51.198273"><ele>45.4</ele><time>2022-04-17T07:32:09.000Z</time></trkpt><trkpt lon="5.468065" lat="51.1983"><ele>45.4</ele><time>2022-04-17T07:32:10.000Z</time></trkpt><trkpt lon="5.467944" lat="51.198325"><ele>45.4</ele><time>2022-04-17T07:32:11.000Z</time></trkpt><trkpt lon="5.467824" lat="51.198348"><ele>45.4</ele><time>2022-04-17T07:32:12.000Z</time></trkpt><trkpt lon="5.467707" lat="51.198372"><ele>45.2</ele><time>2022-04-17T07:32:13.000Z</time></trkpt><trkpt lon="5.467589" lat="51.198398"><ele>45.2</ele><time>2022-04-17T07:32:14.000Z</time></trkpt><trkpt lon="5.467474" lat="51.19842"><ele>45.2</ele><time>2022-04-17T07:32:15.000Z</time></trkpt><trkpt lon="5.467359" lat="51.198443"><ele>45.2</ele><time>2022-04-17T07:32:16.000Z</time></trkpt><trkpt lon="5.467242" lat="51.198466"><ele>45.2</ele><time>2022-04-17T07:32:17.000Z</time></trkpt><trkpt lon="5.467124" lat="51.198489"><ele>45</ele><time>2022-04-17T07:32:18.000Z</time></trkpt><trkpt lon="5.467006" lat="51.198512"><ele>45</ele><time>2022-04-17T07:32:19.000Z</time></trkpt><trkpt lon="5.466888" lat="51.198536"><ele>45.2</ele><time>2022-04-17T07:32:20.000Z</time></trkpt><trkpt lon="5.466768" lat="51.198561"><ele>45.2</ele><time>2022-04-17T07:32:21.000Z</time></trkpt><trkpt lon="5.466648" lat="51.198585"><ele>45</ele><time>2022-04-17T07:32:22.000Z</time></trkpt><trkpt lon="5.466533" lat="51.198607"><ele>45</ele><time>2022-04-17T07:32:23.000Z</time></trkpt><trkpt lon="5.466418" lat="51.19863"><ele>45</ele><time>2022-04-17T07:32:24.000Z</time></trkpt><trkpt lon="5.466307" lat="51.198653"><ele>45</ele><time>2022-04-17T07:32:25.000Z</time></trkpt><trkpt lon="5.4662" lat="51.198675"><ele>44.8</ele><time>2022-04-17T07:32:26.000Z</time></trkpt><trkpt lon="5.466097" lat="51.198694"><ele>44.8</ele><time>2022-04-17T07:32:27.000Z</time></trkpt><trkpt lon="5.465996" lat="51.198713"><ele>45</ele><time>2022-04-17T07:32:28.000Z</time></trkpt><trkpt lon="5.4659" lat="51.198731"><ele>45.2</ele><time>2022-04-17T07:32:29.000Z</time></trkpt><trkpt lon="5.465816" lat="51.198748"><ele>45.2</ele><time>2022-04-17T07:32:30.000Z</time></trkpt><trkpt lon="5.465744" lat="51.198769"><ele>45.4</ele><time>2022-04-17T07:32:31.000Z</time></trkpt><trkpt lon="5.46569" lat="51.198783"><ele>45.4</ele><time>2022-04-17T07:32:32.000Z</time></trkpt><trkpt lon="5.465654" lat="51.198791"><ele>45.6</ele><time>2022-04-17T07:32:33.000Z</time></trkpt><trkpt lon="5.465613" lat="51.198803"><ele>45.8</ele><time>2022-04-17T07:32:34.000Z</time></trkpt><trkpt lon="5.465589" lat="51.198804"><ele>45.8</ele><time>2022-04-17T07:32:35.000Z</time></trkpt><trkpt lon="5.465561" lat="51.198806"><ele>46</ele><time>2022-04-17T07:32:36.000Z</time></trkpt><trkpt lon="5.465523" lat="51.198803"><ele>46</ele><time>2022-04-17T07:32:37.000Z</time></trkpt><trkpt lon="5.465474" lat="51.198801"><ele>46</ele><time>2022-04-17T07:32:38.000Z</time></trkpt><trkpt lon="5.465418" lat="51.198795"><ele>46.2</ele><time>2022-04-17T07:32:39.000Z</time></trkpt><trkpt lon="5.465351" lat="51.198796"><ele>46</ele><time>2022-04-17T07:32:40.000Z</time></trkpt><trkpt lon="5.46527" lat="51.198801"><ele>46</ele><time>2022-04-17T07:32:41.000Z</time></trkpt><trkpt lon="5.465186" lat="51.198809"><ele>46</ele><time>2022-04-17T07:32:42.000Z</time></trkpt><trkpt lon="5.465098" lat="51.19882"><ele>45.8</ele><time>2022-04-17T07:32:43.000Z</time></trkpt><trkpt lon="5.465004" lat="51.198838"><ele>45.8</ele><time>2022-04-17T07:32:44.000Z</time></trkpt><trkpt lon="5.464909" lat="51.198855"><ele>45.6</ele><time>2022-04-17T07:32:45.000Z</time></trkpt><trkpt lon="5.464812" lat="51.198877"><ele>45.4</ele><time>2022-04-17T07:32:46.000Z</time></trkpt><trkpt lon="5.464713" lat="51.198897"><ele>45.4</ele><time>2022-04-17T07:32:47.000Z</time></trkpt><trkpt lon="5.464614" lat="51.198919"><ele>45.4</ele><time>2022-04-17T07:32:48.000Z</time></trkpt><trkpt lon="5.464514" lat="51.198939"><ele>45.2</ele><time>2022-04-17T07:32:49.000Z</time></trkpt><trkpt lon="5.464412" lat="51.198962"><ele>45.2</ele><time>2022-04-17T07:32:50.000Z</time></trkpt><trkpt lon="5.464308" lat="51.198985"><ele>45</ele><time>2022-04-17T07:32:51.000Z</time></trkpt><trkpt lon="5.464204" lat="51.199007"><ele>45</ele><time>2022-04-17T07:32:52.000Z</time></trkpt><trkpt lon="5.464098" lat="51.199027"><ele>45</ele><time>2022-04-17T07:32:53.000Z</time></trkpt><trkpt lon="5.463991" lat="51.199049"><ele>45</ele><time>2022-04-17T07:32:54.000Z</time></trkpt><trkpt lon="5.463886" lat="51.199068"><ele>45</ele><time>2022-04-17T07:32:55.000Z</time></trkpt><trkpt lon="5.463776" lat="51.199092"><ele>45.2</ele><time>2022-04-17T07:32:56.000Z</time></trkpt><trkpt lon="5.463667" lat="51.199115"><ele>45.4</ele><time>2022-04-17T07:32:57.000Z</time></trkpt><trkpt lon="5.463555" lat="51.199138"><ele>45.2</ele><time>2022-04-17T07:32:58.000Z</time></trkpt><trkpt lon="5.463444" lat="51.199161"><ele>45.2</ele><time>2022-04-17T07:32:59.000Z</time></trkpt><trkpt lon="5.463333" lat="51.199182"><ele>45</ele><time>2022-04-17T07:33:00.000Z</time></trkpt><trkpt lon="5.46322" lat="51.199203"><ele>45</ele><time>2022-04-17T07:33:01.000Z</time></trkpt><trkpt lon="5.463107" lat="51.199225"><ele>44.8</ele><time>2022-04-17T07:33:02.000Z</time></trkpt><trkpt lon="5.462994" lat="51.199249"><ele>44.8</ele><time>2022-04-17T07:33:03.000Z</time></trkpt><trkpt lon="5.462881" lat="51.199275"><ele>44.8</ele><time>2022-04-17T07:33:04.000Z</time></trkpt><trkpt lon="5.462769" lat="51.199298"><ele>44.8</ele><time>2022-04-17T07:33:05.000Z</time></trkpt><trkpt lon="5.462657" lat="51.199321"><ele>44.8</ele><time>2022-04-17T07:33:06.000Z</time></trkpt><trkpt lon="5.462545" lat="51.199344"><ele>45</ele><time>2022-04-17T07:33:07.000Z</time></trkpt><trkpt lon="5.46243" lat="51.199367"><ele>45</ele><time>2022-04-17T07:33:08.000Z</time></trkpt><trkpt lon="5.462318" lat="51.199389"><ele>44.8</ele><time>2022-04-17T07:33:09.000Z</time></trkpt><trkpt lon="5.462206" lat="51.199412"><ele>44.8</ele><time>2022-04-17T07:33:10.000Z</time></trkpt><trkpt lon="5.462091" lat="51.199435"><ele>44.8</ele><time>2022-04-17T07:33:11.000Z</time></trkpt><trkpt lon="5.461976" lat="51.199458"><ele>44.8</ele><time>2022-04-17T07:33:12.000Z</time></trkpt><trkpt lon="5.461862" lat="51.199481"><ele>45</ele><time>2022-04-17T07:33:13.000Z</time></trkpt><trkpt lon="5.461748" lat="51.199504"><ele>45</ele><time>2022-04-17T07:33:14.000Z</time></trkpt><trkpt lon="5.461632" lat="51.199528"><ele>45</ele><time>2022-04-17T07:33:15.000Z</time></trkpt><trkpt lon="5.461517" lat="51.199555"><ele>45</ele><time>2022-04-17T07:33:16.000Z</time></trkpt><trkpt lon="5.461405" lat="51.199581"><ele>45</ele><time>2022-04-17T07:33:17.000Z</time></trkpt><trkpt lon="5.461294" lat="51.199607"><ele>44.8</ele><time>2022-04-17T07:33:18.000Z</time></trkpt><trkpt lon="5.461183" lat="51.199631"><ele>44.8</ele><time>2022-04-17T07:33:19.000Z</time></trkpt><trkpt lon="5.461075" lat="51.199659"><ele>44.8</ele><time>2022-04-17T07:33:20.000Z</time></trkpt><trkpt lon="5.460965" lat="51.199688"><ele>44.6</ele><time>2022-04-17T07:33:21.000Z</time></trkpt><trkpt lon="5.460857" lat="51.199714"><ele>44.6</ele><time>2022-04-17T07:33:22.000Z</time></trkpt><trkpt lon="5.460742" lat="51.199741"><ele>44.4</ele><time>2022-04-17T07:33:23.000Z</time></trkpt><trkpt lon="5.460629" lat="51.199768"><ele>44.4</ele><time>2022-04-17T07:33:24.000Z</time></trkpt><trkpt lon="5.460518" lat="51.199795"><ele>44.4</ele><time>2022-04-17T07:33:25.000Z</time></trkpt><trkpt lon="5.460408" lat="51.199821"><ele>44.4</ele><time>2022-04-17T07:33:26.000Z</time></trkpt><trkpt lon="5.460298" lat="51.199848"><ele>44.4</ele><time>2022-04-17T07:33:27.000Z</time></trkpt><trkpt lon="5.460185" lat="51.199874"><ele>44.6</ele><time>2022-04-17T07:33:28.000Z</time></trkpt><trkpt lon="5.460072" lat="51.199898"><ele>44.6</ele><time>2022-04-17T07:33:29.000Z</time></trkpt><trkpt lon="5.459961" lat="51.199925"><ele>44.6</ele><time>2022-04-17T07:33:30.000Z</time></trkpt><trkpt lon="5.459847" lat="51.199952"><ele>44.4</ele><time>2022-04-17T07:33:31.000Z</time></trkpt><trkpt lon="5.459734" lat="51.199982"><ele>44.4</ele><time>2022-04-17T07:33:32.000Z</time></trkpt><trkpt lon="5.45962" lat="51.200009"><ele>44.2</ele><time>2022-04-17T07:33:33.000Z</time></trkpt><trkpt lon="5.459507" lat="51.200035"><ele>44</ele><time>2022-04-17T07:33:34.000Z</time></trkpt><trkpt lon="5.459395" lat="51.200062"><ele>43.8</ele><time>2022-04-17T07:33:35.000Z</time></trkpt><trkpt lon="5.459281" lat="51.200089"><ele>43.8</ele><time>2022-04-17T07:33:36.000Z</time></trkpt><trkpt lon="5.459166" lat="51.200115"><ele>43.8</ele><time>2022-04-17T07:33:37.000Z</time></trkpt><trkpt lon="5.459053" lat="51.200142"><ele>44</ele><time>2022-04-17T07:33:38.000Z</time></trkpt><trkpt lon="5.458942" lat="51.200168"><ele>44</ele><time>2022-04-17T07:33:39.000Z</time></trkpt><trkpt lon="5.458828" lat="51.200195"><ele>44</ele><time>2022-04-17T07:33:40.000Z</time></trkpt><trkpt lon="5.458714" lat="51.200223"><ele>44</ele><time>2022-04-17T07:33:41.000Z</time></trkpt><trkpt lon="5.458601" lat="51.200253"><ele>44</ele><time>2022-04-17T07:33:42.000Z</time></trkpt><trkpt lon="5.458487" lat="51.200279"><ele>44</ele><time>2022-04-17T07:33:43.000Z</time></trkpt><trkpt lon="5.458374" lat="51.200306"><ele>43.8</ele><time>2022-04-17T07:33:44.000Z</time></trkpt><trkpt lon="5.458261" lat="51.200332"><ele>43.6</ele><time>2022-04-17T07:33:45.000Z</time></trkpt><trkpt lon="5.458146" lat="51.200359"><ele>43.8</ele><time>2022-04-17T07:33:46.000Z</time></trkpt><trkpt lon="5.458032" lat="51.200386"><ele>43.6</ele><time>2022-04-17T07:33:47.000Z</time></trkpt><trkpt lon="5.457918" lat="51.200413"><ele>43.6</ele><time>2022-04-17T07:33:48.000Z</time></trkpt><trkpt lon="5.457805" lat="51.200439"><ele>43.4</ele><time>2022-04-17T07:33:49.000Z</time></trkpt><trkpt lon="5.457694" lat="51.200465"><ele>43.4</ele><time>2022-04-17T07:33:50.000Z</time></trkpt><trkpt lon="5.457577" lat="51.200493"><ele>43.6</ele><time>2022-04-17T07:33:51.000Z</time></trkpt><trkpt lon="5.457465" lat="51.200519"><ele>43.6</ele><time>2022-04-17T07:33:52.000Z</time></trkpt><trkpt lon="5.457352" lat="51.200546"><ele>43.6</ele><time>2022-04-17T07:33:53.000Z</time></trkpt><trkpt lon="5.457241" lat="51.200573"><ele>43.4</ele><time>2022-04-17T07:33:54.000Z</time></trkpt><trkpt lon="5.45713" lat="51.200599"><ele>43.4</ele><time>2022-04-17T07:33:55.000Z</time></trkpt><trkpt lon="5.457016" lat="51.200626"><ele>43.2</ele><time>2022-04-17T07:33:56.000Z</time></trkpt><trkpt lon="5.456904" lat="51.200653"><ele>43.2</ele><time>2022-04-17T07:33:57.000Z</time></trkpt><trkpt lon="5.456792" lat="51.20068"><ele>43.2</ele><time>2022-04-17T07:33:58.000Z</time></trkpt><trkpt lon="5.456677" lat="51.200706"><ele>43.2</ele><time>2022-04-17T07:33:59.000Z</time></trkpt><trkpt lon="5.456564" lat="51.200733"><ele>43.2</ele><time>2022-04-17T07:34:00.000Z</time></trkpt><trkpt lon="5.45645" lat="51.200759"><ele>43.2</ele><time>2022-04-17T07:34:01.000Z</time></trkpt><trkpt lon="5.456336" lat="51.200782"><ele>43.2</ele><time>2022-04-17T07:34:02.000Z</time></trkpt><trkpt lon="5.456222" lat="51.200805"><ele>43.2</ele><time>2022-04-17T07:34:03.000Z</time></trkpt><trkpt lon="5.456104" lat="51.200827"><ele>43</ele><time>2022-04-17T07:34:04.000Z</time></trkpt><trkpt lon="5.455987" lat="51.200847"><ele>43</ele><time>2022-04-17T07:34:05.000Z</time></trkpt><trkpt lon="5.45587" lat="51.200867"><ele>43</ele><time>2022-04-17T07:34:06.000Z</time></trkpt><trkpt lon="5.455751" lat="51.200883"><ele>43</ele><time>2022-04-17T07:34:07.000Z</time></trkpt><trkpt lon="5.455634" lat="51.200898"><ele>43</ele><time>2022-04-17T07:34:08.000Z</time></trkpt><trkpt lon="5.455516" lat="51.200912"><ele>43</ele><time>2022-04-17T07:34:09.000Z</time></trkpt><trkpt lon="5.455397" lat="51.200923"><ele>43</ele><time>2022-04-17T07:34:10.000Z</time></trkpt><trkpt lon="5.455279" lat="51.200935"><ele>43</ele><time>2022-04-17T07:34:11.000Z</time></trkpt><trkpt lon="5.455161" lat="51.200946"><ele>43</ele><time>2022-04-17T07:34:12.000Z</time></trkpt><trkpt lon="5.45504" lat="51.200956"><ele>43</ele><time>2022-04-17T07:34:13.000Z</time></trkpt><trkpt lon="5.45492" lat="51.20096"><ele>43</ele><time>2022-04-17T07:34:14.000Z</time></trkpt><trkpt lon="5.454801" lat="51.200968"><ele>43</ele><time>2022-04-17T07:34:15.000Z</time></trkpt><trkpt lon="5.454685" lat="51.200976"><ele>43</ele><time>2022-04-17T07:34:16.000Z</time></trkpt><trkpt lon="5.454565" lat="51.200982"><ele>43</ele><time>2022-04-17T07:34:17.000Z</time></trkpt><trkpt lon="5.454448" lat="51.200987"><ele>43</ele><time>2022-04-17T07:34:18.000Z</time></trkpt><trkpt lon="5.454329" lat="51.200995"><ele>43.2</ele><time>2022-04-17T07:34:19.000Z</time></trkpt><trkpt lon="5.454207" lat="51.201002"><ele>43.2</ele><time>2022-04-17T07:34:20.000Z</time></trkpt><trkpt lon="5.454087" lat="51.20101"><ele>43.2</ele><time>2022-04-17T07:34:21.000Z</time></trkpt><trkpt lon="5.45397" lat="51.201018"><ele>43.2</ele><time>2022-04-17T07:34:22.000Z</time></trkpt><trkpt lon="5.453848" lat="51.201024"><ele>43.2</ele><time>2022-04-17T07:34:23.000Z</time></trkpt><trkpt lon="5.45373" lat="51.201029"><ele>43.2</ele><time>2022-04-17T07:34:24.000Z</time></trkpt><trkpt lon="5.453611" lat="51.201037"><ele>43.2</ele><time>2022-04-17T07:34:25.000Z</time></trkpt><trkpt lon="5.453494" lat="51.201042"><ele>43.2</ele><time>2022-04-17T07:34:26.000Z</time></trkpt><trkpt lon="5.453377" lat="51.201044"><ele>43.2</ele><time>2022-04-17T07:34:27.000Z</time></trkpt><trkpt lon="5.453258" lat="51.201051"><ele>43.2</ele><time>2022-04-17T07:34:28.000Z</time></trkpt><trkpt lon="5.453138" lat="51.201057"><ele>43.4</ele><time>2022-04-17T07:34:29.000Z</time></trkpt><trkpt lon="5.453019" lat="51.201067"><ele>43.4</ele><time>2022-04-17T07:34:30.000Z</time></trkpt><trkpt lon="5.4529" lat="51.201075"><ele>43.6</ele><time>2022-04-17T07:34:31.000Z</time></trkpt><trkpt lon="5.452781" lat="51.201084"><ele>43.4</ele><time>2022-04-17T07:34:32.000Z</time></trkpt><trkpt lon="5.452662" lat="51.201095"><ele>43.4</ele><time>2022-04-17T07:34:33.000Z</time></trkpt><trkpt lon="5.452546" lat="51.201108"><ele>43.4</ele><time>2022-04-17T07:34:34.000Z</time></trkpt><trkpt lon="5.452437" lat="51.201129"><ele>43.2</ele><time>2022-04-17T07:34:35.000Z</time></trkpt><trkpt lon="5.452319" lat="51.201158"><ele>43.2</ele><time>2022-04-17T07:34:36.000Z</time></trkpt><trkpt lon="5.452212" lat="51.201191"><ele>43</ele><time>2022-04-17T07:34:37.000Z</time></trkpt><trkpt lon="5.452108" lat="51.201231"><ele>43</ele><time>2022-04-17T07:34:38.000Z</time></trkpt><trkpt lon="5.452014" lat="51.201278"><ele>42.8</ele><time>2022-04-17T07:34:39.000Z</time></trkpt><trkpt lon="5.451927" lat="51.20133"><ele>42.8</ele><time>2022-04-17T07:34:40.000Z</time></trkpt><trkpt lon="5.451845" lat="51.201387"><ele>42.8</ele><time>2022-04-17T07:34:41.000Z</time></trkpt><trkpt lon="5.451769" lat="51.201448"><ele>42.8</ele><time>2022-04-17T07:34:42.000Z</time></trkpt><trkpt lon="5.451699" lat="51.20151"><ele>42.8</ele><time>2022-04-17T07:34:43.000Z</time></trkpt><trkpt lon="5.451634" lat="51.201572"><ele>42.8</ele><time>2022-04-17T07:34:44.000Z</time></trkpt><trkpt lon="5.451569" lat="51.201636"><ele>42.8</ele><time>2022-04-17T07:34:45.000Z</time></trkpt><trkpt lon="5.451502" lat="51.201697"><ele>42.8</ele><time>2022-04-17T07:34:46.000Z</time></trkpt><trkpt lon="5.451434" lat="51.201758"><ele>42.6</ele><time>2022-04-17T07:34:47.000Z</time></trkpt><trkpt lon="5.451367" lat="51.201819"><ele>42.6</ele><time>2022-04-17T07:34:48.000Z</time></trkpt><trkpt lon="5.4513" lat="51.20188"><ele>42.6</ele><time>2022-04-17T07:34:49.000Z</time></trkpt><trkpt lon="5.451234" lat="51.201939"><ele>42.6</ele><time>2022-04-17T07:34:50.000Z</time></trkpt><trkpt lon="5.45117" lat="51.201998"><ele>42.6</ele><time>2022-04-17T07:34:51.000Z</time></trkpt><trkpt lon="5.451106" lat="51.202059"><ele>42.8</ele><time>2022-04-17T07:34:52.000Z</time></trkpt><trkpt lon="5.45104" lat="51.202124"><ele>42.8</ele><time>2022-04-17T07:34:53.000Z</time></trkpt><trkpt lon="5.450974" lat="51.202184"><ele>42.8</ele><time>2022-04-17T07:34:54.000Z</time></trkpt><trkpt lon="5.450907" lat="51.202241"><ele>42.8</ele><time>2022-04-17T07:34:55.000Z</time></trkpt><trkpt lon="5.450842" lat="51.202301"><ele>42.8</ele><time>2022-04-17T07:34:56.000Z</time></trkpt><trkpt lon="5.450778" lat="51.202364"><ele>42.8</ele><time>2022-04-17T07:34:57.000Z</time></trkpt><trkpt lon="5.450714" lat="51.202424"><ele>43</ele><time>2022-04-17T07:34:58.000Z</time></trkpt><trkpt lon="5.450652" lat="51.20248"><ele>43</ele><time>2022-04-17T07:34:59.000Z</time></trkpt><trkpt lon="5.450591" lat="51.202533"><ele>43.2</ele><time>2022-04-17T07:35:00.000Z</time></trkpt><trkpt lon="5.450534" lat="51.202583"><ele>43.4</ele><time>2022-04-17T07:35:01.000Z</time></trkpt><trkpt lon="5.450477" lat="51.202634"><ele>43.4</ele><time>2022-04-17T07:35:02.000Z</time></trkpt><trkpt lon="5.450419" lat="51.202679"><ele>43.6</ele><time>2022-04-17T07:35:03.000Z</time></trkpt><trkpt lon="5.450356" lat="51.20272"><ele>43.8</ele><time>2022-04-17T07:35:04.000Z</time></trkpt><trkpt lon="5.450294" lat="51.202758"><ele>43.8</ele><time>2022-04-17T07:35:05.000Z</time></trkpt><trkpt lon="5.450244" lat="51.202798"><ele>43.8</ele><time>2022-04-17T07:35:06.000Z</time></trkpt><trkpt lon="5.450221" lat="51.202841"><ele>43.8</ele><time>2022-04-17T07:35:07.000Z</time></trkpt><trkpt lon="5.450235" lat="51.202884"><ele>43.8</ele><time>2022-04-17T07:35:08.000Z</time></trkpt><trkpt lon="5.450282" lat="51.20292"><ele>43.8</ele><time>2022-04-17T07:35:09.000Z</time></trkpt><trkpt lon="5.450349" lat="51.202949"><ele>43.6</ele><time>2022-04-17T07:35:10.000Z</time></trkpt><trkpt lon="5.450428" lat="51.202975"><ele>43.6</ele><time>2022-04-17T07:35:11.000Z</time></trkpt><trkpt lon="5.450504" lat="51.203001"><ele>43.6</ele><time>2022-04-17T07:35:12.000Z</time></trkpt><trkpt lon="5.45057" lat="51.203036"><ele>43.8</ele><time>2022-04-17T07:35:13.000Z</time></trkpt><trkpt lon="5.450614" lat="51.203073"><ele>43.6</ele><time>2022-04-17T07:35:14.000Z</time></trkpt><trkpt lon="5.450629" lat="51.203124"><ele>43.6</ele><time>2022-04-17T07:35:15.000Z</time></trkpt><trkpt lon="5.450616" lat="51.203186"><ele>43.6</ele><time>2022-04-17T07:35:16.000Z</time></trkpt><trkpt lon="5.450596" lat="51.20325"><ele>43.4</ele><time>2022-04-17T07:35:17.000Z</time></trkpt><trkpt lon="5.450568" lat="51.203312"><ele>43.4</ele><time>2022-04-17T07:35:18.000Z</time></trkpt><trkpt lon="5.450537" lat="51.203378"><ele>43.2</ele><time>2022-04-17T07:35:19.000Z</time></trkpt><trkpt lon="5.450503" lat="51.20345"><ele>43</ele><time>2022-04-17T07:35:20.000Z</time></trkpt><trkpt lon="5.450475" lat="51.20352"><ele>42.8</ele><time>2022-04-17T07:35:21.000Z</time></trkpt><trkpt lon="5.450453" lat="51.203593"><ele>42.6</ele><time>2022-04-17T07:35:22.000Z</time></trkpt><trkpt lon="5.450434" lat="51.203665"><ele>42.4</ele><time>2022-04-17T07:35:23.000Z</time></trkpt><trkpt lon="5.450418" lat="51.203736"><ele>42.4</ele><time>2022-04-17T07:35:24.000Z</time></trkpt><trkpt lon="5.450406" lat="51.203806"><ele>42.4</ele><time>2022-04-17T07:35:25.000Z</time></trkpt><trkpt lon="5.450396" lat="51.203877"><ele>42.2</ele><time>2022-04-17T07:35:26.000Z</time></trkpt><trkpt lon="5.450388" lat="51.203947"><ele>42.2</ele><time>2022-04-17T07:35:27.000Z</time></trkpt><trkpt lon="5.450382" lat="51.204017"><ele>42.2</ele><time>2022-04-17T07:35:28.000Z</time></trkpt><trkpt lon="5.450377" lat="51.204083"><ele>42.4</ele><time>2022-04-17T07:35:29.000Z</time></trkpt><trkpt lon="5.450375" lat="51.204151"><ele>42.4</ele><time>2022-04-17T07:35:30.000Z</time></trkpt><trkpt lon="5.450373" lat="51.204224"><ele>42.4</ele><time>2022-04-17T07:35:31.000Z</time></trkpt><trkpt lon="5.450375" lat="51.204295"><ele>42.4</ele><time>2022-04-17T07:35:32.000Z</time></trkpt><trkpt lon="5.450381" lat="51.204369"><ele>42.4</ele><time>2022-04-17T07:35:33.000Z</time></trkpt><trkpt lon="5.450391" lat="51.204439"><ele>42.4</ele><time>2022-04-17T07:35:34.000Z</time></trkpt><trkpt lon="5.4504" lat="51.204512"><ele>42.4</ele><time>2022-04-17T07:35:35.000Z</time></trkpt><trkpt lon="5.450412" lat="51.204584"><ele>42.4</ele><time>2022-04-17T07:35:36.000Z</time></trkpt><trkpt lon="5.450423" lat="51.204656"><ele>42.4</ele><time>2022-04-17T07:35:37.000Z</time></trkpt><trkpt lon="5.450433" lat="51.204729"><ele>42.2</ele><time>2022-04-17T07:35:38.000Z</time></trkpt><trkpt lon="5.450445" lat="51.204803"><ele>42</ele><time>2022-04-17T07:35:39.000Z</time></trkpt><trkpt lon="5.450458" lat="51.204876"><ele>42</ele><time>2022-04-17T07:35:40.000Z</time></trkpt><trkpt lon="5.450474" lat="51.204942"><ele>42</ele><time>2022-04-17T07:35:41.000Z</time></trkpt><trkpt lon="5.450486" lat="51.205015"><ele>42</ele><time>2022-04-17T07:35:42.000Z</time></trkpt><trkpt lon="5.450494" lat="51.205087"><ele>42</ele><time>2022-04-17T07:35:43.000Z</time></trkpt><trkpt lon="5.450503" lat="51.205155"><ele>42.2</ele><time>2022-04-17T07:35:44.000Z</time></trkpt><trkpt lon="5.450513" lat="51.205226"><ele>42.2</ele><time>2022-04-17T07:35:45.000Z</time></trkpt><trkpt lon="5.450524" lat="51.205301"><ele>42.2</ele><time>2022-04-17T07:35:46.000Z</time></trkpt><trkpt lon="5.450534" lat="51.205377"><ele>42.4</ele><time>2022-04-17T07:35:47.000Z</time></trkpt><trkpt lon="5.450542" lat="51.205449"><ele>42.4</ele><time>2022-04-17T07:35:48.000Z</time></trkpt><trkpt lon="5.450548" lat="51.205523"><ele>42.2</ele><time>2022-04-17T07:35:49.000Z</time></trkpt><trkpt lon="5.450552" lat="51.205598"><ele>42.2</ele><time>2022-04-17T07:35:50.000Z</time></trkpt><trkpt lon="5.450556" lat="51.205672"><ele>42.2</ele><time>2022-04-17T07:35:51.000Z</time></trkpt><trkpt lon="5.450563" lat="51.205748"><ele>42.2</ele><time>2022-04-17T07:35:52.000Z</time></trkpt><trkpt lon="5.450574" lat="51.20582"><ele>42</ele><time>2022-04-17T07:35:53.000Z</time></trkpt><trkpt lon="5.450589" lat="51.205892"><ele>42</ele><time>2022-04-17T07:35:54.000Z</time></trkpt><trkpt lon="5.450603" lat="51.205966"><ele>42</ele><time>2022-04-17T07:35:55.000Z</time></trkpt><trkpt lon="5.450624" lat="51.206041"><ele>41.8</ele><time>2022-04-17T07:35:56.000Z</time></trkpt><trkpt lon="5.450659" lat="51.206111"><ele>41.8</ele><time>2022-04-17T07:35:57.000Z</time></trkpt><trkpt lon="5.450698" lat="51.206182"><ele>41.8</ele><time>2022-04-17T07:35:58.000Z</time></trkpt><trkpt lon="5.450736" lat="51.206255"><ele>41.8</ele><time>2022-04-17T07:35:59.000Z</time></trkpt><trkpt lon="5.450764" lat="51.206326"><ele>41.8</ele><time>2022-04-17T07:36:00.000Z</time></trkpt><trkpt lon="5.450782" lat="51.206401"><ele>41.8</ele><time>2022-04-17T07:36:01.000Z</time></trkpt><trkpt lon="5.450787" lat="51.206475"><ele>41.8</ele><time>2022-04-17T07:36:02.000Z</time></trkpt><trkpt lon="5.450778" lat="51.206548"><ele>41.8</ele><time>2022-04-17T07:36:03.000Z</time></trkpt><trkpt lon="5.450755" lat="51.206621"><ele>41.8</ele><time>2022-04-17T07:36:04.000Z</time></trkpt><trkpt lon="5.450726" lat="51.206694"><ele>42</ele><time>2022-04-17T07:36:05.000Z</time></trkpt><trkpt lon="5.450697" lat="51.206767"><ele>42</ele><time>2022-04-17T07:36:06.000Z</time></trkpt><trkpt lon="5.450671" lat="51.206839"><ele>42</ele><time>2022-04-17T07:36:07.000Z</time></trkpt><trkpt lon="5.450644" lat="51.206911"><ele>42</ele><time>2022-04-17T07:36:08.000Z</time></trkpt><trkpt lon="5.45062" lat="51.206981"><ele>42</ele><time>2022-04-17T07:36:09.000Z</time></trkpt><trkpt lon="5.450595" lat="51.207045"><ele>42.2</ele><time>2022-04-17T07:36:10.000Z</time></trkpt><trkpt lon="5.450571" lat="51.207112"><ele>42.2</ele><time>2022-04-17T07:36:11.000Z</time></trkpt><trkpt lon="5.450553" lat="51.20718"><ele>42.2</ele><time>2022-04-17T07:36:12.000Z</time></trkpt><trkpt lon="5.450539" lat="51.207253"><ele>42.2</ele><time>2022-04-17T07:36:13.000Z</time></trkpt><trkpt lon="5.450532" lat="51.20733"><ele>42.2</ele><time>2022-04-17T07:36:14.000Z</time></trkpt><trkpt lon="5.450539" lat="51.207405"><ele>42.2</ele><time>2022-04-17T07:36:15.000Z</time></trkpt><trkpt lon="5.450559" lat="51.207483"><ele>42.2</ele><time>2022-04-17T07:36:16.000Z</time></trkpt><trkpt lon="5.450588" lat="51.207565"><ele>42</ele><time>2022-04-17T07:36:17.000Z</time></trkpt><trkpt lon="5.450627" lat="51.207645"><ele>42</ele><time>2022-04-17T07:36:18.000Z</time></trkpt><trkpt lon="5.450674" lat="51.207719"><ele>41.8</ele><time>2022-04-17T07:36:19.000Z</time></trkpt><trkpt lon="5.450722" lat="51.207791"><ele>41.8</ele><time>2022-04-17T07:36:20.000Z</time></trkpt><trkpt lon="5.450771" lat="51.20786"><ele>41.6</ele><time>2022-04-17T07:36:21.000Z</time></trkpt><trkpt lon="5.450822" lat="51.207929"><ele>41.6</ele><time>2022-04-17T07:36:22.000Z</time></trkpt><trkpt lon="5.45087" lat="51.208001"><ele>41.4</ele><time>2022-04-17T07:36:23.000Z</time></trkpt><trkpt lon="5.450914" lat="51.208069"><ele>41.4</ele><time>2022-04-17T07:36:24.000Z</time></trkpt><trkpt lon="5.450957" lat="51.208138"><ele>41.4</ele><time>2022-04-17T07:36:25.000Z</time></trkpt><trkpt lon="5.451" lat="51.208208"><ele>41.4</ele><time>2022-04-17T07:36:26.000Z</time></trkpt><trkpt lon="5.451041" lat="51.208279"><ele>41.4</ele><time>2022-04-17T07:36:27.000Z</time></trkpt><trkpt lon="5.451082" lat="51.208348"><ele>41.2</ele><time>2022-04-17T07:36:28.000Z</time></trkpt><trkpt lon="5.451126" lat="51.208416"><ele>41.2</ele><time>2022-04-17T07:36:29.000Z</time></trkpt><trkpt lon="5.451173" lat="51.208484"><ele>41.2</ele><time>2022-04-17T07:36:30.000Z</time></trkpt><trkpt lon="5.451232" lat="51.208552"><ele>41.2</ele><time>2022-04-17T07:36:31.000Z</time></trkpt><trkpt lon="5.451296" lat="51.208611"><ele>41.4</ele><time>2022-04-17T07:36:32.000Z</time></trkpt><trkpt lon="5.451367" lat="51.208666"><ele>41.4</ele><time>2022-04-17T07:36:33.000Z</time></trkpt><trkpt lon="5.451441" lat="51.208717"><ele>41.6</ele><time>2022-04-17T07:36:34.000Z</time></trkpt><trkpt lon="5.451518" lat="51.208769"><ele>41.4</ele><time>2022-04-17T07:36:35.000Z</time></trkpt><trkpt lon="5.451595" lat="51.208822"><ele>41.4</ele><time>2022-04-17T07:36:36.000Z</time></trkpt><trkpt lon="5.451668" lat="51.208877"><ele>41.6</ele><time>2022-04-17T07:36:37.000Z</time></trkpt><trkpt lon="5.451738" lat="51.208928"><ele>41.6</ele><time>2022-04-17T07:36:38.000Z</time></trkpt><trkpt lon="5.451802" lat="51.208985"><ele>41.6</ele><time>2022-04-17T07:36:39.000Z</time></trkpt><trkpt lon="5.451865" lat="51.209047"><ele>41.6</ele><time>2022-04-17T07:36:40.000Z</time></trkpt><trkpt lon="5.451927" lat="51.209113"><ele>41.6</ele><time>2022-04-17T07:36:41.000Z</time></trkpt><trkpt lon="5.451985" lat="51.209179"><ele>41.6</ele><time>2022-04-17T07:36:42.000Z</time></trkpt><trkpt lon="5.452035" lat="51.209244"><ele>41.4</ele><time>2022-04-17T07:36:43.000Z</time></trkpt><trkpt lon="5.452087" lat="51.209312"><ele>41.4</ele><time>2022-04-17T07:36:44.000Z</time></trkpt><trkpt lon="5.452137" lat="51.209377"><ele>41.4</ele><time>2022-04-17T07:36:45.000Z</time></trkpt><trkpt lon="5.452186" lat="51.209442"><ele>41.4</ele><time>2022-04-17T07:36:46.000Z</time></trkpt><trkpt lon="5.452232" lat="51.209508"><ele>41.2</ele><time>2022-04-17T07:36:47.000Z</time></trkpt><trkpt lon="5.452279" lat="51.209576"><ele>41.2</ele><time>2022-04-17T07:36:48.000Z</time></trkpt><trkpt lon="5.452325" lat="51.209642"><ele>41.2</ele><time>2022-04-17T07:36:49.000Z</time></trkpt><trkpt lon="5.452369" lat="51.209714"><ele>41</ele><time>2022-04-17T07:36:50.000Z</time></trkpt><trkpt lon="5.452412" lat="51.209786"><ele>41</ele><time>2022-04-17T07:36:51.000Z</time></trkpt><trkpt lon="5.452454" lat="51.209855"><ele>41</ele><time>2022-04-17T07:36:52.000Z</time></trkpt><trkpt lon="5.452495" lat="51.209922"><ele>40.8</ele><time>2022-04-17T07:36:53.000Z</time></trkpt><trkpt lon="5.452537" lat="51.209987"><ele>40.8</ele><time>2022-04-17T07:36:54.000Z</time></trkpt><trkpt lon="5.452577" lat="51.21005"><ele>40.8</ele><time>2022-04-17T07:36:55.000Z</time></trkpt><trkpt lon="5.452618" lat="51.210114"><ele>40.8</ele><time>2022-04-17T07:36:56.000Z</time></trkpt><trkpt lon="5.452658" lat="51.210181"><ele>40.8</ele><time>2022-04-17T07:36:57.000Z</time></trkpt><trkpt lon="5.452699" lat="51.210245"><ele>40.6</ele><time>2022-04-17T07:36:58.000Z</time></trkpt><trkpt lon="5.452743" lat="51.210307"><ele>40.8</ele><time>2022-04-17T07:36:59.000Z</time></trkpt><trkpt lon="5.452792" lat="51.210371"><ele>40.8</ele><time>2022-04-17T07:37:00.000Z</time></trkpt><trkpt lon="5.452845" lat="51.210433"><ele>41</ele><time>2022-04-17T07:37:01.000Z</time></trkpt><trkpt lon="5.452899" lat="51.210493"><ele>41</ele><time>2022-04-17T07:37:02.000Z</time></trkpt><trkpt lon="5.452956" lat="51.210556"><ele>41.2</ele><time>2022-04-17T07:37:03.000Z</time></trkpt><trkpt lon="5.453015" lat="51.210626"><ele>41.2</ele><time>2022-04-17T07:37:04.000Z</time></trkpt><trkpt lon="5.453073" lat="51.210692"><ele>41.2</ele><time>2022-04-17T07:37:05.000Z</time></trkpt><trkpt lon="5.45313" lat="51.210754"><ele>41.2</ele><time>2022-04-17T07:37:06.000Z</time></trkpt><trkpt lon="5.453194" lat="51.210817"><ele>41</ele><time>2022-04-17T07:37:07.000Z</time></trkpt><trkpt lon="5.453265" lat="51.210873"><ele>40.8</ele><time>2022-04-17T07:37:08.000Z</time></trkpt><trkpt lon="5.453345" lat="51.210923"><ele>40.6</ele><time>2022-04-17T07:37:09.000Z</time></trkpt><trkpt lon="5.453435" lat="51.210965"><ele>40.6</ele><time>2022-04-17T07:37:10.000Z</time></trkpt><trkpt lon="5.453544" lat="51.211005"><ele>40.4</ele><time>2022-04-17T07:37:11.000Z</time></trkpt><trkpt lon="5.453646" lat="51.21104"><ele>40.4</ele><time>2022-04-17T07:37:12.000Z</time></trkpt><trkpt lon="5.453744" lat="51.211078"><ele>40.6</ele><time>2022-04-17T07:37:13.000Z</time></trkpt><trkpt lon="5.453841" lat="51.211116"><ele>40.8</ele><time>2022-04-17T07:37:14.000Z</time></trkpt><trkpt lon="5.453936" lat="51.211155"><ele>40.8</ele><time>2022-04-17T07:37:15.000Z</time></trkpt><trkpt lon="5.454027" lat="51.211194"><ele>41</ele><time>2022-04-17T07:37:16.000Z</time></trkpt><trkpt lon="5.454116" lat="51.211236"><ele>41</ele><time>2022-04-17T07:37:17.000Z</time></trkpt><trkpt lon="5.454205" lat="51.211278"><ele>41.2</ele><time>2022-04-17T07:37:18.000Z</time></trkpt><trkpt lon="5.454297" lat="51.211324"><ele>41</ele><time>2022-04-17T07:37:19.000Z</time></trkpt><trkpt lon="5.454384" lat="51.21137"><ele>41</ele><time>2022-04-17T07:37:20.000Z</time></trkpt><trkpt lon="5.454475" lat="51.21142"><ele>41.2</ele><time>2022-04-17T07:37:21.000Z</time></trkpt><trkpt lon="5.454561" lat="51.211466"><ele>41.2</ele><time>2022-04-17T07:37:22.000Z</time></trkpt><trkpt lon="5.454646" lat="51.211512"><ele>41.2</ele><time>2022-04-17T07:37:23.000Z</time></trkpt><trkpt lon="5.454732" lat="51.211557"><ele>41.2</ele><time>2022-04-17T07:37:24.000Z</time></trkpt><trkpt lon="5.454821" lat="51.211603"><ele>41.4</ele><time>2022-04-17T07:37:25.000Z</time></trkpt><trkpt lon="5.454913" lat="51.211649"><ele>41.4</ele><time>2022-04-17T07:37:26.000Z</time></trkpt><trkpt lon="5.455004" lat="51.211694"><ele>41.6</ele><time>2022-04-17T07:37:27.000Z</time></trkpt><trkpt lon="5.455095" lat="51.211741"><ele>41.8</ele><time>2022-04-17T07:37:28.000Z</time></trkpt><trkpt lon="5.455186" lat="51.211786"><ele>42</ele><time>2022-04-17T07:37:29.000Z</time></trkpt><trkpt lon="5.455273" lat="51.211833"><ele>42.2</ele><time>2022-04-17T07:37:30.000Z</time></trkpt><trkpt lon="5.455358" lat="51.211883"><ele>42.2</ele><time>2022-04-17T07:37:31.000Z</time></trkpt><trkpt lon="5.455445" lat="51.21193"><ele>42.4</ele><time>2022-04-17T07:37:32.000Z</time></trkpt><trkpt lon="5.455539" lat="51.211973"><ele>42.4</ele><time>2022-04-17T07:37:33.000Z</time></trkpt><trkpt lon="5.455632" lat="51.212018"><ele>42.4</ele><time>2022-04-17T07:37:34.000Z</time></trkpt><trkpt lon="5.45572" lat="51.212064"><ele>42.4</ele><time>2022-04-17T07:37:35.000Z</time></trkpt><trkpt lon="5.455805" lat="51.212112"><ele>42.4</ele><time>2022-04-17T07:37:36.000Z</time></trkpt><trkpt lon="5.455888" lat="51.21216"><ele>42.4</ele><time>2022-04-17T07:37:37.000Z</time></trkpt><trkpt lon="5.455963" lat="51.212205"><ele>42.6</ele><time>2022-04-17T07:37:38.000Z</time></trkpt><trkpt lon="5.456031" lat="51.212246"><ele>42.6</ele><time>2022-04-17T07:37:39.000Z</time></trkpt><trkpt lon="5.456097" lat="51.212288"><ele>42.6</ele><time>2022-04-17T07:37:40.000Z</time></trkpt><trkpt lon="5.456163" lat="51.212326"><ele>42.6</ele><time>2022-04-17T07:37:41.000Z</time></trkpt><trkpt lon="5.456237" lat="51.212351"><ele>42.8</ele><time>2022-04-17T07:37:42.000Z</time></trkpt><trkpt lon="5.456317" lat="51.212379"><ele>42.8</ele><time>2022-04-17T07:37:43.000Z</time></trkpt><trkpt lon="5.456397" lat="51.212416"><ele>43</ele><time>2022-04-17T07:37:44.000Z</time></trkpt><trkpt lon="5.45647" lat="51.212448"><ele>43</ele><time>2022-04-17T07:37:45.000Z</time></trkpt><trkpt lon="5.456539" lat="51.212477"><ele>43</ele><time>2022-04-17T07:37:46.000Z</time></trkpt><trkpt lon="5.456599" lat="51.212511"><ele>42.6</ele><time>2022-04-17T07:37:47.000Z</time></trkpt><trkpt lon="5.456661" lat="51.212544"><ele>42.6</ele><time>2022-04-17T07:37:48.000Z</time></trkpt><trkpt lon="5.456717" lat="51.212568"><ele>42.6</ele><time>2022-04-17T07:37:49.000Z</time></trkpt><trkpt lon="5.45676" lat="51.212587"><ele>42.4</ele><time>2022-04-17T07:37:50.000Z</time></trkpt><trkpt lon="5.456795" lat="51.212607"><ele>42.4</ele><time>2022-04-17T07:37:51.000Z</time></trkpt><trkpt lon="5.456829" lat="51.21263"><ele>42.2</ele><time>2022-04-17T07:37:52.000Z</time></trkpt><trkpt lon="5.456865" lat="51.212658"><ele>42.2</ele><time>2022-04-17T07:37:53.000Z</time></trkpt><trkpt lon="5.456894" lat="51.212697"><ele>42.2</ele><time>2022-04-17T07:37:54.000Z</time></trkpt><trkpt lon="5.456903" lat="51.21274"><ele>42</ele><time>2022-04-17T07:37:55.000Z</time></trkpt><trkpt lon="5.456889" lat="51.212789"><ele>42</ele><time>2022-04-17T07:37:56.000Z</time></trkpt><trkpt lon="5.456862" lat="51.212844"><ele>42</ele><time>2022-04-17T07:37:57.000Z</time></trkpt><trkpt lon="5.456838" lat="51.212894"><ele>42</ele><time>2022-04-17T07:37:58.000Z</time></trkpt><trkpt lon="5.456812" lat="51.212943"><ele>41.8</ele><time>2022-04-17T07:37:59.000Z</time></trkpt><trkpt lon="5.45678" lat="51.212995"><ele>41.8</ele><time>2022-04-17T07:38:00.000Z</time></trkpt><trkpt lon="5.456743" lat="51.213055"><ele>41.8</ele><time>2022-04-17T07:38:01.000Z</time></trkpt><trkpt lon="5.456708" lat="51.213111"><ele>41.8</ele><time>2022-04-17T07:38:02.000Z</time></trkpt><trkpt lon="5.456671" lat="51.21317"><ele>41.6</ele><time>2022-04-17T07:38:03.000Z</time></trkpt><trkpt lon="5.456632" lat="51.213228"><ele>41.6</ele><time>2022-04-17T07:38:04.000Z</time></trkpt><trkpt lon="5.456592" lat="51.213283"><ele>41.6</ele><time>2022-04-17T07:38:05.000Z</time></trkpt><trkpt lon="5.456548" lat="51.213348"><ele>41.6</ele><time>2022-04-17T07:38:06.000Z</time></trkpt><trkpt lon="5.456512" lat="51.213413"><ele>41.6</ele><time>2022-04-17T07:38:07.000Z</time></trkpt><trkpt lon="5.456472" lat="51.213478"><ele>41.6</ele><time>2022-04-17T07:38:08.000Z</time></trkpt><trkpt lon="5.456432" lat="51.213542"><ele>41.6</ele><time>2022-04-17T07:38:09.000Z</time></trkpt><trkpt lon="5.456394" lat="51.213608"><ele>41.6</ele><time>2022-04-17T07:38:10.000Z</time></trkpt><trkpt lon="5.456353" lat="51.213677"><ele>41.4</ele><time>2022-04-17T07:38:11.000Z</time></trkpt><trkpt lon="5.456311" lat="51.213742"><ele>41.4</ele><time>2022-04-17T07:38:12.000Z</time></trkpt><trkpt lon="5.456268" lat="51.21381"><ele>41.4</ele><time>2022-04-17T07:38:13.000Z</time></trkpt><trkpt lon="5.456226" lat="51.213874"><ele>41.4</ele><time>2022-04-17T07:38:14.000Z</time></trkpt><trkpt lon="5.456182" lat="51.213939"><ele>41.4</ele><time>2022-04-17T07:38:15.000Z</time></trkpt><trkpt lon="5.456137" lat="51.214004"><ele>41.4</ele><time>2022-04-17T07:38:16.000Z</time></trkpt><trkpt lon="5.456092" lat="51.214069"><ele>41.4</ele><time>2022-04-17T07:38:17.000Z</time></trkpt><trkpt lon="5.456045" lat="51.214134"><ele>41.4</ele><time>2022-04-17T07:38:18.000Z</time></trkpt><trkpt lon="5.456001" lat="51.214198"><ele>41.4</ele><time>2022-04-17T07:38:19.000Z</time></trkpt><trkpt lon="5.455955" lat="51.214263"><ele>41.2</ele><time>2022-04-17T07:38:20.000Z</time></trkpt><trkpt lon="5.455909" lat="51.214328"><ele>41.2</ele><time>2022-04-17T07:38:21.000Z</time></trkpt><trkpt lon="5.455863" lat="51.214388"><ele>41.2</ele><time>2022-04-17T07:38:22.000Z</time></trkpt><trkpt lon="5.455817" lat="51.21445"><ele>41.4</ele><time>2022-04-17T07:38:23.000Z</time></trkpt><trkpt lon="5.45577" lat="51.214514"><ele>41.6</ele><time>2022-04-17T07:38:24.000Z</time></trkpt><trkpt lon="5.455726" lat="51.214573"><ele>41.8</ele><time>2022-04-17T07:38:25.000Z</time></trkpt><trkpt lon="5.455682" lat="51.214631"><ele>41.6</ele><time>2022-04-17T07:38:26.000Z</time></trkpt><trkpt lon="5.455638" lat="51.214693"><ele>41.6</ele><time>2022-04-17T07:38:27.000Z</time></trkpt><trkpt lon="5.455596" lat="51.214751"><ele>41.6</ele><time>2022-04-17T07:38:28.000Z</time></trkpt><trkpt lon="5.455553" lat="51.214811"><ele>41.6</ele><time>2022-04-17T07:38:29.000Z</time></trkpt><trkpt lon="5.455511" lat="51.21487"><ele>41.6</ele><time>2022-04-17T07:38:30.000Z</time></trkpt><trkpt lon="5.455467" lat="51.214929"><ele>41.6</ele><time>2022-04-17T07:38:31.000Z</time></trkpt><trkpt lon="5.455423" lat="51.214983"><ele>41.6</ele><time>2022-04-17T07:38:32.000Z</time></trkpt><trkpt lon="5.455381" lat="51.215035"><ele>41.8</ele><time>2022-04-17T07:38:33.000Z</time></trkpt><trkpt lon="5.455342" lat="51.215091"><ele>41.8</ele><time>2022-04-17T07:38:34.000Z</time></trkpt><trkpt lon="5.455303" lat="51.215143"><ele>41.8</ele><time>2022-04-17T07:38:35.000Z</time></trkpt><trkpt lon="5.455264" lat="51.215193"><ele>42</ele><time>2022-04-17T07:38:36.000Z</time></trkpt><trkpt lon="5.455227" lat="51.215239"><ele>42</ele><time>2022-04-17T07:38:37.000Z</time></trkpt><trkpt lon="5.455201" lat="51.215283"><ele>42</ele><time>2022-04-17T07:38:38.000Z</time></trkpt><trkpt lon="5.455192" lat="51.215323"><ele>42</ele><time>2022-04-17T07:38:39.000Z</time></trkpt><trkpt lon="5.455202" lat="51.21536"><ele>42</ele><time>2022-04-17T07:38:40.000Z</time></trkpt><trkpt lon="5.455234" lat="51.215395"><ele>42</ele><time>2022-04-17T07:38:41.000Z</time></trkpt><trkpt lon="5.455284" lat="51.215428"><ele>42</ele><time>2022-04-17T07:38:42.000Z</time></trkpt><trkpt lon="5.455344" lat="51.215459"><ele>41.8</ele><time>2022-04-17T07:38:43.000Z</time></trkpt><trkpt lon="5.455413" lat="51.215488"><ele>42</ele><time>2022-04-17T07:38:44.000Z</time></trkpt><trkpt lon="5.455487" lat="51.215515"><ele>42</ele><time>2022-04-17T07:38:45.000Z</time></trkpt><trkpt lon="5.455566" lat="51.215543"><ele>41.8</ele><time>2022-04-17T07:38:46.000Z</time></trkpt><trkpt lon="5.455647" lat="51.215573"><ele>41.6</ele><time>2022-04-17T07:38:47.000Z</time></trkpt><trkpt lon="5.455734" lat="51.215605"><ele>41.6</ele><time>2022-04-17T07:38:48.000Z</time></trkpt><trkpt lon="5.455821" lat="51.215638"><ele>41.4</ele><time>2022-04-17T07:38:49.000Z</time></trkpt><trkpt lon="5.455907" lat="51.215668"><ele>41.2</ele><time>2022-04-17T07:38:50.000Z</time></trkpt><trkpt lon="5.455995" lat="51.2157"><ele>41</ele><time>2022-04-17T07:38:51.000Z</time></trkpt><trkpt lon="5.456083" lat="51.215734"><ele>41</ele><time>2022-04-17T07:38:52.000Z</time></trkpt><trkpt lon="5.456174" lat="51.215764"><ele>40.8</ele><time>2022-04-17T07:38:53.000Z</time></trkpt><trkpt lon="5.456269" lat="51.215795"><ele>40.6</ele><time>2022-04-17T07:38:54.000Z</time></trkpt><trkpt lon="5.456366" lat="51.215827"><ele>40.4</ele><time>2022-04-17T07:38:55.000Z</time></trkpt><trkpt lon="5.456462" lat="51.215861"><ele>40.2</ele><time>2022-04-17T07:38:56.000Z</time></trkpt><trkpt lon="5.456562" lat="51.215892"><ele>40</ele><time>2022-04-17T07:38:57.000Z</time></trkpt><trkpt lon="5.456666" lat="51.21592"><ele>39.8</ele><time>2022-04-17T07:38:58.000Z</time></trkpt><trkpt lon="5.456776" lat="51.215952"><ele>39.6</ele><time>2022-04-17T07:38:59.000Z</time></trkpt><trkpt lon="5.456879" lat="51.215985"><ele>39.8</ele><time>2022-04-17T07:39:00.000Z</time></trkpt><trkpt lon="5.456985" lat="51.216016"><ele>40</ele><time>2022-04-17T07:39:01.000Z</time></trkpt><trkpt lon="5.457088" lat="51.216046"><ele>39.8</ele><time>2022-04-17T07:39:02.000Z</time></trkpt><trkpt lon="5.457195" lat="51.216078"><ele>39.8</ele><time>2022-04-17T07:39:03.000Z</time></trkpt><trkpt lon="5.457303" lat="51.216111"><ele>39.6</ele><time>2022-04-17T07:39:04.000Z</time></trkpt><trkpt lon="5.457407" lat="51.216142"><ele>39.4</ele><time>2022-04-17T07:39:05.000Z</time></trkpt><trkpt lon="5.457519" lat="51.216177"><ele>39.2</ele><time>2022-04-17T07:39:06.000Z</time></trkpt><trkpt lon="5.457625" lat="51.216211"><ele>39.2</ele><time>2022-04-17T07:39:07.000Z</time></trkpt><trkpt lon="5.457732" lat="51.216242"><ele>39.2</ele><time>2022-04-17T07:39:08.000Z</time></trkpt><trkpt lon="5.457835" lat="51.216274"><ele>39.2</ele><time>2022-04-17T07:39:09.000Z</time></trkpt><trkpt lon="5.457941" lat="51.216305"><ele>39</ele><time>2022-04-17T07:39:10.000Z</time></trkpt><trkpt lon="5.458053" lat="51.216336"><ele>39</ele><time>2022-04-17T07:39:11.000Z</time></trkpt><trkpt lon="5.458161" lat="51.216368"><ele>39</ele><time>2022-04-17T07:39:12.000Z</time></trkpt><trkpt lon="5.458266" lat="51.216402"><ele>39</ele><time>2022-04-17T07:39:13.000Z</time></trkpt><trkpt lon="5.458372" lat="51.216435"><ele>39.2</ele><time>2022-04-17T07:39:14.000Z</time></trkpt><trkpt lon="5.458476" lat="51.216466"><ele>39.2</ele><time>2022-04-17T07:39:15.000Z</time></trkpt><trkpt lon="5.458585" lat="51.216499"><ele>39.2</ele><time>2022-04-17T07:39:16.000Z</time></trkpt><trkpt lon="5.458694" lat="51.216528"><ele>39.2</ele><time>2022-04-17T07:39:17.000Z</time></trkpt><trkpt lon="5.458801" lat="51.216562"><ele>39.4</ele><time>2022-04-17T07:39:18.000Z</time></trkpt><trkpt lon="5.458909" lat="51.216595"><ele>39.4</ele><time>2022-04-17T07:39:19.000Z</time></trkpt><trkpt lon="5.459017" lat="51.216627"><ele>39.2</ele><time>2022-04-17T07:39:20.000Z</time></trkpt><trkpt lon="5.459125" lat="51.216661"><ele>39.2</ele><time>2022-04-17T07:39:21.000Z</time></trkpt><trkpt lon="5.459232" lat="51.216695"><ele>39</ele><time>2022-04-17T07:39:22.000Z</time></trkpt><trkpt lon="5.459341" lat="51.216726"><ele>38.8</ele><time>2022-04-17T07:39:23.000Z</time></trkpt><trkpt lon="5.459449" lat="51.216759"><ele>38.8</ele><time>2022-04-17T07:39:24.000Z</time></trkpt><trkpt lon="5.459561" lat="51.216789"><ele>38.8</ele><time>2022-04-17T07:39:25.000Z</time></trkpt><trkpt lon="5.459671" lat="51.216817"><ele>38.6</ele><time>2022-04-17T07:39:26.000Z</time></trkpt><trkpt lon="5.459781" lat="51.216851"><ele>38.6</ele><time>2022-04-17T07:39:27.000Z</time></trkpt><trkpt lon="5.459888" lat="51.216882"><ele>38.6</ele><time>2022-04-17T07:39:28.000Z</time></trkpt><trkpt lon="5.459997" lat="51.216916"><ele>38.6</ele><time>2022-04-17T07:39:29.000Z</time></trkpt><trkpt lon="5.460105" lat="51.21695"><ele>38.6</ele><time>2022-04-17T07:39:30.000Z</time></trkpt><trkpt lon="5.460212" lat="51.216982"><ele>38.6</ele><time>2022-04-17T07:39:31.000Z</time></trkpt><trkpt lon="5.460317" lat="51.217016"><ele>38.4</ele><time>2022-04-17T07:39:32.000Z</time></trkpt><trkpt lon="5.46042" lat="51.217049"><ele>38.4</ele><time>2022-04-17T07:39:33.000Z</time></trkpt><trkpt lon="5.460526" lat="51.217082"><ele>38.4</ele><time>2022-04-17T07:39:34.000Z</time></trkpt><trkpt lon="5.460633" lat="51.217112"><ele>38.4</ele><time>2022-04-17T07:39:35.000Z</time></trkpt><trkpt lon="5.460753" lat="51.217145"><ele>38.6</ele><time>2022-04-17T07:39:36.000Z</time></trkpt><trkpt lon="5.460861" lat="51.217177"><ele>38.6</ele><time>2022-04-17T07:39:37.000Z</time></trkpt><trkpt lon="5.460969" lat="51.21721"><ele>38.4</ele><time>2022-04-17T07:39:38.000Z</time></trkpt><trkpt lon="5.461074" lat="51.217241"><ele>38.4</ele><time>2022-04-17T07:39:39.000Z</time></trkpt><trkpt lon="5.46118" lat="51.217273"><ele>38.4</ele><time>2022-04-17T07:39:40.000Z</time></trkpt><trkpt lon="5.46129" lat="51.217306"><ele>38.2</ele><time>2022-04-17T07:39:41.000Z</time></trkpt><trkpt lon="5.461395" lat="51.21734"><ele>38.2</ele><time>2022-04-17T07:39:42.000Z</time></trkpt><trkpt lon="5.4615" lat="51.217374"><ele>38.4</ele><time>2022-04-17T07:39:43.000Z</time></trkpt><trkpt lon="5.461604" lat="51.217407"><ele>38.4</ele><time>2022-04-17T07:39:44.000Z</time></trkpt><trkpt lon="5.46171" lat="51.217438"><ele>38.2</ele><time>2022-04-17T07:39:45.000Z</time></trkpt><trkpt lon="5.461815" lat="51.21747"><ele>38</ele><time>2022-04-17T07:39:46.000Z</time></trkpt><trkpt lon="5.461914" lat="51.217503"><ele>38</ele><time>2022-04-17T07:39:47.000Z</time></trkpt><trkpt lon="5.462011" lat="51.217533"><ele>38.2</ele><time>2022-04-17T07:39:48.000Z</time></trkpt><trkpt lon="5.462114" lat="51.217564"><ele>38.2</ele><time>2022-04-17T07:39:49.000Z</time></trkpt><trkpt lon="5.462212" lat="51.217595"><ele>38.2</ele><time>2022-04-17T07:39:50.000Z</time></trkpt><trkpt lon="5.462314" lat="51.217629"><ele>38.2</ele><time>2022-04-17T07:39:51.000Z</time></trkpt><trkpt lon="5.462413" lat="51.217658"><ele>38</ele><time>2022-04-17T07:39:52.000Z</time></trkpt><trkpt lon="5.462513" lat="51.217689"><ele>38</ele><time>2022-04-17T07:39:53.000Z</time></trkpt><trkpt lon="5.462619" lat="51.217724"><ele>38.2</ele><time>2022-04-17T07:39:54.000Z</time></trkpt><trkpt lon="5.462719" lat="51.217755"><ele>38.2</ele><time>2022-04-17T07:39:55.000Z</time></trkpt><trkpt lon="5.46282" lat="51.217785"><ele>38.4</ele><time>2022-04-17T07:39:56.000Z</time></trkpt><trkpt lon="5.462919" lat="51.217816"><ele>38.6</ele><time>2022-04-17T07:39:57.000Z</time></trkpt><trkpt lon="5.463018" lat="51.217846"><ele>38.8</ele><time>2022-04-17T07:39:58.000Z</time></trkpt><trkpt lon="5.463119" lat="51.217877"><ele>38.8</ele><time>2022-04-17T07:39:59.000Z</time></trkpt><trkpt lon="5.463219" lat="51.217907"><ele>39</ele><time>2022-04-17T07:40:00.000Z</time></trkpt><trkpt lon="5.46332" lat="51.217938"><ele>39</ele><time>2022-04-17T07:40:01.000Z</time></trkpt><trkpt lon="5.46342" lat="51.217968"><ele>39.2</ele><time>2022-04-17T07:40:02.000Z</time></trkpt><trkpt lon="5.463522" lat="51.218"><ele>39.4</ele><time>2022-04-17T07:40:03.000Z</time></trkpt><trkpt lon="5.463625" lat="51.218032"><ele>39.4</ele><time>2022-04-17T07:40:04.000Z</time></trkpt><trkpt lon="5.463725" lat="51.21806"><ele>39.4</ele><time>2022-04-17T07:40:05.000Z</time></trkpt><trkpt lon="5.463827" lat="51.218092"><ele>39.4</ele><time>2022-04-17T07:40:06.000Z</time></trkpt><trkpt lon="5.463924" lat="51.218125"><ele>39.4</ele><time>2022-04-17T07:40:07.000Z</time></trkpt><trkpt lon="5.464022" lat="51.218156"><ele>39.4</ele><time>2022-04-17T07:40:08.000Z</time></trkpt><trkpt lon="5.464121" lat="51.218186"><ele>39.4</ele><time>2022-04-17T07:40:09.000Z</time></trkpt><trkpt lon="5.46422" lat="51.218217"><ele>39.6</ele><time>2022-04-17T07:40:10.000Z</time></trkpt><trkpt lon="5.464323" lat="51.21825"><ele>39.6</ele><time>2022-04-17T07:40:11.000Z</time></trkpt><trkpt lon="5.464422" lat="51.218281"><ele>39.8</ele><time>2022-04-17T07:40:12.000Z</time></trkpt><trkpt lon="5.464519" lat="51.218311"><ele>39.8</ele><time>2022-04-17T07:40:13.000Z</time></trkpt><trkpt lon="5.464617" lat="51.218343"><ele>39.8</ele><time>2022-04-17T07:40:14.000Z</time></trkpt><trkpt lon="5.464715" lat="51.218375"><ele>39.8</ele><time>2022-04-17T07:40:15.000Z</time></trkpt><trkpt lon="5.464817" lat="51.218404"><ele>40</ele><time>2022-04-17T07:40:16.000Z</time></trkpt><trkpt lon="5.464916" lat="51.218434"><ele>40</ele><time>2022-04-17T07:40:17.000Z</time></trkpt><trkpt lon="5.465017" lat="51.218464"><ele>40</ele><time>2022-04-17T07:40:18.000Z</time></trkpt><trkpt lon="5.465119" lat="51.218494"><ele>40</ele><time>2022-04-17T07:40:19.000Z</time></trkpt><trkpt lon="5.465219" lat="51.218525"><ele>40.2</ele><time>2022-04-17T07:40:20.000Z</time></trkpt><trkpt lon="5.465327" lat="51.218559"><ele>40.2</ele><time>2022-04-17T07:40:21.000Z</time></trkpt><trkpt lon="5.465431" lat="51.21859"><ele>40.2</ele><time>2022-04-17T07:40:22.000Z</time></trkpt><trkpt lon="5.465532" lat="51.218621"><ele>40.2</ele><time>2022-04-17T07:40:23.000Z</time></trkpt><trkpt lon="5.465633" lat="51.21865"><ele>40.2</ele><time>2022-04-17T07:40:24.000Z</time></trkpt><trkpt lon="5.465733" lat="51.218678"><ele>40.2</ele><time>2022-04-17T07:40:25.000Z</time></trkpt><trkpt lon="5.465834" lat="51.21871"><ele>40.2</ele><time>2022-04-17T07:40:26.000Z</time></trkpt><trkpt lon="5.465933" lat="51.218743"><ele>40</ele><time>2022-04-17T07:40:27.000Z</time></trkpt><trkpt lon="5.466029" lat="51.218772"><ele>39.8</ele><time>2022-04-17T07:40:28.000Z</time></trkpt><trkpt lon="5.466125" lat="51.2188"><ele>39.6</ele><time>2022-04-17T07:40:29.000Z</time></trkpt><trkpt lon="5.466222" lat="51.218831"><ele>39.4</ele><time>2022-04-17T07:40:30.000Z</time></trkpt><trkpt lon="5.46632" lat="51.218861"><ele>39.4</ele><time>2022-04-17T07:40:31.000Z</time></trkpt><trkpt lon="5.466419" lat="51.21889"><ele>39.4</ele><time>2022-04-17T07:40:32.000Z</time></trkpt><trkpt lon="5.466518" lat="51.218919"><ele>39.4</ele><time>2022-04-17T07:40:33.000Z</time></trkpt><trkpt lon="5.466618" lat="51.21895"><ele>39.4</ele><time>2022-04-17T07:40:34.000Z</time></trkpt><trkpt lon="5.466722" lat="51.21898"><ele>39.4</ele><time>2022-04-17T07:40:35.000Z</time></trkpt><trkpt lon="5.466823" lat="51.219012"><ele>39.6</ele><time>2022-04-17T07:40:36.000Z</time></trkpt><trkpt lon="5.466922" lat="51.219045"><ele>39.6</ele><time>2022-04-17T07:40:37.000Z</time></trkpt><trkpt lon="5.467021" lat="51.219075"><ele>39.6</ele><time>2022-04-17T07:40:38.000Z</time></trkpt><trkpt lon="5.467119" lat="51.219103"><ele>39.6</ele><time>2022-04-17T07:40:39.000Z</time></trkpt><trkpt lon="5.467219" lat="51.219131"><ele>39.6</ele><time>2022-04-17T07:40:40.000Z</time></trkpt><trkpt lon="5.467321" lat="51.219159"><ele>39.4</ele><time>2022-04-17T07:40:41.000Z</time></trkpt><trkpt lon="5.467422" lat="51.21919"><ele>39.4</ele><time>2022-04-17T07:40:42.000Z</time></trkpt><trkpt lon="5.467524" lat="51.21922"><ele>39.2</ele><time>2022-04-17T07:40:43.000Z</time></trkpt><trkpt lon="5.467625" lat="51.219251"><ele>39.2</ele><time>2022-04-17T07:40:44.000Z</time></trkpt><trkpt lon="5.467726" lat="51.219281"><ele>39</ele><time>2022-04-17T07:40:45.000Z</time></trkpt><trkpt lon="5.467827" lat="51.219312"><ele>39</ele><time>2022-04-17T07:40:46.000Z</time></trkpt><trkpt lon="5.467925" lat="51.219342"><ele>39</ele><time>2022-04-17T07:40:47.000Z</time></trkpt><trkpt lon="5.468024" lat="51.219373"><ele>39</ele><time>2022-04-17T07:40:48.000Z</time></trkpt><trkpt lon="5.468124" lat="51.219402"><ele>39</ele><time>2022-04-17T07:40:49.000Z</time></trkpt><trkpt lon="5.468225" lat="51.21943"><ele>39.2</ele><time>2022-04-17T07:40:50.000Z</time></trkpt><trkpt lon="5.468325" lat="51.219461"><ele>39.2</ele><time>2022-04-17T07:40:51.000Z</time></trkpt><trkpt lon="5.468424" lat="51.219492"><ele>39.2</ele><time>2022-04-17T07:40:52.000Z</time></trkpt><trkpt lon="5.468524" lat="51.219524"><ele>39.2</ele><time>2022-04-17T07:40:53.000Z</time></trkpt><trkpt lon="5.468623" lat="51.219557"><ele>39.4</ele><time>2022-04-17T07:40:54.000Z</time></trkpt><trkpt lon="5.468717" lat="51.219594"><ele>39.4</ele><time>2022-04-17T07:40:55.000Z</time></trkpt><trkpt lon="5.468803" lat="51.219638"><ele>39.4</ele><time>2022-04-17T07:40:56.000Z</time></trkpt><trkpt lon="5.46888" lat="51.219689"><ele>39.6</ele><time>2022-04-17T07:40:57.000Z</time></trkpt><trkpt lon="5.468948" lat="51.219748"><ele>39.4</ele><time>2022-04-17T07:40:58.000Z</time></trkpt><trkpt lon="5.46901" lat="51.219809"><ele>39.4</ele><time>2022-04-17T07:40:59.000Z</time></trkpt><trkpt lon="5.46907" lat="51.21987"><ele>39.6</ele><time>2022-04-17T07:41:00.000Z</time></trkpt><trkpt lon="5.469128" lat="51.219931"><ele>39.6</ele><time>2022-04-17T07:41:01.000Z</time></trkpt><trkpt lon="5.469184" lat="51.219992"><ele>39.8</ele><time>2022-04-17T07:41:02.000Z</time></trkpt><trkpt lon="5.469241" lat="51.220053"><ele>39.8</ele><time>2022-04-17T07:41:03.000Z</time></trkpt><trkpt lon="5.469296" lat="51.220114"><ele>39.8</ele><time>2022-04-17T07:41:04.000Z</time></trkpt><trkpt lon="5.469351" lat="51.220176"><ele>39.8</ele><time>2022-04-17T07:41:05.000Z</time></trkpt><trkpt lon="5.469407" lat="51.220237"><ele>39.6</ele><time>2022-04-17T07:41:06.000Z</time></trkpt><trkpt lon="5.469463" lat="51.220299"><ele>39.6</ele><time>2022-04-17T07:41:07.000Z</time></trkpt><trkpt lon="5.469517" lat="51.220364"><ele>39.6</ele><time>2022-04-17T07:41:08.000Z</time></trkpt><trkpt lon="5.469568" lat="51.220428"><ele>39.8</ele><time>2022-04-17T07:41:09.000Z</time></trkpt><trkpt lon="5.469618" lat="51.220493"><ele>39.8</ele><time>2022-04-17T07:41:10.000Z</time></trkpt><trkpt lon="5.469664" lat="51.220558"><ele>39.8</ele><time>2022-04-17T07:41:11.000Z</time></trkpt><trkpt lon="5.469705" lat="51.220623"><ele>39.8</ele><time>2022-04-17T07:41:12.000Z</time></trkpt><trkpt lon="5.469747" lat="51.220691"><ele>39.8</ele><time>2022-04-17T07:41:13.000Z</time></trkpt><trkpt lon="5.469787" lat="51.220757"><ele>39.8</ele><time>2022-04-17T07:41:14.000Z</time></trkpt><trkpt lon="5.469828" lat="51.220825"><ele>39.8</ele><time>2022-04-17T07:41:15.000Z</time></trkpt><trkpt lon="5.469866" lat="51.220894"><ele>39.6</ele><time>2022-04-17T07:41:16.000Z</time></trkpt><trkpt lon="5.469904" lat="51.22096"><ele>39.6</ele><time>2022-04-17T07:41:17.000Z</time></trkpt><trkpt lon="5.469943" lat="51.221027"><ele>39.6</ele><time>2022-04-17T07:41:18.000Z</time></trkpt><trkpt lon="5.469981" lat="51.221092"><ele>39.6</ele><time>2022-04-17T07:41:19.000Z</time></trkpt><trkpt lon="5.47002" lat="51.221157"><ele>39.6</ele><time>2022-04-17T07:41:20.000Z</time></trkpt><trkpt lon="5.470057" lat="51.221222"><ele>39.4</ele><time>2022-04-17T07:41:21.000Z</time></trkpt><trkpt lon="5.470095" lat="51.221285"><ele>39.4</ele><time>2022-04-17T07:41:22.000Z</time></trkpt><trkpt lon="5.470134" lat="51.221347"><ele>39.4</ele><time>2022-04-17T07:41:23.000Z</time></trkpt><trkpt lon="5.470172" lat="51.221412"><ele>39.4</ele><time>2022-04-17T07:41:24.000Z</time></trkpt><trkpt lon="5.470212" lat="51.221477"><ele>39.4</ele><time>2022-04-17T07:41:25.000Z</time></trkpt><trkpt lon="5.470252" lat="51.221543"><ele>39.4</ele><time>2022-04-17T07:41:26.000Z</time></trkpt><trkpt lon="5.470293" lat="51.221612"><ele>39.4</ele><time>2022-04-17T07:41:27.000Z</time></trkpt><trkpt lon="5.470333" lat="51.221684"><ele>39.4</ele><time>2022-04-17T07:41:28.000Z</time></trkpt><trkpt lon="5.470375" lat="51.221752"><ele>39.4</ele><time>2022-04-17T07:41:29.000Z</time></trkpt><trkpt lon="5.470417" lat="51.221821"><ele>39.2</ele><time>2022-04-17T07:41:30.000Z</time></trkpt><trkpt lon="5.470461" lat="51.22189"><ele>39.2</ele><time>2022-04-17T07:41:31.000Z</time></trkpt><trkpt lon="5.470505" lat="51.221957"><ele>39</ele><time>2022-04-17T07:41:32.000Z</time></trkpt><trkpt lon="5.47055" lat="51.222019"><ele>39</ele><time>2022-04-17T07:41:33.000Z</time></trkpt><trkpt lon="5.470594" lat="51.222087"><ele>39</ele><time>2022-04-17T07:41:34.000Z</time></trkpt><trkpt lon="5.470636" lat="51.222153"><ele>39.2</ele><time>2022-04-17T07:41:35.000Z</time></trkpt><trkpt lon="5.470678" lat="51.222223"><ele>39.2</ele><time>2022-04-17T07:41:36.000Z</time></trkpt><trkpt lon="5.470723" lat="51.22229"><ele>39.2</ele><time>2022-04-17T07:41:37.000Z</time></trkpt><trkpt lon="5.470772" lat="51.222354"><ele>39.2</ele><time>2022-04-17T07:41:38.000Z</time></trkpt><trkpt lon="5.470826" lat="51.222413"><ele>39.2</ele><time>2022-04-17T07:41:39.000Z</time></trkpt><trkpt lon="5.470889" lat="51.222473"><ele>39.2</ele><time>2022-04-17T07:41:40.000Z</time></trkpt><trkpt lon="5.47096" lat="51.222529"><ele>39.2</ele><time>2022-04-17T07:41:41.000Z</time></trkpt><trkpt lon="5.471037" lat="51.222576"><ele>39.2</ele><time>2022-04-17T07:41:42.000Z</time></trkpt><trkpt lon="5.471128" lat="51.222618"><ele>39.2</ele><time>2022-04-17T07:41:43.000Z</time></trkpt><trkpt lon="5.471227" lat="51.222654"><ele>39.2</ele><time>2022-04-17T07:41:44.000Z</time></trkpt><trkpt lon="5.471331" lat="51.222682"><ele>39.2</ele><time>2022-04-17T07:41:45.000Z</time></trkpt><trkpt lon="5.471441" lat="51.222706"><ele>39</ele><time>2022-04-17T07:41:46.000Z</time></trkpt><trkpt lon="5.47155" lat="51.222731"><ele>39</ele><time>2022-04-17T07:41:47.000Z</time></trkpt><trkpt lon="5.471663" lat="51.222753"><ele>39</ele><time>2022-04-17T07:41:48.000Z</time></trkpt><trkpt lon="5.471778" lat="51.222771"><ele>39</ele><time>2022-04-17T07:41:49.000Z</time></trkpt><trkpt lon="5.471892" lat="51.222785"><ele>39</ele><time>2022-04-17T07:41:50.000Z</time></trkpt><trkpt lon="5.472006" lat="51.222797"><ele>39</ele><time>2022-04-17T07:41:51.000Z</time></trkpt><trkpt lon="5.47212" lat="51.222808"><ele>39.2</ele><time>2022-04-17T07:41:52.000Z</time></trkpt><trkpt lon="5.472232" lat="51.22282"><ele>39.2</ele><time>2022-04-17T07:41:53.000Z</time></trkpt><trkpt lon="5.472343" lat="51.22283"><ele>39.2</ele><time>2022-04-17T07:41:54.000Z</time></trkpt><trkpt lon="5.472453" lat="51.222837"><ele>39.2</ele><time>2022-04-17T07:41:55.000Z</time></trkpt><trkpt lon="5.472563" lat="51.22284"><ele>39.2</ele><time>2022-04-17T07:41:56.000Z</time></trkpt><trkpt lon="5.472676" lat="51.222843"><ele>39.2</ele><time>2022-04-17T07:41:57.000Z</time></trkpt><trkpt lon="5.472788" lat="51.222844"><ele>39.4</ele><time>2022-04-17T07:41:58.000Z</time></trkpt><trkpt lon="5.472898" lat="51.222848"><ele>39.4</ele><time>2022-04-17T07:41:59.000Z</time></trkpt><trkpt lon="5.473008" lat="51.222852"><ele>39.4</ele><time>2022-04-17T07:42:00.000Z</time></trkpt><trkpt lon="5.473117" lat="51.222856"><ele>39.2</ele><time>2022-04-17T07:42:01.000Z</time></trkpt><trkpt lon="5.473225" lat="51.222858"><ele>39.2</ele><time>2022-04-17T07:42:02.000Z</time></trkpt><trkpt lon="5.473334" lat="51.22286"><ele>39.2</ele><time>2022-04-17T07:42:03.000Z</time></trkpt><trkpt lon="5.473444" lat="51.222863"><ele>39</ele><time>2022-04-17T07:42:04.000Z</time></trkpt><trkpt lon="5.473554" lat="51.222867"><ele>39</ele><time>2022-04-17T07:42:05.000Z</time></trkpt><trkpt lon="5.473665" lat="51.222871"><ele>39</ele><time>2022-04-17T07:42:06.000Z</time></trkpt><trkpt lon="5.473776" lat="51.222875"><ele>39</ele><time>2022-04-17T07:42:07.000Z</time></trkpt><trkpt lon="5.473887" lat="51.222879"><ele>38.8</ele><time>2022-04-17T07:42:08.000Z</time></trkpt><trkpt lon="5.473994" lat="51.222882"><ele>38.6</ele><time>2022-04-17T07:42:09.000Z</time></trkpt><trkpt lon="5.474106" lat="51.222886"><ele>38.8</ele><time>2022-04-17T07:42:10.000Z</time></trkpt><trkpt lon="5.474215" lat="51.22289"><ele>38.8</ele><time>2022-04-17T07:42:11.000Z</time></trkpt><trkpt lon="5.474321" lat="51.222894"><ele>39</ele><time>2022-04-17T07:42:12.000Z</time></trkpt><trkpt lon="5.474428" lat="51.222897"><ele>39</ele><time>2022-04-17T07:42:13.000Z</time></trkpt><trkpt lon="5.474538" lat="51.222898"><ele>39</ele><time>2022-04-17T07:42:14.000Z</time></trkpt><trkpt lon="5.474648" lat="51.2229"><ele>39</ele><time>2022-04-17T07:42:15.000Z</time></trkpt><trkpt lon="5.474757" lat="51.222902"><ele>39.2</ele><time>2022-04-17T07:42:16.000Z</time></trkpt><trkpt lon="5.474866" lat="51.222905"><ele>39.2</ele><time>2022-04-17T07:42:17.000Z</time></trkpt><trkpt lon="5.474974" lat="51.222909"><ele>39.2</ele><time>2022-04-17T07:42:18.000Z</time></trkpt><trkpt lon="5.475085" lat="51.222913"><ele>39</ele><time>2022-04-17T07:42:19.000Z</time></trkpt><trkpt lon="5.475191" lat="51.222916"><ele>39</ele><time>2022-04-17T07:42:20.000Z</time></trkpt><trkpt lon="5.475298" lat="51.222917"><ele>39</ele><time>2022-04-17T07:42:21.000Z</time></trkpt><trkpt lon="5.475402" lat="51.222921"><ele>39</ele><time>2022-04-17T07:42:22.000Z</time></trkpt><trkpt lon="5.475505" lat="51.222924"><ele>39</ele><time>2022-04-17T07:42:23.000Z</time></trkpt><trkpt lon="5.475607" lat="51.222929"><ele>39</ele><time>2022-04-17T07:42:24.000Z</time></trkpt><trkpt lon="5.475713" lat="51.222936"><ele>39</ele><time>2022-04-17T07:42:25.000Z</time></trkpt><trkpt lon="5.475822" lat="51.222942"><ele>39</ele><time>2022-04-17T07:42:26.000Z</time></trkpt><trkpt lon="5.475932" lat="51.222953"><ele>39</ele><time>2022-04-17T07:42:27.000Z</time></trkpt><trkpt lon="5.476046" lat="51.222965"><ele>38.8</ele><time>2022-04-17T07:42:28.000Z</time></trkpt><trkpt lon="5.476159" lat="51.222975"><ele>38.8</ele><time>2022-04-17T07:42:29.000Z</time></trkpt><trkpt lon="5.476273" lat="51.222985"><ele>38.6</ele><time>2022-04-17T07:42:30.000Z</time></trkpt><trkpt lon="5.476385" lat="51.222998"><ele>38.6</ele><time>2022-04-17T07:42:31.000Z</time></trkpt><trkpt lon="5.476497" lat="51.223007"><ele>38.4</ele><time>2022-04-17T07:42:32.000Z</time></trkpt><trkpt lon="5.476605" lat="51.223019"><ele>38.6</ele><time>2022-04-17T07:42:33.000Z</time></trkpt><trkpt lon="5.476715" lat="51.223035"><ele>38.4</ele><time>2022-04-17T07:42:34.000Z</time></trkpt><trkpt lon="5.476822" lat="51.22305"><ele>38.6</ele><time>2022-04-17T07:42:35.000Z</time></trkpt><trkpt lon="5.476929" lat="51.223066"><ele>38.6</ele><time>2022-04-17T07:42:36.000Z</time></trkpt><trkpt lon="5.477034" lat="51.223084"><ele>38.8</ele><time>2022-04-17T07:42:37.000Z</time></trkpt><trkpt lon="5.477139" lat="51.223099"><ele>38.8</ele><time>2022-04-17T07:42:38.000Z</time></trkpt><trkpt lon="5.477246" lat="51.223113"><ele>38.8</ele><time>2022-04-17T07:42:39.000Z</time></trkpt><trkpt lon="5.477355" lat="51.223124"><ele>38.8</ele><time>2022-04-17T07:42:40.000Z</time></trkpt><trkpt lon="5.477464" lat="51.22313"><ele>38.8</ele><time>2022-04-17T07:42:41.000Z</time></trkpt><trkpt lon="5.477572" lat="51.223134"><ele>38.6</ele><time>2022-04-17T07:42:42.000Z</time></trkpt><trkpt lon="5.477683" lat="51.223137"><ele>38.6</ele><time>2022-04-17T07:42:43.000Z</time></trkpt><trkpt lon="5.477791" lat="51.223137"><ele>38.8</ele><time>2022-04-17T07:42:44.000Z</time></trkpt><trkpt lon="5.477898" lat="51.223136"><ele>38.8</ele><time>2022-04-17T07:42:45.000Z</time></trkpt><trkpt lon="5.478005" lat="51.223134"><ele>38.6</ele><time>2022-04-17T07:42:46.000Z</time></trkpt><trkpt lon="5.478112" lat="51.223137"><ele>38.4</ele><time>2022-04-17T07:42:47.000Z</time></trkpt><trkpt lon="5.478219" lat="51.223139"><ele>38.4</ele><time>2022-04-17T07:42:48.000Z</time></trkpt><trkpt lon="5.478325" lat="51.223146"><ele>38.6</ele><time>2022-04-17T07:42:49.000Z</time></trkpt><trkpt lon="5.478434" lat="51.223149"><ele>38.6</ele><time>2022-04-17T07:42:50.000Z</time></trkpt><trkpt lon="5.47854" lat="51.223154"><ele>38.6</ele><time>2022-04-17T07:42:51.000Z</time></trkpt><trkpt lon="5.478647" lat="51.223163"><ele>38.4</ele><time>2022-04-17T07:42:52.000Z</time></trkpt><trkpt lon="5.47875" lat="51.223175"><ele>38.4</ele><time>2022-04-17T07:42:53.000Z</time></trkpt><trkpt lon="5.478857" lat="51.223194"><ele>38.6</ele><time>2022-04-17T07:42:54.000Z</time></trkpt><trkpt lon="5.478952" lat="51.223224"><ele>38.6</ele><time>2022-04-17T07:42:55.000Z</time></trkpt><trkpt lon="5.47904" lat="51.223264"><ele>38.6</ele><time>2022-04-17T07:42:56.000Z</time></trkpt><trkpt lon="5.479115" lat="51.223312"><ele>38.6</ele><time>2022-04-17T07:42:57.000Z</time></trkpt><trkpt lon="5.479174" lat="51.223367"><ele>38.6</ele><time>2022-04-17T07:42:58.000Z</time></trkpt><trkpt lon="5.479232" lat="51.223429"><ele>38.6</ele><time>2022-04-17T07:42:59.000Z</time></trkpt><trkpt lon="5.479288" lat="51.22349"><ele>38.4</ele><time>2022-04-17T07:43:00.000Z</time></trkpt><trkpt lon="5.479342" lat="51.223552"><ele>38.6</ele><time>2022-04-17T07:43:01.000Z</time></trkpt><trkpt lon="5.479392" lat="51.223618"><ele>38.6</ele><time>2022-04-17T07:43:02.000Z</time></trkpt><trkpt lon="5.479438" lat="51.223683"><ele>38.4</ele><time>2022-04-17T07:43:03.000Z</time></trkpt><trkpt lon="5.479482" lat="51.223749"><ele>38.4</ele><time>2022-04-17T07:43:04.000Z</time></trkpt><trkpt lon="5.479523" lat="51.223818"><ele>38.4</ele><time>2022-04-17T07:43:05.000Z</time></trkpt><trkpt lon="5.479563" lat="51.22389"><ele>38.6</ele><time>2022-04-17T07:43:06.000Z</time></trkpt><trkpt lon="5.479596" lat="51.223958"><ele>38.6</ele><time>2022-04-17T07:43:07.000Z</time></trkpt><trkpt lon="5.479627" lat="51.224027"><ele>38.6</ele><time>2022-04-17T07:43:08.000Z</time></trkpt><trkpt lon="5.479654" lat="51.224095"><ele>38.6</ele><time>2022-04-17T07:43:09.000Z</time></trkpt><trkpt lon="5.479681" lat="51.224162"><ele>38.4</ele><time>2022-04-17T07:43:10.000Z</time></trkpt><trkpt lon="5.479707" lat="51.224229"><ele>38.6</ele><time>2022-04-17T07:43:11.000Z</time></trkpt><trkpt lon="5.479731" lat="51.224298"><ele>38.6</ele><time>2022-04-17T07:43:12.000Z</time></trkpt><trkpt lon="5.479749" lat="51.224366"><ele>38.6</ele><time>2022-04-17T07:43:13.000Z</time></trkpt><trkpt lon="5.479761" lat="51.224434"><ele>38.6</ele><time>2022-04-17T07:43:14.000Z</time></trkpt><trkpt lon="5.479767" lat="51.224504"><ele>38.6</ele><time>2022-04-17T07:43:15.000Z</time></trkpt><trkpt lon="5.479767" lat="51.224577"><ele>38.6</ele><time>2022-04-17T07:43:16.000Z</time></trkpt><trkpt lon="5.479764" lat="51.224648"><ele>38.6</ele><time>2022-04-17T07:43:17.000Z</time></trkpt><trkpt lon="5.479758" lat="51.224718"><ele>38.6</ele><time>2022-04-17T07:43:18.000Z</time></trkpt><trkpt lon="5.479749" lat="51.224789"><ele>38.6</ele><time>2022-04-17T07:43:19.000Z</time></trkpt><trkpt lon="5.479741" lat="51.224858"><ele>38.4</ele><time>2022-04-17T07:43:20.000Z</time></trkpt><trkpt lon="5.479731" lat="51.224929"><ele>38.4</ele><time>2022-04-17T07:43:21.000Z</time></trkpt><trkpt lon="5.479722" lat="51.225004"><ele>38.4</ele><time>2022-04-17T07:43:22.000Z</time></trkpt><trkpt lon="5.479716" lat="51.225077"><ele>38.4</ele><time>2022-04-17T07:43:23.000Z</time></trkpt><trkpt lon="5.479714" lat="51.22515"><ele>38.4</ele><time>2022-04-17T07:43:24.000Z</time></trkpt><trkpt lon="5.479721" lat="51.225225"><ele>38.4</ele><time>2022-04-17T07:43:25.000Z</time></trkpt><trkpt lon="5.479739" lat="51.225297"><ele>38.4</ele><time>2022-04-17T07:43:26.000Z</time></trkpt><trkpt lon="5.479766" lat="51.225364"><ele>38.4</ele><time>2022-04-17T07:43:27.000Z</time></trkpt><trkpt lon="5.479799" lat="51.225428"><ele>38.4</ele><time>2022-04-17T07:43:28.000Z</time></trkpt><trkpt lon="5.479839" lat="51.225493"><ele>38.4</ele><time>2022-04-17T07:43:29.000Z</time></trkpt><trkpt lon="5.479882" lat="51.225554"><ele>38.2</ele><time>2022-04-17T07:43:30.000Z</time></trkpt><trkpt lon="5.479928" lat="51.225615"><ele>38.2</ele><time>2022-04-17T07:43:31.000Z</time></trkpt><trkpt lon="5.479971" lat="51.225675"><ele>38.2</ele><time>2022-04-17T07:43:32.000Z</time></trkpt><trkpt lon="5.480015" lat="51.225734"><ele>38.2</ele><time>2022-04-17T07:43:33.000Z</time></trkpt><trkpt lon="5.480062" lat="51.225794"><ele>38.2</ele><time>2022-04-17T07:43:34.000Z</time></trkpt><trkpt lon="5.480111" lat="51.225855"><ele>38.2</ele><time>2022-04-17T07:43:35.000Z</time></trkpt><trkpt lon="5.480159" lat="51.225912"><ele>38.2</ele><time>2022-04-17T07:43:36.000Z</time></trkpt><trkpt lon="5.480205" lat="51.225969"><ele>38</ele><time>2022-04-17T07:43:37.000Z</time></trkpt><trkpt lon="5.480249" lat="51.226026"><ele>38</ele><time>2022-04-17T07:43:38.000Z</time></trkpt><trkpt lon="5.480292" lat="51.226085"><ele>38</ele><time>2022-04-17T07:43:39.000Z</time></trkpt><trkpt lon="5.480332" lat="51.22615"><ele>38</ele><time>2022-04-17T07:43:40.000Z</time></trkpt><trkpt lon="5.480373" lat="51.226216"><ele>38</ele><time>2022-04-17T07:43:41.000Z</time></trkpt><trkpt lon="5.480414" lat="51.226283"><ele>38</ele><time>2022-04-17T07:43:42.000Z</time></trkpt><trkpt lon="5.480457" lat="51.226345"><ele>38</ele><time>2022-04-17T07:43:43.000Z</time></trkpt><trkpt lon="5.480498" lat="51.226413"><ele>37.8</ele><time>2022-04-17T07:43:44.000Z</time></trkpt><trkpt lon="5.48054" lat="51.226482"><ele>37.8</ele><time>2022-04-17T07:43:45.000Z</time></trkpt><trkpt lon="5.480582" lat="51.226546"><ele>37.8</ele><time>2022-04-17T07:43:46.000Z</time></trkpt><trkpt lon="5.480623" lat="51.226608"><ele>37.8</ele><time>2022-04-17T07:43:47.000Z</time></trkpt><trkpt lon="5.480658" lat="51.226676"><ele>37.8</ele><time>2022-04-17T07:43:48.000Z</time></trkpt><trkpt lon="5.480695" lat="51.226745"><ele>37.6</ele><time>2022-04-17T07:43:49.000Z</time></trkpt><trkpt lon="5.480743" lat="51.226804"><ele>37.6</ele><time>2022-04-17T07:43:50.000Z</time></trkpt><trkpt lon="5.480795" lat="51.226862"><ele>37.4</ele><time>2022-04-17T07:43:51.000Z</time></trkpt><trkpt lon="5.480847" lat="51.226921"><ele>37.4</ele><time>2022-04-17T07:43:52.000Z</time></trkpt><trkpt lon="5.4809" lat="51.226975"><ele>37.4</ele><time>2022-04-17T07:43:53.000Z</time></trkpt><trkpt lon="5.480956" lat="51.227029"><ele>37.4</ele><time>2022-04-17T07:43:54.000Z</time></trkpt><trkpt lon="5.481011" lat="51.227084"><ele>37.4</ele><time>2022-04-17T07:43:55.000Z</time></trkpt><trkpt lon="5.481062" lat="51.227133"><ele>37.4</ele><time>2022-04-17T07:43:56.000Z</time></trkpt><trkpt lon="5.481112" lat="51.227183"><ele>37.4</ele><time>2022-04-17T07:43:57.000Z</time></trkpt><trkpt lon="5.481161" lat="51.22723"><ele>37.4</ele><time>2022-04-17T07:43:58.000Z</time></trkpt><trkpt lon="5.481209" lat="51.227274"><ele>37.6</ele><time>2022-04-17T07:43:59.000Z</time></trkpt><trkpt lon="5.481257" lat="51.227316"><ele>37.6</ele><time>2022-04-17T07:44:00.000Z</time></trkpt><trkpt lon="5.481306" lat="51.227347"><ele>37.6</ele><time>2022-04-17T07:44:01.000Z</time></trkpt><trkpt lon="5.481364" lat="51.227368"><ele>37.6</ele><time>2022-04-17T07:44:02.000Z</time></trkpt><trkpt lon="5.481429" lat="51.227379"><ele>37.6</ele><time>2022-04-17T07:44:03.000Z</time></trkpt><trkpt lon="5.481497" lat="51.227377"><ele>37.4</ele><time>2022-04-17T07:44:04.000Z</time></trkpt><trkpt lon="5.481564" lat="51.227365"><ele>37.4</ele><time>2022-04-17T07:44:05.000Z</time></trkpt><trkpt lon="5.481637" lat="51.227341"><ele>37.4</ele><time>2022-04-17T07:44:06.000Z</time></trkpt><trkpt lon="5.481711" lat="51.227311"><ele>37.4</ele><time>2022-04-17T07:44:07.000Z</time></trkpt><trkpt lon="5.481781" lat="51.227276"><ele>37.6</ele><time>2022-04-17T07:44:08.000Z</time></trkpt><trkpt lon="5.481846" lat="51.227238"><ele>37.6</ele><time>2022-04-17T07:44:09.000Z</time></trkpt><trkpt lon="5.481913" lat="51.227203"><ele>37.6</ele><time>2022-04-17T07:44:10.000Z</time></trkpt><trkpt lon="5.481984" lat="51.227181"><ele>37.8</ele><time>2022-04-17T07:44:11.000Z</time></trkpt><trkpt lon="5.482059" lat="51.227175"><ele>37.8</ele><time>2022-04-17T07:44:12.000Z</time></trkpt><trkpt lon="5.482132" lat="51.227188"><ele>38</ele><time>2022-04-17T07:44:13.000Z</time></trkpt><trkpt lon="5.482195" lat="51.227219"><ele>38.2</ele><time>2022-04-17T07:44:14.000Z</time></trkpt><trkpt lon="5.482255" lat="51.227264"><ele>38.4</ele><time>2022-04-17T07:44:15.000Z</time></trkpt><trkpt lon="5.482311" lat="51.227318"><ele>38.4</ele><time>2022-04-17T07:44:16.000Z</time></trkpt><trkpt lon="5.482368" lat="51.227376"><ele>38.6</ele><time>2022-04-17T07:44:17.000Z</time></trkpt><trkpt lon="5.482425" lat="51.227434"><ele>38.8</ele><time>2022-04-17T07:44:18.000Z</time></trkpt><trkpt lon="5.482481" lat="51.227491"><ele>39</ele><time>2022-04-17T07:44:19.000Z</time></trkpt><trkpt lon="5.482537" lat="51.227547"><ele>39.2</ele><time>2022-04-17T07:44:20.000Z</time></trkpt><trkpt lon="5.482591" lat="51.227599"><ele>39.4</ele><time>2022-04-17T07:44:21.000Z</time></trkpt><trkpt lon="5.482643" lat="51.227652"><ele>39.8</ele><time>2022-04-17T07:44:22.000Z</time></trkpt><trkpt lon="5.482692" lat="51.227701"><ele>40</ele><time>2022-04-17T07:44:23.000Z</time></trkpt><trkpt lon="5.482737" lat="51.227747"><ele>40.2</ele><time>2022-04-17T07:44:24.000Z</time></trkpt><trkpt lon="5.482779" lat="51.227796"><ele>40.6</ele><time>2022-04-17T07:44:25.000Z</time></trkpt><trkpt lon="5.482817" lat="51.227845"><ele>40.8</ele><time>2022-04-17T07:44:26.000Z</time></trkpt><trkpt lon="5.482854" lat="51.227891"><ele>41.2</ele><time>2022-04-17T07:44:27.000Z</time></trkpt><trkpt lon="5.482888" lat="51.227937"><ele>41.4</ele><time>2022-04-17T07:44:28.000Z</time></trkpt><trkpt lon="5.48292" lat="51.227984"><ele>41.8</ele><time>2022-04-17T07:44:29.000Z</time></trkpt><trkpt lon="5.48295" lat="51.228033"><ele>42.2</ele><time>2022-04-17T07:44:30.000Z</time></trkpt><trkpt lon="5.48298" lat="51.228079"><ele>42.6</ele><time>2022-04-17T07:44:31.000Z</time></trkpt><trkpt lon="5.483009" lat="51.228126"><ele>43</ele><time>2022-04-17T07:44:32.000Z</time></trkpt><trkpt lon="5.483033" lat="51.228174"><ele>43.6</ele><time>2022-04-17T07:44:33.000Z</time></trkpt><trkpt lon="5.483054" lat="51.228221"><ele>43.8</ele><time>2022-04-17T07:44:34.000Z</time></trkpt><trkpt lon="5.483075" lat="51.228269"><ele>44.2</ele><time>2022-04-17T07:44:35.000Z</time></trkpt><trkpt lon="5.483096" lat="51.228316"><ele>44.6</ele><time>2022-04-17T07:44:36.000Z</time></trkpt><trkpt lon="5.483118" lat="51.228361"><ele>45</ele><time>2022-04-17T07:44:37.000Z</time></trkpt><trkpt lon="5.483137" lat="51.228407"><ele>45.4</ele><time>2022-04-17T07:44:38.000Z</time></trkpt><trkpt lon="5.483155" lat="51.228452"><ele>45.6</ele><time>2022-04-17T07:44:39.000Z</time></trkpt><trkpt lon="5.483174" lat="51.228498"><ele>46</ele><time>2022-04-17T07:44:40.000Z</time></trkpt><trkpt lon="5.483193" lat="51.228545"><ele>46.2</ele><time>2022-04-17T07:44:41.000Z</time></trkpt><trkpt lon="5.483213" lat="51.228595"><ele>46.6</ele><time>2022-04-17T07:44:42.000Z</time></trkpt><trkpt lon="5.483232" lat="51.228645"><ele>46.8</ele><time>2022-04-17T07:44:43.000Z</time></trkpt><trkpt lon="5.483248" lat="51.228698"><ele>47.2</ele><time>2022-04-17T07:44:44.000Z</time></trkpt><trkpt lon="5.483264" lat="51.228748"><ele>47.4</ele><time>2022-04-17T07:44:45.000Z</time></trkpt><trkpt lon="5.48328" lat="51.228801"><ele>47.6</ele><time>2022-04-17T07:44:46.000Z</time></trkpt><trkpt lon="5.483299" lat="51.228852"><ele>47.8</ele><time>2022-04-17T07:44:47.000Z</time></trkpt><trkpt lon="5.483322" lat="51.228908"><ele>48</ele><time>2022-04-17T07:44:48.000Z</time></trkpt><trkpt lon="5.483346" lat="51.228962"><ele>48.2</ele><time>2022-04-17T07:44:49.000Z</time></trkpt><trkpt lon="5.483367" lat="51.229015"><ele>48.4</ele><time>2022-04-17T07:44:50.000Z</time></trkpt><trkpt lon="5.483388" lat="51.229073"><ele>48.4</ele><time>2022-04-17T07:44:51.000Z</time></trkpt><trkpt lon="5.483408" lat="51.229129"><ele>48.4</ele><time>2022-04-17T07:44:52.000Z</time></trkpt><trkpt lon="5.483429" lat="51.229187"><ele>48.4</ele><time>2022-04-17T07:44:53.000Z</time></trkpt><trkpt lon="5.483451" lat="51.229246"><ele>48.4</ele><time>2022-04-17T07:44:54.000Z</time></trkpt><trkpt lon="5.483471" lat="51.229303"><ele>48.2</ele><time>2022-04-17T07:44:55.000Z</time></trkpt><trkpt lon="5.483491" lat="51.22936"><ele>48.2</ele><time>2022-04-17T07:44:56.000Z</time></trkpt><trkpt lon="5.483511" lat="51.229418"><ele>48.2</ele><time>2022-04-17T07:44:57.000Z</time></trkpt><trkpt lon="5.483533" lat="51.229478"><ele>48.2</ele><time>2022-04-17T07:44:58.000Z</time></trkpt><trkpt lon="5.483557" lat="51.229536"><ele>48.2</ele><time>2022-04-17T07:44:59.000Z</time></trkpt><trkpt lon="5.483582" lat="51.229597"><ele>48.2</ele><time>2022-04-17T07:45:00.000Z</time></trkpt><trkpt lon="5.483605" lat="51.229655"><ele>48.2</ele><time>2022-04-17T07:45:01.000Z</time></trkpt><trkpt lon="5.483628" lat="51.229715"><ele>48.2</ele><time>2022-04-17T07:45:02.000Z</time></trkpt><trkpt lon="5.483652" lat="51.229772"><ele>48.2</ele><time>2022-04-17T07:45:03.000Z</time></trkpt><trkpt lon="5.483675" lat="51.22983"><ele>48</ele><time>2022-04-17T07:45:04.000Z</time></trkpt><trkpt lon="5.483699" lat="51.229891"><ele>47.8</ele><time>2022-04-17T07:45:05.000Z</time></trkpt><trkpt lon="5.483726" lat="51.229953"><ele>47.8</ele><time>2022-04-17T07:45:06.000Z</time></trkpt><trkpt lon="5.483753" lat="51.230016"><ele>47.6</ele><time>2022-04-17T07:45:07.000Z</time></trkpt><trkpt lon="5.48378" lat="51.230085"><ele>47.4</ele><time>2022-04-17T07:45:08.000Z</time></trkpt><trkpt lon="5.483807" lat="51.230153"><ele>47</ele><time>2022-04-17T07:45:09.000Z</time></trkpt><trkpt lon="5.483834" lat="51.230222"><ele>46.6</ele><time>2022-04-17T07:45:10.000Z</time></trkpt><trkpt lon="5.483863" lat="51.230296"><ele>46.4</ele><time>2022-04-17T07:45:11.000Z</time></trkpt><trkpt lon="5.483892" lat="51.230373"><ele>46</ele><time>2022-04-17T07:45:12.000Z</time></trkpt><trkpt lon="5.483922" lat="51.230448"><ele>45.6</ele><time>2022-04-17T07:45:13.000Z</time></trkpt><trkpt lon="5.483952" lat="51.230526"><ele>45.2</ele><time>2022-04-17T07:45:14.000Z</time></trkpt><trkpt lon="5.483981" lat="51.230607"><ele>44.6</ele><time>2022-04-17T07:45:15.000Z</time></trkpt><trkpt lon="5.484013" lat="51.230687"><ele>44.2</ele><time>2022-04-17T07:45:16.000Z</time></trkpt><trkpt lon="5.484047" lat="51.230772"><ele>43.8</ele><time>2022-04-17T07:45:17.000Z</time></trkpt><trkpt lon="5.484083" lat="51.230861"><ele>43.2</ele><time>2022-04-17T07:45:18.000Z</time></trkpt><trkpt lon="5.484121" lat="51.23095"><ele>42.8</ele><time>2022-04-17T07:45:19.000Z</time></trkpt><trkpt lon="5.484153" lat="51.231043"><ele>42.4</ele><time>2022-04-17T07:45:20.000Z</time></trkpt><trkpt lon="5.484183" lat="51.231131"><ele>42.2</ele><time>2022-04-17T07:45:21.000Z</time></trkpt><trkpt lon="5.484203" lat="51.231222"><ele>41.8</ele><time>2022-04-17T07:45:22.000Z</time></trkpt><trkpt lon="5.484216" lat="51.231317"><ele>41.2</ele><time>2022-04-17T07:45:23.000Z</time></trkpt><trkpt lon="5.484221" lat="51.231422"><ele>40.8</ele><time>2022-04-17T07:45:24.000Z</time></trkpt><trkpt lon="5.484214" lat="51.231523"><ele>40.2</ele><time>2022-04-17T07:45:25.000Z</time></trkpt><trkpt lon="5.484203" lat="51.231619"><ele>39.6</ele><time>2022-04-17T07:45:26.000Z</time></trkpt><trkpt lon="5.484186" lat="51.231719"><ele>39.2</ele><time>2022-04-17T07:45:27.000Z</time></trkpt><trkpt lon="5.48416" lat="51.231819"><ele>38.6</ele><time>2022-04-17T07:45:28.000Z</time></trkpt><trkpt lon="5.484127" lat="51.231919"><ele>38.2</ele><time>2022-04-17T07:45:29.000Z</time></trkpt><trkpt lon="5.48409" lat="51.232015"><ele>38</ele><time>2022-04-17T07:45:30.000Z</time></trkpt><trkpt lon="5.484047" lat="51.232113"><ele>37.8</ele><time>2022-04-17T07:45:31.000Z</time></trkpt><trkpt lon="5.484005" lat="51.232203"><ele>37.8</ele><time>2022-04-17T07:45:32.000Z</time></trkpt><trkpt lon="5.483958" lat="51.232288"><ele>37.6</ele><time>2022-04-17T07:45:33.000Z</time></trkpt><trkpt lon="5.483904" lat="51.232374"><ele>37.4</ele><time>2022-04-17T07:45:34.000Z</time></trkpt><trkpt lon="5.483851" lat="51.23245"><ele>37.2</ele><time>2022-04-17T07:45:35.000Z</time></trkpt><trkpt lon="5.483792" lat="51.23253"><ele>37.2</ele><time>2022-04-17T07:45:36.000Z</time></trkpt><trkpt lon="5.483735" lat="51.232599"><ele>37.2</ele><time>2022-04-17T07:45:37.000Z</time></trkpt><trkpt lon="5.483683" lat="51.232667"><ele>37.2</ele><time>2022-04-17T07:45:38.000Z</time></trkpt><trkpt lon="5.483638" lat="51.232736"><ele>37</ele><time>2022-04-17T07:45:39.000Z</time></trkpt><trkpt lon="5.48359" lat="51.232804"><ele>37</ele><time>2022-04-17T07:45:40.000Z</time></trkpt><trkpt lon="5.483535" lat="51.232872"><ele>36.8</ele><time>2022-04-17T07:45:41.000Z</time></trkpt><trkpt lon="5.483474" lat="51.23294"><ele>36.8</ele><time>2022-04-17T07:45:42.000Z</time></trkpt><trkpt lon="5.483415" lat="51.233006"><ele>36.8</ele><time>2022-04-17T07:45:43.000Z</time></trkpt><trkpt lon="5.483356" lat="51.233073"><ele>36.6</ele><time>2022-04-17T07:45:44.000Z</time></trkpt><trkpt lon="5.483295" lat="51.233139"><ele>36.6</ele><time>2022-04-17T07:45:45.000Z</time></trkpt><trkpt lon="5.48324" lat="51.233204"><ele>36.6</ele><time>2022-04-17T07:45:46.000Z</time></trkpt><trkpt lon="5.483193" lat="51.233273"><ele>36.6</ele><time>2022-04-17T07:45:47.000Z</time></trkpt><trkpt lon="5.483152" lat="51.233346"><ele>36.6</ele><time>2022-04-17T07:45:48.000Z</time></trkpt><trkpt lon="5.483115" lat="51.233414"><ele>36.6</ele><time>2022-04-17T07:45:49.000Z</time></trkpt><trkpt lon="5.483079" lat="51.233484"><ele>36.6</ele><time>2022-04-17T07:45:50.000Z</time></trkpt><trkpt lon="5.483046" lat="51.233557"><ele>36.6</ele><time>2022-04-17T07:45:51.000Z</time></trkpt><trkpt lon="5.483015" lat="51.233629"><ele>36.4</ele><time>2022-04-17T07:45:52.000Z</time></trkpt><trkpt lon="5.482987" lat="51.233702"><ele>36.2</ele><time>2022-04-17T07:45:53.000Z</time></trkpt><trkpt lon="5.482959" lat="51.233775"><ele>36</ele><time>2022-04-17T07:45:54.000Z</time></trkpt><trkpt lon="5.482934" lat="51.233849"><ele>36.2</ele><time>2022-04-17T07:45:55.000Z</time></trkpt><trkpt lon="5.482913" lat="51.233921"><ele>36.4</ele><time>2022-04-17T07:45:56.000Z</time></trkpt><trkpt lon="5.482893" lat="51.233995"><ele>36.4</ele><time>2022-04-17T07:45:57.000Z</time></trkpt><trkpt lon="5.482878" lat="51.234068"><ele>36.2</ele><time>2022-04-17T07:45:58.000Z</time></trkpt><trkpt lon="5.482867" lat="51.234141"><ele>36</ele><time>2022-04-17T07:45:59.000Z</time></trkpt><trkpt lon="5.482855" lat="51.234213"><ele>36</ele><time>2022-04-17T07:46:00.000Z</time></trkpt><trkpt lon="5.482843" lat="51.234285"><ele>36</ele><time>2022-04-17T07:46:01.000Z</time></trkpt><trkpt lon="5.482832" lat="51.234357"><ele>36</ele><time>2022-04-17T07:46:02.000Z</time></trkpt><trkpt lon="5.482822" lat="51.23443"><ele>36</ele><time>2022-04-17T07:46:03.000Z</time></trkpt><trkpt lon="5.482812" lat="51.234501"><ele>36</ele><time>2022-04-17T07:46:04.000Z</time></trkpt><trkpt lon="5.482803" lat="51.23457"><ele>36.2</ele><time>2022-04-17T07:46:05.000Z</time></trkpt><trkpt lon="5.482794" lat="51.23464"><ele>36.2</ele><time>2022-04-17T07:46:06.000Z</time></trkpt><trkpt lon="5.482784" lat="51.234708"><ele>36.4</ele><time>2022-04-17T07:46:07.000Z</time></trkpt><trkpt lon="5.482776" lat="51.234776"><ele>36.4</ele><time>2022-04-17T07:46:08.000Z</time></trkpt><trkpt lon="5.482766" lat="51.23484"><ele>36.4</ele><time>2022-04-17T07:46:09.000Z</time></trkpt><trkpt lon="5.482758" lat="51.234903"><ele>36.2</ele><time>2022-04-17T07:46:10.000Z</time></trkpt><trkpt lon="5.482749" lat="51.23496"><ele>36.2</ele><time>2022-04-17T07:46:11.000Z</time></trkpt><trkpt lon="5.482741" lat="51.235016"><ele>36.2</ele><time>2022-04-17T07:46:12.000Z</time></trkpt><trkpt lon="5.482731" lat="51.235071"><ele>36.2</ele><time>2022-04-17T07:46:13.000Z</time></trkpt><trkpt lon="5.482723" lat="51.235125"><ele>36</ele><time>2022-04-17T07:46:14.000Z</time></trkpt><trkpt lon="5.482718" lat="51.235176"><ele>36.2</ele><time>2022-04-17T07:46:15.000Z</time></trkpt><trkpt lon="5.482729" lat="51.235229"><ele>36.2</ele><time>2022-04-17T07:46:16.000Z</time></trkpt><trkpt lon="5.482769" lat="51.235277"><ele>36</ele><time>2022-04-17T07:46:17.000Z</time></trkpt><trkpt lon="5.482835" lat="51.235322"><ele>36</ele><time>2022-04-17T07:46:18.000Z</time></trkpt><trkpt lon="5.482909" lat="51.235363"><ele>36</ele><time>2022-04-17T07:46:19.000Z</time></trkpt><trkpt lon="5.482992" lat="51.235406"><ele>36</ele><time>2022-04-17T07:46:20.000Z</time></trkpt><trkpt lon="5.483083" lat="51.235451"><ele>36</ele><time>2022-04-17T07:46:21.000Z</time></trkpt><trkpt lon="5.483175" lat="51.235494"><ele>36</ele><time>2022-04-17T07:46:22.000Z</time></trkpt><trkpt lon="5.483268" lat="51.235539"><ele>36</ele><time>2022-04-17T07:46:23.000Z</time></trkpt><trkpt lon="5.48336" lat="51.235582"><ele>36</ele><time>2022-04-17T07:46:24.000Z</time></trkpt><trkpt lon="5.483452" lat="51.235627"><ele>36</ele><time>2022-04-17T07:46:25.000Z</time></trkpt><trkpt lon="5.483544" lat="51.23567"><ele>36</ele><time>2022-04-17T07:46:26.000Z</time></trkpt><trkpt lon="5.483635" lat="51.235716"><ele>36</ele><time>2022-04-17T07:46:27.000Z</time></trkpt><trkpt lon="5.483727" lat="51.235761"><ele>36</ele><time>2022-04-17T07:46:28.000Z</time></trkpt><trkpt lon="5.483818" lat="51.235804"><ele>35.8</ele><time>2022-04-17T07:46:29.000Z</time></trkpt><trkpt lon="5.483908" lat="51.23585"><ele>36</ele><time>2022-04-17T07:46:30.000Z</time></trkpt><trkpt lon="5.483998" lat="51.235894"><ele>36</ele><time>2022-04-17T07:46:31.000Z</time></trkpt><trkpt lon="5.484087" lat="51.235937"><ele>36</ele><time>2022-04-17T07:46:32.000Z</time></trkpt><trkpt lon="5.484174" lat="51.235983"><ele>36</ele><time>2022-04-17T07:46:33.000Z</time></trkpt><trkpt lon="5.484259" lat="51.236026"><ele>36</ele><time>2022-04-17T07:46:34.000Z</time></trkpt><trkpt lon="5.484345" lat="51.236068"><ele>36</ele><time>2022-04-17T07:46:35.000Z</time></trkpt><trkpt lon="5.48444" lat="51.236117"><ele>35.6</ele><time>2022-04-17T07:46:36.000Z</time></trkpt><trkpt lon="5.484528" lat="51.236164"><ele>35.6</ele><time>2022-04-17T07:46:37.000Z</time></trkpt><trkpt lon="5.484614" lat="51.236212"><ele>35.8</ele><time>2022-04-17T07:46:38.000Z</time></trkpt><trkpt lon="5.484699" lat="51.236258"><ele>35.8</ele><time>2022-04-17T07:46:39.000Z</time></trkpt><trkpt lon="5.484785" lat="51.236309"><ele>35.6</ele><time>2022-04-17T07:46:40.000Z</time></trkpt><trkpt lon="5.484869" lat="51.236362"><ele>35.6</ele><time>2022-04-17T07:46:41.000Z</time></trkpt><trkpt lon="5.484951" lat="51.236412"><ele>35.6</ele><time>2022-04-17T07:46:42.000Z</time></trkpt><trkpt lon="5.485034" lat="51.236464"><ele>35.6</ele><time>2022-04-17T07:46:43.000Z</time></trkpt><trkpt lon="5.485119" lat="51.236514"><ele>35.6</ele><time>2022-04-17T07:46:44.000Z</time></trkpt><trkpt lon="5.485204" lat="51.236563"><ele>35.4</ele><time>2022-04-17T07:46:45.000Z</time></trkpt><trkpt lon="5.485289" lat="51.23661"><ele>35.2</ele><time>2022-04-17T07:46:46.000Z</time></trkpt><trkpt lon="5.48537" lat="51.23666"><ele>35</ele><time>2022-04-17T07:46:47.000Z</time></trkpt><trkpt lon="5.485451" lat="51.236713"><ele>35</ele><time>2022-04-17T07:46:48.000Z</time></trkpt><trkpt lon="5.485535" lat="51.23676"><ele>35</ele><time>2022-04-17T07:46:49.000Z</time></trkpt><trkpt lon="5.48562" lat="51.236803"><ele>35.2</ele><time>2022-04-17T07:46:50.000Z</time></trkpt><trkpt lon="5.485704" lat="51.236849"><ele>35.4</ele><time>2022-04-17T07:46:51.000Z</time></trkpt><trkpt lon="5.485785" lat="51.236895"><ele>35.6</ele><time>2022-04-17T07:46:52.000Z</time></trkpt><trkpt lon="5.485868" lat="51.236942"><ele>35.6</ele><time>2022-04-17T07:46:53.000Z</time></trkpt><trkpt lon="5.485951" lat="51.23699"><ele>35.6</ele><time>2022-04-17T07:46:54.000Z</time></trkpt><trkpt lon="5.486033" lat="51.237037"><ele>35.4</ele><time>2022-04-17T07:46:55.000Z</time></trkpt><trkpt lon="5.486113" lat="51.237086"><ele>35.2</ele><time>2022-04-17T07:46:56.000Z</time></trkpt><trkpt lon="5.486191" lat="51.237136"><ele>35.2</ele><time>2022-04-17T07:46:57.000Z</time></trkpt><trkpt lon="5.486267" lat="51.237187"><ele>35.2</ele><time>2022-04-17T07:46:58.000Z</time></trkpt><trkpt lon="5.486334" lat="51.23724"><ele>35.2</ele><time>2022-04-17T07:46:59.000Z</time></trkpt><trkpt lon="5.486394" lat="51.2373"><ele>35.4</ele><time>2022-04-17T07:47:00.000Z</time></trkpt><trkpt lon="5.486445" lat="51.237366"><ele>35.4</ele><time>2022-04-17T07:47:01.000Z</time></trkpt><trkpt lon="5.48649" lat="51.23743"><ele>35.4</ele><time>2022-04-17T07:47:02.000Z</time></trkpt><trkpt lon="5.486529" lat="51.237496"><ele>35.4</ele><time>2022-04-17T07:47:03.000Z</time></trkpt><trkpt lon="5.486561" lat="51.23756"><ele>35.4</ele><time>2022-04-17T07:47:04.000Z</time></trkpt><trkpt lon="5.48659" lat="51.237618"><ele>35.6</ele><time>2022-04-17T07:47:05.000Z</time></trkpt><trkpt lon="5.486624" lat="51.23769"><ele>35.6</ele><time>2022-04-17T07:47:06.000Z</time></trkpt><trkpt lon="5.486654" lat="51.237756"><ele>35.6</ele><time>2022-04-17T07:47:07.000Z</time></trkpt><trkpt lon="5.486684" lat="51.237824"><ele>35.6</ele><time>2022-04-17T07:47:08.000Z</time></trkpt><trkpt lon="5.486713" lat="51.237893"><ele>35.6</ele><time>2022-04-17T07:47:09.000Z</time></trkpt><trkpt lon="5.486742" lat="51.237961"><ele>35.4</ele><time>2022-04-17T07:47:10.000Z</time></trkpt><trkpt lon="5.486772" lat="51.238032"><ele>35.4</ele><time>2022-04-17T07:47:11.000Z</time></trkpt><trkpt lon="5.486802" lat="51.238105"><ele>35.6</ele><time>2022-04-17T07:47:12.000Z</time></trkpt><trkpt lon="5.48683" lat="51.238179"><ele>35.6</ele><time>2022-04-17T07:47:13.000Z</time></trkpt><trkpt lon="5.486861" lat="51.238252"><ele>35.4</ele><time>2022-04-17T07:47:14.000Z</time></trkpt><trkpt lon="5.486893" lat="51.238325"><ele>35.4</ele><time>2022-04-17T07:47:15.000Z</time></trkpt><trkpt lon="5.486928" lat="51.238396"><ele>35.4</ele><time>2022-04-17T07:47:16.000Z</time></trkpt><trkpt lon="5.486959" lat="51.238466"><ele>35.4</ele><time>2022-04-17T07:47:17.000Z</time></trkpt><trkpt lon="5.486991" lat="51.238539"><ele>35.2</ele><time>2022-04-17T07:47:18.000Z</time></trkpt><trkpt lon="5.48702" lat="51.23861"><ele>35</ele><time>2022-04-17T07:47:19.000Z</time></trkpt><trkpt lon="5.48705" lat="51.238678"><ele>35</ele><time>2022-04-17T07:47:20.000Z</time></trkpt><trkpt lon="5.48708" lat="51.238749"><ele>35</ele><time>2022-04-17T07:47:21.000Z</time></trkpt><trkpt lon="5.487111" lat="51.238818"><ele>35.2</ele><time>2022-04-17T07:47:22.000Z</time></trkpt><trkpt lon="5.487143" lat="51.238885"><ele>35</ele><time>2022-04-17T07:47:23.000Z</time></trkpt><trkpt lon="5.487176" lat="51.238957"><ele>35.2</ele><time>2022-04-17T07:47:24.000Z</time></trkpt><trkpt lon="5.487207" lat="51.239026"><ele>35.2</ele><time>2022-04-17T07:47:25.000Z</time></trkpt><trkpt lon="5.487237" lat="51.239098"><ele>35</ele><time>2022-04-17T07:47:26.000Z</time></trkpt><trkpt lon="5.487267" lat="51.239168"><ele>35</ele><time>2022-04-17T07:47:27.000Z</time></trkpt><trkpt lon="5.487298" lat="51.23924"><ele>35</ele><time>2022-04-17T07:47:28.000Z</time></trkpt><trkpt lon="5.487328" lat="51.239312"><ele>35</ele><time>2022-04-17T07:47:29.000Z</time></trkpt><trkpt lon="5.487359" lat="51.239385"><ele>34.8</ele><time>2022-04-17T07:47:30.000Z</time></trkpt><trkpt lon="5.48739" lat="51.239453"><ele>34.8</ele><time>2022-04-17T07:47:31.000Z</time></trkpt><trkpt lon="5.48742" lat="51.239523"><ele>34.6</ele><time>2022-04-17T07:47:32.000Z</time></trkpt><trkpt lon="5.48745" lat="51.239594"><ele>34.6</ele><time>2022-04-17T07:47:33.000Z</time></trkpt><trkpt lon="5.487479" lat="51.239662"><ele>34.6</ele><time>2022-04-17T07:47:34.000Z</time></trkpt><trkpt lon="5.487508" lat="51.239732"><ele>34.6</ele><time>2022-04-17T07:47:35.000Z</time></trkpt><trkpt lon="5.487538" lat="51.239805"><ele>34.6</ele><time>2022-04-17T07:47:36.000Z</time></trkpt><trkpt lon="5.487567" lat="51.239876"><ele>34.4</ele><time>2022-04-17T07:47:37.000Z</time></trkpt><trkpt lon="5.487598" lat="51.239944"><ele>34.6</ele><time>2022-04-17T07:47:38.000Z</time></trkpt><trkpt lon="5.487629" lat="51.240014"><ele>34.6</ele><time>2022-04-17T07:47:39.000Z</time></trkpt><trkpt lon="5.487658" lat="51.240083"><ele>34.6</ele><time>2022-04-17T07:47:40.000Z</time></trkpt><trkpt lon="5.487687" lat="51.240151"><ele>34.6</ele><time>2022-04-17T07:47:41.000Z</time></trkpt><trkpt lon="5.487717" lat="51.240219"><ele>34.6</ele><time>2022-04-17T07:47:42.000Z</time></trkpt><trkpt lon="5.487747" lat="51.240288"><ele>34.4</ele><time>2022-04-17T07:47:43.000Z</time></trkpt><trkpt lon="5.487779" lat="51.240357"><ele>34.4</ele><time>2022-04-17T07:47:44.000Z</time></trkpt><trkpt lon="5.487809" lat="51.240426"><ele>34.4</ele><time>2022-04-17T07:47:45.000Z</time></trkpt><trkpt lon="5.487838" lat="51.240495"><ele>34.6</ele><time>2022-04-17T07:47:46.000Z</time></trkpt><trkpt lon="5.487865" lat="51.240562"><ele>34.6</ele><time>2022-04-17T07:47:47.000Z</time></trkpt><trkpt lon="5.487893" lat="51.240628"><ele>34.4</ele><time>2022-04-17T07:47:48.000Z</time></trkpt><trkpt lon="5.487921" lat="51.2407"><ele>34.6</ele><time>2022-04-17T07:47:49.000Z</time></trkpt><trkpt lon="5.487952" lat="51.240769"><ele>34.6</ele><time>2022-04-17T07:47:50.000Z</time></trkpt><trkpt lon="5.487982" lat="51.240838"><ele>34.6</ele><time>2022-04-17T07:47:51.000Z</time></trkpt><trkpt lon="5.488012" lat="51.240905"><ele>34.4</ele><time>2022-04-17T07:47:52.000Z</time></trkpt><trkpt lon="5.488041" lat="51.240971"><ele>34.4</ele><time>2022-04-17T07:47:53.000Z</time></trkpt><trkpt lon="5.48807" lat="51.24104"><ele>34.4</ele><time>2022-04-17T07:47:54.000Z</time></trkpt><trkpt lon="5.488098" lat="51.241108"><ele>34.2</ele><time>2022-04-17T07:47:55.000Z</time></trkpt><trkpt lon="5.488127" lat="51.241177"><ele>34.2</ele><time>2022-04-17T07:47:56.000Z</time></trkpt><trkpt lon="5.488154" lat="51.241249"><ele>34</ele><time>2022-04-17T07:47:57.000Z</time></trkpt><trkpt lon="5.488177" lat="51.24132"><ele>34</ele><time>2022-04-17T07:47:58.000Z</time></trkpt><trkpt lon="5.488196" lat="51.241392"><ele>34</ele><time>2022-04-17T07:47:59.000Z</time></trkpt><trkpt lon="5.488212" lat="51.241465"><ele>34</ele><time>2022-04-17T07:48:00.000Z</time></trkpt><trkpt lon="5.488223" lat="51.241537"><ele>34</ele><time>2022-04-17T07:48:01.000Z</time></trkpt><trkpt lon="5.48823" lat="51.24161"><ele>34.2</ele><time>2022-04-17T07:48:02.000Z</time></trkpt><trkpt lon="5.488235" lat="51.241681"><ele>34.2</ele><time>2022-04-17T07:48:03.000Z</time></trkpt><trkpt lon="5.488233" lat="51.241747"><ele>34.2</ele><time>2022-04-17T07:48:04.000Z</time></trkpt><trkpt lon="5.488225" lat="51.241809"><ele>34.2</ele><time>2022-04-17T07:48:05.000Z</time></trkpt><trkpt lon="5.488213" lat="51.241887"><ele>34.2</ele><time>2022-04-17T07:48:06.000Z</time></trkpt><trkpt lon="5.4882" lat="51.241956"><ele>34.4</ele><time>2022-04-17T07:48:07.000Z</time></trkpt><trkpt lon="5.488187" lat="51.242022"><ele>34.4</ele><time>2022-04-17T07:48:08.000Z</time></trkpt><trkpt lon="5.488175" lat="51.242084"><ele>34.4</ele><time>2022-04-17T07:48:09.000Z</time></trkpt><trkpt lon="5.488163" lat="51.242149"><ele>34.4</ele><time>2022-04-17T07:48:10.000Z</time></trkpt><trkpt lon="5.488152" lat="51.242212"><ele>34.2</ele><time>2022-04-17T07:48:11.000Z</time></trkpt><trkpt lon="5.488143" lat="51.24227"><ele>34.2</ele><time>2022-04-17T07:48:12.000Z</time></trkpt><trkpt lon="5.488134" lat="51.242328"><ele>34.4</ele><time>2022-04-17T07:48:13.000Z</time></trkpt><trkpt lon="5.488124" lat="51.242383"><ele>34.4</ele><time>2022-04-17T07:48:14.000Z</time></trkpt><trkpt lon="5.488114" lat="51.242439"><ele>34.6</ele><time>2022-04-17T07:48:15.000Z</time></trkpt><trkpt lon="5.488105" lat="51.242491"><ele>34.6</ele><time>2022-04-17T07:48:16.000Z</time></trkpt><trkpt lon="5.488098" lat="51.242536"><ele>34.8</ele><time>2022-04-17T07:48:17.000Z</time></trkpt><trkpt lon="5.488092" lat="51.24258"><ele>35</ele><time>2022-04-17T07:48:18.000Z</time></trkpt><trkpt lon="5.488086" lat="51.242614"><ele>35</ele><time>2022-04-17T07:48:19.000Z</time></trkpt><trkpt lon="5.488084" lat="51.242634"><ele>35.2</ele><time>2022-04-17T07:48:20.000Z</time></trkpt><trkpt lon="5.488082" lat="51.24265"><ele>35.2</ele><time>2022-04-17T07:48:21.000Z</time></trkpt><trkpt lon="5.488079" lat="51.242666"><ele>35.2</ele><time>2022-04-17T07:48:22.000Z</time></trkpt><trkpt lon="5.488072" lat="51.242688"><ele>35.4</ele><time>2022-04-17T07:48:23.000Z</time></trkpt><trkpt lon="5.488065" lat="51.24272"><ele>35.4</ele><time>2022-04-17T07:48:24.000Z</time></trkpt><trkpt lon="5.488057" lat="51.242756"><ele>35.4</ele><time>2022-04-17T07:48:25.000Z</time></trkpt><trkpt lon="5.488045" lat="51.242802"><ele>35.4</ele><time>2022-04-17T07:48:26.000Z</time></trkpt><trkpt lon="5.488031" lat="51.242856"><ele>35.2</ele><time>2022-04-17T07:48:27.000Z</time></trkpt><trkpt lon="5.488019" lat="51.242914"><ele>35.2</ele><time>2022-04-17T07:48:28.000Z</time></trkpt><trkpt lon="5.488012" lat="51.242976"><ele>35.2</ele><time>2022-04-17T07:48:29.000Z</time></trkpt><trkpt lon="5.488011" lat="51.243042"><ele>35.2</ele><time>2022-04-17T07:48:30.000Z</time></trkpt><trkpt lon="5.488016" lat="51.243108"><ele>35</ele><time>2022-04-17T07:48:31.000Z</time></trkpt><trkpt lon="5.488019" lat="51.243174"><ele>34.8</ele><time>2022-04-17T07:48:32.000Z</time></trkpt><trkpt lon="5.488022" lat="51.243236"><ele>34.6</ele><time>2022-04-17T07:48:33.000Z</time></trkpt><trkpt lon="5.488028" lat="51.243304"><ele>34.6</ele><time>2022-04-17T07:48:34.000Z</time></trkpt><trkpt lon="5.488034" lat="51.243367"><ele>34.8</ele><time>2022-04-17T07:48:35.000Z</time></trkpt><trkpt lon="5.488041" lat="51.243444"><ele>34.8</ele><time>2022-04-17T07:48:36.000Z</time></trkpt><trkpt lon="5.488052" lat="51.243513"><ele>34.8</ele><time>2022-04-17T07:48:37.000Z</time></trkpt><trkpt lon="5.488061" lat="51.243582"><ele>34.8</ele><time>2022-04-17T07:48:38.000Z</time></trkpt><trkpt lon="5.488069" lat="51.243654"><ele>34.6</ele><time>2022-04-17T07:48:39.000Z</time></trkpt><trkpt lon="5.488077" lat="51.243727"><ele>34.4</ele><time>2022-04-17T07:48:40.000Z</time></trkpt><trkpt lon="5.488085" lat="51.2438"><ele>34.4</ele><time>2022-04-17T07:48:41.000Z</time></trkpt><trkpt lon="5.488092" lat="51.243874"><ele>34.2</ele><time>2022-04-17T07:48:42.000Z</time></trkpt><trkpt lon="5.4881" lat="51.243948"><ele>34.2</ele><time>2022-04-17T07:48:43.000Z</time></trkpt><trkpt lon="5.488107" lat="51.244022"><ele>34.2</ele><time>2022-04-17T07:48:44.000Z</time></trkpt><trkpt lon="5.488113" lat="51.244097"><ele>34.2</ele><time>2022-04-17T07:48:45.000Z</time></trkpt><trkpt lon="5.488119" lat="51.24417"><ele>34.2</ele><time>2022-04-17T07:48:46.000Z</time></trkpt><trkpt lon="5.488126" lat="51.244247"><ele>34.4</ele><time>2022-04-17T07:48:47.000Z</time></trkpt><trkpt lon="5.488135" lat="51.244322"><ele>34.4</ele><time>2022-04-17T07:48:48.000Z</time></trkpt><trkpt lon="5.488144" lat="51.244395"><ele>34.4</ele><time>2022-04-17T07:48:49.000Z</time></trkpt><trkpt lon="5.488153" lat="51.244471"><ele>34.4</ele><time>2022-04-17T07:48:50.000Z</time></trkpt><trkpt lon="5.48816" lat="51.244549"><ele>34.4</ele><time>2022-04-17T07:48:51.000Z</time></trkpt><trkpt lon="5.488167" lat="51.244625"><ele>34.4</ele><time>2022-04-17T07:48:52.000Z</time></trkpt><trkpt lon="5.488174" lat="51.2447"><ele>34.6</ele><time>2022-04-17T07:48:53.000Z</time></trkpt><trkpt lon="5.48818" lat="51.244772"><ele>34.6</ele><time>2022-04-17T07:48:54.000Z</time></trkpt><trkpt lon="5.488186" lat="51.244845"><ele>34.6</ele><time>2022-04-17T07:48:55.000Z</time></trkpt><trkpt lon="5.488192" lat="51.244922"><ele>34.4</ele><time>2022-04-17T07:48:56.000Z</time></trkpt><trkpt lon="5.488196" lat="51.244996"><ele>34.4</ele><time>2022-04-17T07:48:57.000Z</time></trkpt><trkpt lon="5.488202" lat="51.245068"><ele>34.2</ele><time>2022-04-17T07:48:58.000Z</time></trkpt><trkpt lon="5.488211" lat="51.245144"><ele>34.2</ele><time>2022-04-17T07:48:59.000Z</time></trkpt><trkpt lon="5.488219" lat="51.24522"><ele>34.2</ele><time>2022-04-17T07:49:00.000Z</time></trkpt><trkpt lon="5.488226" lat="51.245295"><ele>34</ele><time>2022-04-17T07:49:01.000Z</time></trkpt><trkpt lon="5.488232" lat="51.245367"><ele>34</ele><time>2022-04-17T07:49:02.000Z</time></trkpt><trkpt lon="5.488238" lat="51.24544"><ele>33.8</ele><time>2022-04-17T07:49:03.000Z</time></trkpt><trkpt lon="5.488241" lat="51.245516"><ele>33.8</ele><time>2022-04-17T07:49:04.000Z</time></trkpt><trkpt lon="5.488246" lat="51.24559"><ele>34</ele><time>2022-04-17T07:49:05.000Z</time></trkpt><trkpt lon="5.488251" lat="51.245667"><ele>34</ele><time>2022-04-17T07:49:06.000Z</time></trkpt><trkpt lon="5.488254" lat="51.245742"><ele>34</ele><time>2022-04-17T07:49:07.000Z</time></trkpt><trkpt lon="5.488254" lat="51.245814"><ele>34</ele><time>2022-04-17T07:49:08.000Z</time></trkpt><trkpt lon="5.488249" lat="51.245887"><ele>33.8</ele><time>2022-04-17T07:49:09.000Z</time></trkpt><trkpt lon="5.488238" lat="51.245963"><ele>33.8</ele><time>2022-04-17T07:49:10.000Z</time></trkpt><trkpt lon="5.488218" lat="51.246036"><ele>33.6</ele><time>2022-04-17T07:49:11.000Z</time></trkpt><trkpt lon="5.488188" lat="51.246111"><ele>33.8</ele><time>2022-04-17T07:49:12.000Z</time></trkpt><trkpt lon="5.488152" lat="51.246184"><ele>33.8</ele><time>2022-04-17T07:49:13.000Z</time></trkpt><trkpt lon="5.488111" lat="51.246255"><ele>33.8</ele><time>2022-04-17T07:49:14.000Z</time></trkpt><trkpt lon="5.488067" lat="51.246322"><ele>33.6</ele><time>2022-04-17T07:49:15.000Z</time></trkpt><trkpt lon="5.488017" lat="51.246394"><ele>33.6</ele><time>2022-04-17T07:49:16.000Z</time></trkpt><trkpt lon="5.487964" lat="51.246464"><ele>33.6</ele><time>2022-04-17T07:49:17.000Z</time></trkpt><trkpt lon="5.487908" lat="51.246529"><ele>33.8</ele><time>2022-04-17T07:49:18.000Z</time></trkpt><trkpt lon="5.48785" lat="51.246595"><ele>33.8</ele><time>2022-04-17T07:49:19.000Z</time></trkpt><trkpt lon="5.487791" lat="51.246663"><ele>33.6</ele><time>2022-04-17T07:49:20.000Z</time></trkpt><trkpt lon="5.487734" lat="51.246729"><ele>33.6</ele><time>2022-04-17T07:49:21.000Z</time></trkpt><trkpt lon="5.48768" lat="51.246793"><ele>33.8</ele><time>2022-04-17T07:49:22.000Z</time></trkpt><trkpt lon="5.487627" lat="51.246861"><ele>33.8</ele><time>2022-04-17T07:49:23.000Z</time></trkpt><trkpt lon="5.487579" lat="51.246929"><ele>34</ele><time>2022-04-17T07:49:24.000Z</time></trkpt><trkpt lon="5.487537" lat="51.246995"><ele>34</ele><time>2022-04-17T07:49:25.000Z</time></trkpt><trkpt lon="5.4875" lat="51.247065"><ele>34.2</ele><time>2022-04-17T07:49:26.000Z</time></trkpt><trkpt lon="5.487467" lat="51.247137"><ele>34.2</ele><time>2022-04-17T07:49:27.000Z</time></trkpt><trkpt lon="5.487439" lat="51.24721"><ele>34</ele><time>2022-04-17T07:49:28.000Z</time></trkpt><trkpt lon="5.487413" lat="51.247282"><ele>34</ele><time>2022-04-17T07:49:29.000Z</time></trkpt><trkpt lon="5.487388" lat="51.247354"><ele>33.8</ele><time>2022-04-17T07:49:30.000Z</time></trkpt><trkpt lon="5.487365" lat="51.247423"><ele>33.8</ele><time>2022-04-17T07:49:31.000Z</time></trkpt><trkpt lon="5.487342" lat="51.247496"><ele>33.8</ele><time>2022-04-17T07:49:32.000Z</time></trkpt><trkpt lon="5.487319" lat="51.247569"><ele>33.8</ele><time>2022-04-17T07:49:33.000Z</time></trkpt><trkpt lon="5.487297" lat="51.247639"><ele>33.6</ele><time>2022-04-17T07:49:34.000Z</time></trkpt><trkpt lon="5.487276" lat="51.247708"><ele>33.6</ele><time>2022-04-17T07:49:35.000Z</time></trkpt><trkpt lon="5.487252" lat="51.247786"><ele>33.4</ele><time>2022-04-17T07:49:36.000Z</time></trkpt><trkpt lon="5.487227" lat="51.247859"><ele>33.4</ele><time>2022-04-17T07:49:37.000Z</time></trkpt><trkpt lon="5.487201" lat="51.247931"><ele>33.6</ele><time>2022-04-17T07:49:38.000Z</time></trkpt><trkpt lon="5.487173" lat="51.248001"><ele>33.6</ele><time>2022-04-17T07:49:39.000Z</time></trkpt><trkpt lon="5.487142" lat="51.248068"><ele>33.6</ele><time>2022-04-17T07:49:40.000Z</time></trkpt><trkpt lon="5.487107" lat="51.248139"><ele>33.8</ele><time>2022-04-17T07:49:41.000Z</time></trkpt><trkpt lon="5.487067" lat="51.248206"><ele>33.8</ele><time>2022-04-17T07:49:42.000Z</time></trkpt><trkpt lon="5.487016" lat="51.24827"><ele>33.6</ele><time>2022-04-17T07:49:43.000Z</time></trkpt><trkpt lon="5.486959" lat="51.248332"><ele>33.6</ele><time>2022-04-17T07:49:44.000Z</time></trkpt><trkpt lon="5.486891" lat="51.248397"><ele>33.8</ele><time>2022-04-17T07:49:45.000Z</time></trkpt><trkpt lon="5.486818" lat="51.248456"><ele>33.8</ele><time>2022-04-17T07:49:46.000Z</time></trkpt><trkpt lon="5.486736" lat="51.248509"><ele>33.8</ele><time>2022-04-17T07:49:47.000Z</time></trkpt><trkpt lon="5.486646" lat="51.24856"><ele>33.6</ele><time>2022-04-17T07:49:48.000Z</time></trkpt><trkpt lon="5.486555" lat="51.248605"><ele>33.6</ele><time>2022-04-17T07:49:49.000Z</time></trkpt><trkpt lon="5.486462" lat="51.248651"><ele>33.4</ele><time>2022-04-17T07:49:50.000Z</time></trkpt><trkpt lon="5.486368" lat="51.248697"><ele>33.4</ele><time>2022-04-17T07:49:51.000Z</time></trkpt><trkpt lon="5.486276" lat="51.248743"><ele>33.4</ele><time>2022-04-17T07:49:52.000Z</time></trkpt><trkpt lon="5.486187" lat="51.24879"><ele>33.4</ele><time>2022-04-17T07:49:53.000Z</time></trkpt><trkpt lon="5.486102" lat="51.248846"><ele>33.4</ele><time>2022-04-17T07:49:54.000Z</time></trkpt><trkpt lon="5.486028" lat="51.248902"><ele>33.6</ele><time>2022-04-17T07:49:55.000Z</time></trkpt><trkpt lon="5.485961" lat="51.248961"><ele>33.6</ele><time>2022-04-17T07:49:56.000Z</time></trkpt><trkpt lon="5.485902" lat="51.249028"><ele>33.6</ele><time>2022-04-17T07:49:57.000Z</time></trkpt><trkpt lon="5.485854" lat="51.249095"><ele>33.8</ele><time>2022-04-17T07:49:58.000Z</time></trkpt><trkpt lon="5.485814" lat="51.249163"><ele>33.8</ele><time>2022-04-17T07:49:59.000Z</time></trkpt><trkpt lon="5.485782" lat="51.249236"><ele>33.6</ele><time>2022-04-17T07:50:00.000Z</time></trkpt><trkpt lon="5.485759" lat="51.249308"><ele>33.6</ele><time>2022-04-17T07:50:01.000Z</time></trkpt><trkpt lon="5.485739" lat="51.24938"><ele>33.6</ele><time>2022-04-17T07:50:02.000Z</time></trkpt><trkpt lon="5.485717" lat="51.249453"><ele>33.6</ele><time>2022-04-17T07:50:03.000Z</time></trkpt><trkpt lon="5.485692" lat="51.249525"><ele>33.6</ele><time>2022-04-17T07:50:04.000Z</time></trkpt><trkpt lon="5.485666" lat="51.249598"><ele>33.6</ele><time>2022-04-17T07:50:05.000Z</time></trkpt><trkpt lon="5.485637" lat="51.24967"><ele>33.8</ele><time>2022-04-17T07:50:06.000Z</time></trkpt><trkpt lon="5.485603" lat="51.249737"><ele>33.8</ele><time>2022-04-17T07:50:07.000Z</time></trkpt><trkpt lon="5.485561" lat="51.249801"><ele>34</ele><time>2022-04-17T07:50:08.000Z</time></trkpt><trkpt lon="5.48551" lat="51.249865"><ele>33.8</ele><time>2022-04-17T07:50:09.000Z</time></trkpt><trkpt lon="5.485451" lat="51.249925"><ele>33.8</ele><time>2022-04-17T07:50:10.000Z</time></trkpt><trkpt lon="5.485384" lat="51.24998"><ele>33.6</ele><time>2022-04-17T07:50:11.000Z</time></trkpt><trkpt lon="5.485311" lat="51.250028"><ele>33.8</ele><time>2022-04-17T07:50:12.000Z</time></trkpt><trkpt lon="5.48523" lat="51.250073"><ele>33.8</ele><time>2022-04-17T07:50:13.000Z</time></trkpt><trkpt lon="5.485143" lat="51.250113"><ele>33.6</ele><time>2022-04-17T07:50:14.000Z</time></trkpt><trkpt lon="5.485053" lat="51.250146"><ele>33.6</ele><time>2022-04-17T07:50:15.000Z</time></trkpt><trkpt lon="5.484957" lat="51.250175"><ele>33.6</ele><time>2022-04-17T07:50:16.000Z</time></trkpt><trkpt lon="5.484861" lat="51.250196"><ele>33.6</ele><time>2022-04-17T07:50:17.000Z</time></trkpt><trkpt lon="5.484763" lat="51.250215"><ele>33.8</ele><time>2022-04-17T07:50:18.000Z</time></trkpt><trkpt lon="5.484667" lat="51.250232"><ele>33.8</ele><time>2022-04-17T07:50:19.000Z</time></trkpt><trkpt lon="5.484571" lat="51.250244"><ele>33.8</ele><time>2022-04-17T07:50:20.000Z</time></trkpt><trkpt lon="5.484483" lat="51.250257"><ele>33.8</ele><time>2022-04-17T07:50:21.000Z</time></trkpt><trkpt lon="5.48441" lat="51.25028"><ele>33.8</ele><time>2022-04-17T07:50:22.000Z</time></trkpt><trkpt lon="5.484364" lat="51.250313"><ele>33.8</ele><time>2022-04-17T07:50:23.000Z</time></trkpt><trkpt lon="5.48435" lat="51.250361"><ele>34</ele><time>2022-04-17T07:50:24.000Z</time></trkpt><trkpt lon="5.484362" lat="51.250422"><ele>33.8</ele><time>2022-04-17T07:50:25.000Z</time></trkpt><trkpt lon="5.484388" lat="51.250484"><ele>33.8</ele><time>2022-04-17T07:50:26.000Z</time></trkpt><trkpt lon="5.484418" lat="51.250548"><ele>33.8</ele><time>2022-04-17T07:50:27.000Z</time></trkpt><trkpt lon="5.484447" lat="51.250615"><ele>33.8</ele><time>2022-04-17T07:50:28.000Z</time></trkpt><trkpt lon="5.484476" lat="51.250682"><ele>33.8</ele><time>2022-04-17T07:50:29.000Z</time></trkpt><trkpt lon="5.484502" lat="51.250748"><ele>33.8</ele><time>2022-04-17T07:50:30.000Z</time></trkpt><trkpt lon="5.484526" lat="51.250818"><ele>34</ele><time>2022-04-17T07:50:31.000Z</time></trkpt><trkpt lon="5.484552" lat="51.250889"><ele>33.8</ele><time>2022-04-17T07:50:32.000Z</time></trkpt><trkpt lon="5.484579" lat="51.250957"><ele>33.8</ele><time>2022-04-17T07:50:33.000Z</time></trkpt><trkpt lon="5.484605" lat="51.251026"><ele>33.6</ele><time>2022-04-17T07:50:34.000Z</time></trkpt><trkpt lon="5.484628" lat="51.251092"><ele>33.8</ele><time>2022-04-17T07:50:35.000Z</time></trkpt><trkpt lon="5.484657" lat="51.251169"><ele>33.6</ele><time>2022-04-17T07:50:36.000Z</time></trkpt><trkpt lon="5.484684" lat="51.251237"><ele>33.8</ele><time>2022-04-17T07:50:37.000Z</time></trkpt><trkpt lon="5.484708" lat="51.251306"><ele>33.8</ele><time>2022-04-17T07:50:38.000Z</time></trkpt><trkpt lon="5.484728" lat="51.251376"><ele>33.6</ele><time>2022-04-17T07:50:39.000Z</time></trkpt><trkpt lon="5.484743" lat="51.251446"><ele>33.6</ele><time>2022-04-17T07:50:40.000Z</time></trkpt><trkpt lon="5.484749" lat="51.251511"><ele>33.6</ele><time>2022-04-17T07:50:41.000Z</time></trkpt><trkpt lon="5.484745" lat="51.251579"><ele>33.8</ele><time>2022-04-17T07:50:42.000Z</time></trkpt><trkpt lon="5.484732" lat="51.251649"><ele>33.8</ele><time>2022-04-17T07:50:43.000Z</time></trkpt><trkpt lon="5.484714" lat="51.251721"><ele>33.8</ele><time>2022-04-17T07:50:44.000Z</time></trkpt><trkpt lon="5.484689" lat="51.251795"><ele>33.8</ele><time>2022-04-17T07:50:45.000Z</time></trkpt><trkpt lon="5.484661" lat="51.251868"><ele>33.8</ele><time>2022-04-17T07:50:46.000Z</time></trkpt><trkpt lon="5.484631" lat="51.25194"><ele>33.8</ele><time>2022-04-17T07:50:47.000Z</time></trkpt><trkpt lon="5.484599" lat="51.252012"><ele>33.8</ele><time>2022-04-17T07:50:48.000Z</time></trkpt><trkpt lon="5.484567" lat="51.252081"><ele>33.8</ele><time>2022-04-17T07:50:49.000Z</time></trkpt><trkpt lon="5.484531" lat="51.25215"><ele>33.6</ele><time>2022-04-17T07:50:50.000Z</time></trkpt><trkpt lon="5.484489" lat="51.252214"><ele>33.8</ele><time>2022-04-17T07:50:51.000Z</time></trkpt><trkpt lon="5.484444" lat="51.252276"><ele>33.6</ele><time>2022-04-17T07:50:52.000Z</time></trkpt><trkpt lon="5.484398" lat="51.252341"><ele>33.4</ele><time>2022-04-17T07:50:53.000Z</time></trkpt><trkpt lon="5.484361" lat="51.252408"><ele>33.4</ele><time>2022-04-17T07:50:54.000Z</time></trkpt><trkpt lon="5.484343" lat="51.252476"><ele>33.4</ele><time>2022-04-17T07:50:55.000Z</time></trkpt><trkpt lon="5.484338" lat="51.252548"><ele>33.4</ele><time>2022-04-17T07:50:56.000Z</time></trkpt><trkpt lon="5.484337" lat="51.252622"><ele>33.6</ele><time>2022-04-17T07:50:57.000Z</time></trkpt><trkpt lon="5.484337" lat="51.252693"><ele>33.6</ele><time>2022-04-17T07:50:58.000Z</time></trkpt><trkpt lon="5.484338" lat="51.252768"><ele>33.6</ele><time>2022-04-17T07:50:59.000Z</time></trkpt><trkpt lon="5.484343" lat="51.25284"><ele>33.6</ele><time>2022-04-17T07:51:00.000Z</time></trkpt><trkpt lon="5.484347" lat="51.252912"><ele>33.6</ele><time>2022-04-17T07:51:01.000Z</time></trkpt><trkpt lon="5.484348" lat="51.252982"><ele>33.6</ele><time>2022-04-17T07:51:02.000Z</time></trkpt><trkpt lon="5.484348" lat="51.253056"><ele>33.4</ele><time>2022-04-17T07:51:03.000Z</time></trkpt><trkpt lon="5.484348" lat="51.253122"><ele>33.4</ele><time>2022-04-17T07:51:04.000Z</time></trkpt><trkpt lon="5.484347" lat="51.253186"><ele>33.4</ele><time>2022-04-17T07:51:05.000Z</time></trkpt><trkpt lon="5.484344" lat="51.253266"><ele>33.6</ele><time>2022-04-17T07:51:06.000Z</time></trkpt><trkpt lon="5.484341" lat="51.253331"><ele>33.6</ele><time>2022-04-17T07:51:07.000Z</time></trkpt><trkpt lon="5.48434" lat="51.253393"><ele>33.6</ele><time>2022-04-17T07:51:08.000Z</time></trkpt><trkpt lon="5.484348" lat="51.253449"><ele>33.4</ele><time>2022-04-17T07:51:09.000Z</time></trkpt><trkpt lon="5.484362" lat="51.253502"><ele>33.4</ele><time>2022-04-17T07:51:10.000Z</time></trkpt><trkpt lon="5.484382" lat="51.253554"><ele>33.4</ele><time>2022-04-17T07:51:11.000Z</time></trkpt><trkpt lon="5.484413" lat="51.253601"><ele>33.4</ele><time>2022-04-17T07:51:12.000Z</time></trkpt><trkpt lon="5.484455" lat="51.253642"><ele>33.6</ele><time>2022-04-17T07:51:13.000Z</time></trkpt><trkpt lon="5.484495" lat="51.253681"><ele>33.6</ele><time>2022-04-17T07:51:14.000Z</time></trkpt><trkpt lon="5.484518" lat="51.253719"><ele>33.6</ele><time>2022-04-17T07:51:15.000Z</time></trkpt><trkpt lon="5.484516" lat="51.253758"><ele>33.6</ele><time>2022-04-17T07:51:16.000Z</time></trkpt><trkpt lon="5.484491" lat="51.253798"><ele>33.6</ele><time>2022-04-17T07:51:17.000Z</time></trkpt><trkpt lon="5.484444" lat="51.253828"><ele>33.6</ele><time>2022-04-17T07:51:18.000Z</time></trkpt><trkpt lon="5.484372" lat="51.253844"><ele>33.6</ele><time>2022-04-17T07:51:19.000Z</time></trkpt><trkpt lon="5.484288" lat="51.253848"><ele>33.6</ele><time>2022-04-17T07:51:20.000Z</time></trkpt><trkpt lon="5.484198" lat="51.253843"><ele>33.6</ele><time>2022-04-17T07:51:21.000Z</time></trkpt><trkpt lon="5.484104" lat="51.25384"><ele>33.6</ele><time>2022-04-17T07:51:22.000Z</time></trkpt><trkpt lon="5.484007" lat="51.253849"><ele>33.6</ele><time>2022-04-17T07:51:23.000Z</time></trkpt><trkpt lon="5.483911" lat="51.253867"><ele>33.6</ele><time>2022-04-17T07:51:24.000Z</time></trkpt><trkpt lon="5.48381" lat="51.253892"><ele>33.6</ele><time>2022-04-17T07:51:25.000Z</time></trkpt><trkpt lon="5.483708" lat="51.253923"><ele>33.4</ele><time>2022-04-17T07:51:26.000Z</time></trkpt><trkpt lon="5.483605" lat="51.253953"><ele>33.4</ele><time>2022-04-17T07:51:27.000Z</time></trkpt><trkpt lon="5.483502" lat="51.253985"><ele>33.4</ele><time>2022-04-17T07:51:28.000Z</time></trkpt><trkpt lon="5.483401" lat="51.254017"><ele>33.6</ele><time>2022-04-17T07:51:29.000Z</time></trkpt><trkpt lon="5.483303" lat="51.254045"><ele>33.6</ele><time>2022-04-17T07:51:30.000Z</time></trkpt><trkpt lon="5.483209" lat="51.254074"><ele>33.6</ele><time>2022-04-17T07:51:31.000Z</time></trkpt><trkpt lon="5.483116" lat="51.254101"><ele>33.6</ele><time>2022-04-17T07:51:32.000Z</time></trkpt><trkpt lon="5.483024" lat="51.254127"><ele>33.8</ele><time>2022-04-17T07:51:33.000Z</time></trkpt><trkpt lon="5.482929" lat="51.254153"><ele>33.6</ele><time>2022-04-17T07:51:34.000Z</time></trkpt><trkpt lon="5.482836" lat="51.254175"><ele>33.6</ele><time>2022-04-17T07:51:35.000Z</time></trkpt><trkpt lon="5.482728" lat="51.2542"><ele>33.8</ele><time>2022-04-17T07:51:36.000Z</time></trkpt><trkpt lon="5.482623" lat="51.254228"><ele>33.8</ele><time>2022-04-17T07:51:37.000Z</time></trkpt><trkpt lon="5.482516" lat="51.254258"><ele>33.8</ele><time>2022-04-17T07:51:38.000Z</time></trkpt><trkpt lon="5.482408" lat="51.254289"><ele>34</ele><time>2022-04-17T07:51:39.000Z</time></trkpt><trkpt lon="5.482298" lat="51.254317"><ele>34</ele><time>2022-04-17T07:51:40.000Z</time></trkpt><trkpt lon="5.482193" lat="51.254341"><ele>34</ele><time>2022-04-17T07:51:41.000Z</time></trkpt><trkpt lon="5.482095" lat="51.254366"><ele>34</ele><time>2022-04-17T07:51:42.000Z</time></trkpt><trkpt lon="5.482" lat="51.254389"><ele>33.8</ele><time>2022-04-17T07:51:43.000Z</time></trkpt><trkpt lon="5.481902" lat="51.254413"><ele>33.8</ele><time>2022-04-17T07:51:44.000Z</time></trkpt><trkpt lon="5.481809" lat="51.25444"><ele>33.8</ele><time>2022-04-17T07:51:45.000Z</time></trkpt><trkpt lon="5.481715" lat="51.254467"><ele>33.8</ele><time>2022-04-17T07:51:46.000Z</time></trkpt><trkpt lon="5.481626" lat="51.254495"><ele>33.8</ele><time>2022-04-17T07:51:47.000Z</time></trkpt><trkpt lon="5.481537" lat="51.254524"><ele>33.8</ele><time>2022-04-17T07:51:48.000Z</time></trkpt><trkpt lon="5.481449" lat="51.25455"><ele>33.8</ele><time>2022-04-17T07:51:49.000Z</time></trkpt><trkpt lon="5.481361" lat="51.254574"><ele>34</ele><time>2022-04-17T07:51:50.000Z</time></trkpt><trkpt lon="5.48127" lat="51.2546"><ele>34</ele><time>2022-04-17T07:51:51.000Z</time></trkpt><trkpt lon="5.481178" lat="51.254623"><ele>34.2</ele><time>2022-04-17T07:51:52.000Z</time></trkpt><trkpt lon="5.481081" lat="51.254645"><ele>34.2</ele><time>2022-04-17T07:51:53.000Z</time></trkpt><trkpt lon="5.480979" lat="51.254669"><ele>34.2</ele><time>2022-04-17T07:51:54.000Z</time></trkpt><trkpt lon="5.480874" lat="51.254696"><ele>34.2</ele><time>2022-04-17T07:51:55.000Z</time></trkpt><trkpt lon="5.480767" lat="51.254721"><ele>34</ele><time>2022-04-17T07:51:56.000Z</time></trkpt><trkpt lon="5.480663" lat="51.254741"><ele>34</ele><time>2022-04-17T07:51:57.000Z</time></trkpt><trkpt lon="5.480558" lat="51.254762"><ele>34</ele><time>2022-04-17T07:51:58.000Z</time></trkpt><trkpt lon="5.480451" lat="51.254782"><ele>34</ele><time>2022-04-17T07:51:59.000Z</time></trkpt><trkpt lon="5.480346" lat="51.254799"><ele>33.8</ele><time>2022-04-17T07:52:00.000Z</time></trkpt><trkpt lon="5.480237" lat="51.254815"><ele>33.8</ele><time>2022-04-17T07:52:01.000Z</time></trkpt><trkpt lon="5.480128" lat="51.254829"><ele>34</ele><time>2022-04-17T07:52:02.000Z</time></trkpt><trkpt lon="5.480022" lat="51.254841"><ele>34</ele><time>2022-04-17T07:52:03.000Z</time></trkpt><trkpt lon="5.479924" lat="51.254855"><ele>34</ele><time>2022-04-17T07:52:04.000Z</time></trkpt><trkpt lon="5.479832" lat="51.254865"><ele>34</ele><time>2022-04-17T07:52:05.000Z</time></trkpt><trkpt lon="5.479714" lat="51.254879"><ele>34</ele><time>2022-04-17T07:52:06.000Z</time></trkpt><trkpt lon="5.479617" lat="51.254889"><ele>34.2</ele><time>2022-04-17T07:52:07.000Z</time></trkpt><trkpt lon="5.479525" lat="51.254897"><ele>34.2</ele><time>2022-04-17T07:52:08.000Z</time></trkpt><trkpt lon="5.479438" lat="51.254904"><ele>34.2</ele><time>2022-04-17T07:52:09.000Z</time></trkpt><trkpt lon="5.479356" lat="51.254915"><ele>34.4</ele><time>2022-04-17T07:52:10.000Z</time></trkpt><trkpt lon="5.479281" lat="51.254936"><ele>34.4</ele><time>2022-04-17T07:52:11.000Z</time></trkpt><trkpt lon="5.479219" lat="51.254966"><ele>34.4</ele><time>2022-04-17T07:52:12.000Z</time></trkpt><trkpt lon="5.479175" lat="51.255007"><ele>34.4</ele><time>2022-04-17T07:52:13.000Z</time></trkpt><trkpt lon="5.479154" lat="51.255055"><ele>34.4</ele><time>2022-04-17T07:52:14.000Z</time></trkpt><trkpt lon="5.479148" lat="51.255108"><ele>34.4</ele><time>2022-04-17T07:52:15.000Z</time></trkpt><trkpt lon="5.479155" lat="51.255161"><ele>34.4</ele><time>2022-04-17T07:52:16.000Z</time></trkpt><trkpt lon="5.479167" lat="51.25521"><ele>34.4</ele><time>2022-04-17T07:52:17.000Z</time></trkpt><trkpt lon="5.47918" lat="51.255261"><ele>34.2</ele><time>2022-04-17T07:52:18.000Z</time></trkpt><trkpt lon="5.479189" lat="51.255312"><ele>34.2</ele><time>2022-04-17T07:52:19.000Z</time></trkpt><trkpt lon="5.479184" lat="51.25536"><ele>34.2</ele><time>2022-04-17T07:52:20.000Z</time></trkpt><trkpt lon="5.479159" lat="51.255409"><ele>34.2</ele><time>2022-04-17T07:52:21.000Z</time></trkpt><trkpt lon="5.479117" lat="51.255444"><ele>34.2</ele><time>2022-04-17T07:52:22.000Z</time></trkpt><trkpt lon="5.479067" lat="51.255464"><ele>34.2</ele><time>2022-04-17T07:52:23.000Z</time></trkpt><trkpt lon="5.479019" lat="51.255466"><ele>34.4</ele><time>2022-04-17T07:52:24.000Z</time></trkpt><trkpt lon="5.47898" lat="51.255466"><ele>34.4</ele><time>2022-04-17T07:52:25.000Z</time></trkpt><trkpt lon="5.478955" lat="51.255468"><ele>34.6</ele><time>2022-04-17T07:52:26.000Z</time></trkpt><trkpt lon="5.478937" lat="51.255469"><ele>34.6</ele><time>2022-04-17T07:52:27.000Z</time></trkpt><trkpt lon="5.478919" lat="51.255465"><ele>34.6</ele><time>2022-04-17T07:52:28.000Z</time></trkpt><trkpt lon="5.478899" lat="51.255458"><ele>34.6</ele><time>2022-04-17T07:52:29.000Z</time></trkpt><trkpt lon="5.478879" lat="51.255442"><ele>34.6</ele><time>2022-04-17T07:52:30.000Z</time></trkpt><trkpt lon="5.478866" lat="51.255421"><ele>34.6</ele><time>2022-04-17T07:52:31.000Z</time></trkpt><trkpt lon="5.478857" lat="51.255391"><ele>34.6</ele><time>2022-04-17T07:52:32.000Z</time></trkpt><trkpt lon="5.47885" lat="51.255352"><ele>34.6</ele><time>2022-04-17T07:52:33.000Z</time></trkpt><trkpt lon="5.478841" lat="51.255312"><ele>34.6</ele><time>2022-04-17T07:52:34.000Z</time></trkpt><trkpt lon="5.478834" lat="51.255275"><ele>34.6</ele><time>2022-04-17T07:52:35.000Z</time></trkpt><trkpt lon="5.478823" lat="51.255213"><ele>34.4</ele><time>2022-04-17T07:52:36.000Z</time></trkpt><trkpt lon="5.478814" lat="51.255157"><ele>34.4</ele><time>2022-04-17T07:52:37.000Z</time></trkpt><trkpt lon="5.478808" lat="51.255104"><ele>34.4</ele><time>2022-04-17T07:52:38.000Z</time></trkpt><trkpt lon="5.478799" lat="51.255051"><ele>34.4</ele><time>2022-04-17T07:52:39.000Z</time></trkpt><trkpt lon="5.478791" lat="51.254996"><ele>34.4</ele><time>2022-04-17T07:52:40.000Z</time></trkpt><trkpt lon="5.478782" lat="51.254941"><ele>34.4</ele><time>2022-04-17T07:52:41.000Z</time></trkpt><trkpt lon="5.47877" lat="51.254892"><ele>34.4</ele><time>2022-04-17T07:52:42.000Z</time></trkpt><trkpt lon="5.478752" lat="51.254842"><ele>34.4</ele><time>2022-04-17T07:52:43.000Z</time></trkpt><trkpt lon="5.478737" lat="51.254792"><ele>34.4</ele><time>2022-04-17T07:52:44.000Z</time></trkpt><trkpt lon="5.478728" lat="51.254742"><ele>34.4</ele><time>2022-04-17T07:52:45.000Z</time></trkpt><trkpt lon="5.478717" lat="51.254688"><ele>34.4</ele><time>2022-04-17T07:52:46.000Z</time></trkpt><trkpt lon="5.478703" lat="51.254634"><ele>34.4</ele><time>2022-04-17T07:52:47.000Z</time></trkpt><trkpt lon="5.478693" lat="51.254578"><ele>34.4</ele><time>2022-04-17T07:52:48.000Z</time></trkpt><trkpt lon="5.478688" lat="51.254524"><ele>34.4</ele><time>2022-04-17T07:52:49.000Z</time></trkpt><trkpt lon="5.478692" lat="51.254471"><ele>34.4</ele><time>2022-04-17T07:52:50.000Z</time></trkpt><trkpt lon="5.4787" lat="51.254418"><ele>34.4</ele><time>2022-04-17T07:52:51.000Z</time></trkpt><trkpt lon="5.478722" lat="51.254367"><ele>34.4</ele><time>2022-04-17T07:52:52.000Z</time></trkpt><trkpt lon="5.47876" lat="51.254313"><ele>34.4</ele><time>2022-04-17T07:52:53.000Z</time></trkpt><trkpt lon="5.478811" lat="51.254256"><ele>34.4</ele><time>2022-04-17T07:52:54.000Z</time></trkpt><trkpt lon="5.478861" lat="51.2542"><ele>34.4</ele><time>2022-04-17T07:52:55.000Z</time></trkpt><trkpt lon="5.478907" lat="51.254145"><ele>34.6</ele><time>2022-04-17T07:52:56.000Z</time></trkpt><trkpt lon="5.478947" lat="51.254089"><ele>34.6</ele><time>2022-04-17T07:52:57.000Z</time></trkpt><trkpt lon="5.478987" lat="51.254036"><ele>34.8</ele><time>2022-04-17T07:52:58.000Z</time></trkpt><trkpt lon="5.479026" lat="51.253985"><ele>34.8</ele><time>2022-04-17T07:52:59.000Z</time></trkpt><trkpt lon="5.479066" lat="51.25394"><ele>34.8</ele><time>2022-04-17T07:53:00.000Z</time></trkpt><trkpt lon="5.479107" lat="51.253893"><ele>34.8</ele><time>2022-04-17T07:53:01.000Z</time></trkpt><trkpt lon="5.479147" lat="51.253849"><ele>34.8</ele><time>2022-04-17T07:53:02.000Z</time></trkpt><trkpt lon="5.479186" lat="51.253807"><ele>34.8</ele><time>2022-04-17T07:53:03.000Z</time></trkpt><trkpt lon="5.479219" lat="51.253767"><ele>35</ele><time>2022-04-17T07:53:04.000Z</time></trkpt><trkpt lon="5.479244" lat="51.253733"><ele>35</ele><time>2022-04-17T07:53:05.000Z</time></trkpt><trkpt lon="5.479277" lat="51.253686"><ele>35</ele><time>2022-04-17T07:53:06.000Z</time></trkpt><trkpt lon="5.479309" lat="51.253644"><ele>35</ele><time>2022-04-17T07:53:07.000Z</time></trkpt><trkpt lon="5.479337" lat="51.253607"><ele>35</ele><time>2022-04-17T07:53:08.000Z</time></trkpt><trkpt lon="5.479362" lat="51.253561"><ele>35</ele><time>2022-04-17T07:53:09.000Z</time></trkpt><trkpt lon="5.479384" lat="51.253514"><ele>34.8</ele><time>2022-04-17T07:53:10.000Z</time></trkpt><trkpt lon="5.479397" lat="51.253463"><ele>34.8</ele><time>2022-04-17T07:53:11.000Z</time></trkpt><trkpt lon="5.479403" lat="51.253411"><ele>34.8</ele><time>2022-04-17T07:53:12.000Z</time></trkpt><trkpt lon="5.479409" lat="51.253362"><ele>34.8</ele><time>2022-04-17T07:53:13.000Z</time></trkpt><trkpt lon="5.479418" lat="51.253312"><ele>34.8</ele><time>2022-04-17T07:53:14.000Z</time></trkpt><trkpt lon="5.479431" lat="51.253262"><ele>34.6</ele><time>2022-04-17T07:53:15.000Z</time></trkpt><trkpt lon="5.479446" lat="51.25321"><ele>34.4</ele><time>2022-04-17T07:53:16.000Z</time></trkpt><trkpt lon="5.479456" lat="51.253163"><ele>34.4</ele><time>2022-04-17T07:53:17.000Z</time></trkpt><trkpt lon="5.479465" lat="51.253113"><ele>34.4</ele><time>2022-04-17T07:53:18.000Z</time></trkpt><trkpt lon="5.479475" lat="51.253067"><ele>34.4</ele><time>2022-04-17T07:53:19.000Z</time></trkpt><trkpt lon="5.47948" lat="51.253031"><ele>34.6</ele><time>2022-04-17T07:53:20.000Z</time></trkpt><trkpt lon="5.479486" lat="51.252995"><ele>34.6</ele><time>2022-04-17T07:53:21.000Z</time></trkpt><trkpt lon="5.479488" lat="51.252958"><ele>34.8</ele><time>2022-04-17T07:53:22.000Z</time></trkpt><trkpt lon="5.479487" lat="51.252925"><ele>34.8</ele><time>2022-04-17T07:53:23.000Z</time></trkpt><trkpt lon="5.479488" lat="51.252895"><ele>34.8</ele><time>2022-04-17T07:53:24.000Z</time></trkpt><trkpt lon="5.479485" lat="51.252871"><ele>35</ele><time>2022-04-17T07:53:25.000Z</time></trkpt><trkpt lon="5.479476" lat="51.252856"><ele>35</ele><time>2022-04-17T07:53:26.000Z</time></trkpt><trkpt lon="5.479454" lat="51.252853"><ele>35.2</ele><time>2022-04-17T07:53:27.000Z</time></trkpt><trkpt lon="5.479433" lat="51.252853"><ele>35.2</ele><time>2022-04-17T07:53:28.000Z</time></trkpt><trkpt lon="5.479412" lat="51.252852"><ele>35.2</ele><time>2022-04-17T07:53:29.000Z</time></trkpt><trkpt lon="5.479402" lat="51.252846"><ele>35.6</ele><time>2022-04-17T07:54:24.000Z</time></trkpt><trkpt lon="5.479402" lat="51.252846"><ele>35.6</ele><time>2022-04-17T07:54:25.000Z</time></trkpt><trkpt lon="5.479402" lat="51.252846"><ele>35.6</ele><time>2022-04-17T07:54:26.000Z</time></trkpt><trkpt lon="5.479402" lat="51.252846"><ele>35.6</ele><time>2022-04-17T07:54:27.000Z</time></trkpt><trkpt lon="5.479402" lat="51.252846"><ele>35.6</ele><time>2022-04-17T07:54:28.000Z</time></trkpt><trkpt lon="5.479402" lat="51.252846"><ele>35.6</ele><time>2022-04-17T07:54:29.000Z</time></trkpt><trkpt lon="5.479402" lat="51.252846"><ele>35.4</ele><time>2022-04-17T07:54:30.000Z</time></trkpt><trkpt lon="5.479402" lat="51.252846"><ele>35.4</ele><time>2022-04-17T07:54:31.000Z</time></trkpt><trkpt lon="5.479402" lat="51.252846"><ele>35.4</ele><time>2022-04-17T07:54:32.000Z</time></trkpt><trkpt lon="5.479402" lat="51.252846"><ele>35.4</ele><time>2022-04-17T07:54:33.000Z</time></trkpt><trkpt lon="5.479402" lat="51.252846"><ele>35.2</ele><time>2022-04-17T07:54:34.000Z</time></trkpt><trkpt lon="5.479402" lat="51.252846"><ele>35.2</ele><time>2022-04-17T07:54:35.000Z</time></trkpt><trkpt lon="5.479402" lat="51.252846"><ele>35.2</ele><time>2022-04-17T07:54:36.000Z</time></trkpt><trkpt lon="5.479402" lat="51.252846"><ele>35.2</ele><time>2022-04-17T07:54:37.000Z</time></trkpt><trkpt lon="5.479402" lat="51.252846"><ele>35.2</ele><time>2022-04-17T07:54:38.000Z</time></trkpt><trkpt lon="5.479538" lat="51.25281"><ele>34.8</ele><time>2022-04-17T08:19:33.000Z</time></trkpt><trkpt lon="5.479526" lat="51.252806"><ele>35</ele><time>2022-04-17T08:19:34.000Z</time></trkpt><trkpt lon="5.479511" lat="51.252804"><ele>35</ele><time>2022-04-17T08:19:35.000Z</time></trkpt><trkpt lon="5.4795" lat="51.252803"><ele>35</ele><time>2022-04-17T08:19:36.000Z</time></trkpt><trkpt lon="5.479494" lat="51.252799"><ele>35</ele><time>2022-04-17T08:19:37.000Z</time></trkpt><trkpt lon="5.479491" lat="51.252796"><ele>34.8</ele><time>2022-04-17T08:19:38.000Z</time></trkpt><trkpt lon="5.479487" lat="51.252795"><ele>34.8</ele><time>2022-04-17T08:19:39.000Z</time></trkpt><trkpt lon="5.479485" lat="51.252792"><ele>34.8</ele><time>2022-04-17T08:19:40.000Z</time></trkpt><trkpt lon="5.479485" lat="51.252792"><ele>34.8</ele><time>2022-04-17T08:19:41.000Z</time></trkpt><trkpt lon="5.479485" lat="51.252792"><ele>34.8</ele><time>2022-04-17T08:19:42.000Z</time></trkpt><trkpt lon="5.479444" lat="51.252789"><ele>34.8</ele><time>2022-04-17T08:19:50.000Z</time></trkpt><trkpt lon="5.479427" lat="51.252789"><ele>34.8</ele><time>2022-04-17T08:19:51.000Z</time></trkpt><trkpt lon="5.479411" lat="51.252789"><ele>34.8</ele><time>2022-04-17T08:19:52.000Z</time></trkpt><trkpt lon="5.479398" lat="51.252789"><ele>34.8</ele><time>2022-04-17T08:19:53.000Z</time></trkpt><trkpt lon="5.479388" lat="51.25279"><ele>34.8</ele><time>2022-04-17T08:19:54.000Z</time></trkpt><trkpt lon="5.479382" lat="51.252792"><ele>35</ele><time>2022-04-17T08:19:55.000Z</time></trkpt><trkpt lon="5.479377" lat="51.252793"><ele>35</ele><time>2022-04-17T08:19:56.000Z</time></trkpt><trkpt lon="5.479372" lat="51.252796"><ele>35</ele><time>2022-04-17T08:19:57.000Z</time></trkpt><trkpt lon="5.479372" lat="51.252796"><ele>35</ele><time>2022-04-17T08:19:58.000Z</time></trkpt><trkpt lon="5.479372" lat="51.252796"><ele>35</ele><time>2022-04-17T08:19:59.000Z</time></trkpt><trkpt lon="5.479289" lat="51.252857"><ele>34.8</ele><time>2022-04-17T08:20:09.000Z</time></trkpt><trkpt lon="5.479298" lat="51.252865"><ele>35</ele><time>2022-04-17T08:20:10.000Z</time></trkpt><trkpt lon="5.479313" lat="51.252866"><ele>35</ele><time>2022-04-17T08:20:11.000Z</time></trkpt><trkpt lon="5.479329" lat="51.252869"><ele>35</ele><time>2022-04-17T08:20:12.000Z</time></trkpt><trkpt lon="5.479342" lat="51.252869"><ele>35</ele><time>2022-04-17T08:20:13.000Z</time></trkpt><trkpt lon="5.479347" lat="51.252868"><ele>35</ele><time>2022-04-17T08:20:14.000Z</time></trkpt><trkpt lon="5.479347" lat="51.252866"><ele>35</ele><time>2022-04-17T08:20:15.000Z</time></trkpt><trkpt lon="5.479348" lat="51.252869"><ele>35</ele><time>2022-04-17T08:20:16.000Z</time></trkpt><trkpt lon="5.479356" lat="51.252869"><ele>35</ele><time>2022-04-17T08:20:17.000Z</time></trkpt><trkpt lon="5.479383" lat="51.252869"><ele>35</ele><time>2022-04-17T08:20:18.000Z</time></trkpt><trkpt lon="5.479401" lat="51.252869"><ele>35</ele><time>2022-04-17T08:20:19.000Z</time></trkpt><trkpt lon="5.479416" lat="51.252869"><ele>35</ele><time>2022-04-17T08:20:20.000Z</time></trkpt><trkpt lon="5.479424" lat="51.25287"><ele>35</ele><time>2022-04-17T08:20:21.000Z</time></trkpt><trkpt lon="5.479427" lat="51.252872"><ele>35</ele><time>2022-04-17T08:20:22.000Z</time></trkpt><trkpt lon="5.479427" lat="51.252872"><ele>35</ele><time>2022-04-17T08:20:23.000Z</time></trkpt><trkpt lon="5.479427" lat="51.252872"><ele>35.2</ele><time>2022-04-17T08:20:24.000Z</time></trkpt><trkpt lon="5.479427" lat="51.252872"><ele>35.2</ele><time>2022-04-17T08:20:25.000Z</time></trkpt><trkpt lon="5.479432" lat="51.252872"><ele>35.2</ele><time>2022-04-17T08:20:26.000Z</time></trkpt><trkpt lon="5.479469" lat="51.252875"><ele>35.2</ele><time>2022-04-17T08:20:29.000Z</time></trkpt><trkpt lon="5.479478" lat="51.252871"><ele>35.2</ele><time>2022-04-17T08:20:30.000Z</time></trkpt><trkpt lon="5.479491" lat="51.252868"><ele>35.2</ele><time>2022-04-17T08:20:31.000Z</time></trkpt><trkpt lon="5.47951" lat="51.252866"><ele>35.2</ele><time>2022-04-17T08:20:32.000Z</time></trkpt><trkpt lon="5.479533" lat="51.25287"><ele>35.2</ele><time>2022-04-17T08:20:33.000Z</time></trkpt><trkpt lon="5.479551" lat="51.252875"><ele>35.2</ele><time>2022-04-17T08:20:34.000Z</time></trkpt><trkpt lon="5.479568" lat="51.252888"><ele>35.2</ele><time>2022-04-17T08:20:35.000Z</time></trkpt><trkpt lon="5.479576" lat="51.252903"><ele>35.2</ele><time>2022-04-17T08:20:36.000Z</time></trkpt><trkpt lon="5.47958" lat="51.252922"><ele>35.2</ele><time>2022-04-17T08:20:37.000Z</time></trkpt><trkpt lon="5.479587" lat="51.252938"><ele>35.2</ele><time>2022-04-17T08:20:38.000Z</time></trkpt><trkpt lon="5.479591" lat="51.252951"><ele>35.2</ele><time>2022-04-17T08:20:39.000Z</time></trkpt><trkpt lon="5.479594" lat="51.252959"><ele>35.2</ele><time>2022-04-17T08:20:40.000Z</time></trkpt><trkpt lon="5.479597" lat="51.252971"><ele>35.2</ele><time>2022-04-17T08:20:41.000Z</time></trkpt><trkpt lon="5.479599" lat="51.252983"><ele>35</ele><time>2022-04-17T08:20:42.000Z</time></trkpt><trkpt lon="5.479604" lat="51.252997"><ele>35</ele><time>2022-04-17T08:20:43.000Z</time></trkpt><trkpt lon="5.479616" lat="51.253008"><ele>35</ele><time>2022-04-17T08:20:44.000Z</time></trkpt><trkpt lon="5.479633" lat="51.253016"><ele>35</ele><time>2022-04-17T08:20:45.000Z</time></trkpt><trkpt lon="5.479653" lat="51.253026"><ele>35</ele><time>2022-04-17T08:20:46.000Z</time></trkpt><trkpt lon="5.479679" lat="51.253031"><ele>35</ele><time>2022-04-17T08:20:47.000Z</time></trkpt><trkpt lon="5.479717" lat="51.253038"><ele>35</ele><time>2022-04-17T08:20:48.000Z</time></trkpt><trkpt lon="5.479768" lat="51.253048"><ele>34.8</ele><time>2022-04-17T08:20:49.000Z</time></trkpt><trkpt lon="5.479827" lat="51.253063"><ele>34.8</ele><time>2022-04-17T08:20:50.000Z</time></trkpt><trkpt lon="5.479888" lat="51.253078"><ele>34.8</ele><time>2022-04-17T08:20:51.000Z</time></trkpt><trkpt lon="5.479947" lat="51.253089"><ele>34.8</ele><time>2022-04-17T08:20:52.000Z</time></trkpt><trkpt lon="5.480002" lat="51.253099"><ele>34.6</ele><time>2022-04-17T08:20:53.000Z</time></trkpt><trkpt lon="5.480058" lat="51.253106"><ele>34.6</ele><time>2022-04-17T08:20:54.000Z</time></trkpt><trkpt lon="5.480111" lat="51.253111"><ele>34.6</ele><time>2022-04-17T08:20:55.000Z</time></trkpt><trkpt lon="5.480166" lat="51.253119"><ele>34.4</ele><time>2022-04-17T08:20:56.000Z</time></trkpt><trkpt lon="5.480223" lat="51.253126"><ele>34.4</ele><time>2022-04-17T08:20:57.000Z</time></trkpt><trkpt lon="5.480282" lat="51.253133"><ele>34.2</ele><time>2022-04-17T08:20:58.000Z</time></trkpt><trkpt lon="5.480346" lat="51.253138"><ele>34.2</ele><time>2022-04-17T08:20:59.000Z</time></trkpt><trkpt lon="5.480415" lat="51.253145"><ele>34.2</ele><time>2022-04-17T08:21:00.000Z</time></trkpt><trkpt lon="5.480489" lat="51.253153"><ele>34.2</ele><time>2022-04-17T08:21:01.000Z</time></trkpt><trkpt lon="5.480563" lat="51.253161"><ele>34.2</ele><time>2022-04-17T08:21:02.000Z</time></trkpt><trkpt lon="5.480634" lat="51.253169"><ele>34.2</ele><time>2022-04-17T08:21:03.000Z</time></trkpt><trkpt lon="5.480703" lat="51.25318"><ele>34.2</ele><time>2022-04-17T08:21:04.000Z</time></trkpt><trkpt lon="5.480771" lat="51.253188"><ele>34</ele><time>2022-04-17T08:21:05.000Z</time></trkpt><trkpt lon="5.480838" lat="51.253199"><ele>34</ele><time>2022-04-17T08:21:06.000Z</time></trkpt><trkpt lon="5.480904" lat="51.253207"><ele>34</ele><time>2022-04-17T08:21:07.000Z</time></trkpt><trkpt lon="5.480969" lat="51.253218"><ele>33.8</ele><time>2022-04-17T08:21:08.000Z</time></trkpt><trkpt lon="5.481035" lat="51.253225"><ele>33.8</ele><time>2022-04-17T08:21:09.000Z</time></trkpt><trkpt lon="5.4811" lat="51.253233"><ele>33.8</ele><time>2022-04-17T08:21:10.000Z</time></trkpt><trkpt lon="5.481165" lat="51.253242"><ele>33.8</ele><time>2022-04-17T08:21:11.000Z</time></trkpt><trkpt lon="5.48123" lat="51.253252"><ele>33.8</ele><time>2022-04-17T08:21:12.000Z</time></trkpt><trkpt lon="5.481298" lat="51.253261"><ele>33.8</ele><time>2022-04-17T08:21:13.000Z</time></trkpt><trkpt lon="5.481368" lat="51.253272"><ele>33.8</ele><time>2022-04-17T08:21:14.000Z</time></trkpt><trkpt lon="5.481443" lat="51.253284"><ele>33.8</ele><time>2022-04-17T08:21:15.000Z</time></trkpt><trkpt lon="5.48152" lat="51.253295"><ele>33.8</ele><time>2022-04-17T08:21:16.000Z</time></trkpt><trkpt lon="5.481601" lat="51.253306"><ele>33.8</ele><time>2022-04-17T08:21:17.000Z</time></trkpt><trkpt lon="5.481684" lat="51.253319"><ele>33.8</ele><time>2022-04-17T08:21:18.000Z</time></trkpt><trkpt lon="5.481767" lat="51.253333"><ele>33.6</ele><time>2022-04-17T08:21:19.000Z</time></trkpt><trkpt lon="5.481856" lat="51.253345"><ele>33.6</ele><time>2022-04-17T08:21:20.000Z</time></trkpt><trkpt lon="5.481948" lat="51.253361"><ele>33.4</ele><time>2022-04-17T08:21:21.000Z</time></trkpt><trkpt lon="5.482039" lat="51.253376"><ele>33.4</ele><time>2022-04-17T08:21:22.000Z</time></trkpt><trkpt lon="5.482133" lat="51.253391"><ele>33.4</ele><time>2022-04-17T08:21:23.000Z</time></trkpt><trkpt lon="5.482227" lat="51.253407"><ele>33.4</ele><time>2022-04-17T08:21:24.000Z</time></trkpt><trkpt lon="5.482318" lat="51.253422"><ele>33.4</ele><time>2022-04-17T08:21:25.000Z</time></trkpt><trkpt lon="5.48241" lat="51.253436"><ele>33.4</ele><time>2022-04-17T08:21:26.000Z</time></trkpt><trkpt lon="5.4825" lat="51.253448"><ele>33.4</ele><time>2022-04-17T08:21:27.000Z</time></trkpt><trkpt lon="5.482592" lat="51.253462"><ele>33.4</ele><time>2022-04-17T08:21:28.000Z</time></trkpt><trkpt lon="5.482683" lat="51.253475"><ele>33.2</ele><time>2022-04-17T08:21:29.000Z</time></trkpt><trkpt lon="5.48277" lat="51.25349"><ele>33.2</ele><time>2022-04-17T08:21:30.000Z</time></trkpt><trkpt lon="5.482856" lat="51.253505"><ele>33.2</ele><time>2022-04-17T08:21:31.000Z</time></trkpt><trkpt lon="5.482951" lat="51.253524"><ele>33.4</ele><time>2022-04-17T08:21:32.000Z</time></trkpt><trkpt lon="5.483036" lat="51.253536"><ele>33.2</ele><time>2022-04-17T08:21:33.000Z</time></trkpt><trkpt lon="5.483122" lat="51.25355"><ele>33.4</ele><time>2022-04-17T08:21:34.000Z</time></trkpt><trkpt lon="5.483204" lat="51.253562"><ele>33.2</ele><time>2022-04-17T08:21:35.000Z</time></trkpt><trkpt lon="5.483288" lat="51.253573"><ele>33.2</ele><time>2022-04-17T08:21:36.000Z</time></trkpt><trkpt lon="5.483385" lat="51.25359"><ele>33</ele><time>2022-04-17T08:21:37.000Z</time></trkpt><trkpt lon="5.483474" lat="51.253605"><ele>33.2</ele><time>2022-04-17T08:21:38.000Z</time></trkpt><trkpt lon="5.483561" lat="51.253619"><ele>33.2</ele><time>2022-04-17T08:21:39.000Z</time></trkpt><trkpt lon="5.483644" lat="51.253631"><ele>33.2</ele><time>2022-04-17T08:21:40.000Z</time></trkpt><trkpt lon="5.483729" lat="51.253642"><ele>33.4</ele><time>2022-04-17T08:21:41.000Z</time></trkpt><trkpt lon="5.483813" lat="51.253654"><ele>33.6</ele><time>2022-04-17T08:21:42.000Z</time></trkpt><trkpt lon="5.48389" lat="51.253667"><ele>33.6</ele><time>2022-04-17T08:21:43.000Z</time></trkpt><trkpt lon="5.483961" lat="51.253669"><ele>33.6</ele><time>2022-04-17T08:21:44.000Z</time></trkpt><trkpt lon="5.484027" lat="51.253662"><ele>33.6</ele><time>2022-04-17T08:21:45.000Z</time></trkpt><trkpt lon="5.484091" lat="51.253646"><ele>33.8</ele><time>2022-04-17T08:21:46.000Z</time></trkpt><trkpt lon="5.484155" lat="51.25363"><ele>33.8</ele><time>2022-04-17T08:21:47.000Z</time></trkpt><trkpt lon="5.484223" lat="51.253625"><ele>33.8</ele><time>2022-04-17T08:21:48.000Z</time></trkpt><trkpt lon="5.484291" lat="51.253632"><ele>33.8</ele><time>2022-04-17T08:21:49.000Z</time></trkpt><trkpt lon="5.484354" lat="51.253654"><ele>33.8</ele><time>2022-04-17T08:21:50.000Z</time></trkpt><trkpt lon="5.484413" lat="51.253687"><ele>33.8</ele><time>2022-04-17T08:21:51.000Z</time></trkpt><trkpt lon="5.484465" lat="51.253727"><ele>34</ele><time>2022-04-17T08:21:52.000Z</time></trkpt><trkpt lon="5.484516" lat="51.253771"><ele>33.8</ele><time>2022-04-17T08:21:53.000Z</time></trkpt><trkpt lon="5.484574" lat="51.253812"><ele>33.8</ele><time>2022-04-17T08:21:54.000Z</time></trkpt><trkpt lon="5.484641" lat="51.253845"><ele>33.8</ele><time>2022-04-17T08:21:55.000Z</time></trkpt><trkpt lon="5.484715" lat="51.253875"><ele>33.8</ele><time>2022-04-17T08:21:56.000Z</time></trkpt><trkpt lon="5.484795" lat="51.253901"><ele>33.6</ele><time>2022-04-17T08:21:57.000Z</time></trkpt><trkpt lon="5.48488" lat="51.253923"><ele>33.6</ele><time>2022-04-17T08:21:58.000Z</time></trkpt><trkpt lon="5.484962" lat="51.253946"><ele>33.6</ele><time>2022-04-17T08:21:59.000Z</time></trkpt><trkpt lon="5.485045" lat="51.253971"><ele>33.6</ele><time>2022-04-17T08:22:00.000Z</time></trkpt><trkpt lon="5.48512" lat="51.253996"><ele>33.4</ele><time>2022-04-17T08:22:01.000Z</time></trkpt><trkpt lon="5.485201" lat="51.254019"><ele>33.4</ele><time>2022-04-17T08:22:02.000Z</time></trkpt><trkpt lon="5.485289" lat="51.254046"><ele>33.2</ele><time>2022-04-17T08:22:03.000Z</time></trkpt><trkpt lon="5.485384" lat="51.254069"><ele>33.2</ele><time>2022-04-17T08:22:04.000Z</time></trkpt><trkpt lon="5.48548" lat="51.254094"><ele>33.2</ele><time>2022-04-17T08:22:05.000Z</time></trkpt><trkpt lon="5.485581" lat="51.254123"><ele>33.2</ele><time>2022-04-17T08:22:06.000Z</time></trkpt><trkpt lon="5.48569" lat="51.254151"><ele>33.4</ele><time>2022-04-17T08:22:07.000Z</time></trkpt><trkpt lon="5.485793" lat="51.254178"><ele>33.4</ele><time>2022-04-17T08:22:08.000Z</time></trkpt><trkpt lon="5.485888" lat="51.254206"><ele>33.4</ele><time>2022-04-17T08:22:09.000Z</time></trkpt><trkpt lon="5.485989" lat="51.254235"><ele>33.4</ele><time>2022-04-17T08:22:10.000Z</time></trkpt><trkpt lon="5.486094" lat="51.254271"><ele>33.4</ele><time>2022-04-17T08:22:11.000Z</time></trkpt><trkpt lon="5.486197" lat="51.254304"><ele>33.4</ele><time>2022-04-17T08:22:12.000Z</time></trkpt><trkpt lon="5.486301" lat="51.254335"><ele>33.4</ele><time>2022-04-17T08:22:13.000Z</time></trkpt><trkpt lon="5.486404" lat="51.254365"><ele>33.4</ele><time>2022-04-17T08:22:14.000Z</time></trkpt><trkpt lon="5.486506" lat="51.254395"><ele>33.4</ele><time>2022-04-17T08:22:15.000Z</time></trkpt><trkpt lon="5.486608" lat="51.254425"><ele>33.4</ele><time>2022-04-17T08:22:16.000Z</time></trkpt><trkpt lon="5.48672" lat="51.254457"><ele>33.6</ele><time>2022-04-17T08:22:17.000Z</time></trkpt><trkpt lon="5.486826" lat="51.254486"><ele>33.6</ele><time>2022-04-17T08:22:18.000Z</time></trkpt><trkpt lon="5.486932" lat="51.254514"><ele>33.4</ele><time>2022-04-17T08:22:19.000Z</time></trkpt><trkpt lon="5.487038" lat="51.254544"><ele>33.4</ele><time>2022-04-17T08:22:20.000Z</time></trkpt><trkpt lon="5.487143" lat="51.254575"><ele>33.4</ele><time>2022-04-17T08:22:21.000Z</time></trkpt><trkpt lon="5.487248" lat="51.254605"><ele>33.4</ele><time>2022-04-17T08:22:22.000Z</time></trkpt><trkpt lon="5.487354" lat="51.254636"><ele>33.4</ele><time>2022-04-17T08:22:23.000Z</time></trkpt><trkpt lon="5.48746" lat="51.254667"><ele>33.4</ele><time>2022-04-17T08:22:24.000Z</time></trkpt><trkpt lon="5.487564" lat="51.254696"><ele>33.2</ele><time>2022-04-17T08:22:25.000Z</time></trkpt><trkpt lon="5.487669" lat="51.254724"><ele>33.2</ele><time>2022-04-17T08:22:26.000Z</time></trkpt><trkpt lon="5.487776" lat="51.254756"><ele>33.2</ele><time>2022-04-17T08:22:27.000Z</time></trkpt><trkpt lon="5.487882" lat="51.254789"><ele>33.2</ele><time>2022-04-17T08:22:28.000Z</time></trkpt><trkpt lon="5.487985" lat="51.254818"><ele>33.2</ele><time>2022-04-17T08:22:29.000Z</time></trkpt><trkpt lon="5.488088" lat="51.254846"><ele>33.2</ele><time>2022-04-17T08:22:30.000Z</time></trkpt><trkpt lon="5.48819" lat="51.254876"><ele>33.2</ele><time>2022-04-17T08:22:31.000Z</time></trkpt><trkpt lon="5.488296" lat="51.254906"><ele>33.2</ele><time>2022-04-17T08:22:32.000Z</time></trkpt><trkpt lon="5.488402" lat="51.254934"><ele>33.2</ele><time>2022-04-17T08:22:33.000Z</time></trkpt><trkpt lon="5.488503" lat="51.254963"><ele>33</ele><time>2022-04-17T08:22:34.000Z</time></trkpt><trkpt lon="5.4886" lat="51.254989"><ele>32.8</ele><time>2022-04-17T08:22:35.000Z</time></trkpt><trkpt lon="5.488687" lat="51.255016"><ele>32.8</ele><time>2022-04-17T08:22:36.000Z</time></trkpt><trkpt lon="5.488808" lat="51.255051"><ele>32.6</ele><time>2022-04-17T08:22:37.000Z</time></trkpt><trkpt lon="5.488914" lat="51.255073"><ele>32.6</ele><time>2022-04-17T08:22:38.000Z</time></trkpt><trkpt lon="5.48902" lat="51.255081"><ele>32.6</ele><time>2022-04-17T08:22:39.000Z</time></trkpt><trkpt lon="5.489125" lat="51.255076"><ele>32.6</ele><time>2022-04-17T08:22:40.000Z</time></trkpt><trkpt lon="5.489231" lat="51.255056"><ele>32.6</ele><time>2022-04-17T08:22:41.000Z</time></trkpt><trkpt lon="5.489335" lat="51.255033"><ele>32.8</ele><time>2022-04-17T08:22:42.000Z</time></trkpt><trkpt lon="5.48944" lat="51.25501"><ele>32.8</ele><time>2022-04-17T08:22:43.000Z</time></trkpt><trkpt lon="5.489545" lat="51.254986"><ele>32.8</ele><time>2022-04-17T08:22:44.000Z</time></trkpt><trkpt lon="5.489652" lat="51.25496"><ele>32.8</ele><time>2022-04-17T08:22:45.000Z</time></trkpt><trkpt lon="5.48976" lat="51.254937"><ele>32.8</ele><time>2022-04-17T08:22:46.000Z</time></trkpt><trkpt lon="5.489869" lat="51.254914"><ele>32.8</ele><time>2022-04-17T08:22:47.000Z</time></trkpt><trkpt lon="5.489975" lat="51.254892"><ele>32.8</ele><time>2022-04-17T08:22:48.000Z</time></trkpt><trkpt lon="5.490082" lat="51.254869"><ele>32.8</ele><time>2022-04-17T08:22:49.000Z</time></trkpt><trkpt lon="5.490184" lat="51.254845"><ele>33</ele><time>2022-04-17T08:22:50.000Z</time></trkpt><trkpt lon="5.490282" lat="51.254819"><ele>33</ele><time>2022-04-17T08:22:51.000Z</time></trkpt><trkpt lon="5.490384" lat="51.254795"><ele>32.8</ele><time>2022-04-17T08:22:52.000Z</time></trkpt><trkpt lon="5.490495" lat="51.254769"><ele>32.6</ele><time>2022-04-17T08:22:53.000Z</time></trkpt><trkpt lon="5.490603" lat="51.254747"><ele>32.6</ele><time>2022-04-17T08:22:54.000Z</time></trkpt><trkpt lon="5.490708" lat="51.254725"><ele>32.4</ele><time>2022-04-17T08:22:55.000Z</time></trkpt><trkpt lon="5.490816" lat="51.254705"><ele>32.4</ele><time>2022-04-17T08:22:56.000Z</time></trkpt><trkpt lon="5.490924" lat="51.254682"><ele>32.4</ele><time>2022-04-17T08:22:57.000Z</time></trkpt><trkpt lon="5.491032" lat="51.25466"><ele>32.4</ele><time>2022-04-17T08:22:58.000Z</time></trkpt><trkpt lon="5.491133" lat="51.25464"><ele>32.6</ele><time>2022-04-17T08:22:59.000Z</time></trkpt><trkpt lon="5.491233" lat="51.254617"><ele>32.6</ele><time>2022-04-17T08:23:00.000Z</time></trkpt><trkpt lon="5.491337" lat="51.254594"><ele>32.6</ele><time>2022-04-17T08:23:01.000Z</time></trkpt><trkpt lon="5.491441" lat="51.254571"><ele>32.6</ele><time>2022-04-17T08:23:02.000Z</time></trkpt><trkpt lon="5.491542" lat="51.25455"><ele>32.6</ele><time>2022-04-17T08:23:03.000Z</time></trkpt><trkpt lon="5.49164" lat="51.254529"><ele>32.6</ele><time>2022-04-17T08:23:04.000Z</time></trkpt><trkpt lon="5.491739" lat="51.254506"><ele>32.6</ele><time>2022-04-17T08:23:05.000Z</time></trkpt><trkpt lon="5.491833" lat="51.254484"><ele>32.6</ele><time>2022-04-17T08:23:06.000Z</time></trkpt><trkpt lon="5.491928" lat="51.254459"><ele>32.6</ele><time>2022-04-17T08:23:07.000Z</time></trkpt><trkpt lon="5.492026" lat="51.254432"><ele>32.6</ele><time>2022-04-17T08:23:08.000Z</time></trkpt><trkpt lon="5.492125" lat="51.254406"><ele>32.4</ele><time>2022-04-17T08:23:09.000Z</time></trkpt><trkpt lon="5.492223" lat="51.254379"><ele>32.6</ele><time>2022-04-17T08:23:10.000Z</time></trkpt><trkpt lon="5.492319" lat="51.254354"><ele>32.6</ele><time>2022-04-17T08:23:11.000Z</time></trkpt><trkpt lon="5.492415" lat="51.254331"><ele>32.6</ele><time>2022-04-17T08:23:12.000Z</time></trkpt><trkpt lon="5.492506" lat="51.254308"><ele>32.8</ele><time>2022-04-17T08:23:13.000Z</time></trkpt><trkpt lon="5.4926" lat="51.254286"><ele>32.8</ele><time>2022-04-17T08:23:14.000Z</time></trkpt><trkpt lon="5.492692" lat="51.254259"><ele>32.8</ele><time>2022-04-17T08:23:15.000Z</time></trkpt><trkpt lon="5.49278" lat="51.254224"><ele>32.8</ele><time>2022-04-17T08:23:16.000Z</time></trkpt><trkpt lon="5.492869" lat="51.254189"><ele>32.8</ele><time>2022-04-17T08:23:17.000Z</time></trkpt><trkpt lon="5.492957" lat="51.254151"><ele>32.8</ele><time>2022-04-17T08:23:18.000Z</time></trkpt><trkpt lon="5.493046" lat="51.254113"><ele>33</ele><time>2022-04-17T08:23:19.000Z</time></trkpt><trkpt lon="5.493136" lat="51.254074"><ele>33</ele><time>2022-04-17T08:23:20.000Z</time></trkpt><trkpt lon="5.493226" lat="51.254036"><ele>33</ele><time>2022-04-17T08:23:21.000Z</time></trkpt><trkpt lon="5.493319" lat="51.253998"><ele>32.6</ele><time>2022-04-17T08:23:22.000Z</time></trkpt><trkpt lon="5.493412" lat="51.253959"><ele>32.4</ele><time>2022-04-17T08:23:23.000Z</time></trkpt><trkpt lon="5.493506" lat="51.25392"><ele>32.4</ele><time>2022-04-17T08:23:24.000Z</time></trkpt><trkpt lon="5.493599" lat="51.253884"><ele>32.2</ele><time>2022-04-17T08:23:25.000Z</time></trkpt><trkpt lon="5.493692" lat="51.253843"><ele>32</ele><time>2022-04-17T08:23:26.000Z</time></trkpt><trkpt lon="5.493784" lat="51.2538"><ele>32.2</ele><time>2022-04-17T08:23:27.000Z</time></trkpt><trkpt lon="5.493877" lat="51.253763"><ele>32</ele><time>2022-04-17T08:23:28.000Z</time></trkpt><trkpt lon="5.493972" lat="51.253729"><ele>31.8</ele><time>2022-04-17T08:23:29.000Z</time></trkpt><trkpt lon="5.494068" lat="51.253694"><ele>32</ele><time>2022-04-17T08:23:30.000Z</time></trkpt><trkpt lon="5.494164" lat="51.253659"><ele>32</ele><time>2022-04-17T08:23:31.000Z</time></trkpt><trkpt lon="5.494258" lat="51.253622"><ele>32.2</ele><time>2022-04-17T08:23:32.000Z</time></trkpt><trkpt lon="5.494355" lat="51.253588"><ele>32.4</ele><time>2022-04-17T08:23:33.000Z</time></trkpt><trkpt lon="5.494452" lat="51.253554"><ele>32.2</ele><time>2022-04-17T08:23:34.000Z</time></trkpt><trkpt lon="5.494552" lat="51.253522"><ele>32</ele><time>2022-04-17T08:23:35.000Z</time></trkpt><trkpt lon="5.494649" lat="51.253499"><ele>31.8</ele><time>2022-04-17T08:23:36.000Z</time></trkpt><trkpt lon="5.49477" lat="51.253483"><ele>31.8</ele><time>2022-04-17T08:23:37.000Z</time></trkpt><trkpt lon="5.49488" lat="51.253475"><ele>31.6</ele><time>2022-04-17T08:23:38.000Z</time></trkpt><trkpt lon="5.494991" lat="51.253476"><ele>31.6</ele><time>2022-04-17T08:23:39.000Z</time></trkpt><trkpt lon="5.495105" lat="51.253481"><ele>31.4</ele><time>2022-04-17T08:23:40.000Z</time></trkpt><trkpt lon="5.495218" lat="51.253491"><ele>31.4</ele><time>2022-04-17T08:23:41.000Z</time></trkpt><trkpt lon="5.495331" lat="51.253504"><ele>31.4</ele><time>2022-04-17T08:23:42.000Z</time></trkpt><trkpt lon="5.495445" lat="51.253513"><ele>31.2</ele><time>2022-04-17T08:23:43.000Z</time></trkpt><trkpt lon="5.495555" lat="51.253524"><ele>31.2</ele><time>2022-04-17T08:23:44.000Z</time></trkpt><trkpt lon="5.495661" lat="51.253535"><ele>31.2</ele><time>2022-04-17T08:23:45.000Z</time></trkpt><trkpt lon="5.495761" lat="51.253543"><ele>31.2</ele><time>2022-04-17T08:23:46.000Z</time></trkpt><trkpt lon="5.495857" lat="51.253554"><ele>31.2</ele><time>2022-04-17T08:23:47.000Z</time></trkpt><trkpt lon="5.495951" lat="51.253561"><ele>31.2</ele><time>2022-04-17T08:23:48.000Z</time></trkpt><trkpt lon="5.496047" lat="51.25357"><ele>31.2</ele><time>2022-04-17T08:23:49.000Z</time></trkpt><trkpt lon="5.49614" lat="51.253579"><ele>31.2</ele><time>2022-04-17T08:23:50.000Z</time></trkpt><trkpt lon="5.496233" lat="51.253584"><ele>31.4</ele><time>2022-04-17T08:23:51.000Z</time></trkpt><trkpt lon="5.496324" lat="51.253592"><ele>31.4</ele><time>2022-04-17T08:23:52.000Z</time></trkpt><trkpt lon="5.49642" lat="51.253598"><ele>31.4</ele><time>2022-04-17T08:23:53.000Z</time></trkpt><trkpt lon="5.496519" lat="51.253603"><ele>31.4</ele><time>2022-04-17T08:23:54.000Z</time></trkpt><trkpt lon="5.49662" lat="51.253612"><ele>31.6</ele><time>2022-04-17T08:23:55.000Z</time></trkpt><trkpt lon="5.496719" lat="51.253623"><ele>31.8</ele><time>2022-04-17T08:23:56.000Z</time></trkpt><trkpt lon="5.496823" lat="51.253634"><ele>32</ele><time>2022-04-17T08:23:57.000Z</time></trkpt><trkpt lon="5.496918" lat="51.253641"><ele>32.2</ele><time>2022-04-17T08:23:58.000Z</time></trkpt><trkpt lon="5.497013" lat="51.25365"><ele>32.6</ele><time>2022-04-17T08:23:59.000Z</time></trkpt><trkpt lon="5.497111" lat="51.253663"><ele>32.4</ele><time>2022-04-17T08:24:00.000Z</time></trkpt><trkpt lon="5.49721" lat="51.253676"><ele>32.4</ele><time>2022-04-17T08:24:01.000Z</time></trkpt><trkpt lon="5.497312" lat="51.253682"><ele>32.2</ele><time>2022-04-17T08:24:02.000Z</time></trkpt><trkpt lon="5.497413" lat="51.253686"><ele>32.2</ele><time>2022-04-17T08:24:03.000Z</time></trkpt><trkpt lon="5.497528" lat="51.253688"><ele>32.2</ele><time>2022-04-17T08:24:04.000Z</time></trkpt><trkpt lon="5.497641" lat="51.253686"><ele>32.2</ele><time>2022-04-17T08:24:05.000Z</time></trkpt><trkpt lon="5.497751" lat="51.253692"><ele>32.2</ele><time>2022-04-17T08:24:06.000Z</time></trkpt><trkpt lon="5.497876" lat="51.253703"><ele>32.2</ele><time>2022-04-17T08:24:07.000Z</time></trkpt><trkpt lon="5.497993" lat="51.253712"><ele>32.2</ele><time>2022-04-17T08:24:08.000Z</time></trkpt><trkpt lon="5.498117" lat="51.253727"><ele>32.2</ele><time>2022-04-17T08:24:09.000Z</time></trkpt><trkpt lon="5.498238" lat="51.253738"><ele>32.2</ele><time>2022-04-17T08:24:10.000Z</time></trkpt><trkpt lon="5.498354" lat="51.253748"><ele>32.2</ele><time>2022-04-17T08:24:11.000Z</time></trkpt><trkpt lon="5.498467" lat="51.253757"><ele>32.2</ele><time>2022-04-17T08:24:12.000Z</time></trkpt><trkpt lon="5.498588" lat="51.253769"><ele>32.2</ele><time>2022-04-17T08:24:13.000Z</time></trkpt><trkpt lon="5.498708" lat="51.253784"><ele>32.2</ele><time>2022-04-17T08:24:14.000Z</time></trkpt><trkpt lon="5.498818" lat="51.253795"><ele>32.4</ele><time>2022-04-17T08:24:15.000Z</time></trkpt><trkpt lon="5.498928" lat="51.253806"><ele>32.4</ele><time>2022-04-17T08:24:16.000Z</time></trkpt><trkpt lon="5.499045" lat="51.253818"><ele>32.6</ele><time>2022-04-17T08:24:17.000Z</time></trkpt><trkpt lon="5.499157" lat="51.253829"><ele>32.6</ele><time>2022-04-17T08:24:18.000Z</time></trkpt><trkpt lon="5.499271" lat="51.253842"><ele>32.6</ele><time>2022-04-17T08:24:19.000Z</time></trkpt><trkpt lon="5.499387" lat="51.253857"><ele>32.8</ele><time>2022-04-17T08:24:20.000Z</time></trkpt><trkpt lon="5.499504" lat="51.253871"><ele>32.8</ele><time>2022-04-17T08:24:21.000Z</time></trkpt><trkpt lon="5.49962" lat="51.253881"><ele>32.8</ele><time>2022-04-17T08:24:22.000Z</time></trkpt><trkpt lon="5.499728" lat="51.253883"><ele>32.8</ele><time>2022-04-17T08:24:23.000Z</time></trkpt><trkpt lon="5.499829" lat="51.253883"><ele>32.8</ele><time>2022-04-17T08:24:24.000Z</time></trkpt><trkpt lon="5.499932" lat="51.253881"><ele>32.8</ele><time>2022-04-17T08:24:25.000Z</time></trkpt><trkpt lon="5.500035" lat="51.253874"><ele>32.6</ele><time>2022-04-17T08:24:26.000Z</time></trkpt><trkpt lon="5.500134" lat="51.253866"><ele>32.6</ele><time>2022-04-17T08:24:27.000Z</time></trkpt><trkpt lon="5.500232" lat="51.253859"><ele>32.6</ele><time>2022-04-17T08:24:28.000Z</time></trkpt><trkpt lon="5.500335" lat="51.253856"><ele>32.6</ele><time>2022-04-17T08:24:29.000Z</time></trkpt><trkpt lon="5.500444" lat="51.253852"><ele>32.6</ele><time>2022-04-17T08:24:30.000Z</time></trkpt><trkpt lon="5.500554" lat="51.253848"><ele>32.6</ele><time>2022-04-17T08:24:31.000Z</time></trkpt><trkpt lon="5.500673" lat="51.253843"><ele>32.6</ele><time>2022-04-17T08:24:32.000Z</time></trkpt><trkpt lon="5.500787" lat="51.253834"><ele>32.6</ele><time>2022-04-17T08:24:33.000Z</time></trkpt><trkpt lon="5.500898" lat="51.253824"><ele>32.6</ele><time>2022-04-17T08:24:34.000Z</time></trkpt><trkpt lon="5.501007" lat="51.253815"><ele>32.4</ele><time>2022-04-17T08:24:35.000Z</time></trkpt><trkpt lon="5.501115" lat="51.253805"><ele>32.4</ele><time>2022-04-17T08:24:36.000Z</time></trkpt><trkpt lon="5.501229" lat="51.253798"><ele>32.2</ele><time>2022-04-17T08:24:37.000Z</time></trkpt><trkpt lon="5.501338" lat="51.253795"><ele>32.2</ele><time>2022-04-17T08:24:38.000Z</time></trkpt><trkpt lon="5.501445" lat="51.253788"><ele>32.2</ele><time>2022-04-17T08:24:39.000Z</time></trkpt><trkpt lon="5.501552" lat="51.253778"><ele>32.2</ele><time>2022-04-17T08:24:40.000Z</time></trkpt><trkpt lon="5.501663" lat="51.253771"><ele>32.2</ele><time>2022-04-17T08:24:41.000Z</time></trkpt><trkpt lon="5.501777" lat="51.253763"><ele>32.2</ele><time>2022-04-17T08:24:42.000Z</time></trkpt><trkpt lon="5.501889" lat="51.253755"><ele>32</ele><time>2022-04-17T08:24:43.000Z</time></trkpt><trkpt lon="5.502007" lat="51.253748"><ele>32.2</ele><time>2022-04-17T08:24:44.000Z</time></trkpt><trkpt lon="5.502122" lat="51.253741"><ele>32</ele><time>2022-04-17T08:24:45.000Z</time></trkpt><trkpt lon="5.502234" lat="51.253736"><ele>32</ele><time>2022-04-17T08:24:46.000Z</time></trkpt><trkpt lon="5.502349" lat="51.253731"><ele>31.8</ele><time>2022-04-17T08:24:47.000Z</time></trkpt><trkpt lon="5.502461" lat="51.25373"><ele>31.8</ele><time>2022-04-17T08:24:48.000Z</time></trkpt><trkpt lon="5.502574" lat="51.253728"><ele>31.8</ele><time>2022-04-17T08:24:49.000Z</time></trkpt><trkpt lon="5.502682" lat="51.25373"><ele>31.6</ele><time>2022-04-17T08:24:50.000Z</time></trkpt><trkpt lon="5.502787" lat="51.253726"><ele>31.6</ele><time>2022-04-17T08:24:51.000Z</time></trkpt><trkpt lon="5.502902" lat="51.253723"><ele>31.6</ele><time>2022-04-17T08:24:52.000Z</time></trkpt><trkpt lon="5.503018" lat="51.253722"><ele>31.6</ele><time>2022-04-17T08:24:53.000Z</time></trkpt><trkpt lon="5.503137" lat="51.253717"><ele>31.6</ele><time>2022-04-17T08:24:54.000Z</time></trkpt><trkpt lon="5.503266" lat="51.25371"><ele>31.4</ele><time>2022-04-17T08:24:55.000Z</time></trkpt><trkpt lon="5.503406" lat="51.253702"><ele>31.4</ele><time>2022-04-17T08:24:56.000Z</time></trkpt><trkpt lon="5.503539" lat="51.253694"><ele>31.4</ele><time>2022-04-17T08:24:57.000Z</time></trkpt><trkpt lon="5.503665" lat="51.253687"><ele>31.4</ele><time>2022-04-17T08:24:58.000Z</time></trkpt><trkpt lon="5.503799" lat="51.253679"><ele>31.4</ele><time>2022-04-17T08:24:59.000Z</time></trkpt><trkpt lon="5.503926" lat="51.253671"><ele>31.4</ele><time>2022-04-17T08:25:00.000Z</time></trkpt><trkpt lon="5.504046" lat="51.253664"><ele>31.4</ele><time>2022-04-17T08:25:01.000Z</time></trkpt><trkpt lon="5.504162" lat="51.253655"><ele>31.4</ele><time>2022-04-17T08:25:02.000Z</time></trkpt><trkpt lon="5.504284" lat="51.253649"><ele>31.4</ele><time>2022-04-17T08:25:03.000Z</time></trkpt><trkpt lon="5.504412" lat="51.253654"><ele>31.4</ele><time>2022-04-17T08:25:04.000Z</time></trkpt><trkpt lon="5.504534" lat="51.253653"><ele>31.4</ele><time>2022-04-17T08:25:05.000Z</time></trkpt><trkpt lon="5.504649" lat="51.25365"><ele>31.6</ele><time>2022-04-17T08:25:06.000Z</time></trkpt><trkpt lon="5.504766" lat="51.253646"><ele>31.6</ele><time>2022-04-17T08:25:07.000Z</time></trkpt><trkpt lon="5.504881" lat="51.253643"><ele>31.6</ele><time>2022-04-17T08:25:08.000Z</time></trkpt><trkpt lon="5.504995" lat="51.253642"><ele>31.6</ele><time>2022-04-17T08:25:09.000Z</time></trkpt><trkpt lon="5.505103" lat="51.253636"><ele>31.6</ele><time>2022-04-17T08:25:10.000Z</time></trkpt><trkpt lon="5.505215" lat="51.253626"><ele>31.8</ele><time>2022-04-17T08:25:11.000Z</time></trkpt><trkpt lon="5.505327" lat="51.253618"><ele>31.8</ele><time>2022-04-17T08:25:12.000Z</time></trkpt><trkpt lon="5.505436" lat="51.253611"><ele>32</ele><time>2022-04-17T08:25:13.000Z</time></trkpt><trkpt lon="5.505542" lat="51.253608"><ele>32.2</ele><time>2022-04-17T08:25:14.000Z</time></trkpt><trkpt lon="5.505646" lat="51.253603"><ele>32.4</ele><time>2022-04-17T08:25:15.000Z</time></trkpt><trkpt lon="5.505749" lat="51.253597"><ele>32.6</ele><time>2022-04-17T08:25:16.000Z</time></trkpt><trkpt lon="5.505851" lat="51.253595"><ele>32.8</ele><time>2022-04-17T08:25:17.000Z</time></trkpt><trkpt lon="5.505958" lat="51.253586"><ele>32.8</ele><time>2022-04-17T08:25:18.000Z</time></trkpt><trkpt lon="5.506072" lat="51.253574"><ele>32.8</ele><time>2022-04-17T08:25:19.000Z</time></trkpt><trkpt lon="5.506181" lat="51.253557"><ele>33</ele><time>2022-04-17T08:25:20.000Z</time></trkpt><trkpt lon="5.506292" lat="51.253534"><ele>33</ele><time>2022-04-17T08:25:21.000Z</time></trkpt><trkpt lon="5.506397" lat="51.253511"><ele>33</ele><time>2022-04-17T08:25:22.000Z</time></trkpt><trkpt lon="5.506506" lat="51.253486"><ele>33</ele><time>2022-04-17T08:25:23.000Z</time></trkpt><trkpt lon="5.506617" lat="51.25346"><ele>33</ele><time>2022-04-17T08:25:24.000Z</time></trkpt><trkpt lon="5.506731" lat="51.253432"><ele>33</ele><time>2022-04-17T08:25:25.000Z</time></trkpt><trkpt lon="5.50684" lat="51.253399"><ele>33</ele><time>2022-04-17T08:25:26.000Z</time></trkpt><trkpt lon="5.506944" lat="51.253371"><ele>32.8</ele><time>2022-04-17T08:25:27.000Z</time></trkpt><trkpt lon="5.507046" lat="51.25334"><ele>32.6</ele><time>2022-04-17T08:25:28.000Z</time></trkpt><trkpt lon="5.507144" lat="51.253311"><ele>32.4</ele><time>2022-04-17T08:25:29.000Z</time></trkpt><trkpt lon="5.507238" lat="51.253283"><ele>32.2</ele><time>2022-04-17T08:25:30.000Z</time></trkpt><trkpt lon="5.507338" lat="51.253254"><ele>32.2</ele><time>2022-04-17T08:25:31.000Z</time></trkpt><trkpt lon="5.507437" lat="51.253226"><ele>32.4</ele><time>2022-04-17T08:25:32.000Z</time></trkpt><trkpt lon="5.507537" lat="51.253196"><ele>32.6</ele><time>2022-04-17T08:25:33.000Z</time></trkpt><trkpt lon="5.507639" lat="51.253166"><ele>33</ele><time>2022-04-17T08:25:34.000Z</time></trkpt><trkpt lon="5.50774" lat="51.253138"><ele>33.2</ele><time>2022-04-17T08:25:35.000Z</time></trkpt><trkpt lon="5.507845" lat="51.253109"><ele>33.2</ele><time>2022-04-17T08:25:36.000Z</time></trkpt><trkpt lon="5.507952" lat="51.253082"><ele>33.4</ele><time>2022-04-17T08:25:37.000Z</time></trkpt><trkpt lon="5.508057" lat="51.253054"><ele>33.4</ele><time>2022-04-17T08:25:38.000Z</time></trkpt><trkpt lon="5.508159" lat="51.253025"><ele>33.6</ele><time>2022-04-17T08:25:39.000Z</time></trkpt><trkpt lon="5.508259" lat="51.252998"><ele>33.6</ele><time>2022-04-17T08:25:40.000Z</time></trkpt><trkpt lon="5.508359" lat="51.252967"><ele>33.8</ele><time>2022-04-17T08:25:41.000Z</time></trkpt><trkpt lon="5.508459" lat="51.252937"><ele>33.8</ele><time>2022-04-17T08:25:42.000Z</time></trkpt><trkpt lon="5.508561" lat="51.25291"><ele>34</ele><time>2022-04-17T08:25:43.000Z</time></trkpt><trkpt lon="5.508667" lat="51.252879"><ele>34</ele><time>2022-04-17T08:25:44.000Z</time></trkpt><trkpt lon="5.508775" lat="51.252848"><ele>33.8</ele><time>2022-04-17T08:25:45.000Z</time></trkpt><trkpt lon="5.508884" lat="51.252813"><ele>33.8</ele><time>2022-04-17T08:25:46.000Z</time></trkpt><trkpt lon="5.508992" lat="51.25278"><ele>33.4</ele><time>2022-04-17T08:25:47.000Z</time></trkpt><trkpt lon="5.509096" lat="51.252748"><ele>33.4</ele><time>2022-04-17T08:25:48.000Z</time></trkpt><trkpt lon="5.509201" lat="51.252715"><ele>33.4</ele><time>2022-04-17T08:25:49.000Z</time></trkpt><trkpt lon="5.509308" lat="51.252683"><ele>33.4</ele><time>2022-04-17T08:25:50.000Z</time></trkpt><trkpt lon="5.509413" lat="51.25265"><ele>33.4</ele><time>2022-04-17T08:25:51.000Z</time></trkpt><trkpt lon="5.509516" lat="51.252619"><ele>33.4</ele><time>2022-04-17T08:25:52.000Z</time></trkpt><trkpt lon="5.509615" lat="51.252589"><ele>33.6</ele><time>2022-04-17T08:25:53.000Z</time></trkpt><trkpt lon="5.509712" lat="51.252559"><ele>33.6</ele><time>2022-04-17T08:25:54.000Z</time></trkpt><trkpt lon="5.509816" lat="51.252527"><ele>33.8</ele><time>2022-04-17T08:25:55.000Z</time></trkpt><trkpt lon="5.509917" lat="51.252494"><ele>33.8</ele><time>2022-04-17T08:25:56.000Z</time></trkpt><trkpt lon="5.510023" lat="51.252463"><ele>33.6</ele><time>2022-04-17T08:25:57.000Z</time></trkpt><trkpt lon="5.510125" lat="51.252433"><ele>33.6</ele><time>2022-04-17T08:25:58.000Z</time></trkpt><trkpt lon="5.510228" lat="51.252401"><ele>33.4</ele><time>2022-04-17T08:25:59.000Z</time></trkpt><trkpt lon="5.51033" lat="51.252368"><ele>33</ele><time>2022-04-17T08:26:00.000Z</time></trkpt><trkpt lon="5.510433" lat="51.252337"><ele>32.8</ele><time>2022-04-17T08:26:01.000Z</time></trkpt><trkpt lon="5.510539" lat="51.252307"><ele>32.6</ele><time>2022-04-17T08:26:02.000Z</time></trkpt><trkpt lon="5.510643" lat="51.252277"><ele>32.6</ele><time>2022-04-17T08:26:03.000Z</time></trkpt><trkpt lon="5.510748" lat="51.252245"><ele>32.4</ele><time>2022-04-17T08:26:04.000Z</time></trkpt><trkpt lon="5.51085" lat="51.252213"><ele>32.4</ele><time>2022-04-17T08:26:05.000Z</time></trkpt><trkpt lon="5.510951" lat="51.252185"><ele>32.4</ele><time>2022-04-17T08:26:06.000Z</time></trkpt><trkpt lon="5.511063" lat="51.252149"><ele>32.4</ele><time>2022-04-17T08:26:07.000Z</time></trkpt><trkpt lon="5.511169" lat="51.252115"><ele>32.2</ele><time>2022-04-17T08:26:08.000Z</time></trkpt><trkpt lon="5.511271" lat="51.252083"><ele>32.2</ele><time>2022-04-17T08:26:09.000Z</time></trkpt><trkpt lon="5.511375" lat="51.252056"><ele>32.2</ele><time>2022-04-17T08:26:10.000Z</time></trkpt><trkpt lon="5.511481" lat="51.252031"><ele>32.2</ele><time>2022-04-17T08:26:11.000Z</time></trkpt><trkpt lon="5.511593" lat="51.252009"><ele>32.2</ele><time>2022-04-17T08:26:12.000Z</time></trkpt><trkpt lon="5.511703" lat="51.25199"><ele>32.4</ele><time>2022-04-17T08:26:13.000Z</time></trkpt><trkpt lon="5.511816" lat="51.251972"><ele>32.4</ele><time>2022-04-17T08:26:14.000Z</time></trkpt><trkpt lon="5.511928" lat="51.25196"><ele>32.4</ele><time>2022-04-17T08:26:15.000Z</time></trkpt><trkpt lon="5.512034" lat="51.251956"><ele>32.4</ele><time>2022-04-17T08:26:16.000Z</time></trkpt><trkpt lon="5.512136" lat="51.251953"><ele>32.4</ele><time>2022-04-17T08:26:17.000Z</time></trkpt><trkpt lon="5.512235" lat="51.251952"><ele>32.4</ele><time>2022-04-17T08:26:18.000Z</time></trkpt><trkpt lon="5.512337" lat="51.25195"><ele>32.4</ele><time>2022-04-17T08:26:19.000Z</time></trkpt><trkpt lon="5.512437" lat="51.251953"><ele>32.6</ele><time>2022-04-17T08:26:20.000Z</time></trkpt><trkpt lon="5.51254" lat="51.251953"><ele>32.4</ele><time>2022-04-17T08:26:21.000Z</time></trkpt><trkpt lon="5.512645" lat="51.251954"><ele>32.6</ele><time>2022-04-17T08:26:22.000Z</time></trkpt><trkpt lon="5.512755" lat="51.251957"><ele>32.6</ele><time>2022-04-17T08:26:23.000Z</time></trkpt><trkpt lon="5.51287" lat="51.251958"><ele>32.6</ele><time>2022-04-17T08:26:24.000Z</time></trkpt><trkpt lon="5.512988" lat="51.251962"><ele>32.8</ele><time>2022-04-17T08:26:25.000Z</time></trkpt><trkpt lon="5.513106" lat="51.251965"><ele>32.8</ele><time>2022-04-17T08:26:26.000Z</time></trkpt><trkpt lon="5.513222" lat="51.251966"><ele>33</ele><time>2022-04-17T08:26:27.000Z</time></trkpt><trkpt lon="5.513334" lat="51.251969"><ele>33.2</ele><time>2022-04-17T08:26:28.000Z</time></trkpt><trkpt lon="5.513449" lat="51.251973"><ele>33.4</ele><time>2022-04-17T08:26:29.000Z</time></trkpt><trkpt lon="5.513566" lat="51.251977"><ele>33.4</ele><time>2022-04-17T08:26:30.000Z</time></trkpt><trkpt lon="5.513685" lat="51.251981"><ele>33.2</ele><time>2022-04-17T08:26:31.000Z</time></trkpt><trkpt lon="5.513805" lat="51.251985"><ele>33.2</ele><time>2022-04-17T08:26:32.000Z</time></trkpt><trkpt lon="5.513925" lat="51.251989"><ele>33</ele><time>2022-04-17T08:26:33.000Z</time></trkpt><trkpt lon="5.514042" lat="51.251992"><ele>32.8</ele><time>2022-04-17T08:26:34.000Z</time></trkpt><trkpt lon="5.514148" lat="51.251996"><ele>32.8</ele><time>2022-04-17T08:26:35.000Z</time></trkpt><trkpt lon="5.514254" lat="51.251999"><ele>32.6</ele><time>2022-04-17T08:26:36.000Z</time></trkpt><trkpt lon="5.514389" lat="51.252003"><ele>32.4</ele><time>2022-04-17T08:26:37.000Z</time></trkpt><trkpt lon="5.514502" lat="51.252004"><ele>32.2</ele><time>2022-04-17T08:26:38.000Z</time></trkpt><trkpt lon="5.514615" lat="51.252007"><ele>32.4</ele><time>2022-04-17T08:26:39.000Z</time></trkpt><trkpt lon="5.514729" lat="51.252007"><ele>32.2</ele><time>2022-04-17T08:26:40.000Z</time></trkpt><trkpt lon="5.51484" lat="51.252008"><ele>32.2</ele><time>2022-04-17T08:26:41.000Z</time></trkpt><trkpt lon="5.514954" lat="51.252011"><ele>32.2</ele><time>2022-04-17T08:26:42.000Z</time></trkpt><trkpt lon="5.515065" lat="51.252015"><ele>32.2</ele><time>2022-04-17T08:26:43.000Z</time></trkpt><trkpt lon="5.515176" lat="51.252021"><ele>32.2</ele><time>2022-04-17T08:26:44.000Z</time></trkpt><trkpt lon="5.515287" lat="51.252032"><ele>32</ele><time>2022-04-17T08:26:45.000Z</time></trkpt><trkpt lon="5.515393" lat="51.25204"><ele>31.8</ele><time>2022-04-17T08:26:46.000Z</time></trkpt><trkpt lon="5.515501" lat="51.252053"><ele>31.8</ele><time>2022-04-17T08:26:47.000Z</time></trkpt><trkpt lon="5.515616" lat="51.252068"><ele>31.6</ele><time>2022-04-17T08:26:48.000Z</time></trkpt><trkpt lon="5.515728" lat="51.252083"><ele>31.4</ele><time>2022-04-17T08:26:49.000Z</time></trkpt><trkpt lon="5.515841" lat="51.252098"><ele>31.4</ele><time>2022-04-17T08:26:50.000Z</time></trkpt><trkpt lon="5.515957" lat="51.252114"><ele>31.4</ele><time>2022-04-17T08:26:51.000Z</time></trkpt><trkpt lon="5.516071" lat="51.252129"><ele>31.4</ele><time>2022-04-17T08:26:52.000Z</time></trkpt><trkpt lon="5.516182" lat="51.252144"><ele>31.4</ele><time>2022-04-17T08:26:53.000Z</time></trkpt><trkpt lon="5.516295" lat="51.25216"><ele>31.2</ele><time>2022-04-17T08:26:54.000Z</time></trkpt><trkpt lon="5.516407" lat="51.252175"><ele>31.2</ele><time>2022-04-17T08:26:55.000Z</time></trkpt><trkpt lon="5.516516" lat="51.25219"><ele>31.4</ele><time>2022-04-17T08:26:56.000Z</time></trkpt><trkpt lon="5.516624" lat="51.252206"><ele>31.4</ele><time>2022-04-17T08:26:57.000Z</time></trkpt><trkpt lon="5.516734" lat="51.252226"><ele>31.4</ele><time>2022-04-17T08:26:58.000Z</time></trkpt><trkpt lon="5.516844" lat="51.252245"><ele>31.4</ele><time>2022-04-17T08:26:59.000Z</time></trkpt><trkpt lon="5.516953" lat="51.252263"><ele>31.4</ele><time>2022-04-17T08:27:00.000Z</time></trkpt><trkpt lon="5.517061" lat="51.252278"><ele>31.4</ele><time>2022-04-17T08:27:01.000Z</time></trkpt><trkpt lon="5.517173" lat="51.252294"><ele>31.4</ele><time>2022-04-17T08:27:02.000Z</time></trkpt><trkpt lon="5.517281" lat="51.252313"><ele>31.6</ele><time>2022-04-17T08:27:03.000Z</time></trkpt><trkpt lon="5.51739" lat="51.252331"><ele>31.8</ele><time>2022-04-17T08:27:04.000Z</time></trkpt><trkpt lon="5.517496" lat="51.252345"><ele>32</ele><time>2022-04-17T08:27:05.000Z</time></trkpt><trkpt lon="5.517603" lat="51.252358"><ele>32</ele><time>2022-04-17T08:27:06.000Z</time></trkpt><trkpt lon="5.517718" lat="51.252377"><ele>32.2</ele><time>2022-04-17T08:27:07.000Z</time></trkpt><trkpt lon="5.517825" lat="51.252392"><ele>32.2</ele><time>2022-04-17T08:27:08.000Z</time></trkpt><trkpt lon="5.517934" lat="51.252408"><ele>32.2</ele><time>2022-04-17T08:27:09.000Z</time></trkpt><trkpt lon="5.518042" lat="51.252422"><ele>32.4</ele><time>2022-04-17T08:27:10.000Z</time></trkpt><trkpt lon="5.518149" lat="51.252434"><ele>32.4</ele><time>2022-04-17T08:27:11.000Z</time></trkpt><trkpt lon="5.518254" lat="51.25245"><ele>32.4</ele><time>2022-04-17T08:27:12.000Z</time></trkpt><trkpt lon="5.51836" lat="51.252466"><ele>32.6</ele><time>2022-04-17T08:27:13.000Z</time></trkpt><trkpt lon="5.518465" lat="51.252484"><ele>32.8</ele><time>2022-04-17T08:27:14.000Z</time></trkpt><trkpt lon="5.518574" lat="51.252499"><ele>32.8</ele><time>2022-04-17T08:27:15.000Z</time></trkpt><trkpt lon="5.518679" lat="51.252513"><ele>32.8</ele><time>2022-04-17T08:27:16.000Z</time></trkpt><trkpt lon="5.518779" lat="51.252526"><ele>32.8</ele><time>2022-04-17T08:27:17.000Z</time></trkpt><trkpt lon="5.518882" lat="51.252542"><ele>32.8</ele><time>2022-04-17T08:27:18.000Z</time></trkpt><trkpt lon="5.518991" lat="51.25256"><ele>32.8</ele><time>2022-04-17T08:27:19.000Z</time></trkpt><trkpt lon="5.519098" lat="51.252576"><ele>32.8</ele><time>2022-04-17T08:27:20.000Z</time></trkpt><trkpt lon="5.519206" lat="51.252593"><ele>32.8</ele><time>2022-04-17T08:27:21.000Z</time></trkpt><trkpt lon="5.51931" lat="51.252607"><ele>32.8</ele><time>2022-04-17T08:27:22.000Z</time></trkpt><trkpt lon="5.519413" lat="51.252625"><ele>33</ele><time>2022-04-17T08:27:23.000Z</time></trkpt><trkpt lon="5.519516" lat="51.252641"><ele>33</ele><time>2022-04-17T08:27:24.000Z</time></trkpt><trkpt lon="5.51962" lat="51.252658"><ele>33</ele><time>2022-04-17T08:27:25.000Z</time></trkpt><trkpt lon="5.519731" lat="51.252669"><ele>33</ele><time>2022-04-17T08:27:26.000Z</time></trkpt><trkpt lon="5.519839" lat="51.252675"><ele>33</ele><time>2022-04-17T08:27:27.000Z</time></trkpt><trkpt lon="5.519946" lat="51.252679"><ele>33</ele><time>2022-04-17T08:27:28.000Z</time></trkpt><trkpt lon="5.520056" lat="51.252682"><ele>33</ele><time>2022-04-17T08:27:29.000Z</time></trkpt><trkpt lon="5.520168" lat="51.252683"><ele>33</ele><time>2022-04-17T08:27:30.000Z</time></trkpt><trkpt lon="5.520283" lat="51.252686"><ele>33</ele><time>2022-04-17T08:27:31.000Z</time></trkpt><trkpt lon="5.5204" lat="51.252687"><ele>33</ele><time>2022-04-17T08:27:32.000Z</time></trkpt><trkpt lon="5.520518" lat="51.25269"><ele>33</ele><time>2022-04-17T08:27:33.000Z</time></trkpt><trkpt lon="5.520641" lat="51.252693"><ele>33</ele><time>2022-04-17T08:27:34.000Z</time></trkpt><trkpt lon="5.520757" lat="51.252694"><ele>33.2</ele><time>2022-04-17T08:27:35.000Z</time></trkpt><trkpt lon="5.520861" lat="51.252698"><ele>33.2</ele><time>2022-04-17T08:27:36.000Z</time></trkpt><trkpt lon="5.520993" lat="51.252702"><ele>33.2</ele><time>2022-04-17T08:27:37.000Z</time></trkpt><trkpt lon="5.521107" lat="51.252706"><ele>33.2</ele><time>2022-04-17T08:27:38.000Z</time></trkpt><trkpt lon="5.521217" lat="51.252708"><ele>33.4</ele><time>2022-04-17T08:27:39.000Z</time></trkpt><trkpt lon="5.521323" lat="51.252709"><ele>33.4</ele><time>2022-04-17T08:27:40.000Z</time></trkpt><trkpt lon="5.52143" lat="51.252712"><ele>33.4</ele><time>2022-04-17T08:27:41.000Z</time></trkpt><trkpt lon="5.521534" lat="51.252713"><ele>33.4</ele><time>2022-04-17T08:27:42.000Z</time></trkpt><trkpt lon="5.521638" lat="51.252716"><ele>33.6</ele><time>2022-04-17T08:27:43.000Z</time></trkpt><trkpt lon="5.521744" lat="51.252716"><ele>33.6</ele><time>2022-04-17T08:27:44.000Z</time></trkpt><trkpt lon="5.521851" lat="51.252717"><ele>33.6</ele><time>2022-04-17T08:27:45.000Z</time></trkpt><trkpt lon="5.521956" lat="51.252721"><ele>33.6</ele><time>2022-04-17T08:27:46.000Z</time></trkpt><trkpt lon="5.522066" lat="51.252724"><ele>33.6</ele><time>2022-04-17T08:27:47.000Z</time></trkpt><trkpt lon="5.522181" lat="51.252724"><ele>33.6</ele><time>2022-04-17T08:27:48.000Z</time></trkpt><trkpt lon="5.522292" lat="51.252725"><ele>33.6</ele><time>2022-04-17T08:27:49.000Z</time></trkpt><trkpt lon="5.522403" lat="51.252729"><ele>33.4</ele><time>2022-04-17T08:27:50.000Z</time></trkpt><trkpt lon="5.522516" lat="51.252732"><ele>33.2</ele><time>2022-04-17T08:27:51.000Z</time></trkpt><trkpt lon="5.522632" lat="51.252735"><ele>33</ele><time>2022-04-17T08:27:52.000Z</time></trkpt><trkpt lon="5.522748" lat="51.252736"><ele>33</ele><time>2022-04-17T08:27:53.000Z</time></trkpt><trkpt lon="5.522861" lat="51.252739"><ele>33</ele><time>2022-04-17T08:27:54.000Z</time></trkpt><trkpt lon="5.522979" lat="51.25274"><ele>33</ele><time>2022-04-17T08:27:55.000Z</time></trkpt><trkpt lon="5.523091" lat="51.252743"><ele>32.8</ele><time>2022-04-17T08:27:56.000Z</time></trkpt><trkpt lon="5.523197" lat="51.252743"><ele>32.8</ele><time>2022-04-17T08:27:57.000Z</time></trkpt><trkpt lon="5.523309" lat="51.252743"><ele>33</ele><time>2022-04-17T08:27:58.000Z</time></trkpt><trkpt lon="5.523421" lat="51.252743"><ele>33</ele><time>2022-04-17T08:27:59.000Z</time></trkpt><trkpt lon="5.523532" lat="51.252744"><ele>33.2</ele><time>2022-04-17T08:28:00.000Z</time></trkpt><trkpt lon="5.523646" lat="51.252748"><ele>33.2</ele><time>2022-04-17T08:28:01.000Z</time></trkpt><trkpt lon="5.523759" lat="51.252753"><ele>33</ele><time>2022-04-17T08:28:02.000Z</time></trkpt><trkpt lon="5.523871" lat="51.252761"><ele>33.2</ele><time>2022-04-17T08:28:03.000Z</time></trkpt><trkpt lon="5.523985" lat="51.252774"><ele>33.2</ele><time>2022-04-17T08:28:04.000Z</time></trkpt><trkpt lon="5.524094" lat="51.252789"><ele>33.2</ele><time>2022-04-17T08:28:05.000Z</time></trkpt><trkpt lon="5.524196" lat="51.252809"><ele>33.2</ele><time>2022-04-17T08:28:06.000Z</time></trkpt><trkpt lon="5.524314" lat="51.252837"><ele>33.2</ele><time>2022-04-17T08:28:07.000Z</time></trkpt><trkpt lon="5.524417" lat="51.252861"><ele>33</ele><time>2022-04-17T08:28:08.000Z</time></trkpt><trkpt lon="5.524524" lat="51.252888"><ele>33</ele><time>2022-04-17T08:28:09.000Z</time></trkpt><trkpt lon="5.524631" lat="51.252914"><ele>32.8</ele><time>2022-04-17T08:28:10.000Z</time></trkpt><trkpt lon="5.524738" lat="51.252939"><ele>32.8</ele><time>2022-04-17T08:28:11.000Z</time></trkpt><trkpt lon="5.524848" lat="51.252957"><ele>32.6</ele><time>2022-04-17T08:28:12.000Z</time></trkpt><trkpt lon="5.524963" lat="51.252968"><ele>32.8</ele><time>2022-04-17T08:28:13.000Z</time></trkpt><trkpt lon="5.525077" lat="51.252967"><ele>32.8</ele><time>2022-04-17T08:28:14.000Z</time></trkpt><trkpt lon="5.525188" lat="51.252963"><ele>32.8</ele><time>2022-04-17T08:28:15.000Z</time></trkpt><trkpt lon="5.525302" lat="51.252958"><ele>32.8</ele><time>2022-04-17T08:28:16.000Z</time></trkpt><trkpt lon="5.525416" lat="51.25295"><ele>32.8</ele><time>2022-04-17T08:28:17.000Z</time></trkpt><trkpt lon="5.525531" lat="51.252944"><ele>32.8</ele><time>2022-04-17T08:28:18.000Z</time></trkpt><trkpt lon="5.525645" lat="51.252939"><ele>32.8</ele><time>2022-04-17T08:28:19.000Z</time></trkpt><trkpt lon="5.525759" lat="51.252933"><ele>32.8</ele><time>2022-04-17T08:28:20.000Z</time></trkpt><trkpt lon="5.525872" lat="51.252931"><ele>32.6</ele><time>2022-04-17T08:28:21.000Z</time></trkpt><trkpt lon="5.525984" lat="51.252925"><ele>32.8</ele><time>2022-04-17T08:28:22.000Z</time></trkpt><trkpt lon="5.526097" lat="51.252922"><ele>32.6</ele><time>2022-04-17T08:28:23.000Z</time></trkpt><trkpt lon="5.52621" lat="51.252925"><ele>32.6</ele><time>2022-04-17T08:28:24.000Z</time></trkpt><trkpt lon="5.52632" lat="51.25294"><ele>32.4</ele><time>2022-04-17T08:28:25.000Z</time></trkpt><trkpt lon="5.526426" lat="51.252964"><ele>32.4</ele><time>2022-04-17T08:28:26.000Z</time></trkpt><trkpt lon="5.526528" lat="51.252992"><ele>32.2</ele><time>2022-04-17T08:28:27.000Z</time></trkpt><trkpt lon="5.526628" lat="51.253023"><ele>32</ele><time>2022-04-17T08:28:28.000Z</time></trkpt><trkpt lon="5.526729" lat="51.253058"><ele>32.2</ele><time>2022-04-17T08:28:29.000Z</time></trkpt><trkpt lon="5.526827" lat="51.253093"><ele>32.2</ele><time>2022-04-17T08:28:30.000Z</time></trkpt><trkpt lon="5.526921" lat="51.25313"><ele>32.2</ele><time>2022-04-17T08:28:31.000Z</time></trkpt><trkpt lon="5.527019" lat="51.253168"><ele>32.4</ele><time>2022-04-17T08:28:32.000Z</time></trkpt><trkpt lon="5.52711" lat="51.253203"><ele>32.4</ele><time>2022-04-17T08:28:33.000Z</time></trkpt><trkpt lon="5.527198" lat="51.253237"><ele>32.4</ele><time>2022-04-17T08:28:34.000Z</time></trkpt><trkpt lon="5.527287" lat="51.253272"><ele>32.4</ele><time>2022-04-17T08:28:35.000Z</time></trkpt><trkpt lon="5.527378" lat="51.25331"><ele>32.4</ele><time>2022-04-17T08:28:36.000Z</time></trkpt><trkpt lon="5.527465" lat="51.253348"><ele>32.4</ele><time>2022-04-17T08:28:37.000Z</time></trkpt><trkpt lon="5.527554" lat="51.253382"><ele>32.4</ele><time>2022-04-17T08:28:38.000Z</time></trkpt><trkpt lon="5.527643" lat="51.253417"><ele>32.4</ele><time>2022-04-17T08:28:39.000Z</time></trkpt><trkpt lon="5.527733" lat="51.25345"><ele>32.4</ele><time>2022-04-17T08:28:40.000Z</time></trkpt><trkpt lon="5.527824" lat="51.253479"><ele>32.2</ele><time>2022-04-17T08:28:41.000Z</time></trkpt><trkpt lon="5.527924" lat="51.253499"><ele>32.2</ele><time>2022-04-17T08:28:42.000Z</time></trkpt><trkpt lon="5.528024" lat="51.253498"><ele>32.2</ele><time>2022-04-17T08:28:43.000Z</time></trkpt><trkpt lon="5.528125" lat="51.253479"><ele>32.2</ele><time>2022-04-17T08:28:44.000Z</time></trkpt><trkpt lon="5.528227" lat="51.253451"><ele>32.2</ele><time>2022-04-17T08:28:45.000Z</time></trkpt><trkpt lon="5.528329" lat="51.253421"><ele>32.2</ele><time>2022-04-17T08:28:46.000Z</time></trkpt><trkpt lon="5.528433" lat="51.253389"><ele>32.2</ele><time>2022-04-17T08:28:47.000Z</time></trkpt><trkpt lon="5.528534" lat="51.253355"><ele>32.2</ele><time>2022-04-17T08:28:48.000Z</time></trkpt><trkpt lon="5.528635" lat="51.253321"><ele>32.4</ele><time>2022-04-17T08:28:49.000Z</time></trkpt><trkpt lon="5.528736" lat="51.253291"><ele>32.4</ele><time>2022-04-17T08:28:50.000Z</time></trkpt><trkpt lon="5.528837" lat="51.253259"><ele>32.4</ele><time>2022-04-17T08:28:51.000Z</time></trkpt><trkpt lon="5.528939" lat="51.253227"><ele>32.4</ele><time>2022-04-17T08:28:52.000Z</time></trkpt><trkpt lon="5.529041" lat="51.253199"><ele>32.4</ele><time>2022-04-17T08:28:53.000Z</time></trkpt><trkpt lon="5.529144" lat="51.253169"><ele>32.4</ele><time>2022-04-17T08:28:54.000Z</time></trkpt><trkpt lon="5.529248" lat="51.253138"><ele>32.4</ele><time>2022-04-17T08:28:55.000Z</time></trkpt><trkpt lon="5.52935" lat="51.253109"><ele>32.4</ele><time>2022-04-17T08:28:56.000Z</time></trkpt><trkpt lon="5.529452" lat="51.253081"><ele>32.4</ele><time>2022-04-17T08:28:57.000Z</time></trkpt><trkpt lon="5.529551" lat="51.253051"><ele>32.2</ele><time>2022-04-17T08:28:58.000Z</time></trkpt><trkpt lon="5.529654" lat="51.253021"><ele>32</ele><time>2022-04-17T08:28:59.000Z</time></trkpt><trkpt lon="5.529758" lat="51.252995"><ele>32</ele><time>2022-04-17T08:29:00.000Z</time></trkpt><trkpt lon="5.529861" lat="51.252974"><ele>32</ele><time>2022-04-17T08:29:01.000Z</time></trkpt><trkpt lon="5.529967" lat="51.252956"><ele>32</ele><time>2022-04-17T08:29:02.000Z</time></trkpt><trkpt lon="5.530072" lat="51.252941"><ele>32</ele><time>2022-04-17T08:29:03.000Z</time></trkpt><trkpt lon="5.530184" lat="51.252925"><ele>32</ele><time>2022-04-17T08:29:04.000Z</time></trkpt><trkpt lon="5.530293" lat="51.252911"><ele>32.2</ele><time>2022-04-17T08:29:05.000Z</time></trkpt><trkpt lon="5.530401" lat="51.252899"><ele>32.4</ele><time>2022-04-17T08:29:06.000Z</time></trkpt><trkpt lon="5.53052" lat="51.252882"><ele>32.4</ele><time>2022-04-17T08:29:07.000Z</time></trkpt><trkpt lon="5.53063" lat="51.252864"><ele>32.6</ele><time>2022-04-17T08:29:08.000Z</time></trkpt><trkpt lon="5.53074" lat="51.252846"><ele>32.6</ele><time>2022-04-17T08:29:09.000Z</time></trkpt><trkpt lon="5.530846" lat="51.25282"><ele>32.6</ele><time>2022-04-17T08:29:10.000Z</time></trkpt><trkpt lon="5.53095" lat="51.252795"><ele>32.6</ele><time>2022-04-17T08:29:11.000Z</time></trkpt><trkpt lon="5.531053" lat="51.252766"><ele>32.6</ele><time>2022-04-17T08:29:12.000Z</time></trkpt><trkpt lon="5.531155" lat="51.252738"><ele>32.6</ele><time>2022-04-17T08:29:13.000Z</time></trkpt><trkpt lon="5.531256" lat="51.252708"><ele>32.6</ele><time>2022-04-17T08:29:14.000Z</time></trkpt><trkpt lon="5.531358" lat="51.252676"><ele>32.6</ele><time>2022-04-17T08:29:15.000Z</time></trkpt><trkpt lon="5.531458" lat="51.252641"><ele>32.6</ele><time>2022-04-17T08:29:16.000Z</time></trkpt><trkpt lon="5.531557" lat="51.252608"><ele>32.4</ele><time>2022-04-17T08:29:17.000Z</time></trkpt><trkpt lon="5.531657" lat="51.252578"><ele>32.2</ele><time>2022-04-17T08:29:18.000Z</time></trkpt><trkpt lon="5.53176" lat="51.252548"><ele>32.2</ele><time>2022-04-17T08:29:19.000Z</time></trkpt><trkpt lon="5.531863" lat="51.252522"><ele>32.2</ele><time>2022-04-17T08:29:20.000Z</time></trkpt><trkpt lon="5.531965" lat="51.252495"><ele>32.2</ele><time>2022-04-17T08:29:21.000Z</time></trkpt><trkpt lon="5.53207" lat="51.252468"><ele>32.2</ele><time>2022-04-17T08:29:22.000Z</time></trkpt><trkpt lon="5.532174" lat="51.252441"><ele>32</ele><time>2022-04-17T08:29:23.000Z</time></trkpt><trkpt lon="5.532278" lat="51.252416"><ele>31.8</ele><time>2022-04-17T08:29:24.000Z</time></trkpt><trkpt lon="5.53238" lat="51.252392"><ele>31.8</ele><time>2022-04-17T08:29:25.000Z</time></trkpt><trkpt lon="5.532483" lat="51.252366"><ele>32</ele><time>2022-04-17T08:29:26.000Z</time></trkpt><trkpt lon="5.532585" lat="51.252342"><ele>32.2</ele><time>2022-04-17T08:29:27.000Z</time></trkpt><trkpt lon="5.532686" lat="51.252316"><ele>32.2</ele><time>2022-04-17T08:29:28.000Z</time></trkpt><trkpt lon="5.532788" lat="51.25229"><ele>32.4</ele><time>2022-04-17T08:29:29.000Z</time></trkpt><trkpt lon="5.532888" lat="51.252266"><ele>32.4</ele><time>2022-04-17T08:29:30.000Z</time></trkpt><trkpt lon="5.532989" lat="51.25224"><ele>32.4</ele><time>2022-04-17T08:29:31.000Z</time></trkpt><trkpt lon="5.533089" lat="51.252217"><ele>32.4</ele><time>2022-04-17T08:29:32.000Z</time></trkpt><trkpt lon="5.533188" lat="51.252195"><ele>32.6</ele><time>2022-04-17T08:29:33.000Z</time></trkpt><trkpt lon="5.533288" lat="51.252172"><ele>32.6</ele><time>2022-04-17T08:29:34.000Z</time></trkpt><trkpt lon="5.533389" lat="51.252149"><ele>32.8</ele><time>2022-04-17T08:29:35.000Z</time></trkpt><trkpt lon="5.533489" lat="51.252126"><ele>32.8</ele><time>2022-04-17T08:29:36.000Z</time></trkpt><trkpt lon="5.533592" lat="51.252103"><ele>32.8</ele><time>2022-04-17T08:29:37.000Z</time></trkpt><trkpt lon="5.533694" lat="51.252081"><ele>32.8</ele><time>2022-04-17T08:29:38.000Z</time></trkpt><trkpt lon="5.533797" lat="51.252061"><ele>32.8</ele><time>2022-04-17T08:29:39.000Z</time></trkpt><trkpt lon="5.5339" lat="51.252038"><ele>32.8</ele><time>2022-04-17T08:29:40.000Z</time></trkpt><trkpt lon="5.534003" lat="51.252014"><ele>32.6</ele><time>2022-04-17T08:29:41.000Z</time></trkpt><trkpt lon="5.534106" lat="51.251987"><ele>32.8</ele><time>2022-04-17T08:29:42.000Z</time></trkpt><trkpt lon="5.534208" lat="51.251961"><ele>32.6</ele><time>2022-04-17T08:29:43.000Z</time></trkpt><trkpt lon="5.534307" lat="51.251933"><ele>32.6</ele><time>2022-04-17T08:29:44.000Z</time></trkpt><trkpt lon="5.534407" lat="51.251903"><ele>32.6</ele><time>2022-04-17T08:29:45.000Z</time></trkpt><trkpt lon="5.534505" lat="51.251872"><ele>32.6</ele><time>2022-04-17T08:29:46.000Z</time></trkpt><trkpt lon="5.534601" lat="51.251841"><ele>32.8</ele><time>2022-04-17T08:29:47.000Z</time></trkpt><trkpt lon="5.534694" lat="51.25181"><ele>32.6</ele><time>2022-04-17T08:29:48.000Z</time></trkpt><trkpt lon="5.534789" lat="51.251777"><ele>32.6</ele><time>2022-04-17T08:29:49.000Z</time></trkpt><trkpt lon="5.534883" lat="51.251746"><ele>32.6</ele><time>2022-04-17T08:29:50.000Z</time></trkpt><trkpt lon="5.534976" lat="51.251715"><ele>32.6</ele><time>2022-04-17T08:29:51.000Z</time></trkpt><trkpt lon="5.535073" lat="51.251681"><ele>32.8</ele><time>2022-04-17T08:29:52.000Z</time></trkpt><trkpt lon="5.535167" lat="51.251651"><ele>32.8</ele><time>2022-04-17T08:29:53.000Z</time></trkpt><trkpt lon="5.535262" lat="51.25162"><ele>32.8</ele><time>2022-04-17T08:29:54.000Z</time></trkpt><trkpt lon="5.535355" lat="51.25159"><ele>33</ele><time>2022-04-17T08:29:55.000Z</time></trkpt><trkpt lon="5.535448" lat="51.251558"><ele>33.2</ele><time>2022-04-17T08:29:56.000Z</time></trkpt><trkpt lon="5.535543" lat="51.251527"><ele>33.2</ele><time>2022-04-17T08:29:57.000Z</time></trkpt><trkpt lon="5.53564" lat="51.2515"><ele>33.2</ele><time>2022-04-17T08:29:58.000Z</time></trkpt><trkpt lon="5.535743" lat="51.251473"><ele>33.2</ele><time>2022-04-17T08:29:59.000Z</time></trkpt><trkpt lon="5.535845" lat="51.251448"><ele>33</ele><time>2022-04-17T08:30:00.000Z</time></trkpt><trkpt lon="5.535948" lat="51.251429"><ele>33</ele><time>2022-04-17T08:30:01.000Z</time></trkpt><trkpt lon="5.536051" lat="51.25141"><ele>33.2</ele><time>2022-04-17T08:30:02.000Z</time></trkpt><trkpt lon="5.536154" lat="51.251392"><ele>33.2</ele><time>2022-04-17T08:30:03.000Z</time></trkpt><trkpt lon="5.536254" lat="51.251378"><ele>33.2</ele><time>2022-04-17T08:30:04.000Z</time></trkpt><trkpt lon="5.536354" lat="51.251368"><ele>33.2</ele><time>2022-04-17T08:30:05.000Z</time></trkpt><trkpt lon="5.536448" lat="51.251362"><ele>33</ele><time>2022-04-17T08:30:06.000Z</time></trkpt><trkpt lon="5.536568" lat="51.251362"><ele>32.8</ele><time>2022-04-17T08:30:07.000Z</time></trkpt><trkpt lon="5.536673" lat="51.251363"><ele>32.8</ele><time>2022-04-17T08:30:08.000Z</time></trkpt><trkpt lon="5.536774" lat="51.251368"><ele>32.8</ele><time>2022-04-17T08:30:09.000Z</time></trkpt><trkpt lon="5.53688" lat="51.251377"><ele>33</ele><time>2022-04-17T08:30:10.000Z</time></trkpt><trkpt lon="5.536986" lat="51.251389"><ele>33</ele><time>2022-04-17T08:30:11.000Z</time></trkpt><trkpt lon="5.537092" lat="51.251403"><ele>33</ele><time>2022-04-17T08:30:12.000Z</time></trkpt><trkpt lon="5.537197" lat="51.251416"><ele>33</ele><time>2022-04-17T08:30:13.000Z</time></trkpt><trkpt lon="5.5373" lat="51.251433"><ele>33.2</ele><time>2022-04-17T08:30:14.000Z</time></trkpt><trkpt lon="5.537402" lat="51.251456"><ele>33.2</ele><time>2022-04-17T08:30:15.000Z</time></trkpt><trkpt lon="5.537504" lat="51.251479"><ele>33.2</ele><time>2022-04-17T08:30:16.000Z</time></trkpt><trkpt lon="5.537605" lat="51.251503"><ele>33.2</ele><time>2022-04-17T08:30:17.000Z</time></trkpt><trkpt lon="5.537702" lat="51.251529"><ele>33.2</ele><time>2022-04-17T08:30:18.000Z</time></trkpt><trkpt lon="5.537801" lat="51.251552"><ele>33.4</ele><time>2022-04-17T08:30:19.000Z</time></trkpt><trkpt lon="5.537901" lat="51.251575"><ele>33.4</ele><time>2022-04-17T08:30:20.000Z</time></trkpt><trkpt lon="5.538003" lat="51.251601"><ele>33.6</ele><time>2022-04-17T08:30:21.000Z</time></trkpt><trkpt lon="5.538101" lat="51.251624"><ele>33.6</ele><time>2022-04-17T08:30:22.000Z</time></trkpt><trkpt lon="5.5382" lat="51.251647"><ele>33.6</ele><time>2022-04-17T08:30:23.000Z</time></trkpt><trkpt lon="5.538302" lat="51.251671"><ele>33.8</ele><time>2022-04-17T08:30:24.000Z</time></trkpt><trkpt lon="5.538402" lat="51.251696"><ele>33.8</ele><time>2022-04-17T08:30:25.000Z</time></trkpt><trkpt lon="5.538499" lat="51.251719"><ele>33.8</ele><time>2022-04-17T08:30:26.000Z</time></trkpt><trkpt lon="5.538602" lat="51.251742"><ele>33.6</ele><time>2022-04-17T08:30:27.000Z</time></trkpt><trkpt lon="5.538702" lat="51.251766"><ele>33.4</ele><time>2022-04-17T08:30:28.000Z</time></trkpt><trkpt lon="5.5388" lat="51.251792"><ele>33.4</ele><time>2022-04-17T08:30:29.000Z</time></trkpt><trkpt lon="5.5389" lat="51.251815"><ele>33.4</ele><time>2022-04-17T08:30:30.000Z</time></trkpt><trkpt lon="5.539005" lat="51.251842"><ele>33.6</ele><time>2022-04-17T08:30:31.000Z</time></trkpt><trkpt lon="5.539107" lat="51.251864"><ele>33.6</ele><time>2022-04-17T08:30:32.000Z</time></trkpt><trkpt lon="5.539207" lat="51.251884"><ele>33.6</ele><time>2022-04-17T08:30:33.000Z</time></trkpt><trkpt lon="5.539308" lat="51.251905"><ele>33.6</ele><time>2022-04-17T08:30:34.000Z</time></trkpt><trkpt lon="5.539408" lat="51.251924"><ele>33.6</ele><time>2022-04-17T08:30:35.000Z</time></trkpt><trkpt lon="5.539509" lat="51.251941"><ele>33.6</ele><time>2022-04-17T08:30:36.000Z</time></trkpt><trkpt lon="5.539621" lat="51.251958"><ele>33.6</ele><time>2022-04-17T08:30:37.000Z</time></trkpt><trkpt lon="5.539724" lat="51.251973"><ele>33.6</ele><time>2022-04-17T08:30:38.000Z</time></trkpt><trkpt lon="5.539829" lat="51.251987"><ele>33.6</ele><time>2022-04-17T08:30:39.000Z</time></trkpt><trkpt lon="5.539935" lat="51.251998"><ele>33.6</ele><time>2022-04-17T08:30:40.000Z</time></trkpt><trkpt lon="5.54004" lat="51.25201"><ele>33.6</ele><time>2022-04-17T08:30:41.000Z</time></trkpt><trkpt lon="5.540142" lat="51.252021"><ele>33.6</ele><time>2022-04-17T08:30:42.000Z</time></trkpt><trkpt lon="5.540243" lat="51.252033"><ele>33.6</ele><time>2022-04-17T08:30:43.000Z</time></trkpt><trkpt lon="5.540343" lat="51.252043"><ele>33.8</ele><time>2022-04-17T08:30:44.000Z</time></trkpt><trkpt lon="5.540441" lat="51.252052"><ele>33.8</ele><time>2022-04-17T08:30:45.000Z</time></trkpt><trkpt lon="5.540535" lat="51.252063"><ele>33.8</ele><time>2022-04-17T08:30:46.000Z</time></trkpt><trkpt lon="5.540629" lat="51.252073"><ele>33.8</ele><time>2022-04-17T08:30:47.000Z</time></trkpt><trkpt lon="5.540721" lat="51.252082"><ele>33.8</ele><time>2022-04-17T08:30:48.000Z</time></trkpt><trkpt lon="5.540813" lat="51.252094"><ele>33.8</ele><time>2022-04-17T08:30:49.000Z</time></trkpt><trkpt lon="5.5409" lat="51.252104"><ele>34</ele><time>2022-04-17T08:30:50.000Z</time></trkpt><trkpt lon="5.540982" lat="51.252113"><ele>34</ele><time>2022-04-17T08:30:51.000Z</time></trkpt><trkpt lon="5.541061" lat="51.252124"><ele>34</ele><time>2022-04-17T08:30:52.000Z</time></trkpt><trkpt lon="5.541139" lat="51.252133"><ele>34</ele><time>2022-04-17T08:30:53.000Z</time></trkpt><trkpt lon="5.541218" lat="51.252133"><ele>34</ele><time>2022-04-17T08:30:54.000Z</time></trkpt><trkpt lon="5.541292" lat="51.252116"><ele>34</ele><time>2022-04-17T08:30:55.000Z</time></trkpt><trkpt lon="5.541358" lat="51.252083"><ele>34</ele><time>2022-04-17T08:30:56.000Z</time></trkpt><trkpt lon="5.54142" lat="51.252042"><ele>34</ele><time>2022-04-17T08:30:57.000Z</time></trkpt><trkpt lon="5.541479" lat="51.251992"><ele>34</ele><time>2022-04-17T08:30:58.000Z</time></trkpt><trkpt lon="5.541533" lat="51.251942"><ele>34</ele><time>2022-04-17T08:30:59.000Z</time></trkpt><trkpt lon="5.541587" lat="51.251888"><ele>34</ele><time>2022-04-17T08:31:00.000Z</time></trkpt><trkpt lon="5.541644" lat="51.251836"><ele>34</ele><time>2022-04-17T08:31:01.000Z</time></trkpt><trkpt lon="5.541703" lat="51.251785"><ele>34</ele><time>2022-04-17T08:31:02.000Z</time></trkpt><trkpt lon="5.541758" lat="51.251731"><ele>33.8</ele><time>2022-04-17T08:31:03.000Z</time></trkpt><trkpt lon="5.541815" lat="51.251679"><ele>33.8</ele><time>2022-04-17T08:31:04.000Z</time></trkpt><trkpt lon="5.541873" lat="51.251631"><ele>33.8</ele><time>2022-04-17T08:31:05.000Z</time></trkpt><trkpt lon="5.541926" lat="51.251584"><ele>34</ele><time>2022-04-17T08:31:06.000Z</time></trkpt><trkpt lon="5.541986" lat="51.251532"><ele>34</ele><time>2022-04-17T08:31:07.000Z</time></trkpt><trkpt lon="5.542042" lat="51.251487"><ele>34.2</ele><time>2022-04-17T08:31:08.000Z</time></trkpt><trkpt lon="5.542098" lat="51.251444"><ele>34.2</ele><time>2022-04-17T08:31:09.000Z</time></trkpt><trkpt lon="5.542154" lat="51.251398"><ele>34.4</ele><time>2022-04-17T08:31:10.000Z</time></trkpt><trkpt lon="5.542211" lat="51.251353"><ele>34.4</ele><time>2022-04-17T08:31:11.000Z</time></trkpt><trkpt lon="5.542264" lat="51.251313"><ele>34.4</ele><time>2022-04-17T08:31:12.000Z</time></trkpt><trkpt lon="5.542308" lat="51.251276"><ele>34.4</ele><time>2022-04-17T08:31:13.000Z</time></trkpt><trkpt lon="5.542345" lat="51.251242"><ele>34.4</ele><time>2022-04-17T08:31:14.000Z</time></trkpt><trkpt lon="5.542375" lat="51.25121"><ele>34.4</ele><time>2022-04-17T08:31:15.000Z</time></trkpt><trkpt lon="5.542402" lat="51.251183"><ele>34.6</ele><time>2022-04-17T08:31:16.000Z</time></trkpt><trkpt lon="5.54242" lat="51.251156"><ele>34.6</ele><time>2022-04-17T08:31:17.000Z</time></trkpt><trkpt lon="5.542426" lat="51.251133"><ele>34.8</ele><time>2022-04-17T08:31:18.000Z</time></trkpt><trkpt lon="5.542429" lat="51.25112"><ele>34.8</ele><time>2022-04-17T08:31:19.000Z</time></trkpt><trkpt lon="5.542427" lat="51.251114"><ele>35</ele><time>2022-04-17T08:31:30.000Z</time></trkpt><trkpt lon="5.54243" lat="51.251107"><ele>35</ele><time>2022-04-17T08:31:31.000Z</time></trkpt><trkpt lon="5.542444" lat="51.251081"><ele>35</ele><time>2022-04-17T08:31:32.000Z</time></trkpt><trkpt lon="5.542463" lat="51.251057"><ele>35</ele><time>2022-04-17T08:31:33.000Z</time></trkpt><trkpt lon="5.542492" lat="51.251028"><ele>35</ele><time>2022-04-17T08:31:34.000Z</time></trkpt><trkpt lon="5.542528" lat="51.250993"><ele>35</ele><time>2022-04-17T08:31:35.000Z</time></trkpt><trkpt lon="5.542566" lat="51.250956"><ele>35</ele><time>2022-04-17T08:31:36.000Z</time></trkpt><trkpt lon="5.542609" lat="51.250915"><ele>34.8</ele><time>2022-04-17T08:31:37.000Z</time></trkpt><trkpt lon="5.542648" lat="51.250876"><ele>34.8</ele><time>2022-04-17T08:31:38.000Z</time></trkpt><trkpt lon="5.542679" lat="51.250846"><ele>34.8</ele><time>2022-04-17T08:31:39.000Z</time></trkpt><trkpt lon="5.542705" lat="51.250819"><ele>34.8</ele><time>2022-04-17T08:31:40.000Z</time></trkpt><trkpt lon="5.542724" lat="51.2508"><ele>34.8</ele><time>2022-04-17T08:31:41.000Z</time></trkpt><trkpt lon="5.542739" lat="51.25078"><ele>35</ele><time>2022-04-17T08:31:42.000Z</time></trkpt><trkpt lon="5.542748" lat="51.250761"><ele>35</ele><time>2022-04-17T08:31:43.000Z</time></trkpt><trkpt lon="5.542757" lat="51.250741"><ele>35</ele><time>2022-04-17T08:31:44.000Z</time></trkpt><trkpt lon="5.542772" lat="51.250718"><ele>35</ele><time>2022-04-17T08:31:45.000Z</time></trkpt><trkpt lon="5.542794" lat="51.25069"><ele>35.2</ele><time>2022-04-17T08:31:46.000Z</time></trkpt><trkpt lon="5.542822" lat="51.250659"><ele>35.2</ele><time>2022-04-17T08:31:47.000Z</time></trkpt><trkpt lon="5.54286" lat="51.250621"><ele>35.2</ele><time>2022-04-17T08:31:48.000Z</time></trkpt><trkpt lon="5.542905" lat="51.250576"><ele>35.2</ele><time>2022-04-17T08:31:49.000Z</time></trkpt><trkpt lon="5.542957" lat="51.250521"><ele>35</ele><time>2022-04-17T08:31:50.000Z</time></trkpt><trkpt lon="5.543017" lat="51.250461"><ele>34.8</ele><time>2022-04-17T08:31:51.000Z</time></trkpt><trkpt lon="5.543075" lat="51.250392"><ele>34.8</ele><time>2022-04-17T08:31:52.000Z</time></trkpt><trkpt lon="5.543133" lat="51.250323"><ele>34.8</ele><time>2022-04-17T08:31:53.000Z</time></trkpt><trkpt lon="5.543193" lat="51.25025"><ele>34.6</ele><time>2022-04-17T08:31:54.000Z</time></trkpt><trkpt lon="5.54325" lat="51.250177"><ele>34.4</ele><time>2022-04-17T08:31:55.000Z</time></trkpt><trkpt lon="5.543299" lat="51.250104"><ele>34.4</ele><time>2022-04-17T08:31:56.000Z</time></trkpt><trkpt lon="5.543341" lat="51.250028"><ele>34.2</ele><time>2022-04-17T08:31:57.000Z</time></trkpt><trkpt lon="5.543378" lat="51.249952"><ele>34</ele><time>2022-04-17T08:31:58.000Z</time></trkpt><trkpt lon="5.54341" lat="51.249872"><ele>34</ele><time>2022-04-17T08:31:59.000Z</time></trkpt><trkpt lon="5.543439" lat="51.249801"><ele>34</ele><time>2022-04-17T08:32:00.000Z</time></trkpt><trkpt lon="5.543466" lat="51.249736"><ele>34</ele><time>2022-04-17T08:32:01.000Z</time></trkpt><trkpt lon="5.543492" lat="51.249677"><ele>33.8</ele><time>2022-04-17T08:32:02.000Z</time></trkpt><trkpt lon="5.543514" lat="51.249614"><ele>33.8</ele><time>2022-04-17T08:32:03.000Z</time></trkpt><trkpt lon="5.543531" lat="51.249545"><ele>33.8</ele><time>2022-04-17T08:32:04.000Z</time></trkpt><trkpt lon="5.543545" lat="51.249481"><ele>33.6</ele><time>2022-04-17T08:32:05.000Z</time></trkpt><trkpt lon="5.54356" lat="51.249422"><ele>33.8</ele><time>2022-04-17T08:32:06.000Z</time></trkpt><trkpt lon="5.543576" lat="51.249347"><ele>33.8</ele><time>2022-04-17T08:32:07.000Z</time></trkpt><trkpt lon="5.543593" lat="51.24928"><ele>34</ele><time>2022-04-17T08:32:08.000Z</time></trkpt><trkpt lon="5.54361" lat="51.249218"><ele>34</ele><time>2022-04-17T08:32:09.000Z</time></trkpt><trkpt lon="5.543632" lat="51.249152"><ele>34</ele><time>2022-04-17T08:32:10.000Z</time></trkpt><trkpt lon="5.543658" lat="51.249085"><ele>34.2</ele><time>2022-04-17T08:32:11.000Z</time></trkpt><trkpt lon="5.543687" lat="51.249021"><ele>34.2</ele><time>2022-04-17T08:32:12.000Z</time></trkpt><trkpt lon="5.543721" lat="51.24896"><ele>34</ele><time>2022-04-17T08:32:13.000Z</time></trkpt><trkpt lon="5.543758" lat="51.248897"><ele>33.8</ele><time>2022-04-17T08:32:14.000Z</time></trkpt><trkpt lon="5.543798" lat="51.248829"><ele>33.8</ele><time>2022-04-17T08:32:15.000Z</time></trkpt><trkpt lon="5.543839" lat="51.248764"><ele>34</ele><time>2022-04-17T08:32:16.000Z</time></trkpt><trkpt lon="5.543881" lat="51.248701"><ele>34</ele><time>2022-04-17T08:32:17.000Z</time></trkpt><trkpt lon="5.543923" lat="51.248639"><ele>34</ele><time>2022-04-17T08:32:18.000Z</time></trkpt><trkpt lon="5.543966" lat="51.248576"><ele>34.2</ele><time>2022-04-17T08:32:19.000Z</time></trkpt><trkpt lon="5.544011" lat="51.248514"><ele>34.2</ele><time>2022-04-17T08:32:20.000Z</time></trkpt><trkpt lon="5.544054" lat="51.248452"><ele>34.2</ele><time>2022-04-17T08:32:21.000Z</time></trkpt><trkpt lon="5.544097" lat="51.248388"><ele>34.2</ele><time>2022-04-17T08:32:22.000Z</time></trkpt><trkpt lon="5.544139" lat="51.248328"><ele>34.2</ele><time>2022-04-17T08:32:23.000Z</time></trkpt><trkpt lon="5.544183" lat="51.248267"><ele>34.2</ele><time>2022-04-17T08:32:24.000Z</time></trkpt><trkpt lon="5.54423" lat="51.2482"><ele>34</ele><time>2022-04-17T08:32:25.000Z</time></trkpt><trkpt lon="5.544275" lat="51.248137"><ele>34</ele><time>2022-04-17T08:32:26.000Z</time></trkpt><trkpt lon="5.544321" lat="51.248079"><ele>34.2</ele><time>2022-04-17T08:32:27.000Z</time></trkpt><trkpt lon="5.544367" lat="51.248018"><ele>34.2</ele><time>2022-04-17T08:32:28.000Z</time></trkpt><trkpt lon="5.544413" lat="51.247959"><ele>34.4</ele><time>2022-04-17T08:32:29.000Z</time></trkpt><trkpt lon="5.54446" lat="51.247905"><ele>34.4</ele><time>2022-04-17T08:32:30.000Z</time></trkpt><trkpt lon="5.544505" lat="51.247847"><ele>34.4</ele><time>2022-04-17T08:32:31.000Z</time></trkpt><trkpt lon="5.54455" lat="51.247785"><ele>34.4</ele><time>2022-04-17T08:32:32.000Z</time></trkpt><trkpt lon="5.544594" lat="51.247724"><ele>34.6</ele><time>2022-04-17T08:32:33.000Z</time></trkpt><trkpt lon="5.544637" lat="51.247663"><ele>34.6</ele><time>2022-04-17T08:32:34.000Z</time></trkpt><trkpt lon="5.544679" lat="51.247604"><ele>34.6</ele><time>2022-04-17T08:32:35.000Z</time></trkpt><trkpt lon="5.544719" lat="51.247544"><ele>34.8</ele><time>2022-04-17T08:32:36.000Z</time></trkpt><trkpt lon="5.544764" lat="51.247472"><ele>34.8</ele><time>2022-04-17T08:32:37.000Z</time></trkpt><trkpt lon="5.54481" lat="51.247409"><ele>35</ele><time>2022-04-17T08:32:38.000Z</time></trkpt><trkpt lon="5.544856" lat="51.247342"><ele>35</ele><time>2022-04-17T08:32:39.000Z</time></trkpt><trkpt lon="5.544902" lat="51.247281"><ele>35</ele><time>2022-04-17T08:32:40.000Z</time></trkpt><trkpt lon="5.54495" lat="51.247217"><ele>35</ele><time>2022-04-17T08:32:41.000Z</time></trkpt><trkpt lon="5.544997" lat="51.247155"><ele>35</ele><time>2022-04-17T08:32:42.000Z</time></trkpt><trkpt lon="5.545044" lat="51.247093"><ele>35</ele><time>2022-04-17T08:32:43.000Z</time></trkpt><trkpt lon="5.545091" lat="51.247035"><ele>35</ele><time>2022-04-17T08:32:44.000Z</time></trkpt><trkpt lon="5.545141" lat="51.246973"><ele>35</ele><time>2022-04-17T08:32:45.000Z</time></trkpt><trkpt lon="5.545188" lat="51.246913"><ele>35</ele><time>2022-04-17T08:32:46.000Z</time></trkpt><trkpt lon="5.545232" lat="51.246851"><ele>35.2</ele><time>2022-04-17T08:32:47.000Z</time></trkpt><trkpt lon="5.54528" lat="51.246786"><ele>35.2</ele><time>2022-04-17T08:32:48.000Z</time></trkpt><trkpt lon="5.545323" lat="51.246723"><ele>35.2</ele><time>2022-04-17T08:32:49.000Z</time></trkpt><trkpt lon="5.545363" lat="51.246659"><ele>35.2</ele><time>2022-04-17T08:32:50.000Z</time></trkpt><trkpt lon="5.545405" lat="51.246596"><ele>35.2</ele><time>2022-04-17T08:32:51.000Z</time></trkpt><trkpt lon="5.54545" lat="51.246534"><ele>35.4</ele><time>2022-04-17T08:32:52.000Z</time></trkpt><trkpt lon="5.545494" lat="51.246472"><ele>35.4</ele><time>2022-04-17T08:32:53.000Z</time></trkpt><trkpt lon="5.545536" lat="51.246407"><ele>35.4</ele><time>2022-04-17T08:32:54.000Z</time></trkpt><trkpt lon="5.54558" lat="51.246343"><ele>35.4</ele><time>2022-04-17T08:32:55.000Z</time></trkpt><trkpt lon="5.545629" lat="51.246276"><ele>35.4</ele><time>2022-04-17T08:32:56.000Z</time></trkpt><trkpt lon="5.545676" lat="51.246209"><ele>35.4</ele><time>2022-04-17T08:32:57.000Z</time></trkpt><trkpt lon="5.545724" lat="51.246147"><ele>35.4</ele><time>2022-04-17T08:32:58.000Z</time></trkpt><trkpt lon="5.54577" lat="51.246083"><ele>35.4</ele><time>2022-04-17T08:32:59.000Z</time></trkpt><trkpt lon="5.545817" lat="51.246018"><ele>35.4</ele><time>2022-04-17T08:33:00.000Z</time></trkpt><trkpt lon="5.545864" lat="51.245953"><ele>35.4</ele><time>2022-04-17T08:33:01.000Z</time></trkpt><trkpt lon="5.545912" lat="51.245889"><ele>35.4</ele><time>2022-04-17T08:33:02.000Z</time></trkpt><trkpt lon="5.545957" lat="51.245827"><ele>35.4</ele><time>2022-04-17T08:33:03.000Z</time></trkpt><trkpt lon="5.546" lat="51.245762"><ele>35.4</ele><time>2022-04-17T08:33:04.000Z</time></trkpt><trkpt lon="5.54604" lat="51.245702"><ele>35.2</ele><time>2022-04-17T08:33:05.000Z</time></trkpt><trkpt lon="5.546078" lat="51.245649"><ele>35.2</ele><time>2022-04-17T08:33:06.000Z</time></trkpt><trkpt lon="5.546137" lat="51.245572"><ele>35.2</ele><time>2022-04-17T08:33:07.000Z</time></trkpt><trkpt lon="5.546185" lat="51.245508"><ele>35.2</ele><time>2022-04-17T08:33:08.000Z</time></trkpt><trkpt lon="5.546232" lat="51.245447"><ele>35.2</ele><time>2022-04-17T08:33:09.000Z</time></trkpt><trkpt lon="5.546282" lat="51.245386"><ele>35.2</ele><time>2022-04-17T08:33:10.000Z</time></trkpt><trkpt lon="5.546333" lat="51.245326"><ele>35.2</ele><time>2022-04-17T08:33:11.000Z</time></trkpt><trkpt lon="5.546385" lat="51.245262"><ele>35.2</ele><time>2022-04-17T08:33:12.000Z</time></trkpt><trkpt lon="5.546434" lat="51.245198"><ele>35</ele><time>2022-04-17T08:33:13.000Z</time></trkpt><trkpt lon="5.546481" lat="51.245134"><ele>35</ele><time>2022-04-17T08:33:14.000Z</time></trkpt><trkpt lon="5.546528" lat="51.245074"><ele>35.2</ele><time>2022-04-17T08:33:15.000Z</time></trkpt><trkpt lon="5.546577" lat="51.245012"><ele>35</ele><time>2022-04-17T08:33:16.000Z</time></trkpt><trkpt lon="5.546627" lat="51.244951"><ele>35</ele><time>2022-04-17T08:33:17.000Z</time></trkpt><trkpt lon="5.546675" lat="51.244889"><ele>34.8</ele><time>2022-04-17T08:33:18.000Z</time></trkpt><trkpt lon="5.546723" lat="51.244825"><ele>34.6</ele><time>2022-04-17T08:33:19.000Z</time></trkpt><trkpt lon="5.54677" lat="51.244763"><ele>34.2</ele><time>2022-04-17T08:33:20.000Z</time></trkpt><trkpt lon="5.546818" lat="51.244698"><ele>34</ele><time>2022-04-17T08:33:21.000Z</time></trkpt><trkpt lon="5.546865" lat="51.244633"><ele>34</ele><time>2022-04-17T08:33:22.000Z</time></trkpt><trkpt lon="5.546913" lat="51.244569"><ele>34</ele><time>2022-04-17T08:33:23.000Z</time></trkpt><trkpt lon="5.54696" lat="51.244507"><ele>34</ele><time>2022-04-17T08:33:24.000Z</time></trkpt><trkpt lon="5.547007" lat="51.244442"><ele>34.2</ele><time>2022-04-17T08:33:25.000Z</time></trkpt><trkpt lon="5.547052" lat="51.244377"><ele>34.4</ele><time>2022-04-17T08:33:26.000Z</time></trkpt><trkpt lon="5.547097" lat="51.244314"><ele>34.4</ele><time>2022-04-17T08:33:27.000Z</time></trkpt><trkpt lon="5.547143" lat="51.244253"><ele>34.4</ele><time>2022-04-17T08:33:28.000Z</time></trkpt><trkpt lon="5.547189" lat="51.244192"><ele>34.4</ele><time>2022-04-17T08:33:29.000Z</time></trkpt><trkpt lon="5.547231" lat="51.24413"><ele>34.2</ele><time>2022-04-17T08:33:30.000Z</time></trkpt><trkpt lon="5.547274" lat="51.244067"><ele>34.2</ele><time>2022-04-17T08:33:31.000Z</time></trkpt><trkpt lon="5.54732" lat="51.244001"><ele>34.2</ele><time>2022-04-17T08:33:32.000Z</time></trkpt><trkpt lon="5.547366" lat="51.243939"><ele>34.4</ele><time>2022-04-17T08:33:33.000Z</time></trkpt><trkpt lon="5.547412" lat="51.243876"><ele>34.4</ele><time>2022-04-17T08:33:34.000Z</time></trkpt><trkpt lon="5.547458" lat="51.243817"><ele>34.4</ele><time>2022-04-17T08:33:35.000Z</time></trkpt><trkpt lon="5.547496" lat="51.243766"><ele>34.4</ele><time>2022-04-17T08:33:36.000Z</time></trkpt><trkpt lon="5.547558" lat="51.243683"><ele>34.6</ele><time>2022-04-17T08:33:37.000Z</time></trkpt><trkpt lon="5.547605" lat="51.24362"><ele>34.6</ele><time>2022-04-17T08:33:38.000Z</time></trkpt><trkpt lon="5.547653" lat="51.243558"><ele>34.6</ele><time>2022-04-17T08:33:39.000Z</time></trkpt><trkpt lon="5.547702" lat="51.243492"><ele>34.6</ele><time>2022-04-17T08:33:40.000Z</time></trkpt><trkpt lon="5.54775" lat="51.243424"><ele>34.6</ele><time>2022-04-17T08:33:41.000Z</time></trkpt><trkpt lon="5.547797" lat="51.243359"><ele>34.4</ele><time>2022-04-17T08:33:42.000Z</time></trkpt><trkpt lon="5.547844" lat="51.243294"><ele>34.2</ele><time>2022-04-17T08:33:43.000Z</time></trkpt><trkpt lon="5.547891" lat="51.24323"><ele>34.2</ele><time>2022-04-17T08:33:44.000Z</time></trkpt><trkpt lon="5.547941" lat="51.243164"><ele>34</ele><time>2022-04-17T08:33:45.000Z</time></trkpt><trkpt lon="5.547988" lat="51.2431"><ele>33.8</ele><time>2022-04-17T08:33:46.000Z</time></trkpt><trkpt lon="5.548034" lat="51.243037"><ele>33.8</ele><time>2022-04-17T08:33:47.000Z</time></trkpt><trkpt lon="5.548082" lat="51.242975"><ele>33.8</ele><time>2022-04-17T08:33:48.000Z</time></trkpt><trkpt lon="5.548125" lat="51.242916"><ele>33.8</ele><time>2022-04-17T08:33:49.000Z</time></trkpt><trkpt lon="5.548165" lat="51.242861"><ele>33.8</ele><time>2022-04-17T08:33:50.000Z</time></trkpt><trkpt lon="5.548202" lat="51.242804"><ele>33.6</ele><time>2022-04-17T08:33:51.000Z</time></trkpt><trkpt lon="5.548237" lat="51.242747"><ele>33.2</ele><time>2022-04-17T08:33:52.000Z</time></trkpt><trkpt lon="5.548272" lat="51.24269"><ele>32.8</ele><time>2022-04-17T08:33:53.000Z</time></trkpt><trkpt lon="5.548311" lat="51.242632"><ele>33</ele><time>2022-04-17T08:33:54.000Z</time></trkpt><trkpt lon="5.548356" lat="51.242575"><ele>33</ele><time>2022-04-17T08:33:55.000Z</time></trkpt><trkpt lon="5.548406" lat="51.242517"><ele>33.2</ele><time>2022-04-17T08:33:56.000Z</time></trkpt><trkpt lon="5.548455" lat="51.242458"><ele>33.2</ele><time>2022-04-17T08:33:57.000Z</time></trkpt><trkpt lon="5.548501" lat="51.242403"><ele>33.4</ele><time>2022-04-17T08:33:58.000Z</time></trkpt><trkpt lon="5.548546" lat="51.242342"><ele>33.4</ele><time>2022-04-17T08:33:59.000Z</time></trkpt><trkpt lon="5.548594" lat="51.242283"><ele>33.4</ele><time>2022-04-17T08:34:00.000Z</time></trkpt><trkpt lon="5.548636" lat="51.242229"><ele>33.4</ele><time>2022-04-17T08:34:01.000Z</time></trkpt><trkpt lon="5.548676" lat="51.242171"><ele>33.6</ele><time>2022-04-17T08:34:02.000Z</time></trkpt><trkpt lon="5.548714" lat="51.242108"><ele>33.8</ele><time>2022-04-17T08:34:03.000Z</time></trkpt><trkpt lon="5.548755" lat="51.242045"><ele>34</ele><time>2022-04-17T08:34:04.000Z</time></trkpt><trkpt lon="5.548795" lat="51.24199"><ele>34</ele><time>2022-04-17T08:34:05.000Z</time></trkpt><trkpt lon="5.548833" lat="51.241936"><ele>34.2</ele><time>2022-04-17T08:34:06.000Z</time></trkpt><trkpt lon="5.548901" lat="51.24186"><ele>34.2</ele><time>2022-04-17T08:34:07.000Z</time></trkpt><trkpt lon="5.548959" lat="51.241797"><ele>34.2</ele><time>2022-04-17T08:34:08.000Z</time></trkpt><trkpt lon="5.549011" lat="51.241735"><ele>34</ele><time>2022-04-17T08:34:09.000Z</time></trkpt><trkpt lon="5.54906" lat="51.241666"><ele>34.2</ele><time>2022-04-17T08:34:10.000Z</time></trkpt><trkpt lon="5.549106" lat="51.241602"><ele>34.2</ele><time>2022-04-17T08:34:11.000Z</time></trkpt><trkpt lon="5.549157" lat="51.241536"><ele>34</ele><time>2022-04-17T08:34:12.000Z</time></trkpt><trkpt lon="5.549204" lat="51.24147"><ele>34</ele><time>2022-04-17T08:34:13.000Z</time></trkpt><trkpt lon="5.549256" lat="51.241403"><ele>34.2</ele><time>2022-04-17T08:34:14.000Z</time></trkpt><trkpt lon="5.549306" lat="51.241336"><ele>34.2</ele><time>2022-04-17T08:34:15.000Z</time></trkpt><trkpt lon="5.549354" lat="51.241268"><ele>34.4</ele><time>2022-04-17T08:34:16.000Z</time></trkpt><trkpt lon="5.549402" lat="51.2412"><ele>34.4</ele><time>2022-04-17T08:34:17.000Z</time></trkpt><trkpt lon="5.549449" lat="51.241136"><ele>34.4</ele><time>2022-04-17T08:34:18.000Z</time></trkpt><trkpt lon="5.549499" lat="51.241072"><ele>34.6</ele><time>2022-04-17T08:34:19.000Z</time></trkpt><trkpt lon="5.549546" lat="51.241009"><ele>34.8</ele><time>2022-04-17T08:34:20.000Z</time></trkpt><trkpt lon="5.549595" lat="51.24094"><ele>34.8</ele><time>2022-04-17T08:34:21.000Z</time></trkpt><trkpt lon="5.549646" lat="51.240871"><ele>34.8</ele><time>2022-04-17T08:34:22.000Z</time></trkpt><trkpt lon="5.549698" lat="51.240802"><ele>34.8</ele><time>2022-04-17T08:34:23.000Z</time></trkpt><trkpt lon="5.549751" lat="51.240733"><ele>35</ele><time>2022-04-17T08:34:24.000Z</time></trkpt><trkpt lon="5.549803" lat="51.240666"><ele>35</ele><time>2022-04-17T08:34:25.000Z</time></trkpt><trkpt lon="5.549852" lat="51.240601"><ele>34.8</ele><time>2022-04-17T08:34:26.000Z</time></trkpt><trkpt lon="5.5499" lat="51.240536"><ele>34.8</ele><time>2022-04-17T08:34:27.000Z</time></trkpt><trkpt lon="5.549944" lat="51.240472"><ele>35</ele><time>2022-04-17T08:34:28.000Z</time></trkpt><trkpt lon="5.549988" lat="51.240405"><ele>35</ele><time>2022-04-17T08:34:29.000Z</time></trkpt><trkpt lon="5.550026" lat="51.240338"><ele>35.2</ele><time>2022-04-17T08:34:30.000Z</time></trkpt><trkpt lon="5.550065" lat="51.240272"><ele>35.2</ele><time>2022-04-17T08:34:31.000Z</time></trkpt><trkpt lon="5.550109" lat="51.240205"><ele>35</ele><time>2022-04-17T08:34:32.000Z</time></trkpt><trkpt lon="5.550156" lat="51.24014"><ele>35.2</ele><time>2022-04-17T08:34:33.000Z</time></trkpt><trkpt lon="5.550204" lat="51.240075"><ele>35.2</ele><time>2022-04-17T08:34:34.000Z</time></trkpt><trkpt lon="5.55025" lat="51.240012"><ele>35</ele><time>2022-04-17T08:34:35.000Z</time></trkpt><trkpt lon="5.550294" lat="51.239954"><ele>35</ele><time>2022-04-17T08:34:36.000Z</time></trkpt><trkpt lon="5.550353" lat="51.23988"><ele>35</ele><time>2022-04-17T08:34:37.000Z</time></trkpt><trkpt lon="5.550403" lat="51.239814"><ele>34.8</ele><time>2022-04-17T08:34:38.000Z</time></trkpt><trkpt lon="5.550453" lat="51.239747"><ele>34.6</ele><time>2022-04-17T08:34:39.000Z</time></trkpt><trkpt lon="5.550502" lat="51.239681"><ele>34.6</ele><time>2022-04-17T08:34:40.000Z</time></trkpt><trkpt lon="5.550549" lat="51.239612"><ele>34.4</ele><time>2022-04-17T08:34:41.000Z</time></trkpt><trkpt lon="5.550593" lat="51.239542"><ele>34.6</ele><time>2022-04-17T08:34:42.000Z</time></trkpt><trkpt lon="5.550638" lat="51.239479"><ele>34.6</ele><time>2022-04-17T08:34:43.000Z</time></trkpt><trkpt lon="5.550684" lat="51.239412"><ele>34.6</ele><time>2022-04-17T08:34:44.000Z</time></trkpt><trkpt lon="5.55073" lat="51.239345"><ele>34.6</ele><time>2022-04-17T08:34:45.000Z</time></trkpt><trkpt lon="5.550777" lat="51.239279"><ele>34.6</ele><time>2022-04-17T08:34:46.000Z</time></trkpt><trkpt lon="5.550824" lat="51.239215"><ele>34.6</ele><time>2022-04-17T08:34:47.000Z</time></trkpt><trkpt lon="5.550875" lat="51.239148"><ele>34.8</ele><time>2022-04-17T08:34:48.000Z</time></trkpt><trkpt lon="5.550923" lat="51.239083"><ele>35</ele><time>2022-04-17T08:34:49.000Z</time></trkpt><trkpt lon="5.550972" lat="51.239014"><ele>35</ele><time>2022-04-17T08:34:50.000Z</time></trkpt><trkpt lon="5.551022" lat="51.23895"><ele>35</ele><time>2022-04-17T08:34:51.000Z</time></trkpt><trkpt lon="5.551073" lat="51.238883"><ele>34.8</ele><time>2022-04-17T08:34:52.000Z</time></trkpt><trkpt lon="5.551124" lat="51.238816"><ele>34.6</ele><time>2022-04-17T08:34:53.000Z</time></trkpt><trkpt lon="5.551173" lat="51.238751"><ele>34.8</ele><time>2022-04-17T08:34:54.000Z</time></trkpt><trkpt lon="5.55122" lat="51.238686"><ele>34.8</ele><time>2022-04-17T08:34:55.000Z</time></trkpt><trkpt lon="5.55127" lat="51.23862"><ele>34.8</ele><time>2022-04-17T08:34:56.000Z</time></trkpt><trkpt lon="5.551321" lat="51.238552"><ele>34.6</ele><time>2022-04-17T08:34:57.000Z</time></trkpt><trkpt lon="5.551372" lat="51.238486"><ele>34.8</ele><time>2022-04-17T08:34:58.000Z</time></trkpt><trkpt lon="5.551424" lat="51.238419"><ele>34.8</ele><time>2022-04-17T08:34:59.000Z</time></trkpt><trkpt lon="5.551478" lat="51.238346"><ele>34.8</ele><time>2022-04-17T08:35:00.000Z</time></trkpt><trkpt lon="5.551531" lat="51.238277"><ele>34.8</ele><time>2022-04-17T08:35:01.000Z</time></trkpt><trkpt lon="5.551583" lat="51.238209"><ele>34.8</ele><time>2022-04-17T08:35:02.000Z</time></trkpt><trkpt lon="5.551634" lat="51.238144"><ele>34.8</ele><time>2022-04-17T08:35:03.000Z</time></trkpt><trkpt lon="5.551682" lat="51.238076"><ele>34.8</ele><time>2022-04-17T08:35:04.000Z</time></trkpt><trkpt lon="5.55173" lat="51.238015"><ele>34.8</ele><time>2022-04-17T08:35:05.000Z</time></trkpt><trkpt lon="5.551772" lat="51.23796"><ele>34.6</ele><time>2022-04-17T08:35:06.000Z</time></trkpt><trkpt lon="5.551832" lat="51.237881"><ele>34.6</ele><time>2022-04-17T08:35:07.000Z</time></trkpt><trkpt lon="5.551883" lat="51.237817"><ele>34.4</ele><time>2022-04-17T08:35:08.000Z</time></trkpt><trkpt lon="5.551927" lat="51.237755"><ele>34.4</ele><time>2022-04-17T08:35:09.000Z</time></trkpt><trkpt lon="5.551958" lat="51.237691"><ele>34.4</ele><time>2022-04-17T08:35:10.000Z</time></trkpt><trkpt lon="5.551978" lat="51.237624"><ele>34.6</ele><time>2022-04-17T08:35:11.000Z</time></trkpt><trkpt lon="5.551997" lat="51.237552"><ele>34.6</ele><time>2022-04-17T08:35:12.000Z</time></trkpt><trkpt lon="5.552024" lat="51.237483"><ele>34.6</ele><time>2022-04-17T08:35:13.000Z</time></trkpt><trkpt lon="5.552064" lat="51.237415"><ele>34.6</ele><time>2022-04-17T08:35:14.000Z</time></trkpt><trkpt lon="5.552111" lat="51.237347"><ele>34.8</ele><time>2022-04-17T08:35:15.000Z</time></trkpt><trkpt lon="5.552162" lat="51.237283"><ele>34.8</ele><time>2022-04-17T08:35:16.000Z</time></trkpt><trkpt lon="5.552218" lat="51.237218"><ele>34.8</ele><time>2022-04-17T08:35:17.000Z</time></trkpt><trkpt lon="5.552276" lat="51.237154"><ele>34.8</ele><time>2022-04-17T08:35:18.000Z</time></trkpt><trkpt lon="5.552338" lat="51.237092"><ele>34.8</ele><time>2022-04-17T08:35:19.000Z</time></trkpt><trkpt lon="5.552401" lat="51.237027"><ele>34.8</ele><time>2022-04-17T08:35:20.000Z</time></trkpt><trkpt lon="5.552464" lat="51.236962"><ele>34.8</ele><time>2022-04-17T08:35:21.000Z</time></trkpt><trkpt lon="5.552522" lat="51.236897"><ele>34.8</ele><time>2022-04-17T08:35:22.000Z</time></trkpt><trkpt lon="5.552574" lat="51.236832"><ele>34.8</ele><time>2022-04-17T08:35:23.000Z</time></trkpt><trkpt lon="5.552624" lat="51.236763"><ele>34.8</ele><time>2022-04-17T08:35:24.000Z</time></trkpt><trkpt lon="5.552674" lat="51.236697"><ele>34.8</ele><time>2022-04-17T08:35:25.000Z</time></trkpt><trkpt lon="5.552724" lat="51.236629"><ele>34.8</ele><time>2022-04-17T08:35:26.000Z</time></trkpt><trkpt lon="5.552772" lat="51.236562"><ele>34.8</ele><time>2022-04-17T08:35:27.000Z</time></trkpt><trkpt lon="5.552822" lat="51.236495"><ele>34.8</ele><time>2022-04-17T08:35:28.000Z</time></trkpt><trkpt lon="5.552872" lat="51.236425"><ele>34.8</ele><time>2022-04-17T08:35:29.000Z</time></trkpt><trkpt lon="5.552923" lat="51.236358"><ele>35</ele><time>2022-04-17T08:35:30.000Z</time></trkpt><trkpt lon="5.552973" lat="51.236291"><ele>35</ele><time>2022-04-17T08:35:31.000Z</time></trkpt><trkpt lon="5.553023" lat="51.236224"><ele>34.8</ele><time>2022-04-17T08:35:32.000Z</time></trkpt><trkpt lon="5.553072" lat="51.236158"><ele>35</ele><time>2022-04-17T08:35:33.000Z</time></trkpt><trkpt lon="5.553122" lat="51.236092"><ele>35</ele><time>2022-04-17T08:35:34.000Z</time></trkpt><trkpt lon="5.553169" lat="51.23603"><ele>35</ele><time>2022-04-17T08:35:35.000Z</time></trkpt><trkpt lon="5.553211" lat="51.235973"><ele>35</ele><time>2022-04-17T08:35:36.000Z</time></trkpt><trkpt lon="5.553266" lat="51.235902"><ele>35</ele><time>2022-04-17T08:35:37.000Z</time></trkpt><trkpt lon="5.553319" lat="51.235833"><ele>34.8</ele><time>2022-04-17T08:35:38.000Z</time></trkpt><trkpt lon="5.553367" lat="51.235768"><ele>34.8</ele><time>2022-04-17T08:35:39.000Z</time></trkpt><trkpt lon="5.553416" lat="51.235703"><ele>34.8</ele><time>2022-04-17T08:35:40.000Z</time></trkpt><trkpt lon="5.553466" lat="51.235638"><ele>34.8</ele><time>2022-04-17T08:35:41.000Z</time></trkpt><trkpt lon="5.553516" lat="51.235573"><ele>34.8</ele><time>2022-04-17T08:35:42.000Z</time></trkpt><trkpt lon="5.553563" lat="51.235509"><ele>34.6</ele><time>2022-04-17T08:35:43.000Z</time></trkpt><trkpt lon="5.553609" lat="51.235446"><ele>34.6</ele><time>2022-04-17T08:35:44.000Z</time></trkpt><trkpt lon="5.553657" lat="51.235384"><ele>34.4</ele><time>2022-04-17T08:35:45.000Z</time></trkpt><trkpt lon="5.553705" lat="51.235322"><ele>34.6</ele><time>2022-04-17T08:35:46.000Z</time></trkpt><trkpt lon="5.553754" lat="51.235257"><ele>34.4</ele><time>2022-04-17T08:35:47.000Z</time></trkpt><trkpt lon="5.553802" lat="51.235192"><ele>34.4</ele><time>2022-04-17T08:35:48.000Z</time></trkpt><trkpt lon="5.553852" lat="51.235126"><ele>34.4</ele><time>2022-04-17T08:35:49.000Z</time></trkpt><trkpt lon="5.553901" lat="51.235058"><ele>34.6</ele><time>2022-04-17T08:35:50.000Z</time></trkpt><trkpt lon="5.55395" lat="51.234994"><ele>34.6</ele><time>2022-04-17T08:35:51.000Z</time></trkpt><trkpt lon="5.554" lat="51.234928"><ele>34.8</ele><time>2022-04-17T08:35:52.000Z</time></trkpt><trkpt lon="5.554046" lat="51.234861"><ele>34.8</ele><time>2022-04-17T08:35:53.000Z</time></trkpt><trkpt lon="5.554095" lat="51.234797"><ele>34.8</ele><time>2022-04-17T08:35:54.000Z</time></trkpt><trkpt lon="5.554146" lat="51.234729"><ele>35</ele><time>2022-04-17T08:35:55.000Z</time></trkpt><trkpt lon="5.554193" lat="51.234662"><ele>35</ele><time>2022-04-17T08:35:56.000Z</time></trkpt><trkpt lon="5.55424" lat="51.234597"><ele>35</ele><time>2022-04-17T08:35:57.000Z</time></trkpt><trkpt lon="5.554289" lat="51.234533"><ele>35</ele><time>2022-04-17T08:35:58.000Z</time></trkpt><trkpt lon="5.554338" lat="51.234468"><ele>35</ele><time>2022-04-17T08:35:59.000Z</time></trkpt><trkpt lon="5.554387" lat="51.234402"><ele>34.8</ele><time>2022-04-17T08:36:00.000Z</time></trkpt><trkpt lon="5.554435" lat="51.234338"><ele>34.6</ele><time>2022-04-17T08:36:01.000Z</time></trkpt><trkpt lon="5.55448" lat="51.234271"><ele>34.4</ele><time>2022-04-17T08:36:02.000Z</time></trkpt><trkpt lon="5.554527" lat="51.234203"><ele>34.4</ele><time>2022-04-17T08:36:03.000Z</time></trkpt><trkpt lon="5.554574" lat="51.234135"><ele>34.4</ele><time>2022-04-17T08:36:04.000Z</time></trkpt><trkpt lon="5.55462" lat="51.234073"><ele>34.6</ele><time>2022-04-17T08:36:05.000Z</time></trkpt><trkpt lon="5.554664" lat="51.234015"><ele>34.4</ele><time>2022-04-17T08:36:06.000Z</time></trkpt><trkpt lon="5.554719" lat="51.23394"><ele>34.4</ele><time>2022-04-17T08:36:07.000Z</time></trkpt><trkpt lon="5.554766" lat="51.233875"><ele>34.4</ele><time>2022-04-17T08:36:08.000Z</time></trkpt><trkpt lon="5.554811" lat="51.233808"><ele>34.6</ele><time>2022-04-17T08:36:09.000Z</time></trkpt><trkpt lon="5.554858" lat="51.233747"><ele>34.6</ele><time>2022-04-17T08:36:10.000Z</time></trkpt><trkpt lon="5.554909" lat="51.233681"><ele>34.4</ele><time>2022-04-17T08:36:11.000Z</time></trkpt><trkpt lon="5.554959" lat="51.233616"><ele>34.4</ele><time>2022-04-17T08:36:12.000Z</time></trkpt><trkpt lon="5.555007" lat="51.233551"><ele>34.2</ele><time>2022-04-17T08:36:13.000Z</time></trkpt><trkpt lon="5.555055" lat="51.233483"><ele>34.2</ele><time>2022-04-17T08:36:14.000Z</time></trkpt><trkpt lon="5.555103" lat="51.233418"><ele>34.4</ele><time>2022-04-17T08:36:15.000Z</time></trkpt><trkpt lon="5.555151" lat="51.233354"><ele>34.4</ele><time>2022-04-17T08:36:16.000Z</time></trkpt><trkpt lon="5.5552" lat="51.233287"><ele>34.4</ele><time>2022-04-17T08:36:17.000Z</time></trkpt><trkpt lon="5.555246" lat="51.23322"><ele>34.4</ele><time>2022-04-17T08:36:18.000Z</time></trkpt><trkpt lon="5.555292" lat="51.233155"><ele>34.4</ele><time>2022-04-17T08:36:19.000Z</time></trkpt><trkpt lon="5.555342" lat="51.233091"><ele>34.4</ele><time>2022-04-17T08:36:20.000Z</time></trkpt><trkpt lon="5.555393" lat="51.233023"><ele>34.4</ele><time>2022-04-17T08:36:21.000Z</time></trkpt><trkpt lon="5.555446" lat="51.232956"><ele>34.4</ele><time>2022-04-17T08:36:22.000Z</time></trkpt><trkpt lon="5.5555" lat="51.232892"><ele>34.6</ele><time>2022-04-17T08:36:23.000Z</time></trkpt><trkpt lon="5.555552" lat="51.232827"><ele>34.4</ele><time>2022-04-17T08:36:24.000Z</time></trkpt><trkpt lon="5.555603" lat="51.232762"><ele>34.4</ele><time>2022-04-17T08:36:25.000Z</time></trkpt><trkpt lon="5.555652" lat="51.232698"><ele>34.4</ele><time>2022-04-17T08:36:26.000Z</time></trkpt><trkpt lon="5.555701" lat="51.232633"><ele>34.4</ele><time>2022-04-17T08:36:27.000Z</time></trkpt><trkpt lon="5.555749" lat="51.232563"><ele>34.6</ele><time>2022-04-17T08:36:28.000Z</time></trkpt><trkpt lon="5.555795" lat="51.232494"><ele>34.6</ele><time>2022-04-17T08:36:29.000Z</time></trkpt><trkpt lon="5.555842" lat="51.232425"><ele>34.8</ele><time>2022-04-17T08:36:30.000Z</time></trkpt><trkpt lon="5.555886" lat="51.232356"><ele>34.8</ele><time>2022-04-17T08:36:31.000Z</time></trkpt><trkpt lon="5.555932" lat="51.232287"><ele>34.8</ele><time>2022-04-17T08:36:32.000Z</time></trkpt><trkpt lon="5.555978" lat="51.232219"><ele>34.8</ele><time>2022-04-17T08:36:33.000Z</time></trkpt><trkpt lon="5.556024" lat="51.23215"><ele>34.8</ele><time>2022-04-17T08:36:34.000Z</time></trkpt><trkpt lon="5.556064" lat="51.232085"><ele>35</ele><time>2022-04-17T08:36:35.000Z</time></trkpt><trkpt lon="5.556097" lat="51.232028"><ele>35</ele><time>2022-04-17T08:36:36.000Z</time></trkpt><trkpt lon="5.556143" lat="51.231948"><ele>35</ele><time>2022-04-17T08:36:37.000Z</time></trkpt><trkpt lon="5.556185" lat="51.231872"><ele>35.2</ele><time>2022-04-17T08:36:38.000Z</time></trkpt><trkpt lon="5.556217" lat="51.231803"><ele>35.2</ele><time>2022-04-17T08:36:39.000Z</time></trkpt><trkpt lon="5.55625" lat="51.23173"><ele>35.2</ele><time>2022-04-17T08:36:40.000Z</time></trkpt><trkpt lon="5.556279" lat="51.231658"><ele>35.2</ele><time>2022-04-17T08:36:41.000Z</time></trkpt><trkpt lon="5.556304" lat="51.231585"><ele>35.2</ele><time>2022-04-17T08:36:42.000Z</time></trkpt><trkpt lon="5.556327" lat="51.231513"><ele>35.2</ele><time>2022-04-17T08:36:43.000Z</time></trkpt><trkpt lon="5.556345" lat="51.23144"><ele>35.2</ele><time>2022-04-17T08:36:44.000Z</time></trkpt><trkpt lon="5.55636" lat="51.231369"><ele>35.2</ele><time>2022-04-17T08:36:45.000Z</time></trkpt><trkpt lon="5.556372" lat="51.231296"><ele>35.2</ele><time>2022-04-17T08:36:46.000Z</time></trkpt><trkpt lon="5.556381" lat="51.23122"><ele>35.2</ele><time>2022-04-17T08:36:47.000Z</time></trkpt><trkpt lon="5.556386" lat="51.231145"><ele>35</ele><time>2022-04-17T08:36:48.000Z</time></trkpt><trkpt lon="5.556389" lat="51.231069"><ele>35</ele><time>2022-04-17T08:36:49.000Z</time></trkpt><trkpt lon="5.556389" lat="51.230993"><ele>35</ele><time>2022-04-17T08:36:50.000Z</time></trkpt><trkpt lon="5.556386" lat="51.230917"><ele>35</ele><time>2022-04-17T08:36:51.000Z</time></trkpt><trkpt lon="5.556383" lat="51.230841"><ele>35</ele><time>2022-04-17T08:36:52.000Z</time></trkpt><trkpt lon="5.556377" lat="51.230767"><ele>35</ele><time>2022-04-17T08:36:53.000Z</time></trkpt><trkpt lon="5.556367" lat="51.230693"><ele>35</ele><time>2022-04-17T08:36:54.000Z</time></trkpt><trkpt lon="5.556356" lat="51.23062"><ele>35</ele><time>2022-04-17T08:36:55.000Z</time></trkpt><trkpt lon="5.556345" lat="51.230547"><ele>35.2</ele><time>2022-04-17T08:36:56.000Z</time></trkpt><trkpt lon="5.556333" lat="51.230475"><ele>35.2</ele><time>2022-04-17T08:36:57.000Z</time></trkpt><trkpt lon="5.556322" lat="51.230406"><ele>35.2</ele><time>2022-04-17T08:36:58.000Z</time></trkpt><trkpt lon="5.55631" lat="51.230334"><ele>35.2</ele><time>2022-04-17T08:36:59.000Z</time></trkpt><trkpt lon="5.556298" lat="51.230262"><ele>35.2</ele><time>2022-04-17T08:37:00.000Z</time></trkpt><trkpt lon="5.556284" lat="51.230193"><ele>35.2</ele><time>2022-04-17T08:37:01.000Z</time></trkpt><trkpt lon="5.556271" lat="51.23012"><ele>35.2</ele><time>2022-04-17T08:37:02.000Z</time></trkpt><trkpt lon="5.556256" lat="51.230048"><ele>35.2</ele><time>2022-04-17T08:37:03.000Z</time></trkpt><trkpt lon="5.556241" lat="51.229975"><ele>35</ele><time>2022-04-17T08:37:04.000Z</time></trkpt><trkpt lon="5.556225" lat="51.229903"><ele>35</ele><time>2022-04-17T08:37:05.000Z</time></trkpt><trkpt lon="5.556209" lat="51.22983"><ele>35</ele><time>2022-04-17T08:37:06.000Z</time></trkpt><trkpt lon="5.556194" lat="51.229757"><ele>35</ele><time>2022-04-17T08:37:07.000Z</time></trkpt><trkpt lon="5.556181" lat="51.229685"><ele>35</ele><time>2022-04-17T08:37:08.000Z</time></trkpt><trkpt lon="5.556168" lat="51.229613"><ele>35</ele><time>2022-04-17T08:37:09.000Z</time></trkpt><trkpt lon="5.556153" lat="51.229541"><ele>35</ele><time>2022-04-17T08:37:10.000Z</time></trkpt><trkpt lon="5.556138" lat="51.229469"><ele>35</ele><time>2022-04-17T08:37:11.000Z</time></trkpt><trkpt lon="5.556123" lat="51.229396"><ele>35</ele><time>2022-04-17T08:37:12.000Z</time></trkpt><trkpt lon="5.556108" lat="51.229324"><ele>35.2</ele><time>2022-04-17T08:37:13.000Z</time></trkpt><trkpt lon="5.556095" lat="51.229251"><ele>35.2</ele><time>2022-04-17T08:37:14.000Z</time></trkpt><trkpt lon="5.556081" lat="51.229178"><ele>35.2</ele><time>2022-04-17T08:37:15.000Z</time></trkpt><trkpt lon="5.556065" lat="51.229107"><ele>35.4</ele><time>2022-04-17T08:37:16.000Z</time></trkpt><trkpt lon="5.556049" lat="51.229032"><ele>35.4</ele><time>2022-04-17T08:37:17.000Z</time></trkpt><trkpt lon="5.556034" lat="51.22896"><ele>35.4</ele><time>2022-04-17T08:37:18.000Z</time></trkpt><trkpt lon="5.556018" lat="51.228889"><ele>35.4</ele><time>2022-04-17T08:37:19.000Z</time></trkpt><trkpt lon="5.556005" lat="51.228819"><ele>35.4</ele><time>2022-04-17T08:37:20.000Z</time></trkpt><trkpt lon="5.555993" lat="51.228748"><ele>35.4</ele><time>2022-04-17T08:37:21.000Z</time></trkpt><trkpt lon="5.55598" lat="51.228675"><ele>35.4</ele><time>2022-04-17T08:37:22.000Z</time></trkpt><trkpt lon="5.555968" lat="51.228606"><ele>35.4</ele><time>2022-04-17T08:37:23.000Z</time></trkpt><trkpt lon="5.555954" lat="51.228534"><ele>35.4</ele><time>2022-04-17T08:37:24.000Z</time></trkpt><trkpt lon="5.555939" lat="51.228464"><ele>35.4</ele><time>2022-04-17T08:37:25.000Z</time></trkpt><trkpt lon="5.555924" lat="51.228392"><ele>35.4</ele><time>2022-04-17T08:37:26.000Z</time></trkpt><trkpt lon="5.555909" lat="51.22832"><ele>35.4</ele><time>2022-04-17T08:37:27.000Z</time></trkpt><trkpt lon="5.555894" lat="51.228252"><ele>35.4</ele><time>2022-04-17T08:37:28.000Z</time></trkpt><trkpt lon="5.555882" lat="51.228182"><ele>35.4</ele><time>2022-04-17T08:37:29.000Z</time></trkpt><trkpt lon="5.55587" lat="51.228111"><ele>35.6</ele><time>2022-04-17T08:37:30.000Z</time></trkpt><trkpt lon="5.555856" lat="51.228042"><ele>35.6</ele><time>2022-04-17T08:37:31.000Z</time></trkpt><trkpt lon="5.555843" lat="51.227968"><ele>35.6</ele><time>2022-04-17T08:37:32.000Z</time></trkpt><trkpt lon="5.55583" lat="51.227896"><ele>35.6</ele><time>2022-04-17T08:37:33.000Z</time></trkpt><trkpt lon="5.555818" lat="51.227828"><ele>35.6</ele><time>2022-04-17T08:37:34.000Z</time></trkpt><trkpt lon="5.555802" lat="51.227754"><ele>35.6</ele><time>2022-04-17T08:37:35.000Z</time></trkpt><trkpt lon="5.555785" lat="51.227683"><ele>35.6</ele><time>2022-04-17T08:37:36.000Z</time></trkpt><trkpt lon="5.555768" lat="51.227613"><ele>35.8</ele><time>2022-04-17T08:37:37.000Z</time></trkpt><trkpt lon="5.555753" lat="51.227542"><ele>35.6</ele><time>2022-04-17T08:37:38.000Z</time></trkpt><trkpt lon="5.555739" lat="51.227472"><ele>35.8</ele><time>2022-04-17T08:37:39.000Z</time></trkpt><trkpt lon="5.555725" lat="51.2274"><ele>35.8</ele><time>2022-04-17T08:37:40.000Z</time></trkpt><trkpt lon="5.555711" lat="51.227329"><ele>35.8</ele><time>2022-04-17T08:37:41.000Z</time></trkpt><trkpt lon="5.555696" lat="51.227255"><ele>35.8</ele><time>2022-04-17T08:37:42.000Z</time></trkpt><trkpt lon="5.555681" lat="51.227183"><ele>35.8</ele><time>2022-04-17T08:37:43.000Z</time></trkpt><trkpt lon="5.555666" lat="51.22711"><ele>36</ele><time>2022-04-17T08:37:44.000Z</time></trkpt><trkpt lon="5.555652" lat="51.227037"><ele>35.8</ele><time>2022-04-17T08:37:45.000Z</time></trkpt><trkpt lon="5.555638" lat="51.226961"><ele>35.8</ele><time>2022-04-17T08:37:46.000Z</time></trkpt><trkpt lon="5.555624" lat="51.226889"><ele>35.8</ele><time>2022-04-17T08:37:47.000Z</time></trkpt><trkpt lon="5.555611" lat="51.226817"><ele>36</ele><time>2022-04-17T08:37:48.000Z</time></trkpt><trkpt lon="5.555598" lat="51.226743"><ele>36</ele><time>2022-04-17T08:37:49.000Z</time></trkpt><trkpt lon="5.555585" lat="51.226669"><ele>36</ele><time>2022-04-17T08:37:50.000Z</time></trkpt><trkpt lon="5.555572" lat="51.226598"><ele>36</ele><time>2022-04-17T08:37:51.000Z</time></trkpt><trkpt lon="5.55556" lat="51.226522"><ele>36</ele><time>2022-04-17T08:37:52.000Z</time></trkpt><trkpt lon="5.555548" lat="51.226451"><ele>36</ele><time>2022-04-17T08:37:53.000Z</time></trkpt><trkpt lon="5.555535" lat="51.226381"><ele>36</ele><time>2022-04-17T08:37:54.000Z</time></trkpt><trkpt lon="5.555523" lat="51.226311"><ele>36</ele><time>2022-04-17T08:37:55.000Z</time></trkpt><trkpt lon="5.555511" lat="51.226246"><ele>36</ele><time>2022-04-17T08:37:56.000Z</time></trkpt><trkpt lon="5.555498" lat="51.226179"><ele>36</ele><time>2022-04-17T08:37:57.000Z</time></trkpt><trkpt lon="5.555487" lat="51.226114"><ele>36</ele><time>2022-04-17T08:37:58.000Z</time></trkpt><trkpt lon="5.555475" lat="51.226048"><ele>36</ele><time>2022-04-17T08:37:59.000Z</time></trkpt><trkpt lon="5.555463" lat="51.225983"><ele>36</ele><time>2022-04-17T08:38:00.000Z</time></trkpt><trkpt lon="5.55545" lat="51.225921"><ele>36</ele><time>2022-04-17T08:38:01.000Z</time></trkpt><trkpt lon="5.555437" lat="51.22586"><ele>36</ele><time>2022-04-17T08:38:02.000Z</time></trkpt><trkpt lon="5.555426" lat="51.225804"><ele>36</ele><time>2022-04-17T08:38:03.000Z</time></trkpt><trkpt lon="5.555416" lat="51.225751"><ele>36</ele><time>2022-04-17T08:38:04.000Z</time></trkpt><trkpt lon="5.555406" lat="51.225702"><ele>36</ele><time>2022-04-17T08:38:05.000Z</time></trkpt><trkpt lon="5.5554" lat="51.225655"><ele>36</ele><time>2022-04-17T08:38:06.000Z</time></trkpt><trkpt lon="5.555404" lat="51.225615"><ele>36</ele><time>2022-04-17T08:38:07.000Z</time></trkpt><trkpt lon="5.555429" lat="51.225587"><ele>36.2</ele><time>2022-04-17T08:38:08.000Z</time></trkpt><trkpt lon="5.555477" lat="51.225568"><ele>36.2</ele><time>2022-04-17T08:38:09.000Z</time></trkpt><trkpt lon="5.555534" lat="51.225553"><ele>36.2</ele><time>2022-04-17T08:38:10.000Z</time></trkpt><trkpt lon="5.555577" lat="51.225526"><ele>36.2</ele><time>2022-04-17T08:38:11.000Z</time></trkpt><trkpt lon="5.555596" lat="51.225486"><ele>36</ele><time>2022-04-17T08:38:12.000Z</time></trkpt><trkpt lon="5.555596" lat="51.225441"><ele>36</ele><time>2022-04-17T08:38:13.000Z</time></trkpt><trkpt lon="5.555589" lat="51.225387"><ele>36</ele><time>2022-04-17T08:38:14.000Z</time></trkpt><trkpt lon="5.555579" lat="51.225335"><ele>36</ele><time>2022-04-17T08:38:15.000Z</time></trkpt><trkpt lon="5.555569" lat="51.225284"><ele>35.8</ele><time>2022-04-17T08:38:16.000Z</time></trkpt><trkpt lon="5.555559" lat="51.225231"><ele>35.8</ele><time>2022-04-17T08:38:17.000Z</time></trkpt><trkpt lon="5.555551" lat="51.225176"><ele>35.6</ele><time>2022-04-17T08:38:18.000Z</time></trkpt><trkpt lon="5.55554" lat="51.225114"><ele>35.6</ele><time>2022-04-17T08:38:19.000Z</time></trkpt><trkpt lon="5.555526" lat="51.225052"><ele>35.6</ele><time>2022-04-17T08:38:20.000Z</time></trkpt><trkpt lon="5.555513" lat="51.224987"><ele>35.6</ele><time>2022-04-17T08:38:21.000Z</time></trkpt><trkpt lon="5.555502" lat="51.224918"><ele>35.6</ele><time>2022-04-17T08:38:22.000Z</time></trkpt><trkpt lon="5.555492" lat="51.224849"><ele>35.6</ele><time>2022-04-17T08:38:23.000Z</time></trkpt><trkpt lon="5.55548" lat="51.22478"><ele>35.6</ele><time>2022-04-17T08:38:24.000Z</time></trkpt><trkpt lon="5.55547" lat="51.224712"><ele>35.6</ele><time>2022-04-17T08:38:25.000Z</time></trkpt><trkpt lon="5.555459" lat="51.224645"><ele>35.6</ele><time>2022-04-17T08:38:26.000Z</time></trkpt><trkpt lon="5.555446" lat="51.224574"><ele>35.6</ele><time>2022-04-17T08:38:27.000Z</time></trkpt><trkpt lon="5.555433" lat="51.224502"><ele>35.6</ele><time>2022-04-17T08:38:28.000Z</time></trkpt><trkpt lon="5.555419" lat="51.224432"><ele>35.4</ele><time>2022-04-17T08:38:29.000Z</time></trkpt><trkpt lon="5.555406" lat="51.224361"><ele>35.4</ele><time>2022-04-17T08:38:30.000Z</time></trkpt><trkpt lon="5.555397" lat="51.224293"><ele>35.4</ele><time>2022-04-17T08:38:31.000Z</time></trkpt><trkpt lon="5.555385" lat="51.224221"><ele>35.6</ele><time>2022-04-17T08:38:32.000Z</time></trkpt><trkpt lon="5.555373" lat="51.224151"><ele>35.6</ele><time>2022-04-17T08:38:33.000Z</time></trkpt><trkpt lon="5.555359" lat="51.224082"><ele>35.6</ele><time>2022-04-17T08:38:34.000Z</time></trkpt><trkpt lon="5.555345" lat="51.224014"><ele>35.6</ele><time>2022-04-17T08:38:35.000Z</time></trkpt><trkpt lon="5.55533" lat="51.223946"><ele>35.8</ele><time>2022-04-17T08:38:36.000Z</time></trkpt><trkpt lon="5.555313" lat="51.223875"><ele>35.8</ele><time>2022-04-17T08:38:37.000Z</time></trkpt><trkpt lon="5.555295" lat="51.223802"><ele>35.8</ele><time>2022-04-17T08:38:38.000Z</time></trkpt><trkpt lon="5.555278" lat="51.22373"><ele>35.8</ele><time>2022-04-17T08:38:39.000Z</time></trkpt><trkpt lon="5.55526" lat="51.223659"><ele>35.8</ele><time>2022-04-17T08:38:40.000Z</time></trkpt><trkpt lon="5.555244" lat="51.223589"><ele>35.8</ele><time>2022-04-17T08:38:41.000Z</time></trkpt><trkpt lon="5.555231" lat="51.223517"><ele>35.8</ele><time>2022-04-17T08:38:42.000Z</time></trkpt><trkpt lon="5.555215" lat="51.223444"><ele>35.8</ele><time>2022-04-17T08:38:43.000Z</time></trkpt><trkpt lon="5.5552" lat="51.223369"><ele>35.8</ele><time>2022-04-17T08:38:44.000Z</time></trkpt><trkpt lon="5.555187" lat="51.223302"><ele>35.8</ele><time>2022-04-17T08:38:45.000Z</time></trkpt><trkpt lon="5.555174" lat="51.223236"><ele>35.8</ele><time>2022-04-17T08:38:46.000Z</time></trkpt><trkpt lon="5.555161" lat="51.223167"><ele>35.8</ele><time>2022-04-17T08:38:47.000Z</time></trkpt><trkpt lon="5.555148" lat="51.223098"><ele>35.8</ele><time>2022-04-17T08:38:48.000Z</time></trkpt><trkpt lon="5.555134" lat="51.22303"><ele>35.8</ele><time>2022-04-17T08:38:49.000Z</time></trkpt><trkpt lon="5.55512" lat="51.222961"><ele>35.8</ele><time>2022-04-17T08:38:50.000Z</time></trkpt><trkpt lon="5.555108" lat="51.222893"><ele>35.6</ele><time>2022-04-17T08:38:51.000Z</time></trkpt><trkpt lon="5.555092" lat="51.222819"><ele>35.6</ele><time>2022-04-17T08:38:52.000Z</time></trkpt><trkpt lon="5.555078" lat="51.222748"><ele>35.8</ele><time>2022-04-17T08:38:53.000Z</time></trkpt><trkpt lon="5.555064" lat="51.222678"><ele>35.6</ele><time>2022-04-17T08:38:54.000Z</time></trkpt><trkpt lon="5.555048" lat="51.222609"><ele>35.6</ele><time>2022-04-17T08:38:55.000Z</time></trkpt><trkpt lon="5.555032" lat="51.222538"><ele>35.8</ele><time>2022-04-17T08:38:56.000Z</time></trkpt><trkpt lon="5.555017" lat="51.222469"><ele>35.6</ele><time>2022-04-17T08:38:57.000Z</time></trkpt><trkpt lon="5.555002" lat="51.222399"><ele>35.6</ele><time>2022-04-17T08:38:58.000Z</time></trkpt><trkpt lon="5.554987" lat="51.222327"><ele>35.6</ele><time>2022-04-17T08:38:59.000Z</time></trkpt><trkpt lon="5.554973" lat="51.222259"><ele>35.6</ele><time>2022-04-17T08:39:00.000Z</time></trkpt><trkpt lon="5.554959" lat="51.222189"><ele>35.4</ele><time>2022-04-17T08:39:01.000Z</time></trkpt><trkpt lon="5.554947" lat="51.222117"><ele>35.6</ele><time>2022-04-17T08:39:02.000Z</time></trkpt><trkpt lon="5.554935" lat="51.222046"><ele>35.4</ele><time>2022-04-17T08:39:03.000Z</time></trkpt><trkpt lon="5.554922" lat="51.221977"><ele>35.4</ele><time>2022-04-17T08:39:04.000Z</time></trkpt><trkpt lon="5.554909" lat="51.221908"><ele>35.4</ele><time>2022-04-17T08:39:05.000Z</time></trkpt><trkpt lon="5.554893" lat="51.221835"><ele>35.6</ele><time>2022-04-17T08:39:06.000Z</time></trkpt><trkpt lon="5.55488" lat="51.221767"><ele>35.4</ele><time>2022-04-17T08:39:07.000Z</time></trkpt><trkpt lon="5.554869" lat="51.221702"><ele>35.6</ele><time>2022-04-17T08:39:08.000Z</time></trkpt><trkpt lon="5.554858" lat="51.221632"><ele>35.6</ele><time>2022-04-17T08:39:09.000Z</time></trkpt><trkpt lon="5.554844" lat="51.22156"><ele>35.6</ele><time>2022-04-17T08:39:10.000Z</time></trkpt><trkpt lon="5.554832" lat="51.221489"><ele>35.6</ele><time>2022-04-17T08:39:11.000Z</time></trkpt><trkpt lon="5.554822" lat="51.221417"><ele>35.6</ele><time>2022-04-17T08:39:12.000Z</time></trkpt><trkpt lon="5.554811" lat="51.221351"><ele>35.6</ele><time>2022-04-17T08:39:13.000Z</time></trkpt><trkpt lon="5.554801" lat="51.221279"><ele>35.6</ele><time>2022-04-17T08:39:14.000Z</time></trkpt><trkpt lon="5.554792" lat="51.221209"><ele>35.6</ele><time>2022-04-17T08:39:15.000Z</time></trkpt><trkpt lon="5.554785" lat="51.221137"><ele>35.6</ele><time>2022-04-17T08:39:16.000Z</time></trkpt><trkpt lon="5.554781" lat="51.221069"><ele>35.6</ele><time>2022-04-17T08:39:17.000Z</time></trkpt><trkpt lon="5.554782" lat="51.220999"><ele>35.6</ele><time>2022-04-17T08:39:18.000Z</time></trkpt><trkpt lon="5.554786" lat="51.220925"><ele>35.6</ele><time>2022-04-17T08:39:19.000Z</time></trkpt><trkpt lon="5.554791" lat="51.220847"><ele>35.6</ele><time>2022-04-17T08:39:20.000Z</time></trkpt><trkpt lon="5.554794" lat="51.220769"><ele>35.6</ele><time>2022-04-17T08:39:21.000Z</time></trkpt><trkpt lon="5.554798" lat="51.220687"><ele>35.6</ele><time>2022-04-17T08:39:22.000Z</time></trkpt><trkpt lon="5.554802" lat="51.220609"><ele>35.8</ele><time>2022-04-17T08:39:23.000Z</time></trkpt><trkpt lon="5.554809" lat="51.220532"><ele>35.8</ele><time>2022-04-17T08:39:24.000Z</time></trkpt><trkpt lon="5.554815" lat="51.220454"><ele>36</ele><time>2022-04-17T08:39:25.000Z</time></trkpt><trkpt lon="5.554822" lat="51.220382"><ele>36</ele><time>2022-04-17T08:39:26.000Z</time></trkpt><trkpt lon="5.554836" lat="51.220309"><ele>35.8</ele><time>2022-04-17T08:39:27.000Z</time></trkpt><trkpt lon="5.55485" lat="51.220237"><ele>36</ele><time>2022-04-17T08:39:28.000Z</time></trkpt><trkpt lon="5.554862" lat="51.220168"><ele>36.2</ele><time>2022-04-17T08:39:29.000Z</time></trkpt><trkpt lon="5.554878" lat="51.220096"><ele>36.2</ele><time>2022-04-17T08:39:30.000Z</time></trkpt><trkpt lon="5.554893" lat="51.220026"><ele>36.4</ele><time>2022-04-17T08:39:31.000Z</time></trkpt><trkpt lon="5.554912" lat="51.21995"><ele>36.2</ele><time>2022-04-17T08:39:32.000Z</time></trkpt><trkpt lon="5.55493" lat="51.219877"><ele>36.2</ele><time>2022-04-17T08:39:33.000Z</time></trkpt><trkpt lon="5.554949" lat="51.219805"><ele>36.2</ele><time>2022-04-17T08:39:34.000Z</time></trkpt><trkpt lon="5.554967" lat="51.219736"><ele>36.2</ele><time>2022-04-17T08:39:35.000Z</time></trkpt><trkpt lon="5.554983" lat="51.219673"><ele>36.2</ele><time>2022-04-17T08:39:36.000Z</time></trkpt><trkpt lon="5.555005" lat="51.219584"><ele>36.2</ele><time>2022-04-17T08:39:37.000Z</time></trkpt><trkpt lon="5.555025" lat="51.219513"><ele>36.2</ele><time>2022-04-17T08:39:38.000Z</time></trkpt><trkpt lon="5.555044" lat="51.219442"><ele>36.4</ele><time>2022-04-17T08:39:39.000Z</time></trkpt><trkpt lon="5.555064" lat="51.21937"><ele>36.4</ele><time>2022-04-17T08:39:40.000Z</time></trkpt><trkpt lon="5.555084" lat="51.219298"><ele>36.4</ele><time>2022-04-17T08:39:41.000Z</time></trkpt><trkpt lon="5.555103" lat="51.219225"><ele>36.4</ele><time>2022-04-17T08:39:42.000Z</time></trkpt><trkpt lon="5.555124" lat="51.219153"><ele>36.4</ele><time>2022-04-17T08:39:43.000Z</time></trkpt><trkpt lon="5.555144" lat="51.219081"><ele>36.4</ele><time>2022-04-17T08:39:44.000Z</time></trkpt><trkpt lon="5.555166" lat="51.219009"><ele>36.4</ele><time>2022-04-17T08:39:45.000Z</time></trkpt><trkpt lon="5.555188" lat="51.21894"><ele>36.6</ele><time>2022-04-17T08:39:46.000Z</time></trkpt><trkpt lon="5.555209" lat="51.218869"><ele>36.6</ele><time>2022-04-17T08:39:47.000Z</time></trkpt><trkpt lon="5.555231" lat="51.218799"><ele>36.6</ele><time>2022-04-17T08:39:48.000Z</time></trkpt><trkpt lon="5.555252" lat="51.21873"><ele>36.6</ele><time>2022-04-17T08:39:49.000Z</time></trkpt><trkpt lon="5.55527" lat="51.218657"><ele>36.6</ele><time>2022-04-17T08:39:50.000Z</time></trkpt><trkpt lon="5.555287" lat="51.218585"><ele>36.6</ele><time>2022-04-17T08:39:51.000Z</time></trkpt><trkpt lon="5.555304" lat="51.218513"><ele>36.6</ele><time>2022-04-17T08:39:52.000Z</time></trkpt><trkpt lon="5.55532" lat="51.218444"><ele>36.6</ele><time>2022-04-17T08:39:53.000Z</time></trkpt><trkpt lon="5.555337" lat="51.218376"><ele>36.6</ele><time>2022-04-17T08:39:54.000Z</time></trkpt><trkpt lon="5.555356" lat="51.218307"><ele>36.4</ele><time>2022-04-17T08:39:55.000Z</time></trkpt><trkpt lon="5.555376" lat="51.218236"><ele>36.4</ele><time>2022-04-17T08:39:56.000Z</time></trkpt><trkpt lon="5.555392" lat="51.218166"><ele>36.6</ele><time>2022-04-17T08:39:57.000Z</time></trkpt><trkpt lon="5.55541" lat="51.218097"><ele>36.6</ele><time>2022-04-17T08:39:58.000Z</time></trkpt><trkpt lon="5.555431" lat="51.218021"><ele>36.6</ele><time>2022-04-17T08:39:59.000Z</time></trkpt><trkpt lon="5.55545" lat="51.217952"><ele>36.6</ele><time>2022-04-17T08:40:00.000Z</time></trkpt><trkpt lon="5.555467" lat="51.21788"><ele>36.8</ele><time>2022-04-17T08:40:01.000Z</time></trkpt><trkpt lon="5.555483" lat="51.217808"><ele>36.8</ele><time>2022-04-17T08:40:02.000Z</time></trkpt><trkpt lon="5.555502" lat="51.217738"><ele>36.8</ele><time>2022-04-17T08:40:03.000Z</time></trkpt><trkpt lon="5.55552" lat="51.217666"><ele>36.8</ele><time>2022-04-17T08:40:04.000Z</time></trkpt><trkpt lon="5.555533" lat="51.217598"><ele>36.8</ele><time>2022-04-17T08:40:05.000Z</time></trkpt><trkpt lon="5.555546" lat="51.21753"><ele>36.8</ele><time>2022-04-17T08:40:06.000Z</time></trkpt><trkpt lon="5.555565" lat="51.217466"><ele>36.8</ele><time>2022-04-17T08:40:07.000Z</time></trkpt><trkpt lon="5.555588" lat="51.2174"><ele>37</ele><time>2022-04-17T08:40:08.000Z</time></trkpt><trkpt lon="5.555612" lat="51.217335"><ele>37</ele><time>2022-04-17T08:40:09.000Z</time></trkpt><trkpt lon="5.555634" lat="51.217269"><ele>37</ele><time>2022-04-17T08:40:10.000Z</time></trkpt><trkpt lon="5.555653" lat="51.217198"><ele>37</ele><time>2022-04-17T08:40:11.000Z</time></trkpt><trkpt lon="5.555672" lat="51.217126"><ele>37</ele><time>2022-04-17T08:40:12.000Z</time></trkpt><trkpt lon="5.555693" lat="51.217051"><ele>37</ele><time>2022-04-17T08:40:13.000Z</time></trkpt><trkpt lon="5.555713" lat="51.216979"><ele>37</ele><time>2022-04-17T08:40:14.000Z</time></trkpt><trkpt lon="5.555732" lat="51.216906"><ele>37.2</ele><time>2022-04-17T08:40:15.000Z</time></trkpt><trkpt lon="5.555752" lat="51.216834"><ele>37</ele><time>2022-04-17T08:40:16.000Z</time></trkpt><trkpt lon="5.555773" lat="51.216762"><ele>37</ele><time>2022-04-17T08:40:17.000Z</time></trkpt><trkpt lon="5.555794" lat="51.216694"><ele>37</ele><time>2022-04-17T08:40:18.000Z</time></trkpt><trkpt lon="5.555815" lat="51.216626"><ele>37</ele><time>2022-04-17T08:40:19.000Z</time></trkpt><trkpt lon="5.555838" lat="51.216561"><ele>37</ele><time>2022-04-17T08:40:20.000Z</time></trkpt><trkpt lon="5.555862" lat="51.216496"><ele>37</ele><time>2022-04-17T08:40:21.000Z</time></trkpt><trkpt lon="5.555885" lat="51.216425"><ele>37</ele><time>2022-04-17T08:40:22.000Z</time></trkpt><trkpt lon="5.555906" lat="51.216352"><ele>37</ele><time>2022-04-17T08:40:23.000Z</time></trkpt><trkpt lon="5.555927" lat="51.216281"><ele>37</ele><time>2022-04-17T08:40:24.000Z</time></trkpt><trkpt lon="5.555947" lat="51.216211"><ele>37</ele><time>2022-04-17T08:40:25.000Z</time></trkpt><trkpt lon="5.555968" lat="51.216139"><ele>37</ele><time>2022-04-17T08:40:26.000Z</time></trkpt><trkpt lon="5.555989" lat="51.216067"><ele>37.2</ele><time>2022-04-17T08:40:27.000Z</time></trkpt><trkpt lon="5.556009" lat="51.215996"><ele>37</ele><time>2022-04-17T08:40:28.000Z</time></trkpt><trkpt lon="5.556026" lat="51.215926"><ele>37</ele><time>2022-04-17T08:40:29.000Z</time></trkpt><trkpt lon="5.556044" lat="51.215853"><ele>37</ele><time>2022-04-17T08:40:30.000Z</time></trkpt><trkpt lon="5.556064" lat="51.215781"><ele>37</ele><time>2022-04-17T08:40:31.000Z</time></trkpt><trkpt lon="5.556084" lat="51.215709"><ele>37</ele><time>2022-04-17T08:40:32.000Z</time></trkpt><trkpt lon="5.556102" lat="51.215641"><ele>37</ele><time>2022-04-17T08:40:33.000Z</time></trkpt><trkpt lon="5.556121" lat="51.215572"><ele>37</ele><time>2022-04-17T08:40:34.000Z</time></trkpt><trkpt lon="5.556141" lat="51.215503"><ele>37</ele><time>2022-04-17T08:40:35.000Z</time></trkpt><trkpt lon="5.556164" lat="51.21543"><ele>36.8</ele><time>2022-04-17T08:40:36.000Z</time></trkpt><trkpt lon="5.556187" lat="51.215358"><ele>37</ele><time>2022-04-17T08:40:37.000Z</time></trkpt><trkpt lon="5.556207" lat="51.215285"><ele>37</ele><time>2022-04-17T08:40:38.000Z</time></trkpt><trkpt lon="5.556226" lat="51.215215"><ele>37</ele><time>2022-04-17T08:40:39.000Z</time></trkpt><trkpt lon="5.556247" lat="51.215144"><ele>37</ele><time>2022-04-17T08:40:40.000Z</time></trkpt><trkpt lon="5.556267" lat="51.215073"><ele>37</ele><time>2022-04-17T08:40:41.000Z</time></trkpt><trkpt lon="5.55629" lat="51.214999"><ele>36.8</ele><time>2022-04-17T08:40:42.000Z</time></trkpt><trkpt lon="5.556314" lat="51.214928"><ele>37</ele><time>2022-04-17T08:40:43.000Z</time></trkpt><trkpt lon="5.556334" lat="51.214858"><ele>37</ele><time>2022-04-17T08:40:44.000Z</time></trkpt><trkpt lon="5.556354" lat="51.214781"><ele>37</ele><time>2022-04-17T08:40:45.000Z</time></trkpt><trkpt lon="5.556374" lat="51.214705"><ele>37</ele><time>2022-04-17T08:40:46.000Z</time></trkpt><trkpt lon="5.556394" lat="51.21463"><ele>37</ele><time>2022-04-17T08:40:47.000Z</time></trkpt><trkpt lon="5.556415" lat="51.214552"><ele>37</ele><time>2022-04-17T08:40:48.000Z</time></trkpt><trkpt lon="5.556438" lat="51.214475"><ele>37</ele><time>2022-04-17T08:40:49.000Z</time></trkpt><trkpt lon="5.556463" lat="51.214395"><ele>37</ele><time>2022-04-17T08:40:50.000Z</time></trkpt><trkpt lon="5.556485" lat="51.21432"><ele>37</ele><time>2022-04-17T08:40:51.000Z</time></trkpt><trkpt lon="5.556504" lat="51.214242"><ele>37</ele><time>2022-04-17T08:40:52.000Z</time></trkpt><trkpt lon="5.556524" lat="51.214167"><ele>37</ele><time>2022-04-17T08:40:53.000Z</time></trkpt><trkpt lon="5.556544" lat="51.214094"><ele>37</ele><time>2022-04-17T08:40:54.000Z</time></trkpt><trkpt lon="5.556565" lat="51.214018"><ele>37.2</ele><time>2022-04-17T08:40:55.000Z</time></trkpt><trkpt lon="5.556586" lat="51.213946"><ele>37.2</ele><time>2022-04-17T08:40:56.000Z</time></trkpt><trkpt lon="5.556606" lat="51.213874"><ele>37.2</ele><time>2022-04-17T08:40:57.000Z</time></trkpt><trkpt lon="5.556629" lat="51.2138"><ele>37.2</ele><time>2022-04-17T08:40:58.000Z</time></trkpt><trkpt lon="5.556654" lat="51.213725"><ele>37.2</ele><time>2022-04-17T08:40:59.000Z</time></trkpt><trkpt lon="5.556677" lat="51.213654"><ele>37.2</ele><time>2022-04-17T08:41:00.000Z</time></trkpt><trkpt lon="5.556698" lat="51.213581"><ele>37.2</ele><time>2022-04-17T08:41:01.000Z</time></trkpt><trkpt lon="5.556722" lat="51.213511"><ele>37.4</ele><time>2022-04-17T08:41:02.000Z</time></trkpt><trkpt lon="5.556746" lat="51.213439"><ele>37.4</ele><time>2022-04-17T08:41:03.000Z</time></trkpt><trkpt lon="5.556767" lat="51.213364"><ele>37.4</ele><time>2022-04-17T08:41:04.000Z</time></trkpt><trkpt lon="5.556786" lat="51.213285"><ele>37.4</ele><time>2022-04-17T08:41:05.000Z</time></trkpt><trkpt lon="5.556808" lat="51.21321"><ele>37.4</ele><time>2022-04-17T08:41:06.000Z</time></trkpt><trkpt lon="5.556829" lat="51.213133"><ele>37.4</ele><time>2022-04-17T08:41:07.000Z</time></trkpt><trkpt lon="5.556848" lat="51.213059"><ele>37.4</ele><time>2022-04-17T08:41:08.000Z</time></trkpt><trkpt lon="5.556868" lat="51.212984"><ele>37.4</ele><time>2022-04-17T08:41:09.000Z</time></trkpt><trkpt lon="5.556888" lat="51.212912"><ele>37.6</ele><time>2022-04-17T08:41:10.000Z</time></trkpt><trkpt lon="5.556909" lat="51.21284"><ele>37.6</ele><time>2022-04-17T08:41:11.000Z</time></trkpt><trkpt lon="5.556929" lat="51.212766"><ele>37.6</ele><time>2022-04-17T08:41:12.000Z</time></trkpt><trkpt lon="5.55695" lat="51.212694"><ele>37.6</ele><time>2022-04-17T08:41:13.000Z</time></trkpt><trkpt lon="5.556971" lat="51.212621"><ele>37.4</ele><time>2022-04-17T08:41:14.000Z</time></trkpt><trkpt lon="5.556994" lat="51.212546"><ele>37.4</ele><time>2022-04-17T08:41:15.000Z</time></trkpt><trkpt lon="5.557015" lat="51.212472"><ele>37.4</ele><time>2022-04-17T08:41:16.000Z</time></trkpt><trkpt lon="5.557034" lat="51.212401"><ele>37.4</ele><time>2022-04-17T08:41:17.000Z</time></trkpt><trkpt lon="5.557054" lat="51.212328"><ele>37.6</ele><time>2022-04-17T08:41:18.000Z</time></trkpt><trkpt lon="5.557074" lat="51.212254"><ele>37.6</ele><time>2022-04-17T08:41:19.000Z</time></trkpt><trkpt lon="5.557095" lat="51.21218"><ele>37.6</ele><time>2022-04-17T08:41:20.000Z</time></trkpt><trkpt lon="5.557118" lat="51.212107"><ele>37.6</ele><time>2022-04-17T08:41:21.000Z</time></trkpt><trkpt lon="5.557139" lat="51.212034"><ele>37.6</ele><time>2022-04-17T08:41:22.000Z</time></trkpt><trkpt lon="5.557158" lat="51.211962"><ele>37.8</ele><time>2022-04-17T08:41:23.000Z</time></trkpt><trkpt lon="5.557177" lat="51.211888"><ele>37.8</ele><time>2022-04-17T08:41:24.000Z</time></trkpt><trkpt lon="5.557196" lat="51.211813"><ele>37.8</ele><time>2022-04-17T08:41:25.000Z</time></trkpt><trkpt lon="5.557216" lat="51.211741"><ele>37.8</ele><time>2022-04-17T08:41:26.000Z</time></trkpt><trkpt lon="5.557236" lat="51.211668"><ele>37.8</ele><time>2022-04-17T08:41:27.000Z</time></trkpt><trkpt lon="5.557256" lat="51.211595"><ele>37.6</ele><time>2022-04-17T08:41:28.000Z</time></trkpt><trkpt lon="5.557276" lat="51.211521"><ele>37.6</ele><time>2022-04-17T08:41:29.000Z</time></trkpt><trkpt lon="5.557295" lat="51.211452"><ele>37.8</ele><time>2022-04-17T08:41:30.000Z</time></trkpt><trkpt lon="5.557315" lat="51.211379"><ele>37.8</ele><time>2022-04-17T08:41:31.000Z</time></trkpt><trkpt lon="5.557335" lat="51.211302"><ele>37.6</ele><time>2022-04-17T08:41:32.000Z</time></trkpt><trkpt lon="5.557354" lat="51.211228"><ele>37.6</ele><time>2022-04-17T08:41:33.000Z</time></trkpt><trkpt lon="5.557373" lat="51.211153"><ele>37.6</ele><time>2022-04-17T08:41:34.000Z</time></trkpt><trkpt lon="5.557393" lat="51.211081"><ele>37.6</ele><time>2022-04-17T08:41:35.000Z</time></trkpt><trkpt lon="5.557412" lat="51.21101"><ele>37.6</ele><time>2022-04-17T08:41:36.000Z</time></trkpt><trkpt lon="5.557433" lat="51.210936"><ele>37.8</ele><time>2022-04-17T08:41:37.000Z</time></trkpt><trkpt lon="5.557456" lat="51.210859"><ele>37.8</ele><time>2022-04-17T08:41:38.000Z</time></trkpt><trkpt lon="5.557477" lat="51.210786"><ele>37.6</ele><time>2022-04-17T08:41:39.000Z</time></trkpt><trkpt lon="5.557495" lat="51.21071"><ele>37.6</ele><time>2022-04-17T08:41:40.000Z</time></trkpt><trkpt lon="5.557514" lat="51.210635"><ele>37.6</ele><time>2022-04-17T08:41:41.000Z</time></trkpt><trkpt lon="5.557535" lat="51.210559"><ele>37.8</ele><time>2022-04-17T08:41:42.000Z</time></trkpt><trkpt lon="5.557555" lat="51.210485"><ele>37.8</ele><time>2022-04-17T08:41:43.000Z</time></trkpt><trkpt lon="5.557576" lat="51.210411"><ele>38</ele><time>2022-04-17T08:41:44.000Z</time></trkpt><trkpt lon="5.557598" lat="51.210341"><ele>38</ele><time>2022-04-17T08:41:45.000Z</time></trkpt><trkpt lon="5.557616" lat="51.210266"><ele>38</ele><time>2022-04-17T08:41:46.000Z</time></trkpt><trkpt lon="5.557636" lat="51.210189"><ele>38</ele><time>2022-04-17T08:41:47.000Z</time></trkpt><trkpt lon="5.557658" lat="51.21012"><ele>38</ele><time>2022-04-17T08:41:48.000Z</time></trkpt><trkpt lon="5.557679" lat="51.210049"><ele>38</ele><time>2022-04-17T08:41:49.000Z</time></trkpt><trkpt lon="5.557698" lat="51.209981"><ele>38</ele><time>2022-04-17T08:41:50.000Z</time></trkpt><trkpt lon="5.557715" lat="51.209914"><ele>38</ele><time>2022-04-17T08:41:51.000Z</time></trkpt><trkpt lon="5.557731" lat="51.209844"><ele>38</ele><time>2022-04-17T08:41:52.000Z</time></trkpt><trkpt lon="5.557747" lat="51.209777"><ele>38</ele><time>2022-04-17T08:41:53.000Z</time></trkpt><trkpt lon="5.557767" lat="51.209709"><ele>38</ele><time>2022-04-17T08:41:54.000Z</time></trkpt><trkpt lon="5.557786" lat="51.209641"><ele>38</ele><time>2022-04-17T08:41:55.000Z</time></trkpt><trkpt lon="5.557805" lat="51.209575"><ele>38</ele><time>2022-04-17T08:41:56.000Z</time></trkpt><trkpt lon="5.557824" lat="51.209509"><ele>38</ele><time>2022-04-17T08:41:57.000Z</time></trkpt><trkpt lon="5.557844" lat="51.209447"><ele>38</ele><time>2022-04-17T08:41:58.000Z</time></trkpt><trkpt lon="5.557861" lat="51.209384"><ele>38</ele><time>2022-04-17T08:41:59.000Z</time></trkpt><trkpt lon="5.557876" lat="51.209326"><ele>38.2</ele><time>2022-04-17T08:42:00.000Z</time></trkpt><trkpt lon="5.557889" lat="51.209266"><ele>38.2</ele><time>2022-04-17T08:42:01.000Z</time></trkpt><trkpt lon="5.5579" lat="51.209202"><ele>38.2</ele><time>2022-04-17T08:42:02.000Z</time></trkpt><trkpt lon="5.557912" lat="51.209139"><ele>38.2</ele><time>2022-04-17T08:42:03.000Z</time></trkpt><trkpt lon="5.557926" lat="51.209078"><ele>38.2</ele><time>2022-04-17T08:42:04.000Z</time></trkpt><trkpt lon="5.55794" lat="51.209018"><ele>38.2</ele><time>2022-04-17T08:42:05.000Z</time></trkpt><trkpt lon="5.557956" lat="51.20896"><ele>38.2</ele><time>2022-04-17T08:42:06.000Z</time></trkpt><trkpt lon="5.557973" lat="51.2089"><ele>38</ele><time>2022-04-17T08:42:07.000Z</time></trkpt><trkpt lon="5.55799" lat="51.208842"><ele>38</ele><time>2022-04-17T08:42:08.000Z</time></trkpt><trkpt lon="5.558009" lat="51.208786"><ele>38</ele><time>2022-04-17T08:42:09.000Z</time></trkpt><trkpt lon="5.558028" lat="51.208729"><ele>38</ele><time>2022-04-17T08:42:10.000Z</time></trkpt><trkpt lon="5.558045" lat="51.208674"><ele>38</ele><time>2022-04-17T08:42:11.000Z</time></trkpt><trkpt lon="5.558064" lat="51.20862"><ele>38</ele><time>2022-04-17T08:42:12.000Z</time></trkpt><trkpt lon="5.558085" lat="51.208573"><ele>38</ele><time>2022-04-17T08:42:13.000Z</time></trkpt><trkpt lon="5.558111" lat="51.20853"><ele>38</ele><time>2022-04-17T08:42:14.000Z</time></trkpt><trkpt lon="5.558141" lat="51.20849"><ele>38</ele><time>2022-04-17T08:42:15.000Z</time></trkpt><trkpt lon="5.55818" lat="51.208457"><ele>38</ele><time>2022-04-17T08:42:16.000Z</time></trkpt><trkpt lon="5.558224" lat="51.208438"><ele>38</ele><time>2022-04-17T08:42:17.000Z</time></trkpt><trkpt lon="5.558269" lat="51.208425"><ele>38</ele><time>2022-04-17T08:42:18.000Z</time></trkpt><trkpt lon="5.55831" lat="51.208418"><ele>37.8</ele><time>2022-04-17T08:42:19.000Z</time></trkpt><trkpt lon="5.558346" lat="51.208411"><ele>37.8</ele><time>2022-04-17T08:42:20.000Z</time></trkpt><trkpt lon="5.558379" lat="51.208406"><ele>38</ele><time>2022-04-17T08:42:21.000Z</time></trkpt><trkpt lon="5.558405" lat="51.208395"><ele>38</ele><time>2022-04-17T08:42:22.000Z</time></trkpt><trkpt lon="5.558421" lat="51.208376"><ele>38</ele><time>2022-04-17T08:42:23.000Z</time></trkpt><trkpt lon="5.558437" lat="51.208356"><ele>38.2</ele><time>2022-04-17T08:42:24.000Z</time></trkpt><trkpt lon="5.558451" lat="51.208332"><ele>38.2</ele><time>2022-04-17T08:42:25.000Z</time></trkpt><trkpt lon="5.558457" lat="51.208306"><ele>38.2</ele><time>2022-04-17T08:42:26.000Z</time></trkpt><trkpt lon="5.55844" lat="51.208284"><ele>38.2</ele><time>2022-04-17T08:42:27.000Z</time></trkpt><trkpt lon="5.558399" lat="51.208262"><ele>38.2</ele><time>2022-04-17T08:42:28.000Z</time></trkpt><trkpt lon="5.558345" lat="51.208243"><ele>38.2</ele><time>2022-04-17T08:42:29.000Z</time></trkpt><trkpt lon="5.558284" lat="51.208223"><ele>38.4</ele><time>2022-04-17T08:42:30.000Z</time></trkpt><trkpt lon="5.558214" lat="51.208198"><ele>38.2</ele><time>2022-04-17T08:42:31.000Z</time></trkpt><trkpt lon="5.558132" lat="51.208167"><ele>38.2</ele><time>2022-04-17T08:42:32.000Z</time></trkpt><trkpt lon="5.558044" lat="51.208137"><ele>38.2</ele><time>2022-04-17T08:42:33.000Z</time></trkpt><trkpt lon="5.55795" lat="51.208111"><ele>38.2</ele><time>2022-04-17T08:42:34.000Z</time></trkpt><trkpt lon="5.557851" lat="51.208084"><ele>38</ele><time>2022-04-17T08:42:35.000Z</time></trkpt><trkpt lon="5.557748" lat="51.208052"><ele>38</ele><time>2022-04-17T08:42:36.000Z</time></trkpt><trkpt lon="5.557647" lat="51.208018"><ele>38</ele><time>2022-04-17T08:42:37.000Z</time></trkpt><trkpt lon="5.557547" lat="51.207983"><ele>38</ele><time>2022-04-17T08:42:38.000Z</time></trkpt><trkpt lon="5.557453" lat="51.20795"><ele>38</ele><time>2022-04-17T08:42:39.000Z</time></trkpt><trkpt lon="5.557359" lat="51.207919"><ele>38</ele><time>2022-04-17T08:42:40.000Z</time></trkpt><trkpt lon="5.557267" lat="51.207887"><ele>37.8</ele><time>2022-04-17T08:42:41.000Z</time></trkpt><trkpt lon="5.557175" lat="51.207858"><ele>37.8</ele><time>2022-04-17T08:42:42.000Z</time></trkpt><trkpt lon="5.557091" lat="51.207828"><ele>37.8</ele><time>2022-04-17T08:42:43.000Z</time></trkpt><trkpt lon="5.557009" lat="51.207797"><ele>38</ele><time>2022-04-17T08:42:44.000Z</time></trkpt><trkpt lon="5.556929" lat="51.207768"><ele>38</ele><time>2022-04-17T08:42:45.000Z</time></trkpt><trkpt lon="5.556853" lat="51.20774"><ele>38</ele><time>2022-04-17T08:42:46.000Z</time></trkpt><trkpt lon="5.556779" lat="51.207711"><ele>38.2</ele><time>2022-04-17T08:42:47.000Z</time></trkpt><trkpt lon="5.556707" lat="51.207684"><ele>38.2</ele><time>2022-04-17T08:42:48.000Z</time></trkpt><trkpt lon="5.556637" lat="51.207657"><ele>38.4</ele><time>2022-04-17T08:42:49.000Z</time></trkpt><trkpt lon="5.556565" lat="51.207631"><ele>38.4</ele><time>2022-04-17T08:42:50.000Z</time></trkpt><trkpt lon="5.556497" lat="51.207606"><ele>38.6</ele><time>2022-04-17T08:42:51.000Z</time></trkpt><trkpt lon="5.556422" lat="51.207581"><ele>38.6</ele><time>2022-04-17T08:42:52.000Z</time></trkpt><trkpt lon="5.556353" lat="51.207554"><ele>38.8</ele><time>2022-04-17T08:42:53.000Z</time></trkpt><trkpt lon="5.556286" lat="51.207528"><ele>38.8</ele><time>2022-04-17T08:42:54.000Z</time></trkpt><trkpt lon="5.556227" lat="51.207507"><ele>39</ele><time>2022-04-17T08:42:55.000Z</time></trkpt><trkpt lon="5.556175" lat="51.207487"><ele>39.2</ele><time>2022-04-17T08:42:56.000Z</time></trkpt><trkpt lon="5.55613" lat="51.207463"><ele>39.4</ele><time>2022-04-17T08:42:57.000Z</time></trkpt><trkpt lon="5.556098" lat="51.207436"><ele>39.4</ele><time>2022-04-17T08:42:58.000Z</time></trkpt><trkpt lon="5.556085" lat="51.20741"><ele>39.6</ele><time>2022-04-17T08:42:59.000Z</time></trkpt><trkpt lon="5.556094" lat="51.207381"><ele>39.8</ele><time>2022-04-17T08:43:00.000Z</time></trkpt><trkpt lon="5.556118" lat="51.207342"><ele>39.8</ele><time>2022-04-17T08:43:01.000Z</time></trkpt><trkpt lon="5.556145" lat="51.207304"><ele>39.8</ele><time>2022-04-17T08:43:02.000Z</time></trkpt><trkpt lon="5.556164" lat="51.20727"><ele>39.8</ele><time>2022-04-17T08:43:03.000Z</time></trkpt><trkpt lon="5.556178" lat="51.207237"><ele>40</ele><time>2022-04-17T08:43:04.000Z</time></trkpt><trkpt lon="5.556191" lat="51.207205"><ele>40</ele><time>2022-04-17T08:43:05.000Z</time></trkpt><trkpt lon="5.556214" lat="51.207172"><ele>40</ele><time>2022-04-17T08:43:06.000Z</time></trkpt><trkpt lon="5.556257" lat="51.207145"><ele>40</ele><time>2022-04-17T08:43:07.000Z</time></trkpt><trkpt lon="5.556316" lat="51.207135"><ele>39.8</ele><time>2022-04-17T08:43:08.000Z</time></trkpt><trkpt lon="5.556388" lat="51.207144"><ele>39.8</ele><time>2022-04-17T08:43:09.000Z</time></trkpt><trkpt lon="5.556459" lat="51.207171"><ele>39.8</ele><time>2022-04-17T08:43:10.000Z</time></trkpt><trkpt lon="5.556527" lat="51.207207"><ele>39.6</ele><time>2022-04-17T08:43:11.000Z</time></trkpt><trkpt lon="5.556605" lat="51.207242"><ele>39.6</ele><time>2022-04-17T08:43:12.000Z</time></trkpt><trkpt lon="5.556686" lat="51.207272"><ele>39.6</ele><time>2022-04-17T08:43:13.000Z</time></trkpt><trkpt lon="5.556769" lat="51.207303"><ele>39.4</ele><time>2022-04-17T08:43:14.000Z</time></trkpt><trkpt lon="5.556854" lat="51.207332"><ele>39.4</ele><time>2022-04-17T08:43:15.000Z</time></trkpt><trkpt lon="5.556938" lat="51.207359"><ele>39.4</ele><time>2022-04-17T08:43:16.000Z</time></trkpt><trkpt lon="5.557021" lat="51.207386"><ele>39.4</ele><time>2022-04-17T08:43:17.000Z</time></trkpt><trkpt lon="5.557105" lat="51.207412"><ele>39.2</ele><time>2022-04-17T08:43:18.000Z</time></trkpt><trkpt lon="5.557188" lat="51.207441"><ele>39</ele><time>2022-04-17T08:43:19.000Z</time></trkpt><trkpt lon="5.557267" lat="51.207469"><ele>38.8</ele><time>2022-04-17T08:43:20.000Z</time></trkpt><trkpt lon="5.55734" lat="51.207494"><ele>38.8</ele><time>2022-04-17T08:43:21.000Z</time></trkpt><trkpt lon="5.55743" lat="51.207531"><ele>38.8</ele><time>2022-04-17T08:43:22.000Z</time></trkpt><trkpt lon="5.557513" lat="51.207554"><ele>38.6</ele><time>2022-04-17T08:43:23.000Z</time></trkpt><trkpt lon="5.5576" lat="51.207564"><ele>38.6</ele><time>2022-04-17T08:43:24.000Z</time></trkpt><trkpt lon="5.557687" lat="51.207554"><ele>38.4</ele><time>2022-04-17T08:43:25.000Z</time></trkpt><trkpt lon="5.557765" lat="51.207523"><ele>38.2</ele><time>2022-04-17T08:43:26.000Z</time></trkpt><trkpt lon="5.557843" lat="51.207476"><ele>38</ele><time>2022-04-17T08:43:27.000Z</time></trkpt><trkpt lon="5.557923" lat="51.207426"><ele>37.8</ele><time>2022-04-17T08:43:28.000Z</time></trkpt><trkpt lon="5.558009" lat="51.207372"><ele>37.6</ele><time>2022-04-17T08:43:29.000Z</time></trkpt><trkpt lon="5.558096" lat="51.207319"><ele>37.4</ele><time>2022-04-17T08:43:30.000Z</time></trkpt><trkpt lon="5.558181" lat="51.207268"><ele>37.2</ele><time>2022-04-17T08:43:31.000Z</time></trkpt><trkpt lon="5.558275" lat="51.207219"><ele>37</ele><time>2022-04-17T08:43:32.000Z</time></trkpt><trkpt lon="5.558368" lat="51.207171"><ele>36.8</ele><time>2022-04-17T08:43:33.000Z</time></trkpt><trkpt lon="5.558463" lat="51.207126"><ele>36.6</ele><time>2022-04-17T08:43:34.000Z</time></trkpt><trkpt lon="5.558556" lat="51.207081"><ele>36.6</ele><time>2022-04-17T08:43:35.000Z</time></trkpt><trkpt lon="5.558652" lat="51.207039"><ele>36.6</ele><time>2022-04-17T08:43:36.000Z</time></trkpt><trkpt lon="5.558752" lat="51.206997"><ele>36.6</ele><time>2022-04-17T08:43:37.000Z</time></trkpt><trkpt lon="5.558848" lat="51.206958"><ele>36.6</ele><time>2022-04-17T08:43:38.000Z</time></trkpt><trkpt lon="5.558948" lat="51.206916"><ele>36.6</ele><time>2022-04-17T08:43:39.000Z</time></trkpt><trkpt lon="5.559045" lat="51.206876"><ele>36.6</ele><time>2022-04-17T08:43:40.000Z</time></trkpt><trkpt lon="5.559138" lat="51.206839"><ele>36.8</ele><time>2022-04-17T08:43:41.000Z</time></trkpt><trkpt lon="5.559231" lat="51.2068"><ele>36.8</ele><time>2022-04-17T08:43:42.000Z</time></trkpt><trkpt lon="5.55932" lat="51.206757"><ele>36.6</ele><time>2022-04-17T08:43:43.000Z</time></trkpt><trkpt lon="5.55941" lat="51.206711"><ele>36.6</ele><time>2022-04-17T08:43:44.000Z</time></trkpt><trkpt lon="5.5595" lat="51.206665"><ele>36.6</ele><time>2022-04-17T08:43:45.000Z</time></trkpt><trkpt lon="5.559592" lat="51.206618"><ele>36.6</ele><time>2022-04-17T08:43:46.000Z</time></trkpt><trkpt lon="5.55968" lat="51.206573"><ele>36.6</ele><time>2022-04-17T08:43:47.000Z</time></trkpt><trkpt lon="5.559767" lat="51.206527"><ele>36.4</ele><time>2022-04-17T08:43:48.000Z</time></trkpt><trkpt lon="5.559857" lat="51.206483"><ele>36.2</ele><time>2022-04-17T08:43:49.000Z</time></trkpt><trkpt lon="5.559949" lat="51.206449"><ele>36.2</ele><time>2022-04-17T08:43:50.000Z</time></trkpt><trkpt lon="5.560043" lat="51.206424"><ele>36.4</ele><time>2022-04-17T08:43:51.000Z</time></trkpt><trkpt lon="5.560152" lat="51.206405"><ele>36.4</ele><time>2022-04-17T08:43:52.000Z</time></trkpt><trkpt lon="5.560253" lat="51.206404"><ele>36.4</ele><time>2022-04-17T08:43:53.000Z</time></trkpt><trkpt lon="5.560351" lat="51.206414"><ele>36.4</ele><time>2022-04-17T08:43:54.000Z</time></trkpt><trkpt lon="5.56045" lat="51.206432"><ele>36.6</ele><time>2022-04-17T08:43:55.000Z</time></trkpt><trkpt lon="5.560547" lat="51.206441"><ele>36.6</ele><time>2022-04-17T08:43:56.000Z</time></trkpt><trkpt lon="5.560645" lat="51.206437"><ele>36.6</ele><time>2022-04-17T08:43:57.000Z</time></trkpt><trkpt lon="5.560742" lat="51.206408"><ele>36.6</ele><time>2022-04-17T08:43:58.000Z</time></trkpt><trkpt lon="5.560842" lat="51.206374"><ele>36.6</ele><time>2022-04-17T08:43:59.000Z</time></trkpt><trkpt lon="5.560946" lat="51.206338"><ele>36.6</ele><time>2022-04-17T08:44:00.000Z</time></trkpt><trkpt lon="5.561049" lat="51.206297"><ele>36.4</ele><time>2022-04-17T08:44:01.000Z</time></trkpt><trkpt lon="5.561151" lat="51.206259"><ele>36.4</ele><time>2022-04-17T08:44:02.000Z</time></trkpt><trkpt lon="5.56125" lat="51.206221"><ele>36.2</ele><time>2022-04-17T08:44:03.000Z</time></trkpt><trkpt lon="5.561345" lat="51.206185"><ele>36.2</ele><time>2022-04-17T08:44:04.000Z</time></trkpt><trkpt lon="5.561444" lat="51.20615"><ele>36.2</ele><time>2022-04-17T08:44:05.000Z</time></trkpt><trkpt lon="5.561546" lat="51.206116"><ele>36.4</ele><time>2022-04-17T08:44:06.000Z</time></trkpt><trkpt lon="5.56165" lat="51.206085"><ele>36.6</ele><time>2022-04-17T08:44:07.000Z</time></trkpt><trkpt lon="5.56175" lat="51.206056"><ele>36.6</ele><time>2022-04-17T08:44:08.000Z</time></trkpt><trkpt lon="5.561846" lat="51.206023"><ele>36.8</ele><time>2022-04-17T08:44:09.000Z</time></trkpt><trkpt lon="5.561942" lat="51.205988"><ele>37</ele><time>2022-04-17T08:44:10.000Z</time></trkpt><trkpt lon="5.562033" lat="51.205951"><ele>37</ele><time>2022-04-17T08:44:11.000Z</time></trkpt><trkpt lon="5.562133" lat="51.205911"><ele>37</ele><time>2022-04-17T08:44:12.000Z</time></trkpt><trkpt lon="5.562227" lat="51.205874"><ele>37.2</ele><time>2022-04-17T08:44:13.000Z</time></trkpt><trkpt lon="5.562323" lat="51.205835"><ele>37.2</ele><time>2022-04-17T08:44:14.000Z</time></trkpt><trkpt lon="5.562419" lat="51.205796"><ele>37.4</ele><time>2022-04-17T08:44:15.000Z</time></trkpt><trkpt lon="5.562515" lat="51.205759"><ele>37.4</ele><time>2022-04-17T08:44:16.000Z</time></trkpt><trkpt lon="5.562611" lat="51.20572"><ele>37.4</ele><time>2022-04-17T08:44:17.000Z</time></trkpt><trkpt lon="5.562705" lat="51.205683"><ele>37.4</ele><time>2022-04-17T08:44:18.000Z</time></trkpt><trkpt lon="5.562799" lat="51.205648"><ele>37.4</ele><time>2022-04-17T08:44:19.000Z</time></trkpt><trkpt lon="5.562893" lat="51.20561"><ele>37.4</ele><time>2022-04-17T08:44:20.000Z</time></trkpt><trkpt lon="5.562988" lat="51.205572"><ele>37.4</ele><time>2022-04-17T08:44:21.000Z</time></trkpt><trkpt lon="5.563086" lat="51.205533"><ele>37.4</ele><time>2022-04-17T08:44:22.000Z</time></trkpt><trkpt lon="5.563182" lat="51.205491"><ele>37.4</ele><time>2022-04-17T08:44:23.000Z</time></trkpt><trkpt lon="5.563277" lat="51.205449"><ele>37.4</ele><time>2022-04-17T08:44:24.000Z</time></trkpt><trkpt lon="5.563369" lat="51.205406"><ele>37.4</ele><time>2022-04-17T08:44:25.000Z</time></trkpt><trkpt lon="5.563458" lat="51.205361"><ele>37.4</ele><time>2022-04-17T08:44:26.000Z</time></trkpt><trkpt lon="5.563547" lat="51.205318"><ele>37.6</ele><time>2022-04-17T08:44:27.000Z</time></trkpt><trkpt lon="5.563637" lat="51.20527"><ele>37.6</ele><time>2022-04-17T08:44:28.000Z</time></trkpt><trkpt lon="5.563728" lat="51.205228"><ele>37.6</ele><time>2022-04-17T08:44:29.000Z</time></trkpt><trkpt lon="5.563821" lat="51.205185"><ele>37.8</ele><time>2022-04-17T08:44:30.000Z</time></trkpt><trkpt lon="5.563911" lat="51.205141"><ele>37.8</ele><time>2022-04-17T08:44:31.000Z</time></trkpt><trkpt lon="5.564005" lat="51.205097"><ele>37.8</ele><time>2022-04-17T08:44:32.000Z</time></trkpt><trkpt lon="5.564096" lat="51.205055"><ele>37.8</ele><time>2022-04-17T08:44:33.000Z</time></trkpt><trkpt lon="5.564188" lat="51.20501"><ele>37.8</ele><time>2022-04-17T08:44:34.000Z</time></trkpt><trkpt lon="5.564281" lat="51.204967"><ele>37.8</ele><time>2022-04-17T08:44:35.000Z</time></trkpt><trkpt lon="5.564372" lat="51.204921"><ele>37.8</ele><time>2022-04-17T08:44:36.000Z</time></trkpt><trkpt lon="5.564462" lat="51.204875"><ele>37.8</ele><time>2022-04-17T08:44:37.000Z</time></trkpt><trkpt lon="5.56455" lat="51.20483"><ele>37.8</ele><time>2022-04-17T08:44:38.000Z</time></trkpt><trkpt lon="5.564637" lat="51.204789"><ele>37.8</ele><time>2022-04-17T08:44:39.000Z</time></trkpt><trkpt lon="5.564726" lat="51.204746"><ele>37.8</ele><time>2022-04-17T08:44:40.000Z</time></trkpt><trkpt lon="5.564812" lat="51.204702"><ele>37.8</ele><time>2022-04-17T08:44:41.000Z</time></trkpt><trkpt lon="5.564897" lat="51.204659"><ele>37.6</ele><time>2022-04-17T08:44:42.000Z</time></trkpt><trkpt lon="5.564983" lat="51.204618"><ele>37.8</ele><time>2022-04-17T08:44:43.000Z</time></trkpt><trkpt lon="5.565077" lat="51.204581"><ele>37.8</ele><time>2022-04-17T08:44:44.000Z</time></trkpt><trkpt lon="5.565179" lat="51.204549"><ele>37.8</ele><time>2022-04-17T08:44:45.000Z</time></trkpt><trkpt lon="5.565286" lat="51.204522"><ele>37.8</ele><time>2022-04-17T08:44:46.000Z</time></trkpt><trkpt lon="5.565396" lat="51.204495"><ele>37.8</ele><time>2022-04-17T08:44:47.000Z</time></trkpt><trkpt lon="5.565502" lat="51.20447"><ele>37.8</ele><time>2022-04-17T08:44:48.000Z</time></trkpt><trkpt lon="5.565609" lat="51.204446"><ele>37.8</ele><time>2022-04-17T08:44:49.000Z</time></trkpt><trkpt lon="5.565713" lat="51.204419"><ele>37.8</ele><time>2022-04-17T08:44:50.000Z</time></trkpt><trkpt lon="5.565812" lat="51.204394"><ele>37.6</ele><time>2022-04-17T08:44:51.000Z</time></trkpt><trkpt lon="5.565925" lat="51.204366"><ele>37.6</ele><time>2022-04-17T08:44:52.000Z</time></trkpt><trkpt lon="5.566027" lat="51.204344"><ele>37.6</ele><time>2022-04-17T08:44:53.000Z</time></trkpt><trkpt lon="5.566131" lat="51.204319"><ele>37.6</ele><time>2022-04-17T08:44:54.000Z</time></trkpt><trkpt lon="5.566232" lat="51.204292"><ele>37.6</ele><time>2022-04-17T08:44:55.000Z</time></trkpt><trkpt lon="5.566329" lat="51.204261"><ele>37.6</ele><time>2022-04-17T08:44:56.000Z</time></trkpt><trkpt lon="5.566426" lat="51.204231"><ele>37.6</ele><time>2022-04-17T08:44:57.000Z</time></trkpt><trkpt lon="5.566522" lat="51.204199"><ele>37.6</ele><time>2022-04-17T08:44:58.000Z</time></trkpt><trkpt lon="5.566617" lat="51.204164"><ele>37.8</ele><time>2022-04-17T08:44:59.000Z</time></trkpt><trkpt lon="5.566709" lat="51.204126"><ele>37.8</ele><time>2022-04-17T08:45:00.000Z</time></trkpt><trkpt lon="5.566794" lat="51.204087"><ele>37.8</ele><time>2022-04-17T08:45:01.000Z</time></trkpt><trkpt lon="5.566874" lat="51.204037"><ele>37.8</ele><time>2022-04-17T08:45:02.000Z</time></trkpt><trkpt lon="5.566941" lat="51.203983"><ele>37.8</ele><time>2022-04-17T08:45:03.000Z</time></trkpt><trkpt lon="5.566996" lat="51.203921"><ele>37.8</ele><time>2022-04-17T08:45:04.000Z</time></trkpt><trkpt lon="5.567045" lat="51.203859"><ele>37.8</ele><time>2022-04-17T08:45:05.000Z</time></trkpt><trkpt lon="5.56709" lat="51.203796"><ele>37.8</ele><time>2022-04-17T08:45:06.000Z</time></trkpt><trkpt lon="5.567138" lat="51.203732"><ele>38</ele><time>2022-04-17T08:45:07.000Z</time></trkpt><trkpt lon="5.567182" lat="51.203669"><ele>37.8</ele><time>2022-04-17T08:45:08.000Z</time></trkpt><trkpt lon="5.567227" lat="51.203607"><ele>37.8</ele><time>2022-04-17T08:45:09.000Z</time></trkpt><trkpt lon="5.567269" lat="51.203544"><ele>37.8</ele><time>2022-04-17T08:45:10.000Z</time></trkpt><trkpt lon="5.567309" lat="51.203482"><ele>37.6</ele><time>2022-04-17T08:45:11.000Z</time></trkpt><trkpt lon="5.567354" lat="51.203414"><ele>37.4</ele><time>2022-04-17T08:45:12.000Z</time></trkpt><trkpt lon="5.567397" lat="51.203352"><ele>37.4</ele><time>2022-04-17T08:45:13.000Z</time></trkpt><trkpt lon="5.567441" lat="51.203289"><ele>37.4</ele><time>2022-04-17T08:45:14.000Z</time></trkpt><trkpt lon="5.567485" lat="51.203227"><ele>37.4</ele><time>2022-04-17T08:45:15.000Z</time></trkpt><trkpt lon="5.56753" lat="51.203163"><ele>37.2</ele><time>2022-04-17T08:45:16.000Z</time></trkpt><trkpt lon="5.567576" lat="51.203101"><ele>37</ele><time>2022-04-17T08:45:17.000Z</time></trkpt><trkpt lon="5.567621" lat="51.203038"><ele>37.2</ele><time>2022-04-17T08:45:18.000Z</time></trkpt><trkpt lon="5.567666" lat="51.202973"><ele>37.4</ele><time>2022-04-17T08:45:19.000Z</time></trkpt><trkpt lon="5.567709" lat="51.202909"><ele>37.4</ele><time>2022-04-17T08:45:20.000Z</time></trkpt><trkpt lon="5.567753" lat="51.202848"><ele>37.2</ele><time>2022-04-17T08:45:21.000Z</time></trkpt><trkpt lon="5.567798" lat="51.202787"><ele>37.2</ele><time>2022-04-17T08:45:22.000Z</time></trkpt><trkpt lon="5.567843" lat="51.202725"><ele>37.2</ele><time>2022-04-17T08:45:23.000Z</time></trkpt><trkpt lon="5.567888" lat="51.202661"><ele>37.2</ele><time>2022-04-17T08:45:24.000Z</time></trkpt><trkpt lon="5.567933" lat="51.2026"><ele>37.2</ele><time>2022-04-17T08:45:25.000Z</time></trkpt><trkpt lon="5.567978" lat="51.202539"><ele>37.2</ele><time>2022-04-17T08:45:26.000Z</time></trkpt><trkpt lon="5.568028" lat="51.202478"><ele>37.2</ele><time>2022-04-17T08:45:27.000Z</time></trkpt><trkpt lon="5.568092" lat="51.202424"><ele>37</ele><time>2022-04-17T08:45:28.000Z</time></trkpt><trkpt lon="5.568165" lat="51.202375"><ele>37</ele><time>2022-04-17T08:45:29.000Z</time></trkpt><trkpt lon="5.56826" lat="51.202341"><ele>36.8</ele><time>2022-04-17T08:45:30.000Z</time></trkpt><trkpt lon="5.568358" lat="51.202313"><ele>36.8</ele><time>2022-04-17T08:45:31.000Z</time></trkpt><trkpt lon="5.568468" lat="51.202307"><ele>37</ele><time>2022-04-17T08:45:32.000Z</time></trkpt><trkpt lon="5.568581" lat="51.202317"><ele>36.8</ele><time>2022-04-17T08:45:33.000Z</time></trkpt><trkpt lon="5.568696" lat="51.202333"><ele>36.4</ele><time>2022-04-17T08:45:34.000Z</time></trkpt><trkpt lon="5.568809" lat="51.202352"><ele>36.2</ele><time>2022-04-17T08:45:35.000Z</time></trkpt><trkpt lon="5.568922" lat="51.202371"><ele>36.2</ele><time>2022-04-17T08:45:36.000Z</time></trkpt><trkpt lon="5.569032" lat="51.20239"><ele>36.4</ele><time>2022-04-17T08:45:37.000Z</time></trkpt><trkpt lon="5.569141" lat="51.202409"><ele>36.2</ele><time>2022-04-17T08:45:38.000Z</time></trkpt><trkpt lon="5.569249" lat="51.202428"><ele>36.2</ele><time>2022-04-17T08:45:39.000Z</time></trkpt><trkpt lon="5.56936" lat="51.202447"><ele>36.4</ele><time>2022-04-17T08:45:40.000Z</time></trkpt><trkpt lon="5.569467" lat="51.202463"><ele>36.6</ele><time>2022-04-17T08:45:41.000Z</time></trkpt><trkpt lon="5.56957" lat="51.202481"><ele>36.6</ele><time>2022-04-17T08:45:42.000Z</time></trkpt><trkpt lon="5.56967" lat="51.202498"><ele>36.6</ele><time>2022-04-17T08:45:43.000Z</time></trkpt><trkpt lon="5.569765" lat="51.202522"><ele>36.6</ele><time>2022-04-17T08:45:44.000Z</time></trkpt><trkpt lon="5.569853" lat="51.202552"><ele>36.6</ele><time>2022-04-17T08:45:45.000Z</time></trkpt><trkpt lon="5.569925" lat="51.20259"><ele>36.6</ele><time>2022-04-17T08:45:46.000Z</time></trkpt><trkpt lon="5.569992" lat="51.20263"><ele>36.6</ele><time>2022-04-17T08:45:47.000Z</time></trkpt><trkpt lon="5.570047" lat="51.202674"><ele>36.6</ele><time>2022-04-17T08:45:48.000Z</time></trkpt><trkpt lon="5.570104" lat="51.20271"><ele>36.6</ele><time>2022-04-17T08:45:49.000Z</time></trkpt><trkpt lon="5.570167" lat="51.202733"><ele>36.8</ele><time>2022-04-17T08:45:50.000Z</time></trkpt><trkpt lon="5.570239" lat="51.202731"><ele>36.8</ele><time>2022-04-17T08:45:51.000Z</time></trkpt><trkpt lon="5.570314" lat="51.202708"><ele>36.8</ele><time>2022-04-17T08:45:52.000Z</time></trkpt><trkpt lon="5.570396" lat="51.202675"><ele>36.8</ele><time>2022-04-17T08:45:53.000Z</time></trkpt><trkpt lon="5.57049" lat="51.202637"><ele>36.8</ele><time>2022-04-17T08:45:54.000Z</time></trkpt><trkpt lon="5.570586" lat="51.202598"><ele>37</ele><time>2022-04-17T08:45:55.000Z</time></trkpt><trkpt lon="5.570688" lat="51.202556"><ele>36.8</ele><time>2022-04-17T08:45:56.000Z</time></trkpt><trkpt lon="5.570791" lat="51.202515"><ele>36.8</ele><time>2022-04-17T08:45:57.000Z</time></trkpt><trkpt lon="5.570892" lat="51.202477"><ele>36.8</ele><time>2022-04-17T08:45:58.000Z</time></trkpt><trkpt lon="5.570993" lat="51.202438"><ele>36.8</ele><time>2022-04-17T08:45:59.000Z</time></trkpt><trkpt lon="5.571093" lat="51.202397"><ele>36.8</ele><time>2022-04-17T08:46:00.000Z</time></trkpt><trkpt lon="5.571191" lat="51.202359"><ele>36.6</ele><time>2022-04-17T08:46:01.000Z</time></trkpt><trkpt lon="5.571286" lat="51.202321"><ele>36.6</ele><time>2022-04-17T08:46:02.000Z</time></trkpt><trkpt lon="5.57138" lat="51.202283"><ele>36.6</ele><time>2022-04-17T08:46:03.000Z</time></trkpt><trkpt lon="5.571476" lat="51.202244"><ele>36.6</ele><time>2022-04-17T08:46:04.000Z</time></trkpt><trkpt lon="5.57157" lat="51.202206"><ele>36.8</ele><time>2022-04-17T08:46:05.000Z</time></trkpt><trkpt lon="5.571664" lat="51.202169"><ele>36.8</ele><time>2022-04-17T08:46:06.000Z</time></trkpt><trkpt lon="5.571764" lat="51.202129"><ele>36.8</ele><time>2022-04-17T08:46:07.000Z</time></trkpt><trkpt lon="5.571861" lat="51.20209"><ele>36.8</ele><time>2022-04-17T08:46:08.000Z</time></trkpt><trkpt lon="5.571958" lat="51.202049"><ele>36.8</ele><time>2022-04-17T08:46:09.000Z</time></trkpt><trkpt lon="5.572057" lat="51.202008"><ele>36.8</ele><time>2022-04-17T08:46:10.000Z</time></trkpt><trkpt lon="5.572157" lat="51.20197"><ele>36.6</ele><time>2022-04-17T08:46:11.000Z</time></trkpt><trkpt lon="5.572255" lat="51.20193"><ele>36.4</ele><time>2022-04-17T08:46:12.000Z</time></trkpt><trkpt lon="5.57235" lat="51.20189"><ele>36.2</ele><time>2022-04-17T08:46:13.000Z</time></trkpt><trkpt lon="5.572447" lat="51.20185"><ele>36.2</ele><time>2022-04-17T08:46:14.000Z</time></trkpt><trkpt lon="5.572539" lat="51.201809"><ele>36.2</ele><time>2022-04-17T08:46:15.000Z</time></trkpt><trkpt lon="5.572629" lat="51.20177"><ele>36.2</ele><time>2022-04-17T08:46:16.000Z</time></trkpt><trkpt lon="5.572717" lat="51.201726"><ele>36.2</ele><time>2022-04-17T08:46:17.000Z</time></trkpt><trkpt lon="5.572803" lat="51.201678"><ele>36.2</ele><time>2022-04-17T08:46:18.000Z</time></trkpt><trkpt lon="5.572884" lat="51.201632"><ele>36</ele><time>2022-04-17T08:46:19.000Z</time></trkpt><trkpt lon="5.572963" lat="51.201587"><ele>36</ele><time>2022-04-17T08:46:20.000Z</time></trkpt><trkpt lon="5.573045" lat="51.201538"><ele>36</ele><time>2022-04-17T08:46:21.000Z</time></trkpt><trkpt lon="5.573126" lat="51.201491"><ele>36.2</ele><time>2022-04-17T08:46:22.000Z</time></trkpt><trkpt lon="5.573206" lat="51.201445"><ele>36</ele><time>2022-04-17T08:46:23.000Z</time></trkpt><trkpt lon="5.57329" lat="51.201399"><ele>36</ele><time>2022-04-17T08:46:24.000Z</time></trkpt><trkpt lon="5.573374" lat="51.201352"><ele>36</ele><time>2022-04-17T08:46:25.000Z</time></trkpt><trkpt lon="5.573456" lat="51.201305"><ele>36</ele><time>2022-04-17T08:46:26.000Z</time></trkpt><trkpt lon="5.573535" lat="51.201262"><ele>36</ele><time>2022-04-17T08:46:27.000Z</time></trkpt><trkpt lon="5.573611" lat="51.201216"><ele>36.2</ele><time>2022-04-17T08:46:28.000Z</time></trkpt><trkpt lon="5.573691" lat="51.20117"><ele>36.2</ele><time>2022-04-17T08:46:29.000Z</time></trkpt><trkpt lon="5.573776" lat="51.201124"><ele>36.2</ele><time>2022-04-17T08:46:30.000Z</time></trkpt><trkpt lon="5.573862" lat="51.201077"><ele>36.2</ele><time>2022-04-17T08:46:31.000Z</time></trkpt><trkpt lon="5.573951" lat="51.201025"><ele>36.4</ele><time>2022-04-17T08:46:32.000Z</time></trkpt><trkpt lon="5.574037" lat="51.200979"><ele>36.6</ele><time>2022-04-17T08:46:33.000Z</time></trkpt><trkpt lon="5.574123" lat="51.200933"><ele>36.6</ele><time>2022-04-17T08:46:34.000Z</time></trkpt><trkpt lon="5.574203" lat="51.200889"><ele>36.6</ele><time>2022-04-17T08:46:35.000Z</time></trkpt><trkpt lon="5.574278" lat="51.200846"><ele>36.8</ele><time>2022-04-17T08:46:36.000Z</time></trkpt><trkpt lon="5.574352" lat="51.2008"><ele>36.8</ele><time>2022-04-17T08:46:37.000Z</time></trkpt><trkpt lon="5.574423" lat="51.200757"><ele>37</ele><time>2022-04-17T08:46:38.000Z</time></trkpt><trkpt lon="5.574492" lat="51.200718"><ele>37</ele><time>2022-04-17T08:46:39.000Z</time></trkpt><trkpt lon="5.574563" lat="51.200677"><ele>37</ele><time>2022-04-17T08:46:40.000Z</time></trkpt><trkpt lon="5.574628" lat="51.200636"><ele>37</ele><time>2022-04-17T08:46:41.000Z</time></trkpt><trkpt lon="5.574692" lat="51.200591"><ele>37.2</ele><time>2022-04-17T08:46:42.000Z</time></trkpt><trkpt lon="5.574758" lat="51.20055"><ele>37.2</ele><time>2022-04-17T08:46:43.000Z</time></trkpt><trkpt lon="5.574829" lat="51.200506"><ele>37.2</ele><time>2022-04-17T08:46:44.000Z</time></trkpt><trkpt lon="5.574898" lat="51.200459"><ele>37.4</ele><time>2022-04-17T08:46:45.000Z</time></trkpt><trkpt lon="5.574962" lat="51.200406"><ele>37.4</ele><time>2022-04-17T08:46:46.000Z</time></trkpt><trkpt lon="5.575026" lat="51.200353"><ele>37.6</ele><time>2022-04-17T08:46:47.000Z</time></trkpt><trkpt lon="5.575084" lat="51.200299"><ele>37.6</ele><time>2022-04-17T08:46:48.000Z</time></trkpt><trkpt lon="5.575144" lat="51.200246"><ele>37.6</ele><time>2022-04-17T08:46:49.000Z</time></trkpt><trkpt lon="5.575211" lat="51.200196"><ele>37.6</ele><time>2022-04-17T08:46:50.000Z</time></trkpt><trkpt lon="5.575282" lat="51.200148"><ele>37.6</ele><time>2022-04-17T08:46:51.000Z</time></trkpt><trkpt lon="5.575353" lat="51.2001"><ele>37.6</ele><time>2022-04-17T08:46:52.000Z</time></trkpt><trkpt lon="5.575427" lat="51.200045"><ele>37.6</ele><time>2022-04-17T08:46:53.000Z</time></trkpt><trkpt lon="5.5755" lat="51.199987"><ele>37.6</ele><time>2022-04-17T08:46:54.000Z</time></trkpt><trkpt lon="5.575573" lat="51.199925"><ele>37.8</ele><time>2022-04-17T08:46:55.000Z</time></trkpt><trkpt lon="5.575647" lat="51.199859"><ele>37.8</ele><time>2022-04-17T08:46:56.000Z</time></trkpt><trkpt lon="5.575719" lat="51.199792"><ele>37.8</ele><time>2022-04-17T08:46:57.000Z</time></trkpt><trkpt lon="5.575792" lat="51.199726"><ele>37.8</ele><time>2022-04-17T08:46:58.000Z</time></trkpt><trkpt lon="5.575872" lat="51.199659"><ele>37.8</ele><time>2022-04-17T08:46:59.000Z</time></trkpt><trkpt lon="5.575947" lat="51.199593"><ele>37.8</ele><time>2022-04-17T08:47:00.000Z</time></trkpt><trkpt lon="5.576024" lat="51.199525"><ele>37.6</ele><time>2022-04-17T08:47:01.000Z</time></trkpt><trkpt lon="5.5761" lat="51.199452"><ele>37.6</ele><time>2022-04-17T08:47:02.000Z</time></trkpt><trkpt lon="5.576174" lat="51.199387"><ele>37.6</ele><time>2022-04-17T08:47:03.000Z</time></trkpt><trkpt lon="5.576247" lat="51.199324"><ele>37.6</ele><time>2022-04-17T08:47:04.000Z</time></trkpt><trkpt lon="5.576316" lat="51.199261"><ele>37.6</ele><time>2022-04-17T08:47:05.000Z</time></trkpt><trkpt lon="5.576383" lat="51.199197"><ele>37.4</ele><time>2022-04-17T08:47:06.000Z</time></trkpt><trkpt lon="5.57645" lat="51.199131"><ele>37.4</ele><time>2022-04-17T08:47:07.000Z</time></trkpt><trkpt lon="5.576518" lat="51.199065"><ele>37.4</ele><time>2022-04-17T08:47:08.000Z</time></trkpt><trkpt lon="5.576587" lat="51.198999"><ele>37.2</ele><time>2022-04-17T08:47:09.000Z</time></trkpt><trkpt lon="5.576659" lat="51.198933"><ele>37.2</ele><time>2022-04-17T08:47:10.000Z</time></trkpt><trkpt lon="5.576731" lat="51.198868"><ele>37.2</ele><time>2022-04-17T08:47:11.000Z</time></trkpt><trkpt lon="5.576801" lat="51.1988"><ele>37.2</ele><time>2022-04-17T08:47:12.000Z</time></trkpt><trkpt lon="5.576873" lat="51.198735"><ele>37.2</ele><time>2022-04-17T08:47:13.000Z</time></trkpt><trkpt lon="5.576943" lat="51.198671"><ele>37.2</ele><time>2022-04-17T08:47:14.000Z</time></trkpt><trkpt lon="5.577012" lat="51.198606"><ele>37.2</ele><time>2022-04-17T08:47:15.000Z</time></trkpt><trkpt lon="5.57708" lat="51.198541"><ele>37.2</ele><time>2022-04-17T08:47:16.000Z</time></trkpt><trkpt lon="5.577148" lat="51.19848"><ele>37.2</ele><time>2022-04-17T08:47:17.000Z</time></trkpt><trkpt lon="5.577217" lat="51.198419"><ele>37.2</ele><time>2022-04-17T08:47:18.000Z</time></trkpt><trkpt lon="5.577282" lat="51.198356"><ele>37</ele><time>2022-04-17T08:47:19.000Z</time></trkpt><trkpt lon="5.577346" lat="51.198297"><ele>37.2</ele><time>2022-04-17T08:47:20.000Z</time></trkpt><trkpt lon="5.57741" lat="51.198237"><ele>37</ele><time>2022-04-17T08:47:21.000Z</time></trkpt><trkpt lon="5.577476" lat="51.198176"><ele>37</ele><time>2022-04-17T08:47:22.000Z</time></trkpt><trkpt lon="5.577536" lat="51.198121"><ele>37</ele><time>2022-04-17T08:47:23.000Z</time></trkpt><trkpt lon="5.577593" lat="51.198072"><ele>37</ele><time>2022-04-17T08:47:24.000Z</time></trkpt><trkpt lon="5.577638" lat="51.19802"><ele>37</ele><time>2022-04-17T08:47:25.000Z</time></trkpt><trkpt lon="5.577661" lat="51.197963"><ele>37</ele><time>2022-04-17T08:47:26.000Z</time></trkpt><trkpt lon="5.577647" lat="51.197908"><ele>37</ele><time>2022-04-17T08:47:27.000Z</time></trkpt><trkpt lon="5.577595" lat="51.197863"><ele>37</ele><time>2022-04-17T08:47:28.000Z</time></trkpt><trkpt lon="5.57752" lat="51.197829"><ele>37</ele><time>2022-04-17T08:47:29.000Z</time></trkpt><trkpt lon="5.577443" lat="51.197799"><ele>37</ele><time>2022-04-17T08:47:30.000Z</time></trkpt><trkpt lon="5.577364" lat="51.197768"><ele>37</ele><time>2022-04-17T08:47:31.000Z</time></trkpt><trkpt lon="5.577296" lat="51.197734"><ele>37.2</ele><time>2022-04-17T08:47:32.000Z</time></trkpt><trkpt lon="5.577254" lat="51.197691"><ele>37.2</ele><time>2022-04-17T08:47:33.000Z</time></trkpt><trkpt lon="5.577252" lat="51.197641"><ele>37.2</ele><time>2022-04-17T08:47:34.000Z</time></trkpt><trkpt lon="5.577293" lat="51.197587"><ele>37.2</ele><time>2022-04-17T08:47:35.000Z</time></trkpt><trkpt lon="5.577353" lat="51.197537"><ele>37</ele><time>2022-04-17T08:47:36.000Z</time></trkpt><trkpt lon="5.57742" lat="51.197481"><ele>37</ele><time>2022-04-17T08:47:37.000Z</time></trkpt><trkpt lon="5.577488" lat="51.197419"><ele>37</ele><time>2022-04-17T08:47:38.000Z</time></trkpt><trkpt lon="5.577555" lat="51.197355"><ele>37.2</ele><time>2022-04-17T08:47:39.000Z</time></trkpt><trkpt lon="5.57762" lat="51.197294"><ele>37.2</ele><time>2022-04-17T08:47:40.000Z</time></trkpt><trkpt lon="5.577685" lat="51.197233"><ele>37.2</ele><time>2022-04-17T08:47:41.000Z</time></trkpt><trkpt lon="5.577751" lat="51.197172"><ele>37</ele><time>2022-04-17T08:47:42.000Z</time></trkpt><trkpt lon="5.577817" lat="51.197111"><ele>36.8</ele><time>2022-04-17T08:47:43.000Z</time></trkpt><trkpt lon="5.577882" lat="51.197051"><ele>37</ele><time>2022-04-17T08:47:44.000Z</time></trkpt><trkpt lon="5.577949" lat="51.196993"><ele>37</ele><time>2022-04-17T08:47:45.000Z</time></trkpt><trkpt lon="5.578016" lat="51.196932"><ele>37</ele><time>2022-04-17T08:47:46.000Z</time></trkpt><trkpt lon="5.578085" lat="51.19687"><ele>37.2</ele><time>2022-04-17T08:47:47.000Z</time></trkpt><trkpt lon="5.578152" lat="51.19681"><ele>37.2</ele><time>2022-04-17T08:47:48.000Z</time></trkpt><trkpt lon="5.578218" lat="51.196749"><ele>37.4</ele><time>2022-04-17T08:47:49.000Z</time></trkpt><trkpt lon="5.578284" lat="51.196687"><ele>37.4</ele><time>2022-04-17T08:47:50.000Z</time></trkpt><trkpt lon="5.57835" lat="51.196627"><ele>37.4</ele><time>2022-04-17T08:47:51.000Z</time></trkpt><trkpt lon="5.578417" lat="51.196566"><ele>37.4</ele><time>2022-04-17T08:47:52.000Z</time></trkpt><trkpt lon="5.578486" lat="51.196505"><ele>37.4</ele><time>2022-04-17T08:47:53.000Z</time></trkpt><trkpt lon="5.578557" lat="51.196445"><ele>37.6</ele><time>2022-04-17T08:47:54.000Z</time></trkpt><trkpt lon="5.578629" lat="51.196387"><ele>37.6</ele><time>2022-04-17T08:47:55.000Z</time></trkpt><trkpt lon="5.578699" lat="51.196325"><ele>37.6</ele><time>2022-04-17T08:47:56.000Z</time></trkpt><trkpt lon="5.578765" lat="51.196265"><ele>37.6</ele><time>2022-04-17T08:47:57.000Z</time></trkpt><trkpt lon="5.57883" lat="51.196207"><ele>37.6</ele><time>2022-04-17T08:47:58.000Z</time></trkpt><trkpt lon="5.578897" lat="51.196146"><ele>37.6</ele><time>2022-04-17T08:47:59.000Z</time></trkpt><trkpt lon="5.578964" lat="51.196085"><ele>37.4</ele><time>2022-04-17T08:48:00.000Z</time></trkpt><trkpt lon="5.57903" lat="51.196025"><ele>37.2</ele><time>2022-04-17T08:48:01.000Z</time></trkpt><trkpt lon="5.579097" lat="51.195967"><ele>37</ele><time>2022-04-17T08:48:02.000Z</time></trkpt><trkpt lon="5.579162" lat="51.195906"><ele>37.2</ele><time>2022-04-17T08:48:03.000Z</time></trkpt><trkpt lon="5.579228" lat="51.195845"><ele>37.2</ele><time>2022-04-17T08:48:04.000Z</time></trkpt><trkpt lon="5.579295" lat="51.195785"><ele>37.4</ele><time>2022-04-17T08:48:05.000Z</time></trkpt><trkpt lon="5.579361" lat="51.195726"><ele>37.4</ele><time>2022-04-17T08:48:06.000Z</time></trkpt><trkpt lon="5.579425" lat="51.195666"><ele>37.4</ele><time>2022-04-17T08:48:07.000Z</time></trkpt><trkpt lon="5.57949" lat="51.19561"><ele>37.4</ele><time>2022-04-17T08:48:08.000Z</time></trkpt><trkpt lon="5.579555" lat="51.195556"><ele>37.4</ele><time>2022-04-17T08:48:09.000Z</time></trkpt><trkpt lon="5.579617" lat="51.195503"><ele>37.4</ele><time>2022-04-17T08:48:10.000Z</time></trkpt><trkpt lon="5.579676" lat="51.19545"><ele>37.4</ele><time>2022-04-17T08:48:11.000Z</time></trkpt><trkpt lon="5.579733" lat="51.195397"><ele>37.4</ele><time>2022-04-17T08:48:12.000Z</time></trkpt><trkpt lon="5.579786" lat="51.19535"><ele>37.6</ele><time>2022-04-17T08:48:13.000Z</time></trkpt><trkpt lon="5.579832" lat="51.195309"><ele>37.6</ele><time>2022-04-17T08:48:14.000Z</time></trkpt><trkpt lon="5.579867" lat="51.195267"><ele>37.4</ele><time>2022-04-17T08:48:15.000Z</time></trkpt><trkpt lon="5.579878" lat="51.195224"><ele>37.4</ele><time>2022-04-17T08:48:16.000Z</time></trkpt><trkpt lon="5.579858" lat="51.195178"><ele>37.4</ele><time>2022-04-17T08:48:17.000Z</time></trkpt><trkpt lon="5.579807" lat="51.195135"><ele>37.4</ele><time>2022-04-17T08:48:18.000Z</time></trkpt><trkpt lon="5.579736" lat="51.195088"><ele>37.4</ele><time>2022-04-17T08:48:19.000Z</time></trkpt><trkpt lon="5.579662" lat="51.195039"><ele>37.4</ele><time>2022-04-17T08:48:20.000Z</time></trkpt><trkpt lon="5.579587" lat="51.194988"><ele>37.4</ele><time>2022-04-17T08:48:21.000Z</time></trkpt><trkpt lon="5.57951" lat="51.194937"><ele>37.4</ele><time>2022-04-17T08:48:22.000Z</time></trkpt><trkpt lon="5.579433" lat="51.194891"><ele>37.4</ele><time>2022-04-17T08:48:23.000Z</time></trkpt><trkpt lon="5.57936" lat="51.194846"><ele>37.4</ele><time>2022-04-17T08:48:24.000Z</time></trkpt><trkpt lon="5.579294" lat="51.194801"><ele>37.4</ele><time>2022-04-17T08:48:25.000Z</time></trkpt><trkpt lon="5.579239" lat="51.194753"><ele>37.4</ele><time>2022-04-17T08:48:26.000Z</time></trkpt><trkpt lon="5.579207" lat="51.194701"><ele>37.4</ele><time>2022-04-17T08:48:27.000Z</time></trkpt><trkpt lon="5.579209" lat="51.194645"><ele>37.4</ele><time>2022-04-17T08:48:28.000Z</time></trkpt><trkpt lon="5.579243" lat="51.194591"><ele>37.4</ele><time>2022-04-17T08:48:29.000Z</time></trkpt><trkpt lon="5.579301" lat="51.194533"><ele>37.4</ele><time>2022-04-17T08:48:30.000Z</time></trkpt><trkpt lon="5.579369" lat="51.194475"><ele>37.2</ele><time>2022-04-17T08:48:31.000Z</time></trkpt><trkpt lon="5.57944" lat="51.194414"><ele>37.2</ele><time>2022-04-17T08:48:32.000Z</time></trkpt><trkpt lon="5.579507" lat="51.194354"><ele>37</ele><time>2022-04-17T08:48:33.000Z</time></trkpt><trkpt lon="5.579575" lat="51.194295"><ele>37</ele><time>2022-04-17T08:48:34.000Z</time></trkpt><trkpt lon="5.57964" lat="51.194232"><ele>37</ele><time>2022-04-17T08:48:35.000Z</time></trkpt><trkpt lon="5.579707" lat="51.194174"><ele>36.8</ele><time>2022-04-17T08:48:36.000Z</time></trkpt><trkpt lon="5.579775" lat="51.194116"><ele>36.6</ele><time>2022-04-17T08:48:37.000Z</time></trkpt><trkpt lon="5.579849" lat="51.194055"><ele>36.6</ele><time>2022-04-17T08:48:38.000Z</time></trkpt><trkpt lon="5.579918" lat="51.193995"><ele>36.8</ele><time>2022-04-17T08:48:39.000Z</time></trkpt><trkpt lon="5.579986" lat="51.193938"><ele>36.8</ele><time>2022-04-17T08:48:40.000Z</time></trkpt><trkpt lon="5.580054" lat="51.193881"><ele>36.8</ele><time>2022-04-17T08:48:41.000Z</time></trkpt><trkpt lon="5.58012" lat="51.193824"><ele>36.8</ele><time>2022-04-17T08:48:42.000Z</time></trkpt><trkpt lon="5.580185" lat="51.193767"><ele>37</ele><time>2022-04-17T08:48:43.000Z</time></trkpt><trkpt lon="5.58025" lat="51.19371"><ele>37</ele><time>2022-04-17T08:48:44.000Z</time></trkpt><trkpt lon="5.580318" lat="51.193652"><ele>37.2</ele><time>2022-04-17T08:48:45.000Z</time></trkpt><trkpt lon="5.580388" lat="51.193594"><ele>37</ele><time>2022-04-17T08:48:46.000Z</time></trkpt><trkpt lon="5.580458" lat="51.193533"><ele>37</ele><time>2022-04-17T08:48:47.000Z</time></trkpt><trkpt lon="5.580527" lat="51.193473"><ele>37</ele><time>2022-04-17T08:48:48.000Z</time></trkpt><trkpt lon="5.580596" lat="51.193414"><ele>37</ele><time>2022-04-17T08:48:49.000Z</time></trkpt><trkpt lon="5.580662" lat="51.193353"><ele>37.2</ele><time>2022-04-17T08:48:50.000Z</time></trkpt><trkpt lon="5.580729" lat="51.193294"><ele>37.2</ele><time>2022-04-17T08:48:51.000Z</time></trkpt><trkpt lon="5.580796" lat="51.193235"><ele>37.2</ele><time>2022-04-17T08:48:52.000Z</time></trkpt><trkpt lon="5.580865" lat="51.193174"><ele>37</ele><time>2022-04-17T08:48:53.000Z</time></trkpt><trkpt lon="5.580935" lat="51.193114"><ele>37</ele><time>2022-04-17T08:48:54.000Z</time></trkpt><trkpt lon="5.581005" lat="51.193057"><ele>37</ele><time>2022-04-17T08:48:55.000Z</time></trkpt><trkpt lon="5.581073" lat="51.192999"><ele>37</ele><time>2022-04-17T08:48:56.000Z</time></trkpt><trkpt lon="5.581143" lat="51.192937"><ele>37</ele><time>2022-04-17T08:48:57.000Z</time></trkpt><trkpt lon="5.581211" lat="51.192878"><ele>36.8</ele><time>2022-04-17T08:48:58.000Z</time></trkpt><trkpt lon="5.58128" lat="51.19282"><ele>36.8</ele><time>2022-04-17T08:48:59.000Z</time></trkpt><trkpt lon="5.581349" lat="51.19276"><ele>36.8</ele><time>2022-04-17T08:49:00.000Z</time></trkpt><trkpt lon="5.581416" lat="51.192702"><ele>36.8</ele><time>2022-04-17T08:49:01.000Z</time></trkpt><trkpt lon="5.581484" lat="51.192644"><ele>36.8</ele><time>2022-04-17T08:49:02.000Z</time></trkpt><trkpt lon="5.581549" lat="51.192585"><ele>36.8</ele><time>2022-04-17T08:49:03.000Z</time></trkpt><trkpt lon="5.581614" lat="51.192528"><ele>36.8</ele><time>2022-04-17T08:49:04.000Z</time></trkpt><trkpt lon="5.58168" lat="51.192471"><ele>36.6</ele><time>2022-04-17T08:49:05.000Z</time></trkpt><trkpt lon="5.581748" lat="51.192412"><ele>36.6</ele><time>2022-04-17T08:49:06.000Z</time></trkpt><trkpt lon="5.581814" lat="51.192354"><ele>36.8</ele><time>2022-04-17T08:49:07.000Z</time></trkpt><trkpt lon="5.581879" lat="51.192295"><ele>36.8</ele><time>2022-04-17T08:49:08.000Z</time></trkpt><trkpt lon="5.581943" lat="51.192242"><ele>37</ele><time>2022-04-17T08:49:09.000Z</time></trkpt><trkpt lon="5.58201" lat="51.192187"><ele>37.2</ele><time>2022-04-17T08:49:10.000Z</time></trkpt><trkpt lon="5.582075" lat="51.19213"><ele>37</ele><time>2022-04-17T08:49:11.000Z</time></trkpt><trkpt lon="5.582138" lat="51.192074"><ele>37</ele><time>2022-04-17T08:49:12.000Z</time></trkpt><trkpt lon="5.582201" lat="51.192021"><ele>36.8</ele><time>2022-04-17T08:49:13.000Z</time></trkpt><trkpt lon="5.582261" lat="51.191967"><ele>37</ele><time>2022-04-17T08:49:14.000Z</time></trkpt><trkpt lon="5.582319" lat="51.191915"><ele>37</ele><time>2022-04-17T08:49:15.000Z</time></trkpt><trkpt lon="5.582371" lat="51.191865"><ele>37</ele><time>2022-04-17T08:49:16.000Z</time></trkpt><trkpt lon="5.582422" lat="51.191817"><ele>37</ele><time>2022-04-17T08:49:17.000Z</time></trkpt><trkpt lon="5.582471" lat="51.191772"><ele>37.2</ele><time>2022-04-17T08:49:18.000Z</time></trkpt><trkpt lon="5.582525" lat="51.191735"><ele>37.4</ele><time>2022-04-17T08:49:19.000Z</time></trkpt><trkpt lon="5.582587" lat="51.191717"><ele>37.4</ele><time>2022-04-17T08:49:20.000Z</time></trkpt><trkpt lon="5.582654" lat="51.191715"><ele>37.4</ele><time>2022-04-17T08:49:21.000Z</time></trkpt><trkpt lon="5.582718" lat="51.191731"><ele>37.2</ele><time>2022-04-17T08:49:22.000Z</time></trkpt><trkpt lon="5.582775" lat="51.191764"><ele>37</ele><time>2022-04-17T08:49:23.000Z</time></trkpt><trkpt lon="5.582832" lat="51.191805"><ele>36.8</ele><time>2022-04-17T08:49:24.000Z</time></trkpt><trkpt lon="5.582896" lat="51.191858"><ele>36.8</ele><time>2022-04-17T08:49:25.000Z</time></trkpt><trkpt lon="5.582965" lat="51.191905"><ele>36.8</ele><time>2022-04-17T08:49:26.000Z</time></trkpt><trkpt lon="5.583035" lat="51.191954"><ele>36.6</ele><time>2022-04-17T08:49:27.000Z</time></trkpt><trkpt lon="5.583106" lat="51.192003"><ele>36.6</ele><time>2022-04-17T08:49:28.000Z</time></trkpt><trkpt lon="5.58318" lat="51.192054"><ele>36.6</ele><time>2022-04-17T08:49:29.000Z</time></trkpt><trkpt lon="5.583254" lat="51.192107"><ele>36.4</ele><time>2022-04-17T08:49:30.000Z</time></trkpt><trkpt lon="5.58333" lat="51.192156"><ele>36.4</ele><time>2022-04-17T08:49:31.000Z</time></trkpt><trkpt lon="5.583406" lat="51.192202"><ele>36.2</ele><time>2022-04-17T08:49:32.000Z</time></trkpt><trkpt lon="5.58348" lat="51.19225"><ele>36.2</ele><time>2022-04-17T08:49:33.000Z</time></trkpt><trkpt lon="5.583555" lat="51.192298"><ele>36.4</ele><time>2022-04-17T08:49:34.000Z</time></trkpt><trkpt lon="5.583631" lat="51.192345"><ele>36.4</ele><time>2022-04-17T08:49:35.000Z</time></trkpt><trkpt lon="5.583711" lat="51.192389"><ele>36.4</ele><time>2022-04-17T08:49:36.000Z</time></trkpt><trkpt lon="5.583792" lat="51.192436"><ele>36.4</ele><time>2022-04-17T08:49:37.000Z</time></trkpt><trkpt lon="5.583872" lat="51.19248"><ele>36.4</ele><time>2022-04-17T08:49:38.000Z</time></trkpt><trkpt lon="5.583948" lat="51.192526"><ele>36.4</ele><time>2022-04-17T08:49:39.000Z</time></trkpt><trkpt lon="5.584021" lat="51.192572"><ele>36.6</ele><time>2022-04-17T08:49:40.000Z</time></trkpt><trkpt lon="5.584096" lat="51.19262"><ele>36.6</ele><time>2022-04-17T08:49:41.000Z</time></trkpt><trkpt lon="5.584174" lat="51.192667"><ele>36.4</ele><time>2022-04-17T08:49:42.000Z</time></trkpt><trkpt lon="5.584253" lat="51.192716"><ele>36.4</ele><time>2022-04-17T08:49:43.000Z</time></trkpt><trkpt lon="5.584329" lat="51.192762"><ele>36.4</ele><time>2022-04-17T08:49:44.000Z</time></trkpt><trkpt lon="5.584413" lat="51.19281"><ele>36.4</ele><time>2022-04-17T08:49:45.000Z</time></trkpt><trkpt lon="5.584498" lat="51.192851"><ele>36.4</ele><time>2022-04-17T08:49:46.000Z</time></trkpt><trkpt lon="5.584588" lat="51.192886"><ele>36.4</ele><time>2022-04-17T08:49:47.000Z</time></trkpt><trkpt lon="5.584685" lat="51.19291"><ele>36.4</ele><time>2022-04-17T08:49:48.000Z</time></trkpt><trkpt lon="5.58479" lat="51.192923"><ele>36.4</ele><time>2022-04-17T08:49:49.000Z</time></trkpt><trkpt lon="5.584899" lat="51.192928"><ele>36.4</ele><time>2022-04-17T08:49:50.000Z</time></trkpt><trkpt lon="5.585008" lat="51.192927"><ele>36.6</ele><time>2022-04-17T08:49:51.000Z</time></trkpt><trkpt lon="5.585118" lat="51.192922"><ele>36.8</ele><time>2022-04-17T08:49:52.000Z</time></trkpt><trkpt lon="5.585224" lat="51.192916"><ele>37</ele><time>2022-04-17T08:49:53.000Z</time></trkpt><trkpt lon="5.585332" lat="51.192911"><ele>37</ele><time>2022-04-17T08:49:54.000Z</time></trkpt><trkpt lon="5.585436" lat="51.192904"><ele>37</ele><time>2022-04-17T08:49:55.000Z</time></trkpt><trkpt lon="5.585544" lat="51.1929"><ele>36.8</ele><time>2022-04-17T08:49:56.000Z</time></trkpt><trkpt lon="5.585653" lat="51.192892"><ele>37</ele><time>2022-04-17T08:49:57.000Z</time></trkpt><trkpt lon="5.585762" lat="51.192884"><ele>36.8</ele><time>2022-04-17T08:49:58.000Z</time></trkpt><trkpt lon="5.585872" lat="51.192878"><ele>37</ele><time>2022-04-17T08:49:59.000Z</time></trkpt><trkpt lon="5.585981" lat="51.192874"><ele>37</ele><time>2022-04-17T08:50:00.000Z</time></trkpt><trkpt lon="5.586089" lat="51.192869"><ele>37</ele><time>2022-04-17T08:50:01.000Z</time></trkpt><trkpt lon="5.586198" lat="51.192862"><ele>37</ele><time>2022-04-17T08:50:02.000Z</time></trkpt><trkpt lon="5.586305" lat="51.192859"><ele>37</ele><time>2022-04-17T08:50:03.000Z</time></trkpt><trkpt lon="5.586408" lat="51.192854"><ele>37</ele><time>2022-04-17T08:50:04.000Z</time></trkpt><trkpt lon="5.586508" lat="51.192848"><ele>37</ele><time>2022-04-17T08:50:05.000Z</time></trkpt><trkpt lon="5.586603" lat="51.192846"><ele>37.2</ele><time>2022-04-17T08:50:06.000Z</time></trkpt><trkpt lon="5.586692" lat="51.192839"><ele>37.2</ele><time>2022-04-17T08:50:07.000Z</time></trkpt><trkpt lon="5.586779" lat="51.192835"><ele>37.4</ele><time>2022-04-17T08:50:08.000Z</time></trkpt><trkpt lon="5.586861" lat="51.192827"><ele>37.6</ele><time>2022-04-17T08:50:09.000Z</time></trkpt><trkpt lon="5.586939" lat="51.192817"><ele>37.8</ele><time>2022-04-17T08:50:10.000Z</time></trkpt><trkpt lon="5.587006" lat="51.192793"><ele>37.8</ele><time>2022-04-17T08:50:11.000Z</time></trkpt><trkpt lon="5.587046" lat="51.192754"><ele>37.8</ele><time>2022-04-17T08:50:12.000Z</time></trkpt><trkpt lon="5.587063" lat="51.192701"><ele>38</ele><time>2022-04-17T08:50:13.000Z</time></trkpt><trkpt lon="5.587065" lat="51.19264"><ele>38</ele><time>2022-04-17T08:50:14.000Z</time></trkpt><trkpt lon="5.587065" lat="51.192577"><ele>38</ele><time>2022-04-17T08:50:15.000Z</time></trkpt><trkpt lon="5.587066" lat="51.192509"><ele>38</ele><time>2022-04-17T08:50:16.000Z</time></trkpt><trkpt lon="5.587069" lat="51.192444"><ele>38</ele><time>2022-04-17T08:50:17.000Z</time></trkpt><trkpt lon="5.587072" lat="51.192375"><ele>38.2</ele><time>2022-04-17T08:50:18.000Z</time></trkpt><trkpt lon="5.587074" lat="51.192307"><ele>38.2</ele><time>2022-04-17T08:50:19.000Z</time></trkpt><trkpt lon="5.587076" lat="51.192237"><ele>38.2</ele><time>2022-04-17T08:50:20.000Z</time></trkpt><trkpt lon="5.587078" lat="51.192169"><ele>38.2</ele><time>2022-04-17T08:50:21.000Z</time></trkpt><trkpt lon="5.58708" lat="51.192099"><ele>38</ele><time>2022-04-17T08:50:22.000Z</time></trkpt><trkpt lon="5.587082" lat="51.192027"><ele>38</ele><time>2022-04-17T08:50:23.000Z</time></trkpt><trkpt lon="5.587085" lat="51.191958"><ele>38</ele><time>2022-04-17T08:50:24.000Z</time></trkpt><trkpt lon="5.587087" lat="51.191887"><ele>38</ele><time>2022-04-17T08:50:25.000Z</time></trkpt><trkpt lon="5.587088" lat="51.191818"><ele>38</ele><time>2022-04-17T08:50:26.000Z</time></trkpt><trkpt lon="5.587091" lat="51.191744"><ele>38.2</ele><time>2022-04-17T08:50:27.000Z</time></trkpt><trkpt lon="5.587095" lat="51.191672"><ele>38</ele><time>2022-04-17T08:50:28.000Z</time></trkpt><trkpt lon="5.587097" lat="51.191599"><ele>38</ele><time>2022-04-17T08:50:29.000Z</time></trkpt><trkpt lon="5.587099" lat="51.191527"><ele>38</ele><time>2022-04-17T08:50:30.000Z</time></trkpt><trkpt lon="5.5871" lat="51.191456"><ele>38</ele><time>2022-04-17T08:50:31.000Z</time></trkpt><trkpt lon="5.587102" lat="51.191385"><ele>38</ele><time>2022-04-17T08:50:32.000Z</time></trkpt><trkpt lon="5.587107" lat="51.191314"><ele>38</ele><time>2022-04-17T08:50:33.000Z</time></trkpt><trkpt lon="5.587118" lat="51.191246"><ele>38</ele><time>2022-04-17T08:50:34.000Z</time></trkpt><trkpt lon="5.587139" lat="51.191177"><ele>38</ele><time>2022-04-17T08:50:35.000Z</time></trkpt><trkpt lon="5.587173" lat="51.191108"><ele>37.8</ele><time>2022-04-17T08:50:36.000Z</time></trkpt><trkpt lon="5.58722" lat="51.191042"><ele>37.8</ele><time>2022-04-17T08:50:37.000Z</time></trkpt><trkpt lon="5.587281" lat="51.19098"><ele>37.8</ele><time>2022-04-17T08:50:38.000Z</time></trkpt><trkpt lon="5.587351" lat="51.190921"><ele>37.6</ele><time>2022-04-17T08:50:39.000Z</time></trkpt><trkpt lon="5.587423" lat="51.190863"><ele>37.6</ele><time>2022-04-17T08:50:40.000Z</time></trkpt><trkpt lon="5.587496" lat="51.190807"><ele>37.6</ele><time>2022-04-17T08:50:41.000Z</time></trkpt><trkpt lon="5.587569" lat="51.190754"><ele>37.6</ele><time>2022-04-17T08:50:42.000Z</time></trkpt><trkpt lon="5.587641" lat="51.190701"><ele>37.6</ele><time>2022-04-17T08:50:43.000Z</time></trkpt><trkpt lon="5.587709" lat="51.190647"><ele>37.6</ele><time>2022-04-17T08:50:44.000Z</time></trkpt><trkpt lon="5.587778" lat="51.19059"><ele>37.6</ele><time>2022-04-17T08:50:45.000Z</time></trkpt><trkpt lon="5.587847" lat="51.190536"><ele>37.6</ele><time>2022-04-17T08:50:46.000Z</time></trkpt><trkpt lon="5.587917" lat="51.190483"><ele>37.6</ele><time>2022-04-17T08:50:47.000Z</time></trkpt><trkpt lon="5.587989" lat="51.190429"><ele>37.8</ele><time>2022-04-17T08:50:48.000Z</time></trkpt><trkpt lon="5.588061" lat="51.190372"><ele>37.8</ele><time>2022-04-17T08:50:49.000Z</time></trkpt><trkpt lon="5.588129" lat="51.190316"><ele>37.8</ele><time>2022-04-17T08:50:50.000Z</time></trkpt><trkpt lon="5.5882" lat="51.190258"><ele>38</ele><time>2022-04-17T08:50:51.000Z</time></trkpt><trkpt lon="5.588274" lat="51.1902"><ele>38</ele><time>2022-04-17T08:50:52.000Z</time></trkpt><trkpt lon="5.588345" lat="51.190143"><ele>37.8</ele><time>2022-04-17T08:50:53.000Z</time></trkpt><trkpt lon="5.588419" lat="51.190087"><ele>37.8</ele><time>2022-04-17T08:50:54.000Z</time></trkpt><trkpt lon="5.588492" lat="51.190032"><ele>37.8</ele><time>2022-04-17T08:50:55.000Z</time></trkpt><trkpt lon="5.588562" lat="51.189976"><ele>37.8</ele><time>2022-04-17T08:50:56.000Z</time></trkpt><trkpt lon="5.588632" lat="51.189922"><ele>37.6</ele><time>2022-04-17T08:50:57.000Z</time></trkpt><trkpt lon="5.588703" lat="51.189865"><ele>37.6</ele><time>2022-04-17T08:50:58.000Z</time></trkpt><trkpt lon="5.588776" lat="51.189812"><ele>37.6</ele><time>2022-04-17T08:50:59.000Z</time></trkpt><trkpt lon="5.588848" lat="51.189758"><ele>37.6</ele><time>2022-04-17T08:51:00.000Z</time></trkpt><trkpt lon="5.588917" lat="51.189702"><ele>37.6</ele><time>2022-04-17T08:51:01.000Z</time></trkpt><trkpt lon="5.58899" lat="51.189648"><ele>37.6</ele><time>2022-04-17T08:51:02.000Z</time></trkpt><trkpt lon="5.589062" lat="51.189593"><ele>37.8</ele><time>2022-04-17T08:51:03.000Z</time></trkpt><trkpt lon="5.589134" lat="51.189537"><ele>37.8</ele><time>2022-04-17T08:51:04.000Z</time></trkpt><trkpt lon="5.589204" lat="51.189484"><ele>37.8</ele><time>2022-04-17T08:51:05.000Z</time></trkpt><trkpt lon="5.589276" lat="51.189431"><ele>38</ele><time>2022-04-17T08:51:06.000Z</time></trkpt><trkpt lon="5.589354" lat="51.189379"><ele>38</ele><time>2022-04-17T08:51:07.000Z</time></trkpt><trkpt lon="5.589439" lat="51.189332"><ele>38</ele><time>2022-04-17T08:51:08.000Z</time></trkpt><trkpt lon="5.589526" lat="51.189284"><ele>38</ele><time>2022-04-17T08:51:09.000Z</time></trkpt><trkpt lon="5.589618" lat="51.189238"><ele>38</ele><time>2022-04-17T08:51:10.000Z</time></trkpt><trkpt lon="5.589711" lat="51.189193"><ele>38.2</ele><time>2022-04-17T08:51:11.000Z</time></trkpt><trkpt lon="5.5898" lat="51.18915"><ele>38.2</ele><time>2022-04-17T08:51:12.000Z</time></trkpt><trkpt lon="5.589887" lat="51.189105"><ele>38.2</ele><time>2022-04-17T08:51:13.000Z</time></trkpt><trkpt lon="5.589975" lat="51.18906"><ele>38.2</ele><time>2022-04-17T08:51:14.000Z</time></trkpt><trkpt lon="5.590062" lat="51.189017"><ele>38.2</ele><time>2022-04-17T08:51:15.000Z</time></trkpt><trkpt lon="5.590147" lat="51.188972"><ele>38.2</ele><time>2022-04-17T08:51:16.000Z</time></trkpt><trkpt lon="5.590236" lat="51.188925"><ele>38.2</ele><time>2022-04-17T08:51:17.000Z</time></trkpt><trkpt lon="5.590325" lat="51.188876"><ele>38.2</ele><time>2022-04-17T08:51:18.000Z</time></trkpt><trkpt lon="5.590416" lat="51.18883"><ele>38.2</ele><time>2022-04-17T08:51:19.000Z</time></trkpt><trkpt lon="5.590504" lat="51.188784"><ele>38.2</ele><time>2022-04-17T08:51:20.000Z</time></trkpt><trkpt lon="5.590591" lat="51.188737"><ele>38.2</ele><time>2022-04-17T08:51:21.000Z</time></trkpt><trkpt lon="5.590677" lat="51.188687"><ele>38.2</ele><time>2022-04-17T08:51:22.000Z</time></trkpt><trkpt lon="5.590767" lat="51.188639"><ele>38.2</ele><time>2022-04-17T08:51:23.000Z</time></trkpt><trkpt lon="5.590857" lat="51.188592"><ele>38</ele><time>2022-04-17T08:51:24.000Z</time></trkpt><trkpt lon="5.590947" lat="51.188543"><ele>38</ele><time>2022-04-17T08:51:25.000Z</time></trkpt><trkpt lon="5.591037" lat="51.188493"><ele>37.8</ele><time>2022-04-17T08:51:26.000Z</time></trkpt><trkpt lon="5.591125" lat="51.188444"><ele>37.6</ele><time>2022-04-17T08:51:27.000Z</time></trkpt><trkpt lon="5.591212" lat="51.188397"><ele>37.2</ele><time>2022-04-17T08:51:28.000Z</time></trkpt><trkpt lon="5.591297" lat="51.188349"><ele>37</ele><time>2022-04-17T08:51:29.000Z</time></trkpt><trkpt lon="5.591383" lat="51.188303"><ele>36.8</ele><time>2022-04-17T08:51:30.000Z</time></trkpt><trkpt lon="5.59147" lat="51.188252"><ele>36.8</ele><time>2022-04-17T08:51:31.000Z</time></trkpt><trkpt lon="5.591557" lat="51.188204"><ele>36.6</ele><time>2022-04-17T08:51:32.000Z</time></trkpt><trkpt lon="5.591646" lat="51.188158"><ele>36.4</ele><time>2022-04-17T08:51:33.000Z</time></trkpt><trkpt lon="5.591734" lat="51.188112"><ele>36.4</ele><time>2022-04-17T08:51:34.000Z</time></trkpt><trkpt lon="5.591824" lat="51.188065"><ele>36.4</ele><time>2022-04-17T08:51:35.000Z</time></trkpt><trkpt lon="5.591912" lat="51.188016"><ele>36.6</ele><time>2022-04-17T08:51:36.000Z</time></trkpt><trkpt lon="5.592001" lat="51.187967"><ele>36.6</ele><time>2022-04-17T08:51:37.000Z</time></trkpt><trkpt lon="5.592089" lat="51.187922"><ele>36.6</ele><time>2022-04-17T08:51:38.000Z</time></trkpt><trkpt lon="5.592176" lat="51.187876"><ele>36.8</ele><time>2022-04-17T08:51:39.000Z</time></trkpt><trkpt lon="5.59226" lat="51.18783"><ele>36.8</ele><time>2022-04-17T08:51:40.000Z</time></trkpt><trkpt lon="5.592346" lat="51.187781"><ele>36.8</ele><time>2022-04-17T08:51:41.000Z</time></trkpt><trkpt lon="5.592432" lat="51.187735"><ele>37</ele><time>2022-04-17T08:51:42.000Z</time></trkpt><trkpt lon="5.592522" lat="51.187684"><ele>37</ele><time>2022-04-17T08:51:43.000Z</time></trkpt><trkpt lon="5.592611" lat="51.187635"><ele>37</ele><time>2022-04-17T08:51:44.000Z</time></trkpt><trkpt lon="5.5927" lat="51.187584"><ele>37</ele><time>2022-04-17T08:51:45.000Z</time></trkpt><trkpt lon="5.592783" lat="51.187529"><ele>37</ele><time>2022-04-17T08:51:46.000Z</time></trkpt><trkpt lon="5.592857" lat="51.187473"><ele>37</ele><time>2022-04-17T08:51:47.000Z</time></trkpt><trkpt lon="5.592927" lat="51.187416"><ele>37</ele><time>2022-04-17T08:51:48.000Z</time></trkpt><trkpt lon="5.592991" lat="51.187353"><ele>37</ele><time>2022-04-17T08:51:49.000Z</time></trkpt><trkpt lon="5.593052" lat="51.187293"><ele>37.2</ele><time>2022-04-17T08:51:50.000Z</time></trkpt><trkpt lon="5.593113" lat="51.18723"><ele>37.2</ele><time>2022-04-17T08:51:51.000Z</time></trkpt><trkpt lon="5.593169" lat="51.187165"><ele>37.2</ele><time>2022-04-17T08:51:52.000Z</time></trkpt><trkpt lon="5.593221" lat="51.1871"><ele>37.2</ele><time>2022-04-17T08:51:53.000Z</time></trkpt><trkpt lon="5.593269" lat="51.187034"><ele>37.2</ele><time>2022-04-17T08:51:54.000Z</time></trkpt><trkpt lon="5.593315" lat="51.186965"><ele>37.2</ele><time>2022-04-17T08:51:55.000Z</time></trkpt><trkpt lon="5.593359" lat="51.186896"><ele>37</ele><time>2022-04-17T08:51:56.000Z</time></trkpt><trkpt lon="5.593403" lat="51.186826"><ele>37</ele><time>2022-04-17T08:51:57.000Z</time></trkpt><trkpt lon="5.593446" lat="51.186755"><ele>37</ele><time>2022-04-17T08:51:58.000Z</time></trkpt><trkpt lon="5.593489" lat="51.186683"><ele>37</ele><time>2022-04-17T08:51:59.000Z</time></trkpt><trkpt lon="5.593532" lat="51.186614"><ele>37</ele><time>2022-04-17T08:52:00.000Z</time></trkpt><trkpt lon="5.593575" lat="51.186544"><ele>37</ele><time>2022-04-17T08:52:01.000Z</time></trkpt><trkpt lon="5.593617" lat="51.186482"><ele>37.2</ele><time>2022-04-17T08:52:02.000Z</time></trkpt><trkpt lon="5.593659" lat="51.186417"><ele>37.4</ele><time>2022-04-17T08:52:03.000Z</time></trkpt><trkpt lon="5.593701" lat="51.186351"><ele>37.4</ele><time>2022-04-17T08:52:04.000Z</time></trkpt><trkpt lon="5.593744" lat="51.186284"><ele>37.4</ele><time>2022-04-17T08:52:05.000Z</time></trkpt><trkpt lon="5.593786" lat="51.186217"><ele>37.6</ele><time>2022-04-17T08:52:06.000Z</time></trkpt><trkpt lon="5.59383" lat="51.18615"><ele>37.6</ele><time>2022-04-17T08:52:07.000Z</time></trkpt><trkpt lon="5.593874" lat="51.186084"><ele>37.8</ele><time>2022-04-17T08:52:08.000Z</time></trkpt><trkpt lon="5.593917" lat="51.186015"><ele>37.8</ele><time>2022-04-17T08:52:09.000Z</time></trkpt><trkpt lon="5.593958" lat="51.185947"><ele>37.8</ele><time>2022-04-17T08:52:10.000Z</time></trkpt><trkpt lon="5.594" lat="51.185879"><ele>37.8</ele><time>2022-04-17T08:52:11.000Z</time></trkpt><trkpt lon="5.594041" lat="51.185811"><ele>37.8</ele><time>2022-04-17T08:52:12.000Z</time></trkpt><trkpt lon="5.594084" lat="51.185746"><ele>37.8</ele><time>2022-04-17T08:52:13.000Z</time></trkpt><trkpt lon="5.594127" lat="51.185677"><ele>37.8</ele><time>2022-04-17T08:52:14.000Z</time></trkpt><trkpt lon="5.594171" lat="51.185608"><ele>37.8</ele><time>2022-04-17T08:52:15.000Z</time></trkpt><trkpt lon="5.594214" lat="51.185543"><ele>37.6</ele><time>2022-04-17T08:52:16.000Z</time></trkpt><trkpt lon="5.594257" lat="51.185475"><ele>37.6</ele><time>2022-04-17T08:52:17.000Z</time></trkpt><trkpt lon="5.594299" lat="51.185409"><ele>37.6</ele><time>2022-04-17T08:52:18.000Z</time></trkpt><trkpt lon="5.594342" lat="51.185342"><ele>37.6</ele><time>2022-04-17T08:52:19.000Z</time></trkpt><trkpt lon="5.594386" lat="51.185275"><ele>37.8</ele><time>2022-04-17T08:52:20.000Z</time></trkpt><trkpt lon="5.594428" lat="51.185209"><ele>37.8</ele><time>2022-04-17T08:52:21.000Z</time></trkpt><trkpt lon="5.594469" lat="51.185144"><ele>37.8</ele><time>2022-04-17T08:52:22.000Z</time></trkpt><trkpt lon="5.59451" lat="51.185079"><ele>38</ele><time>2022-04-17T08:52:23.000Z</time></trkpt><trkpt lon="5.594554" lat="51.185012"><ele>38</ele><time>2022-04-17T08:52:24.000Z</time></trkpt><trkpt lon="5.594597" lat="51.184944"><ele>38</ele><time>2022-04-17T08:52:25.000Z</time></trkpt><trkpt lon="5.594638" lat="51.184876"><ele>38</ele><time>2022-04-17T08:52:26.000Z</time></trkpt><trkpt lon="5.594679" lat="51.184811"><ele>38</ele><time>2022-04-17T08:52:27.000Z</time></trkpt><trkpt lon="5.59472" lat="51.184747"><ele>38</ele><time>2022-04-17T08:52:28.000Z</time></trkpt><trkpt lon="5.594762" lat="51.184681"><ele>38.2</ele><time>2022-04-17T08:52:29.000Z</time></trkpt><trkpt lon="5.594803" lat="51.184616"><ele>38.2</ele><time>2022-04-17T08:52:30.000Z</time></trkpt><trkpt lon="5.594843" lat="51.184552"><ele>38.2</ele><time>2022-04-17T08:52:31.000Z</time></trkpt><trkpt lon="5.594884" lat="51.184488"><ele>38.2</ele><time>2022-04-17T08:52:32.000Z</time></trkpt><trkpt lon="5.594927" lat="51.184427"><ele>38</ele><time>2022-04-17T08:52:33.000Z</time></trkpt><trkpt lon="5.594968" lat="51.184367"><ele>38</ele><time>2022-04-17T08:52:34.000Z</time></trkpt><trkpt lon="5.595006" lat="51.184306"><ele>37.8</ele><time>2022-04-17T08:52:35.000Z</time></trkpt><trkpt lon="5.595042" lat="51.184247"><ele>38</ele><time>2022-04-17T08:52:36.000Z</time></trkpt><trkpt lon="5.595077" lat="51.184189"><ele>38</ele><time>2022-04-17T08:52:37.000Z</time></trkpt><trkpt lon="5.595111" lat="51.184137"><ele>38.2</ele><time>2022-04-17T08:52:38.000Z</time></trkpt><trkpt lon="5.595143" lat="51.18409"><ele>38.2</ele><time>2022-04-17T08:52:39.000Z</time></trkpt><trkpt lon="5.595171" lat="51.184049"><ele>38.2</ele><time>2022-04-17T08:52:40.000Z</time></trkpt><trkpt lon="5.595193" lat="51.184018"><ele>38.4</ele><time>2022-04-17T08:52:41.000Z</time></trkpt><trkpt lon="5.595211" lat="51.183998"><ele>38.4</ele><time>2022-04-17T08:52:42.000Z</time></trkpt><trkpt lon="5.595225" lat="51.183984"><ele>38.4</ele><time>2022-04-17T08:52:43.000Z</time></trkpt><trkpt lon="5.595238" lat="51.183972"><ele>38.6</ele><time>2022-04-17T08:52:44.000Z</time></trkpt><trkpt lon="5.59526" lat="51.183962"><ele>38.6</ele><time>2022-04-17T08:52:45.000Z</time></trkpt><trkpt lon="5.595296" lat="51.183955"><ele>38.6</ele><time>2022-04-17T08:52:46.000Z</time></trkpt><trkpt lon="5.595344" lat="51.183952"><ele>38.6</ele><time>2022-04-17T08:52:47.000Z</time></trkpt><trkpt lon="5.5954" lat="51.183955"><ele>38.6</ele><time>2022-04-17T08:52:48.000Z</time></trkpt><trkpt lon="5.595465" lat="51.183962"><ele>38.6</ele><time>2022-04-17T08:52:49.000Z</time></trkpt><trkpt lon="5.595539" lat="51.183972"><ele>38.4</ele><time>2022-04-17T08:52:50.000Z</time></trkpt><trkpt lon="5.595617" lat="51.183988"><ele>38.4</ele><time>2022-04-17T08:52:51.000Z</time></trkpt><trkpt lon="5.595701" lat="51.184007"><ele>38.4</ele><time>2022-04-17T08:52:52.000Z</time></trkpt><trkpt lon="5.595789" lat="51.184026"><ele>38.2</ele><time>2022-04-17T08:52:53.000Z</time></trkpt><trkpt lon="5.595883" lat="51.184045"><ele>38.2</ele><time>2022-04-17T08:52:54.000Z</time></trkpt><trkpt lon="5.595978" lat="51.184065"><ele>38.2</ele><time>2022-04-17T08:52:55.000Z</time></trkpt><trkpt lon="5.596076" lat="51.184089"><ele>38.2</ele><time>2022-04-17T08:52:56.000Z</time></trkpt><trkpt lon="5.596175" lat="51.184112"><ele>38.2</ele><time>2022-04-17T08:52:57.000Z</time></trkpt><trkpt lon="5.596276" lat="51.184134"><ele>38</ele><time>2022-04-17T08:52:58.000Z</time></trkpt><trkpt lon="5.596377" lat="51.184157"><ele>38.2</ele><time>2022-04-17T08:52:59.000Z</time></trkpt><trkpt lon="5.596481" lat="51.18418"><ele>38</ele><time>2022-04-17T08:53:00.000Z</time></trkpt><trkpt lon="5.596585" lat="51.184204"><ele>37.8</ele><time>2022-04-17T08:53:01.000Z</time></trkpt><trkpt lon="5.59669" lat="51.18423"><ele>37.6</ele><time>2022-04-17T08:53:02.000Z</time></trkpt><trkpt lon="5.596796" lat="51.184252"><ele>37.4</ele><time>2022-04-17T08:53:03.000Z</time></trkpt><trkpt lon="5.596902" lat="51.184276"><ele>37.6</ele><time>2022-04-17T08:53:04.000Z</time></trkpt><trkpt lon="5.597012" lat="51.184302"><ele>37.8</ele><time>2022-04-17T08:53:05.000Z</time></trkpt><trkpt lon="5.59712" lat="51.184325"><ele>37.8</ele><time>2022-04-17T08:53:06.000Z</time></trkpt><trkpt lon="5.597229" lat="51.184349"><ele>37.8</ele><time>2022-04-17T08:53:07.000Z</time></trkpt><trkpt lon="5.597335" lat="51.184375"><ele>37.8</ele><time>2022-04-17T08:53:08.000Z</time></trkpt><trkpt lon="5.597442" lat="51.184399"><ele>37.6</ele><time>2022-04-17T08:53:09.000Z</time></trkpt><trkpt lon="5.59755" lat="51.184424"><ele>37.8</ele><time>2022-04-17T08:53:10.000Z</time></trkpt><trkpt lon="5.597657" lat="51.184447"><ele>37.8</ele><time>2022-04-17T08:53:11.000Z</time></trkpt><trkpt lon="5.597764" lat="51.184471"><ele>38</ele><time>2022-04-17T08:53:12.000Z</time></trkpt><trkpt lon="5.597869" lat="51.184498"><ele>38.2</ele><time>2022-04-17T08:53:13.000Z</time></trkpt><trkpt lon="5.597973" lat="51.184524"><ele>38.2</ele><time>2022-04-17T08:53:14.000Z</time></trkpt><trkpt lon="5.598077" lat="51.184552"><ele>38</ele><time>2022-04-17T08:53:15.000Z</time></trkpt><trkpt lon="5.598183" lat="51.184583"><ele>38</ele><time>2022-04-17T08:53:16.000Z</time></trkpt><trkpt lon="5.598285" lat="51.184613"><ele>38</ele><time>2022-04-17T08:53:17.000Z</time></trkpt><trkpt lon="5.598385" lat="51.184643"><ele>37.8</ele><time>2022-04-17T08:53:18.000Z</time></trkpt><trkpt lon="5.598487" lat="51.184667"><ele>37.8</ele><time>2022-04-17T08:53:19.000Z</time></trkpt><trkpt lon="5.598596" lat="51.18468"><ele>38</ele><time>2022-04-17T08:53:20.000Z</time></trkpt><trkpt lon="5.59871" lat="51.184674"><ele>38.2</ele><time>2022-04-17T08:53:21.000Z</time></trkpt><trkpt lon="5.598827" lat="51.184664"><ele>38.2</ele><time>2022-04-17T08:53:22.000Z</time></trkpt><trkpt lon="5.598944" lat="51.184656"><ele>38.4</ele><time>2022-04-17T08:53:23.000Z</time></trkpt><trkpt lon="5.599061" lat="51.184649"><ele>38.4</ele><time>2022-04-17T08:53:24.000Z</time></trkpt><trkpt lon="5.59918" lat="51.184647"><ele>38.2</ele><time>2022-04-17T08:53:25.000Z</time></trkpt><trkpt lon="5.599293" lat="51.184648"><ele>38.2</ele><time>2022-04-17T08:53:26.000Z</time></trkpt><trkpt lon="5.599406" lat="51.18465"><ele>38</ele><time>2022-04-17T08:53:27.000Z</time></trkpt><trkpt lon="5.599517" lat="51.18465"><ele>37.8</ele><time>2022-04-17T08:53:28.000Z</time></trkpt><trkpt lon="5.599628" lat="51.184651"><ele>37.8</ele><time>2022-04-17T08:53:29.000Z</time></trkpt><trkpt lon="5.599742" lat="51.184654"><ele>37.8</ele><time>2022-04-17T08:53:30.000Z</time></trkpt><trkpt lon="5.599853" lat="51.184655"><ele>38</ele><time>2022-04-17T08:53:31.000Z</time></trkpt><trkpt lon="5.599965" lat="51.184658"><ele>37.8</ele><time>2022-04-17T08:53:32.000Z</time></trkpt><trkpt lon="5.600075" lat="51.184659"><ele>37.4</ele><time>2022-04-17T08:53:33.000Z</time></trkpt><trkpt lon="5.600188" lat="51.184662"><ele>37.2</ele><time>2022-04-17T08:53:34.000Z</time></trkpt><trkpt lon="5.600302" lat="51.184662"><ele>37</ele><time>2022-04-17T08:53:35.000Z</time></trkpt><trkpt lon="5.600413" lat="51.184662"><ele>37</ele><time>2022-04-17T08:53:36.000Z</time></trkpt><trkpt lon="5.600526" lat="51.184663"><ele>37.4</ele><time>2022-04-17T08:53:37.000Z</time></trkpt><trkpt lon="5.600637" lat="51.184666"><ele>37.6</ele><time>2022-04-17T08:53:38.000Z</time></trkpt><trkpt lon="5.600746" lat="51.184666"><ele>37.6</ele><time>2022-04-17T08:53:39.000Z</time></trkpt><trkpt lon="5.600857" lat="51.184667"><ele>37.8</ele><time>2022-04-17T08:53:40.000Z</time></trkpt><trkpt lon="5.600965" lat="51.184671"><ele>37.8</ele><time>2022-04-17T08:53:41.000Z</time></trkpt><trkpt lon="5.601073" lat="51.184673"><ele>38</ele><time>2022-04-17T08:53:42.000Z</time></trkpt><trkpt lon="5.601184" lat="51.184674"><ele>37.8</ele><time>2022-04-17T08:53:43.000Z</time></trkpt><trkpt lon="5.601292" lat="51.184677"><ele>37.6</ele><time>2022-04-17T08:53:44.000Z</time></trkpt><trkpt lon="5.601403" lat="51.184678"><ele>37.6</ele><time>2022-04-17T08:53:45.000Z</time></trkpt><trkpt lon="5.601511" lat="51.184681"><ele>37.6</ele><time>2022-04-17T08:53:46.000Z</time></trkpt><trkpt lon="5.601619" lat="51.18468"><ele>37.6</ele><time>2022-04-17T08:53:47.000Z</time></trkpt><trkpt lon="5.601729" lat="51.184676"><ele>37.8</ele><time>2022-04-17T08:53:48.000Z</time></trkpt><trkpt lon="5.601838" lat="51.184671"><ele>37.8</ele><time>2022-04-17T08:53:49.000Z</time></trkpt><trkpt lon="5.601947" lat="51.184665"><ele>37.8</ele><time>2022-04-17T08:53:50.000Z</time></trkpt><trkpt lon="5.60206" lat="51.18466"><ele>37.6</ele><time>2022-04-17T08:53:51.000Z</time></trkpt><trkpt lon="5.60217" lat="51.184652"><ele>37.4</ele><time>2022-04-17T08:53:52.000Z</time></trkpt><trkpt lon="5.60228" lat="51.184646"><ele>37.4</ele><time>2022-04-17T08:53:53.000Z</time></trkpt><trkpt lon="5.602393" lat="51.184641"><ele>37.2</ele><time>2022-04-17T08:53:54.000Z</time></trkpt><trkpt lon="5.602508" lat="51.184634"><ele>37.2</ele><time>2022-04-17T08:53:55.000Z</time></trkpt><trkpt lon="5.602621" lat="51.184629"><ele>37.4</ele><time>2022-04-17T08:53:56.000Z</time></trkpt><trkpt lon="5.602735" lat="51.184622"><ele>37.4</ele><time>2022-04-17T08:53:57.000Z</time></trkpt><trkpt lon="5.602851" lat="51.184615"><ele>37.6</ele><time>2022-04-17T08:53:58.000Z</time></trkpt><trkpt lon="5.602965" lat="51.18461"><ele>37.8</ele><time>2022-04-17T08:53:59.000Z</time></trkpt><trkpt lon="5.603078" lat="51.184603"><ele>37.8</ele><time>2022-04-17T08:54:00.000Z</time></trkpt><trkpt lon="5.60319" lat="51.184596"><ele>38</ele><time>2022-04-17T08:54:01.000Z</time></trkpt><trkpt lon="5.603308" lat="51.184591"><ele>37.8</ele><time>2022-04-17T08:54:02.000Z</time></trkpt><trkpt lon="5.603422" lat="51.184584"><ele>37.6</ele><time>2022-04-17T08:54:03.000Z</time></trkpt><trkpt lon="5.603534" lat="51.18458"><ele>37.6</ele><time>2022-04-17T08:54:04.000Z</time></trkpt><trkpt lon="5.603649" lat="51.184572"><ele>37.8</ele><time>2022-04-17T08:54:05.000Z</time></trkpt><trkpt lon="5.603763" lat="51.184564"><ele>37.8</ele><time>2022-04-17T08:54:06.000Z</time></trkpt><trkpt lon="5.603878" lat="51.184557"><ele>37.4</ele><time>2022-04-17T08:54:07.000Z</time></trkpt><trkpt lon="5.603996" lat="51.184549"><ele>37.4</ele><time>2022-04-17T08:54:08.000Z</time></trkpt><trkpt lon="5.604113" lat="51.184541"><ele>37.4</ele><time>2022-04-17T08:54:09.000Z</time></trkpt><trkpt lon="5.604229" lat="51.184534"><ele>37.2</ele><time>2022-04-17T08:54:10.000Z</time></trkpt><trkpt lon="5.604345" lat="51.184525"><ele>37.4</ele><time>2022-04-17T08:54:11.000Z</time></trkpt><trkpt lon="5.60446" lat="51.184515"><ele>37.6</ele><time>2022-04-17T08:54:12.000Z</time></trkpt><trkpt lon="5.604573" lat="51.184505"><ele>37.6</ele><time>2022-04-17T08:54:13.000Z</time></trkpt><trkpt lon="5.604684" lat="51.184489"><ele>37.8</ele><time>2022-04-17T08:54:14.000Z</time></trkpt><trkpt lon="5.604795" lat="51.184472"><ele>37.8</ele><time>2022-04-17T08:54:15.000Z</time></trkpt><trkpt lon="5.604909" lat="51.184458"><ele>37.8</ele><time>2022-04-17T08:54:16.000Z</time></trkpt><trkpt lon="5.605019" lat="51.184438"><ele>37.8</ele><time>2022-04-17T08:54:17.000Z</time></trkpt><trkpt lon="5.605126" lat="51.184416"><ele>37.8</ele><time>2022-04-17T08:54:18.000Z</time></trkpt><trkpt lon="5.60523" lat="51.184396"><ele>37.8</ele><time>2022-04-17T08:54:19.000Z</time></trkpt><trkpt lon="5.605329" lat="51.184373"><ele>37.6</ele><time>2022-04-17T08:54:20.000Z</time></trkpt><trkpt lon="5.605424" lat="51.184349"><ele>37.8</ele><time>2022-04-17T08:54:21.000Z</time></trkpt><trkpt lon="5.605517" lat="51.184323"><ele>37.8</ele><time>2022-04-17T08:54:22.000Z</time></trkpt><trkpt lon="5.605607" lat="51.1843"><ele>37.6</ele><time>2022-04-17T08:54:23.000Z</time></trkpt><trkpt lon="5.605696" lat="51.184273"><ele>37.6</ele><time>2022-04-17T08:54:24.000Z</time></trkpt><trkpt lon="5.605781" lat="51.184245"><ele>37.6</ele><time>2022-04-17T08:54:25.000Z</time></trkpt><trkpt lon="5.605867" lat="51.184215"><ele>37.4</ele><time>2022-04-17T08:54:26.000Z</time></trkpt><trkpt lon="5.605951" lat="51.184183"><ele>37.4</ele><time>2022-04-17T08:54:27.000Z</time></trkpt><trkpt lon="5.606034" lat="51.18415"><ele>37.4</ele><time>2022-04-17T08:54:28.000Z</time></trkpt><trkpt lon="5.606117" lat="51.184118"><ele>37.4</ele><time>2022-04-17T08:54:29.000Z</time></trkpt><trkpt lon="5.606201" lat="51.184079"><ele>37.2</ele><time>2022-04-17T08:54:30.000Z</time></trkpt><trkpt lon="5.606283" lat="51.184041"><ele>37.4</ele><time>2022-04-17T08:54:31.000Z</time></trkpt><trkpt lon="5.606365" lat="51.184002"><ele>37.2</ele><time>2022-04-17T08:54:32.000Z</time></trkpt><trkpt lon="5.606443" lat="51.183963"><ele>37.2</ele><time>2022-04-17T08:54:33.000Z</time></trkpt><trkpt lon="5.60652" lat="51.183923"><ele>37.2</ele><time>2022-04-17T08:54:34.000Z</time></trkpt><trkpt lon="5.606598" lat="51.183884"><ele>37.2</ele><time>2022-04-17T08:54:35.000Z</time></trkpt><trkpt lon="5.606675" lat="51.18384"><ele>37</ele><time>2022-04-17T08:54:36.000Z</time></trkpt><trkpt lon="5.606753" lat="51.183797"><ele>37</ele><time>2022-04-17T08:54:37.000Z</time></trkpt><trkpt lon="5.606833" lat="51.183757"><ele>37</ele><time>2022-04-17T08:54:38.000Z</time></trkpt><trkpt lon="5.606915" lat="51.183716"><ele>37.2</ele><time>2022-04-17T08:54:39.000Z</time></trkpt><trkpt lon="5.606997" lat="51.183679"><ele>37.4</ele><time>2022-04-17T08:54:40.000Z</time></trkpt><trkpt lon="5.607082" lat="51.183642"><ele>37.6</ele><time>2022-04-17T08:54:41.000Z</time></trkpt><trkpt lon="5.607173" lat="51.183609"><ele>37.8</ele><time>2022-04-17T08:54:42.000Z</time></trkpt><trkpt lon="5.607266" lat="51.183581"><ele>37.8</ele><time>2022-04-17T08:54:43.000Z</time></trkpt><trkpt lon="5.607361" lat="51.183553"><ele>37.8</ele><time>2022-04-17T08:54:44.000Z</time></trkpt><trkpt lon="5.607457" lat="51.183529"><ele>37.8</ele><time>2022-04-17T08:54:45.000Z</time></trkpt><trkpt lon="5.607555" lat="51.183504"><ele>37.8</ele><time>2022-04-17T08:54:46.000Z</time></trkpt><trkpt lon="5.607654" lat="51.183482"><ele>37.6</ele><time>2022-04-17T08:54:47.000Z</time></trkpt><trkpt lon="5.607756" lat="51.183461"><ele>37.6</ele><time>2022-04-17T08:54:48.000Z</time></trkpt><trkpt lon="5.607857" lat="51.183441"><ele>37.6</ele><time>2022-04-17T08:54:49.000Z</time></trkpt><trkpt lon="5.607957" lat="51.183423"><ele>37.6</ele><time>2022-04-17T08:54:50.000Z</time></trkpt><trkpt lon="5.608057" lat="51.183401"><ele>37.4</ele><time>2022-04-17T08:54:51.000Z</time></trkpt><trkpt lon="5.608158" lat="51.183381"><ele>37.4</ele><time>2022-04-17T08:54:52.000Z</time></trkpt><trkpt lon="5.608257" lat="51.18336"><ele>37.4</ele><time>2022-04-17T08:54:53.000Z</time></trkpt><trkpt lon="5.608356" lat="51.18334"><ele>37.4</ele><time>2022-04-17T08:54:54.000Z</time></trkpt><trkpt lon="5.608455" lat="51.183321"><ele>37.6</ele><time>2022-04-17T08:54:55.000Z</time></trkpt><trkpt lon="5.608553" lat="51.183302"><ele>37.8</ele><time>2022-04-17T08:54:56.000Z</time></trkpt><trkpt lon="5.60865" lat="51.183283"><ele>37.8</ele><time>2022-04-17T08:54:57.000Z</time></trkpt><trkpt lon="5.608745" lat="51.183264"><ele>37.8</ele><time>2022-04-17T08:54:58.000Z</time></trkpt><trkpt lon="5.608844" lat="51.183241"><ele>37.6</ele><time>2022-04-17T08:54:59.000Z</time></trkpt><trkpt lon="5.608939" lat="51.183222"><ele>37.6</ele><time>2022-04-17T08:55:00.000Z</time></trkpt><trkpt lon="5.609038" lat="51.183203"><ele>37.4</ele><time>2022-04-17T08:55:01.000Z</time></trkpt><trkpt lon="5.609137" lat="51.183183"><ele>37.4</ele><time>2022-04-17T08:55:02.000Z</time></trkpt><trkpt lon="5.609237" lat="51.183161"><ele>37.6</ele><time>2022-04-17T08:55:03.000Z</time></trkpt><trkpt lon="5.609336" lat="51.183142"><ele>37.6</ele><time>2022-04-17T08:55:04.000Z</time></trkpt><trkpt lon="5.609435" lat="51.183122"><ele>37.6</ele><time>2022-04-17T08:55:05.000Z</time></trkpt><trkpt lon="5.609537" lat="51.1831"><ele>37.4</ele><time>2022-04-17T08:55:06.000Z</time></trkpt><trkpt lon="5.609638" lat="51.18308"><ele>37.4</ele><time>2022-04-17T08:55:07.000Z</time></trkpt><trkpt lon="5.609737" lat="51.183056"><ele>37.4</ele><time>2022-04-17T08:55:08.000Z</time></trkpt><trkpt lon="5.609833" lat="51.183029"><ele>37.2</ele><time>2022-04-17T08:55:09.000Z</time></trkpt><trkpt lon="5.609928" lat="51.183002"><ele>37</ele><time>2022-04-17T08:55:10.000Z</time></trkpt><trkpt lon="5.610024" lat="51.18297"><ele>37.2</ele><time>2022-04-17T08:55:11.000Z</time></trkpt><trkpt lon="5.610116" lat="51.182936"><ele>37.2</ele><time>2022-04-17T08:55:12.000Z</time></trkpt><trkpt lon="5.610209" lat="51.182901"><ele>37.2</ele><time>2022-04-17T08:55:13.000Z</time></trkpt><trkpt lon="5.610298" lat="51.182866"><ele>37.4</ele><time>2022-04-17T08:55:14.000Z</time></trkpt><trkpt lon="5.610385" lat="51.182827"><ele>37.6</ele><time>2022-04-17T08:55:15.000Z</time></trkpt><trkpt lon="5.610471" lat="51.182786"><ele>37.6</ele><time>2022-04-17T08:55:16.000Z</time></trkpt><trkpt lon="5.610556" lat="51.182745"><ele>37.6</ele><time>2022-04-17T08:55:17.000Z</time></trkpt><trkpt lon="5.610637" lat="51.182701"><ele>37.6</ele><time>2022-04-17T08:55:18.000Z</time></trkpt><trkpt lon="5.610716" lat="51.182659"><ele>37.6</ele><time>2022-04-17T08:55:19.000Z</time></trkpt><trkpt lon="5.610791" lat="51.182615"><ele>37.6</ele><time>2022-04-17T08:55:20.000Z</time></trkpt><trkpt lon="5.610865" lat="51.182566"><ele>37.8</ele><time>2022-04-17T08:55:21.000Z</time></trkpt><trkpt lon="5.610937" lat="51.18252"><ele>37.8</ele><time>2022-04-17T08:55:22.000Z</time></trkpt><trkpt lon="5.611007" lat="51.182474"><ele>37.8</ele><time>2022-04-17T08:55:23.000Z</time></trkpt><trkpt lon="5.611075" lat="51.182425"><ele>37.8</ele><time>2022-04-17T08:55:24.000Z</time></trkpt><trkpt lon="5.611145" lat="51.182375"><ele>37.8</ele><time>2022-04-17T08:55:25.000Z</time></trkpt><trkpt lon="5.611219" lat="51.182326"><ele>37.6</ele><time>2022-04-17T08:55:26.000Z</time></trkpt><trkpt lon="5.61129" lat="51.182279"><ele>37.6</ele><time>2022-04-17T08:55:27.000Z</time></trkpt><trkpt lon="5.611359" lat="51.182229"><ele>37.8</ele><time>2022-04-17T08:55:28.000Z</time></trkpt><trkpt lon="5.611425" lat="51.182182"><ele>37.8</ele><time>2022-04-17T08:55:29.000Z</time></trkpt><trkpt lon="5.611488" lat="51.18214"><ele>37.8</ele><time>2022-04-17T08:55:30.000Z</time></trkpt><trkpt lon="5.611553" lat="51.182098"><ele>37.8</ele><time>2022-04-17T08:55:31.000Z</time></trkpt><trkpt lon="5.611619" lat="51.182054"><ele>37.8</ele><time>2022-04-17T08:55:32.000Z</time></trkpt><trkpt lon="5.611687" lat="51.18201"><ele>37.6</ele><time>2022-04-17T08:55:33.000Z</time></trkpt><trkpt lon="5.611757" lat="51.181968"><ele>37.4</ele><time>2022-04-17T08:55:34.000Z</time></trkpt><trkpt lon="5.611828" lat="51.181926"><ele>37.4</ele><time>2022-04-17T08:55:35.000Z</time></trkpt><trkpt lon="5.611894" lat="51.181885"><ele>37.4</ele><time>2022-04-17T08:55:36.000Z</time></trkpt><trkpt lon="5.611955" lat="51.181845"><ele>37.4</ele><time>2022-04-17T08:55:37.000Z</time></trkpt><trkpt lon="5.612013" lat="51.181806"><ele>37.6</ele><time>2022-04-17T08:55:38.000Z</time></trkpt><trkpt lon="5.612064" lat="51.181772"><ele>37.6</ele><time>2022-04-17T08:55:39.000Z</time></trkpt><trkpt lon="5.612113" lat="51.18174"><ele>37.6</ele><time>2022-04-17T08:55:40.000Z</time></trkpt><trkpt lon="5.612166" lat="51.181715"><ele>37.6</ele><time>2022-04-17T08:55:41.000Z</time></trkpt><trkpt lon="5.612228" lat="51.181698"><ele>37.8</ele><time>2022-04-17T08:55:42.000Z</time></trkpt><trkpt lon="5.612297" lat="51.181692"><ele>37.6</ele><time>2022-04-17T08:55:43.000Z</time></trkpt><trkpt lon="5.61237" lat="51.181702"><ele>37.6</ele><time>2022-04-17T08:55:44.000Z</time></trkpt><trkpt lon="5.612444" lat="51.181718"><ele>37.4</ele><time>2022-04-17T08:55:45.000Z</time></trkpt><trkpt lon="5.612518" lat="51.181738"><ele>37.2</ele><time>2022-04-17T08:55:46.000Z</time></trkpt><trkpt lon="5.612595" lat="51.181762"><ele>37.2</ele><time>2022-04-17T08:55:47.000Z</time></trkpt><trkpt lon="5.612676" lat="51.181788"><ele>37</ele><time>2022-04-17T08:55:48.000Z</time></trkpt><trkpt lon="5.612759" lat="51.181813"><ele>37</ele><time>2022-04-17T08:55:49.000Z</time></trkpt><trkpt lon="5.612843" lat="51.181842"><ele>37</ele><time>2022-04-17T08:55:50.000Z</time></trkpt><trkpt lon="5.612932" lat="51.181865"><ele>36.8</ele><time>2022-04-17T08:55:51.000Z</time></trkpt><trkpt lon="5.613024" lat="51.181886"><ele>37</ele><time>2022-04-17T08:55:52.000Z</time></trkpt><trkpt lon="5.613119" lat="51.181904"><ele>37</ele><time>2022-04-17T08:55:53.000Z</time></trkpt><trkpt lon="5.613221" lat="51.181917"><ele>37</ele><time>2022-04-17T08:55:54.000Z</time></trkpt><trkpt lon="5.613323" lat="51.181923"><ele>37</ele><time>2022-04-17T08:55:55.000Z</time></trkpt><trkpt lon="5.613427" lat="51.181922"><ele>37</ele><time>2022-04-17T08:55:56.000Z</time></trkpt><trkpt lon="5.613531" lat="51.181918"><ele>37</ele><time>2022-04-17T08:55:57.000Z</time></trkpt><trkpt lon="5.613634" lat="51.181913"><ele>37</ele><time>2022-04-17T08:55:58.000Z</time></trkpt><trkpt lon="5.613738" lat="51.181906"><ele>37</ele><time>2022-04-17T08:55:59.000Z</time></trkpt><trkpt lon="5.613845" lat="51.181899"><ele>37</ele><time>2022-04-17T08:56:00.000Z</time></trkpt><trkpt lon="5.61395" lat="51.181894"><ele>37</ele><time>2022-04-17T08:56:01.000Z</time></trkpt><trkpt lon="5.614056" lat="51.181887"><ele>37</ele><time>2022-04-17T08:56:02.000Z</time></trkpt><trkpt lon="5.614162" lat="51.181884"><ele>37</ele><time>2022-04-17T08:56:03.000Z</time></trkpt><trkpt lon="5.614268" lat="51.181879"><ele>37</ele><time>2022-04-17T08:56:04.000Z</time></trkpt><trkpt lon="5.614377" lat="51.181872"><ele>37</ele><time>2022-04-17T08:56:05.000Z</time></trkpt><trkpt lon="5.614483" lat="51.181867"><ele>36.8</ele><time>2022-04-17T08:56:06.000Z</time></trkpt><trkpt lon="5.614588" lat="51.181861"><ele>36.8</ele><time>2022-04-17T08:56:07.000Z</time></trkpt><trkpt lon="5.6147" lat="51.181856"><ele>36.6</ele><time>2022-04-17T08:56:08.000Z</time></trkpt><trkpt lon="5.614806" lat="51.181849"><ele>36.8</ele><time>2022-04-17T08:56:09.000Z</time></trkpt><trkpt lon="5.614912" lat="51.181844"><ele>36.8</ele><time>2022-04-17T08:56:10.000Z</time></trkpt><trkpt lon="5.615017" lat="51.181838"><ele>37</ele><time>2022-04-17T08:56:11.000Z</time></trkpt><trkpt lon="5.615122" lat="51.181833"><ele>36.8</ele><time>2022-04-17T08:56:12.000Z</time></trkpt><trkpt lon="5.615227" lat="51.181827"><ele>36.8</ele><time>2022-04-17T08:56:13.000Z</time></trkpt><trkpt lon="5.615335" lat="51.181822"><ele>36.8</ele><time>2022-04-17T08:56:14.000Z</time></trkpt><trkpt lon="5.615442" lat="51.181815"><ele>37</ele><time>2022-04-17T08:56:15.000Z</time></trkpt><trkpt lon="5.615549" lat="51.181811"><ele>37</ele><time>2022-04-17T08:56:16.000Z</time></trkpt><trkpt lon="5.615656" lat="51.181807"><ele>36.8</ele><time>2022-04-17T08:56:17.000Z</time></trkpt><trkpt lon="5.615762" lat="51.181804"><ele>36.8</ele><time>2022-04-17T08:56:18.000Z</time></trkpt><trkpt lon="5.61587" lat="51.1818"><ele>36.8</ele><time>2022-04-17T08:56:19.000Z</time></trkpt><trkpt lon="5.615979" lat="51.181797"><ele>36.8</ele><time>2022-04-17T08:56:20.000Z</time></trkpt><trkpt lon="5.616085" lat="51.181797"><ele>36.8</ele><time>2022-04-17T08:56:21.000Z</time></trkpt><trkpt lon="5.616191" lat="51.181799"><ele>36.8</ele><time>2022-04-17T08:56:22.000Z</time></trkpt><trkpt lon="5.616295" lat="51.181806"><ele>36.8</ele><time>2022-04-17T08:56:23.000Z</time></trkpt><trkpt lon="5.616401" lat="51.181811"><ele>36.8</ele><time>2022-04-17T08:56:24.000Z</time></trkpt><trkpt lon="5.616509" lat="51.181818"><ele>36.8</ele><time>2022-04-17T08:56:25.000Z</time></trkpt><trkpt lon="5.616614" lat="51.181827"><ele>36.6</ele><time>2022-04-17T08:56:26.000Z</time></trkpt><trkpt lon="5.616721" lat="51.181838"><ele>36.6</ele><time>2022-04-17T08:56:27.000Z</time></trkpt><trkpt lon="5.616826" lat="51.181851"><ele>36.6</ele><time>2022-04-17T08:56:28.000Z</time></trkpt><trkpt lon="5.61693" lat="51.181866"><ele>36.4</ele><time>2022-04-17T08:56:29.000Z</time></trkpt><trkpt lon="5.617036" lat="51.181883"><ele>36.4</ele><time>2022-04-17T08:56:30.000Z</time></trkpt><trkpt lon="5.617138" lat="51.181902"><ele>36.2</ele><time>2022-04-17T08:56:31.000Z</time></trkpt><trkpt lon="5.617237" lat="51.181922"><ele>36.2</ele><time>2022-04-17T08:56:32.000Z</time></trkpt><trkpt lon="5.617334" lat="51.181946"><ele>36.4</ele><time>2022-04-17T08:56:33.000Z</time></trkpt><trkpt lon="5.61743" lat="51.181973"><ele>36.4</ele><time>2022-04-17T08:56:34.000Z</time></trkpt><trkpt lon="5.617523" lat="51.181999"><ele>36.2</ele><time>2022-04-17T08:56:35.000Z</time></trkpt><trkpt lon="5.617613" lat="51.182027"><ele>36.2</ele><time>2022-04-17T08:56:36.000Z</time></trkpt><trkpt lon="5.617704" lat="51.182058"><ele>36.2</ele><time>2022-04-17T08:56:37.000Z</time></trkpt><trkpt lon="5.617795" lat="51.182088"><ele>36</ele><time>2022-04-17T08:56:38.000Z</time></trkpt><trkpt lon="5.617886" lat="51.182118"><ele>36</ele><time>2022-04-17T08:56:39.000Z</time></trkpt><trkpt lon="5.617978" lat="51.18215"><ele>36</ele><time>2022-04-17T08:56:40.000Z</time></trkpt><trkpt lon="5.618069" lat="51.182183"><ele>36</ele><time>2022-04-17T08:56:41.000Z</time></trkpt><trkpt lon="5.61816" lat="51.182214"><ele>36</ele><time>2022-04-17T08:56:42.000Z</time></trkpt><trkpt lon="5.618252" lat="51.182244"><ele>36</ele><time>2022-04-17T08:56:43.000Z</time></trkpt><trkpt lon="5.618343" lat="51.182275"><ele>35.8</ele><time>2022-04-17T08:56:44.000Z</time></trkpt><trkpt lon="5.618434" lat="51.182306"><ele>35.8</ele><time>2022-04-17T08:56:45.000Z</time></trkpt><trkpt lon="5.618523" lat="51.182335"><ele>35.8</ele><time>2022-04-17T08:56:46.000Z</time></trkpt><trkpt lon="5.618612" lat="51.182365"><ele>35.8</ele><time>2022-04-17T08:56:47.000Z</time></trkpt><trkpt lon="5.618708" lat="51.182397"><ele>35.8</ele><time>2022-04-17T08:56:48.000Z</time></trkpt><trkpt lon="5.618799" lat="51.182427"><ele>35.8</ele><time>2022-04-17T08:56:49.000Z</time></trkpt><trkpt lon="5.618888" lat="51.182454"><ele>35.8</ele><time>2022-04-17T08:56:50.000Z</time></trkpt><trkpt lon="5.618976" lat="51.182485"><ele>35.8</ele><time>2022-04-17T08:56:51.000Z</time></trkpt><trkpt lon="5.619065" lat="51.182515"><ele>35.8</ele><time>2022-04-17T08:56:52.000Z</time></trkpt><trkpt lon="5.619154" lat="51.182545"><ele>36</ele><time>2022-04-17T08:56:53.000Z</time></trkpt><trkpt lon="5.619246" lat="51.182576"><ele>35.8</ele><time>2022-04-17T08:56:54.000Z</time></trkpt><trkpt lon="5.619339" lat="51.182607"><ele>35.6</ele><time>2022-04-17T08:56:55.000Z</time></trkpt><trkpt lon="5.61943" lat="51.182637"><ele>35.4</ele><time>2022-04-17T08:56:56.000Z</time></trkpt><trkpt lon="5.619524" lat="51.182668"><ele>35.4</ele><time>2022-04-17T08:56:57.000Z</time></trkpt><trkpt lon="5.619615" lat="51.1827"><ele>35.4</ele><time>2022-04-17T08:56:58.000Z</time></trkpt><trkpt lon="5.619707" lat="51.182734"><ele>35.2</ele><time>2022-04-17T08:56:59.000Z</time></trkpt><trkpt lon="5.6198" lat="51.182767"><ele>35.2</ele><time>2022-04-17T08:57:00.000Z</time></trkpt><trkpt lon="5.619894" lat="51.182797"><ele>35.2</ele><time>2022-04-17T08:57:01.000Z</time></trkpt><trkpt lon="5.619989" lat="51.182828"><ele>35</ele><time>2022-04-17T08:57:02.000Z</time></trkpt><trkpt lon="5.620083" lat="51.182858"><ele>35</ele><time>2022-04-17T08:57:03.000Z</time></trkpt><trkpt lon="5.620176" lat="51.18289"><ele>35</ele><time>2022-04-17T08:57:04.000Z</time></trkpt><trkpt lon="5.620268" lat="51.182922"><ele>34.8</ele><time>2022-04-17T08:57:05.000Z</time></trkpt><trkpt lon="5.62036" lat="51.18295"><ele>34.8</ele><time>2022-04-17T08:57:06.000Z</time></trkpt><trkpt lon="5.62045" lat="51.182981"><ele>34.8</ele><time>2022-04-17T08:57:07.000Z</time></trkpt><trkpt lon="5.620549" lat="51.183015"><ele>35.2</ele><time>2022-04-17T08:57:08.000Z</time></trkpt><trkpt lon="5.620645" lat="51.183046"><ele>35.4</ele><time>2022-04-17T08:57:09.000Z</time></trkpt><trkpt lon="5.620743" lat="51.183076"><ele>35.6</ele><time>2022-04-17T08:57:10.000Z</time></trkpt><trkpt lon="5.620838" lat="51.183106"><ele>35.6</ele><time>2022-04-17T08:57:11.000Z</time></trkpt><trkpt lon="5.620933" lat="51.183138"><ele>35.6</ele><time>2022-04-17T08:57:12.000Z</time></trkpt><trkpt lon="5.621025" lat="51.183171"><ele>35.6</ele><time>2022-04-17T08:57:13.000Z</time></trkpt><trkpt lon="5.621119" lat="51.183201"><ele>35.8</ele><time>2022-04-17T08:57:14.000Z</time></trkpt><trkpt lon="5.621216" lat="51.183233"><ele>36</ele><time>2022-04-17T08:57:15.000Z</time></trkpt><trkpt lon="5.621308" lat="51.183267"><ele>36</ele><time>2022-04-17T08:57:16.000Z</time></trkpt><trkpt lon="5.621397" lat="51.183297"><ele>35.8</ele><time>2022-04-17T08:57:17.000Z</time></trkpt><trkpt lon="5.621486" lat="51.183326"><ele>35.8</ele><time>2022-04-17T08:57:18.000Z</time></trkpt><trkpt lon="5.621579" lat="51.183344"><ele>35.8</ele><time>2022-04-17T08:57:19.000Z</time></trkpt><trkpt lon="5.621674" lat="51.183347"><ele>35.8</ele><time>2022-04-17T08:57:20.000Z</time></trkpt><trkpt lon="5.621767" lat="51.183336"><ele>36</ele><time>2022-04-17T08:57:21.000Z</time></trkpt><trkpt lon="5.621855" lat="51.183308"><ele>36</ele><time>2022-04-17T08:57:22.000Z</time></trkpt><trkpt lon="5.621936" lat="51.183268"><ele>36</ele><time>2022-04-17T08:57:23.000Z</time></trkpt><trkpt lon="5.622016" lat="51.183221"><ele>36</ele><time>2022-04-17T08:57:24.000Z</time></trkpt><trkpt lon="5.622097" lat="51.183172"><ele>36</ele><time>2022-04-17T08:57:25.000Z</time></trkpt><trkpt lon="5.622178" lat="51.183128"><ele>36</ele><time>2022-04-17T08:57:26.000Z</time></trkpt><trkpt lon="5.622257" lat="51.183086"><ele>36.2</ele><time>2022-04-17T08:57:27.000Z</time></trkpt><trkpt lon="5.622335" lat="51.183044"><ele>36.2</ele><time>2022-04-17T08:57:28.000Z</time></trkpt><trkpt lon="5.622415" lat="51.183001"><ele>36.4</ele><time>2022-04-17T08:57:29.000Z</time></trkpt><trkpt lon="5.622491" lat="51.182957"><ele>36.4</ele><time>2022-04-17T08:57:30.000Z</time></trkpt><trkpt lon="5.622567" lat="51.182914"><ele>36.4</ele><time>2022-04-17T08:57:31.000Z</time></trkpt><trkpt lon="5.622648" lat="51.182867"><ele>36.6</ele><time>2022-04-17T08:57:32.000Z</time></trkpt><trkpt lon="5.622729" lat="51.182822"><ele>36.6</ele><time>2022-04-17T08:57:33.000Z</time></trkpt><trkpt lon="5.622811" lat="51.182777"><ele>36.6</ele><time>2022-04-17T08:57:34.000Z</time></trkpt><trkpt lon="5.622895" lat="51.182734"><ele>36.6</ele><time>2022-04-17T08:57:35.000Z</time></trkpt><trkpt lon="5.622976" lat="51.182688"><ele>36.4</ele><time>2022-04-17T08:57:36.000Z</time></trkpt><trkpt lon="5.623055" lat="51.182644"><ele>36.4</ele><time>2022-04-17T08:57:37.000Z</time></trkpt><trkpt lon="5.623138" lat="51.182599"><ele>36.2</ele><time>2022-04-17T08:57:38.000Z</time></trkpt><trkpt lon="5.623217" lat="51.18255"><ele>36.2</ele><time>2022-04-17T08:57:39.000Z</time></trkpt><trkpt lon="5.623298" lat="51.182506"><ele>36.4</ele><time>2022-04-17T08:57:40.000Z</time></trkpt><trkpt lon="5.623378" lat="51.182463"><ele>36.4</ele><time>2022-04-17T08:57:41.000Z</time></trkpt><trkpt lon="5.623461" lat="51.182418"><ele>36.4</ele><time>2022-04-17T08:57:42.000Z</time></trkpt><trkpt lon="5.62354" lat="51.182375"><ele>36.4</ele><time>2022-04-17T08:57:43.000Z</time></trkpt><trkpt lon="5.623615" lat="51.182329"><ele>36.4</ele><time>2022-04-17T08:57:44.000Z</time></trkpt><trkpt lon="5.623691" lat="51.182285"><ele>36.4</ele><time>2022-04-17T08:57:45.000Z</time></trkpt><trkpt lon="5.623768" lat="51.182243"><ele>36.4</ele><time>2022-04-17T08:57:46.000Z</time></trkpt><trkpt lon="5.623842" lat="51.1822"><ele>36.6</ele><time>2022-04-17T08:57:47.000Z</time></trkpt><trkpt lon="5.623918" lat="51.182156"><ele>36.6</ele><time>2022-04-17T08:57:48.000Z</time></trkpt><trkpt lon="5.623997" lat="51.182113"><ele>36.6</ele><time>2022-04-17T08:57:49.000Z</time></trkpt><trkpt lon="5.624073" lat="51.18207"><ele>36.6</ele><time>2022-04-17T08:57:50.000Z</time></trkpt><trkpt lon="5.624152" lat="51.182024"><ele>36.6</ele><time>2022-04-17T08:57:51.000Z</time></trkpt><trkpt lon="5.624233" lat="51.18198"><ele>36.8</ele><time>2022-04-17T08:57:52.000Z</time></trkpt><trkpt lon="5.624313" lat="51.181938"><ele>36.8</ele><time>2022-04-17T08:57:53.000Z</time></trkpt><trkpt lon="5.624394" lat="51.181895"><ele>36.8</ele><time>2022-04-17T08:57:54.000Z</time></trkpt><trkpt lon="5.624477" lat="51.181849"><ele>36.8</ele><time>2022-04-17T08:57:55.000Z</time></trkpt><trkpt lon="5.624559" lat="51.181803"><ele>36.6</ele><time>2022-04-17T08:57:56.000Z</time></trkpt><trkpt lon="5.62464" lat="51.181757"><ele>36.6</ele><time>2022-04-17T08:57:57.000Z</time></trkpt><trkpt lon="5.624719" lat="51.181713"><ele>36.4</ele><time>2022-04-17T08:57:58.000Z</time></trkpt><trkpt lon="5.624798" lat="51.181671"><ele>36.2</ele><time>2022-04-17T08:57:59.000Z</time></trkpt><trkpt lon="5.624876" lat="51.181629"><ele>36.2</ele><time>2022-04-17T08:58:00.000Z</time></trkpt><trkpt lon="5.624951" lat="51.181587"><ele>36.2</ele><time>2022-04-17T08:58:01.000Z</time></trkpt><trkpt lon="5.625029" lat="51.181545"><ele>36.2</ele><time>2022-04-17T08:58:02.000Z</time></trkpt><trkpt lon="5.625107" lat="51.181502"><ele>36.2</ele><time>2022-04-17T08:58:03.000Z</time></trkpt><trkpt lon="5.625188" lat="51.181457"><ele>36.2</ele><time>2022-04-17T08:58:04.000Z</time></trkpt><trkpt lon="5.625273" lat="51.181418"><ele>36</ele><time>2022-04-17T08:58:05.000Z</time></trkpt><trkpt lon="5.625364" lat="51.181392"><ele>35.8</ele><time>2022-04-17T08:58:06.000Z</time></trkpt><trkpt lon="5.625458" lat="51.181377"><ele>35.4</ele><time>2022-04-17T08:58:07.000Z</time></trkpt><trkpt lon="5.625571" lat="51.181377"><ele>35.2</ele><time>2022-04-17T08:58:08.000Z</time></trkpt><trkpt lon="5.625674" lat="51.181389"><ele>35</ele><time>2022-04-17T08:58:09.000Z</time></trkpt><trkpt lon="5.62578" lat="51.181406"><ele>35</ele><time>2022-04-17T08:58:10.000Z</time></trkpt><trkpt lon="5.625889" lat="51.181425"><ele>35.2</ele><time>2022-04-17T08:58:11.000Z</time></trkpt><trkpt lon="5.625996" lat="51.181443"><ele>35.2</ele><time>2022-04-17T08:58:12.000Z</time></trkpt><trkpt lon="5.6261" lat="51.181459"><ele>35.2</ele><time>2022-04-17T08:58:13.000Z</time></trkpt><trkpt lon="5.626205" lat="51.181478"><ele>35.4</ele><time>2022-04-17T08:58:14.000Z</time></trkpt><trkpt lon="5.626308" lat="51.181496"><ele>35.6</ele><time>2022-04-17T08:58:15.000Z</time></trkpt><trkpt lon="5.626412" lat="51.181512"><ele>35.6</ele><time>2022-04-17T08:58:16.000Z</time></trkpt><trkpt lon="5.626516" lat="51.181531"><ele>35.6</ele><time>2022-04-17T08:58:17.000Z</time></trkpt><trkpt lon="5.626619" lat="51.181546"><ele>35.8</ele><time>2022-04-17T08:58:18.000Z</time></trkpt><trkpt lon="5.626724" lat="51.181561"><ele>36</ele><time>2022-04-17T08:58:19.000Z</time></trkpt><trkpt lon="5.62683" lat="51.181577"><ele>36</ele><time>2022-04-17T08:58:20.000Z</time></trkpt><trkpt lon="5.626935" lat="51.181596"><ele>36</ele><time>2022-04-17T08:58:21.000Z</time></trkpt><trkpt lon="5.627042" lat="51.181614"><ele>36.2</ele><time>2022-04-17T08:58:22.000Z</time></trkpt><trkpt lon="5.627149" lat="51.18163"><ele>36.2</ele><time>2022-04-17T08:58:23.000Z</time></trkpt><trkpt lon="5.627255" lat="51.181646"><ele>36.2</ele><time>2022-04-17T08:58:24.000Z</time></trkpt><trkpt lon="5.627357" lat="51.181664"><ele>36.2</ele><time>2022-04-17T08:58:25.000Z</time></trkpt><trkpt lon="5.627459" lat="51.181679"><ele>36.2</ele><time>2022-04-17T08:58:26.000Z</time></trkpt><trkpt lon="5.62756" lat="51.181694"><ele>36.2</ele><time>2022-04-17T08:58:27.000Z</time></trkpt><trkpt lon="5.62766" lat="51.181711"><ele>36.2</ele><time>2022-04-17T08:58:28.000Z</time></trkpt><trkpt lon="5.627762" lat="51.181729"><ele>36</ele><time>2022-04-17T08:58:29.000Z</time></trkpt><trkpt lon="5.627865" lat="51.181745"><ele>36</ele><time>2022-04-17T08:58:30.000Z</time></trkpt><trkpt lon="5.627968" lat="51.181764"><ele>35.8</ele><time>2022-04-17T08:58:31.000Z</time></trkpt><trkpt lon="5.62807" lat="51.181782"><ele>35.8</ele><time>2022-04-17T08:58:32.000Z</time></trkpt><trkpt lon="5.628172" lat="51.181799"><ele>36</ele><time>2022-04-17T08:58:33.000Z</time></trkpt><trkpt lon="5.628275" lat="51.181817"><ele>35.8</ele><time>2022-04-17T08:58:34.000Z</time></trkpt><trkpt lon="5.628376" lat="51.181832"><ele>36</ele><time>2022-04-17T08:58:35.000Z</time></trkpt><trkpt lon="5.628477" lat="51.18185"><ele>36</ele><time>2022-04-17T08:58:36.000Z</time></trkpt><trkpt lon="5.628571" lat="51.181864"><ele>36</ele><time>2022-04-17T08:58:37.000Z</time></trkpt><trkpt lon="5.628687" lat="51.181883"><ele>36.2</ele><time>2022-04-17T08:58:38.000Z</time></trkpt><trkpt lon="5.628789" lat="51.181901"><ele>36.2</ele><time>2022-04-17T08:58:39.000Z</time></trkpt><trkpt lon="5.62889" lat="51.181916"><ele>36.2</ele><time>2022-04-17T08:58:40.000Z</time></trkpt><trkpt lon="5.628993" lat="51.181931"><ele>36.2</ele><time>2022-04-17T08:58:41.000Z</time></trkpt><trkpt lon="5.629095" lat="51.181946"><ele>36.2</ele><time>2022-04-17T08:58:42.000Z</time></trkpt><trkpt lon="5.629198" lat="51.18196"><ele>36.2</ele><time>2022-04-17T08:58:43.000Z</time></trkpt><trkpt lon="5.629301" lat="51.181972"><ele>36.2</ele><time>2022-04-17T08:58:44.000Z</time></trkpt><trkpt lon="5.629408" lat="51.181982"><ele>36</ele><time>2022-04-17T08:58:45.000Z</time></trkpt><trkpt lon="5.629515" lat="51.18199"><ele>36</ele><time>2022-04-17T08:58:46.000Z</time></trkpt><trkpt lon="5.629624" lat="51.181998"><ele>36</ele><time>2022-04-17T08:58:47.000Z</time></trkpt><trkpt lon="5.629731" lat="51.182004"><ele>35.8</ele><time>2022-04-17T08:58:48.000Z</time></trkpt><trkpt lon="5.629839" lat="51.182009"><ele>35.8</ele><time>2022-04-17T08:58:49.000Z</time></trkpt><trkpt lon="5.629945" lat="51.182016"><ele>35.8</ele><time>2022-04-17T08:58:50.000Z</time></trkpt><trkpt lon="5.630048" lat="51.182018"><ele>35.6</ele><time>2022-04-17T08:58:51.000Z</time></trkpt><trkpt lon="5.630153" lat="51.182019"><ele>35.6</ele><time>2022-04-17T08:58:52.000Z</time></trkpt><trkpt lon="5.630257" lat="51.182024"><ele>35.4</ele><time>2022-04-17T08:58:53.000Z</time></trkpt><trkpt lon="5.630362" lat="51.182031"><ele>35.6</ele><time>2022-04-17T08:58:54.000Z</time></trkpt><trkpt lon="5.630466" lat="51.182035"><ele>35.6</ele><time>2022-04-17T08:58:55.000Z</time></trkpt><trkpt lon="5.630568" lat="51.182038"><ele>35.6</ele><time>2022-04-17T08:58:56.000Z</time></trkpt><trkpt lon="5.630673" lat="51.182042"><ele>35.6</ele><time>2022-04-17T08:58:57.000Z</time></trkpt><trkpt lon="5.630774" lat="51.182046"><ele>35.4</ele><time>2022-04-17T08:58:58.000Z</time></trkpt><trkpt lon="5.630876" lat="51.18205"><ele>35.4</ele><time>2022-04-17T08:58:59.000Z</time></trkpt><trkpt lon="5.630984" lat="51.182054"><ele>35.4</ele><time>2022-04-17T08:59:00.000Z</time></trkpt><trkpt lon="5.63109" lat="51.182058"><ele>35.6</ele><time>2022-04-17T08:59:01.000Z</time></trkpt><trkpt lon="5.6312" lat="51.182061"><ele>35.6</ele><time>2022-04-17T08:59:02.000Z</time></trkpt><trkpt lon="5.631308" lat="51.182065"><ele>35.4</ele><time>2022-04-17T08:59:03.000Z</time></trkpt><trkpt lon="5.631415" lat="51.182069"><ele>35.4</ele><time>2022-04-17T08:59:04.000Z</time></trkpt><trkpt lon="5.631524" lat="51.182074"><ele>35.4</ele><time>2022-04-17T08:59:05.000Z</time></trkpt><trkpt lon="5.63163" lat="51.18208"><ele>35.2</ele><time>2022-04-17T08:59:06.000Z</time></trkpt><trkpt lon="5.631738" lat="51.182084"><ele>35.2</ele><time>2022-04-17T08:59:07.000Z</time></trkpt><trkpt lon="5.631845" lat="51.182089"><ele>35.2</ele><time>2022-04-17T08:59:08.000Z</time></trkpt><trkpt lon="5.631952" lat="51.182096"><ele>34.8</ele><time>2022-04-17T08:59:09.000Z</time></trkpt><trkpt lon="5.632057" lat="51.182099"><ele>34.8</ele><time>2022-04-17T08:59:10.000Z</time></trkpt><trkpt lon="5.632162" lat="51.182105"><ele>34.8</ele><time>2022-04-17T08:59:11.000Z</time></trkpt><trkpt lon="5.632269" lat="51.182117"><ele>34.8</ele><time>2022-04-17T08:59:12.000Z</time></trkpt><trkpt lon="5.632373" lat="51.18213"><ele>34.8</ele><time>2022-04-17T08:59:13.000Z</time></trkpt><trkpt lon="5.632473" lat="51.182145"><ele>34.8</ele><time>2022-04-17T08:59:14.000Z</time></trkpt><trkpt lon="5.632574" lat="51.182161"><ele>34.8</ele><time>2022-04-17T08:59:15.000Z</time></trkpt><trkpt lon="5.632676" lat="51.18218"><ele>34.6</ele><time>2022-04-17T08:59:16.000Z</time></trkpt><trkpt lon="5.632779" lat="51.1822"><ele>34.8</ele><time>2022-04-17T08:59:17.000Z</time></trkpt><trkpt lon="5.632878" lat="51.182221"><ele>34.8</ele><time>2022-04-17T08:59:18.000Z</time></trkpt><trkpt lon="5.632973" lat="51.182238"><ele>34.8</ele><time>2022-04-17T08:59:19.000Z</time></trkpt><trkpt lon="5.63307" lat="51.18226"><ele>34.6</ele><time>2022-04-17T08:59:20.000Z</time></trkpt><trkpt lon="5.633165" lat="51.182279"><ele>34.6</ele><time>2022-04-17T08:59:21.000Z</time></trkpt><trkpt lon="5.633265" lat="51.182297"><ele>34.6</ele><time>2022-04-17T08:59:22.000Z</time></trkpt><trkpt lon="5.633365" lat="51.182315"><ele>34.6</ele><time>2022-04-17T08:59:23.000Z</time></trkpt><trkpt lon="5.633468" lat="51.182337"><ele>34.6</ele><time>2022-04-17T08:59:24.000Z</time></trkpt><trkpt lon="5.633571" lat="51.182357"><ele>34.6</ele><time>2022-04-17T08:59:25.000Z</time></trkpt><trkpt lon="5.633673" lat="51.182379"><ele>34.6</ele><time>2022-04-17T08:59:26.000Z</time></trkpt><trkpt lon="5.633774" lat="51.182396"><ele>34.6</ele><time>2022-04-17T08:59:27.000Z</time></trkpt><trkpt lon="5.633875" lat="51.182413"><ele>34.8</ele><time>2022-04-17T08:59:28.000Z</time></trkpt><trkpt lon="5.633977" lat="51.182432"><ele>34.6</ele><time>2022-04-17T08:59:29.000Z</time></trkpt><trkpt lon="5.634078" lat="51.182452"><ele>34.6</ele><time>2022-04-17T08:59:30.000Z</time></trkpt><trkpt lon="5.634179" lat="51.182474"><ele>34.6</ele><time>2022-04-17T08:59:31.000Z</time></trkpt><trkpt lon="5.63428" lat="51.182492"><ele>34.4</ele><time>2022-04-17T08:59:32.000Z</time></trkpt><trkpt lon="5.634382" lat="51.182511"><ele>34.2</ele><time>2022-04-17T08:59:33.000Z</time></trkpt><trkpt lon="5.634487" lat="51.182528"><ele>34</ele><time>2022-04-17T08:59:34.000Z</time></trkpt><trkpt lon="5.634589" lat="51.182549"><ele>34</ele><time>2022-04-17T08:59:35.000Z</time></trkpt><trkpt lon="5.634687" lat="51.182565"><ele>34</ele><time>2022-04-17T08:59:36.000Z</time></trkpt><trkpt lon="5.634776" lat="51.182585"><ele>33.8</ele><time>2022-04-17T08:59:37.000Z</time></trkpt><trkpt lon="5.634894" lat="51.182608"><ele>33.8</ele><time>2022-04-17T08:59:38.000Z</time></trkpt><trkpt lon="5.634994" lat="51.182626"><ele>33.8</ele><time>2022-04-17T08:59:39.000Z</time></trkpt><trkpt lon="5.635095" lat="51.182647"><ele>33.8</ele><time>2022-04-17T08:59:40.000Z</time></trkpt><trkpt lon="5.635198" lat="51.182668"><ele>33.8</ele><time>2022-04-17T08:59:41.000Z</time></trkpt><trkpt lon="5.635303" lat="51.182687"><ele>34</ele><time>2022-04-17T08:59:42.000Z</time></trkpt><trkpt lon="5.635407" lat="51.182706"><ele>34</ele><time>2022-04-17T08:59:43.000Z</time></trkpt><trkpt lon="5.635513" lat="51.182725"><ele>34.2</ele><time>2022-04-17T08:59:44.000Z</time></trkpt><trkpt lon="5.63562" lat="51.182745"><ele>34.2</ele><time>2022-04-17T08:59:45.000Z</time></trkpt><trkpt lon="5.635724" lat="51.182764"><ele>34.2</ele><time>2022-04-17T08:59:46.000Z</time></trkpt><trkpt lon="5.635828" lat="51.182783"><ele>34.2</ele><time>2022-04-17T08:59:47.000Z</time></trkpt><trkpt lon="5.635932" lat="51.182802"><ele>34.4</ele><time>2022-04-17T08:59:48.000Z</time></trkpt><trkpt lon="5.636035" lat="51.182822"><ele>34.4</ele><time>2022-04-17T08:59:49.000Z</time></trkpt><trkpt lon="5.636133" lat="51.182843"><ele>34.4</ele><time>2022-04-17T08:59:50.000Z</time></trkpt><trkpt lon="5.63623" lat="51.182859"><ele>34.4</ele><time>2022-04-17T08:59:51.000Z</time></trkpt><trkpt lon="5.636329" lat="51.182878"><ele>34.6</ele><time>2022-04-17T08:59:52.000Z</time></trkpt><trkpt lon="5.63643" lat="51.182897"><ele>34.6</ele><time>2022-04-17T08:59:53.000Z</time></trkpt><trkpt lon="5.636531" lat="51.182916"><ele>34.6</ele><time>2022-04-17T08:59:54.000Z</time></trkpt><trkpt lon="5.636633" lat="51.182936"><ele>34.6</ele><time>2022-04-17T08:59:55.000Z</time></trkpt><trkpt lon="5.636734" lat="51.182958"><ele>34.4</ele><time>2022-04-17T08:59:56.000Z</time></trkpt><trkpt lon="5.636836" lat="51.182978"><ele>34.4</ele><time>2022-04-17T08:59:57.000Z</time></trkpt><trkpt lon="5.636938" lat="51.183002"><ele>34.2</ele><time>2022-04-17T08:59:58.000Z</time></trkpt><trkpt lon="5.637036" lat="51.183029"><ele>34.4</ele><time>2022-04-17T08:59:59.000Z</time></trkpt><trkpt lon="5.637131" lat="51.183056"><ele>34.4</ele><time>2022-04-17T09:00:00.000Z</time></trkpt><trkpt lon="5.637225" lat="51.183088"><ele>34.4</ele><time>2022-04-17T09:00:01.000Z</time></trkpt><trkpt lon="5.637317" lat="51.183125"><ele>34.2</ele><time>2022-04-17T09:00:02.000Z</time></trkpt><trkpt lon="5.637407" lat="51.183166"><ele>34.2</ele><time>2022-04-17T09:00:03.000Z</time></trkpt><trkpt lon="5.637495" lat="51.183205"><ele>34</ele><time>2022-04-17T09:00:04.000Z</time></trkpt><trkpt lon="5.637581" lat="51.183247"><ele>33.8</ele><time>2022-04-17T09:00:05.000Z</time></trkpt><trkpt lon="5.637664" lat="51.183289"><ele>33.8</ele><time>2022-04-17T09:00:06.000Z</time></trkpt><trkpt lon="5.637745" lat="51.183332"><ele>33.8</ele><time>2022-04-17T09:00:07.000Z</time></trkpt><trkpt lon="5.637833" lat="51.183377"><ele>33.8</ele><time>2022-04-17T09:00:08.000Z</time></trkpt><trkpt lon="5.637915" lat="51.183419"><ele>33.8</ele><time>2022-04-17T09:00:09.000Z</time></trkpt><trkpt lon="5.637998" lat="51.183461"><ele>33.8</ele><time>2022-04-17T09:00:10.000Z</time></trkpt><trkpt lon="5.638082" lat="51.183503"><ele>33.8</ele><time>2022-04-17T09:00:11.000Z</time></trkpt><trkpt lon="5.638166" lat="51.183545"><ele>34</ele><time>2022-04-17T09:00:12.000Z</time></trkpt><trkpt lon="5.638249" lat="51.183587"><ele>34</ele><time>2022-04-17T09:00:13.000Z</time></trkpt><trkpt lon="5.63833" lat="51.183628"><ele>34.2</ele><time>2022-04-17T09:00:14.000Z</time></trkpt><trkpt lon="5.638408" lat="51.183671"><ele>34.2</ele><time>2022-04-17T09:00:15.000Z</time></trkpt><trkpt lon="5.638481" lat="51.183719"><ele>34.4</ele><time>2022-04-17T09:00:16.000Z</time></trkpt><trkpt lon="5.638544" lat="51.183774"><ele>34.6</ele><time>2022-04-17T09:00:17.000Z</time></trkpt><trkpt lon="5.638599" lat="51.183836"><ele>34.6</ele><time>2022-04-17T09:00:18.000Z</time></trkpt><trkpt lon="5.638646" lat="51.183899"><ele>34.6</ele><time>2022-04-17T09:00:19.000Z</time></trkpt><trkpt lon="5.638691" lat="51.183962"><ele>34.6</ele><time>2022-04-17T09:00:20.000Z</time></trkpt><trkpt lon="5.638735" lat="51.184022"><ele>34.6</ele><time>2022-04-17T09:00:21.000Z</time></trkpt><trkpt lon="5.638784" lat="51.184079"><ele>34.6</ele><time>2022-04-17T09:00:22.000Z</time></trkpt><trkpt lon="5.638841" lat="51.184135"><ele>34.6</ele><time>2022-04-17T09:00:23.000Z</time></trkpt><trkpt lon="5.638911" lat="51.184182"><ele>34.6</ele><time>2022-04-17T09:00:24.000Z</time></trkpt><trkpt lon="5.638992" lat="51.184222"><ele>34.6</ele><time>2022-04-17T09:00:25.000Z</time></trkpt><trkpt lon="5.639077" lat="51.184262"><ele>34.8</ele><time>2022-04-17T09:00:26.000Z</time></trkpt><trkpt lon="5.63916" lat="51.184302"><ele>34.8</ele><time>2022-04-17T09:00:27.000Z</time></trkpt><trkpt lon="5.639246" lat="51.184339"><ele>35</ele><time>2022-04-17T09:00:28.000Z</time></trkpt><trkpt lon="5.639331" lat="51.184373"><ele>35</ele><time>2022-04-17T09:00:29.000Z</time></trkpt><trkpt lon="5.639418" lat="51.184409"><ele>35.2</ele><time>2022-04-17T09:00:30.000Z</time></trkpt><trkpt lon="5.639502" lat="51.184448"><ele>35.2</ele><time>2022-04-17T09:00:31.000Z</time></trkpt><trkpt lon="5.639586" lat="51.184486"><ele>35.2</ele><time>2022-04-17T09:00:32.000Z</time></trkpt><trkpt lon="5.639672" lat="51.184524"><ele>35.2</ele><time>2022-04-17T09:00:33.000Z</time></trkpt><trkpt lon="5.63976" lat="51.184562"><ele>35.2</ele><time>2022-04-17T09:00:34.000Z</time></trkpt><trkpt lon="5.639849" lat="51.184599"><ele>35.4</ele><time>2022-04-17T09:00:35.000Z</time></trkpt><trkpt lon="5.639939" lat="51.184634"><ele>35.4</ele><time>2022-04-17T09:00:36.000Z</time></trkpt><trkpt lon="5.640032" lat="51.184673"><ele>35.2</ele><time>2022-04-17T09:00:37.000Z</time></trkpt><trkpt lon="5.640128" lat="51.18471"><ele>35.2</ele><time>2022-04-17T09:00:38.000Z</time></trkpt><trkpt lon="5.640226" lat="51.184743"><ele>34.8</ele><time>2022-04-17T09:00:39.000Z</time></trkpt><trkpt lon="5.640327" lat="51.184772"><ele>34.6</ele><time>2022-04-17T09:00:40.000Z</time></trkpt><trkpt lon="5.640431" lat="51.184798"><ele>34.2</ele><time>2022-04-17T09:00:41.000Z</time></trkpt><trkpt lon="5.640533" lat="51.18482"><ele>34</ele><time>2022-04-17T09:00:42.000Z</time></trkpt><trkpt lon="5.640634" lat="51.184839"><ele>33.8</ele><time>2022-04-17T09:00:43.000Z</time></trkpt><trkpt lon="5.640736" lat="51.184858"><ele>33.6</ele><time>2022-04-17T09:00:44.000Z</time></trkpt><trkpt lon="5.640841" lat="51.184876"><ele>33.6</ele><time>2022-04-17T09:00:45.000Z</time></trkpt><trkpt lon="5.640946" lat="51.184892"><ele>33.6</ele><time>2022-04-17T09:00:46.000Z</time></trkpt><trkpt lon="5.641053" lat="51.184911"><ele>33.6</ele><time>2022-04-17T09:00:47.000Z</time></trkpt><trkpt lon="5.641159" lat="51.18493"><ele>33.6</ele><time>2022-04-17T09:00:48.000Z</time></trkpt><trkpt lon="5.641266" lat="51.18495"><ele>33.6</ele><time>2022-04-17T09:00:49.000Z</time></trkpt><trkpt lon="5.641372" lat="51.184969"><ele>33.6</ele><time>2022-04-17T09:00:50.000Z</time></trkpt><trkpt lon="5.641476" lat="51.184988"><ele>33.6</ele><time>2022-04-17T09:00:51.000Z</time></trkpt><trkpt lon="5.641581" lat="51.185005"><ele>33.6</ele><time>2022-04-17T09:00:52.000Z</time></trkpt><trkpt lon="5.641689" lat="51.185022"><ele>33.4</ele><time>2022-04-17T09:00:53.000Z</time></trkpt><trkpt lon="5.641796" lat="51.185041"><ele>33.4</ele><time>2022-04-17T09:00:54.000Z</time></trkpt><trkpt lon="5.641902" lat="51.185059"><ele>33.4</ele><time>2022-04-17T09:00:55.000Z</time></trkpt><trkpt lon="5.642004" lat="51.185075"><ele>33.4</ele><time>2022-04-17T09:00:56.000Z</time></trkpt><trkpt lon="5.642105" lat="51.185095"><ele>33.4</ele><time>2022-04-17T09:00:57.000Z</time></trkpt><trkpt lon="5.642201" lat="51.185112"><ele>33.4</ele><time>2022-04-17T09:00:58.000Z</time></trkpt><trkpt lon="5.642297" lat="51.185128"><ele>33.4</ele><time>2022-04-17T09:00:59.000Z</time></trkpt><trkpt lon="5.642392" lat="51.185143"><ele>33.4</ele><time>2022-04-17T09:01:00.000Z</time></trkpt><trkpt lon="5.642489" lat="51.185155"><ele>33.6</ele><time>2022-04-17T09:01:01.000Z</time></trkpt><trkpt lon="5.642589" lat="51.185156"><ele>33.8</ele><time>2022-04-17T09:01:02.000Z</time></trkpt><trkpt lon="5.642688" lat="51.185145"><ele>34</ele><time>2022-04-17T09:01:03.000Z</time></trkpt><trkpt lon="5.642784" lat="51.185121"><ele>34.2</ele><time>2022-04-17T09:01:04.000Z</time></trkpt><trkpt lon="5.64287" lat="51.185087"><ele>34.4</ele><time>2022-04-17T09:01:05.000Z</time></trkpt><trkpt lon="5.642953" lat="51.185047"><ele>34.4</ele><time>2022-04-17T09:01:06.000Z</time></trkpt><trkpt lon="5.643033" lat="51.185005"><ele>34.6</ele><time>2022-04-17T09:01:07.000Z</time></trkpt><trkpt lon="5.643117" lat="51.184962"><ele>34.6</ele><time>2022-04-17T09:01:08.000Z</time></trkpt><trkpt lon="5.643208" lat="51.184924"><ele>34.6</ele><time>2022-04-17T09:01:09.000Z</time></trkpt><trkpt lon="5.643305" lat="51.184896"><ele>34.8</ele><time>2022-04-17T09:01:10.000Z</time></trkpt><trkpt lon="5.643408" lat="51.184877"><ele>34.8</ele><time>2022-04-17T09:01:11.000Z</time></trkpt><trkpt lon="5.643517" lat="51.184872"><ele>34.8</ele><time>2022-04-17T09:01:12.000Z</time></trkpt><trkpt lon="5.643622" lat="51.184875"><ele>34.6</ele><time>2022-04-17T09:01:13.000Z</time></trkpt><trkpt lon="5.643726" lat="51.184886"><ele>34.6</ele><time>2022-04-17T09:01:14.000Z</time></trkpt><trkpt lon="5.64383" lat="51.184896"><ele>34.6</ele><time>2022-04-17T09:01:15.000Z</time></trkpt><trkpt lon="5.643936" lat="51.184898"><ele>34.6</ele><time>2022-04-17T09:01:16.000Z</time></trkpt><trkpt lon="5.644044" lat="51.184897"><ele>34.6</ele><time>2022-04-17T09:01:17.000Z</time></trkpt><trkpt lon="5.644151" lat="51.184891"><ele>34.6</ele><time>2022-04-17T09:01:18.000Z</time></trkpt><trkpt lon="5.644256" lat="51.18488"><ele>34.6</ele><time>2022-04-17T09:01:19.000Z</time></trkpt><trkpt lon="5.64436" lat="51.184868"><ele>34.6</ele><time>2022-04-17T09:01:20.000Z</time></trkpt><trkpt lon="5.644463" lat="51.184856"><ele>34.6</ele><time>2022-04-17T09:01:21.000Z</time></trkpt><trkpt lon="5.644565" lat="51.184843"><ele>34.6</ele><time>2022-04-17T09:01:22.000Z</time></trkpt><trkpt lon="5.644667" lat="51.184834"><ele>34.6</ele><time>2022-04-17T09:01:23.000Z</time></trkpt><trkpt lon="5.644769" lat="51.184824"><ele>34.6</ele><time>2022-04-17T09:01:24.000Z</time></trkpt><trkpt lon="5.644877" lat="51.184818"><ele>34.6</ele><time>2022-04-17T09:01:25.000Z</time></trkpt><trkpt lon="5.644986" lat="51.18482"><ele>34.4</ele><time>2022-04-17T09:01:26.000Z</time></trkpt><trkpt lon="5.645094" lat="51.18483"><ele>34.4</ele><time>2022-04-17T09:01:27.000Z</time></trkpt><trkpt lon="5.645194" lat="51.184849"><ele>34.2</ele><time>2022-04-17T09:01:28.000Z</time></trkpt><trkpt lon="5.645287" lat="51.184878"><ele>34.2</ele><time>2022-04-17T09:01:29.000Z</time></trkpt><trkpt lon="5.645372" lat="51.184914"><ele>34.2</ele><time>2022-04-17T09:01:30.000Z</time></trkpt><trkpt lon="5.645451" lat="51.184957"><ele>34</ele><time>2022-04-17T09:01:31.000Z</time></trkpt><trkpt lon="5.645531" lat="51.185003"><ele>33.8</ele><time>2022-04-17T09:01:32.000Z</time></trkpt><trkpt lon="5.645607" lat="51.18505"><ele>33.8</ele><time>2022-04-17T09:01:33.000Z</time></trkpt><trkpt lon="5.64568" lat="51.185099"><ele>33.8</ele><time>2022-04-17T09:01:34.000Z</time></trkpt><trkpt lon="5.645756" lat="51.18515"><ele>34</ele><time>2022-04-17T09:01:35.000Z</time></trkpt><trkpt lon="5.645834" lat="51.185198"><ele>34.2</ele><time>2022-04-17T09:01:36.000Z</time></trkpt><trkpt lon="5.645911" lat="51.185234"><ele>34.4</ele><time>2022-04-17T09:01:37.000Z</time></trkpt><trkpt lon="5.646033" lat="51.18527"><ele>34.4</ele><time>2022-04-17T09:01:38.000Z</time></trkpt><trkpt lon="5.646143" lat="51.185287"><ele>34.4</ele><time>2022-04-17T09:01:39.000Z</time></trkpt><trkpt lon="5.646256" lat="51.185298"><ele>34.4</ele><time>2022-04-17T09:01:40.000Z</time></trkpt><trkpt lon="5.646367" lat="51.185309"><ele>34.4</ele><time>2022-04-17T09:01:41.000Z</time></trkpt><trkpt lon="5.646477" lat="51.185317"><ele>34.2</ele><time>2022-04-17T09:01:42.000Z</time></trkpt><trkpt lon="5.646587" lat="51.185328"><ele>34.4</ele><time>2022-04-17T09:01:43.000Z</time></trkpt><trkpt lon="5.646699" lat="51.185337"><ele>34.4</ele><time>2022-04-17T09:01:44.000Z</time></trkpt><trkpt lon="5.64681" lat="51.185346"><ele>34.4</ele><time>2022-04-17T09:01:45.000Z</time></trkpt><trkpt lon="5.646919" lat="51.185351"><ele>34.4</ele><time>2022-04-17T09:01:46.000Z</time></trkpt><trkpt lon="5.647029" lat="51.185358"><ele>34.4</ele><time>2022-04-17T09:01:47.000Z</time></trkpt><trkpt lon="5.647137" lat="51.185365"><ele>34.6</ele><time>2022-04-17T09:01:48.000Z</time></trkpt><trkpt lon="5.647242" lat="51.18537"><ele>34.6</ele><time>2022-04-17T09:01:49.000Z</time></trkpt><trkpt lon="5.647346" lat="51.185376"><ele>34.8</ele><time>2022-04-17T09:01:50.000Z</time></trkpt><trkpt lon="5.647449" lat="51.185381"><ele>34.8</ele><time>2022-04-17T09:01:51.000Z</time></trkpt><trkpt lon="5.647552" lat="51.185388"><ele>35</ele><time>2022-04-17T09:01:52.000Z</time></trkpt><trkpt lon="5.647656" lat="51.185392"><ele>34.8</ele><time>2022-04-17T09:01:53.000Z</time></trkpt><trkpt lon="5.647765" lat="51.1854"><ele>34.8</ele><time>2022-04-17T09:01:54.000Z</time></trkpt><trkpt lon="5.647874" lat="51.185408"><ele>34.8</ele><time>2022-04-17T09:01:55.000Z</time></trkpt><trkpt lon="5.647984" lat="51.185415"><ele>34.6</ele><time>2022-04-17T09:01:56.000Z</time></trkpt><trkpt lon="5.648094" lat="51.185423"><ele>34.8</ele><time>2022-04-17T09:01:57.000Z</time></trkpt><trkpt lon="5.648202" lat="51.185431"><ele>34.8</ele><time>2022-04-17T09:01:58.000Z</time></trkpt><trkpt lon="5.64831" lat="51.185438"><ele>34.8</ele><time>2022-04-17T09:01:59.000Z</time></trkpt><trkpt lon="5.648414" lat="51.185446"><ele>34.8</ele><time>2022-04-17T09:02:00.000Z</time></trkpt><trkpt lon="5.648519" lat="51.185453"><ele>35</ele><time>2022-04-17T09:02:01.000Z</time></trkpt><trkpt lon="5.648621" lat="51.185457"><ele>35</ele><time>2022-04-17T09:02:02.000Z</time></trkpt><trkpt lon="5.64872" lat="51.185464"><ele>35</ele><time>2022-04-17T09:02:03.000Z</time></trkpt><trkpt lon="5.64882" lat="51.185469"><ele>35</ele><time>2022-04-17T09:02:04.000Z</time></trkpt><trkpt lon="5.648928" lat="51.185477"><ele>35.2</ele><time>2022-04-17T09:02:05.000Z</time></trkpt><trkpt lon="5.649033" lat="51.185484"><ele>35.2</ele><time>2022-04-17T09:02:06.000Z</time></trkpt><trkpt lon="5.649139" lat="51.185492"><ele>35.2</ele><time>2022-04-17T09:02:07.000Z</time></trkpt><trkpt lon="5.649246" lat="51.1855"><ele>35.2</ele><time>2022-04-17T09:02:08.000Z</time></trkpt><trkpt lon="5.649349" lat="51.185507"><ele>35.2</ele><time>2022-04-17T09:02:09.000Z</time></trkpt><trkpt lon="5.649453" lat="51.185515"><ele>35</ele><time>2022-04-17T09:02:10.000Z</time></trkpt><trkpt lon="5.64956" lat="51.185522"><ele>35.2</ele><time>2022-04-17T09:02:11.000Z</time></trkpt><trkpt lon="5.649669" lat="51.185529"><ele>35.2</ele><time>2022-04-17T09:02:12.000Z</time></trkpt><trkpt lon="5.649777" lat="51.185534"><ele>35.2</ele><time>2022-04-17T09:02:13.000Z</time></trkpt><trkpt lon="5.649886" lat="51.185541"><ele>35.2</ele><time>2022-04-17T09:02:14.000Z</time></trkpt><trkpt lon="5.649994" lat="51.185549"><ele>35.2</ele><time>2022-04-17T09:02:15.000Z</time></trkpt><trkpt lon="5.650097" lat="51.185557"><ele>35.2</ele><time>2022-04-17T09:02:16.000Z</time></trkpt><trkpt lon="5.650199" lat="51.185564"><ele>35.2</ele><time>2022-04-17T09:02:17.000Z</time></trkpt><trkpt lon="5.650302" lat="51.185571"><ele>35.2</ele><time>2022-04-17T09:02:18.000Z</time></trkpt><trkpt lon="5.650405" lat="51.185575"><ele>35.2</ele><time>2022-04-17T09:02:19.000Z</time></trkpt><trkpt lon="5.650506" lat="51.185578"><ele>35.4</ele><time>2022-04-17T09:02:20.000Z</time></trkpt><trkpt lon="5.650614" lat="51.185582"><ele>35.4</ele><time>2022-04-17T09:02:21.000Z</time></trkpt><trkpt lon="5.650722" lat="51.185587"><ele>35.4</ele><time>2022-04-17T09:02:22.000Z</time></trkpt><trkpt lon="5.650826" lat="51.185595"><ele>35.4</ele><time>2022-04-17T09:02:23.000Z</time></trkpt><trkpt lon="5.650931" lat="51.185602"><ele>35.2</ele><time>2022-04-17T09:02:24.000Z</time></trkpt><trkpt lon="5.651033" lat="51.185609"><ele>35</ele><time>2022-04-17T09:02:25.000Z</time></trkpt><trkpt lon="5.651135" lat="51.185612"><ele>34.8</ele><time>2022-04-17T09:02:26.000Z</time></trkpt><trkpt lon="5.651237" lat="51.185613"><ele>34.6</ele><time>2022-04-17T09:02:27.000Z</time></trkpt><trkpt lon="5.651339" lat="51.185616"><ele>34.8</ele><time>2022-04-17T09:02:28.000Z</time></trkpt><trkpt lon="5.651444" lat="51.185616"><ele>34.8</ele><time>2022-04-17T09:02:29.000Z</time></trkpt><trkpt lon="5.65155" lat="51.185616"><ele>35</ele><time>2022-04-17T09:02:30.000Z</time></trkpt><trkpt lon="5.651657" lat="51.185616"><ele>35</ele><time>2022-04-17T09:02:31.000Z</time></trkpt><trkpt lon="5.651766" lat="51.185617"><ele>35</ele><time>2022-04-17T09:02:32.000Z</time></trkpt><trkpt lon="5.651873" lat="51.185619"><ele>35</ele><time>2022-04-17T09:02:33.000Z</time></trkpt><trkpt lon="5.651978" lat="51.185619"><ele>34.8</ele><time>2022-04-17T09:02:34.000Z</time></trkpt><trkpt lon="5.652083" lat="51.185619"><ele>35</ele><time>2022-04-17T09:02:35.000Z</time></trkpt><trkpt lon="5.652185" lat="51.185618"><ele>35</ele><time>2022-04-17T09:02:36.000Z</time></trkpt><trkpt lon="5.652285" lat="51.185616"><ele>35</ele><time>2022-04-17T09:02:37.000Z</time></trkpt><trkpt lon="5.652401" lat="51.185617"><ele>35</ele><time>2022-04-17T09:02:38.000Z</time></trkpt><trkpt lon="5.652507" lat="51.18562"><ele>34.8</ele><time>2022-04-17T09:02:39.000Z</time></trkpt><trkpt lon="5.652609" lat="51.185625"><ele>34.8</ele><time>2022-04-17T09:02:40.000Z</time></trkpt><trkpt lon="5.652712" lat="51.185633"><ele>34.8</ele><time>2022-04-17T09:02:41.000Z</time></trkpt><trkpt lon="5.652817" lat="51.185642"><ele>34.8</ele><time>2022-04-17T09:02:42.000Z</time></trkpt><trkpt lon="5.652922" lat="51.185653"><ele>34.8</ele><time>2022-04-17T09:02:43.000Z</time></trkpt><trkpt lon="5.653026" lat="51.185665"><ele>34.8</ele><time>2022-04-17T09:02:44.000Z</time></trkpt><trkpt lon="5.653131" lat="51.185676"><ele>34.8</ele><time>2022-04-17T09:02:45.000Z</time></trkpt><trkpt lon="5.653237" lat="51.185687"><ele>34.6</ele><time>2022-04-17T09:02:46.000Z</time></trkpt><trkpt lon="5.653341" lat="51.185699"><ele>34.4</ele><time>2022-04-17T09:02:47.000Z</time></trkpt><trkpt lon="5.653444" lat="51.18571"><ele>34.2</ele><time>2022-04-17T09:02:48.000Z</time></trkpt><trkpt lon="5.653551" lat="51.185722"><ele>34.2</ele><time>2022-04-17T09:02:49.000Z</time></trkpt><trkpt lon="5.653654" lat="51.185733"><ele>34.4</ele><time>2022-04-17T09:02:50.000Z</time></trkpt><trkpt lon="5.653761" lat="51.185744"><ele>34.4</ele><time>2022-04-17T09:02:51.000Z</time></trkpt><trkpt lon="5.653865" lat="51.185753"><ele>34.4</ele><time>2022-04-17T09:02:52.000Z</time></trkpt><trkpt lon="5.653965" lat="51.185767"><ele>34.6</ele><time>2022-04-17T09:02:53.000Z</time></trkpt><trkpt lon="5.65407" lat="51.185778"><ele>34.6</ele><time>2022-04-17T09:02:54.000Z</time></trkpt><trkpt lon="5.654176" lat="51.185787"><ele>34.6</ele><time>2022-04-17T09:02:55.000Z</time></trkpt><trkpt lon="5.654282" lat="51.185799"><ele>34.6</ele><time>2022-04-17T09:02:56.000Z</time></trkpt><trkpt lon="5.654387" lat="51.185813"><ele>34.6</ele><time>2022-04-17T09:02:57.000Z</time></trkpt><trkpt lon="5.654494" lat="51.185826"><ele>34.4</ele><time>2022-04-17T09:02:58.000Z</time></trkpt><trkpt lon="5.654599" lat="51.185841"><ele>34.4</ele><time>2022-04-17T09:02:59.000Z</time></trkpt><trkpt lon="5.654702" lat="51.185856"><ele>34.4</ele><time>2022-04-17T09:03:00.000Z</time></trkpt><trkpt lon="5.654808" lat="51.185872"><ele>34.6</ele><time>2022-04-17T09:03:01.000Z</time></trkpt><trkpt lon="5.654916" lat="51.185886"><ele>34.8</ele><time>2022-04-17T09:03:02.000Z</time></trkpt><trkpt lon="5.655023" lat="51.185898"><ele>34.8</ele><time>2022-04-17T09:03:03.000Z</time></trkpt><trkpt lon="5.65513" lat="51.185912"><ele>35</ele><time>2022-04-17T09:03:04.000Z</time></trkpt><trkpt lon="5.655237" lat="51.185924"><ele>35</ele><time>2022-04-17T09:03:05.000Z</time></trkpt><trkpt lon="5.655339" lat="51.185936"><ele>35.2</ele><time>2022-04-17T09:03:06.000Z</time></trkpt><trkpt lon="5.655439" lat="51.18595"><ele>35.2</ele><time>2022-04-17T09:03:07.000Z</time></trkpt><trkpt lon="5.655551" lat="51.185963"><ele>35.2</ele><time>2022-04-17T09:03:08.000Z</time></trkpt><trkpt lon="5.655655" lat="51.185979"><ele>35.2</ele><time>2022-04-17T09:03:09.000Z</time></trkpt><trkpt lon="5.655759" lat="51.185993"><ele>35.2</ele><time>2022-04-17T09:03:10.000Z</time></trkpt><trkpt lon="5.655862" lat="51.186005"><ele>35.2</ele><time>2022-04-17T09:03:11.000Z</time></trkpt><trkpt lon="5.655967" lat="51.186019"><ele>35.2</ele><time>2022-04-17T09:03:12.000Z</time></trkpt><trkpt lon="5.656069" lat="51.186032"><ele>35.2</ele><time>2022-04-17T09:03:13.000Z</time></trkpt><trkpt lon="5.656169" lat="51.186046"><ele>35</ele><time>2022-04-17T09:03:14.000Z</time></trkpt><trkpt lon="5.656269" lat="51.186057"><ele>35</ele><time>2022-04-17T09:03:15.000Z</time></trkpt><trkpt lon="5.65637" lat="51.186069"><ele>35</ele><time>2022-04-17T09:03:16.000Z</time></trkpt><trkpt lon="5.656467" lat="51.186081"><ele>35</ele><time>2022-04-17T09:03:17.000Z</time></trkpt><trkpt lon="5.656564" lat="51.186098"><ele>35</ele><time>2022-04-17T09:03:18.000Z</time></trkpt><trkpt lon="5.656659" lat="51.186117"><ele>35</ele><time>2022-04-17T09:03:19.000Z</time></trkpt><trkpt lon="5.65676" lat="51.186135"><ele>35</ele><time>2022-04-17T09:03:20.000Z</time></trkpt><trkpt lon="5.656866" lat="51.186151"><ele>35</ele><time>2022-04-17T09:03:21.000Z</time></trkpt><trkpt lon="5.656969" lat="51.18617"><ele>34.8</ele><time>2022-04-17T09:03:22.000Z</time></trkpt><trkpt lon="5.657069" lat="51.186189"><ele>34.8</ele><time>2022-04-17T09:03:23.000Z</time></trkpt><trkpt lon="5.657168" lat="51.186208"><ele>34.8</ele><time>2022-04-17T09:03:24.000Z</time></trkpt><trkpt lon="5.657264" lat="51.186228"><ele>34.8</ele><time>2022-04-17T09:03:25.000Z</time></trkpt><trkpt lon="5.657358" lat="51.186246"><ele>34.8</ele><time>2022-04-17T09:03:26.000Z</time></trkpt><trkpt lon="5.65745" lat="51.186266"><ele>34.6</ele><time>2022-04-17T09:03:27.000Z</time></trkpt><trkpt lon="5.657548" lat="51.186289"><ele>34.4</ele><time>2022-04-17T09:03:28.000Z</time></trkpt><trkpt lon="5.65764" lat="51.186308"><ele>34.4</ele><time>2022-04-17T09:03:29.000Z</time></trkpt><trkpt lon="5.657738" lat="51.186328"><ele>34.2</ele><time>2022-04-17T09:03:30.000Z</time></trkpt><trkpt lon="5.657839" lat="51.186351"><ele>34</ele><time>2022-04-17T09:03:31.000Z</time></trkpt><trkpt lon="5.657941" lat="51.186373"><ele>34</ele><time>2022-04-17T09:03:32.000Z</time></trkpt><trkpt lon="5.658043" lat="51.186396"><ele>34</ele><time>2022-04-17T09:03:33.000Z</time></trkpt><trkpt lon="5.658147" lat="51.186419"><ele>34</ele><time>2022-04-17T09:03:34.000Z</time></trkpt><trkpt lon="5.65825" lat="51.186442"><ele>33.8</ele><time>2022-04-17T09:03:35.000Z</time></trkpt><trkpt lon="5.658352" lat="51.186464"><ele>33.8</ele><time>2022-04-17T09:03:36.000Z</time></trkpt><trkpt lon="5.658447" lat="51.186482"><ele>33.8</ele><time>2022-04-17T09:03:37.000Z</time></trkpt><trkpt lon="5.658556" lat="51.186502"><ele>33.8</ele><time>2022-04-17T09:03:38.000Z</time></trkpt><trkpt lon="5.658657" lat="51.186521"><ele>33.8</ele><time>2022-04-17T09:03:39.000Z</time></trkpt><trkpt lon="5.65876" lat="51.186539"><ele>34</ele><time>2022-04-17T09:03:40.000Z</time></trkpt><trkpt lon="5.658864" lat="51.186557"><ele>34</ele><time>2022-04-17T09:03:41.000Z</time></trkpt><trkpt lon="5.658968" lat="51.186579"><ele>33.8</ele><time>2022-04-17T09:03:42.000Z</time></trkpt><trkpt lon="5.659072" lat="51.186602"><ele>33.8</ele><time>2022-04-17T09:03:43.000Z</time></trkpt><trkpt lon="5.65917" lat="51.186625"><ele>33.8</ele><time>2022-04-17T09:03:44.000Z</time></trkpt><trkpt lon="5.659264" lat="51.186648"><ele>33.6</ele><time>2022-04-17T09:03:45.000Z</time></trkpt><trkpt lon="5.659353" lat="51.186671"><ele>33.6</ele><time>2022-04-17T09:03:46.000Z</time></trkpt><trkpt lon="5.659445" lat="51.186695"><ele>33.8</ele><time>2022-04-17T09:03:47.000Z</time></trkpt><trkpt lon="5.659537" lat="51.186721"><ele>33.8</ele><time>2022-04-17T09:03:48.000Z</time></trkpt><trkpt lon="5.659629" lat="51.186743"><ele>34</ele><time>2022-04-17T09:03:49.000Z</time></trkpt><trkpt lon="5.659721" lat="51.186767"><ele>34</ele><time>2022-04-17T09:03:50.000Z</time></trkpt><trkpt lon="5.659814" lat="51.186793"><ele>34</ele><time>2022-04-17T09:03:51.000Z</time></trkpt><trkpt lon="5.65991" lat="51.186818"><ele>34</ele><time>2022-04-17T09:03:52.000Z</time></trkpt><trkpt lon="5.660004" lat="51.186843"><ele>34</ele><time>2022-04-17T09:03:53.000Z</time></trkpt><trkpt lon="5.660096" lat="51.186865"><ele>34.2</ele><time>2022-04-17T09:03:54.000Z</time></trkpt><trkpt lon="5.660186" lat="51.186883"><ele>34.2</ele><time>2022-04-17T09:03:55.000Z</time></trkpt><trkpt lon="5.660277" lat="51.186899"><ele>34.2</ele><time>2022-04-17T09:03:56.000Z</time></trkpt><trkpt lon="5.66038" lat="51.186918"><ele>34.4</ele><time>2022-04-17T09:03:57.000Z</time></trkpt><trkpt lon="5.660491" lat="51.186936"><ele>34.4</ele><time>2022-04-17T09:03:58.000Z</time></trkpt><trkpt lon="5.660603" lat="51.186953"><ele>34.4</ele><time>2022-04-17T09:03:59.000Z</time></trkpt><trkpt lon="5.660711" lat="51.186975"><ele>34.4</ele><time>2022-04-17T09:04:00.000Z</time></trkpt><trkpt lon="5.660817" lat="51.186995"><ele>34.4</ele><time>2022-04-17T09:04:01.000Z</time></trkpt><trkpt lon="5.660918" lat="51.187017"><ele>34.4</ele><time>2022-04-17T09:04:02.000Z</time></trkpt><trkpt lon="5.661015" lat="51.187037"><ele>34.4</ele><time>2022-04-17T09:04:03.000Z</time></trkpt><trkpt lon="5.661118" lat="51.187059"><ele>34.4</ele><time>2022-04-17T09:04:04.000Z</time></trkpt><trkpt lon="5.661229" lat="51.187078"><ele>34.6</ele><time>2022-04-17T09:04:05.000Z</time></trkpt><trkpt lon="5.661347" lat="51.187096"><ele>34.8</ele><time>2022-04-17T09:04:06.000Z</time></trkpt><trkpt lon="5.661463" lat="51.187112"><ele>34.6</ele><time>2022-04-17T09:04:07.000Z</time></trkpt><trkpt lon="5.661578" lat="51.187131"><ele>34.4</ele><time>2022-04-17T09:04:08.000Z</time></trkpt><trkpt lon="5.661694" lat="51.187152"><ele>34.4</ele><time>2022-04-17T09:04:09.000Z</time></trkpt><trkpt lon="5.661807" lat="51.187173"><ele>34.4</ele><time>2022-04-17T09:04:10.000Z</time></trkpt><trkpt lon="5.661918" lat="51.187194"><ele>34.4</ele><time>2022-04-17T09:04:11.000Z</time></trkpt><trkpt lon="5.662026" lat="51.187216"><ele>34.6</ele><time>2022-04-17T09:04:12.000Z</time></trkpt><trkpt lon="5.662128" lat="51.187235"><ele>34.8</ele><time>2022-04-17T09:04:13.000Z</time></trkpt><trkpt lon="5.662224" lat="51.187254"><ele>34.8</ele><time>2022-04-17T09:04:14.000Z</time></trkpt><trkpt lon="5.662319" lat="51.187274"><ele>35</ele><time>2022-04-17T09:04:15.000Z</time></trkpt><trkpt lon="5.662415" lat="51.187296"><ele>35</ele><time>2022-04-17T09:04:16.000Z</time></trkpt><trkpt lon="5.662512" lat="51.187315"><ele>35</ele><time>2022-04-17T09:04:17.000Z</time></trkpt><trkpt lon="5.662615" lat="51.187335"><ele>35</ele><time>2022-04-17T09:04:18.000Z</time></trkpt><trkpt lon="5.662724" lat="51.187358"><ele>35</ele><time>2022-04-17T09:04:19.000Z</time></trkpt><trkpt lon="5.662837" lat="51.187381"><ele>35</ele><time>2022-04-17T09:04:20.000Z</time></trkpt><trkpt lon="5.662951" lat="51.187403"><ele>35</ele><time>2022-04-17T09:04:21.000Z</time></trkpt><trkpt lon="5.663058" lat="51.187425"><ele>35</ele><time>2022-04-17T09:04:22.000Z</time></trkpt><trkpt lon="5.663165" lat="51.187444"><ele>35.2</ele><time>2022-04-17T09:04:23.000Z</time></trkpt><trkpt lon="5.66327" lat="51.187465"><ele>35.2</ele><time>2022-04-17T09:04:24.000Z</time></trkpt><trkpt lon="5.663375" lat="51.187486"><ele>35.2</ele><time>2022-04-17T09:04:25.000Z</time></trkpt><trkpt lon="5.66348" lat="51.187505"><ele>35.2</ele><time>2022-04-17T09:04:26.000Z</time></trkpt><trkpt lon="5.663584" lat="51.187524"><ele>35.4</ele><time>2022-04-17T09:04:27.000Z</time></trkpt><trkpt lon="5.663685" lat="51.187539"><ele>35.4</ele><time>2022-04-17T09:04:28.000Z</time></trkpt><trkpt lon="5.663785" lat="51.187553"><ele>35.2</ele><time>2022-04-17T09:04:29.000Z</time></trkpt><trkpt lon="5.663887" lat="51.187563"><ele>35.2</ele><time>2022-04-17T09:04:30.000Z</time></trkpt><trkpt lon="5.663987" lat="51.187572"><ele>35.4</ele><time>2022-04-17T09:04:31.000Z</time></trkpt><trkpt lon="5.66409" lat="51.187582"><ele>35.2</ele><time>2022-04-17T09:04:32.000Z</time></trkpt><trkpt lon="5.664192" lat="51.187588"><ele>35.2</ele><time>2022-04-17T09:04:33.000Z</time></trkpt><trkpt lon="5.664296" lat="51.187588"><ele>35.2</ele><time>2022-04-17T09:04:34.000Z</time></trkpt><trkpt lon="5.664404" lat="51.187589"><ele>35.4</ele><time>2022-04-17T09:04:35.000Z</time></trkpt><trkpt lon="5.664517" lat="51.187592"><ele>35.4</ele><time>2022-04-17T09:04:36.000Z</time></trkpt><trkpt lon="5.664623" lat="51.187592"><ele>35.4</ele><time>2022-04-17T09:04:37.000Z</time></trkpt><trkpt lon="5.664723" lat="51.187592"><ele>35.4</ele><time>2022-04-17T09:04:38.000Z</time></trkpt><trkpt lon="5.664836" lat="51.187592"><ele>35.4</ele><time>2022-04-17T09:04:39.000Z</time></trkpt><trkpt lon="5.664942" lat="51.187592"><ele>35.4</ele><time>2022-04-17T09:04:40.000Z</time></trkpt><trkpt lon="5.665048" lat="51.187592"><ele>35.4</ele><time>2022-04-17T09:04:41.000Z</time></trkpt><trkpt lon="5.665156" lat="51.187592"><ele>35.4</ele><time>2022-04-17T09:04:42.000Z</time></trkpt><trkpt lon="5.665264" lat="51.187593"><ele>35.4</ele><time>2022-04-17T09:04:43.000Z</time></trkpt><trkpt lon="5.665376" lat="51.187595"><ele>35.4</ele><time>2022-04-17T09:04:44.000Z</time></trkpt><trkpt lon="5.665484" lat="51.187595"><ele>35.6</ele><time>2022-04-17T09:04:45.000Z</time></trkpt><trkpt lon="5.665592" lat="51.187595"><ele>35.6</ele><time>2022-04-17T09:04:46.000Z</time></trkpt><trkpt lon="5.665701" lat="51.187596"><ele>35.6</ele><time>2022-04-17T09:04:47.000Z</time></trkpt><trkpt lon="5.665808" lat="51.1876"><ele>35.6</ele><time>2022-04-17T09:04:48.000Z</time></trkpt><trkpt lon="5.665916" lat="51.187603"><ele>35.6</ele><time>2022-04-17T09:04:49.000Z</time></trkpt><trkpt lon="5.666025" lat="51.187602"><ele>35.6</ele><time>2022-04-17T09:04:50.000Z</time></trkpt><trkpt lon="5.666131" lat="51.187599"><ele>35.6</ele><time>2022-04-17T09:04:51.000Z</time></trkpt><trkpt lon="5.666237" lat="51.187598"><ele>35.6</ele><time>2022-04-17T09:04:52.000Z</time></trkpt><trkpt lon="5.666345" lat="51.187596"><ele>35.6</ele><time>2022-04-17T09:04:53.000Z</time></trkpt><trkpt lon="5.666453" lat="51.187599"><ele>35.6</ele><time>2022-04-17T09:04:54.000Z</time></trkpt><trkpt lon="5.666562" lat="51.187599"><ele>35.4</ele><time>2022-04-17T09:04:55.000Z</time></trkpt><trkpt lon="5.666675" lat="51.187599"><ele>35.4</ele><time>2022-04-17T09:04:56.000Z</time></trkpt><trkpt lon="5.666787" lat="51.1876"><ele>35.4</ele><time>2022-04-17T09:04:57.000Z</time></trkpt><trkpt lon="5.666898" lat="51.187603"><ele>35.4</ele><time>2022-04-17T09:04:58.000Z</time></trkpt><trkpt lon="5.667007" lat="51.187603"><ele>35.4</ele><time>2022-04-17T09:04:59.000Z</time></trkpt><trkpt lon="5.667116" lat="51.187602"><ele>35.4</ele><time>2022-04-17T09:05:00.000Z</time></trkpt><trkpt lon="5.667225" lat="51.1876"><ele>35.4</ele><time>2022-04-17T09:05:01.000Z</time></trkpt><trkpt lon="5.667333" lat="51.187603"><ele>35.4</ele><time>2022-04-17T09:05:02.000Z</time></trkpt><trkpt lon="5.667443" lat="51.187604"><ele>35.4</ele><time>2022-04-17T09:05:03.000Z</time></trkpt><trkpt lon="5.667554" lat="51.187607"><ele>35.4</ele><time>2022-04-17T09:05:04.000Z</time></trkpt><trkpt lon="5.667662" lat="51.187607"><ele>35.4</ele><time>2022-04-17T09:05:05.000Z</time></trkpt><trkpt lon="5.667774" lat="51.187607"><ele>35.2</ele><time>2022-04-17T09:05:06.000Z</time></trkpt><trkpt lon="5.667884" lat="51.187607"><ele>35.2</ele><time>2022-04-17T09:05:07.000Z</time></trkpt><trkpt lon="5.667992" lat="51.187607"><ele>35.2</ele><time>2022-04-17T09:05:08.000Z</time></trkpt><trkpt lon="5.668099" lat="51.187607"><ele>35.2</ele><time>2022-04-17T09:05:09.000Z</time></trkpt><trkpt lon="5.668206" lat="51.187607"><ele>35.2</ele><time>2022-04-17T09:05:10.000Z</time></trkpt><trkpt lon="5.668312" lat="51.187607"><ele>35.2</ele><time>2022-04-17T09:05:11.000Z</time></trkpt><trkpt lon="5.668419" lat="51.187608"><ele>35.2</ele><time>2022-04-17T09:05:12.000Z</time></trkpt><trkpt lon="5.668526" lat="51.187611"><ele>35.2</ele><time>2022-04-17T09:05:13.000Z</time></trkpt><trkpt lon="5.668632" lat="51.187611"><ele>35</ele><time>2022-04-17T09:05:14.000Z</time></trkpt><trkpt lon="5.668739" lat="51.187611"><ele>35.2</ele><time>2022-04-17T09:05:15.000Z</time></trkpt><trkpt lon="5.668852" lat="51.187611"><ele>35.2</ele><time>2022-04-17T09:05:16.000Z</time></trkpt><trkpt lon="5.668963" lat="51.187612"><ele>35.2</ele><time>2022-04-17T09:05:17.000Z</time></trkpt><trkpt lon="5.669074" lat="51.187615"><ele>35</ele><time>2022-04-17T09:05:18.000Z</time></trkpt><trkpt lon="5.669184" lat="51.187618"><ele>35</ele><time>2022-04-17T09:05:19.000Z</time></trkpt><trkpt lon="5.669297" lat="51.187618"><ele>35</ele><time>2022-04-17T09:05:20.000Z</time></trkpt><trkpt lon="5.669404" lat="51.187618"><ele>35</ele><time>2022-04-17T09:05:21.000Z</time></trkpt><trkpt lon="5.669511" lat="51.187618"><ele>35</ele><time>2022-04-17T09:05:22.000Z</time></trkpt><trkpt lon="5.669618" lat="51.187619"><ele>34.8</ele><time>2022-04-17T09:05:23.000Z</time></trkpt><trkpt lon="5.669728" lat="51.187622"><ele>34.8</ele><time>2022-04-17T09:05:24.000Z</time></trkpt><trkpt lon="5.669835" lat="51.187623"><ele>34.6</ele><time>2022-04-17T09:05:25.000Z</time></trkpt><trkpt lon="5.669942" lat="51.187626"><ele>34.6</ele><time>2022-04-17T09:05:26.000Z</time></trkpt><trkpt lon="5.670047" lat="51.187626"><ele>34.8</ele><time>2022-04-17T09:05:27.000Z</time></trkpt><trkpt lon="5.670154" lat="51.187626"><ele>34.8</ele><time>2022-04-17T09:05:28.000Z</time></trkpt><trkpt lon="5.67026" lat="51.187626"><ele>35</ele><time>2022-04-17T09:05:29.000Z</time></trkpt><trkpt lon="5.670364" lat="51.187626"><ele>35.2</ele><time>2022-04-17T09:05:30.000Z</time></trkpt><trkpt lon="5.670469" lat="51.187627"><ele>35.2</ele><time>2022-04-17T09:05:31.000Z</time></trkpt><trkpt lon="5.670575" lat="51.18763"><ele>34.8</ele><time>2022-04-17T09:05:32.000Z</time></trkpt><trkpt lon="5.67068" lat="51.18763"><ele>34.6</ele><time>2022-04-17T09:05:33.000Z</time></trkpt><trkpt lon="5.670789" lat="51.187631"><ele>34.2</ele><time>2022-04-17T09:05:34.000Z</time></trkpt><trkpt lon="5.670894" lat="51.187633"><ele>34</ele><time>2022-04-17T09:05:35.000Z</time></trkpt><trkpt lon="5.671" lat="51.187633"><ele>34.2</ele><time>2022-04-17T09:05:36.000Z</time></trkpt><trkpt lon="5.671106" lat="51.187635"><ele>34.4</ele><time>2022-04-17T09:05:37.000Z</time></trkpt><trkpt lon="5.671212" lat="51.187638"><ele>34.4</ele><time>2022-04-17T09:05:38.000Z</time></trkpt><trkpt lon="5.671315" lat="51.187641"><ele>34.4</ele><time>2022-04-17T09:05:39.000Z</time></trkpt><trkpt lon="5.671416" lat="51.187641"><ele>34.4</ele><time>2022-04-17T09:05:40.000Z</time></trkpt><trkpt lon="5.671516" lat="51.187641"><ele>34.2</ele><time>2022-04-17T09:05:41.000Z</time></trkpt><trkpt lon="5.671622" lat="51.18764"><ele>34.2</ele><time>2022-04-17T09:05:42.000Z</time></trkpt><trkpt lon="5.671727" lat="51.187637"><ele>34.2</ele><time>2022-04-17T09:05:43.000Z</time></trkpt><trkpt lon="5.671834" lat="51.187638"><ele>34</ele><time>2022-04-17T09:05:44.000Z</time></trkpt><trkpt lon="5.671942" lat="51.187641"><ele>34</ele><time>2022-04-17T09:05:45.000Z</time></trkpt><trkpt lon="5.672049" lat="51.187641"><ele>33.8</ele><time>2022-04-17T09:05:46.000Z</time></trkpt><trkpt lon="5.672156" lat="51.187641"><ele>33.8</ele><time>2022-04-17T09:05:47.000Z</time></trkpt><trkpt lon="5.672264" lat="51.187641"><ele>33.8</ele><time>2022-04-17T09:05:48.000Z</time></trkpt><trkpt lon="5.672371" lat="51.187641"><ele>33.6</ele><time>2022-04-17T09:05:49.000Z</time></trkpt><trkpt lon="5.672477" lat="51.187641"><ele>33.8</ele><time>2022-04-17T09:05:50.000Z</time></trkpt><trkpt lon="5.672583" lat="51.187641"><ele>34</ele><time>2022-04-17T09:05:51.000Z</time></trkpt><trkpt lon="5.672691" lat="51.187642"><ele>34.2</ele><time>2022-04-17T09:05:52.000Z</time></trkpt><trkpt lon="5.6728" lat="51.187645"><ele>34.2</ele><time>2022-04-17T09:05:53.000Z</time></trkpt><trkpt lon="5.672908" lat="51.187645"><ele>34.2</ele><time>2022-04-17T09:05:54.000Z</time></trkpt><trkpt lon="5.673014" lat="51.187644"><ele>34.2</ele><time>2022-04-17T09:05:55.000Z</time></trkpt><trkpt lon="5.673119" lat="51.187641"><ele>34</ele><time>2022-04-17T09:05:56.000Z</time></trkpt><trkpt lon="5.673226" lat="51.187642"><ele>34</ele><time>2022-04-17T09:05:57.000Z</time></trkpt><trkpt lon="5.673333" lat="51.187645"><ele>34.2</ele><time>2022-04-17T09:05:58.000Z</time></trkpt><trkpt lon="5.673442" lat="51.187646"><ele>34</ele><time>2022-04-17T09:05:59.000Z</time></trkpt><trkpt lon="5.673546" lat="51.187649"><ele>34</ele><time>2022-04-17T09:06:00.000Z</time></trkpt><trkpt lon="5.673652" lat="51.187648"><ele>34</ele><time>2022-04-17T09:06:01.000Z</time></trkpt><trkpt lon="5.67376" lat="51.187645"><ele>34</ele><time>2022-04-17T09:06:02.000Z</time></trkpt><trkpt lon="5.673867" lat="51.187645"><ele>34</ele><time>2022-04-17T09:06:03.000Z</time></trkpt><trkpt lon="5.673973" lat="51.187645"><ele>34</ele><time>2022-04-17T09:06:04.000Z</time></trkpt><trkpt lon="5.674078" lat="51.187645"><ele>34.2</ele><time>2022-04-17T09:06:05.000Z</time></trkpt><trkpt lon="5.674185" lat="51.187645"><ele>34</ele><time>2022-04-17T09:06:06.000Z</time></trkpt><trkpt lon="5.674289" lat="51.187645"><ele>34</ele><time>2022-04-17T09:06:07.000Z</time></trkpt><trkpt lon="5.674394" lat="51.187643"><ele>34</ele><time>2022-04-17T09:06:08.000Z</time></trkpt><trkpt lon="5.674498" lat="51.187635"><ele>34</ele><time>2022-04-17T09:06:09.000Z</time></trkpt><trkpt lon="5.674608" lat="51.187626"><ele>34</ele><time>2022-04-17T09:06:10.000Z</time></trkpt><trkpt lon="5.674714" lat="51.187614"><ele>34</ele><time>2022-04-17T09:06:11.000Z</time></trkpt><trkpt lon="5.674818" lat="51.187599"><ele>34</ele><time>2022-04-17T09:06:12.000Z</time></trkpt><trkpt lon="5.674921" lat="51.187582"><ele>34</ele><time>2022-04-17T09:06:13.000Z</time></trkpt><trkpt lon="5.675025" lat="51.187563"><ele>34.2</ele><time>2022-04-17T09:06:14.000Z</time></trkpt><trkpt lon="5.675122" lat="51.187543"><ele>34.2</ele><time>2022-04-17T09:06:15.000Z</time></trkpt><trkpt lon="5.675216" lat="51.18752"><ele>34.2</ele><time>2022-04-17T09:06:16.000Z</time></trkpt><trkpt lon="5.675311" lat="51.187499"><ele>34.2</ele><time>2022-04-17T09:06:17.000Z</time></trkpt><trkpt lon="5.675407" lat="51.187478"><ele>34</ele><time>2022-04-17T09:06:18.000Z</time></trkpt><trkpt lon="5.675498" lat="51.187457"><ele>34</ele><time>2022-04-17T09:06:19.000Z</time></trkpt><trkpt lon="5.675592" lat="51.187436"><ele>34.2</ele><time>2022-04-17T09:06:20.000Z</time></trkpt><trkpt lon="5.675687" lat="51.187412"><ele>34.2</ele><time>2022-04-17T09:06:21.000Z</time></trkpt><trkpt lon="5.675785" lat="51.187386"><ele>34.2</ele><time>2022-04-17T09:06:22.000Z</time></trkpt><trkpt lon="5.675883" lat="51.18736"><ele>34.2</ele><time>2022-04-17T09:06:23.000Z</time></trkpt><trkpt lon="5.675979" lat="51.187338"><ele>34.4</ele><time>2022-04-17T09:06:24.000Z</time></trkpt><trkpt lon="5.676076" lat="51.187318"><ele>34.4</ele><time>2022-04-17T09:06:25.000Z</time></trkpt><trkpt lon="5.676172" lat="51.187296"><ele>34.4</ele><time>2022-04-17T09:06:26.000Z</time></trkpt><trkpt lon="5.676262" lat="51.187276"><ele>34.6</ele><time>2022-04-17T09:06:27.000Z</time></trkpt><trkpt lon="5.676351" lat="51.187253"><ele>34.6</ele><time>2022-04-17T09:06:28.000Z</time></trkpt><trkpt lon="5.676443" lat="51.187232"><ele>34.8</ele><time>2022-04-17T09:06:29.000Z</time></trkpt><trkpt lon="5.676535" lat="51.187211"><ele>34.8</ele><time>2022-04-17T09:06:30.000Z</time></trkpt><trkpt lon="5.676628" lat="51.187188"><ele>35</ele><time>2022-04-17T09:06:31.000Z</time></trkpt><trkpt lon="5.676724" lat="51.187164"><ele>35</ele><time>2022-04-17T09:06:32.000Z</time></trkpt><trkpt lon="5.67682" lat="51.187139"><ele>35</ele><time>2022-04-17T09:06:33.000Z</time></trkpt><trkpt lon="5.676922" lat="51.187116"><ele>35.2</ele><time>2022-04-17T09:06:34.000Z</time></trkpt><trkpt lon="5.677026" lat="51.187093"><ele>35.2</ele><time>2022-04-17T09:06:35.000Z</time></trkpt><trkpt lon="5.677126" lat="51.18707"><ele>35</ele><time>2022-04-17T09:06:36.000Z</time></trkpt><trkpt lon="5.677221" lat="51.187047"><ele>35.2</ele><time>2022-04-17T09:06:37.000Z</time></trkpt><trkpt lon="5.677346" lat="51.18702"><ele>35.2</ele><time>2022-04-17T09:06:38.000Z</time></trkpt><trkpt lon="5.677451" lat="51.186998"><ele>35.2</ele><time>2022-04-17T09:06:39.000Z</time></trkpt><trkpt lon="5.677556" lat="51.186975"><ele>35.2</ele><time>2022-04-17T09:06:40.000Z</time></trkpt><trkpt lon="5.677664" lat="51.186952"><ele>35.2</ele><time>2022-04-17T09:06:41.000Z</time></trkpt><trkpt lon="5.677771" lat="51.186929"><ele>35.2</ele><time>2022-04-17T09:06:42.000Z</time></trkpt><trkpt lon="5.677881" lat="51.186907"><ele>35.4</ele><time>2022-04-17T09:06:43.000Z</time></trkpt><trkpt lon="5.677992" lat="51.186888"><ele>35.4</ele><time>2022-04-17T09:06:44.000Z</time></trkpt><trkpt lon="5.678102" lat="51.18687"><ele>35.2</ele><time>2022-04-17T09:06:45.000Z</time></trkpt><trkpt lon="5.678212" lat="51.186855"><ele>35.2</ele><time>2022-04-17T09:06:46.000Z</time></trkpt><trkpt lon="5.678321" lat="51.18684"><ele>35.2</ele><time>2022-04-17T09:06:47.000Z</time></trkpt><trkpt lon="5.678432" lat="51.186825"><ele>34.8</ele><time>2022-04-17T09:06:48.000Z</time></trkpt><trkpt lon="5.678543" lat="51.186814"><ele>34.6</ele><time>2022-04-17T09:06:49.000Z</time></trkpt><trkpt lon="5.678656" lat="51.186802"><ele>34.6</ele><time>2022-04-17T09:06:50.000Z</time></trkpt><trkpt lon="5.678766" lat="51.186787"><ele>34.6</ele><time>2022-04-17T09:06:51.000Z</time></trkpt><trkpt lon="5.678879" lat="51.186777"><ele>34.6</ele><time>2022-04-17T09:06:52.000Z</time></trkpt><trkpt lon="5.67899" lat="51.186768"><ele>34.4</ele><time>2022-04-17T09:06:53.000Z</time></trkpt><trkpt lon="5.679096" lat="51.186757"><ele>34.4</ele><time>2022-04-17T09:06:54.000Z</time></trkpt><trkpt lon="5.679202" lat="51.186744"><ele>34.4</ele><time>2022-04-17T09:06:55.000Z</time></trkpt><trkpt lon="5.679305" lat="51.18673"><ele>34.4</ele><time>2022-04-17T09:06:56.000Z</time></trkpt><trkpt lon="5.679406" lat="51.18672"><ele>34.4</ele><time>2022-04-17T09:06:57.000Z</time></trkpt><trkpt lon="5.679513" lat="51.186711"><ele>34.4</ele><time>2022-04-17T09:06:58.000Z</time></trkpt><trkpt lon="5.679616" lat="51.186701"><ele>34.2</ele><time>2022-04-17T09:06:59.000Z</time></trkpt><trkpt lon="5.679716" lat="51.186691"><ele>34.2</ele><time>2022-04-17T09:07:00.000Z</time></trkpt><trkpt lon="5.679813" lat="51.186677"><ele>34.4</ele><time>2022-04-17T09:07:01.000Z</time></trkpt><trkpt lon="5.679912" lat="51.186664"><ele>34.4</ele><time>2022-04-17T09:07:02.000Z</time></trkpt><trkpt lon="5.680011" lat="51.186649"><ele>34.6</ele><time>2022-04-17T09:07:03.000Z</time></trkpt><trkpt lon="5.680108" lat="51.186634"><ele>34.6</ele><time>2022-04-17T09:07:04.000Z</time></trkpt><trkpt lon="5.680207" lat="51.186617"><ele>34.8</ele><time>2022-04-17T09:07:05.000Z</time></trkpt><trkpt lon="5.680306" lat="51.186599"><ele>34.6</ele><time>2022-04-17T09:07:06.000Z</time></trkpt><trkpt lon="5.680402" lat="51.186584"><ele>34.6</ele><time>2022-04-17T09:07:07.000Z</time></trkpt><trkpt lon="5.680501" lat="51.186569"><ele>34.6</ele><time>2022-04-17T09:07:08.000Z</time></trkpt><trkpt lon="5.680599" lat="51.186553"><ele>34.6</ele><time>2022-04-17T09:07:09.000Z</time></trkpt><trkpt lon="5.680697" lat="51.186538"><ele>34.6</ele><time>2022-04-17T09:07:10.000Z</time></trkpt><trkpt lon="5.680795" lat="51.186523"><ele>34.6</ele><time>2022-04-17T09:07:11.000Z</time></trkpt><trkpt lon="5.680897" lat="51.186508"><ele>34.6</ele><time>2022-04-17T09:07:12.000Z</time></trkpt><trkpt lon="5.680998" lat="51.186492"><ele>34.6</ele><time>2022-04-17T09:07:13.000Z</time></trkpt><trkpt lon="5.681098" lat="51.186477"><ele>34.6</ele><time>2022-04-17T09:07:14.000Z</time></trkpt><trkpt lon="5.6812" lat="51.186462"><ele>34.6</ele><time>2022-04-17T09:07:15.000Z</time></trkpt><trkpt lon="5.681304" lat="51.186445"><ele>34.6</ele><time>2022-04-17T09:07:16.000Z</time></trkpt><trkpt lon="5.681403" lat="51.186428"><ele>34.4</ele><time>2022-04-17T09:07:17.000Z</time></trkpt><trkpt lon="5.681503" lat="51.186411"><ele>34.4</ele><time>2022-04-17T09:07:18.000Z</time></trkpt><trkpt lon="5.681601" lat="51.186393"><ele>34.4</ele><time>2022-04-17T09:07:19.000Z</time></trkpt><trkpt lon="5.681694" lat="51.186378"><ele>34.4</ele><time>2022-04-17T09:07:20.000Z</time></trkpt><trkpt lon="5.681787" lat="51.186363"><ele>34.4</ele><time>2022-04-17T09:07:21.000Z</time></trkpt><trkpt lon="5.68188" lat="51.186348"><ele>34.4</ele><time>2022-04-17T09:07:22.000Z</time></trkpt><trkpt lon="5.681977" lat="51.186331"><ele>34.4</ele><time>2022-04-17T09:07:23.000Z</time></trkpt><trkpt lon="5.682074" lat="51.186313"><ele>34.4</ele><time>2022-04-17T09:07:24.000Z</time></trkpt><trkpt lon="5.682169" lat="51.186297"><ele>34.4</ele><time>2022-04-17T09:07:25.000Z</time></trkpt><trkpt lon="5.68227" lat="51.18628"><ele>34.4</ele><time>2022-04-17T09:07:26.000Z</time></trkpt><trkpt lon="5.682368" lat="51.186267"><ele>34.4</ele><time>2022-04-17T09:07:27.000Z</time></trkpt><trkpt lon="5.682465" lat="51.186251"><ele>34.4</ele><time>2022-04-17T09:07:28.000Z</time></trkpt><trkpt lon="5.682562" lat="51.186233"><ele>34.4</ele><time>2022-04-17T09:07:29.000Z</time></trkpt><trkpt lon="5.682657" lat="51.186218"><ele>34.4</ele><time>2022-04-17T09:07:30.000Z</time></trkpt><trkpt lon="5.682756" lat="51.186203"><ele>34.6</ele><time>2022-04-17T09:07:31.000Z</time></trkpt><trkpt lon="5.682854" lat="51.186188"><ele>34.4</ele><time>2022-04-17T09:07:32.000Z</time></trkpt><trkpt lon="5.682946" lat="51.186176"><ele>34.6</ele><time>2022-04-17T09:07:33.000Z</time></trkpt><trkpt lon="5.68304" lat="51.186163"><ele>34.4</ele><time>2022-04-17T09:07:34.000Z</time></trkpt><trkpt lon="5.68314" lat="51.186156"><ele>34.4</ele><time>2022-04-17T09:07:35.000Z</time></trkpt><trkpt lon="5.683244" lat="51.186155"><ele>34.4</ele><time>2022-04-17T09:07:36.000Z</time></trkpt><trkpt lon="5.68335" lat="51.186161"><ele>34.6</ele><time>2022-04-17T09:07:37.000Z</time></trkpt><trkpt lon="5.683457" lat="51.186179"><ele>34.4</ele><time>2022-04-17T09:07:38.000Z</time></trkpt><trkpt lon="5.683566" lat="51.186204"><ele>34.2</ele><time>2022-04-17T09:07:39.000Z</time></trkpt><trkpt lon="5.683672" lat="51.186236"><ele>34.2</ele><time>2022-04-17T09:07:40.000Z</time></trkpt><trkpt lon="5.683777" lat="51.186269"><ele>34</ele><time>2022-04-17T09:07:41.000Z</time></trkpt><trkpt lon="5.683883" lat="51.186301"><ele>33.8</ele><time>2022-04-17T09:07:42.000Z</time></trkpt><trkpt lon="5.683988" lat="51.186334"><ele>33.8</ele><time>2022-04-17T09:07:43.000Z</time></trkpt><trkpt lon="5.684091" lat="51.186364"><ele>33.8</ele><time>2022-04-17T09:07:44.000Z</time></trkpt><trkpt lon="5.684189" lat="51.186394"><ele>33.4</ele><time>2022-04-17T09:07:45.000Z</time></trkpt><trkpt lon="5.684287" lat="51.186424"><ele>33</ele><time>2022-04-17T09:07:46.000Z</time></trkpt><trkpt lon="5.684383" lat="51.186452"><ele>33</ele><time>2022-04-17T09:07:47.000Z</time></trkpt><trkpt lon="5.684479" lat="51.186483"><ele>32.8</ele><time>2022-04-17T09:07:48.000Z</time></trkpt><trkpt lon="5.684574" lat="51.186513"><ele>33</ele><time>2022-04-17T09:07:49.000Z</time></trkpt><trkpt lon="5.68467" lat="51.186543"><ele>33</ele><time>2022-04-17T09:07:50.000Z</time></trkpt><trkpt lon="5.684766" lat="51.186574"><ele>32.8</ele><time>2022-04-17T09:07:51.000Z</time></trkpt><trkpt lon="5.684863" lat="51.186608"><ele>32.8</ele><time>2022-04-17T09:07:52.000Z</time></trkpt><trkpt lon="5.684965" lat="51.186639"><ele>32.6</ele><time>2022-04-17T09:07:53.000Z</time></trkpt><trkpt lon="5.685063" lat="51.18667"><ele>32.4</ele><time>2022-04-17T09:07:54.000Z</time></trkpt><trkpt lon="5.68516" lat="51.186703"><ele>32.4</ele><time>2022-04-17T09:07:55.000Z</time></trkpt><trkpt lon="5.685256" lat="51.186731"><ele>32.4</ele><time>2022-04-17T09:07:56.000Z</time></trkpt><trkpt lon="5.685353" lat="51.186765"><ele>32.6</ele><time>2022-04-17T09:07:57.000Z</time></trkpt><trkpt lon="5.685448" lat="51.186794"><ele>32.6</ele><time>2022-04-17T09:07:58.000Z</time></trkpt><trkpt lon="5.68554" lat="51.186822"><ele>32.2</ele><time>2022-04-17T09:07:59.000Z</time></trkpt><trkpt lon="5.685633" lat="51.186853"><ele>32.2</ele><time>2022-04-17T09:08:00.000Z</time></trkpt><trkpt lon="5.685727" lat="51.186883"><ele>32</ele><time>2022-04-17T09:08:01.000Z</time></trkpt><trkpt lon="5.685823" lat="51.186914"><ele>32</ele><time>2022-04-17T09:08:02.000Z</time></trkpt><trkpt lon="5.685917" lat="51.186943"><ele>32</ele><time>2022-04-17T09:08:03.000Z</time></trkpt><trkpt lon="5.686012" lat="51.18697"><ele>32</ele><time>2022-04-17T09:08:04.000Z</time></trkpt><trkpt lon="5.686108" lat="51.187001"><ele>32</ele><time>2022-04-17T09:08:05.000Z</time></trkpt><trkpt lon="5.686204" lat="51.187032"><ele>32.2</ele><time>2022-04-17T09:08:06.000Z</time></trkpt><trkpt lon="5.686301" lat="51.187061"><ele>32.2</ele><time>2022-04-17T09:08:07.000Z</time></trkpt><trkpt lon="5.686398" lat="51.187089"><ele>32.2</ele><time>2022-04-17T09:08:08.000Z</time></trkpt><trkpt lon="5.686494" lat="51.18712"><ele>32.2</ele><time>2022-04-17T09:08:09.000Z</time></trkpt><trkpt lon="5.686589" lat="51.187149"><ele>32.2</ele><time>2022-04-17T09:08:10.000Z</time></trkpt><trkpt lon="5.686686" lat="51.187176"><ele>32.4</ele><time>2022-04-17T09:08:11.000Z</time></trkpt><trkpt lon="5.686783" lat="51.187202"><ele>32.6</ele><time>2022-04-17T09:08:12.000Z</time></trkpt><trkpt lon="5.686878" lat="51.187229"><ele>32.8</ele><time>2022-04-17T09:08:13.000Z</time></trkpt><trkpt lon="5.686978" lat="51.187256"><ele>33</ele><time>2022-04-17T09:08:14.000Z</time></trkpt><trkpt lon="5.687078" lat="51.187282"><ele>33</ele><time>2022-04-17T09:08:15.000Z</time></trkpt><trkpt lon="5.687177" lat="51.187306"><ele>33.2</ele><time>2022-04-17T09:08:16.000Z</time></trkpt><trkpt lon="5.687275" lat="51.187332"><ele>33.4</ele><time>2022-04-17T09:08:17.000Z</time></trkpt><trkpt lon="5.687372" lat="51.187359"><ele>33.6</ele><time>2022-04-17T09:08:18.000Z</time></trkpt><trkpt lon="5.687469" lat="51.187384"><ele>33.8</ele><time>2022-04-17T09:08:19.000Z</time></trkpt><trkpt lon="5.687568" lat="51.187408"><ele>33.8</ele><time>2022-04-17T09:08:20.000Z</time></trkpt><trkpt lon="5.687667" lat="51.187434"><ele>33.6</ele><time>2022-04-17T09:08:21.000Z</time></trkpt><trkpt lon="5.687765" lat="51.187458"><ele>33.8</ele><time>2022-04-17T09:08:22.000Z</time></trkpt><trkpt lon="5.687862" lat="51.187485"><ele>33.6</ele><time>2022-04-17T09:08:23.000Z</time></trkpt><trkpt lon="5.687959" lat="51.18751"><ele>33.6</ele><time>2022-04-17T09:08:24.000Z</time></trkpt><trkpt lon="5.688055" lat="51.187534"><ele>33.4</ele><time>2022-04-17T09:08:25.000Z</time></trkpt><trkpt lon="5.688155" lat="51.187561"><ele>33.6</ele><time>2022-04-17T09:08:26.000Z</time></trkpt><trkpt lon="5.688252" lat="51.187587"><ele>33.4</ele><time>2022-04-17T09:08:27.000Z</time></trkpt><trkpt lon="5.688353" lat="51.187614"><ele>33.4</ele><time>2022-04-17T09:08:28.000Z</time></trkpt><trkpt lon="5.68845" lat="51.18764"><ele>33.4</ele><time>2022-04-17T09:08:29.000Z</time></trkpt><trkpt lon="5.688547" lat="51.187664"><ele>33.6</ele><time>2022-04-17T09:08:30.000Z</time></trkpt><trkpt lon="5.688646" lat="51.187689"><ele>33.4</ele><time>2022-04-17T09:08:31.000Z</time></trkpt><trkpt lon="5.688744" lat="51.187713"><ele>33.4</ele><time>2022-04-17T09:08:32.000Z</time></trkpt><trkpt lon="5.68884" lat="51.18774"><ele>33.4</ele><time>2022-04-17T09:08:33.000Z</time></trkpt><trkpt lon="5.688938" lat="51.187767"><ele>33.4</ele><time>2022-04-17T09:08:34.000Z</time></trkpt><trkpt lon="5.689033" lat="51.187792"><ele>33.2</ele><time>2022-04-17T09:08:35.000Z</time></trkpt><trkpt lon="5.689128" lat="51.187817"><ele>33.2</ele><time>2022-04-17T09:08:36.000Z</time></trkpt><trkpt lon="5.689223" lat="51.187842"><ele>33</ele><time>2022-04-17T09:08:37.000Z</time></trkpt><trkpt lon="5.689314" lat="51.187866"><ele>33</ele><time>2022-04-17T09:08:38.000Z</time></trkpt><trkpt lon="5.689404" lat="51.187893"><ele>33</ele><time>2022-04-17T09:08:39.000Z</time></trkpt><trkpt lon="5.689495" lat="51.187919"><ele>33</ele><time>2022-04-17T09:08:40.000Z</time></trkpt><trkpt lon="5.689586" lat="51.187946"><ele>33</ele><time>2022-04-17T09:08:41.000Z</time></trkpt><trkpt lon="5.689676" lat="51.187974"><ele>33</ele><time>2022-04-17T09:08:42.000Z</time></trkpt><trkpt lon="5.689763" lat="51.188005"><ele>33.2</ele><time>2022-04-17T09:08:43.000Z</time></trkpt><trkpt lon="5.689848" lat="51.188035"><ele>33</ele><time>2022-04-17T09:08:44.000Z</time></trkpt><trkpt lon="5.689933" lat="51.188066"><ele>33</ele><time>2022-04-17T09:08:45.000Z</time></trkpt><trkpt lon="5.690018" lat="51.188096"><ele>33</ele><time>2022-04-17T09:08:46.000Z</time></trkpt><trkpt lon="5.690103" lat="51.188127"><ele>33</ele><time>2022-04-17T09:08:47.000Z</time></trkpt><trkpt lon="5.69019" lat="51.188162"><ele>33.2</ele><time>2022-04-17T09:08:48.000Z</time></trkpt><trkpt lon="5.690277" lat="51.188195"><ele>33.2</ele><time>2022-04-17T09:08:49.000Z</time></trkpt><trkpt lon="5.690364" lat="51.188227"><ele>33</ele><time>2022-04-17T09:08:50.000Z</time></trkpt><trkpt lon="5.690457" lat="51.188261"><ele>33</ele><time>2022-04-17T09:08:51.000Z</time></trkpt><trkpt lon="5.690549" lat="51.188296"><ele>33</ele><time>2022-04-17T09:08:52.000Z</time></trkpt><trkpt lon="5.690641" lat="51.188331"><ele>33</ele><time>2022-04-17T09:08:53.000Z</time></trkpt><trkpt lon="5.690732" lat="51.188368"><ele>32.8</ele><time>2022-04-17T09:08:54.000Z</time></trkpt><trkpt lon="5.690825" lat="51.188403"><ele>32.6</ele><time>2022-04-17T09:08:55.000Z</time></trkpt><trkpt lon="5.690915" lat="51.188438"><ele>32.4</ele><time>2022-04-17T09:08:56.000Z</time></trkpt><trkpt lon="5.691003" lat="51.188474"><ele>32.4</ele><time>2022-04-17T09:08:57.000Z</time></trkpt><trkpt lon="5.691093" lat="51.188508"><ele>32.4</ele><time>2022-04-17T09:08:58.000Z</time></trkpt><trkpt lon="5.691187" lat="51.188544"><ele>32.4</ele><time>2022-04-17T09:08:59.000Z</time></trkpt><trkpt lon="5.69128" lat="51.188582"><ele>32.4</ele><time>2022-04-17T09:09:00.000Z</time></trkpt><trkpt lon="5.691373" lat="51.188617"><ele>32.4</ele><time>2022-04-17T09:09:01.000Z</time></trkpt><trkpt lon="5.691465" lat="51.188653"><ele>32.4</ele><time>2022-04-17T09:09:02.000Z</time></trkpt><trkpt lon="5.691556" lat="51.188685"><ele>32.4</ele><time>2022-04-17T09:09:03.000Z</time></trkpt><trkpt lon="5.691647" lat="51.188718"><ele>32.4</ele><time>2022-04-17T09:09:04.000Z</time></trkpt><trkpt lon="5.691739" lat="51.18875"><ele>32.6</ele><time>2022-04-17T09:09:05.000Z</time></trkpt><trkpt lon="5.691829" lat="51.188784"><ele>32.8</ele><time>2022-04-17T09:09:06.000Z</time></trkpt><trkpt lon="5.691916" lat="51.188817"><ele>33</ele><time>2022-04-17T09:09:07.000Z</time></trkpt><trkpt lon="5.692005" lat="51.188849"><ele>33</ele><time>2022-04-17T09:09:08.000Z</time></trkpt><trkpt lon="5.692092" lat="51.188882"><ele>33.4</ele><time>2022-04-17T09:09:09.000Z</time></trkpt><trkpt lon="5.692179" lat="51.188913"><ele>33.4</ele><time>2022-04-17T09:09:10.000Z</time></trkpt><trkpt lon="5.692267" lat="51.188948"><ele>33.4</ele><time>2022-04-17T09:09:11.000Z</time></trkpt><trkpt lon="5.692356" lat="51.188983"><ele>33.6</ele><time>2022-04-17T09:09:12.000Z</time></trkpt><trkpt lon="5.692447" lat="51.189016"><ele>33.6</ele><time>2022-04-17T09:09:13.000Z</time></trkpt><trkpt lon="5.69254" lat="51.18905"><ele>33.6</ele><time>2022-04-17T09:09:14.000Z</time></trkpt><trkpt lon="5.692637" lat="51.189085"><ele>33.6</ele><time>2022-04-17T09:09:15.000Z</time></trkpt><trkpt lon="5.692732" lat="51.189117"><ele>33.6</ele><time>2022-04-17T09:09:16.000Z</time></trkpt><trkpt lon="5.692827" lat="51.189146"><ele>33.6</ele><time>2022-04-17T09:09:17.000Z</time></trkpt><trkpt lon="5.692919" lat="51.189179"><ele>33.8</ele><time>2022-04-17T09:09:18.000Z</time></trkpt><trkpt lon="5.693012" lat="51.18921"><ele>33.8</ele><time>2022-04-17T09:09:19.000Z</time></trkpt><trkpt lon="5.693105" lat="51.18924"><ele>33.6</ele><time>2022-04-17T09:09:20.000Z</time></trkpt><trkpt lon="5.6932" lat="51.18927"><ele>33.6</ele><time>2022-04-17T09:09:21.000Z</time></trkpt><trkpt lon="5.693296" lat="51.189297"><ele>33.8</ele><time>2022-04-17T09:09:22.000Z</time></trkpt><trkpt lon="5.693391" lat="51.189323"><ele>34</ele><time>2022-04-17T09:09:23.000Z</time></trkpt><trkpt lon="5.693487" lat="51.189351"><ele>34</ele><time>2022-04-17T09:09:24.000Z</time></trkpt><trkpt lon="5.693579" lat="51.18938"><ele>34</ele><time>2022-04-17T09:09:25.000Z</time></trkpt><trkpt lon="5.693673" lat="51.189407"><ele>34</ele><time>2022-04-17T09:09:26.000Z</time></trkpt><trkpt lon="5.693769" lat="51.189434"><ele>34</ele><time>2022-04-17T09:09:27.000Z</time></trkpt><trkpt lon="5.693866" lat="51.189461"><ele>34</ele><time>2022-04-17T09:09:28.000Z</time></trkpt><trkpt lon="5.693964" lat="51.189487"><ele>34</ele><time>2022-04-17T09:09:29.000Z</time></trkpt><trkpt lon="5.694064" lat="51.189514"><ele>34</ele><time>2022-04-17T09:09:30.000Z</time></trkpt><trkpt lon="5.694163" lat="51.189541"><ele>34</ele><time>2022-04-17T09:09:31.000Z</time></trkpt><trkpt lon="5.694259" lat="51.189568"><ele>34.2</ele><time>2022-04-17T09:09:32.000Z</time></trkpt><trkpt lon="5.694356" lat="51.189594"><ele>34</ele><time>2022-04-17T09:09:33.000Z</time></trkpt><trkpt lon="5.694456" lat="51.189621"><ele>34</ele><time>2022-04-17T09:09:34.000Z</time></trkpt><trkpt lon="5.694551" lat="51.189649"><ele>34</ele><time>2022-04-17T09:09:35.000Z</time></trkpt><trkpt lon="5.694648" lat="51.189678"><ele>34.2</ele><time>2022-04-17T09:09:36.000Z</time></trkpt><trkpt lon="5.694742" lat="51.189704"><ele>34.2</ele><time>2022-04-17T09:09:37.000Z</time></trkpt><trkpt lon="5.694838" lat="51.189728"><ele>34</ele><time>2022-04-17T09:09:38.000Z</time></trkpt><trkpt lon="5.694932" lat="51.189751"><ele>33.8</ele><time>2022-04-17T09:09:39.000Z</time></trkpt><trkpt lon="5.695022" lat="51.189768"><ele>33.8</ele><time>2022-04-17T09:09:40.000Z</time></trkpt><trkpt lon="5.69514" lat="51.18979"><ele>33.8</ele><time>2022-04-17T09:09:41.000Z</time></trkpt><trkpt lon="5.695243" lat="51.189805"><ele>34</ele><time>2022-04-17T09:09:42.000Z</time></trkpt><trkpt lon="5.695345" lat="51.189818"><ele>34</ele><time>2022-04-17T09:09:43.000Z</time></trkpt><trkpt lon="5.695448" lat="51.189825"><ele>34</ele><time>2022-04-17T09:09:44.000Z</time></trkpt><trkpt lon="5.69555" lat="51.189831"><ele>34</ele><time>2022-04-17T09:09:45.000Z</time></trkpt><trkpt lon="5.695651" lat="51.189831"><ele>34.2</ele><time>2022-04-17T09:09:46.000Z</time></trkpt><trkpt lon="5.695758" lat="51.189832"><ele>34</ele><time>2022-04-17T09:09:47.000Z</time></trkpt><trkpt lon="5.695866" lat="51.189838"><ele>34</ele><time>2022-04-17T09:09:48.000Z</time></trkpt><trkpt lon="5.695975" lat="51.18985"><ele>34</ele><time>2022-04-17T09:09:49.000Z</time></trkpt><trkpt lon="5.696083" lat="51.189868"><ele>34.2</ele><time>2022-04-17T09:09:50.000Z</time></trkpt><trkpt lon="5.696185" lat="51.189892"><ele>34.2</ele><time>2022-04-17T09:09:51.000Z</time></trkpt><trkpt lon="5.696283" lat="51.189919"><ele>34.2</ele><time>2022-04-17T09:09:52.000Z</time></trkpt><trkpt lon="5.696378" lat="51.189951"><ele>34.2</ele><time>2022-04-17T09:09:53.000Z</time></trkpt><trkpt lon="5.696471" lat="51.189986"><ele>34</ele><time>2022-04-17T09:09:54.000Z</time></trkpt><trkpt lon="5.696563" lat="51.190023"><ele>34</ele><time>2022-04-17T09:09:55.000Z</time></trkpt><trkpt lon="5.696658" lat="51.19006"><ele>33.8</ele><time>2022-04-17T09:09:56.000Z</time></trkpt><trkpt lon="5.69675" lat="51.190101"><ele>33.8</ele><time>2022-04-17T09:09:57.000Z</time></trkpt><trkpt lon="5.696843" lat="51.19014"><ele>33.8</ele><time>2022-04-17T09:09:58.000Z</time></trkpt><trkpt lon="5.696936" lat="51.190182"><ele>33.8</ele><time>2022-04-17T09:09:59.000Z</time></trkpt><trkpt lon="5.697026" lat="51.190224"><ele>33.6</ele><time>2022-04-17T09:10:00.000Z</time></trkpt><trkpt lon="5.697116" lat="51.190265"><ele>33.2</ele><time>2022-04-17T09:10:01.000Z</time></trkpt><trkpt lon="5.697206" lat="51.190304"><ele>33</ele><time>2022-04-17T09:10:02.000Z</time></trkpt><trkpt lon="5.697296" lat="51.190345"><ele>32.8</ele><time>2022-04-17T09:10:03.000Z</time></trkpt><trkpt lon="5.697385" lat="51.190383"><ele>32.6</ele><time>2022-04-17T09:10:04.000Z</time></trkpt><trkpt lon="5.697477" lat="51.190422"><ele>32.4</ele><time>2022-04-17T09:10:05.000Z</time></trkpt><trkpt lon="5.697569" lat="51.190464"><ele>32.4</ele><time>2022-04-17T09:10:06.000Z</time></trkpt><trkpt lon="5.697658" lat="51.190499"><ele>32.6</ele><time>2022-04-17T09:10:07.000Z</time></trkpt><trkpt lon="5.697737" lat="51.190526"><ele>32.6</ele><time>2022-04-17T09:10:08.000Z</time></trkpt><trkpt lon="5.697862" lat="51.190567"><ele>32.6</ele><time>2022-04-17T09:10:09.000Z</time></trkpt><trkpt lon="5.697968" lat="51.190593"><ele>32.8</ele><time>2022-04-17T09:10:10.000Z</time></trkpt><trkpt lon="5.698076" lat="51.190615"><ele>33</ele><time>2022-04-17T09:10:11.000Z</time></trkpt><trkpt lon="5.698182" lat="51.190632"><ele>33</ele><time>2022-04-17T09:10:12.000Z</time></trkpt><trkpt lon="5.698286" lat="51.190648"><ele>33</ele><time>2022-04-17T09:10:13.000Z</time></trkpt><trkpt lon="5.698393" lat="51.190662"><ele>33.2</ele><time>2022-04-17T09:10:14.000Z</time></trkpt><trkpt lon="5.698501" lat="51.190673"><ele>33.2</ele><time>2022-04-17T09:10:15.000Z</time></trkpt><trkpt lon="5.698609" lat="51.190685"><ele>33.2</ele><time>2022-04-17T09:10:16.000Z</time></trkpt><trkpt lon="5.698716" lat="51.190694"><ele>33.2</ele><time>2022-04-17T09:10:17.000Z</time></trkpt><trkpt lon="5.698825" lat="51.190699"><ele>33.4</ele><time>2022-04-17T09:10:18.000Z</time></trkpt><trkpt lon="5.698934" lat="51.190704"><ele>33.4</ele><time>2022-04-17T09:10:19.000Z</time></trkpt><trkpt lon="5.699044" lat="51.190705"><ele>33.6</ele><time>2022-04-17T09:10:20.000Z</time></trkpt><trkpt lon="5.699153" lat="51.190708"><ele>33.6</ele><time>2022-04-17T09:10:21.000Z</time></trkpt><trkpt lon="5.699265" lat="51.190709"><ele>33.6</ele><time>2022-04-17T09:10:22.000Z</time></trkpt><trkpt lon="5.699375" lat="51.190712"><ele>33.4</ele><time>2022-04-17T09:10:23.000Z</time></trkpt><trkpt lon="5.699485" lat="51.190713"><ele>33.4</ele><time>2022-04-17T09:10:24.000Z</time></trkpt><trkpt lon="5.699596" lat="51.190717"><ele>33.2</ele><time>2022-04-17T09:10:25.000Z</time></trkpt><trkpt lon="5.699705" lat="51.190721"><ele>33.2</ele><time>2022-04-17T09:10:26.000Z</time></trkpt><trkpt lon="5.699814" lat="51.190723"><ele>33.2</ele><time>2022-04-17T09:10:27.000Z</time></trkpt><trkpt lon="5.699922" lat="51.190724"><ele>33.4</ele><time>2022-04-17T09:10:28.000Z</time></trkpt><trkpt lon="5.700031" lat="51.190727"><ele>33.4</ele><time>2022-04-17T09:10:29.000Z</time></trkpt><trkpt lon="5.700141" lat="51.190728"><ele>33.6</ele><time>2022-04-17T09:10:30.000Z</time></trkpt><trkpt lon="5.700248" lat="51.190732"><ele>33.6</ele><time>2022-04-17T09:10:31.000Z</time></trkpt><trkpt lon="5.700358" lat="51.190735"><ele>33.4</ele><time>2022-04-17T09:10:32.000Z</time></trkpt><trkpt lon="5.700468" lat="51.190736"><ele>33.4</ele><time>2022-04-17T09:10:33.000Z</time></trkpt><trkpt lon="5.700578" lat="51.19074"><ele>33.4</ele><time>2022-04-17T09:10:34.000Z</time></trkpt><trkpt lon="5.700688" lat="51.190744"><ele>33.4</ele><time>2022-04-17T09:10:35.000Z</time></trkpt><trkpt lon="5.700798" lat="51.190747"><ele>33</ele><time>2022-04-17T09:10:36.000Z</time></trkpt><trkpt lon="5.700908" lat="51.19075"><ele>33</ele><time>2022-04-17T09:10:37.000Z</time></trkpt><trkpt lon="5.701018" lat="51.190751"><ele>33</ele><time>2022-04-17T09:10:38.000Z</time></trkpt><trkpt lon="5.701128" lat="51.190754"><ele>33</ele><time>2022-04-17T09:10:39.000Z</time></trkpt><trkpt lon="5.701237" lat="51.190754"><ele>33</ele><time>2022-04-17T09:10:40.000Z</time></trkpt><trkpt lon="5.701346" lat="51.190753"><ele>33</ele><time>2022-04-17T09:10:41.000Z</time></trkpt><trkpt lon="5.701454" lat="51.19075"><ele>33</ele><time>2022-04-17T09:10:42.000Z</time></trkpt><trkpt lon="5.701563" lat="51.190749"><ele>32.8</ele><time>2022-04-17T09:10:43.000Z</time></trkpt><trkpt lon="5.701675" lat="51.190745"><ele>32.8</ele><time>2022-04-17T09:10:44.000Z</time></trkpt><trkpt lon="5.701784" lat="51.19074"><ele>32.8</ele><time>2022-04-17T09:10:45.000Z</time></trkpt><trkpt lon="5.701895" lat="51.190733"><ele>32.8</ele><time>2022-04-17T09:10:46.000Z</time></trkpt><trkpt lon="5.702006" lat="51.190725"><ele>33</ele><time>2022-04-17T09:10:47.000Z</time></trkpt><trkpt lon="5.702115" lat="51.190716"><ele>33.2</ele><time>2022-04-17T09:10:48.000Z</time></trkpt><trkpt lon="5.702224" lat="51.190705"><ele>33.4</ele><time>2022-04-17T09:10:49.000Z</time></trkpt><trkpt lon="5.702335" lat="51.190692"><ele>33.4</ele><time>2022-04-17T09:10:50.000Z</time></trkpt><trkpt lon="5.702445" lat="51.190678"><ele>33.4</ele><time>2022-04-17T09:10:51.000Z</time></trkpt><trkpt lon="5.702554" lat="51.190666"><ele>33.4</ele><time>2022-04-17T09:10:52.000Z</time></trkpt><trkpt lon="5.702664" lat="51.190649"><ele>33.4</ele><time>2022-04-17T09:10:53.000Z</time></trkpt><trkpt lon="5.702772" lat="51.19063"><ele>33.6</ele><time>2022-04-17T09:10:54.000Z</time></trkpt><trkpt lon="5.702879" lat="51.190612"><ele>33.6</ele><time>2022-04-17T09:10:55.000Z</time></trkpt><trkpt lon="5.702985" lat="51.190596"><ele>33.6</ele><time>2022-04-17T09:10:56.000Z</time></trkpt><trkpt lon="5.703092" lat="51.190577"><ele>33.6</ele><time>2022-04-17T09:10:57.000Z</time></trkpt><trkpt lon="5.7032" lat="51.190557"><ele>33.4</ele><time>2022-04-17T09:10:58.000Z</time></trkpt><trkpt lon="5.703307" lat="51.190535"><ele>33.4</ele><time>2022-04-17T09:10:59.000Z</time></trkpt><trkpt lon="5.703409" lat="51.190515"><ele>33.2</ele><time>2022-04-17T09:11:00.000Z</time></trkpt><trkpt lon="5.70351" lat="51.190494"><ele>33.2</ele><time>2022-04-17T09:11:01.000Z</time></trkpt><trkpt lon="5.703624" lat="51.190473"><ele>33.2</ele><time>2022-04-17T09:11:02.000Z</time></trkpt><trkpt lon="5.70373" lat="51.190451"><ele>33.4</ele><time>2022-04-17T09:11:03.000Z</time></trkpt><trkpt lon="5.703837" lat="51.190431"><ele>33.4</ele><time>2022-04-17T09:11:04.000Z</time></trkpt><trkpt lon="5.703946" lat="51.190408"><ele>33.4</ele><time>2022-04-17T09:11:05.000Z</time></trkpt><trkpt lon="5.704053" lat="51.190386"><ele>33.4</ele><time>2022-04-17T09:11:06.000Z</time></trkpt><trkpt lon="5.70416" lat="51.190366"><ele>33.2</ele><time>2022-04-17T09:11:07.000Z</time></trkpt><trkpt lon="5.704267" lat="51.190343"><ele>33.2</ele><time>2022-04-17T09:11:08.000Z</time></trkpt><trkpt lon="5.704372" lat="51.19032"><ele>33</ele><time>2022-04-17T09:11:09.000Z</time></trkpt><trkpt lon="5.704473" lat="51.190296"><ele>33</ele><time>2022-04-17T09:11:10.000Z</time></trkpt><trkpt lon="5.704573" lat="51.190271"><ele>33</ele><time>2022-04-17T09:11:11.000Z</time></trkpt><trkpt lon="5.704675" lat="51.190247"><ele>33</ele><time>2022-04-17T09:11:12.000Z</time></trkpt><trkpt lon="5.704776" lat="51.190224"><ele>33.2</ele><time>2022-04-17T09:11:13.000Z</time></trkpt><trkpt lon="5.704877" lat="51.190198"><ele>33.2</ele><time>2022-04-17T09:11:14.000Z</time></trkpt><trkpt lon="5.704979" lat="51.190174"><ele>33.2</ele><time>2022-04-17T09:11:15.000Z</time></trkpt><trkpt lon="5.705081" lat="51.190149"><ele>33</ele><time>2022-04-17T09:11:16.000Z</time></trkpt><trkpt lon="5.705183" lat="51.190125"><ele>33</ele><time>2022-04-17T09:11:17.000Z</time></trkpt><trkpt lon="5.705287" lat="51.190099"><ele>32.8</ele><time>2022-04-17T09:11:18.000Z</time></trkpt><trkpt lon="5.705392" lat="51.190075"><ele>33</ele><time>2022-04-17T09:11:19.000Z</time></trkpt><trkpt lon="5.705495" lat="51.190049"><ele>33</ele><time>2022-04-17T09:11:20.000Z</time></trkpt><trkpt lon="5.705597" lat="51.190025"><ele>33</ele><time>2022-04-17T09:11:21.000Z</time></trkpt><trkpt lon="5.705698" lat="51.19"><ele>33.2</ele><time>2022-04-17T09:11:22.000Z</time></trkpt><trkpt lon="5.705799" lat="51.189976"><ele>33.2</ele><time>2022-04-17T09:11:23.000Z</time></trkpt><trkpt lon="5.705901" lat="51.189949"><ele>33.2</ele><time>2022-04-17T09:11:24.000Z</time></trkpt><trkpt lon="5.706004" lat="51.189924"><ele>33.2</ele><time>2022-04-17T09:11:25.000Z</time></trkpt><trkpt lon="5.70611" lat="51.189901"><ele>33.4</ele><time>2022-04-17T09:11:26.000Z</time></trkpt><trkpt lon="5.706213" lat="51.189877"><ele>33.4</ele><time>2022-04-17T09:11:27.000Z</time></trkpt><trkpt lon="5.706318" lat="51.189851"><ele>33.4</ele><time>2022-04-17T09:11:28.000Z</time></trkpt><trkpt lon="5.706422" lat="51.189829"><ele>33.2</ele><time>2022-04-17T09:11:29.000Z</time></trkpt><trkpt lon="5.70653" lat="51.189805"><ele>33.4</ele><time>2022-04-17T09:11:30.000Z</time></trkpt><trkpt lon="5.706633" lat="51.189783"><ele>33.6</ele><time>2022-04-17T09:11:31.000Z</time></trkpt><trkpt lon="5.706738" lat="51.189763"><ele>33.8</ele><time>2022-04-17T09:11:32.000Z</time></trkpt><trkpt lon="5.706843" lat="51.189742"><ele>34</ele><time>2022-04-17T09:11:33.000Z</time></trkpt><trkpt lon="5.70695" lat="51.189721"><ele>34</ele><time>2022-04-17T09:11:34.000Z</time></trkpt><trkpt lon="5.707056" lat="51.189699"><ele>34</ele><time>2022-04-17T09:11:35.000Z</time></trkpt><trkpt lon="5.707162" lat="51.189677"><ele>33.6</ele><time>2022-04-17T09:11:36.000Z</time></trkpt><trkpt lon="5.707267" lat="51.189657"><ele>33.4</ele><time>2022-04-17T09:11:37.000Z</time></trkpt><trkpt lon="5.707373" lat="51.189635"><ele>33.4</ele><time>2022-04-17T09:11:38.000Z</time></trkpt><trkpt lon="5.70748" lat="51.189616"><ele>33.2</ele><time>2022-04-17T09:11:39.000Z</time></trkpt><trkpt lon="5.707587" lat="51.189596"><ele>33</ele><time>2022-04-17T09:11:40.000Z</time></trkpt><trkpt lon="5.707692" lat="51.189576"><ele>32.8</ele><time>2022-04-17T09:11:41.000Z</time></trkpt><trkpt lon="5.707797" lat="51.189554"><ele>32.8</ele><time>2022-04-17T09:11:42.000Z</time></trkpt><trkpt lon="5.707896" lat="51.189536"><ele>33</ele><time>2022-04-17T09:11:43.000Z</time></trkpt><trkpt lon="5.707985" lat="51.18952"><ele>33</ele><time>2022-04-17T09:11:44.000Z</time></trkpt><trkpt lon="5.708104" lat="51.189501"><ele>33</ele><time>2022-04-17T09:11:45.000Z</time></trkpt><trkpt lon="5.70822" lat="51.189482"><ele>33</ele><time>2022-04-17T09:11:46.000Z</time></trkpt><trkpt lon="5.708328" lat="51.189464"><ele>33</ele><time>2022-04-17T09:11:47.000Z</time></trkpt><trkpt lon="5.708436" lat="51.18945"><ele>32.8</ele><time>2022-04-17T09:11:48.000Z</time></trkpt><trkpt lon="5.708548" lat="51.189438"><ele>32.8</ele><time>2022-04-17T09:11:49.000Z</time></trkpt><trkpt lon="5.708656" lat="51.189426"><ele>32.8</ele><time>2022-04-17T09:11:50.000Z</time></trkpt><trkpt lon="5.708765" lat="51.189412"><ele>32.8</ele><time>2022-04-17T09:11:51.000Z</time></trkpt><trkpt lon="5.708875" lat="51.1894"><ele>33</ele><time>2022-04-17T09:11:52.000Z</time></trkpt><trkpt lon="5.708986" lat="51.189389"><ele>32.8</ele><time>2022-04-17T09:11:53.000Z</time></trkpt><trkpt lon="5.709095" lat="51.189379"><ele>32.8</ele><time>2022-04-17T09:11:54.000Z</time></trkpt><trkpt lon="5.709204" lat="51.18937"><ele>33</ele><time>2022-04-17T09:11:55.000Z</time></trkpt><trkpt lon="5.709314" lat="51.189359"><ele>32.8</ele><time>2022-04-17T09:11:56.000Z</time></trkpt><trkpt lon="5.709426" lat="51.189347"><ele>32.6</ele><time>2022-04-17T09:11:57.000Z</time></trkpt><trkpt lon="5.709536" lat="51.189336"><ele>32.6</ele><time>2022-04-17T09:11:58.000Z</time></trkpt><trkpt lon="5.709646" lat="51.189324"><ele>32.8</ele><time>2022-04-17T09:11:59.000Z</time></trkpt><trkpt lon="5.709754" lat="51.189313"><ele>33</ele><time>2022-04-17T09:12:00.000Z</time></trkpt><trkpt lon="5.709864" lat="51.189301"><ele>33</ele><time>2022-04-17T09:12:01.000Z</time></trkpt><trkpt lon="5.709975" lat="51.18929"><ele>33</ele><time>2022-04-17T09:12:02.000Z</time></trkpt><trkpt lon="5.710082" lat="51.189279"><ele>32.8</ele><time>2022-04-17T09:12:03.000Z</time></trkpt><trkpt lon="5.710189" lat="51.189272"><ele>32.6</ele><time>2022-04-17T09:12:04.000Z</time></trkpt><trkpt lon="5.710299" lat="51.189263"><ele>32.8</ele><time>2022-04-17T09:12:05.000Z</time></trkpt><trkpt lon="5.710407" lat="51.189254"><ele>32.8</ele><time>2022-04-17T09:12:06.000Z</time></trkpt><trkpt lon="5.710513" lat="51.18925"><ele>32.8</ele><time>2022-04-17T09:12:07.000Z</time></trkpt><trkpt lon="5.710619" lat="51.189246"><ele>32.8</ele><time>2022-04-17T09:12:08.000Z</time></trkpt><trkpt lon="5.710727" lat="51.189243"><ele>32.6</ele><time>2022-04-17T09:12:09.000Z</time></trkpt><trkpt lon="5.710838" lat="51.189243"><ele>32.6</ele><time>2022-04-17T09:12:10.000Z</time></trkpt><trkpt lon="5.710946" lat="51.189246"><ele>32.2</ele><time>2022-04-17T09:12:11.000Z</time></trkpt><trkpt lon="5.711062" lat="51.189258"><ele>31.8</ele><time>2022-04-17T09:12:12.000Z</time></trkpt><trkpt lon="5.711177" lat="51.189269"><ele>31.8</ele><time>2022-04-17T09:12:13.000Z</time></trkpt><trkpt lon="5.711289" lat="51.189277"><ele>31.6</ele><time>2022-04-17T09:12:14.000Z</time></trkpt><trkpt lon="5.711392" lat="51.189275"><ele>31.6</ele><time>2022-04-17T09:12:15.000Z</time></trkpt><trkpt lon="5.711498" lat="51.189281"><ele>31.6</ele><time>2022-04-17T09:12:16.000Z</time></trkpt><trkpt lon="5.711604" lat="51.189291"><ele>31.8</ele><time>2022-04-17T09:12:17.000Z</time></trkpt><trkpt lon="5.711708" lat="51.18931"><ele>32</ele><time>2022-04-17T09:12:18.000Z</time></trkpt><trkpt lon="5.71181" lat="51.18933"><ele>32.2</ele><time>2022-04-17T09:12:19.000Z</time></trkpt><trkpt lon="5.711909" lat="51.189353"><ele>32</ele><time>2022-04-17T09:12:20.000Z</time></trkpt><trkpt lon="5.712008" lat="51.189377"><ele>32.4</ele><time>2022-04-17T09:12:21.000Z</time></trkpt><trkpt lon="5.712111" lat="51.189408"><ele>32.4</ele><time>2022-04-17T09:12:22.000Z</time></trkpt><trkpt lon="5.712213" lat="51.189439"><ele>32.6</ele><time>2022-04-17T09:12:23.000Z</time></trkpt><trkpt lon="5.712311" lat="51.189469"><ele>32.8</ele><time>2022-04-17T09:12:24.000Z</time></trkpt><trkpt lon="5.712409" lat="51.1895"><ele>32.8</ele><time>2022-04-17T09:12:25.000Z</time></trkpt><trkpt lon="5.712507" lat="51.189532"><ele>32.6</ele><time>2022-04-17T09:12:26.000Z</time></trkpt><trkpt lon="5.712603" lat="51.189566"><ele>32.6</ele><time>2022-04-17T09:12:27.000Z</time></trkpt><trkpt lon="5.712699" lat="51.1896"><ele>32.6</ele><time>2022-04-17T09:12:28.000Z</time></trkpt><trkpt lon="5.712795" lat="51.189632"><ele>32.6</ele><time>2022-04-17T09:12:29.000Z</time></trkpt><trkpt lon="5.712891" lat="51.18966"><ele>32.6</ele><time>2022-04-17T09:12:30.000Z</time></trkpt><trkpt lon="5.712985" lat="51.189691"><ele>32.6</ele><time>2022-04-17T09:12:31.000Z</time></trkpt><trkpt lon="5.713077" lat="51.189721"><ele>32.6</ele><time>2022-04-17T09:12:32.000Z</time></trkpt><trkpt lon="5.713171" lat="51.189752"><ele>32.4</ele><time>2022-04-17T09:12:33.000Z</time></trkpt><trkpt lon="5.713265" lat="51.189783"><ele>32.2</ele><time>2022-04-17T09:12:34.000Z</time></trkpt><trkpt lon="5.71336" lat="51.189817"><ele>32</ele><time>2022-04-17T09:12:35.000Z</time></trkpt><trkpt lon="5.713452" lat="51.189847"><ele>32</ele><time>2022-04-17T09:12:36.000Z</time></trkpt><trkpt lon="5.713549" lat="51.189877"><ele>32</ele><time>2022-04-17T09:12:37.000Z</time></trkpt><trkpt lon="5.713648" lat="51.189908"><ele>32.2</ele><time>2022-04-17T09:12:38.000Z</time></trkpt><trkpt lon="5.713744" lat="51.189939"><ele>32.2</ele><time>2022-04-17T09:12:39.000Z</time></trkpt><trkpt lon="5.713841" lat="51.189969"><ele>32.4</ele><time>2022-04-17T09:12:40.000Z</time></trkpt><trkpt lon="5.713937" lat="51.189999"><ele>32.6</ele><time>2022-04-17T09:12:41.000Z</time></trkpt><trkpt lon="5.714035" lat="51.19003"><ele>32.4</ele><time>2022-04-17T09:12:42.000Z</time></trkpt><trkpt lon="5.714134" lat="51.190061"><ele>32.4</ele><time>2022-04-17T09:12:43.000Z</time></trkpt><trkpt lon="5.714231" lat="51.190091"><ele>32.2</ele><time>2022-04-17T09:12:44.000Z</time></trkpt><trkpt lon="5.714329" lat="51.190122"><ele>32.4</ele><time>2022-04-17T09:12:45.000Z</time></trkpt><trkpt lon="5.714426" lat="51.190152"><ele>32.4</ele><time>2022-04-17T09:12:46.000Z</time></trkpt><trkpt lon="5.714526" lat="51.190182"><ele>32.6</ele><time>2022-04-17T09:12:47.000Z</time></trkpt><trkpt lon="5.714623" lat="51.190208"><ele>32.6</ele><time>2022-04-17T09:12:48.000Z</time></trkpt><trkpt lon="5.714724" lat="51.190235"><ele>32.4</ele><time>2022-04-17T09:12:49.000Z</time></trkpt><trkpt lon="5.714819" lat="51.190259"><ele>32.4</ele><time>2022-04-17T09:12:50.000Z</time></trkpt><trkpt lon="5.714911" lat="51.19028"><ele>32.4</ele><time>2022-04-17T09:12:51.000Z</time></trkpt><trkpt lon="5.715032" lat="51.190307"><ele>32.4</ele><time>2022-04-17T09:12:52.000Z</time></trkpt><trkpt lon="5.715134" lat="51.190328"><ele>32.4</ele><time>2022-04-17T09:12:53.000Z</time></trkpt><trkpt lon="5.715237" lat="51.190347"><ele>32.4</ele><time>2022-04-17T09:12:54.000Z</time></trkpt><trkpt lon="5.715341" lat="51.190366"><ele>32.4</ele><time>2022-04-17T09:12:55.000Z</time></trkpt><trkpt lon="5.715446" lat="51.190387"><ele>32.6</ele><time>2022-04-17T09:12:56.000Z</time></trkpt><trkpt lon="5.715551" lat="51.190408"><ele>32.4</ele><time>2022-04-17T09:12:57.000Z</time></trkpt><trkpt lon="5.715657" lat="51.190429"><ele>32.4</ele><time>2022-04-17T09:12:58.000Z</time></trkpt><trkpt lon="5.715761" lat="51.190451"><ele>32.4</ele><time>2022-04-17T09:12:59.000Z</time></trkpt><trkpt lon="5.715868" lat="51.190473"><ele>32.2</ele><time>2022-04-17T09:13:00.000Z</time></trkpt><trkpt lon="5.715973" lat="51.190492"><ele>32.4</ele><time>2022-04-17T09:13:01.000Z</time></trkpt><trkpt lon="5.716078" lat="51.190511"><ele>32.4</ele><time>2022-04-17T09:13:02.000Z</time></trkpt><trkpt lon="5.716184" lat="51.19053"><ele>32.6</ele><time>2022-04-17T09:13:03.000Z</time></trkpt><trkpt lon="5.716289" lat="51.190549"><ele>32.6</ele><time>2022-04-17T09:13:04.000Z</time></trkpt><trkpt lon="5.716393" lat="51.190569"><ele>32.8</ele><time>2022-04-17T09:13:05.000Z</time></trkpt><trkpt lon="5.716497" lat="51.190591"><ele>32.8</ele><time>2022-04-17T09:13:06.000Z</time></trkpt><trkpt lon="5.716602" lat="51.190611"><ele>32.8</ele><time>2022-04-17T09:13:07.000Z</time></trkpt><trkpt lon="5.716707" lat="51.19063"><ele>32.8</ele><time>2022-04-17T09:13:08.000Z</time></trkpt><trkpt lon="5.716813" lat="51.190649"><ele>32.8</ele><time>2022-04-17T09:13:09.000Z</time></trkpt><trkpt lon="5.716915" lat="51.190668"><ele>32.6</ele><time>2022-04-17T09:13:10.000Z</time></trkpt><trkpt lon="5.71702" lat="51.19069"><ele>32.4</ele><time>2022-04-17T09:13:11.000Z</time></trkpt><trkpt lon="5.71713" lat="51.190709"><ele>32.2</ele><time>2022-04-17T09:13:12.000Z</time></trkpt><trkpt lon="5.717236" lat="51.190724"><ele>32.2</ele><time>2022-04-17T09:13:13.000Z</time></trkpt><trkpt lon="5.717342" lat="51.190739"><ele>32.4</ele><time>2022-04-17T09:13:14.000Z</time></trkpt><trkpt lon="5.717448" lat="51.190754"><ele>32.4</ele><time>2022-04-17T09:13:15.000Z</time></trkpt><trkpt lon="5.717557" lat="51.190769"><ele>32.2</ele><time>2022-04-17T09:13:16.000Z</time></trkpt><trkpt lon="5.717666" lat="51.190781"><ele>32.2</ele><time>2022-04-17T09:13:17.000Z</time></trkpt><trkpt lon="5.717774" lat="51.190795"><ele>32</ele><time>2022-04-17T09:13:18.000Z</time></trkpt><trkpt lon="5.717881" lat="51.190807"><ele>31.8</ele><time>2022-04-17T09:13:19.000Z</time></trkpt><trkpt lon="5.717992" lat="51.190822"><ele>31.8</ele><time>2022-04-17T09:13:20.000Z</time></trkpt><trkpt lon="5.718105" lat="51.190835"><ele>31.6</ele><time>2022-04-17T09:13:21.000Z</time></trkpt><trkpt lon="5.718216" lat="51.190849"><ele>31.6</ele><time>2022-04-17T09:13:22.000Z</time></trkpt><trkpt lon="5.718323" lat="51.19086"><ele>31.6</ele><time>2022-04-17T09:13:23.000Z</time></trkpt><trkpt lon="5.718433" lat="51.190872"><ele>31.6</ele><time>2022-04-17T09:13:24.000Z</time></trkpt><trkpt lon="5.718541" lat="51.190882"><ele>31.4</ele><time>2022-04-17T09:13:25.000Z</time></trkpt><trkpt lon="5.718647" lat="51.190891"><ele>31.4</ele><time>2022-04-17T09:13:26.000Z</time></trkpt><trkpt lon="5.718755" lat="51.190901"><ele>31.4</ele><time>2022-04-17T09:13:27.000Z</time></trkpt><trkpt lon="5.718864" lat="51.19091"><ele>31.4</ele><time>2022-04-17T09:13:28.000Z</time></trkpt><trkpt lon="5.718973" lat="51.190921"><ele>31.4</ele><time>2022-04-17T09:13:29.000Z</time></trkpt><trkpt lon="5.719082" lat="51.190932"><ele>31.4</ele><time>2022-04-17T09:13:30.000Z</time></trkpt><trkpt lon="5.71919" lat="51.19094"><ele>31.4</ele><time>2022-04-17T09:13:31.000Z</time></trkpt><trkpt lon="5.719297" lat="51.190951"><ele>31.6</ele><time>2022-04-17T09:13:32.000Z</time></trkpt><trkpt lon="5.719405" lat="51.190958"><ele>31.8</ele><time>2022-04-17T09:13:33.000Z</time></trkpt><trkpt lon="5.71951" lat="51.190966"><ele>31.8</ele><time>2022-04-17T09:13:34.000Z</time></trkpt><trkpt lon="5.719611" lat="51.190974"><ele>32</ele><time>2022-04-17T09:13:35.000Z</time></trkpt><trkpt lon="5.719707" lat="51.190981"><ele>32</ele><time>2022-04-17T09:13:36.000Z</time></trkpt><trkpt lon="5.719799" lat="51.190989"><ele>32.2</ele><time>2022-04-17T09:13:37.000Z</time></trkpt><trkpt lon="5.719889" lat="51.190996"><ele>32.4</ele><time>2022-04-17T09:13:38.000Z</time></trkpt><trkpt lon="5.719978" lat="51.191005"><ele>32.8</ele><time>2022-04-17T09:13:39.000Z</time></trkpt><trkpt lon="5.72006" lat="51.191019"><ele>32.8</ele><time>2022-04-17T09:13:40.000Z</time></trkpt><trkpt lon="5.720136" lat="51.19104"><ele>33</ele><time>2022-04-17T09:13:41.000Z</time></trkpt><trkpt lon="5.720207" lat="51.191074"><ele>33</ele><time>2022-04-17T09:13:42.000Z</time></trkpt><trkpt lon="5.720274" lat="51.19112"><ele>33</ele><time>2022-04-17T09:13:43.000Z</time></trkpt><trkpt lon="5.720334" lat="51.191172"><ele>33.2</ele><time>2022-04-17T09:13:44.000Z</time></trkpt><trkpt lon="5.720393" lat="51.191224"><ele>33.2</ele><time>2022-04-17T09:13:45.000Z</time></trkpt><trkpt lon="5.720451" lat="51.191279"><ele>33.2</ele><time>2022-04-17T09:13:46.000Z</time></trkpt><trkpt lon="5.720512" lat="51.191333"><ele>33.2</ele><time>2022-04-17T09:13:47.000Z</time></trkpt><trkpt lon="5.72057" lat="51.191391"><ele>33.2</ele><time>2022-04-17T09:13:48.000Z</time></trkpt><trkpt lon="5.720631" lat="51.191448"><ele>33.2</ele><time>2022-04-17T09:13:49.000Z</time></trkpt><trkpt lon="5.720695" lat="51.191502"><ele>33.2</ele><time>2022-04-17T09:13:50.000Z</time></trkpt><trkpt lon="5.720761" lat="51.191559"><ele>33.2</ele><time>2022-04-17T09:13:51.000Z</time></trkpt><trkpt lon="5.720834" lat="51.191612"><ele>33.2</ele><time>2022-04-17T09:13:52.000Z</time></trkpt><trkpt lon="5.72091" lat="51.191661"><ele>33</ele><time>2022-04-17T09:13:53.000Z</time></trkpt><trkpt lon="5.72099" lat="51.191708"><ele>33</ele><time>2022-04-17T09:13:54.000Z</time></trkpt><trkpt lon="5.721076" lat="51.19175"><ele>32.8</ele><time>2022-04-17T09:13:55.000Z</time></trkpt><trkpt lon="5.721165" lat="51.19179"><ele>32.8</ele><time>2022-04-17T09:13:56.000Z</time></trkpt><trkpt lon="5.721255" lat="51.191827"><ele>32.8</ele><time>2022-04-17T09:13:57.000Z</time></trkpt><trkpt lon="5.721345" lat="51.191861"><ele>32.8</ele><time>2022-04-17T09:13:58.000Z</time></trkpt><trkpt lon="5.721438" lat="51.191895"><ele>33</ele><time>2022-04-17T09:13:59.000Z</time></trkpt><trkpt lon="5.721529" lat="51.191926"><ele>33.2</ele><time>2022-04-17T09:14:00.000Z</time></trkpt><trkpt lon="5.721621" lat="51.191962"><ele>33.4</ele><time>2022-04-17T09:14:01.000Z</time></trkpt><trkpt lon="5.721714" lat="51.191999"><ele>33.4</ele><time>2022-04-17T09:14:02.000Z</time></trkpt><trkpt lon="5.721806" lat="51.192033"><ele>33.4</ele><time>2022-04-17T09:14:03.000Z</time></trkpt><trkpt lon="5.721899" lat="51.192069"><ele>33.4</ele><time>2022-04-17T09:14:04.000Z</time></trkpt><trkpt lon="5.721991" lat="51.192107"><ele>33.4</ele><time>2022-04-17T09:14:05.000Z</time></trkpt><trkpt lon="5.722082" lat="51.192144"><ele>33.4</ele><time>2022-04-17T09:14:06.000Z</time></trkpt><trkpt lon="5.722171" lat="51.192178"><ele>33.2</ele><time>2022-04-17T09:14:07.000Z</time></trkpt><trkpt lon="5.722257" lat="51.19221"><ele>33.2</ele><time>2022-04-17T09:14:08.000Z</time></trkpt><trkpt lon="5.722351" lat="51.192241"><ele>33.2</ele><time>2022-04-17T09:14:09.000Z</time></trkpt><trkpt lon="5.722442" lat="51.192266"><ele>33.4</ele><time>2022-04-17T09:14:10.000Z</time></trkpt><trkpt lon="5.722537" lat="51.192285"><ele>33.2</ele><time>2022-04-17T09:14:11.000Z</time></trkpt><trkpt lon="5.722635" lat="51.192303"><ele>33.2</ele><time>2022-04-17T09:14:12.000Z</time></trkpt><trkpt lon="5.722733" lat="51.192317"><ele>33</ele><time>2022-04-17T09:14:13.000Z</time></trkpt><trkpt lon="5.722829" lat="51.192327"><ele>33</ele><time>2022-04-17T09:14:14.000Z</time></trkpt><trkpt lon="5.722926" lat="51.192329"><ele>33</ele><time>2022-04-17T09:14:15.000Z</time></trkpt><trkpt lon="5.723026" lat="51.192327"><ele>33</ele><time>2022-04-17T09:14:16.000Z</time></trkpt><trkpt lon="5.723127" lat="51.192321"><ele>33</ele><time>2022-04-17T09:14:17.000Z</time></trkpt><trkpt lon="5.723223" lat="51.192315"><ele>33</ele><time>2022-04-17T09:14:18.000Z</time></trkpt><trkpt lon="5.723322" lat="51.192303"><ele>33</ele><time>2022-04-17T09:14:19.000Z</time></trkpt><trkpt lon="5.723422" lat="51.192292"><ele>32.8</ele><time>2022-04-17T09:14:20.000Z</time></trkpt><trkpt lon="5.723523" lat="51.192281"><ele>32.6</ele><time>2022-04-17T09:14:21.000Z</time></trkpt><trkpt lon="5.723624" lat="51.19227"><ele>32.6</ele><time>2022-04-17T09:14:22.000Z</time></trkpt><trkpt lon="5.723725" lat="51.192262"><ele>32.6</ele><time>2022-04-17T09:14:23.000Z</time></trkpt><trkpt lon="5.723823" lat="51.19225"><ele>32.8</ele><time>2022-04-17T09:14:24.000Z</time></trkpt><trkpt lon="5.72392" lat="51.192239"><ele>33</ele><time>2022-04-17T09:14:25.000Z</time></trkpt><trkpt lon="5.72401" lat="51.192228"><ele>33.2</ele><time>2022-04-17T09:14:26.000Z</time></trkpt><trkpt lon="5.724097" lat="51.192222"><ele>33.6</ele><time>2022-04-17T09:14:27.000Z</time></trkpt><trkpt lon="5.724181" lat="51.192218"><ele>33.6</ele><time>2022-04-17T09:14:28.000Z</time></trkpt><trkpt lon="5.724258" lat="51.192213"><ele>33.8</ele><time>2022-04-17T09:14:29.000Z</time></trkpt><trkpt lon="5.72433" lat="51.192205"><ele>34</ele><time>2022-04-17T09:14:30.000Z</time></trkpt><trkpt lon="5.724391" lat="51.192195"><ele>34</ele><time>2022-04-17T09:14:31.000Z</time></trkpt><trkpt lon="5.724439" lat="51.192178"><ele>34.2</ele><time>2022-04-17T09:14:32.000Z</time></trkpt><trkpt lon="5.724474" lat="51.192152"><ele>34.4</ele><time>2022-04-17T09:14:33.000Z</time></trkpt><trkpt lon="5.724492" lat="51.192116"><ele>34.4</ele><time>2022-04-17T09:14:34.000Z</time></trkpt><trkpt lon="5.724498" lat="51.19207"><ele>34.4</ele><time>2022-04-17T09:14:35.000Z</time></trkpt><trkpt lon="5.724502" lat="51.192018"><ele>34.2</ele><time>2022-04-17T09:14:36.000Z</time></trkpt><trkpt lon="5.724508" lat="51.191965"><ele>34.2</ele><time>2022-04-17T09:14:37.000Z</time></trkpt><trkpt lon="5.724513" lat="51.19191"><ele>34.2</ele><time>2022-04-17T09:14:38.000Z</time></trkpt><trkpt lon="5.72452" lat="51.191853"><ele>34.4</ele><time>2022-04-17T09:14:39.000Z</time></trkpt><trkpt lon="5.724528" lat="51.191797"><ele>34.4</ele><time>2022-04-17T09:14:40.000Z</time></trkpt><trkpt lon="5.724541" lat="51.191742"><ele>34.4</ele><time>2022-04-17T09:14:41.000Z</time></trkpt><trkpt lon="5.724554" lat="51.191684"><ele>34.4</ele><time>2022-04-17T09:14:42.000Z</time></trkpt><trkpt lon="5.724569" lat="51.191623"><ele>34.2</ele><time>2022-04-17T09:14:43.000Z</time></trkpt><trkpt lon="5.724585" lat="51.191563"><ele>34.2</ele><time>2022-04-17T09:14:44.000Z</time></trkpt><trkpt lon="5.724601" lat="51.191501"><ele>34.2</ele><time>2022-04-17T09:14:45.000Z</time></trkpt><trkpt lon="5.724618" lat="51.191438"><ele>34.2</ele><time>2022-04-17T09:14:46.000Z</time></trkpt><trkpt lon="5.724641" lat="51.191376"><ele>34.2</ele><time>2022-04-17T09:14:47.000Z</time></trkpt><trkpt lon="5.724667" lat="51.191314"><ele>34</ele><time>2022-04-17T09:14:48.000Z</time></trkpt><trkpt lon="5.724695" lat="51.191249"><ele>34</ele><time>2022-04-17T09:14:49.000Z</time></trkpt><trkpt lon="5.724724" lat="51.191185"><ele>34</ele><time>2022-04-17T09:14:50.000Z</time></trkpt><trkpt lon="5.724756" lat="51.191119"><ele>33.8</ele><time>2022-04-17T09:14:51.000Z</time></trkpt><trkpt lon="5.72479" lat="51.19105"><ele>33.8</ele><time>2022-04-17T09:14:52.000Z</time></trkpt><trkpt lon="5.724824" lat="51.190985"><ele>33.8</ele><time>2022-04-17T09:14:53.000Z</time></trkpt><trkpt lon="5.724859" lat="51.190919"><ele>33.6</ele><time>2022-04-17T09:14:54.000Z</time></trkpt><trkpt lon="5.724892" lat="51.190852"><ele>33.6</ele><time>2022-04-17T09:14:55.000Z</time></trkpt><trkpt lon="5.724926" lat="51.190786"><ele>33.6</ele><time>2022-04-17T09:14:56.000Z</time></trkpt><trkpt lon="5.724962" lat="51.190719"><ele>33.6</ele><time>2022-04-17T09:14:57.000Z</time></trkpt><trkpt lon="5.724999" lat="51.190653"><ele>33.4</ele><time>2022-04-17T09:14:58.000Z</time></trkpt><trkpt lon="5.725035" lat="51.190591"><ele>33.4</ele><time>2022-04-17T09:14:59.000Z</time></trkpt><trkpt lon="5.725071" lat="51.190528"><ele>33.4</ele><time>2022-04-17T09:15:00.000Z</time></trkpt><trkpt lon="5.725106" lat="51.190462"><ele>33.4</ele><time>2022-04-17T09:15:01.000Z</time></trkpt><trkpt lon="5.725141" lat="51.190398"><ele>33.2</ele><time>2022-04-17T09:15:02.000Z</time></trkpt><trkpt lon="5.725175" lat="51.190334"><ele>33</ele><time>2022-04-17T09:15:03.000Z</time></trkpt><trkpt lon="5.725206" lat="51.190273"><ele>33</ele><time>2022-04-17T09:15:04.000Z</time></trkpt><trkpt lon="5.725237" lat="51.190211"><ele>33</ele><time>2022-04-17T09:15:05.000Z</time></trkpt><trkpt lon="5.725258" lat="51.190149"><ele>33</ele><time>2022-04-17T09:15:06.000Z</time></trkpt><trkpt lon="5.725267" lat="51.190084"><ele>33.2</ele><time>2022-04-17T09:15:07.000Z</time></trkpt><trkpt lon="5.725269" lat="51.190013"><ele>33.2</ele><time>2022-04-17T09:15:08.000Z</time></trkpt><trkpt lon="5.725274" lat="51.189942"><ele>33.4</ele><time>2022-04-17T09:15:09.000Z</time></trkpt><trkpt lon="5.725287" lat="51.189873"><ele>33.4</ele><time>2022-04-17T09:15:10.000Z</time></trkpt><trkpt lon="5.725308" lat="51.189803"><ele>33.4</ele><time>2022-04-17T09:15:11.000Z</time></trkpt><trkpt lon="5.725335" lat="51.189733"><ele>33.4</ele><time>2022-04-17T09:15:12.000Z</time></trkpt><trkpt lon="5.725363" lat="51.189666"><ele>33.4</ele><time>2022-04-17T09:15:13.000Z</time></trkpt><trkpt lon="5.725392" lat="51.189598"><ele>33.4</ele><time>2022-04-17T09:15:14.000Z</time></trkpt><trkpt lon="5.725424" lat="51.189526"><ele>33.2</ele><time>2022-04-17T09:15:15.000Z</time></trkpt><trkpt lon="5.72546" lat="51.189453"><ele>33.2</ele><time>2022-04-17T09:15:16.000Z</time></trkpt><trkpt lon="5.725492" lat="51.189387"><ele>33.2</ele><time>2022-04-17T09:15:17.000Z</time></trkpt><trkpt lon="5.725513" lat="51.189318"><ele>33.4</ele><time>2022-04-17T09:15:18.000Z</time></trkpt><trkpt lon="5.725532" lat="51.18925"><ele>33.4</ele><time>2022-04-17T09:15:19.000Z</time></trkpt><trkpt lon="5.725555" lat="51.189184"><ele>33.2</ele><time>2022-04-17T09:15:20.000Z</time></trkpt><trkpt lon="5.725581" lat="51.189117"><ele>33.2</ele><time>2022-04-17T09:15:21.000Z</time></trkpt><trkpt lon="5.725609" lat="51.189047"><ele>33.4</ele><time>2022-04-17T09:15:22.000Z</time></trkpt><trkpt lon="5.725636" lat="51.188982"><ele>33.4</ele><time>2022-04-17T09:15:23.000Z</time></trkpt><trkpt lon="5.725658" lat="51.188913"><ele>33.4</ele><time>2022-04-17T09:15:24.000Z</time></trkpt><trkpt lon="5.725676" lat="51.188845"><ele>33.4</ele><time>2022-04-17T09:15:25.000Z</time></trkpt><trkpt lon="5.72569" lat="51.188775"><ele>33.4</ele><time>2022-04-17T09:15:26.000Z</time></trkpt><trkpt lon="5.725701" lat="51.188703"><ele>33.2</ele><time>2022-04-17T09:15:27.000Z</time></trkpt><trkpt lon="5.725713" lat="51.188631"><ele>33.2</ele><time>2022-04-17T09:15:28.000Z</time></trkpt><trkpt lon="5.725725" lat="51.188562"><ele>33.2</ele><time>2022-04-17T09:15:29.000Z</time></trkpt><trkpt lon="5.725736" lat="51.188492"><ele>33.2</ele><time>2022-04-17T09:15:30.000Z</time></trkpt><trkpt lon="5.725749" lat="51.188421"><ele>33.2</ele><time>2022-04-17T09:15:31.000Z</time></trkpt><trkpt lon="5.725761" lat="51.188353"><ele>33.4</ele><time>2022-04-17T09:15:32.000Z</time></trkpt><trkpt lon="5.725771" lat="51.188283"><ele>33.2</ele><time>2022-04-17T09:15:33.000Z</time></trkpt><trkpt lon="5.725778" lat="51.188215"><ele>33</ele><time>2022-04-17T09:15:34.000Z</time></trkpt><trkpt lon="5.725781" lat="51.188143"><ele>32.8</ele><time>2022-04-17T09:15:35.000Z</time></trkpt><trkpt lon="5.72578" lat="51.188078"><ele>32.6</ele><time>2022-04-17T09:15:36.000Z</time></trkpt><trkpt lon="5.725774" lat="51.188015"><ele>32.6</ele><time>2022-04-17T09:15:37.000Z</time></trkpt><trkpt lon="5.725762" lat="51.187939"><ele>32.6</ele><time>2022-04-17T09:15:38.000Z</time></trkpt><trkpt lon="5.72575" lat="51.187864"><ele>32.6</ele><time>2022-04-17T09:15:39.000Z</time></trkpt><trkpt lon="5.725736" lat="51.187794"><ele>32.6</ele><time>2022-04-17T09:15:40.000Z</time></trkpt><trkpt lon="5.725721" lat="51.187727"><ele>32.6</ele><time>2022-04-17T09:15:41.000Z</time></trkpt><trkpt lon="5.725701" lat="51.187657"><ele>32.8</ele><time>2022-04-17T09:15:42.000Z</time></trkpt><trkpt lon="5.72568" lat="51.187585"><ele>32.8</ele><time>2022-04-17T09:15:43.000Z</time></trkpt><trkpt lon="5.725658" lat="51.187513"><ele>32.8</ele><time>2022-04-17T09:15:44.000Z</time></trkpt><trkpt lon="5.725638" lat="51.187443"><ele>32.8</ele><time>2022-04-17T09:15:45.000Z</time></trkpt><trkpt lon="5.725618" lat="51.187368"><ele>32.8</ele><time>2022-04-17T09:15:46.000Z</time></trkpt><trkpt lon="5.725596" lat="51.187295"><ele>33</ele><time>2022-04-17T09:15:47.000Z</time></trkpt><trkpt lon="5.725572" lat="51.187223"><ele>33</ele><time>2022-04-17T09:15:48.000Z</time></trkpt><trkpt lon="5.72555" lat="51.187149"><ele>32.8</ele><time>2022-04-17T09:15:49.000Z</time></trkpt><trkpt lon="5.725528" lat="51.187073"><ele>33</ele><time>2022-04-17T09:15:50.000Z</time></trkpt><trkpt lon="5.725508" lat="51.187001"><ele>33.2</ele><time>2022-04-17T09:15:51.000Z</time></trkpt><trkpt lon="5.725486" lat="51.186929"><ele>33.4</ele><time>2022-04-17T09:15:52.000Z</time></trkpt><trkpt lon="5.725465" lat="51.186856"><ele>33.4</ele><time>2022-04-17T09:15:53.000Z</time></trkpt><trkpt lon="5.725444" lat="51.186784"><ele>33.6</ele><time>2022-04-17T09:15:54.000Z</time></trkpt><trkpt lon="5.725421" lat="51.186712"><ele>33.6</ele><time>2022-04-17T09:15:55.000Z</time></trkpt><trkpt lon="5.7254" lat="51.186641"><ele>33.6</ele><time>2022-04-17T09:15:56.000Z</time></trkpt><trkpt lon="5.725378" lat="51.186572"><ele>33.6</ele><time>2022-04-17T09:15:57.000Z</time></trkpt><trkpt lon="5.725357" lat="51.186498"><ele>33.4</ele><time>2022-04-17T09:15:58.000Z</time></trkpt><trkpt lon="5.725335" lat="51.186426"><ele>33.4</ele><time>2022-04-17T09:15:59.000Z</time></trkpt><trkpt lon="5.725313" lat="51.186353"><ele>33.6</ele><time>2022-04-17T09:16:00.000Z</time></trkpt><trkpt lon="5.725291" lat="51.186281"><ele>33.4</ele><time>2022-04-17T09:16:01.000Z</time></trkpt><trkpt lon="5.72527" lat="51.18621"><ele>33.4</ele><time>2022-04-17T09:16:02.000Z</time></trkpt><trkpt lon="5.725247" lat="51.186139"><ele>33.2</ele><time>2022-04-17T09:16:03.000Z</time></trkpt><trkpt lon="5.725226" lat="51.186067"><ele>33.2</ele><time>2022-04-17T09:16:04.000Z</time></trkpt><trkpt lon="5.725205" lat="51.185999"><ele>33.2</ele><time>2022-04-17T09:16:05.000Z</time></trkpt><trkpt lon="5.725186" lat="51.185931"><ele>33.4</ele><time>2022-04-17T09:16:06.000Z</time></trkpt><trkpt lon="5.72517" lat="51.185865"><ele>33.4</ele><time>2022-04-17T09:16:07.000Z</time></trkpt><trkpt lon="5.725158" lat="51.185795"><ele>33.2</ele><time>2022-04-17T09:16:08.000Z</time></trkpt><trkpt lon="5.725153" lat="51.185728"><ele>33.4</ele><time>2022-04-17T09:16:09.000Z</time></trkpt><trkpt lon="5.725152" lat="51.185661"><ele>33.4</ele><time>2022-04-17T09:16:10.000Z</time></trkpt><trkpt lon="5.725151" lat="51.185589"><ele>33.4</ele><time>2022-04-17T09:16:11.000Z</time></trkpt><trkpt lon="5.725149" lat="51.185515"><ele>33.4</ele><time>2022-04-17T09:16:12.000Z</time></trkpt><trkpt lon="5.725146" lat="51.185441"><ele>33.2</ele><time>2022-04-17T09:16:13.000Z</time></trkpt><trkpt lon="5.725145" lat="51.185369"><ele>33.2</ele><time>2022-04-17T09:16:14.000Z</time></trkpt><trkpt lon="5.725148" lat="51.185296"><ele>33.2</ele><time>2022-04-17T09:16:15.000Z</time></trkpt><trkpt lon="5.725154" lat="51.185225"><ele>33.2</ele><time>2022-04-17T09:16:16.000Z</time></trkpt><trkpt lon="5.725162" lat="51.185157"><ele>33.4</ele><time>2022-04-17T09:16:17.000Z</time></trkpt><trkpt lon="5.725171" lat="51.185088"><ele>33.2</ele><time>2022-04-17T09:16:18.000Z</time></trkpt><trkpt lon="5.725181" lat="51.185019"><ele>33.2</ele><time>2022-04-17T09:16:19.000Z</time></trkpt><trkpt lon="5.725195" lat="51.18495"><ele>33.2</ele><time>2022-04-17T09:16:20.000Z</time></trkpt><trkpt lon="5.725211" lat="51.184884"><ele>33</ele><time>2022-04-17T09:16:21.000Z</time></trkpt><trkpt lon="5.725228" lat="51.184818"><ele>33</ele><time>2022-04-17T09:16:22.000Z</time></trkpt><trkpt lon="5.725247" lat="51.184748"><ele>33.2</ele><time>2022-04-17T09:16:23.000Z</time></trkpt><trkpt lon="5.725268" lat="51.184681"><ele>33.2</ele><time>2022-04-17T09:16:24.000Z</time></trkpt><trkpt lon="5.72529" lat="51.184614"><ele>33.2</ele><time>2022-04-17T09:16:25.000Z</time></trkpt><trkpt lon="5.725311" lat="51.184547"><ele>33</ele><time>2022-04-17T09:16:26.000Z</time></trkpt><trkpt lon="5.725336" lat="51.184481"><ele>33</ele><time>2022-04-17T09:16:27.000Z</time></trkpt><trkpt lon="5.725363" lat="51.184412"><ele>33</ele><time>2022-04-17T09:16:28.000Z</time></trkpt><trkpt lon="5.725388" lat="51.184345"><ele>33</ele><time>2022-04-17T09:16:29.000Z</time></trkpt><trkpt lon="5.725413" lat="51.184279"><ele>32.8</ele><time>2022-04-17T09:16:30.000Z</time></trkpt><trkpt lon="5.725437" lat="51.184211"><ele>32.6</ele><time>2022-04-17T09:16:31.000Z</time></trkpt><trkpt lon="5.725463" lat="51.184143"><ele>32.6</ele><time>2022-04-17T09:16:32.000Z</time></trkpt><trkpt lon="5.725487" lat="51.184078"><ele>32.8</ele><time>2022-04-17T09:16:33.000Z</time></trkpt><trkpt lon="5.725514" lat="51.184004"><ele>32.8</ele><time>2022-04-17T09:16:34.000Z</time></trkpt><trkpt lon="5.725541" lat="51.183936"><ele>33</ele><time>2022-04-17T09:16:35.000Z</time></trkpt><trkpt lon="5.725567" lat="51.183867"><ele>33.2</ele><time>2022-04-17T09:16:36.000Z</time></trkpt><trkpt lon="5.725593" lat="51.1838"><ele>33</ele><time>2022-04-17T09:16:37.000Z</time></trkpt><trkpt lon="5.725619" lat="51.183734"><ele>33</ele><time>2022-04-17T09:16:38.000Z</time></trkpt><trkpt lon="5.725651" lat="51.183661"><ele>32.8</ele><time>2022-04-17T09:16:39.000Z</time></trkpt><trkpt lon="5.72568" lat="51.183595"><ele>32.4</ele><time>2022-04-17T09:16:40.000Z</time></trkpt><trkpt lon="5.72571" lat="51.183533"><ele>32.6</ele><time>2022-04-17T09:16:41.000Z</time></trkpt><trkpt lon="5.725739" lat="51.18347"><ele>32.8</ele><time>2022-04-17T09:16:42.000Z</time></trkpt><trkpt lon="5.725765" lat="51.183407"><ele>32.8</ele><time>2022-04-17T09:16:43.000Z</time></trkpt><trkpt lon="5.725787" lat="51.183338"><ele>33</ele><time>2022-04-17T09:16:44.000Z</time></trkpt><trkpt lon="5.72581" lat="51.183272"><ele>33</ele><time>2022-04-17T09:16:45.000Z</time></trkpt><trkpt lon="5.725832" lat="51.183204"><ele>33</ele><time>2022-04-17T09:16:46.000Z</time></trkpt><trkpt lon="5.725853" lat="51.183138"><ele>33</ele><time>2022-04-17T09:16:47.000Z</time></trkpt><trkpt lon="5.725875" lat="51.183068"><ele>33</ele><time>2022-04-17T09:16:48.000Z</time></trkpt><trkpt lon="5.725898" lat="51.183001"><ele>33</ele><time>2022-04-17T09:16:49.000Z</time></trkpt><trkpt lon="5.725923" lat="51.182937"><ele>32.8</ele><time>2022-04-17T09:16:50.000Z</time></trkpt><trkpt lon="5.725947" lat="51.182873"><ele>32.8</ele><time>2022-04-17T09:16:51.000Z</time></trkpt><trkpt lon="5.725969" lat="51.182806"><ele>32.8</ele><time>2022-04-17T09:16:52.000Z</time></trkpt><trkpt lon="5.725991" lat="51.182738"><ele>33</ele><time>2022-04-17T09:16:53.000Z</time></trkpt><trkpt lon="5.726017" lat="51.182668"><ele>33</ele><time>2022-04-17T09:16:54.000Z</time></trkpt><trkpt lon="5.726045" lat="51.182598"><ele>33.2</ele><time>2022-04-17T09:16:55.000Z</time></trkpt><trkpt lon="5.726072" lat="51.182527"><ele>33.2</ele><time>2022-04-17T09:16:56.000Z</time></trkpt><trkpt lon="5.726099" lat="51.182456"><ele>33</ele><time>2022-04-17T09:16:57.000Z</time></trkpt><trkpt lon="5.726128" lat="51.182387"><ele>33.2</ele><time>2022-04-17T09:16:58.000Z</time></trkpt><trkpt lon="5.726154" lat="51.182317"><ele>33.2</ele><time>2022-04-17T09:16:59.000Z</time></trkpt><trkpt lon="5.72618" lat="51.182246"><ele>33.4</ele><time>2022-04-17T09:17:00.000Z</time></trkpt><trkpt lon="5.726204" lat="51.182178"><ele>33.4</ele><time>2022-04-17T09:17:01.000Z</time></trkpt><trkpt lon="5.726232" lat="51.182109"><ele>33.2</ele><time>2022-04-17T09:17:02.000Z</time></trkpt><trkpt lon="5.726261" lat="51.18204"><ele>33.2</ele><time>2022-04-17T09:17:03.000Z</time></trkpt><trkpt lon="5.72629" lat="51.181971"><ele>33</ele><time>2022-04-17T09:17:04.000Z</time></trkpt><trkpt lon="5.726317" lat="51.181901"><ele>32.8</ele><time>2022-04-17T09:17:05.000Z</time></trkpt><trkpt lon="5.72634" lat="51.181835"><ele>32.6</ele><time>2022-04-17T09:17:06.000Z</time></trkpt><trkpt lon="5.726367" lat="51.181757"><ele>32.6</ele><time>2022-04-17T09:17:07.000Z</time></trkpt><trkpt lon="5.726389" lat="51.181689"><ele>32.6</ele><time>2022-04-17T09:17:08.000Z</time></trkpt><trkpt lon="5.726411" lat="51.181625"><ele>32.8</ele><time>2022-04-17T09:17:09.000Z</time></trkpt><trkpt lon="5.726436" lat="51.18156"><ele>32.8</ele><time>2022-04-17T09:17:10.000Z</time></trkpt><trkpt lon="5.726466" lat="51.181496"><ele>33</ele><time>2022-04-17T09:17:11.000Z</time></trkpt><trkpt lon="5.726497" lat="51.181435"><ele>33.2</ele><time>2022-04-17T09:17:12.000Z</time></trkpt><trkpt lon="5.726527" lat="51.181366"><ele>33.2</ele><time>2022-04-17T09:17:13.000Z</time></trkpt><trkpt lon="5.726554" lat="51.181299"><ele>33.2</ele><time>2022-04-17T09:17:14.000Z</time></trkpt><trkpt lon="5.726577" lat="51.181231"><ele>33.4</ele><time>2022-04-17T09:17:15.000Z</time></trkpt><trkpt lon="5.726599" lat="51.181163"><ele>33.2</ele><time>2022-04-17T09:17:16.000Z</time></trkpt><trkpt lon="5.726624" lat="51.181095"><ele>33</ele><time>2022-04-17T09:17:17.000Z</time></trkpt><trkpt lon="5.72665" lat="51.181025"><ele>33</ele><time>2022-04-17T09:17:18.000Z</time></trkpt><trkpt lon="5.726675" lat="51.180957"><ele>33</ele><time>2022-04-17T09:17:19.000Z</time></trkpt><trkpt lon="5.726698" lat="51.180889"><ele>33.2</ele><time>2022-04-17T09:17:20.000Z</time></trkpt><trkpt lon="5.72672" lat="51.180823"><ele>33.4</ele><time>2022-04-17T09:17:21.000Z</time></trkpt><trkpt lon="5.726748" lat="51.180749"><ele>33.4</ele><time>2022-04-17T09:17:22.000Z</time></trkpt><trkpt lon="5.726774" lat="51.180676"><ele>33.4</ele><time>2022-04-17T09:17:23.000Z</time></trkpt><trkpt lon="5.726802" lat="51.180605"><ele>33.4</ele><time>2022-04-17T09:17:24.000Z</time></trkpt><trkpt lon="5.72683" lat="51.180531"><ele>33.6</ele><time>2022-04-17T09:17:25.000Z</time></trkpt><trkpt lon="5.726858" lat="51.180458"><ele>33.8</ele><time>2022-04-17T09:17:26.000Z</time></trkpt><trkpt lon="5.726887" lat="51.180389"><ele>33.6</ele><time>2022-04-17T09:17:27.000Z</time></trkpt><trkpt lon="5.726913" lat="51.180316"><ele>33.6</ele><time>2022-04-17T09:17:28.000Z</time></trkpt><trkpt lon="5.726937" lat="51.180246"><ele>33.6</ele><time>2022-04-17T09:17:29.000Z</time></trkpt><trkpt lon="5.726961" lat="51.180174"><ele>33.6</ele><time>2022-04-17T09:17:30.000Z</time></trkpt><trkpt lon="5.726986" lat="51.180103"><ele>33.4</ele><time>2022-04-17T09:17:31.000Z</time></trkpt><trkpt lon="5.727014" lat="51.180029"><ele>33.4</ele><time>2022-04-17T09:17:32.000Z</time></trkpt><trkpt lon="5.72704" lat="51.179959"><ele>33.4</ele><time>2022-04-17T09:17:33.000Z</time></trkpt><trkpt lon="5.727067" lat="51.179892"><ele>33.4</ele><time>2022-04-17T09:17:34.000Z</time></trkpt><trkpt lon="5.727096" lat="51.179819"><ele>33.4</ele><time>2022-04-17T09:17:35.000Z</time></trkpt><trkpt lon="5.727123" lat="51.179748"><ele>33.2</ele><time>2022-04-17T09:17:36.000Z</time></trkpt><trkpt lon="5.72715" lat="51.179677"><ele>33.2</ele><time>2022-04-17T09:17:37.000Z</time></trkpt><trkpt lon="5.727178" lat="51.179603"><ele>33.2</ele><time>2022-04-17T09:17:38.000Z</time></trkpt><trkpt lon="5.727206" lat="51.179533"><ele>33.2</ele><time>2022-04-17T09:17:39.000Z</time></trkpt><trkpt lon="5.727232" lat="51.17946"><ele>33</ele><time>2022-04-17T09:17:40.000Z</time></trkpt><trkpt lon="5.727257" lat="51.179389"><ele>32.8</ele><time>2022-04-17T09:17:41.000Z</time></trkpt><trkpt lon="5.727282" lat="51.179321"><ele>32.8</ele><time>2022-04-17T09:17:42.000Z</time></trkpt><trkpt lon="5.727308" lat="51.179252"><ele>32.8</ele><time>2022-04-17T09:17:43.000Z</time></trkpt><trkpt lon="5.727334" lat="51.179183"><ele>33</ele><time>2022-04-17T09:17:44.000Z</time></trkpt><trkpt lon="5.72736" lat="51.179114"><ele>33</ele><time>2022-04-17T09:17:45.000Z</time></trkpt><trkpt lon="5.727383" lat="51.179043"><ele>32.8</ele><time>2022-04-17T09:17:46.000Z</time></trkpt><trkpt lon="5.727405" lat="51.178973"><ele>32.8</ele><time>2022-04-17T09:17:47.000Z</time></trkpt><trkpt lon="5.727428" lat="51.178901"><ele>32.8</ele><time>2022-04-17T09:17:48.000Z</time></trkpt><trkpt lon="5.727456" lat="51.178833"><ele>32.8</ele><time>2022-04-17T09:17:49.000Z</time></trkpt><trkpt lon="5.727487" lat="51.178764"><ele>32.8</ele><time>2022-04-17T09:17:50.000Z</time></trkpt><trkpt lon="5.727518" lat="51.178694"><ele>32.8</ele><time>2022-04-17T09:17:51.000Z</time></trkpt><trkpt lon="5.727546" lat="51.178623"><ele>32.8</ele><time>2022-04-17T09:17:52.000Z</time></trkpt><trkpt lon="5.727574" lat="51.178553"><ele>32.8</ele><time>2022-04-17T09:17:53.000Z</time></trkpt><trkpt lon="5.727601" lat="51.178482"><ele>33</ele><time>2022-04-17T09:17:54.000Z</time></trkpt><trkpt lon="5.727628" lat="51.178412"><ele>33</ele><time>2022-04-17T09:17:55.000Z</time></trkpt><trkpt lon="5.727653" lat="51.178341"><ele>33</ele><time>2022-04-17T09:17:56.000Z</time></trkpt><trkpt lon="5.727677" lat="51.178272"><ele>33</ele><time>2022-04-17T09:17:57.000Z</time></trkpt><trkpt lon="5.727704" lat="51.178199"><ele>33</ele><time>2022-04-17T09:17:58.000Z</time></trkpt><trkpt lon="5.72773" lat="51.178131"><ele>33.2</ele><time>2022-04-17T09:17:59.000Z</time></trkpt><trkpt lon="5.72776" lat="51.178062"><ele>33.2</ele><time>2022-04-17T09:18:00.000Z</time></trkpt><trkpt lon="5.727788" lat="51.177993"><ele>33.2</ele><time>2022-04-17T09:18:01.000Z</time></trkpt><trkpt lon="5.727817" lat="51.177924"><ele>32.8</ele><time>2022-04-17T09:18:02.000Z</time></trkpt><trkpt lon="5.727847" lat="51.177856"><ele>32.6</ele><time>2022-04-17T09:18:03.000Z</time></trkpt><trkpt lon="5.727874" lat="51.177787"><ele>32.6</ele><time>2022-04-17T09:18:04.000Z</time></trkpt><trkpt lon="5.727902" lat="51.177718"><ele>32.6</ele><time>2022-04-17T09:18:05.000Z</time></trkpt><trkpt lon="5.727929" lat="51.17765"><ele>32.6</ele><time>2022-04-17T09:18:06.000Z</time></trkpt><trkpt lon="5.727955" lat="51.17758"><ele>32.6</ele><time>2022-04-17T09:18:07.000Z</time></trkpt><trkpt lon="5.727983" lat="51.17751"><ele>32.6</ele><time>2022-04-17T09:18:08.000Z</time></trkpt><trkpt lon="5.728011" lat="51.177443"><ele>32.8</ele><time>2022-04-17T09:18:09.000Z</time></trkpt><trkpt lon="5.728043" lat="51.177376"><ele>32.8</ele><time>2022-04-17T09:18:10.000Z</time></trkpt><trkpt lon="5.728077" lat="51.177312"><ele>32.8</ele><time>2022-04-17T09:18:11.000Z</time></trkpt><trkpt lon="5.728116" lat="51.177249"><ele>32.8</ele><time>2022-04-17T09:18:12.000Z</time></trkpt><trkpt lon="5.728159" lat="51.177186"><ele>32.8</ele><time>2022-04-17T09:18:13.000Z</time></trkpt><trkpt lon="5.728204" lat="51.177126"><ele>32.8</ele><time>2022-04-17T09:18:14.000Z</time></trkpt><trkpt lon="5.728253" lat="51.177065"><ele>33</ele><time>2022-04-17T09:18:15.000Z</time></trkpt><trkpt lon="5.728308" lat="51.177005"><ele>33</ele><time>2022-04-17T09:18:16.000Z</time></trkpt><trkpt lon="5.728369" lat="51.176947"><ele>32.8</ele><time>2022-04-17T09:18:17.000Z</time></trkpt><trkpt lon="5.728431" lat="51.176893"><ele>32.8</ele><time>2022-04-17T09:18:18.000Z</time></trkpt><trkpt lon="5.728496" lat="51.176843"><ele>32.8</ele><time>2022-04-17T09:18:19.000Z</time></trkpt><trkpt lon="5.728568" lat="51.17679"><ele>32.6</ele><time>2022-04-17T09:18:20.000Z</time></trkpt><trkpt lon="5.728642" lat="51.176743"><ele>32.2</ele><time>2022-04-17T09:18:21.000Z</time></trkpt><trkpt lon="5.728717" lat="51.176694"><ele>32</ele><time>2022-04-17T09:18:22.000Z</time></trkpt><trkpt lon="5.728792" lat="51.176646"><ele>32</ele><time>2022-04-17T09:18:23.000Z</time></trkpt><trkpt lon="5.728869" lat="51.176599"><ele>32</ele><time>2022-04-17T09:18:24.000Z</time></trkpt><trkpt lon="5.728944" lat="51.17655"><ele>32</ele><time>2022-04-17T09:18:25.000Z</time></trkpt><trkpt lon="5.729018" lat="51.176502"><ele>32.2</ele><time>2022-04-17T09:18:26.000Z</time></trkpt><trkpt lon="5.729097" lat="51.176454"><ele>32.2</ele><time>2022-04-17T09:18:27.000Z</time></trkpt><trkpt lon="5.729176" lat="51.176403"><ele>32.4</ele><time>2022-04-17T09:18:28.000Z</time></trkpt><trkpt lon="5.729256" lat="51.176352"><ele>32.6</ele><time>2022-04-17T09:18:29.000Z</time></trkpt><trkpt lon="5.729335" lat="51.176305"><ele>32.8</ele><time>2022-04-17T09:18:30.000Z</time></trkpt><trkpt lon="5.729414" lat="51.176255"><ele>32.8</ele><time>2022-04-17T09:18:31.000Z</time></trkpt><trkpt lon="5.72949" lat="51.176205"><ele>32.8</ele><time>2022-04-17T09:18:32.000Z</time></trkpt><trkpt lon="5.729568" lat="51.176153"><ele>32.8</ele><time>2022-04-17T09:18:33.000Z</time></trkpt><trkpt lon="5.729646" lat="51.176107"><ele>32.8</ele><time>2022-04-17T09:18:34.000Z</time></trkpt><trkpt lon="5.729727" lat="51.176057"><ele>32.8</ele><time>2022-04-17T09:18:35.000Z</time></trkpt><trkpt lon="5.729808" lat="51.176008"><ele>32.8</ele><time>2022-04-17T09:18:36.000Z</time></trkpt><trkpt lon="5.729886" lat="51.175959"><ele>32.6</ele><time>2022-04-17T09:18:37.000Z</time></trkpt><trkpt lon="5.729966" lat="51.175908"><ele>32.6</ele><time>2022-04-17T09:18:38.000Z</time></trkpt><trkpt lon="5.730043" lat="51.175858"><ele>32.8</ele><time>2022-04-17T09:18:39.000Z</time></trkpt><trkpt lon="5.730118" lat="51.175808"><ele>32.8</ele><time>2022-04-17T09:18:40.000Z</time></trkpt><trkpt lon="5.730193" lat="51.175757"><ele>32.8</ele><time>2022-04-17T09:18:41.000Z</time></trkpt><trkpt lon="5.730269" lat="51.17571"><ele>32.6</ele><time>2022-04-17T09:18:42.000Z</time></trkpt><trkpt lon="5.730343" lat="51.17566"><ele>32.8</ele><time>2022-04-17T09:18:43.000Z</time></trkpt><trkpt lon="5.730418" lat="51.175611"><ele>33</ele><time>2022-04-17T09:18:44.000Z</time></trkpt><trkpt lon="5.730494" lat="51.175562"><ele>33</ele><time>2022-04-17T09:18:45.000Z</time></trkpt><trkpt lon="5.730572" lat="51.175517"><ele>33.2</ele><time>2022-04-17T09:18:46.000Z</time></trkpt><trkpt lon="5.730653" lat="51.175469"><ele>33.2</ele><time>2022-04-17T09:18:47.000Z</time></trkpt><trkpt lon="5.730732" lat="51.17542"><ele>33.2</ele><time>2022-04-17T09:18:48.000Z</time></trkpt><trkpt lon="5.73081" lat="51.175371"><ele>33.2</ele><time>2022-04-17T09:18:49.000Z</time></trkpt><trkpt lon="5.730888" lat="51.17532"><ele>33.4</ele><time>2022-04-17T09:18:50.000Z</time></trkpt><trkpt lon="5.730965" lat="51.175268"><ele>33.4</ele><time>2022-04-17T09:18:51.000Z</time></trkpt><trkpt lon="5.731043" lat="51.175219"><ele>33.4</ele><time>2022-04-17T09:18:52.000Z</time></trkpt><trkpt lon="5.731119" lat="51.175173"><ele>33.4</ele><time>2022-04-17T09:18:53.000Z</time></trkpt><trkpt lon="5.731191" lat="51.175129"><ele>33.4</ele><time>2022-04-17T09:18:54.000Z</time></trkpt><trkpt lon="5.731259" lat="51.175085"><ele>33.4</ele><time>2022-04-17T09:18:55.000Z</time></trkpt><trkpt lon="5.731326" lat="51.175041"><ele>33.4</ele><time>2022-04-17T09:18:56.000Z</time></trkpt><trkpt lon="5.731393" lat="51.174999"><ele>33.6</ele><time>2022-04-17T09:18:57.000Z</time></trkpt><trkpt lon="5.731462" lat="51.174957"><ele>33.6</ele><time>2022-04-17T09:18:58.000Z</time></trkpt><trkpt lon="5.731535" lat="51.174914"><ele>33.8</ele><time>2022-04-17T09:18:59.000Z</time></trkpt><trkpt lon="5.731612" lat="51.174868"><ele>33.6</ele><time>2022-04-17T09:19:00.000Z</time></trkpt><trkpt lon="5.731688" lat="51.174822"><ele>33.6</ele><time>2022-04-17T09:19:01.000Z</time></trkpt><trkpt lon="5.731764" lat="51.174776"><ele>33.4</ele><time>2022-04-17T09:19:02.000Z</time></trkpt><trkpt lon="5.731839" lat="51.17473"><ele>33.2</ele><time>2022-04-17T09:19:03.000Z</time></trkpt><trkpt lon="5.731912" lat="51.174685"><ele>33.4</ele><time>2022-04-17T09:19:04.000Z</time></trkpt><trkpt lon="5.731985" lat="51.17464"><ele>33.4</ele><time>2022-04-17T09:19:05.000Z</time></trkpt><trkpt lon="5.732057" lat="51.174597"><ele>33.6</ele><time>2022-04-17T09:19:06.000Z</time></trkpt><trkpt lon="5.732129" lat="51.174551"><ele>33.6</ele><time>2022-04-17T09:19:07.000Z</time></trkpt><trkpt lon="5.732201" lat="51.174505"><ele>33.8</ele><time>2022-04-17T09:19:08.000Z</time></trkpt><trkpt lon="5.732272" lat="51.17446"><ele>33.8</ele><time>2022-04-17T09:19:09.000Z</time></trkpt><trkpt lon="5.732345" lat="51.174414"><ele>33.8</ele><time>2022-04-17T09:19:10.000Z</time></trkpt><trkpt lon="5.73242" lat="51.174367"><ele>33.8</ele><time>2022-04-17T09:19:11.000Z</time></trkpt><trkpt lon="5.732493" lat="51.174319"><ele>33.8</ele><time>2022-04-17T09:19:12.000Z</time></trkpt><trkpt lon="5.732568" lat="51.174273"><ele>33.6</ele><time>2022-04-17T09:19:13.000Z</time></trkpt><trkpt lon="5.732641" lat="51.174227"><ele>33.8</ele><time>2022-04-17T09:19:14.000Z</time></trkpt><trkpt lon="5.732716" lat="51.174181"><ele>33.8</ele><time>2022-04-17T09:19:15.000Z</time></trkpt><trkpt lon="5.73279" lat="51.174136"><ele>33.8</ele><time>2022-04-17T09:19:16.000Z</time></trkpt><trkpt lon="5.732864" lat="51.17409"><ele>34</ele><time>2022-04-17T09:19:17.000Z</time></trkpt><trkpt lon="5.732939" lat="51.174043"><ele>34</ele><time>2022-04-17T09:19:18.000Z</time></trkpt><trkpt lon="5.733012" lat="51.173996"><ele>34</ele><time>2022-04-17T09:19:19.000Z</time></trkpt><trkpt lon="5.733085" lat="51.173949"><ele>34</ele><time>2022-04-17T09:19:20.000Z</time></trkpt><trkpt lon="5.733161" lat="51.173899"><ele>34</ele><time>2022-04-17T09:19:21.000Z</time></trkpt><trkpt lon="5.733236" lat="51.173852"><ele>34</ele><time>2022-04-17T09:19:22.000Z</time></trkpt><trkpt lon="5.733312" lat="51.173804"><ele>34</ele><time>2022-04-17T09:19:23.000Z</time></trkpt><trkpt lon="5.733389" lat="51.173758"><ele>34</ele><time>2022-04-17T09:19:24.000Z</time></trkpt><trkpt lon="5.733464" lat="51.173712"><ele>34</ele><time>2022-04-17T09:19:25.000Z</time></trkpt><trkpt lon="5.73354" lat="51.173666"><ele>34</ele><time>2022-04-17T09:19:26.000Z</time></trkpt><trkpt lon="5.733616" lat="51.173617"><ele>34.2</ele><time>2022-04-17T09:19:27.000Z</time></trkpt><trkpt lon="5.73369" lat="51.173571"><ele>34.2</ele><time>2022-04-17T09:19:28.000Z</time></trkpt><trkpt lon="5.733764" lat="51.173525"><ele>34.2</ele><time>2022-04-17T09:19:29.000Z</time></trkpt><trkpt lon="5.733838" lat="51.173479"><ele>34.2</ele><time>2022-04-17T09:19:30.000Z</time></trkpt><trkpt lon="5.733912" lat="51.173436"><ele>34.2</ele><time>2022-04-17T09:19:31.000Z</time></trkpt><trkpt lon="5.733989" lat="51.173395"><ele>34.2</ele><time>2022-04-17T09:19:32.000Z</time></trkpt><trkpt lon="5.734065" lat="51.173349"><ele>34.2</ele><time>2022-04-17T09:19:33.000Z</time></trkpt><trkpt lon="5.734141" lat="51.173299"><ele>34</ele><time>2022-04-17T09:19:34.000Z</time></trkpt><trkpt lon="5.734214" lat="51.173251"><ele>33.8</ele><time>2022-04-17T09:19:35.000Z</time></trkpt><trkpt lon="5.734287" lat="51.173204"><ele>33.8</ele><time>2022-04-17T09:19:36.000Z</time></trkpt><trkpt lon="5.73436" lat="51.173153"><ele>34</ele><time>2022-04-17T09:19:37.000Z</time></trkpt><trkpt lon="5.734431" lat="51.173104"><ele>34</ele><time>2022-04-17T09:19:38.000Z</time></trkpt><trkpt lon="5.734504" lat="51.173059"><ele>34</ele><time>2022-04-17T09:19:39.000Z</time></trkpt><trkpt lon="5.734575" lat="51.17301"><ele>34</ele><time>2022-04-17T09:19:40.000Z</time></trkpt><trkpt lon="5.734645" lat="51.172965"><ele>34</ele><time>2022-04-17T09:19:41.000Z</time></trkpt><trkpt lon="5.734716" lat="51.172918"><ele>34</ele><time>2022-04-17T09:19:42.000Z</time></trkpt><trkpt lon="5.734786" lat="51.172869"><ele>34</ele><time>2022-04-17T09:19:43.000Z</time></trkpt><trkpt lon="5.734855" lat="51.172823"><ele>34.2</ele><time>2022-04-17T09:19:44.000Z</time></trkpt><trkpt lon="5.734924" lat="51.172778"><ele>34.2</ele><time>2022-04-17T09:19:45.000Z</time></trkpt><trkpt lon="5.734997" lat="51.172732"><ele>34</ele><time>2022-04-17T09:19:46.000Z</time></trkpt><trkpt lon="5.735072" lat="51.172686"><ele>34.2</ele><time>2022-04-17T09:19:47.000Z</time></trkpt><trkpt lon="5.735146" lat="51.172641"><ele>34.2</ele><time>2022-04-17T09:19:48.000Z</time></trkpt><trkpt lon="5.735216" lat="51.172598"><ele>34.2</ele><time>2022-04-17T09:19:49.000Z</time></trkpt><trkpt lon="5.735285" lat="51.172552"><ele>34</ele><time>2022-04-17T09:19:50.000Z</time></trkpt><trkpt lon="5.735353" lat="51.172507"><ele>33.8</ele><time>2022-04-17T09:19:51.000Z</time></trkpt><trkpt lon="5.735421" lat="51.172462"><ele>33.8</ele><time>2022-04-17T09:19:52.000Z</time></trkpt><trkpt lon="5.735491" lat="51.172419"><ele>33.8</ele><time>2022-04-17T09:19:53.000Z</time></trkpt><trkpt lon="5.735563" lat="51.172372"><ele>34</ele><time>2022-04-17T09:19:54.000Z</time></trkpt><trkpt lon="5.735633" lat="51.172322"><ele>34</ele><time>2022-04-17T09:19:55.000Z</time></trkpt><trkpt lon="5.735702" lat="51.172268"><ele>34.2</ele><time>2022-04-17T09:19:56.000Z</time></trkpt><trkpt lon="5.735765" lat="51.172212"><ele>34.2</ele><time>2022-04-17T09:19:57.000Z</time></trkpt><trkpt lon="5.735823" lat="51.172151"><ele>34.2</ele><time>2022-04-17T09:19:58.000Z</time></trkpt><trkpt lon="5.73588" lat="51.172089"><ele>34.2</ele><time>2022-04-17T09:19:59.000Z</time></trkpt><trkpt lon="5.735938" lat="51.172025"><ele>34.2</ele><time>2022-04-17T09:20:00.000Z</time></trkpt><trkpt lon="5.735994" lat="51.171963"><ele>34.2</ele><time>2022-04-17T09:20:01.000Z</time></trkpt><trkpt lon="5.736049" lat="51.171899"><ele>34.2</ele><time>2022-04-17T09:20:02.000Z</time></trkpt><trkpt lon="5.736102" lat="51.171834"><ele>34.2</ele><time>2022-04-17T09:20:03.000Z</time></trkpt><trkpt lon="5.736152" lat="51.171768"><ele>34</ele><time>2022-04-17T09:20:04.000Z</time></trkpt><trkpt lon="5.736199" lat="51.171701"><ele>34</ele><time>2022-04-17T09:20:05.000Z</time></trkpt><trkpt lon="5.736245" lat="51.171635"><ele>34.2</ele><time>2022-04-17T09:20:06.000Z</time></trkpt><trkpt lon="5.736289" lat="51.171567"><ele>34.2</ele><time>2022-04-17T09:20:07.000Z</time></trkpt><trkpt lon="5.736331" lat="51.171501"><ele>34.4</ele><time>2022-04-17T09:20:08.000Z</time></trkpt><trkpt lon="5.736371" lat="51.171432"><ele>34.4</ele><time>2022-04-17T09:20:09.000Z</time></trkpt><trkpt lon="5.736408" lat="51.171369"><ele>34.6</ele><time>2022-04-17T09:20:10.000Z</time></trkpt><trkpt lon="5.736445" lat="51.171307"><ele>34.6</ele><time>2022-04-17T09:20:11.000Z</time></trkpt><trkpt lon="5.73648" lat="51.171242"><ele>34.6</ele><time>2022-04-17T09:20:12.000Z</time></trkpt><trkpt lon="5.736515" lat="51.171178"><ele>34.6</ele><time>2022-04-17T09:20:13.000Z</time></trkpt><trkpt lon="5.736549" lat="51.171114"><ele>34.6</ele><time>2022-04-17T09:20:14.000Z</time></trkpt><trkpt lon="5.736587" lat="51.171049"><ele>34.6</ele><time>2022-04-17T09:20:15.000Z</time></trkpt><trkpt lon="5.736625" lat="51.170983"><ele>34.6</ele><time>2022-04-17T09:20:16.000Z</time></trkpt><trkpt lon="5.736662" lat="51.170919"><ele>34.6</ele><time>2022-04-17T09:20:17.000Z</time></trkpt><trkpt lon="5.736701" lat="51.170852"><ele>34.6</ele><time>2022-04-17T09:20:18.000Z</time></trkpt><trkpt lon="5.736739" lat="51.170785"><ele>34.4</ele><time>2022-04-17T09:20:19.000Z</time></trkpt><trkpt lon="5.736775" lat="51.17072"><ele>34.4</ele><time>2022-04-17T09:20:20.000Z</time></trkpt><trkpt lon="5.736812" lat="51.170656"><ele>34.4</ele><time>2022-04-17T09:20:21.000Z</time></trkpt><trkpt lon="5.736846" lat="51.170594"><ele>34.6</ele><time>2022-04-17T09:20:22.000Z</time></trkpt><trkpt lon="5.73688" lat="51.17053"><ele>34.6</ele><time>2022-04-17T09:20:23.000Z</time></trkpt><trkpt lon="5.736916" lat="51.170468"><ele>34.6</ele><time>2022-04-17T09:20:24.000Z</time></trkpt><trkpt lon="5.736952" lat="51.170404"><ele>34.6</ele><time>2022-04-17T09:20:25.000Z</time></trkpt><trkpt lon="5.736987" lat="51.170342"><ele>34.6</ele><time>2022-04-17T09:20:26.000Z</time></trkpt><trkpt lon="5.73702" lat="51.170279"><ele>34.6</ele><time>2022-04-17T09:20:27.000Z</time></trkpt><trkpt lon="5.737053" lat="51.170217"><ele>34.6</ele><time>2022-04-17T09:20:28.000Z</time></trkpt><trkpt lon="5.737086" lat="51.170152"><ele>34.4</ele><time>2022-04-17T09:20:29.000Z</time></trkpt><trkpt lon="5.73712" lat="51.170086"><ele>34.2</ele><time>2022-04-17T09:20:30.000Z</time></trkpt><trkpt lon="5.737154" lat="51.170023"><ele>34</ele><time>2022-04-17T09:20:31.000Z</time></trkpt><trkpt lon="5.737191" lat="51.169962"><ele>34</ele><time>2022-04-17T09:20:32.000Z</time></trkpt><trkpt lon="5.737226" lat="51.1699"><ele>34</ele><time>2022-04-17T09:20:33.000Z</time></trkpt><trkpt lon="5.737258" lat="51.169837"><ele>34.2</ele><time>2022-04-17T09:20:34.000Z</time></trkpt><trkpt lon="5.737288" lat="51.16978"><ele>34.2</ele><time>2022-04-17T09:20:35.000Z</time></trkpt><trkpt lon="5.737319" lat="51.169723"><ele>34.2</ele><time>2022-04-17T09:20:36.000Z</time></trkpt><trkpt lon="5.73735" lat="51.169667"><ele>34</ele><time>2022-04-17T09:20:37.000Z</time></trkpt><trkpt lon="5.73738" lat="51.169613"><ele>33.8</ele><time>2022-04-17T09:20:38.000Z</time></trkpt><trkpt lon="5.737412" lat="51.16955"><ele>33.8</ele><time>2022-04-17T09:20:39.000Z</time></trkpt><trkpt lon="5.737442" lat="51.169493"><ele>33.8</ele><time>2022-04-17T09:20:40.000Z</time></trkpt><trkpt lon="5.737475" lat="51.169435"><ele>33.8</ele><time>2022-04-17T09:20:41.000Z</time></trkpt><trkpt lon="5.737511" lat="51.16937"><ele>33.8</ele><time>2022-04-17T09:20:42.000Z</time></trkpt><trkpt lon="5.737548" lat="51.169304"><ele>33.8</ele><time>2022-04-17T09:20:43.000Z</time></trkpt><trkpt lon="5.737584" lat="51.16924"><ele>33.8</ele><time>2022-04-17T09:20:44.000Z</time></trkpt><trkpt lon="5.73762" lat="51.169178"><ele>33.6</ele><time>2022-04-17T09:20:45.000Z</time></trkpt><trkpt lon="5.737658" lat="51.169113"><ele>33.4</ele><time>2022-04-17T09:20:46.000Z</time></trkpt><trkpt lon="5.737696" lat="51.169049"><ele>33.4</ele><time>2022-04-17T09:20:47.000Z</time></trkpt><trkpt lon="5.737732" lat="51.168983"><ele>33.4</ele><time>2022-04-17T09:20:48.000Z</time></trkpt><trkpt lon="5.737769" lat="51.168914"><ele>33.4</ele><time>2022-04-17T09:20:49.000Z</time></trkpt><trkpt lon="5.737809" lat="51.168847"><ele>33.4</ele><time>2022-04-17T09:20:50.000Z</time></trkpt><trkpt lon="5.737847" lat="51.168782"><ele>33.2</ele><time>2022-04-17T09:20:51.000Z</time></trkpt><trkpt lon="5.737883" lat="51.168718"><ele>33.2</ele><time>2022-04-17T09:20:52.000Z</time></trkpt><trkpt lon="5.737921" lat="51.168653"><ele>33.2</ele><time>2022-04-17T09:20:53.000Z</time></trkpt><trkpt lon="5.737959" lat="51.168591"><ele>33</ele><time>2022-04-17T09:20:54.000Z</time></trkpt><trkpt lon="5.737996" lat="51.168526"><ele>33</ele><time>2022-04-17T09:20:55.000Z</time></trkpt><trkpt lon="5.738033" lat="51.168462"><ele>33</ele><time>2022-04-17T09:20:56.000Z</time></trkpt><trkpt lon="5.73807" lat="51.168396"><ele>33</ele><time>2022-04-17T09:20:57.000Z</time></trkpt><trkpt lon="5.738105" lat="51.16833"><ele>33</ele><time>2022-04-17T09:20:58.000Z</time></trkpt><trkpt lon="5.738142" lat="51.168264"><ele>33</ele><time>2022-04-17T09:20:59.000Z</time></trkpt><trkpt lon="5.738179" lat="51.168202"><ele>33</ele><time>2022-04-17T09:21:00.000Z</time></trkpt><trkpt lon="5.738215" lat="51.168138"><ele>33</ele><time>2022-04-17T09:21:01.000Z</time></trkpt><trkpt lon="5.73825" lat="51.168076"><ele>33</ele><time>2022-04-17T09:21:02.000Z</time></trkpt><trkpt lon="5.738286" lat="51.168012"><ele>33</ele><time>2022-04-17T09:21:03.000Z</time></trkpt><trkpt lon="5.738322" lat="51.16795"><ele>33</ele><time>2022-04-17T09:21:04.000Z</time></trkpt><trkpt lon="5.738359" lat="51.167885"><ele>33</ele><time>2022-04-17T09:21:05.000Z</time></trkpt><trkpt lon="5.738397" lat="51.167821"><ele>32.8</ele><time>2022-04-17T09:21:06.000Z</time></trkpt><trkpt lon="5.738436" lat="51.167755"><ele>32.8</ele><time>2022-04-17T09:21:07.000Z</time></trkpt><trkpt lon="5.738477" lat="51.167686"><ele>33</ele><time>2022-04-17T09:21:08.000Z</time></trkpt><trkpt lon="5.738519" lat="51.167617"><ele>33</ele><time>2022-04-17T09:21:09.000Z</time></trkpt><trkpt lon="5.738559" lat="51.167548"><ele>33</ele><time>2022-04-17T09:21:10.000Z</time></trkpt><trkpt lon="5.738597" lat="51.16748"><ele>33</ele><time>2022-04-17T09:21:11.000Z</time></trkpt><trkpt lon="5.738634" lat="51.167412"><ele>33</ele><time>2022-04-17T09:21:12.000Z</time></trkpt><trkpt lon="5.738673" lat="51.167347"><ele>33</ele><time>2022-04-17T09:21:13.000Z</time></trkpt><trkpt lon="5.738711" lat="51.167283"><ele>33</ele><time>2022-04-17T09:21:14.000Z</time></trkpt><trkpt lon="5.738749" lat="51.16722"><ele>33</ele><time>2022-04-17T09:21:15.000Z</time></trkpt><trkpt lon="5.738785" lat="51.167153"><ele>32.8</ele><time>2022-04-17T09:21:16.000Z</time></trkpt><trkpt lon="5.738823" lat="51.167088"><ele>32.6</ele><time>2022-04-17T09:21:17.000Z</time></trkpt><trkpt lon="5.738862" lat="51.167025"><ele>32.8</ele><time>2022-04-17T09:21:18.000Z</time></trkpt><trkpt lon="5.738904" lat="51.166963"><ele>32.8</ele><time>2022-04-17T09:21:19.000Z</time></trkpt><trkpt lon="5.738947" lat="51.166897"><ele>32.8</ele><time>2022-04-17T09:21:20.000Z</time></trkpt><trkpt lon="5.738987" lat="51.166833"><ele>32.8</ele><time>2022-04-17T09:21:21.000Z</time></trkpt><trkpt lon="5.739026" lat="51.166772"><ele>32.8</ele><time>2022-04-17T09:21:22.000Z</time></trkpt><trkpt lon="5.739067" lat="51.166706"><ele>32.8</ele><time>2022-04-17T09:21:23.000Z</time></trkpt><trkpt lon="5.739109" lat="51.166638"><ele>32.8</ele><time>2022-04-17T09:21:24.000Z</time></trkpt><trkpt lon="5.73915" lat="51.166574"><ele>32.8</ele><time>2022-04-17T09:21:25.000Z</time></trkpt><trkpt lon="5.739191" lat="51.166509"><ele>32.8</ele><time>2022-04-17T09:21:26.000Z</time></trkpt><trkpt lon="5.73923" lat="51.166438"><ele>32.8</ele><time>2022-04-17T09:21:27.000Z</time></trkpt><trkpt lon="5.739266" lat="51.166371"><ele>32.8</ele><time>2022-04-17T09:21:28.000Z</time></trkpt><trkpt lon="5.739301" lat="51.166306"><ele>32.8</ele><time>2022-04-17T09:21:29.000Z</time></trkpt><trkpt lon="5.739336" lat="51.166239"><ele>32.6</ele><time>2022-04-17T09:21:30.000Z</time></trkpt><trkpt lon="5.739373" lat="51.166172"><ele>32.6</ele><time>2022-04-17T09:21:31.000Z</time></trkpt><trkpt lon="5.739407" lat="51.166107"><ele>32.6</ele><time>2022-04-17T09:21:32.000Z</time></trkpt><trkpt lon="5.739441" lat="51.166044"><ele>32.4</ele><time>2022-04-17T09:21:33.000Z</time></trkpt><trkpt lon="5.739478" lat="51.165983"><ele>32.4</ele><time>2022-04-17T09:21:34.000Z</time></trkpt><trkpt lon="5.739516" lat="51.165922"><ele>32.4</ele><time>2022-04-17T09:21:35.000Z</time></trkpt><trkpt lon="5.739553" lat="51.165857"><ele>32.4</ele><time>2022-04-17T09:21:36.000Z</time></trkpt><trkpt lon="5.739588" lat="51.165793"><ele>32.6</ele><time>2022-04-17T09:21:37.000Z</time></trkpt><trkpt lon="5.739625" lat="51.165727"><ele>32.6</ele><time>2022-04-17T09:21:38.000Z</time></trkpt><trkpt lon="5.739663" lat="51.165664"><ele>32.6</ele><time>2022-04-17T09:21:39.000Z</time></trkpt><trkpt lon="5.739699" lat="51.1656"><ele>32.4</ele><time>2022-04-17T09:21:40.000Z</time></trkpt><trkpt lon="5.739733" lat="51.165536"><ele>32.4</ele><time>2022-04-17T09:21:41.000Z</time></trkpt><trkpt lon="5.739768" lat="51.165471"><ele>32.4</ele><time>2022-04-17T09:21:42.000Z</time></trkpt><trkpt lon="5.739804" lat="51.165405"><ele>32.4</ele><time>2022-04-17T09:21:43.000Z</time></trkpt><trkpt lon="5.739842" lat="51.165337"><ele>32.4</ele><time>2022-04-17T09:21:44.000Z</time></trkpt><trkpt lon="5.739877" lat="51.165273"><ele>32.6</ele><time>2022-04-17T09:21:45.000Z</time></trkpt><trkpt lon="5.739912" lat="51.165211"><ele>32.4</ele><time>2022-04-17T09:21:46.000Z</time></trkpt><trkpt lon="5.739949" lat="51.165148"><ele>32.4</ele><time>2022-04-17T09:21:47.000Z</time></trkpt><trkpt lon="5.739987" lat="51.165086"><ele>32.4</ele><time>2022-04-17T09:21:48.000Z</time></trkpt><trkpt lon="5.740023" lat="51.165021"><ele>32.6</ele><time>2022-04-17T09:21:49.000Z</time></trkpt><trkpt lon="5.740058" lat="51.164956"><ele>32.6</ele><time>2022-04-17T09:21:50.000Z</time></trkpt><trkpt lon="5.740093" lat="51.16489"><ele>32.4</ele><time>2022-04-17T09:21:51.000Z</time></trkpt><trkpt lon="5.740129" lat="51.164822"><ele>32.4</ele><time>2022-04-17T09:21:52.000Z</time></trkpt><trkpt lon="5.740168" lat="51.164758"><ele>32.4</ele><time>2022-04-17T09:21:53.000Z</time></trkpt><trkpt lon="5.740208" lat="51.164695"><ele>32.4</ele><time>2022-04-17T09:21:54.000Z</time></trkpt><trkpt lon="5.740248" lat="51.164628"><ele>32.4</ele><time>2022-04-17T09:21:55.000Z</time></trkpt><trkpt lon="5.740288" lat="51.164562"><ele>32.4</ele><time>2022-04-17T09:21:56.000Z</time></trkpt><trkpt lon="5.740327" lat="51.164498"><ele>32.4</ele><time>2022-04-17T09:21:57.000Z</time></trkpt><trkpt lon="5.740361" lat="51.164435"><ele>32.4</ele><time>2022-04-17T09:21:58.000Z</time></trkpt><trkpt lon="5.740394" lat="51.16437"><ele>32.4</ele><time>2022-04-17T09:21:59.000Z</time></trkpt><trkpt lon="5.74043" lat="51.164303"><ele>32.4</ele><time>2022-04-17T09:22:00.000Z</time></trkpt><trkpt lon="5.740464" lat="51.164235"><ele>32.4</ele><time>2022-04-17T09:22:01.000Z</time></trkpt><trkpt lon="5.740499" lat="51.16417"><ele>32.4</ele><time>2022-04-17T09:22:02.000Z</time></trkpt><trkpt lon="5.740535" lat="51.164106"><ele>32.4</ele><time>2022-04-17T09:22:03.000Z</time></trkpt><trkpt lon="5.740572" lat="51.164043"><ele>32.4</ele><time>2022-04-17T09:22:04.000Z</time></trkpt><trkpt lon="5.740606" lat="51.163976"><ele>32.4</ele><time>2022-04-17T09:22:05.000Z</time></trkpt><trkpt lon="5.740641" lat="51.163911"><ele>32.4</ele><time>2022-04-17T09:22:06.000Z</time></trkpt><trkpt lon="5.740677" lat="51.16385"><ele>32.6</ele><time>2022-04-17T09:22:07.000Z</time></trkpt><trkpt lon="5.740714" lat="51.163787"><ele>32.6</ele><time>2022-04-17T09:22:08.000Z</time></trkpt><trkpt lon="5.740753" lat="51.163728"><ele>32.6</ele><time>2022-04-17T09:22:09.000Z</time></trkpt><trkpt lon="5.740791" lat="51.163666"><ele>32.6</ele><time>2022-04-17T09:22:10.000Z</time></trkpt><trkpt lon="5.740831" lat="51.163601"><ele>32.6</ele><time>2022-04-17T09:22:11.000Z</time></trkpt><trkpt lon="5.740871" lat="51.163533"><ele>32.6</ele><time>2022-04-17T09:22:12.000Z</time></trkpt><trkpt lon="5.740909" lat="51.163467"><ele>32.6</ele><time>2022-04-17T09:22:13.000Z</time></trkpt><trkpt lon="5.740947" lat="51.163399"><ele>32.6</ele><time>2022-04-17T09:22:14.000Z</time></trkpt><trkpt lon="5.740985" lat="51.163331"><ele>32.6</ele><time>2022-04-17T09:22:15.000Z</time></trkpt><trkpt lon="5.741022" lat="51.163265"><ele>32.6</ele><time>2022-04-17T09:22:16.000Z</time></trkpt><trkpt lon="5.741059" lat="51.163196"><ele>32.8</ele><time>2022-04-17T09:22:17.000Z</time></trkpt><trkpt lon="5.741097" lat="51.163129"><ele>32.8</ele><time>2022-04-17T09:22:18.000Z</time></trkpt><trkpt lon="5.741136" lat="51.163063"><ele>32.8</ele><time>2022-04-17T09:22:19.000Z</time></trkpt><trkpt lon="5.741176" lat="51.162993"><ele>33</ele><time>2022-04-17T09:22:20.000Z</time></trkpt><trkpt lon="5.741214" lat="51.162926"><ele>33</ele><time>2022-04-17T09:22:21.000Z</time></trkpt><trkpt lon="5.741251" lat="51.162861"><ele>32.8</ele><time>2022-04-17T09:22:22.000Z</time></trkpt><trkpt lon="5.741287" lat="51.162791"><ele>32.8</ele><time>2022-04-17T09:22:23.000Z</time></trkpt><trkpt lon="5.741324" lat="51.16272"><ele>32.8</ele><time>2022-04-17T09:22:24.000Z</time></trkpt><trkpt lon="5.741363" lat="51.16265"><ele>32.8</ele><time>2022-04-17T09:22:25.000Z</time></trkpt><trkpt lon="5.741403" lat="51.162583"><ele>33</ele><time>2022-04-17T09:22:26.000Z</time></trkpt><trkpt lon="5.741443" lat="51.162517"><ele>32.8</ele><time>2022-04-17T09:22:27.000Z</time></trkpt><trkpt lon="5.741482" lat="51.162449"><ele>32.8</ele><time>2022-04-17T09:22:28.000Z</time></trkpt><trkpt lon="5.741518" lat="51.162381"><ele>32.8</ele><time>2022-04-17T09:22:29.000Z</time></trkpt><trkpt lon="5.741554" lat="51.162317"><ele>32.8</ele><time>2022-04-17T09:22:30.000Z</time></trkpt><trkpt lon="5.74159" lat="51.162256"><ele>32.8</ele><time>2022-04-17T09:22:31.000Z</time></trkpt><trkpt lon="5.741625" lat="51.16219"><ele>33</ele><time>2022-04-17T09:22:32.000Z</time></trkpt><trkpt lon="5.741663" lat="51.162125"><ele>33</ele><time>2022-04-17T09:22:33.000Z</time></trkpt><trkpt lon="5.741701" lat="51.162059"><ele>33</ele><time>2022-04-17T09:22:34.000Z</time></trkpt><trkpt lon="5.741737" lat="51.161991"><ele>33</ele><time>2022-04-17T09:22:35.000Z</time></trkpt><trkpt lon="5.741772" lat="51.161923"><ele>33</ele><time>2022-04-17T09:22:36.000Z</time></trkpt><trkpt lon="5.741809" lat="51.161858"><ele>33</ele><time>2022-04-17T09:22:37.000Z</time></trkpt><trkpt lon="5.741844" lat="51.161792"><ele>32.8</ele><time>2022-04-17T09:22:38.000Z</time></trkpt><trkpt lon="5.741875" lat="51.161726"><ele>32.8</ele><time>2022-04-17T09:22:39.000Z</time></trkpt><trkpt lon="5.741905" lat="51.161663"><ele>32.8</ele><time>2022-04-17T09:22:40.000Z</time></trkpt><trkpt lon="5.741934" lat="51.161594"><ele>32.8</ele><time>2022-04-17T09:22:41.000Z</time></trkpt><trkpt lon="5.74196" lat="51.161526"><ele>32.8</ele><time>2022-04-17T09:22:42.000Z</time></trkpt><trkpt lon="5.741985" lat="51.161461"><ele>32.8</ele><time>2022-04-17T09:22:43.000Z</time></trkpt><trkpt lon="5.742009" lat="51.161392"><ele>33</ele><time>2022-04-17T09:22:44.000Z</time></trkpt><trkpt lon="5.742028" lat="51.161323"><ele>33</ele><time>2022-04-17T09:22:45.000Z</time></trkpt><trkpt lon="5.742043" lat="51.161255"><ele>33</ele><time>2022-04-17T09:22:46.000Z</time></trkpt><trkpt lon="5.742054" lat="51.161186"><ele>33</ele><time>2022-04-17T09:22:47.000Z</time></trkpt><trkpt lon="5.742063" lat="51.161117"><ele>32.8</ele><time>2022-04-17T09:22:48.000Z</time></trkpt><trkpt lon="5.74207" lat="51.161044"><ele>33</ele><time>2022-04-17T09:22:49.000Z</time></trkpt><trkpt lon="5.742074" lat="51.16097"><ele>32.8</ele><time>2022-04-17T09:22:50.000Z</time></trkpt><trkpt lon="5.742076" lat="51.160895"><ele>32.8</ele><time>2022-04-17T09:22:51.000Z</time></trkpt><trkpt lon="5.742075" lat="51.160823"><ele>32.8</ele><time>2022-04-17T09:22:52.000Z</time></trkpt><trkpt lon="5.742074" lat="51.160751"><ele>32.8</ele><time>2022-04-17T09:22:53.000Z</time></trkpt><trkpt lon="5.742073" lat="51.160681"><ele>33</ele><time>2022-04-17T09:22:54.000Z</time></trkpt><trkpt lon="5.74207" lat="51.16061"><ele>33</ele><time>2022-04-17T09:22:55.000Z</time></trkpt><trkpt lon="5.742068" lat="51.160542"><ele>33</ele><time>2022-04-17T09:22:56.000Z</time></trkpt><trkpt lon="5.742067" lat="51.160475"><ele>33</ele><time>2022-04-17T09:22:57.000Z</time></trkpt><trkpt lon="5.742066" lat="51.1604"><ele>33</ele><time>2022-04-17T09:22:58.000Z</time></trkpt><trkpt lon="5.742065" lat="51.160327"><ele>33</ele><time>2022-04-17T09:22:59.000Z</time></trkpt><trkpt lon="5.742063" lat="51.160257"><ele>33</ele><time>2022-04-17T09:23:00.000Z</time></trkpt><trkpt lon="5.742062" lat="51.160187"><ele>32.8</ele><time>2022-04-17T09:23:01.000Z</time></trkpt><trkpt lon="5.742062" lat="51.160118"><ele>32.8</ele><time>2022-04-17T09:23:02.000Z</time></trkpt><trkpt lon="5.742062" lat="51.160049"><ele>32.8</ele><time>2022-04-17T09:23:03.000Z</time></trkpt><trkpt lon="5.742062" lat="51.15998"><ele>32.8</ele><time>2022-04-17T09:23:04.000Z</time></trkpt><trkpt lon="5.742061" lat="51.159911"><ele>32.8</ele><time>2022-04-17T09:23:05.000Z</time></trkpt><trkpt lon="5.74206" lat="51.159839"><ele>33</ele><time>2022-04-17T09:23:06.000Z</time></trkpt><trkpt lon="5.742058" lat="51.159772"><ele>33</ele><time>2022-04-17T09:23:07.000Z</time></trkpt><trkpt lon="5.742058" lat="51.159705"><ele>33</ele><time>2022-04-17T09:23:08.000Z</time></trkpt><trkpt lon="5.742057" lat="51.159635"><ele>33</ele><time>2022-04-17T09:23:09.000Z</time></trkpt><trkpt lon="5.742057" lat="51.159565"><ele>33</ele><time>2022-04-17T09:23:10.000Z</time></trkpt><trkpt lon="5.742056" lat="51.159497"><ele>33</ele><time>2022-04-17T09:23:11.000Z</time></trkpt><trkpt lon="5.742055" lat="51.159428"><ele>33</ele><time>2022-04-17T09:23:12.000Z</time></trkpt><trkpt lon="5.742054" lat="51.159357"><ele>33</ele><time>2022-04-17T09:23:13.000Z</time></trkpt><trkpt lon="5.742051" lat="51.159286"><ele>33</ele><time>2022-04-17T09:23:14.000Z</time></trkpt><trkpt lon="5.74205" lat="51.159217"><ele>33</ele><time>2022-04-17T09:23:15.000Z</time></trkpt><trkpt lon="5.742051" lat="51.159145"><ele>33</ele><time>2022-04-17T09:23:16.000Z</time></trkpt><trkpt lon="5.742052" lat="51.159075"><ele>32.8</ele><time>2022-04-17T09:23:17.000Z</time></trkpt><trkpt lon="5.742054" lat="51.159004"><ele>32.8</ele><time>2022-04-17T09:23:18.000Z</time></trkpt><trkpt lon="5.742054" lat="51.158934"><ele>32.8</ele><time>2022-04-17T09:23:19.000Z</time></trkpt><trkpt lon="5.742051" lat="51.158862"><ele>32.8</ele><time>2022-04-17T09:23:20.000Z</time></trkpt><trkpt lon="5.74205" lat="51.15879"><ele>32.8</ele><time>2022-04-17T09:23:21.000Z</time></trkpt><trkpt lon="5.742048" lat="51.158713"><ele>32.8</ele><time>2022-04-17T09:23:22.000Z</time></trkpt><trkpt lon="5.742048" lat="51.15864"><ele>32.8</ele><time>2022-04-17T09:23:23.000Z</time></trkpt><trkpt lon="5.742046" lat="51.158569"><ele>32.8</ele><time>2022-04-17T09:23:24.000Z</time></trkpt><trkpt lon="5.742044" lat="51.158503"><ele>32.8</ele><time>2022-04-17T09:23:25.000Z</time></trkpt><trkpt lon="5.742041" lat="51.158438"><ele>32.8</ele><time>2022-04-17T09:23:26.000Z</time></trkpt><trkpt lon="5.742038" lat="51.158359"><ele>32.8</ele><time>2022-04-17T09:23:27.000Z</time></trkpt><trkpt lon="5.742036" lat="51.15829"><ele>32.8</ele><time>2022-04-17T09:23:28.000Z</time></trkpt><trkpt lon="5.742033" lat="51.158222"><ele>32.8</ele><time>2022-04-17T09:23:29.000Z</time></trkpt><trkpt lon="5.742029" lat="51.158153"><ele>32.8</ele><time>2022-04-17T09:23:30.000Z</time></trkpt><trkpt lon="5.742026" lat="51.158085"><ele>32.6</ele><time>2022-04-17T09:23:31.000Z</time></trkpt><trkpt lon="5.742023" lat="51.158015"><ele>32.4</ele><time>2022-04-17T09:23:32.000Z</time></trkpt><trkpt lon="5.742022" lat="51.157947"><ele>32.4</ele><time>2022-04-17T09:23:33.000Z</time></trkpt><trkpt lon="5.742021" lat="51.157878"><ele>32.4</ele><time>2022-04-17T09:23:34.000Z</time></trkpt><trkpt lon="5.74202" lat="51.157811"><ele>32.4</ele><time>2022-04-17T09:23:35.000Z</time></trkpt><trkpt lon="5.742018" lat="51.157746"><ele>32.4</ele><time>2022-04-17T09:23:36.000Z</time></trkpt><trkpt lon="5.742016" lat="51.157681"><ele>32.6</ele><time>2022-04-17T09:23:37.000Z</time></trkpt><trkpt lon="5.742013" lat="51.157614"><ele>32.6</ele><time>2022-04-17T09:23:38.000Z</time></trkpt><trkpt lon="5.742011" lat="51.157546"><ele>32.4</ele><time>2022-04-17T09:23:39.000Z</time></trkpt><trkpt lon="5.742011" lat="51.157477"><ele>32.6</ele><time>2022-04-17T09:23:40.000Z</time></trkpt><trkpt lon="5.742012" lat="51.15741"><ele>32.6</ele><time>2022-04-17T09:23:41.000Z</time></trkpt><trkpt lon="5.742013" lat="51.157344"><ele>32.6</ele><time>2022-04-17T09:23:42.000Z</time></trkpt><trkpt lon="5.742013" lat="51.157276"><ele>32.6</ele><time>2022-04-17T09:23:43.000Z</time></trkpt><trkpt lon="5.742009" lat="51.157206"><ele>32.6</ele><time>2022-04-17T09:23:44.000Z</time></trkpt><trkpt lon="5.742006" lat="51.157135"><ele>32.6</ele><time>2022-04-17T09:23:45.000Z</time></trkpt><trkpt lon="5.742005" lat="51.157066"><ele>32.6</ele><time>2022-04-17T09:23:46.000Z</time></trkpt><trkpt lon="5.742005" lat="51.156997"><ele>32.6</ele><time>2022-04-17T09:23:47.000Z</time></trkpt><trkpt lon="5.742004" lat="51.156928"><ele>32.8</ele><time>2022-04-17T09:23:48.000Z</time></trkpt><trkpt lon="5.742003" lat="51.156855"><ele>32.8</ele><time>2022-04-17T09:23:49.000Z</time></trkpt><trkpt lon="5.742003" lat="51.156784"><ele>32.8</ele><time>2022-04-17T09:23:50.000Z</time></trkpt><trkpt lon="5.742002" lat="51.156718"><ele>32.8</ele><time>2022-04-17T09:23:51.000Z</time></trkpt><trkpt lon="5.742001" lat="51.156647"><ele>33</ele><time>2022-04-17T09:23:52.000Z</time></trkpt><trkpt lon="5.742" lat="51.156577"><ele>33</ele><time>2022-04-17T09:23:53.000Z</time></trkpt><trkpt lon="5.741998" lat="51.156504"><ele>33</ele><time>2022-04-17T09:23:54.000Z</time></trkpt><trkpt lon="5.741997" lat="51.156432"><ele>33</ele><time>2022-04-17T09:23:55.000Z</time></trkpt><trkpt lon="5.741996" lat="51.156361"><ele>33.2</ele><time>2022-04-17T09:23:56.000Z</time></trkpt><trkpt lon="5.741993" lat="51.156287"><ele>33.2</ele><time>2022-04-17T09:23:57.000Z</time></trkpt><trkpt lon="5.741991" lat="51.156218"><ele>33</ele><time>2022-04-17T09:23:58.000Z</time></trkpt><trkpt lon="5.74199" lat="51.156144"><ele>33</ele><time>2022-04-17T09:23:59.000Z</time></trkpt><trkpt lon="5.74199" lat="51.15607"><ele>32.8</ele><time>2022-04-17T09:24:00.000Z</time></trkpt><trkpt lon="5.74199" lat="51.156"><ele>32.8</ele><time>2022-04-17T09:24:01.000Z</time></trkpt><trkpt lon="5.741987" lat="51.15593"><ele>32.8</ele><time>2022-04-17T09:24:02.000Z</time></trkpt><trkpt lon="5.741985" lat="51.15586"><ele>32.8</ele><time>2022-04-17T09:24:03.000Z</time></trkpt><trkpt lon="5.741985" lat="51.155792"><ele>33</ele><time>2022-04-17T09:24:04.000Z</time></trkpt><trkpt lon="5.741985" lat="51.155724"><ele>33</ele><time>2022-04-17T09:24:05.000Z</time></trkpt><trkpt lon="5.741984" lat="51.155654"><ele>33</ele><time>2022-04-17T09:24:06.000Z</time></trkpt><trkpt lon="5.741981" lat="51.155585"><ele>33.2</ele><time>2022-04-17T09:24:07.000Z</time></trkpt><trkpt lon="5.741978" lat="51.155515"><ele>33.2</ele><time>2022-04-17T09:24:08.000Z</time></trkpt><trkpt lon="5.741976" lat="51.155445"><ele>33.2</ele><time>2022-04-17T09:24:09.000Z</time></trkpt><trkpt lon="5.741971" lat="51.155376"><ele>33.2</ele><time>2022-04-17T09:24:10.000Z</time></trkpt><trkpt lon="5.741958" lat="51.155309"><ele>33.2</ele><time>2022-04-17T09:24:11.000Z</time></trkpt><trkpt lon="5.741934" lat="51.155242"><ele>33.2</ele><time>2022-04-17T09:24:12.000Z</time></trkpt><trkpt lon="5.74191" lat="51.155175"><ele>33.4</ele><time>2022-04-17T09:24:13.000Z</time></trkpt><trkpt lon="5.741894" lat="51.15511"><ele>33.4</ele><time>2022-04-17T09:24:14.000Z</time></trkpt><trkpt lon="5.741888" lat="51.15504"><ele>33.4</ele><time>2022-04-17T09:24:15.000Z</time></trkpt><trkpt lon="5.741892" lat="51.154971"><ele>33.4</ele><time>2022-04-17T09:24:16.000Z</time></trkpt><trkpt lon="5.741908" lat="51.154899"><ele>33.6</ele><time>2022-04-17T09:24:17.000Z</time></trkpt><trkpt lon="5.741931" lat="51.154831"><ele>33.4</ele><time>2022-04-17T09:24:18.000Z</time></trkpt><trkpt lon="5.74195" lat="51.154765"><ele>33.4</ele><time>2022-04-17T09:24:19.000Z</time></trkpt><trkpt lon="5.74196" lat="51.154694"><ele>33.4</ele><time>2022-04-17T09:24:20.000Z</time></trkpt><trkpt lon="5.741959" lat="51.154624"><ele>33.4</ele><time>2022-04-17T09:24:21.000Z</time></trkpt><trkpt lon="5.741954" lat="51.15455"><ele>33.6</ele><time>2022-04-17T09:24:22.000Z</time></trkpt><trkpt lon="5.741953" lat="51.154476"><ele>33.6</ele><time>2022-04-17T09:24:23.000Z</time></trkpt><trkpt lon="5.741954" lat="51.154406"><ele>33.6</ele><time>2022-04-17T09:24:24.000Z</time></trkpt><trkpt lon="5.741955" lat="51.154333"><ele>33.6</ele><time>2022-04-17T09:24:25.000Z</time></trkpt><trkpt lon="5.741957" lat="51.154262"><ele>33.6</ele><time>2022-04-17T09:24:26.000Z</time></trkpt><trkpt lon="5.741956" lat="51.154192"><ele>33.6</ele><time>2022-04-17T09:24:27.000Z</time></trkpt><trkpt lon="5.741954" lat="51.15412"><ele>33.6</ele><time>2022-04-17T09:24:28.000Z</time></trkpt><trkpt lon="5.741953" lat="51.154046"><ele>33.6</ele><time>2022-04-17T09:24:29.000Z</time></trkpt><trkpt lon="5.741951" lat="51.153971"><ele>33.6</ele><time>2022-04-17T09:24:30.000Z</time></trkpt><trkpt lon="5.74195" lat="51.153894"><ele>33.4</ele><time>2022-04-17T09:24:31.000Z</time></trkpt><trkpt lon="5.74195" lat="51.153817"><ele>33.4</ele><time>2022-04-17T09:24:32.000Z</time></trkpt><trkpt lon="5.74195" lat="51.153741"><ele>33.4</ele><time>2022-04-17T09:24:33.000Z</time></trkpt><trkpt lon="5.741947" lat="51.153665"><ele>33.4</ele><time>2022-04-17T09:24:34.000Z</time></trkpt><trkpt lon="5.741944" lat="51.153589"><ele>33.4</ele><time>2022-04-17T09:24:35.000Z</time></trkpt><trkpt lon="5.741943" lat="51.153517"><ele>33.6</ele><time>2022-04-17T09:24:36.000Z</time></trkpt><trkpt lon="5.741941" lat="51.153445"><ele>33.6</ele><time>2022-04-17T09:24:37.000Z</time></trkpt><trkpt lon="5.741941" lat="51.153372"><ele>33.6</ele><time>2022-04-17T09:24:38.000Z</time></trkpt><trkpt lon="5.74194" lat="51.153299"><ele>33.6</ele><time>2022-04-17T09:24:39.000Z</time></trkpt><trkpt lon="5.741939" lat="51.153227"><ele>33.4</ele><time>2022-04-17T09:24:40.000Z</time></trkpt><trkpt lon="5.741938" lat="51.153151"><ele>33.2</ele><time>2022-04-17T09:24:41.000Z</time></trkpt><trkpt lon="5.741936" lat="51.153079"><ele>33.2</ele><time>2022-04-17T09:24:42.000Z</time></trkpt><trkpt lon="5.741935" lat="51.153006"><ele>33.2</ele><time>2022-04-17T09:24:43.000Z</time></trkpt><trkpt lon="5.741934" lat="51.152933"><ele>33.2</ele><time>2022-04-17T09:24:44.000Z</time></trkpt><trkpt lon="5.741933" lat="51.152863"><ele>33.2</ele><time>2022-04-17T09:24:45.000Z</time></trkpt><trkpt lon="5.741931" lat="51.152793"><ele>33.4</ele><time>2022-04-17T09:24:46.000Z</time></trkpt><trkpt lon="5.74193" lat="51.152721"><ele>33.4</ele><time>2022-04-17T09:24:47.000Z</time></trkpt><trkpt lon="5.74193" lat="51.152653"><ele>33.4</ele><time>2022-04-17T09:24:48.000Z</time></trkpt><trkpt lon="5.74193" lat="51.152579"><ele>33.4</ele><time>2022-04-17T09:24:49.000Z</time></trkpt><trkpt lon="5.74193" lat="51.152508"><ele>33.4</ele><time>2022-04-17T09:24:50.000Z</time></trkpt><trkpt lon="5.741929" lat="51.152438"><ele>33.6</ele><time>2022-04-17T09:24:51.000Z</time></trkpt><trkpt lon="5.741925" lat="51.152371"><ele>33.6</ele><time>2022-04-17T09:24:52.000Z</time></trkpt><trkpt lon="5.741921" lat="51.152305"><ele>33.6</ele><time>2022-04-17T09:24:53.000Z</time></trkpt><trkpt lon="5.74192" lat="51.152237"><ele>33.8</ele><time>2022-04-17T09:24:54.000Z</time></trkpt><trkpt lon="5.741918" lat="51.152168"><ele>33.8</ele><time>2022-04-17T09:24:55.000Z</time></trkpt><trkpt lon="5.741917" lat="51.152099"><ele>33.8</ele><time>2022-04-17T09:24:56.000Z</time></trkpt><trkpt lon="5.741919" lat="51.152032"><ele>33.8</ele><time>2022-04-17T09:24:57.000Z</time></trkpt><trkpt lon="5.741919" lat="51.151965"><ele>33.8</ele><time>2022-04-17T09:24:58.000Z</time></trkpt><trkpt lon="5.741918" lat="51.151894"><ele>33.8</ele><time>2022-04-17T09:24:59.000Z</time></trkpt><trkpt lon="5.741917" lat="51.151824"><ele>33.8</ele><time>2022-04-17T09:25:00.000Z</time></trkpt><trkpt lon="5.741917" lat="51.151756"><ele>33.8</ele><time>2022-04-17T09:25:01.000Z</time></trkpt><trkpt lon="5.741916" lat="51.151686"><ele>33.8</ele><time>2022-04-17T09:25:02.000Z</time></trkpt><trkpt lon="5.741915" lat="51.151613"><ele>33.6</ele><time>2022-04-17T09:25:03.000Z</time></trkpt><trkpt lon="5.741913" lat="51.151542"><ele>33.6</ele><time>2022-04-17T09:25:04.000Z</time></trkpt><trkpt lon="5.741912" lat="51.151473"><ele>33.8</ele><time>2022-04-17T09:25:05.000Z</time></trkpt><trkpt lon="5.741912" lat="51.1514"><ele>33.8</ele><time>2022-04-17T09:25:06.000Z</time></trkpt><trkpt lon="5.741911" lat="51.151329"><ele>33.8</ele><time>2022-04-17T09:25:07.000Z</time></trkpt><trkpt lon="5.741909" lat="51.151259"><ele>34</ele><time>2022-04-17T09:25:08.000Z</time></trkpt><trkpt lon="5.741906" lat="51.151186"><ele>34</ele><time>2022-04-17T09:25:09.000Z</time></trkpt><trkpt lon="5.741906" lat="51.151114"><ele>34</ele><time>2022-04-17T09:25:10.000Z</time></trkpt><trkpt lon="5.741907" lat="51.151041"><ele>34</ele><time>2022-04-17T09:25:11.000Z</time></trkpt><trkpt lon="5.74191" lat="51.150969"><ele>34</ele><time>2022-04-17T09:25:12.000Z</time></trkpt><trkpt lon="5.741912" lat="51.150896"><ele>34.2</ele><time>2022-04-17T09:25:13.000Z</time></trkpt><trkpt lon="5.741913" lat="51.150825"><ele>34.2</ele><time>2022-04-17T09:25:14.000Z</time></trkpt><trkpt lon="5.741913" lat="51.150752"><ele>34.2</ele><time>2022-04-17T09:25:15.000Z</time></trkpt><trkpt lon="5.741911" lat="51.150679"><ele>34.2</ele><time>2022-04-17T09:25:16.000Z</time></trkpt><trkpt lon="5.74191" lat="51.150607"><ele>34.2</ele><time>2022-04-17T09:25:17.000Z</time></trkpt><trkpt lon="5.74191" lat="51.150538"><ele>34.2</ele><time>2022-04-17T09:25:18.000Z</time></trkpt><trkpt lon="5.74191" lat="51.150466"><ele>34.2</ele><time>2022-04-17T09:25:19.000Z</time></trkpt><trkpt lon="5.741908" lat="51.150396"><ele>34.2</ele><time>2022-04-17T09:25:20.000Z</time></trkpt><trkpt lon="5.741904" lat="51.150326"><ele>34.4</ele><time>2022-04-17T09:25:21.000Z</time></trkpt><trkpt lon="5.741901" lat="51.150261"><ele>34.4</ele><time>2022-04-17T09:25:22.000Z</time></trkpt><trkpt lon="5.741897" lat="51.150191"><ele>34.4</ele><time>2022-04-17T09:25:23.000Z</time></trkpt><trkpt lon="5.741892" lat="51.150124"><ele>34.4</ele><time>2022-04-17T09:25:24.000Z</time></trkpt><trkpt lon="5.741891" lat="51.15006"><ele>34.6</ele><time>2022-04-17T09:25:25.000Z</time></trkpt><trkpt lon="5.741896" lat="51.149995"><ele>34.6</ele><time>2022-04-17T09:25:26.000Z</time></trkpt><trkpt lon="5.741897" lat="51.149928"><ele>34.6</ele><time>2022-04-17T09:25:27.000Z</time></trkpt><trkpt lon="5.741896" lat="51.149855"><ele>34.6</ele><time>2022-04-17T09:25:28.000Z</time></trkpt><trkpt lon="5.741892" lat="51.149783"><ele>34.8</ele><time>2022-04-17T09:25:29.000Z</time></trkpt><trkpt lon="5.741889" lat="51.14971"><ele>34.8</ele><time>2022-04-17T09:25:30.000Z</time></trkpt><trkpt lon="5.741886" lat="51.149638"><ele>34.8</ele><time>2022-04-17T09:25:31.000Z</time></trkpt><trkpt lon="5.741883" lat="51.149569"><ele>34.8</ele><time>2022-04-17T09:25:32.000Z</time></trkpt><trkpt lon="5.741883" lat="51.149497"><ele>34.8</ele><time>2022-04-17T09:25:33.000Z</time></trkpt><trkpt lon="5.741881" lat="51.149429"><ele>34.8</ele><time>2022-04-17T09:25:34.000Z</time></trkpt><trkpt lon="5.74188" lat="51.149359"><ele>34.8</ele><time>2022-04-17T09:25:35.000Z</time></trkpt><trkpt lon="5.741878" lat="51.149286"><ele>35</ele><time>2022-04-17T09:25:36.000Z</time></trkpt><trkpt lon="5.741874" lat="51.149216"><ele>35</ele><time>2022-04-17T09:25:37.000Z</time></trkpt><trkpt lon="5.741871" lat="51.14915"><ele>35.2</ele><time>2022-04-17T09:25:38.000Z</time></trkpt><trkpt lon="5.741869" lat="51.149083"><ele>35.2</ele><time>2022-04-17T09:25:39.000Z</time></trkpt><trkpt lon="5.741866" lat="51.149018"><ele>35.2</ele><time>2022-04-17T09:25:40.000Z</time></trkpt><trkpt lon="5.741863" lat="51.148948"><ele>35</ele><time>2022-04-17T09:25:41.000Z</time></trkpt><trkpt lon="5.741861" lat="51.148875"><ele>35</ele><time>2022-04-17T09:25:42.000Z</time></trkpt><trkpt lon="5.741859" lat="51.148802"><ele>35.2</ele><time>2022-04-17T09:25:43.000Z</time></trkpt><trkpt lon="5.741858" lat="51.148726"><ele>35</ele><time>2022-04-17T09:25:44.000Z</time></trkpt><trkpt lon="5.741857" lat="51.148647"><ele>35</ele><time>2022-04-17T09:25:45.000Z</time></trkpt><trkpt lon="5.741856" lat="51.148567"><ele>35</ele><time>2022-04-17T09:25:46.000Z</time></trkpt><trkpt lon="5.741855" lat="51.148488"><ele>34.8</ele><time>2022-04-17T09:25:47.000Z</time></trkpt><trkpt lon="5.741852" lat="51.148413"><ele>34.8</ele><time>2022-04-17T09:25:48.000Z</time></trkpt><trkpt lon="5.741849" lat="51.14834"><ele>34.8</ele><time>2022-04-17T09:25:49.000Z</time></trkpt><trkpt lon="5.741846" lat="51.148264"><ele>34.8</ele><time>2022-04-17T09:25:50.000Z</time></trkpt><trkpt lon="5.741846" lat="51.148187"><ele>34.6</ele><time>2022-04-17T09:25:51.000Z</time></trkpt><trkpt lon="5.741846" lat="51.148112"><ele>34.6</ele><time>2022-04-17T09:25:52.000Z</time></trkpt><trkpt lon="5.741845" lat="51.148039"><ele>34.6</ele><time>2022-04-17T09:25:53.000Z</time></trkpt><trkpt lon="5.741842" lat="51.147969"><ele>34.4</ele><time>2022-04-17T09:25:54.000Z</time></trkpt><trkpt lon="5.741838" lat="51.147898"><ele>34.2</ele><time>2022-04-17T09:25:55.000Z</time></trkpt><trkpt lon="5.741835" lat="51.147826"><ele>34.2</ele><time>2022-04-17T09:25:56.000Z</time></trkpt><trkpt lon="5.741832" lat="51.147754"><ele>34.2</ele><time>2022-04-17T09:25:57.000Z</time></trkpt><trkpt lon="5.741829" lat="51.147681"><ele>34.2</ele><time>2022-04-17T09:25:58.000Z</time></trkpt><trkpt lon="5.741827" lat="51.14761"><ele>34.2</ele><time>2022-04-17T09:25:59.000Z</time></trkpt><trkpt lon="5.741826" lat="51.14754"><ele>34.2</ele><time>2022-04-17T09:26:00.000Z</time></trkpt><trkpt lon="5.741824" lat="51.147467"><ele>34.4</ele><time>2022-04-17T09:26:01.000Z</time></trkpt><trkpt lon="5.741819" lat="51.147395"><ele>34.4</ele><time>2022-04-17T09:26:02.000Z</time></trkpt><trkpt lon="5.741816" lat="51.147326"><ele>34.2</ele><time>2022-04-17T09:26:03.000Z</time></trkpt><trkpt lon="5.741814" lat="51.147254"><ele>34.4</ele><time>2022-04-17T09:26:04.000Z</time></trkpt><trkpt lon="5.741811" lat="51.147182"><ele>34.4</ele><time>2022-04-17T09:26:05.000Z</time></trkpt><trkpt lon="5.741808" lat="51.147109"><ele>34.4</ele><time>2022-04-17T09:26:06.000Z</time></trkpt><trkpt lon="5.741806" lat="51.147038"><ele>34.2</ele><time>2022-04-17T09:26:07.000Z</time></trkpt><trkpt lon="5.741805" lat="51.146968"><ele>34.2</ele><time>2022-04-17T09:26:08.000Z</time></trkpt><trkpt lon="5.741802" lat="51.146898"><ele>34</ele><time>2022-04-17T09:26:09.000Z</time></trkpt><trkpt lon="5.741797" lat="51.146829"><ele>34</ele><time>2022-04-17T09:26:10.000Z</time></trkpt><trkpt lon="5.741792" lat="51.146758"><ele>34</ele><time>2022-04-17T09:26:11.000Z</time></trkpt><trkpt lon="5.741789" lat="51.146681"><ele>34.2</ele><time>2022-04-17T09:26:12.000Z</time></trkpt><trkpt lon="5.741785" lat="51.146607"><ele>34.2</ele><time>2022-04-17T09:26:13.000Z</time></trkpt><trkpt lon="5.741783" lat="51.146532"><ele>34.2</ele><time>2022-04-17T09:26:14.000Z</time></trkpt><trkpt lon="5.741783" lat="51.146461"><ele>34.2</ele><time>2022-04-17T09:26:15.000Z</time></trkpt><trkpt lon="5.741781" lat="51.146393"><ele>34.2</ele><time>2022-04-17T09:26:16.000Z</time></trkpt><trkpt lon="5.741778" lat="51.146325"><ele>34</ele><time>2022-04-17T09:26:17.000Z</time></trkpt><trkpt lon="5.741773" lat="51.14626"><ele>34</ele><time>2022-04-17T09:26:18.000Z</time></trkpt><trkpt lon="5.741767" lat="51.146195"><ele>34</ele><time>2022-04-17T09:26:19.000Z</time></trkpt><trkpt lon="5.741764" lat="51.146132"><ele>34</ele><time>2022-04-17T09:26:20.000Z</time></trkpt><trkpt lon="5.74176" lat="51.146076"><ele>34</ele><time>2022-04-17T09:26:21.000Z</time></trkpt><trkpt lon="5.741752" lat="51.146019"><ele>34</ele><time>2022-04-17T09:26:22.000Z</time></trkpt><trkpt lon="5.74174" lat="51.145967"><ele>34</ele><time>2022-04-17T09:26:23.000Z</time></trkpt><trkpt lon="5.741727" lat="51.145918"><ele>34</ele><time>2022-04-17T09:26:24.000Z</time></trkpt><trkpt lon="5.741715" lat="51.145868"><ele>34</ele><time>2022-04-17T09:26:25.000Z</time></trkpt><trkpt lon="5.741704" lat="51.14582"><ele>34</ele><time>2022-04-17T09:26:26.000Z</time></trkpt><trkpt lon="5.741685" lat="51.145779"><ele>34</ele><time>2022-04-17T09:26:27.000Z</time></trkpt><trkpt lon="5.741662" lat="51.145743"><ele>34</ele><time>2022-04-17T09:26:28.000Z</time></trkpt><trkpt lon="5.741629" lat="51.145714"><ele>34.2</ele><time>2022-04-17T09:26:29.000Z</time></trkpt><trkpt lon="5.741589" lat="51.145689"><ele>34.2</ele><time>2022-04-17T09:26:30.000Z</time></trkpt><trkpt lon="5.741545" lat="51.14567"><ele>34.2</ele><time>2022-04-17T09:26:31.000Z</time></trkpt><trkpt lon="5.741495" lat="51.145653"><ele>34.2</ele><time>2022-04-17T09:26:32.000Z</time></trkpt><trkpt lon="5.741446" lat="51.145635"><ele>34.2</ele><time>2022-04-17T09:26:33.000Z</time></trkpt><trkpt lon="5.741408" lat="51.145611"><ele>34.2</ele><time>2022-04-17T09:26:34.000Z</time></trkpt><trkpt lon="5.741391" lat="51.145584"><ele>34.4</ele><time>2022-04-17T09:26:35.000Z</time></trkpt><trkpt lon="5.741401" lat="51.145558"><ele>34.2</ele><time>2022-04-17T09:26:36.000Z</time></trkpt><trkpt lon="5.741435" lat="51.145531"><ele>34.2</ele><time>2022-04-17T09:26:37.000Z</time></trkpt><trkpt lon="5.741486" lat="51.145504"><ele>34</ele><time>2022-04-17T09:26:38.000Z</time></trkpt><trkpt lon="5.741543" lat="51.145477"><ele>34.2</ele><time>2022-04-17T09:26:39.000Z</time></trkpt><trkpt lon="5.741596" lat="51.145452"><ele>34</ele><time>2022-04-17T09:26:40.000Z</time></trkpt><trkpt lon="5.741645" lat="51.145431"><ele>33.8</ele><time>2022-04-17T09:26:41.000Z</time></trkpt><trkpt lon="5.741695" lat="51.145417"><ele>33.8</ele><time>2022-04-17T09:26:42.000Z</time></trkpt><trkpt lon="5.741752" lat="51.145406"><ele>33.8</ele><time>2022-04-17T09:26:43.000Z</time></trkpt><trkpt lon="5.741809" lat="51.145399"><ele>33.8</ele><time>2022-04-17T09:26:44.000Z</time></trkpt><trkpt lon="5.741864" lat="51.145393"><ele>33.8</ele><time>2022-04-17T09:26:45.000Z</time></trkpt><trkpt lon="5.741918" lat="51.145397"><ele>33.8</ele><time>2022-04-17T09:26:46.000Z</time></trkpt><trkpt lon="5.74197" lat="51.145412"><ele>34</ele><time>2022-04-17T09:26:47.000Z</time></trkpt><trkpt lon="5.742016" lat="51.145442"><ele>34</ele><time>2022-04-17T09:26:48.000Z</time></trkpt><trkpt lon="5.742057" lat="51.145479"><ele>34</ele><time>2022-04-17T09:26:49.000Z</time></trkpt><trkpt lon="5.7421" lat="51.145511"><ele>34</ele><time>2022-04-17T09:26:50.000Z</time></trkpt><trkpt lon="5.742152" lat="51.145535"><ele>34</ele><time>2022-04-17T09:26:51.000Z</time></trkpt><trkpt lon="5.742213" lat="51.14555"><ele>34.2</ele><time>2022-04-17T09:26:52.000Z</time></trkpt><trkpt lon="5.74228" lat="51.145566"><ele>34</ele><time>2022-04-17T09:26:53.000Z</time></trkpt><trkpt lon="5.742348" lat="51.145582"><ele>34</ele><time>2022-04-17T09:26:54.000Z</time></trkpt><trkpt lon="5.742418" lat="51.145603"><ele>34.2</ele><time>2022-04-17T09:26:55.000Z</time></trkpt><trkpt lon="5.742488" lat="51.145632"><ele>34.2</ele><time>2022-04-17T09:26:56.000Z</time></trkpt><trkpt lon="5.742561" lat="51.145665"><ele>34</ele><time>2022-04-17T09:26:57.000Z</time></trkpt><trkpt lon="5.742634" lat="51.145694"><ele>34</ele><time>2022-04-17T09:26:58.000Z</time></trkpt><trkpt lon="5.742707" lat="51.145713"><ele>34</ele><time>2022-04-17T09:26:59.000Z</time></trkpt><trkpt lon="5.742777" lat="51.145722"><ele>34</ele><time>2022-04-17T09:27:00.000Z</time></trkpt><trkpt lon="5.742844" lat="51.145727"><ele>34.2</ele><time>2022-04-17T09:27:01.000Z</time></trkpt><trkpt lon="5.74291" lat="51.145734"><ele>34.4</ele><time>2022-04-17T09:27:02.000Z</time></trkpt><trkpt lon="5.742973" lat="51.145739"><ele>34.4</ele><time>2022-04-17T09:27:03.000Z</time></trkpt></trkseg></trk></gpx>